<?xml version='1.0' encoding='UTF-8'?><gpx version="1.1" creator="JPX - https://github.com/jenetics/jpx" xmlns="http://www.topografix.com/GPX/1/1"><trk><trkseg><trkpt lat="43.9575617" lon="12.755775"><ele>7.500000000000001</ele><time>2026-04-19T12:25:50.885Z</time></trkpt><trkpt lat="43.957445" lon="12.7557183"><ele>8.0</ele><time>2026-04-19T12:25:52.888Z</time></trkpt><trkpt lat="43.957375" lon="12.7556983"><ele>8.5</ele><time>2026-04-19T12:25:53.887Z</time></trkpt><trkpt lat="43.9573033" lon="12.7556717"><ele>9.0</ele><time>2026-04-19T12:25:54.885Z</time></trkpt><trkpt lat="43.95723" lon="12.7556283"><ele>9.5</ele><time>2026-04-19T12:25:55.887Z</time></trkpt><trkpt lat="43.957155" lon="12.7555733"><ele>10.0</ele><time>2026-04-19T12:25:56.885Z</time></trkpt><trkpt lat="43.9570783" lon="12.7555117"><ele>10.0</ele><time>2026-04-19T12:25:57.885Z</time></trkpt><trkpt lat="43.9570017" lon="12.7554467"><ele>10.0</ele><time>2026-04-19T12:25:58.886Z</time></trkpt><trkpt lat="43.9569183" lon="12.755375"><ele>10.0</ele><time>2026-04-19T12:25:59.886Z</time></trkpt><trkpt lat="43.9568317" lon="12.7552917"><ele>10.0</ele><time>2026-04-19T12:26:00.887Z</time></trkpt><trkpt lat="43.956755" lon="12.755195"><ele>10.0</ele><time>2026-04-19T12:26:02.886Z</time></trkpt><trkpt lat="43.9566567" lon="12.755145"><ele>9.5</ele><time>2026-04-19T12:26:03.886Z</time></trkpt><trkpt lat="43.9565517" lon="12.75505"><ele>9.0</ele><time>2026-04-19T12:26:04.886Z</time></trkpt><trkpt lat="43.956445" lon="12.7549483"><ele>8.5</ele><time>2026-04-19T12:26:05.887Z</time></trkpt><trkpt lat="43.95634" lon="12.7548467"><ele>8.0</ele><time>2026-04-19T12:26:06.888Z</time></trkpt><trkpt lat="43.9562333" lon="12.7547483"><ele>8.0</ele><time>2026-04-19T12:26:07.887Z</time></trkpt><trkpt lat="43.9561217" lon="12.7546467"><ele>8.0</ele><time>2026-04-19T12:26:08.885Z</time></trkpt><trkpt lat="43.95601" lon="12.7545483"><ele>8.0</ele><time>2026-04-19T12:26:09.887Z</time></trkpt><trkpt lat="43.955895" lon="12.7544467"><ele>8.0</ele><time>2026-04-19T12:26:10.886Z</time></trkpt><trkpt lat="43.9557733" lon="12.7543433"><ele>7.75</ele><time>2026-04-19T12:26:11.884Z</time></trkpt><trkpt lat="43.9556567" lon="12.75424"><ele>7.5</ele><time>2026-04-19T12:26:12.888Z</time></trkpt><trkpt lat="43.9555417" lon="12.75414"><ele>7.25</ele><time>2026-04-19T12:26:13.887Z</time></trkpt><trkpt lat="43.955425" lon="12.754035"><ele>7.0</ele><time>2026-04-19T12:26:14.886Z</time></trkpt><trkpt lat="43.9553133" lon="12.7539267"><ele>7.0</ele><time>2026-04-19T12:26:15.886Z</time></trkpt><trkpt lat="43.9552067" lon="12.753825"><ele>7.0</ele><time>2026-04-19T12:26:16.887Z</time></trkpt><trkpt lat="43.9551033" lon="12.7537417"><ele>7.0</ele><time>2026-04-19T12:26:17.887Z</time></trkpt><trkpt lat="43.955005" lon="12.753685"><ele>7.0</ele><time>2026-04-19T12:26:18.888Z</time></trkpt><trkpt lat="43.954905" lon="12.75365"><ele>7.199999999999999</ele><time>2026-04-19T12:26:19.888Z</time></trkpt><trkpt lat="43.9548083" lon="12.75362"><ele>7.3999999999999995</ele><time>2026-04-19T12:26:20.887Z</time></trkpt><trkpt lat="43.9547217" lon="12.75358"><ele>7.6000000000000005</ele><time>2026-04-19T12:26:21.891Z</time></trkpt><trkpt lat="43.9546417" lon="12.7535133"><ele>7.800000000000001</ele><time>2026-04-19T12:26:22.888Z</time></trkpt><trkpt lat="43.9545717" lon="12.75342"><ele>8.0</ele><time>2026-04-19T12:26:23.887Z</time></trkpt><trkpt lat="43.954525" lon="12.7533033"><ele>8.166666666666666</ele><time>2026-04-19T12:26:24.888Z</time></trkpt><trkpt lat="43.9545083" lon="12.7531733"><ele>8.333333333333332</ele><time>2026-04-19T12:26:25.887Z</time></trkpt><trkpt lat="43.9545183" lon="12.75305"><ele>8.5</ele><time>2026-04-19T12:26:26.888Z</time></trkpt><trkpt lat="43.954545" lon="12.7529383"><ele>8.666666666666666</ele><time>2026-04-19T12:26:27.886Z</time></trkpt><trkpt lat="43.9545633" lon="12.75283"><ele>8.833333333333334</ele><time>2026-04-19T12:26:28.887Z</time></trkpt><trkpt lat="43.9545667" lon="12.75272"><ele>9.0</ele><time>2026-04-19T12:26:29.887Z</time></trkpt><trkpt lat="43.95454" lon="12.752615"><ele>9.0</ele><time>2026-04-19T12:26:30.888Z</time></trkpt><trkpt lat="43.9544833" lon="12.75253"><ele>9.0</ele><time>2026-04-19T12:26:31.887Z</time></trkpt><trkpt lat="43.9544083" lon="12.7524767"><ele>9.0</ele><time>2026-04-19T12:26:32.889Z</time></trkpt><trkpt lat="43.9543283" lon="12.7524683"><ele>9.0</ele><time>2026-04-19T12:26:33.888Z</time></trkpt><trkpt lat="43.9542433" lon="12.7525117"><ele>9.0</ele><time>2026-04-19T12:26:34.886Z</time></trkpt><trkpt lat="43.9541567" lon="12.75259"><ele>9.0</ele><time>2026-04-19T12:26:35.887Z</time></trkpt><trkpt lat="43.9540767" lon="12.7526433"><ele>9.6</ele><time>2026-04-19T12:26:36.887Z</time></trkpt><trkpt lat="43.953995" lon="12.7526917"><ele>10.2</ele><time>2026-04-19T12:26:37.889Z</time></trkpt><trkpt lat="43.9539017" lon="12.7527067"><ele>10.799999999999999</ele><time>2026-04-19T12:26:38.888Z</time></trkpt><trkpt lat="43.953815" lon="12.7526817"><ele>11.4</ele><time>2026-04-19T12:26:39.887Z</time></trkpt><trkpt lat="43.95373" lon="12.752615"><ele>12.0</ele><time>2026-04-19T12:26:40.887Z</time></trkpt><trkpt lat="43.9536467" lon="12.75252"><ele>12.0</ele><time>2026-04-19T12:26:41.887Z</time></trkpt><trkpt lat="43.9535683" lon="12.752425"><ele>12.0</ele><time>2026-04-19T12:26:42.888Z</time></trkpt><trkpt lat="43.9534883" lon="12.75233"><ele>12.0</ele><time>2026-04-19T12:26:43.887Z</time></trkpt><trkpt lat="43.9534083" lon="12.7522317"><ele>12.0</ele><time>2026-04-19T12:26:44.886Z</time></trkpt><trkpt lat="43.953325" lon="12.7521333"><ele>12.0</ele><time>2026-04-19T12:26:45.886Z</time></trkpt><trkpt lat="43.95324" lon="12.7520333"><ele>12.0</ele><time>2026-04-19T12:26:46.887Z</time></trkpt><trkpt lat="43.9531517" lon="12.75193"><ele>12.0</ele><time>2026-04-19T12:26:47.887Z</time></trkpt><trkpt lat="43.95306" lon="12.751825"><ele>12.0</ele><time>2026-04-19T12:26:48.888Z</time></trkpt><trkpt lat="43.9529667" lon="12.7517167"><ele>12.0</ele><time>2026-04-19T12:26:49.888Z</time></trkpt><trkpt lat="43.95287" lon="12.7516033"><ele>12.0</ele><time>2026-04-19T12:26:50.886Z</time></trkpt><trkpt lat="43.9527667" lon="12.751485"><ele>12.0</ele><time>2026-04-19T12:26:51.888Z</time></trkpt><trkpt lat="43.9526617" lon="12.7513667"><ele>12.0</ele><time>2026-04-19T12:26:52.887Z</time></trkpt><trkpt lat="43.9525583" lon="12.7512517"><ele>12.0</ele><time>2026-04-19T12:26:53.887Z</time></trkpt><trkpt lat="43.9524617" lon="12.7511417"><ele>12.25</ele><time>2026-04-19T12:26:54.887Z</time></trkpt><trkpt lat="43.9523667" lon="12.751035"><ele>12.5</ele><time>2026-04-19T12:26:55.888Z</time></trkpt><trkpt lat="43.9522733" lon="12.750925"><ele>12.75</ele><time>2026-04-19T12:26:56.886Z</time></trkpt><trkpt lat="43.952175" lon="12.7508117"><ele>13.0</ele><time>2026-04-19T12:26:57.888Z</time></trkpt><trkpt lat="43.9520733" lon="12.7506933"><ele>13.0</ele><time>2026-04-19T12:26:58.887Z</time></trkpt><trkpt lat="43.95197" lon="12.7505717"><ele>13.0</ele><time>2026-04-19T12:26:59.886Z</time></trkpt><trkpt lat="43.9518633" lon="12.750445"><ele>13.0</ele><time>2026-04-19T12:27:00.889Z</time></trkpt><trkpt lat="43.9517483" lon="12.7503133"><ele>13.0</ele><time>2026-04-19T12:27:01.887Z</time></trkpt><trkpt lat="43.9516283" lon="12.75018"><ele>13.0</ele><time>2026-04-19T12:27:02.884Z</time></trkpt><trkpt lat="43.9515033" lon="12.7500433"><ele>13.0</ele><time>2026-04-19T12:27:03.886Z</time></trkpt><trkpt lat="43.9513783" lon="12.749905"><ele>13.0</ele><time>2026-04-19T12:27:04.885Z</time></trkpt><trkpt lat="43.951245" lon="12.7497683"><ele>13.0</ele><time>2026-04-19T12:27:05.885Z</time></trkpt><trkpt lat="43.9511017" lon="12.74964"><ele>13.0</ele><time>2026-04-19T12:27:06.885Z</time></trkpt><trkpt lat="43.9509533" lon="12.7495183"><ele>13.0</ele><time>2026-04-19T12:27:07.889Z</time></trkpt><trkpt lat="43.950805" lon="12.7493933"><ele>12.666666666666666</ele><time>2026-04-19T12:27:08.884Z</time></trkpt><trkpt lat="43.9506517" lon="12.74927"><ele>12.333333333333332</ele><time>2026-04-19T12:27:09.886Z</time></trkpt><trkpt lat="43.9504967" lon="12.7491517"><ele>12.0</ele><time>2026-04-19T12:27:10.886Z</time></trkpt><trkpt lat="43.9503367" lon="12.7490333"><ele>12.0</ele><time>2026-04-19T12:27:11.885Z</time></trkpt><trkpt lat="43.9501833" lon="12.7489183"><ele>12.0</ele><time>2026-04-19T12:27:12.886Z</time></trkpt><trkpt lat="43.95003" lon="12.7488067"><ele>12.0</ele><time>2026-04-19T12:27:13.885Z</time></trkpt><trkpt lat="43.9498783" lon="12.7486917"><ele>11.666666666666666</ele><time>2026-04-19T12:27:14.885Z</time></trkpt><trkpt lat="43.9497267" lon="12.74858"><ele>11.333333333333332</ele><time>2026-04-19T12:27:15.886Z</time></trkpt><trkpt lat="43.949575" lon="12.748465"><ele>11.0</ele><time>2026-04-19T12:27:16.885Z</time></trkpt><trkpt lat="43.9494267" lon="12.74835"><ele>11.0</ele><time>2026-04-19T12:27:17.886Z</time></trkpt><trkpt lat="43.9492883" lon="12.7482433"><ele>11.0</ele><time>2026-04-19T12:27:18.885Z</time></trkpt><trkpt lat="43.94916" lon="12.7481467"><ele>11.0</ele><time>2026-04-19T12:27:19.885Z</time></trkpt><trkpt lat="43.9490383" lon="12.748055"><ele>11.0</ele><time>2026-04-19T12:27:20.884Z</time></trkpt><trkpt lat="43.94892" lon="12.7479667"><ele>11.0</ele><time>2026-04-19T12:27:21.885Z</time></trkpt><trkpt lat="43.9488017" lon="12.74788"><ele>11.0</ele><time>2026-04-19T12:27:22.886Z</time></trkpt><trkpt lat="43.948685" lon="12.7477983"><ele>11.0</ele><time>2026-04-19T12:27:23.886Z</time></trkpt><trkpt lat="43.948575" lon="12.7477183"><ele>11.0</ele><time>2026-04-19T12:27:24.886Z</time></trkpt><trkpt lat="43.9484667" lon="12.7476467"><ele>11.75</ele><time>2026-04-19T12:27:25.886Z</time></trkpt><trkpt lat="43.9483567" lon="12.7475833"><ele>12.5</ele><time>2026-04-19T12:27:26.884Z</time></trkpt><trkpt lat="43.9482467" lon="12.747525"><ele>13.25</ele><time>2026-04-19T12:27:27.885Z</time></trkpt><trkpt lat="43.9481367" lon="12.7474633"><ele>14.0</ele><time>2026-04-19T12:27:28.888Z</time></trkpt><trkpt lat="43.94802" lon="12.7474117"><ele>14.0</ele><time>2026-04-19T12:27:29.888Z</time></trkpt><trkpt lat="43.9479017" lon="12.7473767"><ele>14.0</ele><time>2026-04-19T12:27:30.889Z</time></trkpt><trkpt lat="43.9477783" lon="12.7473533"><ele>14.0</ele><time>2026-04-19T12:27:31.887Z</time></trkpt><trkpt lat="43.9476617" lon="12.7473417"><ele>14.0</ele><time>2026-04-19T12:27:32.885Z</time></trkpt><trkpt lat="43.9475433" lon="12.7473417"><ele>14.75</ele><time>2026-04-19T12:27:33.884Z</time></trkpt><trkpt lat="43.9474217" lon="12.747355"><ele>15.5</ele><time>2026-04-19T12:27:34.886Z</time></trkpt><trkpt lat="43.9473" lon="12.7473783"><ele>16.25</ele><time>2026-04-19T12:27:35.887Z</time></trkpt><trkpt lat="43.9471783" lon="12.74741"><ele>17.0</ele><time>2026-04-19T12:27:36.885Z</time></trkpt><trkpt lat="43.947055" lon="12.7474433"><ele>17.0</ele><time>2026-04-19T12:27:37.886Z</time></trkpt><trkpt lat="43.9469317" lon="12.7474817"><ele>17.0</ele><time>2026-04-19T12:27:38.886Z</time></trkpt><trkpt lat="43.9468067" lon="12.7475217"><ele>17.0</ele><time>2026-04-19T12:27:39.886Z</time></trkpt><trkpt lat="43.9466833" lon="12.7475617"><ele>17.0</ele><time>2026-04-19T12:27:40.885Z</time></trkpt><trkpt lat="43.9465583" lon="12.7475983"><ele>16.75</ele><time>2026-04-19T12:27:41.885Z</time></trkpt><trkpt lat="43.946435" lon="12.7476367"><ele>16.5</ele><time>2026-04-19T12:27:42.885Z</time></trkpt><trkpt lat="43.94631" lon="12.7476733"><ele>16.25</ele><time>2026-04-19T12:27:43.887Z</time></trkpt><trkpt lat="43.9461833" lon="12.7477133"><ele>16.0</ele><time>2026-04-19T12:27:44.885Z</time></trkpt><trkpt lat="43.9460583" lon="12.7477533"><ele>17.0</ele><time>2026-04-19T12:27:45.885Z</time></trkpt><trkpt lat="43.94593" lon="12.747795"><ele>18.0</ele><time>2026-04-19T12:27:46.887Z</time></trkpt><trkpt lat="43.9458" lon="12.747835"><ele>19.0</ele><time>2026-04-19T12:27:47.887Z</time></trkpt><trkpt lat="43.9456683" lon="12.747875"><ele>20.0</ele><time>2026-04-19T12:27:48.886Z</time></trkpt><trkpt lat="43.9455367" lon="12.747915"><ele>20.0</ele><time>2026-04-19T12:27:49.887Z</time></trkpt><trkpt lat="43.9454033" lon="12.7479517"><ele>20.0</ele><time>2026-04-19T12:27:50.885Z</time></trkpt><trkpt lat="43.9452717" lon="12.7479917"><ele>20.0</ele><time>2026-04-19T12:27:51.886Z</time></trkpt><trkpt lat="43.94514" lon="12.748035"><ele>20.0</ele><time>2026-04-19T12:27:52.885Z</time></trkpt><trkpt lat="43.9450117" lon="12.74809"><ele>19.5</ele><time>2026-04-19T12:27:53.885Z</time></trkpt><trkpt lat="43.9448867" lon="12.748165"><ele>19.0</ele><time>2026-04-19T12:27:54.886Z</time></trkpt><trkpt lat="43.944765" lon="12.7482467"><ele>18.5</ele><time>2026-04-19T12:27:55.888Z</time></trkpt><trkpt lat="43.9446417" lon="12.7483317"><ele>18.0</ele><time>2026-04-19T12:27:56.886Z</time></trkpt><trkpt lat="43.9445267" lon="12.7484267"><ele>18.0</ele><time>2026-04-19T12:27:57.885Z</time></trkpt><trkpt lat="43.944415" lon="12.74852"><ele>18.0</ele><time>2026-04-19T12:27:58.885Z</time></trkpt><trkpt lat="43.9443133" lon="12.74861"><ele>18.0</ele><time>2026-04-19T12:27:59.886Z</time></trkpt><trkpt lat="43.944215" lon="12.7487"><ele>18.0</ele><time>2026-04-19T12:28:00.888Z</time></trkpt><trkpt lat="43.9441217" lon="12.74879"><ele>18.4</ele><time>2026-04-19T12:28:01.885Z</time></trkpt><trkpt lat="43.944025" lon="12.74888"><ele>18.8</ele><time>2026-04-19T12:28:02.889Z</time></trkpt><trkpt lat="43.9439383" lon="12.748965"><ele>19.2</ele><time>2026-04-19T12:28:03.885Z</time></trkpt><trkpt lat="43.9438517" lon="12.74904"><ele>19.6</ele><time>2026-04-19T12:28:04.886Z</time></trkpt><trkpt lat="43.9437717" lon="12.7491017"><ele>20.0</ele><time>2026-04-19T12:28:05.886Z</time></trkpt><trkpt lat="43.9436967" lon="12.7491483"><ele>20.0</ele><time>2026-04-19T12:28:06.887Z</time></trkpt><trkpt lat="43.9436283" lon="12.7491767"><ele>20.0</ele><time>2026-04-19T12:28:07.885Z</time></trkpt><trkpt lat="43.9435633" lon="12.7491883"><ele>20.0</ele><time>2026-04-19T12:28:08.884Z</time></trkpt><trkpt lat="43.94345" lon="12.7491533"><ele>20.0</ele><time>2026-04-19T12:28:10.885Z</time></trkpt><trkpt lat="43.9433933" lon="12.7491033"><ele>20.0</ele><time>2026-04-19T12:28:11.884Z</time></trkpt><trkpt lat="43.9433333" lon="12.749035"><ele>20.0</ele><time>2026-04-19T12:28:12.885Z</time></trkpt><trkpt lat="43.9432767" lon="12.7489517"><ele>19.8</ele><time>2026-04-19T12:28:13.886Z</time></trkpt><trkpt lat="43.943225" lon="12.748855"><ele>19.6</ele><time>2026-04-19T12:28:14.887Z</time></trkpt><trkpt lat="43.9431717" lon="12.74875"><ele>19.4</ele><time>2026-04-19T12:28:15.886Z</time></trkpt><trkpt lat="43.9431183" lon="12.7486317"><ele>19.2</ele><time>2026-04-19T12:28:16.889Z</time></trkpt><trkpt lat="43.9430667" lon="12.7485067"><ele>19.0</ele><time>2026-04-19T12:28:17.886Z</time></trkpt><trkpt lat="43.9430183" lon="12.74838"><ele>19.0</ele><time>2026-04-19T12:28:18.887Z</time></trkpt><trkpt lat="43.94297" lon="12.7482533"><ele>19.0</ele><time>2026-04-19T12:28:19.888Z</time></trkpt><trkpt lat="43.9429217" lon="12.7481267"><ele>19.0</ele><time>2026-04-19T12:28:20.887Z</time></trkpt><trkpt lat="43.942875" lon="12.7480033"><ele>19.0</ele><time>2026-04-19T12:28:21.887Z</time></trkpt><trkpt lat="43.9428317" lon="12.7478867"><ele>19.0</ele><time>2026-04-19T12:28:22.888Z</time></trkpt><trkpt lat="43.9427883" lon="12.7477783"><ele>18.599999999999998</ele><time>2026-04-19T12:28:23.888Z</time></trkpt><trkpt lat="43.942745" lon="12.74767"><ele>18.2</ele><time>2026-04-19T12:28:24.888Z</time></trkpt><trkpt lat="43.9427" lon="12.7475533"><ele>17.799999999999997</ele><time>2026-04-19T12:28:25.888Z</time></trkpt><trkpt lat="43.9426517" lon="12.7474267"><ele>17.4</ele><time>2026-04-19T12:28:26.888Z</time></trkpt><trkpt lat="43.9425933" lon="12.7472917"><ele>17.0</ele><time>2026-04-19T12:28:27.887Z</time></trkpt><trkpt lat="43.9425217" lon="12.7471583"><ele>17.0</ele><time>2026-04-19T12:28:28.888Z</time></trkpt><trkpt lat="43.9424367" lon="12.747025"><ele>17.0</ele><time>2026-04-19T12:28:29.887Z</time></trkpt><trkpt lat="43.94234" lon="12.74689"><ele>17.0</ele><time>2026-04-19T12:28:30.889Z</time></trkpt><trkpt lat="43.9422383" lon="12.7467517"><ele>17.0</ele><time>2026-04-19T12:28:31.887Z</time></trkpt><trkpt lat="43.94213" lon="12.7466083"><ele>16.666666666666668</ele><time>2026-04-19T12:28:32.889Z</time></trkpt><trkpt lat="43.94202" lon="12.746465"><ele>16.333333333333332</ele><time>2026-04-19T12:28:33.887Z</time></trkpt><trkpt lat="43.9419067" lon="12.7463217"><ele>16.0</ele><time>2026-04-19T12:28:34.887Z</time></trkpt><trkpt lat="43.94179" lon="12.746175"><ele>15.666666666666666</ele><time>2026-04-19T12:28:35.887Z</time></trkpt><trkpt lat="43.9416733" lon="12.746025"><ele>15.333333333333332</ele><time>2026-04-19T12:28:36.887Z</time></trkpt><trkpt lat="43.9415533" lon="12.7458717"><ele>15.0</ele><time>2026-04-19T12:28:37.888Z</time></trkpt><trkpt lat="43.94143" lon="12.7457133"><ele>15.0</ele><time>2026-04-19T12:28:38.887Z</time></trkpt><trkpt lat="43.9413033" lon="12.745555"><ele>15.0</ele><time>2026-04-19T12:28:39.887Z</time></trkpt><trkpt lat="43.9411783" lon="12.745395"><ele>15.0</ele><time>2026-04-19T12:28:40.888Z</time></trkpt><trkpt lat="43.9410483" lon="12.7452317"><ele>15.0</ele><time>2026-04-19T12:28:41.887Z</time></trkpt><trkpt lat="43.94092" lon="12.745065"><ele>15.0</ele><time>2026-04-19T12:28:42.888Z</time></trkpt><trkpt lat="43.9407917" lon="12.7448983"><ele>15.0</ele><time>2026-04-19T12:28:43.888Z</time></trkpt><trkpt lat="43.94066" lon="12.7447283"><ele>15.0</ele><time>2026-04-19T12:28:44.887Z</time></trkpt><trkpt lat="43.9405283" lon="12.74456"><ele>15.0</ele><time>2026-04-19T12:28:45.887Z</time></trkpt><trkpt lat="43.9403983" lon="12.74439"><ele>15.0</ele><time>2026-04-19T12:28:46.887Z</time></trkpt><trkpt lat="43.9402633" lon="12.7442167"><ele>15.0</ele><time>2026-04-19T12:28:47.886Z</time></trkpt><trkpt lat="43.9401283" lon="12.7440417"><ele>15.0</ele><time>2026-04-19T12:28:48.887Z</time></trkpt><trkpt lat="43.9399933" lon="12.7438667"><ele>15.0</ele><time>2026-04-19T12:28:49.887Z</time></trkpt><trkpt lat="43.93986" lon="12.7436917"><ele>15.333333333333332</ele><time>2026-04-19T12:28:50.886Z</time></trkpt><trkpt lat="43.93973" lon="12.743515"><ele>15.666666666666666</ele><time>2026-04-19T12:28:51.886Z</time></trkpt><trkpt lat="43.9396017" lon="12.74334"><ele>16.0</ele><time>2026-04-19T12:28:52.886Z</time></trkpt><trkpt lat="43.9394717" lon="12.7431667"><ele>16.0</ele><time>2026-04-19T12:28:53.888Z</time></trkpt><trkpt lat="43.9393433" lon="12.7429883"><ele>16.0</ele><time>2026-04-19T12:28:54.886Z</time></trkpt><trkpt lat="43.9392117" lon="12.7428117"><ele>16.0</ele><time>2026-04-19T12:28:55.886Z</time></trkpt><trkpt lat="43.9390867" lon="12.7426433"><ele>16.25</ele><time>2026-04-19T12:28:56.887Z</time></trkpt><trkpt lat="43.938975" lon="12.7424817"><ele>16.5</ele><time>2026-04-19T12:28:57.886Z</time></trkpt><trkpt lat="43.9388867" lon="12.7423183"><ele>16.75</ele><time>2026-04-19T12:28:58.886Z</time></trkpt><trkpt lat="43.9388183" lon="12.7421533"><ele>17.0</ele><time>2026-04-19T12:28:59.887Z</time></trkpt><trkpt lat="43.9387717" lon="12.7419917"><ele>16.6</ele><time>2026-04-19T12:29:00.889Z</time></trkpt><trkpt lat="43.9387333" lon="12.741835"><ele>16.2</ele><time>2026-04-19T12:29:01.886Z</time></trkpt><trkpt lat="43.9387033" lon="12.7416867"><ele>15.8</ele><time>2026-04-19T12:29:02.885Z</time></trkpt><trkpt lat="43.9386817" lon="12.7415567"><ele>15.4</ele><time>2026-04-19T12:29:03.886Z</time></trkpt><trkpt lat="43.9386633" lon="12.7414517"><ele>15.0</ele><time>2026-04-19T12:29:04.887Z</time></trkpt><trkpt lat="43.9386317" lon="12.7413667"><ele>15.0</ele><time>2026-04-19T12:29:05.887Z</time></trkpt><trkpt lat="43.9385217" lon="12.7412867"><ele>15.0</ele><time>2026-04-19T12:29:07.886Z</time></trkpt><trkpt lat="43.9384217" lon="12.7413033"><ele>15.0</ele><time>2026-04-19T12:29:08.886Z</time></trkpt><trkpt lat="43.9382917" lon="12.7413367"><ele>15.0</ele><time>2026-04-19T12:29:09.885Z</time></trkpt><trkpt lat="43.9381633" lon="12.7413517"><ele>15.6</ele><time>2026-04-19T12:29:10.886Z</time></trkpt><trkpt lat="43.9380383" lon="12.74135"><ele>16.2</ele><time>2026-04-19T12:29:11.888Z</time></trkpt><trkpt lat="43.9379217" lon="12.7413367"><ele>16.8</ele><time>2026-04-19T12:29:12.887Z</time></trkpt><trkpt lat="43.9378183" lon="12.7413217"><ele>17.4</ele><time>2026-04-19T12:29:13.887Z</time></trkpt><trkpt lat="43.93772" lon="12.74131"><ele>18.0</ele><time>2026-04-19T12:29:14.886Z</time></trkpt><trkpt lat="43.93762" lon="12.74132"><ele>19.25</ele><time>2026-04-19T12:29:15.886Z</time></trkpt><trkpt lat="43.9375117" lon="12.741355"><ele>20.5</ele><time>2026-04-19T12:29:16.885Z</time></trkpt><trkpt lat="43.9373983" lon="12.74141"><ele>21.75</ele><time>2026-04-19T12:29:17.887Z</time></trkpt><trkpt lat="43.937275" lon="12.7414733"><ele>23.0</ele><time>2026-04-19T12:29:18.887Z</time></trkpt><trkpt lat="43.9371367" lon="12.74153"><ele>23.0</ele><time>2026-04-19T12:29:19.887Z</time></trkpt><trkpt lat="43.9369833" lon="12.7415483"><ele>23.0</ele><time>2026-04-19T12:29:20.886Z</time></trkpt><trkpt lat="43.9368267" lon="12.74151"><ele>23.0</ele><time>2026-04-19T12:29:21.885Z</time></trkpt><trkpt lat="43.9366683" lon="12.7414467"><ele>26.333333333333336</ele><time>2026-04-19T12:29:22.887Z</time></trkpt><trkpt lat="43.9365083" lon="12.7413967"><ele>29.666666666666668</ele><time>2026-04-19T12:29:23.887Z</time></trkpt><trkpt lat="43.9363483" lon="12.741365"><ele>33.0</ele><time>2026-04-19T12:29:24.887Z</time></trkpt><trkpt lat="43.9361917" lon="12.7413467"><ele>33.0</ele><time>2026-04-19T12:29:25.887Z</time></trkpt><trkpt lat="43.9360433" lon="12.7413483"><ele>33.0</ele><time>2026-04-19T12:29:26.887Z</time></trkpt><trkpt lat="43.9359167" lon="12.7413667"><ele>33.0</ele><time>2026-04-19T12:29:27.887Z</time></trkpt><trkpt lat="43.93582" lon="12.7413933"><ele>33.0</ele><time>2026-04-19T12:29:28.885Z</time></trkpt><trkpt lat="43.9357333" lon="12.7414183"><ele>35.2</ele><time>2026-04-19T12:29:29.887Z</time></trkpt><trkpt lat="43.9356617" lon="12.7414367"><ele>37.4</ele><time>2026-04-19T12:29:30.888Z</time></trkpt><trkpt lat="43.93558" lon="12.741455"><ele>39.6</ele><time>2026-04-19T12:29:31.886Z</time></trkpt><trkpt lat="43.93549" lon="12.7414717"><ele>41.800000000000004</ele><time>2026-04-19T12:29:32.888Z</time></trkpt><trkpt lat="43.935385" lon="12.7414883"><ele>44.0</ele><time>2026-04-19T12:29:33.885Z</time></trkpt><trkpt lat="43.9352683" lon="12.7415067"><ele>44.0</ele><time>2026-04-19T12:29:34.887Z</time></trkpt><trkpt lat="43.9351433" lon="12.74153"><ele>44.0</ele><time>2026-04-19T12:29:35.888Z</time></trkpt><trkpt lat="43.93502" lon="12.741555"><ele>44.0</ele><time>2026-04-19T12:29:36.887Z</time></trkpt><trkpt lat="43.9348967" lon="12.7415767"><ele>44.0</ele><time>2026-04-19T12:29:37.887Z</time></trkpt><trkpt lat="43.93477" lon="12.7415767"><ele>43.25</ele><time>2026-04-19T12:29:38.888Z</time></trkpt><trkpt lat="43.93464" lon="12.74156"><ele>42.5</ele><time>2026-04-19T12:29:39.886Z</time></trkpt><trkpt lat="43.9345033" lon="12.7415283"><ele>41.75</ele><time>2026-04-19T12:29:40.887Z</time></trkpt><trkpt lat="43.9343617" lon="12.7414967"><ele>41.0</ele><time>2026-04-19T12:29:41.885Z</time></trkpt><trkpt lat="43.9342217" lon="12.741465"><ele>39.25</ele><time>2026-04-19T12:29:42.886Z</time></trkpt><trkpt lat="43.9340883" lon="12.74144"><ele>37.5</ele><time>2026-04-19T12:29:43.888Z</time></trkpt><trkpt lat="43.9339633" lon="12.7414067"><ele>35.75</ele><time>2026-04-19T12:29:44.885Z</time></trkpt><trkpt lat="43.9338433" lon="12.7413633"><ele>34.0</ele><time>2026-04-19T12:29:45.886Z</time></trkpt><trkpt lat="43.9337233" lon="12.7413033"><ele>34.0</ele><time>2026-04-19T12:29:46.886Z</time></trkpt><trkpt lat="43.9335933" lon="12.74126"><ele>34.0</ele><time>2026-04-19T12:29:47.887Z</time></trkpt><trkpt lat="43.9334533" lon="12.74125"><ele>34.0</ele><time>2026-04-19T12:29:48.887Z</time></trkpt><trkpt lat="43.9333083" lon="12.7412717"><ele>34.0</ele><time>2026-04-19T12:29:49.886Z</time></trkpt><trkpt lat="43.9331683" lon="12.7413117"><ele>33.25</ele><time>2026-04-19T12:29:50.886Z</time></trkpt><trkpt lat="43.9330333" lon="12.7413583"><ele>32.5</ele><time>2026-04-19T12:29:51.886Z</time></trkpt><trkpt lat="43.9329067" lon="12.741395"><ele>31.75</ele><time>2026-04-19T12:29:52.885Z</time></trkpt><trkpt lat="43.9327883" lon="12.7414133"><ele>31.0</ele><time>2026-04-19T12:29:53.887Z</time></trkpt><trkpt lat="43.9326733" lon="12.7414"><ele>30.25</ele><time>2026-04-19T12:29:54.887Z</time></trkpt><trkpt lat="43.932555" lon="12.7413483"><ele>29.5</ele><time>2026-04-19T12:29:55.886Z</time></trkpt><trkpt lat="43.9324283" lon="12.7412667"><ele>28.75</ele><time>2026-04-19T12:29:56.888Z</time></trkpt><trkpt lat="43.9322967" lon="12.7411683"><ele>28.0</ele><time>2026-04-19T12:29:57.889Z</time></trkpt><trkpt lat="43.9321683" lon="12.7410733"><ele>27.75</ele><time>2026-04-19T12:29:58.888Z</time></trkpt><trkpt lat="43.9320367" lon="12.7409733"><ele>27.5</ele><time>2026-04-19T12:29:59.888Z</time></trkpt><trkpt lat="43.9319117" lon="12.74087"><ele>27.25</ele><time>2026-04-19T12:30:00.888Z</time></trkpt><trkpt lat="43.9317967" lon="12.740765"><ele>27.0</ele><time>2026-04-19T12:30:01.886Z</time></trkpt><trkpt lat="43.931695" lon="12.7406583"><ele>26.833333333333332</ele><time>2026-04-19T12:30:02.887Z</time></trkpt><trkpt lat="43.931605" lon="12.7405517"><ele>26.666666666666664</ele><time>2026-04-19T12:30:03.888Z</time></trkpt><trkpt lat="43.9315333" lon="12.7404567"><ele>26.5</ele><time>2026-04-19T12:30:04.888Z</time></trkpt><trkpt lat="43.9314667" lon="12.7403783"><ele>26.333333333333332</ele><time>2026-04-19T12:30:05.887Z</time></trkpt><trkpt lat="43.9314067" lon="12.7403267"><ele>26.166666666666664</ele><time>2026-04-19T12:30:06.888Z</time></trkpt><trkpt lat="43.9313467" lon="12.7402983"><ele>26.0</ele><time>2026-04-19T12:30:07.888Z</time></trkpt><trkpt lat="43.9312717" lon="12.7403067"><ele>26.0</ele><time>2026-04-19T12:30:08.887Z</time></trkpt><trkpt lat="43.9311733" lon="12.7403467"><ele>26.0</ele><time>2026-04-19T12:30:09.886Z</time></trkpt><trkpt lat="43.9310417" lon="12.7404083"><ele>26.0</ele><time>2026-04-19T12:30:10.888Z</time></trkpt><trkpt lat="43.930895" lon="12.74047"><ele>26.0</ele><time>2026-04-19T12:30:11.886Z</time></trkpt><trkpt lat="43.930745" lon="12.740515"><ele>26.25</ele><time>2026-04-19T12:30:12.886Z</time></trkpt><trkpt lat="43.9305983" lon="12.740535"><ele>26.5</ele><time>2026-04-19T12:30:13.885Z</time></trkpt><trkpt lat="43.9304483" lon="12.7405467"><ele>26.75</ele><time>2026-04-19T12:30:14.886Z</time></trkpt><trkpt lat="43.9303067" lon="12.74055"><ele>27.0</ele><time>2026-04-19T12:30:15.886Z</time></trkpt><trkpt lat="43.9301617" lon="12.7405617"><ele>27.75</ele><time>2026-04-19T12:30:16.887Z</time></trkpt><trkpt lat="43.9300133" lon="12.740585"><ele>28.5</ele><time>2026-04-19T12:30:17.887Z</time></trkpt><trkpt lat="43.92987" lon="12.7406067"><ele>29.25</ele><time>2026-04-19T12:30:18.888Z</time></trkpt><trkpt lat="43.9297217" lon="12.74064"><ele>30.0</ele><time>2026-04-19T12:30:19.887Z</time></trkpt><trkpt lat="43.9295683" lon="12.7406817"><ele>30.0</ele><time>2026-04-19T12:30:20.886Z</time></trkpt><trkpt lat="43.9294183" lon="12.7407183"><ele>30.0</ele><time>2026-04-19T12:30:21.887Z</time></trkpt><trkpt lat="43.9292717" lon="12.74075"><ele>30.0</ele><time>2026-04-19T12:30:22.887Z</time></trkpt><trkpt lat="43.9291267" lon="12.7407783"><ele>30.0</ele><time>2026-04-19T12:30:23.887Z</time></trkpt><trkpt lat="43.9289817" lon="12.74079"><ele>30.0</ele><time>2026-04-19T12:30:24.885Z</time></trkpt><trkpt lat="43.9288467" lon="12.7407867"><ele>30.0</ele><time>2026-04-19T12:30:25.886Z</time></trkpt><trkpt lat="43.92872" lon="12.7407783"><ele>30.0</ele><time>2026-04-19T12:30:26.979Z</time></trkpt><trkpt lat="43.92861" lon="12.7407583"><ele>30.0</ele><time>2026-04-19T12:30:27.886Z</time></trkpt><trkpt lat="43.928525" lon="12.7407333"><ele>30.0</ele><time>2026-04-19T12:30:28.888Z</time></trkpt><trkpt lat="43.9284583" lon="12.7406983"><ele>30.0</ele><time>2026-04-19T12:30:29.887Z</time></trkpt><trkpt lat="43.92836" lon="12.7405933"><ele>30.0</ele><time>2026-04-19T12:30:31.887Z</time></trkpt><trkpt lat="43.9283067" lon="12.7405133"><ele>30.0</ele><time>2026-04-19T12:30:32.886Z</time></trkpt><trkpt lat="43.9282367" lon="12.740415"><ele>30.0</ele><time>2026-04-19T12:30:33.889Z</time></trkpt><trkpt lat="43.9281533" lon="12.7402883"><ele>29.75</ele><time>2026-04-19T12:30:34.887Z</time></trkpt><trkpt lat="43.9280667" lon="12.7401383"><ele>29.5</ele><time>2026-04-19T12:30:35.886Z</time></trkpt><trkpt lat="43.927975" lon="12.7399817"><ele>29.25</ele><time>2026-04-19T12:30:36.888Z</time></trkpt><trkpt lat="43.9278767" lon="12.73982"><ele>29.0</ele><time>2026-04-19T12:30:37.888Z</time></trkpt><trkpt lat="43.9277783" lon="12.7396517"><ele>29.0</ele><time>2026-04-19T12:30:38.887Z</time></trkpt><trkpt lat="43.9276767" lon="12.739475"><ele>29.0</ele><time>2026-04-19T12:30:39.887Z</time></trkpt><trkpt lat="43.9275733" lon="12.7392983"><ele>29.0</ele><time>2026-04-19T12:30:40.887Z</time></trkpt><trkpt lat="43.9274667" lon="12.7391217"><ele>28.666666666666664</ele><time>2026-04-19T12:30:41.888Z</time></trkpt><trkpt lat="43.9273617" lon="12.7389417"><ele>28.333333333333336</ele><time>2026-04-19T12:30:42.888Z</time></trkpt><trkpt lat="43.9272567" lon="12.7387617"><ele>28.0</ele><time>2026-04-19T12:30:43.886Z</time></trkpt><trkpt lat="43.92715" lon="12.7385817"><ele>28.0</ele><time>2026-04-19T12:30:44.886Z</time></trkpt><trkpt lat="43.92704" lon="12.738405"><ele>28.0</ele><time>2026-04-19T12:30:45.887Z</time></trkpt><trkpt lat="43.9269217" lon="12.73824"><ele>28.0</ele><time>2026-04-19T12:30:46.887Z</time></trkpt><trkpt lat="43.9267917" lon="12.738095"><ele>27.666666666666668</ele><time>2026-04-19T12:30:47.887Z</time></trkpt><trkpt lat="43.9266517" lon="12.737965"><ele>27.333333333333336</ele><time>2026-04-19T12:30:48.886Z</time></trkpt><trkpt lat="43.9265017" lon="12.7378483"><ele>27.0</ele><time>2026-04-19T12:30:49.887Z</time></trkpt><trkpt lat="43.926345" lon="12.7377417"><ele>27.0</ele><time>2026-04-19T12:30:50.886Z</time></trkpt><trkpt lat="43.926185" lon="12.7376433"><ele>27.0</ele><time>2026-04-19T12:30:51.887Z</time></trkpt><trkpt lat="43.926025" lon="12.7375517"><ele>27.0</ele><time>2026-04-19T12:30:52.887Z</time></trkpt><trkpt lat="43.92586" lon="12.7374767"><ele>27.0</ele><time>2026-04-19T12:30:53.888Z</time></trkpt><trkpt lat="43.92569" lon="12.7374183"><ele>27.0</ele><time>2026-04-19T12:30:54.887Z</time></trkpt><trkpt lat="43.9255233" lon="12.737365"><ele>27.0</ele><time>2026-04-19T12:30:55.888Z</time></trkpt><trkpt lat="43.9253717" lon="12.7372933"><ele>27.0</ele><time>2026-04-19T12:30:56.887Z</time></trkpt><trkpt lat="43.925235" lon="12.73719"><ele>27.0</ele><time>2026-04-19T12:30:57.888Z</time></trkpt><trkpt lat="43.9251167" lon="12.7370483"><ele>27.0</ele><time>2026-04-19T12:30:58.889Z</time></trkpt><trkpt lat="43.9250183" lon="12.73688"><ele>28.0</ele><time>2026-04-19T12:30:59.888Z</time></trkpt><trkpt lat="43.9249583" lon="12.7366767"><ele>29.0</ele><time>2026-04-19T12:31:00.886Z</time></trkpt><trkpt lat="43.9249267" lon="12.7364433"><ele>30.0</ele><time>2026-04-19T12:31:01.888Z</time></trkpt><trkpt lat="43.9249033" lon="12.7361983"><ele>29.666666666666664</ele><time>2026-04-19T12:31:02.888Z</time></trkpt><trkpt lat="43.9248867" lon="12.7359433"><ele>29.333333333333332</ele><time>2026-04-19T12:31:03.887Z</time></trkpt><trkpt lat="43.924865" lon="12.7356867"><ele>29.0</ele><time>2026-04-19T12:31:04.886Z</time></trkpt><trkpt lat="43.9248283" lon="12.7354317"><ele>28.0</ele><time>2026-04-19T12:31:06.467Z</time></trkpt><trkpt lat="43.9247167" lon="12.73494"><ele>27.0</ele><time>2026-04-19T12:31:07.888Z</time></trkpt><trkpt lat="43.924645" lon="12.7347033"><ele>27.0</ele><time>2026-04-19T12:31:08.887Z</time></trkpt><trkpt lat="43.9245617" lon="12.7344817"><ele>27.0</ele><time>2026-04-19T12:31:09.889Z</time></trkpt><trkpt lat="43.9244683" lon="12.734275"><ele>27.0</ele><time>2026-04-19T12:31:10.885Z</time></trkpt><trkpt lat="43.9243567" lon="12.7340867"><ele>28.333333333333336</ele><time>2026-04-19T12:31:11.887Z</time></trkpt><trkpt lat="43.9242267" lon="12.7339183"><ele>29.666666666666668</ele><time>2026-04-19T12:31:12.885Z</time></trkpt><trkpt lat="43.92408" lon="12.7337683"><ele>31.0</ele><time>2026-04-19T12:31:13.885Z</time></trkpt><trkpt lat="43.92391" lon="12.7336533"><ele>31.0</ele><time>2026-04-19T12:31:14.885Z</time></trkpt><trkpt lat="43.9237333" lon="12.73358"><ele>31.0</ele><time>2026-04-19T12:31:15.885Z</time></trkpt><trkpt lat="43.9235467" lon="12.7335383"><ele>31.0</ele><time>2026-04-19T12:31:16.886Z</time></trkpt><trkpt lat="43.9233617" lon="12.73351"><ele>31.666666666666668</ele><time>2026-04-19T12:31:17.886Z</time></trkpt><trkpt lat="43.9231733" lon="12.7334717"><ele>32.333333333333336</ele><time>2026-04-19T12:31:18.886Z</time></trkpt><trkpt lat="43.9229883" lon="12.7334167"><ele>33.0</ele><time>2026-04-19T12:31:19.888Z</time></trkpt><trkpt lat="43.9228167" lon="12.733345"><ele>33.0</ele><time>2026-04-19T12:31:20.886Z</time></trkpt><trkpt lat="43.9226517" lon="12.73327"><ele>33.0</ele><time>2026-04-19T12:31:21.887Z</time></trkpt><trkpt lat="43.9225017" lon="12.73319"><ele>33.0</ele><time>2026-04-19T12:31:22.885Z</time></trkpt><trkpt lat="43.922355" lon="12.7331167"><ele>34.0</ele><time>2026-04-19T12:31:23.886Z</time></trkpt><trkpt lat="43.9222167" lon="12.7330533"><ele>35.0</ele><time>2026-04-19T12:31:24.886Z</time></trkpt><trkpt lat="43.9220833" lon="12.7330067"><ele>36.0</ele><time>2026-04-19T12:31:25.887Z</time></trkpt><trkpt lat="43.9219483" lon="12.7329617"><ele>37.0</ele><time>2026-04-19T12:31:26.886Z</time></trkpt><trkpt lat="43.9218167" lon="12.7329183"><ele>36.5</ele><time>2026-04-19T12:31:27.885Z</time></trkpt><trkpt lat="43.9216917" lon="12.73287"><ele>36.0</ele><time>2026-04-19T12:31:28.887Z</time></trkpt><trkpt lat="43.92158" lon="12.73281"><ele>35.5</ele><time>2026-04-19T12:31:29.886Z</time></trkpt><trkpt lat="43.92148" lon="12.7327333"><ele>35.0</ele><time>2026-04-19T12:31:30.885Z</time></trkpt><trkpt lat="43.921375" lon="12.7326433"><ele>33.666666666666664</ele><time>2026-04-19T12:31:31.886Z</time></trkpt><trkpt lat="43.92126" lon="12.7325433"><ele>32.333333333333336</ele><time>2026-04-19T12:31:32.887Z</time></trkpt><trkpt lat="43.9211267" lon="12.7324383"><ele>31.0</ele><time>2026-04-19T12:31:33.886Z</time></trkpt><trkpt lat="43.9209833" lon="12.7323367"><ele>31.0</ele><time>2026-04-19T12:31:34.885Z</time></trkpt><trkpt lat="43.9208267" lon="12.7322433"><ele>31.0</ele><time>2026-04-19T12:31:35.886Z</time></trkpt><trkpt lat="43.920665" lon="12.7321633"><ele>31.0</ele><time>2026-04-19T12:31:36.885Z</time></trkpt><trkpt lat="43.9204933" lon="12.7321083"><ele>31.0</ele><time>2026-04-19T12:31:37.886Z</time></trkpt><trkpt lat="43.9203117" lon="12.7320817"><ele>31.0</ele><time>2026-04-19T12:31:38.887Z</time></trkpt><trkpt lat="43.9201267" lon="12.7320783"><ele>31.0</ele><time>2026-04-19T12:31:39.887Z</time></trkpt><trkpt lat="43.9199383" lon="12.7320867"><ele>31.333333333333336</ele><time>2026-04-19T12:31:40.886Z</time></trkpt><trkpt lat="43.9197517" lon="12.7320933"><ele>31.666666666666664</ele><time>2026-04-19T12:31:41.886Z</time></trkpt><trkpt lat="43.919565" lon="12.7321033"><ele>32.0</ele><time>2026-04-19T12:31:42.885Z</time></trkpt><trkpt lat="43.91938" lon="12.7321267"><ele>32.0</ele><time>2026-04-19T12:31:43.885Z</time></trkpt><trkpt lat="43.9192" lon="12.7321767"><ele>32.0</ele><time>2026-04-19T12:31:44.885Z</time></trkpt><trkpt lat="43.9190283" lon="12.7322633"><ele>32.0</ele><time>2026-04-19T12:31:45.886Z</time></trkpt><trkpt lat="43.9188667" lon="12.732385"><ele>32.0</ele><time>2026-04-19T12:31:46.886Z</time></trkpt><trkpt lat="43.91871" lon="12.7325267"><ele>32.0</ele><time>2026-04-19T12:31:47.887Z</time></trkpt><trkpt lat="43.9185533" lon="12.73268"><ele>32.0</ele><time>2026-04-19T12:31:48.885Z</time></trkpt><trkpt lat="43.9183933" lon="12.7328267"><ele>32.33333333333333</ele><time>2026-04-19T12:31:49.887Z</time></trkpt><trkpt lat="43.918235" lon="12.7329717"><ele>32.666666666666664</ele><time>2026-04-19T12:31:50.886Z</time></trkpt><trkpt lat="43.91807" lon="12.7331083"><ele>33.0</ele><time>2026-04-19T12:31:51.886Z</time></trkpt><trkpt lat="43.917905" lon="12.7332367"><ele>33.0</ele><time>2026-04-19T12:31:52.885Z</time></trkpt><trkpt lat="43.9177383" lon="12.7333533"><ele>33.0</ele><time>2026-04-19T12:31:53.885Z</time></trkpt><trkpt lat="43.9175683" lon="12.7334533"><ele>33.0</ele><time>2026-04-19T12:31:54.885Z</time></trkpt><trkpt lat="43.917405" lon="12.733545"><ele>33.666666666666664</ele><time>2026-04-19T12:31:55.886Z</time></trkpt><trkpt lat="43.9172433" lon="12.733615"><ele>34.33333333333333</ele><time>2026-04-19T12:31:56.885Z</time></trkpt><trkpt lat="43.9170833" lon="12.7336583"><ele>35.0</ele><time>2026-04-19T12:31:57.886Z</time></trkpt><trkpt lat="43.9169167" lon="12.733675"><ele>35.0</ele><time>2026-04-19T12:31:58.887Z</time></trkpt><trkpt lat="43.91674" lon="12.7336517"><ele>35.0</ele><time>2026-04-19T12:31:59.887Z</time></trkpt><trkpt lat="43.916565" lon="12.7336033"><ele>35.0</ele><time>2026-04-19T12:32:00.886Z</time></trkpt><trkpt lat="43.9163933" lon="12.733545"><ele>35.0</ele><time>2026-04-19T12:32:01.886Z</time></trkpt><trkpt lat="43.9162167" lon="12.7334783"><ele>35.0</ele><time>2026-04-19T12:32:02.886Z</time></trkpt><trkpt lat="43.9160433" lon="12.733395"><ele>35.0</ele><time>2026-04-19T12:32:03.886Z</time></trkpt><trkpt lat="43.9158767" lon="12.7332967"><ele>34.666666666666664</ele><time>2026-04-19T12:32:04.885Z</time></trkpt><trkpt lat="43.9157133" lon="12.7331783"><ele>34.333333333333336</ele><time>2026-04-19T12:32:05.887Z</time></trkpt><trkpt lat="43.9155517" lon="12.7330533"><ele>34.0</ele><time>2026-04-19T12:32:06.886Z</time></trkpt><trkpt lat="43.91539" lon="12.73293"><ele>34.0</ele><time>2026-04-19T12:32:07.885Z</time></trkpt><trkpt lat="43.915235" lon="12.7328217"><ele>34.0</ele><time>2026-04-19T12:32:08.886Z</time></trkpt><trkpt lat="43.91509" lon="12.7327233"><ele>34.0</ele><time>2026-04-19T12:32:09.885Z</time></trkpt><trkpt lat="43.9149533" lon="12.7326317"><ele>34.2</ele><time>2026-04-19T12:32:10.885Z</time></trkpt><trkpt lat="43.9148317" lon="12.73255"><ele>34.4</ele><time>2026-04-19T12:32:11.886Z</time></trkpt><trkpt lat="43.9147367" lon="12.7324833"><ele>34.6</ele><time>2026-04-19T12:32:12.886Z</time></trkpt><trkpt lat="43.9146667" lon="12.7324183"><ele>34.8</ele><time>2026-04-19T12:32:13.886Z</time></trkpt><trkpt lat="43.9146133" lon="12.7323567"><ele>35.0</ele><time>2026-04-19T12:32:14.886Z</time></trkpt><trkpt lat="43.9145817" lon="12.7322317"><ele>35.0</ele><time>2026-04-19T12:32:16.886Z</time></trkpt><trkpt lat="43.9146283" lon="12.7321717"><ele>35.0</ele><time>2026-04-19T12:32:17.885Z</time></trkpt><trkpt lat="43.9147033" lon="12.7321167"><ele>35.0</ele><time>2026-04-19T12:32:18.885Z</time></trkpt><trkpt lat="43.9148033" lon="12.7320717"><ele>35.0</ele><time>2026-04-19T12:32:19.886Z</time></trkpt><trkpt lat="43.9149383" lon="12.7320267"><ele>35.0</ele><time>2026-04-19T12:32:20.885Z</time></trkpt><trkpt lat="43.9151" lon="12.7319733"><ele>35.0</ele><time>2026-04-19T12:32:21.886Z</time></trkpt><trkpt lat="43.9152533" lon="12.731895"><ele>35.0</ele><time>2026-04-19T12:32:22.887Z</time></trkpt><trkpt lat="43.9154117" lon="12.7317783"><ele>35.0</ele><time>2026-04-19T12:32:23.885Z</time></trkpt><trkpt lat="43.9155567" lon="12.731625"><ele>35.0</ele><time>2026-04-19T12:32:24.886Z</time></trkpt><trkpt lat="43.91569" lon="12.7314367"><ele>35.0</ele><time>2026-04-19T12:32:25.885Z</time></trkpt><trkpt lat="43.9158083" lon="12.731225"><ele>35.0</ele><time>2026-04-19T12:32:26.885Z</time></trkpt><trkpt lat="43.9159183" lon="12.7309933"><ele>34.0</ele><time>2026-04-19T12:32:27.885Z</time></trkpt><trkpt lat="43.9160233" lon="12.7307517"><ele>33.0</ele><time>2026-04-19T12:32:28.886Z</time></trkpt><trkpt lat="43.916125" lon="12.7305083"><ele>32.0</ele><time>2026-04-19T12:32:29.885Z</time></trkpt><trkpt lat="43.9162233" lon="12.7302717"><ele>31.0</ele><time>2026-04-19T12:32:30.888Z</time></trkpt><trkpt lat="43.9163183" lon="12.730045"><ele>30.0</ele><time>2026-04-19T12:32:31.886Z</time></trkpt><trkpt lat="43.9164083" lon="12.7298283"><ele>29.0</ele><time>2026-04-19T12:32:32.885Z</time></trkpt><trkpt lat="43.916495" lon="12.7296233"><ele>29.0</ele><time>2026-04-19T12:32:33.886Z</time></trkpt><trkpt lat="43.9165767" lon="12.729425"><ele>29.0</ele><time>2026-04-19T12:32:34.885Z</time></trkpt><trkpt lat="43.9166533" lon="12.7292417"><ele>29.0</ele><time>2026-04-19T12:32:35.885Z</time></trkpt><trkpt lat="43.9167217" lon="12.7290767"><ele>28.799999999999997</ele><time>2026-04-19T12:32:36.886Z</time></trkpt><trkpt lat="43.9167783" lon="12.728935"><ele>28.599999999999998</ele><time>2026-04-19T12:32:37.887Z</time></trkpt><trkpt lat="43.9168167" lon="12.7288167"><ele>28.4</ele><time>2026-04-19T12:32:38.886Z</time></trkpt><trkpt lat="43.9168317" lon="12.7287167"><ele>28.2</ele><time>2026-04-19T12:32:39.887Z</time></trkpt><trkpt lat="43.9167917" lon="12.7285767"><ele>28.0</ele><time>2026-04-19T12:32:41.886Z</time></trkpt><trkpt lat="43.916675" lon="12.7285317"><ele>28.4</ele><time>2026-04-19T12:32:43.886Z</time></trkpt><trkpt lat="43.91659" lon="12.7285367"><ele>28.799999999999997</ele><time>2026-04-19T12:32:44.886Z</time></trkpt><trkpt lat="43.9165083" lon="12.7285233"><ele>29.2</ele><time>2026-04-19T12:32:45.885Z</time></trkpt><trkpt lat="43.9164183" lon="12.728485"><ele>29.6</ele><time>2026-04-19T12:32:46.887Z</time></trkpt><trkpt lat="43.916335" lon="12.7284233"><ele>30.0</ele><time>2026-04-19T12:32:47.886Z</time></trkpt><trkpt lat="43.9162567" lon="12.7283133"><ele>30.0</ele><time>2026-04-19T12:32:48.886Z</time></trkpt><trkpt lat="43.9162" lon="12.728165"><ele>30.0</ele><time>2026-04-19T12:32:49.887Z</time></trkpt><trkpt lat="43.91614" lon="12.7280433"><ele>30.0</ele><time>2026-04-19T12:32:50.885Z</time></trkpt><trkpt lat="43.9160733" lon="12.7279467"><ele>30.0</ele><time>2026-04-19T12:32:51.885Z</time></trkpt><trkpt lat="43.9160033" lon="12.7278817"><ele>30.0</ele><time>2026-04-19T12:32:52.888Z</time></trkpt><trkpt lat="43.9159267" lon="12.7278467"><ele>30.2</ele><time>2026-04-19T12:32:53.887Z</time></trkpt><trkpt lat="43.9158367" lon="12.7278433"><ele>30.4</ele><time>2026-04-19T12:32:54.886Z</time></trkpt><trkpt lat="43.9157283" lon="12.7278633"><ele>30.6</ele><time>2026-04-19T12:32:55.887Z</time></trkpt><trkpt lat="43.915615" lon="12.7279083"><ele>30.8</ele><time>2026-04-19T12:32:56.886Z</time></trkpt><trkpt lat="43.9155" lon="12.7279433"><ele>31.0</ele><time>2026-04-19T12:32:57.886Z</time></trkpt><trkpt lat="43.9153817" lon="12.7279617"><ele>31.0</ele><time>2026-04-19T12:32:58.889Z</time></trkpt><trkpt lat="43.91527" lon="12.7279717"><ele>31.0</ele><time>2026-04-19T12:32:59.886Z</time></trkpt><trkpt lat="43.915165" lon="12.7279767"><ele>31.0</ele><time>2026-04-19T12:33:00.889Z</time></trkpt><trkpt lat="43.91507" lon="12.727975"><ele>31.0</ele><time>2026-04-19T12:33:01.887Z</time></trkpt><trkpt lat="43.9149717" lon="12.727975"><ele>31.0</ele><time>2026-04-19T12:33:02.886Z</time></trkpt><trkpt lat="43.9148767" lon="12.7279833"><ele>31.166666666666668</ele><time>2026-04-19T12:33:03.887Z</time></trkpt><trkpt lat="43.9147833" lon="12.727995"><ele>31.333333333333336</ele><time>2026-04-19T12:33:04.888Z</time></trkpt><trkpt lat="43.9146883" lon="12.72799"><ele>31.5</ele><time>2026-04-19T12:33:05.889Z</time></trkpt><trkpt lat="43.914605" lon="12.7279867"><ele>31.666666666666664</ele><time>2026-04-19T12:33:06.886Z</time></trkpt><trkpt lat="43.9145233" lon="12.7279717"><ele>31.833333333333332</ele><time>2026-04-19T12:33:07.888Z</time></trkpt><trkpt lat="43.91445" lon="12.727935"><ele>32.0</ele><time>2026-04-19T12:33:08.886Z</time></trkpt><trkpt lat="43.9143733" lon="12.7278667"><ele>32.0</ele><time>2026-04-19T12:33:09.887Z</time></trkpt><trkpt lat="43.9142933" lon="12.7277667"><ele>32.0</ele><time>2026-04-19T12:33:10.887Z</time></trkpt><trkpt lat="43.9142" lon="12.727645"><ele>32.0</ele><time>2026-04-19T12:33:11.886Z</time></trkpt><trkpt lat="43.91411" lon="12.7275333"><ele>32.0</ele><time>2026-04-19T12:33:12.886Z</time></trkpt><trkpt lat="43.9140283" lon="12.727435"><ele>33.2</ele><time>2026-04-19T12:33:13.886Z</time></trkpt><trkpt lat="43.913945" lon="12.7273467"><ele>34.400000000000006</ele><time>2026-04-19T12:33:14.885Z</time></trkpt><trkpt lat="43.913855" lon="12.72727"><ele>35.599999999999994</ele><time>2026-04-19T12:33:15.886Z</time></trkpt><trkpt lat="43.91376" lon="12.72722"><ele>36.8</ele><time>2026-04-19T12:33:16.887Z</time></trkpt><trkpt lat="43.9136617" lon="12.7271917"><ele>38.0</ele><time>2026-04-19T12:33:17.886Z</time></trkpt><trkpt lat="43.9135633" lon="12.727165"><ele>38.0</ele><time>2026-04-19T12:33:18.886Z</time></trkpt><trkpt lat="43.9134733" lon="12.72715"><ele>38.0</ele><time>2026-04-19T12:33:19.886Z</time></trkpt><trkpt lat="43.9133933" lon="12.7271367"><ele>38.0</ele><time>2026-04-19T12:33:20.885Z</time></trkpt><trkpt lat="43.9133233" lon="12.7271217"><ele>38.0</ele><time>2026-04-19T12:33:21.885Z</time></trkpt><trkpt lat="43.9132283" lon="12.7270567"><ele>38.0</ele><time>2026-04-19T12:33:23.885Z</time></trkpt><trkpt lat="43.9132017" lon="12.7269167"><ele>38.57142857142857</ele><time>2026-04-19T12:33:25.886Z</time></trkpt><trkpt lat="43.9131933" lon="12.7268233"><ele>39.142857142857146</ele><time>2026-04-19T12:33:26.886Z</time></trkpt><trkpt lat="43.9131783" lon="12.7267267"><ele>39.714285714285715</ele><time>2026-04-19T12:33:27.885Z</time></trkpt><trkpt lat="43.9131717" lon="12.726625"><ele>40.285714285714285</ele><time>2026-04-19T12:33:28.889Z</time></trkpt><trkpt lat="43.9131717" lon="12.7265317"><ele>40.85714285714286</ele><time>2026-04-19T12:33:29.89Z</time></trkpt><trkpt lat="43.9131783" lon="12.7264433"><ele>41.42857142857143</ele><time>2026-04-19T12:33:30.887Z</time></trkpt><trkpt lat="43.9131967" lon="12.72635"><ele>42.0</ele><time>2026-04-19T12:33:31.889Z</time></trkpt><trkpt lat="43.913225" lon="12.72624"><ele>42.0</ele><time>2026-04-19T12:33:32.885Z</time></trkpt><trkpt lat="43.9132617" lon="12.7261133"><ele>42.0</ele><time>2026-04-19T12:33:33.887Z</time></trkpt><trkpt lat="43.9133083" lon="12.7259833"><ele>42.0</ele><time>2026-04-19T12:33:34.885Z</time></trkpt><trkpt lat="43.9133567" lon="12.7258517"><ele>42.0</ele><time>2026-04-19T12:33:35.887Z</time></trkpt><trkpt lat="43.9134117" lon="12.7257283"><ele>42.0</ele><time>2026-04-19T12:33:36.886Z</time></trkpt><trkpt lat="43.9134683" lon="12.7256083"><ele>43.8</ele><time>2026-04-19T12:33:37.885Z</time></trkpt><trkpt lat="43.913515" lon="12.7254967"><ele>45.6</ele><time>2026-04-19T12:33:38.885Z</time></trkpt><trkpt lat="43.9135617" lon="12.7253933"><ele>47.4</ele><time>2026-04-19T12:33:39.885Z</time></trkpt><trkpt lat="43.913605" lon="12.7252983"><ele>49.199999999999996</ele><time>2026-04-19T12:33:40.885Z</time></trkpt><trkpt lat="43.91366" lon="12.7251983"><ele>51.0</ele><time>2026-04-19T12:33:41.887Z</time></trkpt><trkpt lat="43.913725" lon="12.7250967"><ele>52.599999999999994</ele><time>2026-04-19T12:33:42.886Z</time></trkpt><trkpt lat="43.9137983" lon="12.7249867"><ele>54.2</ele><time>2026-04-19T12:33:43.887Z</time></trkpt><trkpt lat="43.9138783" lon="12.72488"><ele>55.800000000000004</ele><time>2026-04-19T12:33:44.886Z</time></trkpt><trkpt lat="43.9139617" lon="12.7247767"><ele>57.400000000000006</ele><time>2026-04-19T12:33:45.885Z</time></trkpt><trkpt lat="43.9140517" lon="12.7246717"><ele>59.0</ele><time>2026-04-19T12:33:46.888Z</time></trkpt><trkpt lat="43.914145" lon="12.7245583"><ele>58.75</ele><time>2026-04-19T12:33:47.886Z</time></trkpt><trkpt lat="43.9142417" lon="12.7244417"><ele>58.5</ele><time>2026-04-19T12:33:48.886Z</time></trkpt><trkpt lat="43.9143367" lon="12.7243233"><ele>58.25</ele><time>2026-04-19T12:33:49.885Z</time></trkpt><trkpt lat="43.9144233" lon="12.7241967"><ele>58.0</ele><time>2026-04-19T12:33:50.886Z</time></trkpt><trkpt lat="43.9145033" lon="12.7240617"><ele>59.75</ele><time>2026-04-19T12:33:51.885Z</time></trkpt><trkpt lat="43.914575" lon="12.7239233"><ele>61.5</ele><time>2026-04-19T12:33:52.888Z</time></trkpt><trkpt lat="43.9146383" lon="12.7237883"><ele>63.25</ele><time>2026-04-19T12:33:53.886Z</time></trkpt><trkpt lat="43.914695" lon="12.7236517"><ele>65.0</ele><time>2026-04-19T12:33:54.887Z</time></trkpt><trkpt lat="43.91475" lon="12.7235183"><ele>67.5</ele><time>2026-04-19T12:33:55.887Z</time></trkpt><trkpt lat="43.9148" lon="12.7233817"><ele>70.0</ele><time>2026-04-19T12:33:56.885Z</time></trkpt><trkpt lat="43.9148483" lon="12.7232383"><ele>72.5</ele><time>2026-04-19T12:33:57.887Z</time></trkpt><trkpt lat="43.9149017" lon="12.7230917"><ele>75.0</ele><time>2026-04-19T12:33:58.887Z</time></trkpt><trkpt lat="43.9149567" lon="12.7229433"><ele>75.0</ele><time>2026-04-19T12:33:59.887Z</time></trkpt><trkpt lat="43.91501" lon="12.72279"><ele>75.0</ele><time>2026-04-19T12:34:00.89Z</time></trkpt><trkpt lat="43.915065" lon="12.7226283"><ele>75.0</ele><time>2026-04-19T12:34:01.887Z</time></trkpt><trkpt lat="43.9151283" lon="12.72247"><ele>75.0</ele><time>2026-04-19T12:34:02.886Z</time></trkpt><trkpt lat="43.9151917" lon="12.7223033"><ele>75.0</ele><time>2026-04-19T12:34:03.887Z</time></trkpt><trkpt lat="43.9152717" lon="12.7221433"><ele>75.0</ele><time>2026-04-19T12:34:04.889Z</time></trkpt><trkpt lat="43.9153667" lon="12.7219983"><ele>75.0</ele><time>2026-04-19T12:34:05.885Z</time></trkpt><trkpt lat="43.9154683" lon="12.7218567"><ele>75.0</ele><time>2026-04-19T12:34:06.886Z</time></trkpt><trkpt lat="43.915575" lon="12.7217167"><ele>74.75</ele><time>2026-04-19T12:34:07.886Z</time></trkpt><trkpt lat="43.9156783" lon="12.7215683"><ele>74.5</ele><time>2026-04-19T12:34:08.886Z</time></trkpt><trkpt lat="43.9157817" lon="12.7214183"><ele>74.25</ele><time>2026-04-19T12:34:09.887Z</time></trkpt><trkpt lat="43.915885" lon="12.721265"><ele>74.0</ele><time>2026-04-19T12:34:10.886Z</time></trkpt><trkpt lat="43.915985" lon="12.72111"><ele>76.0</ele><time>2026-04-19T12:34:11.886Z</time></trkpt><trkpt lat="43.9160833" lon="12.7209583"><ele>78.0</ele><time>2026-04-19T12:34:12.887Z</time></trkpt><trkpt lat="43.9161767" lon="12.720815"><ele>80.0</ele><time>2026-04-19T12:34:13.887Z</time></trkpt><trkpt lat="43.91626" lon="12.7206817"><ele>82.0</ele><time>2026-04-19T12:34:14.886Z</time></trkpt><trkpt lat="43.9163317" lon="12.72056"><ele>82.0</ele><time>2026-04-19T12:34:15.887Z</time></trkpt><trkpt lat="43.91639" lon="12.72045"><ele>82.0</ele><time>2026-04-19T12:34:16.886Z</time></trkpt><trkpt lat="43.9164383" lon="12.7203667"><ele>82.0</ele><time>2026-04-19T12:34:17.886Z</time></trkpt><trkpt lat="43.9164917" lon="12.72026"><ele>82.0</ele><time>2026-04-19T12:34:19.887Z</time></trkpt><trkpt lat="43.916455" lon="12.72013"><ele>82.0</ele><time>2026-04-19T12:34:23.886Z</time></trkpt><trkpt lat="43.916405" lon="12.7200633"><ele>82.0</ele><time>2026-04-19T12:34:24.888Z</time></trkpt><trkpt lat="43.9163333" lon="12.719975"><ele>83.25</ele><time>2026-04-19T12:34:25.886Z</time></trkpt><trkpt lat="43.9162633" lon="12.7198633"><ele>84.5</ele><time>2026-04-19T12:34:26.886Z</time></trkpt><trkpt lat="43.9161867" lon="12.71973"><ele>85.75</ele><time>2026-04-19T12:34:27.886Z</time></trkpt><trkpt lat="43.9161033" lon="12.7195833"><ele>87.0</ele><time>2026-04-19T12:34:28.886Z</time></trkpt><trkpt lat="43.9160183" lon="12.7194283"><ele>87.0</ele><time>2026-04-19T12:34:29.891Z</time></trkpt><trkpt lat="43.91593" lon="12.7192683"><ele>87.0</ele><time>2026-04-19T12:34:30.889Z</time></trkpt><trkpt lat="43.91584" lon="12.7191017"><ele>87.0</ele><time>2026-04-19T12:34:31.887Z</time></trkpt><trkpt lat="43.9157467" lon="12.7189267"><ele>87.0</ele><time>2026-04-19T12:34:32.886Z</time></trkpt><trkpt lat="43.9156533" lon="12.71875"><ele>87.0</ele><time>2026-04-19T12:34:33.887Z</time></trkpt><trkpt lat="43.91556" lon="12.7185717"><ele>87.0</ele><time>2026-04-19T12:34:34.887Z</time></trkpt><trkpt lat="43.915465" lon="12.7183917"><ele>86.33333333333333</ele><time>2026-04-19T12:34:35.887Z</time></trkpt><trkpt lat="43.91537" lon="12.71821"><ele>85.66666666666666</ele><time>2026-04-19T12:34:36.887Z</time></trkpt><trkpt lat="43.9152767" lon="12.718025"><ele>85.0</ele><time>2026-04-19T12:34:37.887Z</time></trkpt><trkpt lat="43.9151783" lon="12.7178383"><ele>85.66666666666666</ele><time>2026-04-19T12:34:38.887Z</time></trkpt><trkpt lat="43.9150783" lon="12.71765"><ele>86.33333333333333</ele><time>2026-04-19T12:34:39.888Z</time></trkpt><trkpt lat="43.9149717" lon="12.7174633"><ele>87.0</ele><time>2026-04-19T12:34:40.888Z</time></trkpt><trkpt lat="43.9148633" lon="12.717275"><ele>87.0</ele><time>2026-04-19T12:34:41.885Z</time></trkpt><trkpt lat="43.9147533" lon="12.71709"><ele>87.0</ele><time>2026-04-19T12:34:42.886Z</time></trkpt><trkpt lat="43.9146233" lon="12.7169117"><ele>87.0</ele><time>2026-04-19T12:34:43.888Z</time></trkpt><trkpt lat="43.9144967" lon="12.7167417"><ele>87.0</ele><time>2026-04-19T12:34:44.886Z</time></trkpt><trkpt lat="43.914365" lon="12.716575"><ele>87.0</ele><time>2026-04-19T12:34:45.887Z</time></trkpt><trkpt lat="43.9142317" lon="12.716405"><ele>87.0</ele><time>2026-04-19T12:34:46.886Z</time></trkpt><trkpt lat="43.9140983" lon="12.7162467"><ele>87.5</ele><time>2026-04-19T12:34:47.888Z</time></trkpt><trkpt lat="43.9139817" lon="12.7161033"><ele>88.0</ele><time>2026-04-19T12:34:48.888Z</time></trkpt><trkpt lat="43.913875" lon="12.71597"><ele>88.5</ele><time>2026-04-19T12:34:49.888Z</time></trkpt><trkpt lat="43.9137733" lon="12.7158417"><ele>89.0</ele><time>2026-04-19T12:34:50.887Z</time></trkpt><trkpt lat="43.9136783" lon="12.715725"><ele>89.0</ele><time>2026-04-19T12:34:51.887Z</time></trkpt><trkpt lat="43.9135883" lon="12.7156217"><ele>89.0</ele><time>2026-04-19T12:34:52.886Z</time></trkpt><trkpt lat="43.913505" lon="12.7155317"><ele>89.0</ele><time>2026-04-19T12:34:53.887Z</time></trkpt><trkpt lat="43.9134183" lon="12.7154417"><ele>89.0</ele><time>2026-04-19T12:34:54.886Z</time></trkpt><trkpt lat="43.913325" lon="12.7153467"><ele>89.0</ele><time>2026-04-19T12:34:55.887Z</time></trkpt><trkpt lat="43.9132217" lon="12.715245"><ele>91.5</ele><time>2026-04-19T12:34:56.889Z</time></trkpt><trkpt lat="43.9131117" lon="12.7151383"><ele>94.0</ele><time>2026-04-19T12:34:57.89Z</time></trkpt><trkpt lat="43.9129983" lon="12.7150283"><ele>96.5</ele><time>2026-04-19T12:34:58.89Z</time></trkpt><trkpt lat="43.9128833" lon="12.7149117"><ele>99.0</ele><time>2026-04-19T12:34:59.886Z</time></trkpt><trkpt lat="43.9127583" lon="12.71479"><ele>99.0</ele><time>2026-04-19T12:35:00.889Z</time></trkpt><trkpt lat="43.912635" lon="12.7146683"><ele>99.0</ele><time>2026-04-19T12:35:01.886Z</time></trkpt><trkpt lat="43.9125217" lon="12.714545"><ele>99.0</ele><time>2026-04-19T12:35:02.886Z</time></trkpt><trkpt lat="43.912415" lon="12.7144367"><ele>99.0</ele><time>2026-04-19T12:35:03.887Z</time></trkpt><trkpt lat="43.9123033" lon="12.714335"><ele>100.75</ele><time>2026-04-19T12:35:04.889Z</time></trkpt><trkpt lat="43.9121883" lon="12.714235"><ele>102.5</ele><time>2026-04-19T12:35:05.888Z</time></trkpt><trkpt lat="43.9120667" lon="12.7141317"><ele>104.25</ele><time>2026-04-19T12:35:06.886Z</time></trkpt><trkpt lat="43.9119417" lon="12.7140317"><ele>106.0</ele><time>2026-04-19T12:35:07.888Z</time></trkpt><trkpt lat="43.9118083" lon="12.713935"><ele>107.66666666666667</ele><time>2026-04-19T12:35:08.886Z</time></trkpt><trkpt lat="43.9116733" lon="12.7138283"><ele>109.33333333333334</ele><time>2026-04-19T12:35:09.886Z</time></trkpt><trkpt lat="43.9115367" lon="12.7137117"><ele>111.0</ele><time>2026-04-19T12:35:10.888Z</time></trkpt><trkpt lat="43.91141" lon="12.7135783"><ele>109.0</ele><time>2026-04-19T12:35:11.887Z</time></trkpt><trkpt lat="43.9113017" lon="12.7134217"><ele>107.0</ele><time>2026-04-19T12:35:12.887Z</time></trkpt><trkpt lat="43.9112033" lon="12.7132433"><ele>105.0</ele><time>2026-04-19T12:35:13.886Z</time></trkpt><trkpt lat="43.9111133" lon="12.71305"><ele>105.0</ele><time>2026-04-19T12:35:14.886Z</time></trkpt><trkpt lat="43.9110283" lon="12.7128433"><ele>105.0</ele><time>2026-04-19T12:35:15.887Z</time></trkpt><trkpt lat="43.9109467" lon="12.71263"><ele>105.0</ele><time>2026-04-19T12:35:16.887Z</time></trkpt><trkpt lat="43.91087" lon="12.712415"><ele>107.33333333333334</ele><time>2026-04-19T12:35:17.886Z</time></trkpt><trkpt lat="43.9107983" lon="12.7122"><ele>109.66666666666667</ele><time>2026-04-19T12:35:18.886Z</time></trkpt><trkpt lat="43.91073" lon="12.7119867"><ele>112.0</ele><time>2026-04-19T12:35:19.888Z</time></trkpt><trkpt lat="43.9106567" lon="12.71178"><ele>112.25</ele><time>2026-04-19T12:35:20.886Z</time></trkpt><trkpt lat="43.9105917" lon="12.7115833"><ele>112.5</ele><time>2026-04-19T12:35:21.886Z</time></trkpt><trkpt lat="43.9105317" lon="12.7114"><ele>112.75</ele><time>2026-04-19T12:35:22.887Z</time></trkpt><trkpt lat="43.9104767" lon="12.7112417"><ele>113.0</ele><time>2026-04-19T12:35:23.886Z</time></trkpt><trkpt lat="43.9104133" lon="12.7111033"><ele>112.0</ele><time>2026-04-19T12:35:24.886Z</time></trkpt><trkpt lat="43.9103483" lon="12.7109733"><ele>111.0</ele><time>2026-04-19T12:35:25.886Z</time></trkpt><trkpt lat="43.9102783" lon="12.7108317"><ele>110.0</ele><time>2026-04-19T12:35:26.885Z</time></trkpt><trkpt lat="43.9102033" lon="12.7106717"><ele>109.0</ele><time>2026-04-19T12:35:27.885Z</time></trkpt><trkpt lat="43.9101217" lon="12.710495"><ele>111.0</ele><time>2026-04-19T12:35:28.885Z</time></trkpt><trkpt lat="43.91004" lon="12.710305"><ele>113.0</ele><time>2026-04-19T12:35:29.885Z</time></trkpt><trkpt lat="43.9099583" lon="12.7101067"><ele>115.0</ele><time>2026-04-19T12:35:30.89Z</time></trkpt><trkpt lat="43.90988" lon="12.7099133"><ele>115.0</ele><time>2026-04-19T12:35:31.886Z</time></trkpt><trkpt lat="43.90981" lon="12.7097283"><ele>115.0</ele><time>2026-04-19T12:35:32.886Z</time></trkpt><trkpt lat="43.90975" lon="12.70955"><ele>115.0</ele><time>2026-04-19T12:35:33.89Z</time></trkpt><trkpt lat="43.9097017" lon="12.7093633"><ele>115.0</ele><time>2026-04-19T12:35:34.886Z</time></trkpt><trkpt lat="43.9096583" lon="12.7091683"><ele>113.5</ele><time>2026-04-19T12:35:35.886Z</time></trkpt><trkpt lat="43.90961" lon="12.7089783"><ele>112.0</ele><time>2026-04-19T12:35:36.886Z</time></trkpt><trkpt lat="43.9095567" lon="12.708795"><ele>110.5</ele><time>2026-04-19T12:35:37.887Z</time></trkpt><trkpt lat="43.9094917" lon="12.70862"><ele>109.0</ele><time>2026-04-19T12:35:38.887Z</time></trkpt><trkpt lat="43.90942" lon="12.7084483"><ele>109.0</ele><time>2026-04-19T12:35:39.886Z</time></trkpt><trkpt lat="43.9093417" lon="12.7082767"><ele>109.0</ele><time>2026-04-19T12:35:40.885Z</time></trkpt><trkpt lat="43.9092633" lon="12.7080983"><ele>109.0</ele><time>2026-04-19T12:35:41.885Z</time></trkpt><trkpt lat="43.909195" lon="12.70791"><ele>109.0</ele><time>2026-04-19T12:35:42.885Z</time></trkpt><trkpt lat="43.9091333" lon="12.7077117"><ele>109.33333333333334</ele><time>2026-04-19T12:35:43.887Z</time></trkpt><trkpt lat="43.909075" lon="12.707505"><ele>109.66666666666666</ele><time>2026-04-19T12:35:44.885Z</time></trkpt><trkpt lat="43.9090233" lon="12.7072967"><ele>110.0</ele><time>2026-04-19T12:35:45.885Z</time></trkpt><trkpt lat="43.908975" lon="12.7070967"><ele>110.5</ele><time>2026-04-19T12:35:46.887Z</time></trkpt><trkpt lat="43.90893" lon="12.70691"><ele>111.0</ele><time>2026-04-19T12:35:47.885Z</time></trkpt><trkpt lat="43.9088933" lon="12.7067367"><ele>111.5</ele><time>2026-04-19T12:35:48.886Z</time></trkpt><trkpt lat="43.9088717" lon="12.7065717"><ele>112.0</ele><time>2026-04-19T12:35:49.886Z</time></trkpt><trkpt lat="43.9088617" lon="12.7064117"><ele>112.0</ele><time>2026-04-19T12:35:50.886Z</time></trkpt><trkpt lat="43.90886" lon="12.706245"><ele>112.0</ele><time>2026-04-19T12:35:51.885Z</time></trkpt><trkpt lat="43.90887" lon="12.7060683"><ele>112.0</ele><time>2026-04-19T12:35:52.886Z</time></trkpt><trkpt lat="43.9088833" lon="12.70588"><ele>112.0</ele><time>2026-04-19T12:35:53.885Z</time></trkpt><trkpt lat="43.9088967" lon="12.7056817"><ele>112.0</ele><time>2026-04-19T12:35:54.888Z</time></trkpt><trkpt lat="43.90891" lon="12.7054817"><ele>112.0</ele><time>2026-04-19T12:35:55.887Z</time></trkpt><trkpt lat="43.9089267" lon="12.7052783"><ele>112.0</ele><time>2026-04-19T12:35:56.886Z</time></trkpt><trkpt lat="43.9089433" lon="12.7050733"><ele>112.0</ele><time>2026-04-19T12:35:57.887Z</time></trkpt><trkpt lat="43.90896" lon="12.7048683"><ele>112.75</ele><time>2026-04-19T12:35:58.885Z</time></trkpt><trkpt lat="43.9089717" lon="12.7046617"><ele>113.5</ele><time>2026-04-19T12:35:59.885Z</time></trkpt><trkpt lat="43.9089783" lon="12.70446"><ele>114.25</ele><time>2026-04-19T12:36:00.89Z</time></trkpt><trkpt lat="43.9089783" lon="12.7042617"><ele>115.0</ele><time>2026-04-19T12:36:01.886Z</time></trkpt><trkpt lat="43.9089733" lon="12.7040683"><ele>115.25</ele><time>2026-04-19T12:36:02.885Z</time></trkpt><trkpt lat="43.908965" lon="12.7038767"><ele>115.5</ele><time>2026-04-19T12:36:03.886Z</time></trkpt><trkpt lat="43.9089533" lon="12.703685"><ele>115.75</ele><time>2026-04-19T12:36:04.888Z</time></trkpt><trkpt lat="43.90894" lon="12.7034917"><ele>116.0</ele><time>2026-04-19T12:36:05.888Z</time></trkpt><trkpt lat="43.9089267" lon="12.7032933"><ele>117.5</ele><time>2026-04-19T12:36:06.887Z</time></trkpt><trkpt lat="43.9089117" lon="12.7030983"><ele>119.0</ele><time>2026-04-19T12:36:07.887Z</time></trkpt><trkpt lat="43.90889" lon="12.7029083"><ele>120.5</ele><time>2026-04-19T12:36:08.888Z</time></trkpt><trkpt lat="43.9088583" lon="12.70273"><ele>122.0</ele><time>2026-04-19T12:36:09.887Z</time></trkpt><trkpt lat="43.90881" lon="12.7025633"><ele>123.0</ele><time>2026-04-19T12:36:10.888Z</time></trkpt><trkpt lat="43.90875" lon="12.7024017"><ele>124.0</ele><time>2026-04-19T12:36:11.885Z</time></trkpt><trkpt lat="43.9086983" lon="12.70224"><ele>125.0</ele><time>2026-04-19T12:36:12.886Z</time></trkpt><trkpt lat="43.90867" lon="12.7020733"><ele>126.0</ele><time>2026-04-19T12:36:13.886Z</time></trkpt><trkpt lat="43.9086683" lon="12.7018983"><ele>127.5</ele><time>2026-04-19T12:36:14.887Z</time></trkpt><trkpt lat="43.9086783" lon="12.70171"><ele>129.0</ele><time>2026-04-19T12:36:15.887Z</time></trkpt><trkpt lat="43.908705" lon="12.70152"><ele>130.5</ele><time>2026-04-19T12:36:16.888Z</time></trkpt><trkpt lat="43.908735" lon="12.7013367"><ele>132.0</ele><time>2026-04-19T12:36:17.886Z</time></trkpt><trkpt lat="43.908765" lon="12.7011583"><ele>133.4</ele><time>2026-04-19T12:36:18.885Z</time></trkpt><trkpt lat="43.908795" lon="12.7009917"><ele>134.79999999999998</ele><time>2026-04-19T12:36:19.887Z</time></trkpt><trkpt lat="43.90882" lon="12.7008467"><ele>136.2</ele><time>2026-04-19T12:36:20.887Z</time></trkpt><trkpt lat="43.9088333" lon="12.700735"><ele>137.6</ele><time>2026-04-19T12:36:21.888Z</time></trkpt><trkpt lat="43.90885" lon="12.7006"><ele>139.0</ele><time>2026-04-19T12:36:23.886Z</time></trkpt><trkpt lat="43.9087883" lon="12.700535"><ele>139.0</ele><time>2026-04-19T12:36:28.886Z</time></trkpt><trkpt lat="43.9086833" lon="12.7006017"><ele>139.0</ele><time>2026-04-19T12:36:30.888Z</time></trkpt><trkpt lat="43.90861" lon="12.70064"><ele>139.0</ele><time>2026-04-19T12:36:31.886Z</time></trkpt><trkpt lat="43.9085283" lon="12.700665"><ele>139.0</ele><time>2026-04-19T12:36:32.885Z</time></trkpt><trkpt lat="43.908445" lon="12.7006717"><ele>139.0</ele><time>2026-04-19T12:36:33.889Z</time></trkpt><trkpt lat="43.9083683" lon="12.7006617"><ele>139.0</ele><time>2026-04-19T12:36:34.888Z</time></trkpt><trkpt lat="43.908295" lon="12.7006383"><ele>139.71428571428572</ele><time>2026-04-19T12:36:35.887Z</time></trkpt><trkpt lat="43.90823" lon="12.7005983"><ele>140.42857142857144</ele><time>2026-04-19T12:36:36.888Z</time></trkpt><trkpt lat="43.9081717" lon="12.700545"><ele>141.14285714285717</ele><time>2026-04-19T12:36:37.887Z</time></trkpt><trkpt lat="43.90812" lon="12.70048"><ele>141.85714285714286</ele><time>2026-04-19T12:36:38.885Z</time></trkpt><trkpt lat="43.9080717" lon="12.70041"><ele>142.57142857142858</ele><time>2026-04-19T12:36:39.887Z</time></trkpt><trkpt lat="43.9080267" lon="12.7003417"><ele>143.2857142857143</ele><time>2026-04-19T12:36:40.886Z</time></trkpt><trkpt lat="43.90798" lon="12.70027"><ele>144.0</ele><time>2026-04-19T12:36:41.887Z</time></trkpt><trkpt lat="43.9079333" lon="12.7001967"><ele>144.71428571428572</ele><time>2026-04-19T12:36:42.888Z</time></trkpt><trkpt lat="43.9078883" lon="12.7001217"><ele>145.42857142857144</ele><time>2026-04-19T12:36:43.89Z</time></trkpt><trkpt lat="43.9078433" lon="12.7000483"><ele>146.14285714285714</ele><time>2026-04-19T12:36:44.886Z</time></trkpt><trkpt lat="43.9077983" lon="12.699975"><ele>146.85714285714286</ele><time>2026-04-19T12:36:45.887Z</time></trkpt><trkpt lat="43.90775" lon="12.6998967"><ele>147.57142857142856</ele><time>2026-04-19T12:36:46.887Z</time></trkpt><trkpt lat="43.9076983" lon="12.6998217"><ele>148.28571428571428</ele><time>2026-04-19T12:36:47.887Z</time></trkpt><trkpt lat="43.9076417" lon="12.6997533"><ele>149.0</ele><time>2026-04-19T12:36:48.887Z</time></trkpt><trkpt lat="43.9075867" lon="12.6996917"><ele>148.71428571428572</ele><time>2026-04-19T12:36:49.887Z</time></trkpt><trkpt lat="43.90753" lon="12.699635"><ele>148.42857142857142</ele><time>2026-04-19T12:36:50.885Z</time></trkpt><trkpt lat="43.907475" lon="12.6995833"><ele>148.14285714285714</ele><time>2026-04-19T12:36:51.886Z</time></trkpt><trkpt lat="43.9074167" lon="12.6995317"><ele>147.85714285714286</ele><time>2026-04-19T12:36:52.887Z</time></trkpt><trkpt lat="43.9073517" lon="12.699485"><ele>147.57142857142856</ele><time>2026-04-19T12:36:53.886Z</time></trkpt><trkpt lat="43.9072867" lon="12.6994367"><ele>147.28571428571428</ele><time>2026-04-19T12:36:54.888Z</time></trkpt><trkpt lat="43.9072233" lon="12.6993833"><ele>147.0</ele><time>2026-04-19T12:36:55.887Z</time></trkpt><trkpt lat="43.9071633" lon="12.6993317"><ele>147.0</ele><time>2026-04-19T12:36:56.887Z</time></trkpt><trkpt lat="43.9071067" lon="12.699285"><ele>147.0</ele><time>2026-04-19T12:36:57.885Z</time></trkpt><trkpt lat="43.9070433" lon="12.6992367"><ele>147.0</ele><time>2026-04-19T12:36:58.885Z</time></trkpt><trkpt lat="43.9069667" lon="12.69918"><ele>147.0</ele><time>2026-04-19T12:36:59.885Z</time></trkpt><trkpt lat="43.906875" lon="12.69911"><ele>147.0</ele><time>2026-04-19T12:37:00.888Z</time></trkpt><trkpt lat="43.9067767" lon="12.6990283"><ele>147.0</ele><time>2026-04-19T12:37:01.885Z</time></trkpt><trkpt lat="43.90667" lon="12.6989283"><ele>147.75</ele><time>2026-04-19T12:37:02.884Z</time></trkpt><trkpt lat="43.9065567" lon="12.69881"><ele>148.5</ele><time>2026-04-19T12:37:03.885Z</time></trkpt><trkpt lat="43.9064367" lon="12.6986917"><ele>149.25</ele><time>2026-04-19T12:37:04.886Z</time></trkpt><trkpt lat="43.90631" lon="12.6985767"><ele>150.0</ele><time>2026-04-19T12:37:05.885Z</time></trkpt><trkpt lat="43.906175" lon="12.6984633"><ele>150.0</ele><time>2026-04-19T12:37:06.886Z</time></trkpt><trkpt lat="43.9060333" lon="12.698345"><ele>150.0</ele><time>2026-04-19T12:37:07.886Z</time></trkpt><trkpt lat="43.905885" lon="12.698225"><ele>150.0</ele><time>2026-04-19T12:37:08.885Z</time></trkpt><trkpt lat="43.905735" lon="12.6981"><ele>151.0</ele><time>2026-04-19T12:37:09.886Z</time></trkpt><trkpt lat="43.9055817" lon="12.6979717"><ele>152.0</ele><time>2026-04-19T12:37:10.888Z</time></trkpt><trkpt lat="43.9054267" lon="12.697835"><ele>153.0</ele><time>2026-04-19T12:37:11.889Z</time></trkpt><trkpt lat="43.90528" lon="12.6977033"><ele>153.33333333333334</ele><time>2026-04-19T12:37:12.889Z</time></trkpt><trkpt lat="43.9051383" lon="12.6975783"><ele>153.66666666666669</ele><time>2026-04-19T12:37:13.888Z</time></trkpt><trkpt lat="43.9050017" lon="12.69745"><ele>154.0</ele><time>2026-04-19T12:37:14.888Z</time></trkpt><trkpt lat="43.9048717" lon="12.6973217"><ele>153.5</ele><time>2026-04-19T12:37:15.885Z</time></trkpt><trkpt lat="43.90475" lon="12.697195"><ele>153.0</ele><time>2026-04-19T12:37:16.886Z</time></trkpt><trkpt lat="43.9046333" lon="12.6970717"><ele>152.5</ele><time>2026-04-19T12:37:17.886Z</time></trkpt><trkpt lat="43.9045283" lon="12.6969583"><ele>152.0</ele><time>2026-04-19T12:37:18.886Z</time></trkpt><trkpt lat="43.9044217" lon="12.6968583"><ele>151.0</ele><time>2026-04-19T12:37:19.886Z</time></trkpt><trkpt lat="43.9043133" lon="12.696775"><ele>150.0</ele><time>2026-04-19T12:37:20.886Z</time></trkpt><trkpt lat="43.9042033" lon="12.69672"><ele>149.0</ele><time>2026-04-19T12:37:21.887Z</time></trkpt><trkpt lat="43.9040817" lon="12.6966983"><ele>148.0</ele><time>2026-04-19T12:37:22.889Z</time></trkpt><trkpt lat="43.90395" lon="12.6967133"><ele>148.0</ele><time>2026-04-19T12:37:23.887Z</time></trkpt><trkpt lat="43.9038117" lon="12.6967483"><ele>148.0</ele><time>2026-04-19T12:37:24.887Z</time></trkpt><trkpt lat="43.903665" lon="12.6967817"><ele>148.0</ele><time>2026-04-19T12:37:25.887Z</time></trkpt><trkpt lat="43.9035117" lon="12.6968133"><ele>148.0</ele><time>2026-04-19T12:37:26.89Z</time></trkpt><trkpt lat="43.903355" lon="12.69684"><ele>146.33333333333334</ele><time>2026-04-19T12:37:27.889Z</time></trkpt><trkpt lat="43.9032" lon="12.69686"><ele>144.66666666666666</ele><time>2026-04-19T12:37:28.889Z</time></trkpt><trkpt lat="43.9030467" lon="12.69689"><ele>143.0</ele><time>2026-04-19T12:37:29.888Z</time></trkpt><trkpt lat="43.9028917" lon="12.6969517"><ele>142.66666666666666</ele><time>2026-04-19T12:37:30.888Z</time></trkpt><trkpt lat="43.9027333" lon="12.69703"><ele>142.33333333333334</ele><time>2026-04-19T12:37:31.887Z</time></trkpt><trkpt lat="43.9025717" lon="12.69711"><ele>142.0</ele><time>2026-04-19T12:37:32.887Z</time></trkpt><trkpt lat="43.902405" lon="12.69717"><ele>141.0</ele><time>2026-04-19T12:37:33.885Z</time></trkpt><trkpt lat="43.9022367" lon="12.6972017"><ele>140.0</ele><time>2026-04-19T12:37:34.888Z</time></trkpt><trkpt lat="43.902055" lon="12.6971917"><ele>139.0</ele><time>2026-04-19T12:37:35.888Z</time></trkpt><trkpt lat="43.901875" lon="12.6971467"><ele>140.33333333333334</ele><time>2026-04-19T12:37:36.887Z</time></trkpt><trkpt lat="43.9016967" lon="12.6970867"><ele>141.66666666666666</ele><time>2026-04-19T12:37:37.888Z</time></trkpt><trkpt lat="43.9015133" lon="12.6970317"><ele>143.0</ele><time>2026-04-19T12:37:38.886Z</time></trkpt><trkpt lat="43.9013333" lon="12.69698"><ele>143.0</ele><time>2026-04-19T12:37:39.887Z</time></trkpt><trkpt lat="43.9011583" lon="12.6969367"><ele>143.0</ele><time>2026-04-19T12:37:40.888Z</time></trkpt><trkpt lat="43.9009867" lon="12.6969033"><ele>143.0</ele><time>2026-04-19T12:37:41.886Z</time></trkpt><trkpt lat="43.9008133" lon="12.6968783"><ele>144.66666666666666</ele><time>2026-04-19T12:37:42.887Z</time></trkpt><trkpt lat="43.90063" lon="12.6968633"><ele>146.33333333333334</ele><time>2026-04-19T12:37:43.887Z</time></trkpt><trkpt lat="43.900445" lon="12.696855"><ele>148.0</ele><time>2026-04-19T12:37:44.886Z</time></trkpt><trkpt lat="43.9002617" lon="12.6968533"><ele>148.0</ele><time>2026-04-19T12:37:45.889Z</time></trkpt><trkpt lat="43.9000933" lon="12.69685"><ele>148.0</ele><time>2026-04-19T12:37:46.888Z</time></trkpt><trkpt lat="43.8999467" lon="12.6968433"><ele>148.0</ele><time>2026-04-19T12:37:47.887Z</time></trkpt><trkpt lat="43.899825" lon="12.69684"><ele>148.0</ele><time>2026-04-19T12:37:48.888Z</time></trkpt><trkpt lat="43.8997283" lon="12.6968383"><ele>148.66666666666669</ele><time>2026-04-19T12:37:49.886Z</time></trkpt><trkpt lat="43.8996583" lon="12.69684"><ele>149.33333333333334</ele><time>2026-04-19T12:37:50.886Z</time></trkpt><trkpt lat="43.899575" lon="12.6968617"><ele>150.0</ele><time>2026-04-19T12:37:52.889Z</time></trkpt><trkpt lat="43.89952" lon="12.69698"><ele>150.66666666666666</ele><time>2026-04-19T12:37:54.887Z</time></trkpt><trkpt lat="43.8994967" lon="12.6970967"><ele>151.33333333333331</ele><time>2026-04-19T12:37:55.888Z</time></trkpt><trkpt lat="43.8994617" lon="12.697225"><ele>152.0</ele><time>2026-04-19T12:37:56.886Z</time></trkpt><trkpt lat="43.8994267" lon="12.6973483"><ele>152.0</ele><time>2026-04-19T12:37:57.886Z</time></trkpt><trkpt lat="43.8993883" lon="12.6974517"><ele>152.0</ele><time>2026-04-19T12:37:58.887Z</time></trkpt><trkpt lat="43.8993517" lon="12.6975417"><ele>152.0</ele><time>2026-04-19T12:37:59.887Z</time></trkpt><trkpt lat="43.8993133" lon="12.6976283"><ele>152.0</ele><time>2026-04-19T12:38:00.888Z</time></trkpt><trkpt lat="43.899275" lon="12.6977167"><ele>152.0</ele><time>2026-04-19T12:38:01.888Z</time></trkpt><trkpt lat="43.8992383" lon="12.6978033"><ele>152.0</ele><time>2026-04-19T12:38:02.886Z</time></trkpt><trkpt lat="43.8992017" lon="12.6978883"><ele>152.5</ele><time>2026-04-19T12:38:03.886Z</time></trkpt><trkpt lat="43.8991633" lon="12.6979733"><ele>153.0</ele><time>2026-04-19T12:38:04.889Z</time></trkpt><trkpt lat="43.899125" lon="12.6980533"><ele>153.5</ele><time>2026-04-19T12:38:05.887Z</time></trkpt><trkpt lat="43.899085" lon="12.6981367"><ele>154.0</ele><time>2026-04-19T12:38:06.887Z</time></trkpt><trkpt lat="43.8990433" lon="12.6982317"><ele>154.5</ele><time>2026-04-19T12:38:07.886Z</time></trkpt><trkpt lat="43.8990017" lon="12.6983433"><ele>155.0</ele><time>2026-04-19T12:38:08.885Z</time></trkpt><trkpt lat="43.8989533" lon="12.6984767"><ele>153.25</ele><time>2026-04-19T12:38:09.886Z</time></trkpt><trkpt lat="43.8989" lon="12.6986317"><ele>151.5</ele><time>2026-04-19T12:38:10.887Z</time></trkpt><trkpt lat="43.89884" lon="12.6988"><ele>149.75</ele><time>2026-04-19T12:38:11.888Z</time></trkpt><trkpt lat="43.89877" lon="12.6989783"><ele>148.0</ele><time>2026-04-19T12:38:12.886Z</time></trkpt><trkpt lat="43.8986817" lon="12.6991633"><ele>148.0</ele><time>2026-04-19T12:38:13.887Z</time></trkpt><trkpt lat="43.8985883" lon="12.699355"><ele>148.0</ele><time>2026-04-19T12:38:14.886Z</time></trkpt><trkpt lat="43.89849" lon="12.699545"><ele>148.0</ele><time>2026-04-19T12:38:15.887Z</time></trkpt><trkpt lat="43.8983917" lon="12.699735"><ele>148.33333333333334</ele><time>2026-04-19T12:38:16.888Z</time></trkpt><trkpt lat="43.8983017" lon="12.6999183"><ele>148.66666666666666</ele><time>2026-04-19T12:38:17.887Z</time></trkpt><trkpt lat="43.8982233" lon="12.7001"><ele>149.0</ele><time>2026-04-19T12:38:18.887Z</time></trkpt><trkpt lat="43.8981567" lon="12.7002867"><ele>149.0</ele><time>2026-04-19T12:38:19.886Z</time></trkpt><trkpt lat="43.8980933" lon="12.70048"><ele>149.0</ele><time>2026-04-19T12:38:20.886Z</time></trkpt><trkpt lat="43.898035" lon="12.7006783"><ele>149.0</ele><time>2026-04-19T12:38:21.887Z</time></trkpt><trkpt lat="43.8979783" lon="12.7008783"><ele>149.0</ele><time>2026-04-19T12:38:22.886Z</time></trkpt><trkpt lat="43.8979233" lon="12.7010717"><ele>149.0</ele><time>2026-04-19T12:38:23.887Z</time></trkpt><trkpt lat="43.8978733" lon="12.7012667"><ele>149.0</ele><time>2026-04-19T12:38:24.886Z</time></trkpt><trkpt lat="43.8978283" lon="12.7014667"><ele>147.0</ele><time>2026-04-19T12:38:25.888Z</time></trkpt><trkpt lat="43.897795" lon="12.70168"><ele>145.0</ele><time>2026-04-19T12:38:26.888Z</time></trkpt><trkpt lat="43.8977583" lon="12.7018983"><ele>143.0</ele><time>2026-04-19T12:38:27.887Z</time></trkpt><trkpt lat="43.897725" lon="12.70212"><ele>142.0</ele><time>2026-04-19T12:38:28.888Z</time></trkpt><trkpt lat="43.8976917" lon="12.7023417"><ele>141.0</ele><time>2026-04-19T12:38:29.888Z</time></trkpt><trkpt lat="43.8976633" lon="12.7025633"><ele>140.0</ele><time>2026-04-19T12:38:30.888Z</time></trkpt><trkpt lat="43.897635" lon="12.7027783"><ele>139.5</ele><time>2026-04-19T12:38:31.886Z</time></trkpt><trkpt lat="43.897605" lon="12.7029833"><ele>139.0</ele><time>2026-04-19T12:38:32.886Z</time></trkpt><trkpt lat="43.8975767" lon="12.7031783"><ele>138.5</ele><time>2026-04-19T12:38:33.887Z</time></trkpt><trkpt lat="43.8975483" lon="12.7033667"><ele>138.0</ele><time>2026-04-19T12:38:34.888Z</time></trkpt><trkpt lat="43.8975267" lon="12.7035517"><ele>139.0</ele><time>2026-04-19T12:38:35.886Z</time></trkpt><trkpt lat="43.8975067" lon="12.7037383"><ele>140.0</ele><time>2026-04-19T12:38:36.886Z</time></trkpt><trkpt lat="43.8974883" lon="12.7039217"><ele>141.0</ele><time>2026-04-19T12:38:37.887Z</time></trkpt><trkpt lat="43.897465" lon="12.7041083"><ele>142.0</ele><time>2026-04-19T12:38:38.887Z</time></trkpt><trkpt lat="43.8974433" lon="12.7043"><ele>142.0</ele><time>2026-04-19T12:38:39.887Z</time></trkpt><trkpt lat="43.8974233" lon="12.7045"><ele>142.0</ele><time>2026-04-19T12:38:40.888Z</time></trkpt><trkpt lat="43.897395" lon="12.7047067"><ele>142.0</ele><time>2026-04-19T12:38:41.886Z</time></trkpt><trkpt lat="43.8973667" lon="12.7049183"><ele>142.0</ele><time>2026-04-19T12:38:42.886Z</time></trkpt><trkpt lat="43.8973333" lon="12.7051367"><ele>142.0</ele><time>2026-04-19T12:38:43.888Z</time></trkpt><trkpt lat="43.8973" lon="12.7053567"><ele>142.0</ele><time>2026-04-19T12:38:44.888Z</time></trkpt><trkpt lat="43.89727" lon="12.7055767"><ele>140.33333333333334</ele><time>2026-04-19T12:38:45.886Z</time></trkpt><trkpt lat="43.8972367" lon="12.7057883"><ele>138.66666666666666</ele><time>2026-04-19T12:38:46.887Z</time></trkpt><trkpt lat="43.8971933" lon="12.7059933"><ele>137.0</ele><time>2026-04-19T12:38:47.887Z</time></trkpt><trkpt lat="43.8971383" lon="12.706195"><ele>135.33333333333331</ele><time>2026-04-19T12:38:48.888Z</time></trkpt><trkpt lat="43.8970617" lon="12.7063867"><ele>133.66666666666666</ele><time>2026-04-19T12:38:49.886Z</time></trkpt><trkpt lat="43.89697" lon="12.70657"><ele>132.0</ele><time>2026-04-19T12:38:50.887Z</time></trkpt><trkpt lat="43.8968717" lon="12.7067467"><ele>133.33333333333334</ele><time>2026-04-19T12:38:51.886Z</time></trkpt><trkpt lat="43.8967717" lon="12.7069233"><ele>134.66666666666669</ele><time>2026-04-19T12:38:52.889Z</time></trkpt><trkpt lat="43.8966767" lon="12.7071"><ele>136.0</ele><time>2026-04-19T12:38:53.887Z</time></trkpt><trkpt lat="43.8965917" lon="12.7072817"><ele>136.0</ele><time>2026-04-19T12:38:54.887Z</time></trkpt><trkpt lat="43.89652" lon="12.707465"><ele>136.0</ele><time>2026-04-19T12:38:55.887Z</time></trkpt><trkpt lat="43.8964683" lon="12.7076583"><ele>136.0</ele><time>2026-04-19T12:38:56.888Z</time></trkpt><trkpt lat="43.8964433" lon="12.7078683"><ele>135.75</ele><time>2026-04-19T12:38:57.889Z</time></trkpt><trkpt lat="43.8964417" lon="12.708085"><ele>135.5</ele><time>2026-04-19T12:38:58.886Z</time></trkpt><trkpt lat="43.89645" lon="12.7082883"><ele>135.25</ele><time>2026-04-19T12:38:59.89Z</time></trkpt><trkpt lat="43.8964633" lon="12.7084817"><ele>135.0</ele><time>2026-04-19T12:39:00.889Z</time></trkpt><trkpt lat="43.896475" lon="12.7086633"><ele>134.5</ele><time>2026-04-19T12:39:01.887Z</time></trkpt><trkpt lat="43.8964883" lon="12.7088467"><ele>134.0</ele><time>2026-04-19T12:39:02.886Z</time></trkpt><trkpt lat="43.8965" lon="12.7090383"><ele>133.5</ele><time>2026-04-19T12:39:03.886Z</time></trkpt><trkpt lat="43.8965133" lon="12.7092367"><ele>133.0</ele><time>2026-04-19T12:39:04.889Z</time></trkpt><trkpt lat="43.8965267" lon="12.7094417"><ele>132.66666666666669</ele><time>2026-04-19T12:39:05.886Z</time></trkpt><trkpt lat="43.8965417" lon="12.709655"><ele>132.33333333333334</ele><time>2026-04-19T12:39:06.886Z</time></trkpt><trkpt lat="43.8965567" lon="12.7098683"><ele>132.0</ele><time>2026-04-19T12:39:07.889Z</time></trkpt><trkpt lat="43.896575" lon="12.7100717"><ele>132.0</ele><time>2026-04-19T12:39:08.887Z</time></trkpt><trkpt lat="43.896595" lon="12.710265"><ele>132.0</ele><time>2026-04-19T12:39:09.885Z</time></trkpt><trkpt lat="43.8966117" lon="12.710435"><ele>132.0</ele><time>2026-04-19T12:39:10.889Z</time></trkpt><trkpt lat="43.8966233" lon="12.71057"><ele>132.0</ele><time>2026-04-19T12:39:11.885Z</time></trkpt><trkpt lat="43.8966267" lon="12.710665"><ele>132.0</ele><time>2026-04-19T12:39:12.887Z</time></trkpt><trkpt lat="43.8965967" lon="12.710755"><ele>132.0</ele><time>2026-04-19T12:39:14.887Z</time></trkpt><trkpt lat="43.8965183" lon="12.7107233"><ele>132.0</ele><time>2026-04-19T12:39:16.889Z</time></trkpt><trkpt lat="43.89646" lon="12.7106767"><ele>132.0</ele><time>2026-04-19T12:39:17.888Z</time></trkpt><trkpt lat="43.8963833" lon="12.7106283"><ele>132.0</ele><time>2026-04-19T12:39:18.887Z</time></trkpt><trkpt lat="43.8962917" lon="12.710585"><ele>132.0</ele><time>2026-04-19T12:39:19.887Z</time></trkpt><trkpt lat="43.8961817" lon="12.7105733"><ele>132.0</ele><time>2026-04-19T12:39:20.887Z</time></trkpt><trkpt lat="43.8960633" lon="12.7105933"><ele>132.0</ele><time>2026-04-19T12:39:21.887Z</time></trkpt><trkpt lat="43.895935" lon="12.7106283"><ele>132.0</ele><time>2026-04-19T12:39:22.886Z</time></trkpt><trkpt lat="43.8957933" lon="12.71067"><ele>132.0</ele><time>2026-04-19T12:39:23.886Z</time></trkpt><trkpt lat="43.89564" lon="12.71071"><ele>132.0</ele><time>2026-04-19T12:39:24.887Z</time></trkpt><trkpt lat="43.8954867" lon="12.710755"><ele>134.33333333333334</ele><time>2026-04-19T12:39:25.888Z</time></trkpt><trkpt lat="43.8953383" lon="12.7107983"><ele>136.66666666666669</ele><time>2026-04-19T12:39:26.886Z</time></trkpt><trkpt lat="43.8951917" lon="12.7108383"><ele>139.0</ele><time>2026-04-19T12:39:27.886Z</time></trkpt><trkpt lat="43.8950467" lon="12.710885"><ele>140.0</ele><time>2026-04-19T12:39:28.889Z</time></trkpt><trkpt lat="43.8949" lon="12.71094"><ele>141.0</ele><time>2026-04-19T12:39:29.888Z</time></trkpt><trkpt lat="43.8947567" lon="12.7110083"><ele>142.0</ele><time>2026-04-19T12:39:30.888Z</time></trkpt><trkpt lat="43.8946133" lon="12.7110917"><ele>142.33333333333334</ele><time>2026-04-19T12:39:31.886Z</time></trkpt><trkpt lat="43.8944717" lon="12.7111817"><ele>142.66666666666666</ele><time>2026-04-19T12:39:32.886Z</time></trkpt><trkpt lat="43.8943283" lon="12.7112733"><ele>143.0</ele><time>2026-04-19T12:39:33.886Z</time></trkpt><trkpt lat="43.8941867" lon="12.7113667"><ele>143.0</ele><time>2026-04-19T12:39:34.887Z</time></trkpt><trkpt lat="43.8940467" lon="12.7114683"><ele>143.0</ele><time>2026-04-19T12:39:35.886Z</time></trkpt><trkpt lat="43.8939117" lon="12.7115783"><ele>143.0</ele><time>2026-04-19T12:39:36.887Z</time></trkpt><trkpt lat="43.8937867" lon="12.71169"><ele>143.0</ele><time>2026-04-19T12:39:37.889Z</time></trkpt><trkpt lat="43.8936767" lon="12.7117933"><ele>143.0</ele><time>2026-04-19T12:39:38.886Z</time></trkpt><trkpt lat="43.8935633" lon="12.7118967"><ele>143.0</ele><time>2026-04-19T12:39:39.887Z</time></trkpt><trkpt lat="43.8934433" lon="12.7120067"><ele>143.0</ele><time>2026-04-19T12:39:40.889Z</time></trkpt><trkpt lat="43.8933267" lon="12.712115"><ele>141.25</ele><time>2026-04-19T12:39:41.888Z</time></trkpt><trkpt lat="43.89321" lon="12.7122383"><ele>139.5</ele><time>2026-04-19T12:39:42.886Z</time></trkpt><trkpt lat="43.8931017" lon="12.71237"><ele>137.75</ele><time>2026-04-19T12:39:43.889Z</time></trkpt><trkpt lat="43.893" lon="12.7124917"><ele>136.0</ele><time>2026-04-19T12:39:44.889Z</time></trkpt><trkpt lat="43.8928967" lon="12.7125967"><ele>136.0</ele><time>2026-04-19T12:39:45.886Z</time></trkpt><trkpt lat="43.8927967" lon="12.7126717"><ele>136.0</ele><time>2026-04-19T12:39:46.885Z</time></trkpt><trkpt lat="43.8926833" lon="12.7127217"><ele>136.0</ele><time>2026-04-19T12:39:47.886Z</time></trkpt><trkpt lat="43.8925617" lon="12.7127533"><ele>136.0</ele><time>2026-04-19T12:39:48.886Z</time></trkpt><trkpt lat="43.8924283" lon="12.7127617"><ele>134.0</ele><time>2026-04-19T12:39:49.886Z</time></trkpt><trkpt lat="43.89228" lon="12.7127517"><ele>132.0</ele><time>2026-04-19T12:39:50.886Z</time></trkpt><trkpt lat="43.8921233" lon="12.712725"><ele>130.0</ele><time>2026-04-19T12:39:51.886Z</time></trkpt><trkpt lat="43.8919733" lon="12.7126933"><ele>130.0</ele><time>2026-04-19T12:39:52.887Z</time></trkpt><trkpt lat="43.8918267" lon="12.71267"><ele>130.0</ele><time>2026-04-19T12:39:53.885Z</time></trkpt><trkpt lat="43.8916883" lon="12.7126467"><ele>130.0</ele><time>2026-04-19T12:39:54.887Z</time></trkpt><trkpt lat="43.8915583" lon="12.712615"><ele>130.0</ele><time>2026-04-19T12:39:55.887Z</time></trkpt><trkpt lat="43.8914417" lon="12.7125667"><ele>129.75</ele><time>2026-04-19T12:39:56.888Z</time></trkpt><trkpt lat="43.8913333" lon="12.7125"><ele>129.5</ele><time>2026-04-19T12:39:57.886Z</time></trkpt><trkpt lat="43.89124" lon="12.712405"><ele>129.25</ele><time>2026-04-19T12:39:58.886Z</time></trkpt><trkpt lat="43.8911617" lon="12.712285"><ele>129.0</ele><time>2026-04-19T12:39:59.889Z</time></trkpt><trkpt lat="43.8910933" lon="12.7121517"><ele>129.0</ele><time>2026-04-19T12:40:00.89Z</time></trkpt><trkpt lat="43.8910283" lon="12.7120117"><ele>129.0</ele><time>2026-04-19T12:40:01.887Z</time></trkpt><trkpt lat="43.890965" lon="12.71188"><ele>129.0</ele><time>2026-04-19T12:40:02.887Z</time></trkpt><trkpt lat="43.890905" lon="12.71175"><ele>129.0</ele><time>2026-04-19T12:40:03.886Z</time></trkpt><trkpt lat="43.89085" lon="12.7116283"><ele>129.0</ele><time>2026-04-19T12:40:04.888Z</time></trkpt><trkpt lat="43.8908" lon="12.711515"><ele>126.6</ele><time>2026-04-19T12:40:05.888Z</time></trkpt><trkpt lat="43.8907483" lon="12.7114067"><ele>124.2</ele><time>2026-04-19T12:40:06.887Z</time></trkpt><trkpt lat="43.89069" lon="12.71131"><ele>121.79999999999998</ele><time>2026-04-19T12:40:07.888Z</time></trkpt><trkpt lat="43.8906283" lon="12.711225"><ele>119.39999999999999</ele><time>2026-04-19T12:40:08.887Z</time></trkpt><trkpt lat="43.8905517" lon="12.711155"><ele>117.0</ele><time>2026-04-19T12:40:09.886Z</time></trkpt><trkpt lat="43.89046" lon="12.71111"><ele>117.0</ele><time>2026-04-19T12:40:10.887Z</time></trkpt><trkpt lat="43.8903633" lon="12.71109"><ele>116.99999999999999</ele><time>2026-04-19T12:40:11.887Z</time></trkpt><trkpt lat="43.8902583" lon="12.7110833"><ele>116.99999999999999</ele><time>2026-04-19T12:40:12.888Z</time></trkpt><trkpt lat="43.8901467" lon="12.7110767"><ele>117.0</ele><time>2026-04-19T12:40:13.886Z</time></trkpt><trkpt lat="43.8900333" lon="12.711075"><ele>117.0</ele><time>2026-04-19T12:40:14.885Z</time></trkpt><trkpt lat="43.88992" lon="12.711085"><ele>114.0</ele><time>2026-04-19T12:40:15.886Z</time></trkpt><trkpt lat="43.889805" lon="12.7111083"><ele>111.0</ele><time>2026-04-19T12:40:16.885Z</time></trkpt><trkpt lat="43.8896883" lon="12.7111433"><ele>108.0</ele><time>2026-04-19T12:40:17.886Z</time></trkpt><trkpt lat="43.889575" lon="12.7111833"><ele>105.0</ele><time>2026-04-19T12:40:18.886Z</time></trkpt><trkpt lat="43.8894683" lon="12.71124"><ele>105.0</ele><time>2026-04-19T12:40:19.886Z</time></trkpt><trkpt lat="43.8893667" lon="12.7112933"><ele>105.0</ele><time>2026-04-19T12:40:20.885Z</time></trkpt><trkpt lat="43.88926" lon="12.711335"><ele>105.0</ele><time>2026-04-19T12:40:21.886Z</time></trkpt><trkpt lat="43.8891483" lon="12.71136"><ele>105.0</ele><time>2026-04-19T12:40:22.887Z</time></trkpt><trkpt lat="43.8890283" lon="12.71136"><ele>102.5</ele><time>2026-04-19T12:40:23.885Z</time></trkpt><trkpt lat="43.8889" lon="12.7113283"><ele>100.0</ele><time>2026-04-19T12:40:24.886Z</time></trkpt><trkpt lat="43.8887717" lon="12.7112867"><ele>97.5</ele><time>2026-04-19T12:40:25.886Z</time></trkpt><trkpt lat="43.8886467" lon="12.7112467"><ele>95.0</ele><time>2026-04-19T12:40:26.886Z</time></trkpt><trkpt lat="43.888525" lon="12.71121"><ele>92.0</ele><time>2026-04-19T12:40:27.886Z</time></trkpt><trkpt lat="43.8884067" lon="12.7111783"><ele>89.0</ele><time>2026-04-19T12:40:28.889Z</time></trkpt><trkpt lat="43.8882917" lon="12.7111467"><ele>86.0</ele><time>2026-04-19T12:40:29.886Z</time></trkpt><trkpt lat="43.8881817" lon="12.7111167"><ele>83.0</ele><time>2026-04-19T12:40:30.89Z</time></trkpt><trkpt lat="43.8880783" lon="12.7110933"><ele>83.0</ele><time>2026-04-19T12:40:31.887Z</time></trkpt><trkpt lat="43.887975" lon="12.7110867"><ele>83.0</ele><time>2026-04-19T12:40:32.889Z</time></trkpt><trkpt lat="43.8878733" lon="12.7110967"><ele>83.0</ele><time>2026-04-19T12:40:33.888Z</time></trkpt><trkpt lat="43.887775" lon="12.71113"><ele>83.0</ele><time>2026-04-19T12:40:34.888Z</time></trkpt><trkpt lat="43.887675" lon="12.7111917"><ele>83.0</ele><time>2026-04-19T12:40:35.888Z</time></trkpt><trkpt lat="43.8875733" lon="12.711265"><ele>80.80000000000001</ele><time>2026-04-19T12:40:36.887Z</time></trkpt><trkpt lat="43.8874833" lon="12.7113283"><ele>78.60000000000001</ele><time>2026-04-19T12:40:37.888Z</time></trkpt><trkpt lat="43.8874033" lon="12.7113817"><ele>76.4</ele><time>2026-04-19T12:40:38.885Z</time></trkpt><trkpt lat="43.8873367" lon="12.7114233"><ele>74.2</ele><time>2026-04-19T12:40:39.887Z</time></trkpt><trkpt lat="43.8872467" lon="12.71146"><ele>72.0</ele><time>2026-04-19T12:40:41.886Z</time></trkpt><trkpt lat="43.8871733" lon="12.7113733"><ele>72.0</ele><time>2026-04-19T12:44:21.887Z</time></trkpt><trkpt lat="43.8871433" lon="12.7112933"><ele>72.0</ele><time>2026-04-19T12:44:22.889Z</time></trkpt><trkpt lat="43.8871167" lon="12.7111883"><ele>72.0</ele><time>2026-04-19T12:44:23.888Z</time></trkpt><trkpt lat="43.887085" lon="12.71105"><ele>72.0</ele><time>2026-04-19T12:44:24.888Z</time></trkpt><trkpt lat="43.88705" lon="12.7109017"><ele>72.0</ele><time>2026-04-19T12:44:25.89Z</time></trkpt><trkpt lat="43.88701" lon="12.7107317"><ele>72.0</ele><time>2026-04-19T12:44:26.889Z</time></trkpt><trkpt lat="43.8869617" lon="12.7105417"><ele>72.0</ele><time>2026-04-19T12:44:27.888Z</time></trkpt><trkpt lat="43.8869117" lon="12.71034"><ele>72.0</ele><time>2026-04-19T12:44:28.89Z</time></trkpt><trkpt lat="43.88686" lon="12.7101367"><ele>70.0</ele><time>2026-04-19T12:44:29.889Z</time></trkpt><trkpt lat="43.8868083" lon="12.7099367"><ele>68.0</ele><time>2026-04-19T12:44:30.888Z</time></trkpt><trkpt lat="43.886755" lon="12.7097433"><ele>66.0</ele><time>2026-04-19T12:44:31.888Z</time></trkpt><trkpt lat="43.8866883" lon="12.7095267"><ele>65.0</ele><time>2026-04-19T12:44:32.888Z</time></trkpt><trkpt lat="43.886625" lon="12.7093233"><ele>64.0</ele><time>2026-04-19T12:44:33.889Z</time></trkpt><trkpt lat="43.88656" lon="12.70913"><ele>63.0</ele><time>2026-04-19T12:44:34.888Z</time></trkpt><trkpt lat="43.8864933" lon="12.7089383"><ele>63.0</ele><time>2026-04-19T12:44:35.889Z</time></trkpt><trkpt lat="43.8864383" lon="12.70875"><ele>63.0</ele><time>2026-04-19T12:44:36.889Z</time></trkpt><trkpt lat="43.8863833" lon="12.7085617"><ele>63.0</ele><time>2026-04-19T12:44:37.888Z</time></trkpt><trkpt lat="43.8863267" lon="12.7083733"><ele>63.0</ele><time>2026-04-19T12:44:38.887Z</time></trkpt><trkpt lat="43.8862667" lon="12.70819"><ele>64.0</ele><time>2026-04-19T12:44:39.891Z</time></trkpt><trkpt lat="43.886215" lon="12.7080333"><ele>65.0</ele><time>2026-04-19T12:44:40.888Z</time></trkpt><trkpt lat="43.8861583" lon="12.7078983"><ele>66.0</ele><time>2026-04-19T12:44:41.886Z</time></trkpt><trkpt lat="43.88608" lon="12.7077817"><ele>67.0</ele><time>2026-04-19T12:44:42.888Z</time></trkpt><trkpt lat="43.886" lon="12.707675"><ele>68.0</ele><time>2026-04-19T12:44:43.888Z</time></trkpt><trkpt lat="43.8859217" lon="12.707565"><ele>69.0</ele><time>2026-04-19T12:44:44.889Z</time></trkpt><trkpt lat="43.8858583" lon="12.7074467"><ele>70.0</ele><time>2026-04-19T12:44:45.888Z</time></trkpt><trkpt lat="43.8858083" lon="12.7073083"><ele>71.0</ele><time>2026-04-19T12:44:46.888Z</time></trkpt><trkpt lat="43.885775" lon="12.7071483"><ele>72.0</ele><time>2026-04-19T12:44:47.889Z</time></trkpt><trkpt lat="43.8857483" lon="12.7069733"><ele>72.75</ele><time>2026-04-19T12:44:48.889Z</time></trkpt><trkpt lat="43.8857233" lon="12.7067867"><ele>73.5</ele><time>2026-04-19T12:44:49.888Z</time></trkpt><trkpt lat="43.8857017" lon="12.7065983"><ele>74.25</ele><time>2026-04-19T12:44:50.886Z</time></trkpt><trkpt lat="43.88567" lon="12.7064033"><ele>75.0</ele><time>2026-04-19T12:44:51.888Z</time></trkpt><trkpt lat="43.8856283" lon="12.7062117"><ele>76.66666666666667</ele><time>2026-04-19T12:44:52.888Z</time></trkpt><trkpt lat="43.88558" lon="12.70602"><ele>78.33333333333334</ele><time>2026-04-19T12:44:53.889Z</time></trkpt><trkpt lat="43.8855283" lon="12.7058217"><ele>80.0</ele><time>2026-04-19T12:44:54.888Z</time></trkpt><trkpt lat="43.8854683" lon="12.7056183"><ele>80.0</ele><time>2026-04-19T12:44:55.89Z</time></trkpt><trkpt lat="43.8854183" lon="12.7054217"><ele>80.0</ele><time>2026-04-19T12:44:56.889Z</time></trkpt><trkpt lat="43.8853667" lon="12.705225"><ele>80.0</ele><time>2026-04-19T12:44:57.889Z</time></trkpt><trkpt lat="43.885315" lon="12.7050233"><ele>81.75</ele><time>2026-04-19T12:44:58.888Z</time></trkpt><trkpt lat="43.8852667" lon="12.7048217"><ele>83.5</ele><time>2026-04-19T12:44:59.889Z</time></trkpt><trkpt lat="43.8852183" lon="12.7046267"><ele>85.25</ele><time>2026-04-19T12:45:00.889Z</time></trkpt><trkpt lat="43.88517" lon="12.7044367"><ele>87.0</ele><time>2026-04-19T12:45:01.887Z</time></trkpt><trkpt lat="43.885125" lon="12.7042617"><ele>86.5</ele><time>2026-04-19T12:45:02.889Z</time></trkpt><trkpt lat="43.8850867" lon="12.7040833"><ele>86.0</ele><time>2026-04-19T12:45:03.888Z</time></trkpt><trkpt lat="43.8850567" lon="12.7039067"><ele>85.5</ele><time>2026-04-19T12:45:04.888Z</time></trkpt><trkpt lat="43.8850417" lon="12.70373"><ele>85.0</ele><time>2026-04-19T12:45:05.889Z</time></trkpt><trkpt lat="43.885035" lon="12.70355"><ele>85.0</ele><time>2026-04-19T12:45:06.889Z</time></trkpt><trkpt lat="43.8850333" lon="12.7033633"><ele>85.0</ele><time>2026-04-19T12:45:07.888Z</time></trkpt><trkpt lat="43.8850383" lon="12.703175"><ele>85.0</ele><time>2026-04-19T12:45:08.886Z</time></trkpt><trkpt lat="43.8850483" lon="12.7029883"><ele>85.0</ele><time>2026-04-19T12:45:09.887Z</time></trkpt><trkpt lat="43.8850633" lon="12.7028117"><ele>85.0</ele><time>2026-04-19T12:45:10.889Z</time></trkpt><trkpt lat="43.885085" lon="12.7026367"><ele>85.0</ele><time>2026-04-19T12:45:11.888Z</time></trkpt><trkpt lat="43.8851133" lon="12.7024717"><ele>85.0</ele><time>2026-04-19T12:45:12.891Z</time></trkpt><trkpt lat="43.8851483" lon="12.70232"><ele>85.0</ele><time>2026-04-19T12:45:13.888Z</time></trkpt><trkpt lat="43.8851817" lon="12.70217"><ele>86.8</ele><time>2026-04-19T12:45:14.885Z</time></trkpt><trkpt lat="43.8852117" lon="12.70203"><ele>88.6</ele><time>2026-04-19T12:45:15.89Z</time></trkpt><trkpt lat="43.8852317" lon="12.70191"><ele>90.4</ele><time>2026-04-19T12:45:16.888Z</time></trkpt><trkpt lat="43.8852417" lon="12.7018083"><ele>92.2</ele><time>2026-04-19T12:45:17.889Z</time></trkpt><trkpt lat="43.8852233" lon="12.701715"><ele>94.0</ele><time>2026-04-19T12:45:18.888Z</time></trkpt><trkpt lat="43.885115" lon="12.701565"><ele>91.5</ele><time>2026-04-19T12:45:20.89Z</time></trkpt><trkpt lat="43.88502" lon="12.701475"><ele>89.0</ele><time>2026-04-19T12:45:21.888Z</time></trkpt><trkpt lat="43.8849067" lon="12.7013667"><ele>86.5</ele><time>2026-04-19T12:45:22.888Z</time></trkpt><trkpt lat="43.8848" lon="12.7012467"><ele>84.0</ele><time>2026-04-19T12:45:23.888Z</time></trkpt><trkpt lat="43.884715" lon="12.701125"><ele>85.0</ele><time>2026-04-19T12:45:24.889Z</time></trkpt><trkpt lat="43.8846517" lon="12.7009883"><ele>86.0</ele><time>2026-04-19T12:45:25.889Z</time></trkpt><trkpt lat="43.88461" lon="12.7008333"><ele>87.0</ele><time>2026-04-19T12:45:26.889Z</time></trkpt><trkpt lat="43.8845783" lon="12.7006683"><ele>88.0</ele><time>2026-04-19T12:45:27.887Z</time></trkpt><trkpt lat="43.8845617" lon="12.700495"><ele>88.0</ele><time>2026-04-19T12:45:28.889Z</time></trkpt><trkpt lat="43.8845567" lon="12.7003133"><ele>88.0</ele><time>2026-04-19T12:45:29.89Z</time></trkpt><trkpt lat="43.8845667" lon="12.7001267"><ele>88.0</ele><time>2026-04-19T12:45:30.888Z</time></trkpt><trkpt lat="43.884585" lon="12.6999417"><ele>88.0</ele><time>2026-04-19T12:45:31.888Z</time></trkpt><trkpt lat="43.8846117" lon="12.6997567"><ele>88.75</ele><time>2026-04-19T12:45:32.893Z</time></trkpt><trkpt lat="43.884645" lon="12.699575"><ele>89.5</ele><time>2026-04-19T12:45:33.889Z</time></trkpt><trkpt lat="43.88468" lon="12.6993983"><ele>90.25</ele><time>2026-04-19T12:45:34.889Z</time></trkpt><trkpt lat="43.8847117" lon="12.699235"><ele>91.0</ele><time>2026-04-19T12:45:35.888Z</time></trkpt><trkpt lat="43.8847417" lon="12.699075"><ele>91.25</ele><time>2026-04-19T12:45:36.888Z</time></trkpt><trkpt lat="43.8847767" lon="12.6988967"><ele>91.5</ele><time>2026-04-19T12:45:37.888Z</time></trkpt><trkpt lat="43.8848133" lon="12.6987183"><ele>91.75</ele><time>2026-04-19T12:45:38.89Z</time></trkpt><trkpt lat="43.88484" lon="12.6985483"><ele>92.0</ele><time>2026-04-19T12:45:39.984Z</time></trkpt><trkpt lat="43.8848667" lon="12.6983883"><ele>92.8</ele><time>2026-04-19T12:45:40.886Z</time></trkpt><trkpt lat="43.8849033" lon="12.6982433"><ele>93.6</ele><time>2026-04-19T12:45:41.885Z</time></trkpt><trkpt lat="43.884955" lon="12.69811"><ele>94.39999999999999</ele><time>2026-04-19T12:45:42.886Z</time></trkpt><trkpt lat="43.88502" lon="12.6979867"><ele>95.19999999999999</ele><time>2026-04-19T12:45:43.887Z</time></trkpt><trkpt lat="43.885095" lon="12.6978667"><ele>96.0</ele><time>2026-04-19T12:45:44.889Z</time></trkpt><trkpt lat="43.8851583" lon="12.6977317"><ele>96.0</ele><time>2026-04-19T12:45:45.889Z</time></trkpt><trkpt lat="43.8852067" lon="12.6975867"><ele>96.0</ele><time>2026-04-19T12:45:46.886Z</time></trkpt><trkpt lat="43.8852417" lon="12.6974417"><ele>96.0</ele><time>2026-04-19T12:45:47.888Z</time></trkpt><trkpt lat="43.885255" lon="12.6972933"><ele>96.0</ele><time>2026-04-19T12:45:48.885Z</time></trkpt><trkpt lat="43.885245" lon="12.6971367"><ele>96.0</ele><time>2026-04-19T12:45:49.887Z</time></trkpt><trkpt lat="43.8852217" lon="12.6969733"><ele>94.75</ele><time>2026-04-19T12:45:50.885Z</time></trkpt><trkpt lat="43.885195" lon="12.696815"><ele>93.5</ele><time>2026-04-19T12:45:51.886Z</time></trkpt><trkpt lat="43.8851717" lon="12.696665"><ele>92.25</ele><time>2026-04-19T12:45:52.886Z</time></trkpt><trkpt lat="43.8851717" lon="12.6965117"><ele>91.0</ele><time>2026-04-19T12:45:53.888Z</time></trkpt><trkpt lat="43.8851817" lon="12.6963483"><ele>91.0</ele><time>2026-04-19T12:45:54.889Z</time></trkpt><trkpt lat="43.8851917" lon="12.6961733"><ele>91.0</ele><time>2026-04-19T12:45:55.889Z</time></trkpt><trkpt lat="43.8852033" lon="12.6959933"><ele>91.0</ele><time>2026-04-19T12:45:56.889Z</time></trkpt><trkpt lat="43.8852167" lon="12.6958167"><ele>91.0</ele><time>2026-04-19T12:45:57.889Z</time></trkpt><trkpt lat="43.8852283" lon="12.6956383"><ele>89.75</ele><time>2026-04-19T12:45:58.89Z</time></trkpt><trkpt lat="43.8852367" lon="12.6954583"><ele>88.5</ele><time>2026-04-19T12:45:59.889Z</time></trkpt><trkpt lat="43.8852433" lon="12.6952883"><ele>87.25</ele><time>2026-04-19T12:46:00.888Z</time></trkpt><trkpt lat="43.88525" lon="12.6951317"><ele>86.0</ele><time>2026-04-19T12:46:01.886Z</time></trkpt><trkpt lat="43.8852567" lon="12.6949833"><ele>84.6</ele><time>2026-04-19T12:46:02.889Z</time></trkpt><trkpt lat="43.8852617" lon="12.6948517"><ele>83.19999999999999</ele><time>2026-04-19T12:46:03.888Z</time></trkpt><trkpt lat="43.8852683" lon="12.6947417"><ele>81.80000000000001</ele><time>2026-04-19T12:46:04.888Z</time></trkpt><trkpt lat="43.8852733" lon="12.6946467"><ele>80.4</ele><time>2026-04-19T12:46:05.888Z</time></trkpt><trkpt lat="43.8852917" lon="12.694485"><ele>79.0</ele><time>2026-04-19T12:46:07.887Z</time></trkpt><trkpt lat="43.885295" lon="12.6943083"><ele>78.71428571428572</ele><time>2026-04-19T12:46:09.891Z</time></trkpt><trkpt lat="43.8853" lon="12.69421"><ele>78.42857142857143</ele><time>2026-04-19T12:46:10.888Z</time></trkpt><trkpt lat="43.8853033" lon="12.6941067"><ele>78.14285714285714</ele><time>2026-04-19T12:46:11.887Z</time></trkpt><trkpt lat="43.885305" lon="12.6940033"><ele>77.85714285714286</ele><time>2026-04-19T12:46:12.888Z</time></trkpt><trkpt lat="43.8853033" lon="12.6939083"><ele>77.57142857142857</ele><time>2026-04-19T12:46:13.887Z</time></trkpt><trkpt lat="43.8853067" lon="12.6938167"><ele>77.28571428571429</ele><time>2026-04-19T12:46:14.887Z</time></trkpt><trkpt lat="43.8853117" lon="12.693725"><ele>77.0</ele><time>2026-04-19T12:46:15.887Z</time></trkpt><trkpt lat="43.8853167" lon="12.69363"><ele>77.5</ele><time>2026-04-19T12:46:16.888Z</time></trkpt><trkpt lat="43.8853233" lon="12.69353"><ele>78.0</ele><time>2026-04-19T12:46:17.886Z</time></trkpt><trkpt lat="43.8853233" lon="12.6934267"><ele>78.5</ele><time>2026-04-19T12:46:18.89Z</time></trkpt><trkpt lat="43.8853283" lon="12.6933217"><ele>79.0</ele><time>2026-04-19T12:46:19.889Z</time></trkpt><trkpt lat="43.88533" lon="12.6932183"><ele>79.5</ele><time>2026-04-19T12:46:20.888Z</time></trkpt><trkpt lat="43.8853317" lon="12.693125"><ele>80.0</ele><time>2026-04-19T12:46:21.89Z</time></trkpt><trkpt lat="43.8853317" lon="12.6929817"><ele>80.0</ele><time>2026-04-19T12:46:23.887Z</time></trkpt><trkpt lat="43.885325" lon="12.6928883"><ele>80.0</ele><time>2026-04-19T12:46:25.887Z</time></trkpt><trkpt lat="43.8853667" lon="12.692805"><ele>80.0</ele><time>2026-04-19T12:46:28.888Z</time></trkpt><trkpt lat="43.8854467" lon="12.692765"><ele>80.0</ele><time>2026-04-19T12:46:30.887Z</time></trkpt><trkpt lat="43.885535" lon="12.692715"><ele>80.0</ele><time>2026-04-19T12:46:32.886Z</time></trkpt><trkpt lat="43.8856117" lon="12.69271"><ele>80.0</ele><time>2026-04-19T12:46:35.888Z</time></trkpt><trkpt lat="43.8856833" lon="12.6927983"><ele>80.0</ele><time>2026-04-19T12:46:44.889Z</time></trkpt><trkpt lat="43.8857217" lon="12.6928783"><ele>80.0</ele><time>2026-04-19T12:46:46.887Z</time></trkpt><trkpt lat="43.88576" lon="12.6929667"><ele>80.0</ele><time>2026-04-19T12:46:48.888Z</time></trkpt><trkpt lat="43.8857983" lon="12.6930467"><ele>80.0</ele><time>2026-04-19T12:46:50.887Z</time></trkpt><trkpt lat="43.8858467" lon="12.6931083"><ele>80.0</ele><time>2026-04-19T12:46:52.886Z</time></trkpt><trkpt lat="43.8859117" lon="12.69317"><ele>80.0</ele><time>2026-04-19T12:46:55.89Z</time></trkpt><trkpt lat="43.8859883" lon="12.6932417"><ele>80.4</ele><time>2026-04-19T12:46:58.888Z</time></trkpt><trkpt lat="43.8860567" lon="12.6933117"><ele>80.8</ele><time>2026-04-19T12:47:00.89Z</time></trkpt><trkpt lat="43.88614" lon="12.6933933"><ele>81.19999999999999</ele><time>2026-04-19T12:47:02.889Z</time></trkpt><trkpt lat="43.8862333" lon="12.6934833"><ele>81.6</ele><time>2026-04-19T12:47:04.89Z</time></trkpt><trkpt lat="43.88633" lon="12.6935733"><ele>82.0</ele><time>2026-04-19T12:47:06.89Z</time></trkpt><trkpt lat="43.8864233" lon="12.6936567"><ele>81.19999999999999</ele><time>2026-04-19T12:47:08.89Z</time></trkpt><trkpt lat="43.8865183" lon="12.6937367"><ele>80.39999999999999</ele><time>2026-04-19T12:47:10.889Z</time></trkpt><trkpt lat="43.8866233" lon="12.6938"><ele>79.6</ele><time>2026-04-19T12:47:12.89Z</time></trkpt><trkpt lat="43.8867283" lon="12.6938467"><ele>78.8</ele><time>2026-04-19T12:47:14.889Z</time></trkpt><trkpt lat="43.8868267" lon="12.6938833"><ele>78.0</ele><time>2026-04-19T12:47:16.887Z</time></trkpt><trkpt lat="43.886925" lon="12.6939017"><ele>78.0</ele><time>2026-04-19T12:47:18.888Z</time></trkpt><trkpt lat="43.8870467" lon="12.6939233"><ele>78.0</ele><time>2026-04-19T12:47:20.887Z</time></trkpt><trkpt lat="43.8871117" lon="12.6939383"><ele>78.0</ele><time>2026-04-19T12:47:21.885Z</time></trkpt><trkpt lat="43.88718" lon="12.6939517"><ele>78.0</ele><time>2026-04-19T12:47:22.887Z</time></trkpt><trkpt lat="43.8872483" lon="12.6939633"><ele>78.0</ele><time>2026-04-19T12:47:23.889Z</time></trkpt><trkpt lat="43.8873133" lon="12.693975"><ele>78.0</ele><time>2026-04-19T12:47:24.886Z</time></trkpt><trkpt lat="43.8874233" lon="12.693995"><ele>78.0</ele><time>2026-04-19T12:47:26.886Z</time></trkpt><trkpt lat="43.8875083" lon="12.6940067"><ele>78.0</ele><time>2026-04-19T12:47:28.889Z</time></trkpt><trkpt lat="43.8875967" lon="12.69402"><ele>78.0</ele><time>2026-04-19T12:47:30.892Z</time></trkpt><trkpt lat="43.8876833" lon="12.6940233"><ele>78.0</ele><time>2026-04-19T12:47:32.889Z</time></trkpt><trkpt lat="43.8877783" lon="12.6940233"><ele>78.0</ele><time>2026-04-19T12:47:34.89Z</time></trkpt><trkpt lat="43.8878833" lon="12.6940167"><ele>78.0</ele><time>2026-04-19T12:47:36.889Z</time></trkpt><trkpt lat="43.8879933" lon="12.6940117"><ele>78.0</ele><time>2026-04-19T12:47:38.888Z</time></trkpt><trkpt lat="43.8881033" lon="12.694005"><ele>78.0</ele><time>2026-04-19T12:47:40.888Z</time></trkpt><trkpt lat="43.8881967" lon="12.6940067"><ele>78.0</ele><time>2026-04-19T12:47:42.89Z</time></trkpt><trkpt lat="43.8882817" lon="12.6940183"><ele>78.0</ele><time>2026-04-19T12:47:44.889Z</time></trkpt><trkpt lat="43.8883767" lon="12.6940333"><ele>78.0</ele><time>2026-04-19T12:47:46.888Z</time></trkpt><trkpt lat="43.8884867" lon="12.69404"><ele>78.0</ele><time>2026-04-19T12:47:48.888Z</time></trkpt><trkpt lat="43.8886067" lon="12.6940317"><ele>78.0</ele><time>2026-04-19T12:47:50.889Z</time></trkpt><trkpt lat="43.8886783" lon="12.6940283"><ele>78.0</ele><time>2026-04-19T12:47:51.887Z</time></trkpt><trkpt lat="43.88876" lon="12.69402"><ele>78.0</ele><time>2026-04-19T12:47:52.887Z</time></trkpt><trkpt lat="43.8888433" lon="12.6940083"><ele>78.0</ele><time>2026-04-19T12:47:53.89Z</time></trkpt><trkpt lat="43.8889217" lon="12.694"><ele>78.0</ele><time>2026-04-19T12:47:54.89Z</time></trkpt><trkpt lat="43.8889967" lon="12.6939933"><ele>78.0</ele><time>2026-04-19T12:47:55.891Z</time></trkpt><trkpt lat="43.88907" lon="12.6939933"><ele>78.0</ele><time>2026-04-19T12:47:56.889Z</time></trkpt><trkpt lat="43.889145" lon="12.6939967"><ele>78.0</ele><time>2026-04-19T12:47:57.889Z</time></trkpt><trkpt lat="43.8892183" lon="12.6939967"><ele>78.0</ele><time>2026-04-19T12:47:58.889Z</time></trkpt><trkpt lat="43.8892917" lon="12.693985"><ele>78.0</ele><time>2026-04-19T12:47:59.889Z</time></trkpt><trkpt lat="43.88936" lon="12.6939683"><ele>78.33333333333333</ele><time>2026-04-19T12:48:00.89Z</time></trkpt><trkpt lat="43.889425" lon="12.6939433"><ele>78.66666666666667</ele><time>2026-04-19T12:48:01.89Z</time></trkpt><trkpt lat="43.8894933" lon="12.6939083"><ele>79.0</ele><time>2026-04-19T12:48:02.89Z</time></trkpt><trkpt lat="43.8895633" lon="12.6938683"><ele>79.33333333333334</ele><time>2026-04-19T12:48:03.888Z</time></trkpt><trkpt lat="43.8896267" lon="12.6938267"><ele>79.66666666666667</ele><time>2026-04-19T12:48:04.889Z</time></trkpt><trkpt lat="43.8897383" lon="12.69375"><ele>80.0</ele><time>2026-04-19T12:48:06.889Z</time></trkpt><trkpt lat="43.8898367" lon="12.69368"><ele>80.0</ele><time>2026-04-19T12:48:08.888Z</time></trkpt><trkpt lat="43.8899433" lon="12.6936367"><ele>80.0</ele><time>2026-04-19T12:48:10.888Z</time></trkpt><trkpt lat="43.8900133" lon="12.69362"><ele>80.0</ele><time>2026-04-19T12:48:11.889Z</time></trkpt><trkpt lat="43.8900833" lon="12.6936083"><ele>80.0</ele><time>2026-04-19T12:48:12.888Z</time></trkpt><trkpt lat="43.890155" lon="12.69359"><ele>80.0</ele><time>2026-04-19T12:48:13.888Z</time></trkpt><trkpt lat="43.890235" lon="12.6935617"><ele>80.0</ele><time>2026-04-19T12:48:14.888Z</time></trkpt><trkpt lat="43.8903167" lon="12.6935267"><ele>80.33333333333334</ele><time>2026-04-19T12:48:15.889Z</time></trkpt><trkpt lat="43.8904" lon="12.693485"><ele>80.66666666666667</ele><time>2026-04-19T12:48:16.885Z</time></trkpt><trkpt lat="43.8904767" lon="12.6934383"><ele>81.0</ele><time>2026-04-19T12:48:17.887Z</time></trkpt><trkpt lat="43.8905467" lon="12.693385"><ele>81.33333333333333</ele><time>2026-04-19T12:48:18.886Z</time></trkpt><trkpt lat="43.89062" lon="12.6933317"><ele>81.66666666666666</ele><time>2026-04-19T12:48:19.887Z</time></trkpt><trkpt lat="43.89069" lon="12.6932767"><ele>82.0</ele><time>2026-04-19T12:48:20.887Z</time></trkpt><trkpt lat="43.8907567" lon="12.6932283"><ele>82.0</ele><time>2026-04-19T12:48:21.888Z</time></trkpt><trkpt lat="43.8908233" lon="12.6931833"><ele>82.0</ele><time>2026-04-19T12:48:22.887Z</time></trkpt><trkpt lat="43.89089" lon="12.69314"><ele>82.0</ele><time>2026-04-19T12:48:23.888Z</time></trkpt><trkpt lat="43.8909583" lon="12.6931117"><ele>82.0</ele><time>2026-04-19T12:48:24.889Z</time></trkpt><trkpt lat="43.8910217" lon="12.6930967"><ele>82.0</ele><time>2026-04-19T12:48:25.888Z</time></trkpt><trkpt lat="43.891145" lon="12.6931167"><ele>82.0</ele><time>2026-04-19T12:48:27.889Z</time></trkpt><trkpt lat="43.8912067" lon="12.693135"><ele>82.83333333333333</ele><time>2026-04-19T12:48:28.889Z</time></trkpt><trkpt lat="43.89132" lon="12.69314"><ele>83.66666666666666</ele><time>2026-04-19T12:48:30.889Z</time></trkpt><trkpt lat="43.89141" lon="12.6930617"><ele>84.5</ele><time>2026-04-19T12:48:32.888Z</time></trkpt><trkpt lat="43.8914567" lon="12.6929917"><ele>85.33333333333333</ele><time>2026-04-19T12:48:33.888Z</time></trkpt><trkpt lat="43.891505" lon="12.69291"><ele>86.16666666666667</ele><time>2026-04-19T12:48:34.888Z</time></trkpt><trkpt lat="43.8915483" lon="12.6928383"><ele>87.0</ele><time>2026-04-19T12:48:35.889Z</time></trkpt><trkpt lat="43.8916233" lon="12.69274"><ele>87.0</ele><time>2026-04-19T12:48:37.889Z</time></trkpt><trkpt lat="43.8917167" lon="12.69261"><ele>87.0</ele><time>2026-04-19T12:48:39.889Z</time></trkpt><trkpt lat="43.8917783" lon="12.6925183"><ele>87.0</ele><time>2026-04-19T12:48:40.888Z</time></trkpt><trkpt lat="43.8918417" lon="12.692425"><ele>87.0</ele><time>2026-04-19T12:48:41.888Z</time></trkpt><trkpt lat="43.8919033" lon="12.6923383"><ele>87.0</ele><time>2026-04-19T12:48:42.888Z</time></trkpt><trkpt lat="43.8919667" lon="12.6922567"><ele>87.16666666666667</ele><time>2026-04-19T12:48:43.889Z</time></trkpt><trkpt lat="43.892035" lon="12.6921783"><ele>87.33333333333333</ele><time>2026-04-19T12:48:44.889Z</time></trkpt><trkpt lat="43.892105" lon="12.69211"><ele>87.5</ele><time>2026-04-19T12:48:45.888Z</time></trkpt><trkpt lat="43.8921767" lon="12.6920383"><ele>87.66666666666666</ele><time>2026-04-19T12:48:46.886Z</time></trkpt><trkpt lat="43.8922533" lon="12.691965"><ele>87.83333333333333</ele><time>2026-04-19T12:48:47.886Z</time></trkpt><trkpt lat="43.8923333" lon="12.6918983"><ele>88.0</ele><time>2026-04-19T12:48:48.886Z</time></trkpt><trkpt lat="43.8924167" lon="12.6918333"><ele>88.0</ele><time>2026-04-19T12:48:49.888Z</time></trkpt><trkpt lat="43.8924983" lon="12.6917733"><ele>88.0</ele><time>2026-04-19T12:48:50.886Z</time></trkpt><trkpt lat="43.8925783" lon="12.691715"><ele>88.0</ele><time>2026-04-19T12:48:51.887Z</time></trkpt><trkpt lat="43.8926633" lon="12.691665"><ele>88.0</ele><time>2026-04-19T12:48:52.888Z</time></trkpt><trkpt lat="43.8927483" lon="12.69162"><ele>88.0</ele><time>2026-04-19T12:48:53.888Z</time></trkpt><trkpt lat="43.8928283" lon="12.691585"><ele>88.5</ele><time>2026-04-19T12:48:54.888Z</time></trkpt><trkpt lat="43.8929067" lon="12.6915583"><ele>89.0</ele><time>2026-04-19T12:48:55.889Z</time></trkpt><trkpt lat="43.8929733" lon="12.6915333"><ele>89.5</ele><time>2026-04-19T12:48:56.888Z</time></trkpt><trkpt lat="43.893055" lon="12.6914817"><ele>90.0</ele><time>2026-04-19T12:48:58.889Z</time></trkpt><trkpt lat="43.89308" lon="12.6913817"><ele>90.5</ele><time>2026-04-19T12:49:00.888Z</time></trkpt><trkpt lat="43.8930417" lon="12.6912167"><ele>91.0</ele><time>2026-04-19T12:49:02.886Z</time></trkpt><trkpt lat="43.8930017" lon="12.6911133"><ele>91.4</ele><time>2026-04-19T12:49:03.886Z</time></trkpt><trkpt lat="43.89296" lon="12.6910133"><ele>91.8</ele><time>2026-04-19T12:49:04.886Z</time></trkpt><trkpt lat="43.8929133" lon="12.6909083"><ele>92.2</ele><time>2026-04-19T12:49:05.886Z</time></trkpt><trkpt lat="43.8928683" lon="12.6907967"><ele>92.60000000000001</ele><time>2026-04-19T12:49:06.887Z</time></trkpt><trkpt lat="43.8928183" lon="12.69068"><ele>93.0</ele><time>2026-04-19T12:49:07.886Z</time></trkpt><trkpt lat="43.8927617" lon="12.690565"><ele>93.0</ele><time>2026-04-19T12:49:08.886Z</time></trkpt><trkpt lat="43.8927017" lon="12.6904433"><ele>93.0</ele><time>2026-04-19T12:49:09.888Z</time></trkpt><trkpt lat="43.8926483" lon="12.6903283"><ele>93.0</ele><time>2026-04-19T12:49:10.888Z</time></trkpt><trkpt lat="43.8926083" lon="12.6902133"><ele>93.0</ele><time>2026-04-19T12:49:11.89Z</time></trkpt><trkpt lat="43.8925733" lon="12.6900917"><ele>93.0</ele><time>2026-04-19T12:49:12.888Z</time></trkpt><trkpt lat="43.8925333" lon="12.68996"><ele>94.60000000000001</ele><time>2026-04-19T12:49:13.89Z</time></trkpt><trkpt lat="43.8924933" lon="12.68982"><ele>96.2</ele><time>2026-04-19T12:49:14.888Z</time></trkpt><trkpt lat="43.8924533" lon="12.6896833"><ele>97.8</ele><time>2026-04-19T12:49:15.887Z</time></trkpt><trkpt lat="43.8924183" lon="12.6895483"><ele>99.4</ele><time>2026-04-19T12:49:16.887Z</time></trkpt><trkpt lat="43.8923867" lon="12.6894183"><ele>101.0</ele><time>2026-04-19T12:49:17.886Z</time></trkpt><trkpt lat="43.8923583" lon="12.6892933"><ele>102.66666666666666</ele><time>2026-04-19T12:49:18.886Z</time></trkpt><trkpt lat="43.8923367" lon="12.6891667"><ele>104.33333333333333</ele><time>2026-04-19T12:49:19.886Z</time></trkpt><trkpt lat="43.8923167" lon="12.6890383"><ele>106.0</ele><time>2026-04-19T12:49:20.886Z</time></trkpt><trkpt lat="43.8923" lon="12.6889167"><ele>107.66666666666666</ele><time>2026-04-19T12:49:21.887Z</time></trkpt><trkpt lat="43.8922833" lon="12.6888033"><ele>109.33333333333333</ele><time>2026-04-19T12:49:22.891Z</time></trkpt><trkpt lat="43.89226" lon="12.688695"><ele>111.0</ele><time>2026-04-19T12:49:23.887Z</time></trkpt><trkpt lat="43.8922333" lon="12.6885883"><ele>111.83333333333333</ele><time>2026-04-19T12:49:24.888Z</time></trkpt><trkpt lat="43.8922033" lon="12.6884783"><ele>112.66666666666666</ele><time>2026-04-19T12:49:25.888Z</time></trkpt><trkpt lat="43.8921717" lon="12.6883667"><ele>113.5</ele><time>2026-04-19T12:49:26.889Z</time></trkpt><trkpt lat="43.8921333" lon="12.6882517"><ele>114.33333333333333</ele><time>2026-04-19T12:49:27.888Z</time></trkpt><trkpt lat="43.8921067" lon="12.6881483"><ele>115.16666666666666</ele><time>2026-04-19T12:49:28.888Z</time></trkpt><trkpt lat="43.8920917" lon="12.6880483"><ele>116.0</ele><time>2026-04-19T12:49:29.888Z</time></trkpt><trkpt lat="43.89209" lon="12.6879483"><ele>115.99999999999999</ele><time>2026-04-19T12:49:30.889Z</time></trkpt><trkpt lat="43.8921" lon="12.6878617"><ele>116.0</ele><time>2026-04-19T12:49:31.889Z</time></trkpt><trkpt lat="43.8921017" lon="12.6877033"><ele>116.0</ele><time>2026-04-19T12:49:33.888Z</time></trkpt><trkpt lat="43.8920867" lon="12.6876167"><ele>116.0</ele><time>2026-04-19T12:49:34.889Z</time></trkpt><trkpt lat="43.8920633" lon="12.6875233"><ele>115.99999999999999</ele><time>2026-04-19T12:49:35.887Z</time></trkpt><trkpt lat="43.8920383" lon="12.6874183"><ele>116.0</ele><time>2026-04-19T12:49:36.888Z</time></trkpt><trkpt lat="43.8920083" lon="12.6873083"><ele>116.33333333333333</ele><time>2026-04-19T12:49:37.891Z</time></trkpt><trkpt lat="43.8919783" lon="12.6872033"><ele>116.66666666666666</ele><time>2026-04-19T12:49:38.889Z</time></trkpt><trkpt lat="43.891955" lon="12.6871033"><ele>117.0</ele><time>2026-04-19T12:49:39.889Z</time></trkpt><trkpt lat="43.8919367" lon="12.6870167"><ele>117.33333333333334</ele><time>2026-04-19T12:49:40.888Z</time></trkpt><trkpt lat="43.89192" lon="12.686895"><ele>117.66666666666667</ele><time>2026-04-19T12:49:42.888Z</time></trkpt><trkpt lat="43.8919617" lon="12.6867833"><ele>118.0</ele><time>2026-04-19T12:49:45.889Z</time></trkpt><trkpt lat="43.8920433" lon="12.6867083"><ele>119.2</ele><time>2026-04-19T12:49:47.889Z</time></trkpt><trkpt lat="43.89215" lon="12.68663"><ele>120.4</ele><time>2026-04-19T12:49:49.889Z</time></trkpt><trkpt lat="43.892255" lon="12.686565"><ele>121.60000000000001</ele><time>2026-04-19T12:49:51.889Z</time></trkpt><trkpt lat="43.8923633" lon="12.6865017"><ele>122.80000000000001</ele><time>2026-04-19T12:49:53.888Z</time></trkpt><trkpt lat="43.8924233" lon="12.6864633"><ele>124.0</ele><time>2026-04-19T12:49:54.889Z</time></trkpt><trkpt lat="43.8924817" lon="12.6864267"><ele>124.00000000000001</ele><time>2026-04-19T12:49:55.889Z</time></trkpt><trkpt lat="43.89257" lon="12.6863367"><ele>124.0</ele><time>2026-04-19T12:49:57.889Z</time></trkpt><trkpt lat="43.8925933" lon="12.6862467"><ele>124.0</ele><time>2026-04-19T12:49:59.889Z</time></trkpt><trkpt lat="43.8925633" lon="12.68611"><ele>124.0</ele><time>2026-04-19T12:50:01.889Z</time></trkpt><trkpt lat="43.892535" lon="12.6860117"><ele>124.00000000000001</ele><time>2026-04-19T12:50:02.888Z</time></trkpt><trkpt lat="43.8925017" lon="12.6859"><ele>124.0</ele><time>2026-04-19T12:50:03.89Z</time></trkpt><trkpt lat="43.892455" lon="12.6857733"><ele>125.0</ele><time>2026-04-19T12:50:04.888Z</time></trkpt><trkpt lat="43.8924117" lon="12.6856417"><ele>126.0</ele><time>2026-04-19T12:50:05.889Z</time></trkpt><trkpt lat="43.8923767" lon="12.685505"><ele>127.0</ele><time>2026-04-19T12:50:06.889Z</time></trkpt><trkpt lat="43.8923483" lon="12.6853733"><ele>128.0</ele><time>2026-04-19T12:50:07.888Z</time></trkpt><trkpt lat="43.8923117" lon="12.68524"><ele>129.0</ele><time>2026-04-19T12:50:08.889Z</time></trkpt><trkpt lat="43.8922717" lon="12.6851067"><ele>130.4</ele><time>2026-04-19T12:50:09.888Z</time></trkpt><trkpt lat="43.8922283" lon="12.6849717"><ele>131.8</ele><time>2026-04-19T12:50:10.888Z</time></trkpt><trkpt lat="43.8921767" lon="12.6848367"><ele>133.2</ele><time>2026-04-19T12:50:11.888Z</time></trkpt><trkpt lat="43.892125" lon="12.6847"><ele>134.6</ele><time>2026-04-19T12:50:12.889Z</time></trkpt><trkpt lat="43.89207" lon="12.6845717"><ele>136.0</ele><time>2026-04-19T12:50:13.888Z</time></trkpt><trkpt lat="43.89201" lon="12.6844433"><ele>138.25</ele><time>2026-04-19T12:50:14.889Z</time></trkpt><trkpt lat="43.8919417" lon="12.684315"><ele>140.5</ele><time>2026-04-19T12:50:15.888Z</time></trkpt><trkpt lat="43.89187" lon="12.6841817"><ele>142.75</ele><time>2026-04-19T12:50:16.889Z</time></trkpt><trkpt lat="43.89179" lon="12.6840483"><ele>145.0</ele><time>2026-04-19T12:50:17.888Z</time></trkpt><trkpt lat="43.8917117" lon="12.6839117"><ele>146.25</ele><time>2026-04-19T12:50:18.889Z</time></trkpt><trkpt lat="43.8916367" lon="12.6837733"><ele>147.5</ele><time>2026-04-19T12:50:19.891Z</time></trkpt><trkpt lat="43.8915617" lon="12.6836317"><ele>148.75</ele><time>2026-04-19T12:50:20.888Z</time></trkpt><trkpt lat="43.891485" lon="12.68349"><ele>150.0</ele><time>2026-04-19T12:50:21.888Z</time></trkpt><trkpt lat="43.8914117" lon="12.68335"><ele>151.0</ele><time>2026-04-19T12:50:22.889Z</time></trkpt><trkpt lat="43.8913367" lon="12.68321"><ele>152.0</ele><time>2026-04-19T12:50:23.888Z</time></trkpt><trkpt lat="43.8912667" lon="12.6830767"><ele>153.0</ele><time>2026-04-19T12:50:24.888Z</time></trkpt><trkpt lat="43.8911967" lon="12.68295"><ele>154.0</ele><time>2026-04-19T12:50:25.889Z</time></trkpt><trkpt lat="43.8911367" lon="12.6828433"><ele>154.0</ele><time>2026-04-19T12:50:26.889Z</time></trkpt><trkpt lat="43.8910917" lon="12.6827667"><ele>154.0</ele><time>2026-04-19T12:50:27.888Z</time></trkpt><trkpt lat="43.8910583" lon="12.682675"><ele>154.0</ele><time>2026-04-19T12:50:29.888Z</time></trkpt><trkpt lat="43.89112" lon="12.6825967"><ele>154.0</ele><time>2026-04-19T12:50:32.888Z</time></trkpt><trkpt lat="43.8912033" lon="12.6825117"><ele>154.0</ele><time>2026-04-19T12:50:34.888Z</time></trkpt><trkpt lat="43.8912567" lon="12.6824633"><ele>154.0</ele><time>2026-04-19T12:50:35.889Z</time></trkpt><trkpt lat="43.89131" lon="12.6824067"><ele>155.2</ele><time>2026-04-19T12:50:36.888Z</time></trkpt><trkpt lat="43.891355" lon="12.6823433"><ele>156.4</ele><time>2026-04-19T12:50:37.888Z</time></trkpt><trkpt lat="43.891435" lon="12.6822167"><ele>157.6</ele><time>2026-04-19T12:50:39.889Z</time></trkpt><trkpt lat="43.8915017" lon="12.6820917"><ele>158.8</ele><time>2026-04-19T12:50:41.89Z</time></trkpt><trkpt lat="43.891565" lon="12.6819233"><ele>160.0</ele><time>2026-04-19T12:50:43.889Z</time></trkpt><trkpt lat="43.8916033" lon="12.6818067"><ele>161.0</ele><time>2026-04-19T12:50:44.891Z</time></trkpt><trkpt lat="43.8916433" lon="12.6816683"><ele>162.0</ele><time>2026-04-19T12:50:45.891Z</time></trkpt><trkpt lat="43.8916817" lon="12.6815117"><ele>163.0</ele><time>2026-04-19T12:50:46.888Z</time></trkpt><trkpt lat="43.89171" lon="12.6813433"><ele>164.0</ele><time>2026-04-19T12:50:47.889Z</time></trkpt><trkpt lat="43.8917267" lon="12.68116"><ele>164.5</ele><time>2026-04-19T12:50:48.89Z</time></trkpt><trkpt lat="43.8917333" lon="12.6809617"><ele>165.0</ele><time>2026-04-19T12:50:49.888Z</time></trkpt><trkpt lat="43.891725" lon="12.6807617"><ele>165.5</ele><time>2026-04-19T12:50:50.889Z</time></trkpt><trkpt lat="43.8917117" lon="12.6805617"><ele>166.0</ele><time>2026-04-19T12:50:51.889Z</time></trkpt><trkpt lat="43.8916967" lon="12.6803617"><ele>167.5</ele><time>2026-04-19T12:50:52.888Z</time></trkpt><trkpt lat="43.8916833" lon="12.680165"><ele>169.0</ele><time>2026-04-19T12:50:53.893Z</time></trkpt><trkpt lat="43.8916783" lon="12.6799667"><ele>170.5</ele><time>2026-04-19T12:50:54.889Z</time></trkpt><trkpt lat="43.89167" lon="12.679775"><ele>172.0</ele><time>2026-04-19T12:50:55.89Z</time></trkpt><trkpt lat="43.891655" lon="12.6795883"><ele>173.5</ele><time>2026-04-19T12:50:56.889Z</time></trkpt><trkpt lat="43.891635" lon="12.67941"><ele>175.0</ele><time>2026-04-19T12:50:57.889Z</time></trkpt><trkpt lat="43.8916083" lon="12.6792483"><ele>176.5</ele><time>2026-04-19T12:50:58.887Z</time></trkpt><trkpt lat="43.8915767" lon="12.6791"><ele>178.0</ele><time>2026-04-19T12:50:59.89Z</time></trkpt><trkpt lat="43.89154" lon="12.678965"><ele>178.0</ele><time>2026-04-19T12:51:00.89Z</time></trkpt><trkpt lat="43.8914967" lon="12.6788333"><ele>178.0</ele><time>2026-04-19T12:51:01.889Z</time></trkpt><trkpt lat="43.89145" lon="12.678705"><ele>178.0</ele><time>2026-04-19T12:51:02.889Z</time></trkpt><trkpt lat="43.8914" lon="12.67858"><ele>178.0</ele><time>2026-04-19T12:51:03.888Z</time></trkpt><trkpt lat="43.89135" lon="12.6784567"><ele>178.0</ele><time>2026-04-19T12:51:04.889Z</time></trkpt><trkpt lat="43.8913017" lon="12.6783283"><ele>179.16666666666669</ele><time>2026-04-19T12:51:05.888Z</time></trkpt><trkpt lat="43.891265" lon="12.678205"><ele>180.33333333333334</ele><time>2026-04-19T12:51:06.888Z</time></trkpt><trkpt lat="43.8912417" lon="12.678095"><ele>181.5</ele><time>2026-04-19T12:51:07.889Z</time></trkpt><trkpt lat="43.89122" lon="12.67799"><ele>182.66666666666666</ele><time>2026-04-19T12:51:08.888Z</time></trkpt><trkpt lat="43.8912067" lon="12.6778833"><ele>183.83333333333331</ele><time>2026-04-19T12:51:09.888Z</time></trkpt><trkpt lat="43.8912017" lon="12.6777767"><ele>185.0</ele><time>2026-04-19T12:51:10.889Z</time></trkpt><trkpt lat="43.891205" lon="12.6776767"><ele>185.6</ele><time>2026-04-19T12:51:11.889Z</time></trkpt><trkpt lat="43.89123" lon="12.6775533"><ele>186.2</ele><time>2026-04-19T12:51:13.888Z</time></trkpt><trkpt lat="43.8912017" lon="12.6774283"><ele>186.8</ele><time>2026-04-19T12:51:59.889Z</time></trkpt><trkpt lat="43.89115" lon="12.6773467"><ele>187.4</ele><time>2026-04-19T12:52:00.889Z</time></trkpt><trkpt lat="43.891075" lon="12.6772583"><ele>188.0</ele><time>2026-04-19T12:52:01.888Z</time></trkpt><trkpt lat="43.890995" lon="12.6771483"><ele>187.5</ele><time>2026-04-19T12:52:02.89Z</time></trkpt><trkpt lat="43.890905" lon="12.67702"><ele>187.0</ele><time>2026-04-19T12:52:03.89Z</time></trkpt><trkpt lat="43.890815" lon="12.6768833"><ele>186.5</ele><time>2026-04-19T12:52:04.889Z</time></trkpt><trkpt lat="43.8907167" lon="12.676735"><ele>186.0</ele><time>2026-04-19T12:52:05.888Z</time></trkpt><trkpt lat="43.8906183" lon="12.676575"><ele>186.0</ele><time>2026-04-19T12:52:06.89Z</time></trkpt><trkpt lat="43.8905283" lon="12.6764167"><ele>186.0</ele><time>2026-04-19T12:52:07.889Z</time></trkpt><trkpt lat="43.8904467" lon="12.676265"><ele>186.0</ele><time>2026-04-19T12:52:08.888Z</time></trkpt><trkpt lat="43.890365" lon="12.67612"><ele>186.0</ele><time>2026-04-19T12:52:09.89Z</time></trkpt><trkpt lat="43.89029" lon="12.6759817"><ele>184.5</ele><time>2026-04-19T12:52:10.889Z</time></trkpt><trkpt lat="43.89022" lon="12.6758517"><ele>183.0</ele><time>2026-04-19T12:52:11.89Z</time></trkpt><trkpt lat="43.8901467" lon="12.6757283"><ele>181.5</ele><time>2026-04-19T12:52:12.89Z</time></trkpt><trkpt lat="43.8900767" lon="12.6756083"><ele>180.0</ele><time>2026-04-19T12:52:13.89Z</time></trkpt><trkpt lat="43.8900083" lon="12.6754883"><ele>180.0</ele><time>2026-04-19T12:52:14.888Z</time></trkpt><trkpt lat="43.8899383" lon="12.675365"><ele>180.0</ele><time>2026-04-19T12:52:15.89Z</time></trkpt><trkpt lat="43.8898717" lon="12.6752433"><ele>180.0</ele><time>2026-04-19T12:52:16.889Z</time></trkpt><trkpt lat="43.8898083" lon="12.67513"><ele>180.0</ele><time>2026-04-19T12:52:17.89Z</time></trkpt><trkpt lat="43.8897483" lon="12.6750233"><ele>180.0</ele><time>2026-04-19T12:52:18.888Z</time></trkpt><trkpt lat="43.889695" lon="12.67493"><ele>179.66666666666666</ele><time>2026-04-19T12:52:19.887Z</time></trkpt><trkpt lat="43.8896583" lon="12.6748567"><ele>179.33333333333334</ele><time>2026-04-19T12:52:20.886Z</time></trkpt><trkpt lat="43.889615" lon="12.67477"><ele>179.0</ele><time>2026-04-19T12:52:22.887Z</time></trkpt><trkpt lat="43.88952" lon="12.6746883"><ele>178.66666666666669</ele><time>2026-04-19T12:52:25.887Z</time></trkpt><trkpt lat="43.8894617" lon="12.6746383"><ele>178.33333333333334</ele><time>2026-04-19T12:52:26.886Z</time></trkpt><trkpt lat="43.8893933" lon="12.6745767"><ele>178.0</ele><time>2026-04-19T12:52:27.887Z</time></trkpt><trkpt lat="43.8893167" lon="12.6745133"><ele>177.8</ele><time>2026-04-19T12:52:28.89Z</time></trkpt><trkpt lat="43.8892317" lon="12.6744517"><ele>177.60000000000002</ele><time>2026-04-19T12:52:29.89Z</time></trkpt><trkpt lat="43.8891433" lon="12.6743883"><ele>177.39999999999998</ele><time>2026-04-19T12:52:30.888Z</time></trkpt><trkpt lat="43.8890467" lon="12.67433"><ele>177.2</ele><time>2026-04-19T12:52:31.889Z</time></trkpt><trkpt lat="43.888955" lon="12.6742783"><ele>177.0</ele><time>2026-04-19T12:52:32.889Z</time></trkpt><trkpt lat="43.8888683" lon="12.6742333"><ele>176.83333333333334</ele><time>2026-04-19T12:52:33.888Z</time></trkpt><trkpt lat="43.888785" lon="12.6741967"><ele>176.66666666666666</ele><time>2026-04-19T12:52:34.889Z</time></trkpt><trkpt lat="43.888705" lon="12.674165"><ele>176.5</ele><time>2026-04-19T12:52:35.889Z</time></trkpt><trkpt lat="43.8886333" lon="12.6741367"><ele>176.33333333333331</ele><time>2026-04-19T12:52:36.888Z</time></trkpt><trkpt lat="43.88857" lon="12.6741133"><ele>176.16666666666666</ele><time>2026-04-19T12:52:37.887Z</time></trkpt><trkpt lat="43.888465" lon="12.6740717"><ele>176.0</ele><time>2026-04-19T12:52:39.894Z</time></trkpt><trkpt lat="43.8884167" lon="12.67401"><ele>176.0</ele><time>2026-04-19T12:52:43.889Z</time></trkpt><trkpt lat="43.88845" lon="12.6739117"><ele>176.0</ele><time>2026-04-19T12:52:45.89Z</time></trkpt><trkpt lat="43.888505" lon="12.6737933"><ele>176.0</ele><time>2026-04-19T12:52:47.887Z</time></trkpt><trkpt lat="43.8885767" lon="12.6736433"><ele>176.0</ele><time>2026-04-19T12:52:49.887Z</time></trkpt><trkpt lat="43.8886183" lon="12.6735583"><ele>176.0</ele><time>2026-04-19T12:52:50.886Z</time></trkpt><trkpt lat="43.8886583" lon="12.673475"><ele>175.42857142857144</ele><time>2026-04-19T12:52:51.888Z</time></trkpt><trkpt lat="43.8886933" lon="12.6733883"><ele>174.85714285714286</ele><time>2026-04-19T12:52:52.887Z</time></trkpt><trkpt lat="43.8887267" lon="12.6733083"><ele>174.28571428571428</ele><time>2026-04-19T12:52:53.888Z</time></trkpt><trkpt lat="43.8887567" lon="12.67323"><ele>173.71428571428572</ele><time>2026-04-19T12:52:54.889Z</time></trkpt><trkpt lat="43.888785" lon="12.6731483"><ele>173.14285714285714</ele><time>2026-04-19T12:52:55.889Z</time></trkpt><trkpt lat="43.888815" lon="12.6730683"><ele>172.57142857142858</ele><time>2026-04-19T12:52:56.887Z</time></trkpt><trkpt lat="43.8888517" lon="12.672995"><ele>172.0</ele><time>2026-04-19T12:52:57.887Z</time></trkpt><trkpt lat="43.888885" lon="12.6729167"><ele>172.0</ele><time>2026-04-19T12:52:58.889Z</time></trkpt><trkpt lat="43.8889167" lon="12.67284"><ele>172.0</ele><time>2026-04-19T12:52:59.889Z</time></trkpt><trkpt lat="43.8889817" lon="12.67269"><ele>172.0</ele><time>2026-04-19T12:53:01.89Z</time></trkpt><trkpt lat="43.889045" lon="12.6725467"><ele>172.0</ele><time>2026-04-19T12:53:03.89Z</time></trkpt><trkpt lat="43.8891083" lon="12.6724067"><ele>172.0</ele><time>2026-04-19T12:53:05.89Z</time></trkpt><trkpt lat="43.8891417" lon="12.6723317"><ele>171.42857142857144</ele><time>2026-04-19T12:53:06.889Z</time></trkpt><trkpt lat="43.889175" lon="12.6722567"><ele>170.85714285714286</ele><time>2026-04-19T12:53:07.89Z</time></trkpt><trkpt lat="43.88921" lon="12.672175"><ele>170.28571428571428</ele><time>2026-04-19T12:53:08.886Z</time></trkpt><trkpt lat="43.8892467" lon="12.67209"><ele>169.71428571428572</ele><time>2026-04-19T12:53:09.89Z</time></trkpt><trkpt lat="43.8892833" lon="12.672005"><ele>169.14285714285714</ele><time>2026-04-19T12:53:10.889Z</time></trkpt><trkpt lat="43.8893217" lon="12.67193"><ele>168.57142857142858</ele><time>2026-04-19T12:53:11.889Z</time></trkpt><trkpt lat="43.88936" lon="12.6718517"><ele>168.0</ele><time>2026-04-19T12:53:12.886Z</time></trkpt><trkpt lat="43.8893983" lon="12.6717717"><ele>166.33333333333334</ele><time>2026-04-19T12:53:13.892Z</time></trkpt><trkpt lat="43.88944" lon="12.6716983"><ele>164.66666666666666</ele><time>2026-04-19T12:53:14.889Z</time></trkpt><trkpt lat="43.8894817" lon="12.671625"><ele>163.0</ele><time>2026-04-19T12:53:15.89Z</time></trkpt><trkpt lat="43.8895267" lon="12.6715533"><ele>161.33333333333331</ele><time>2026-04-19T12:53:16.886Z</time></trkpt><trkpt lat="43.88957" lon="12.6714883"><ele>159.66666666666666</ele><time>2026-04-19T12:53:17.89Z</time></trkpt><trkpt lat="43.8896567" lon="12.67137"><ele>158.0</ele><time>2026-04-19T12:53:19.89Z</time></trkpt><trkpt lat="43.8897483" lon="12.6712483"><ele>158.0</ele><time>2026-04-19T12:53:21.889Z</time></trkpt><trkpt lat="43.889795" lon="12.6711833"><ele>158.0</ele><time>2026-04-19T12:53:22.886Z</time></trkpt><trkpt lat="43.8898833" lon="12.67107"><ele>158.0</ele><time>2026-04-19T12:53:24.89Z</time></trkpt><trkpt lat="43.88996" lon="12.67095"><ele>158.0</ele><time>2026-04-19T12:53:26.888Z</time></trkpt><trkpt lat="43.8900333" lon="12.6708267"><ele>158.0</ele><time>2026-04-19T12:53:28.888Z</time></trkpt><trkpt lat="43.8901083" lon="12.6707"><ele>155.4</ele><time>2026-04-19T12:53:30.888Z</time></trkpt><trkpt lat="43.89019" lon="12.6705783"><ele>152.8</ele><time>2026-04-19T12:53:32.889Z</time></trkpt><trkpt lat="43.8902717" lon="12.670485"><ele>150.2</ele><time>2026-04-19T12:53:34.888Z</time></trkpt><trkpt lat="43.89035" lon="12.6704067"><ele>147.6</ele><time>2026-04-19T12:53:36.889Z</time></trkpt><trkpt lat="43.8904333" lon="12.6703167"><ele>145.0</ele><time>2026-04-19T12:53:38.886Z</time></trkpt><trkpt lat="43.890525" lon="12.6702233"><ele>144.25</ele><time>2026-04-19T12:53:40.887Z</time></trkpt><trkpt lat="43.8906233" lon="12.6701267"><ele>143.5</ele><time>2026-04-19T12:53:42.885Z</time></trkpt><trkpt lat="43.8907167" lon="12.6700283"><ele>142.75</ele><time>2026-04-19T12:53:44.888Z</time></trkpt><trkpt lat="43.89081" lon="12.6699317"><ele>142.0</ele><time>2026-04-19T12:53:46.89Z</time></trkpt><trkpt lat="43.8909033" lon="12.6698367"><ele>139.5</ele><time>2026-04-19T12:53:48.886Z</time></trkpt><trkpt lat="43.890995" lon="12.6697483"><ele>137.0</ele><time>2026-04-19T12:53:50.886Z</time></trkpt><trkpt lat="43.891085" lon="12.6696667"><ele>134.5</ele><time>2026-04-19T12:53:52.886Z</time></trkpt><trkpt lat="43.8911817" lon="12.6695833"><ele>132.0</ele><time>2026-04-19T12:53:54.888Z</time></trkpt><trkpt lat="43.89128" lon="12.66949"><ele>131.6</ele><time>2026-04-19T12:53:56.885Z</time></trkpt><trkpt lat="43.8913817" lon="12.6693933"><ele>131.2</ele><time>2026-04-19T12:53:58.888Z</time></trkpt><trkpt lat="43.891435" lon="12.6693433"><ele>130.8</ele><time>2026-04-19T12:53:59.888Z</time></trkpt><trkpt lat="43.89154" lon="12.66925"><ele>130.4</ele><time>2026-04-19T12:54:01.886Z</time></trkpt><trkpt lat="43.8916467" lon="12.6691767"><ele>130.0</ele><time>2026-04-19T12:54:03.886Z</time></trkpt><trkpt lat="43.8917517" lon="12.6691117"><ele>128.57142857142858</ele><time>2026-04-19T12:54:05.885Z</time></trkpt><trkpt lat="43.891815" lon="12.6690833"><ele>127.14285714285714</ele><time>2026-04-19T12:54:06.885Z</time></trkpt><trkpt lat="43.8918767" lon="12.66906"><ele>125.71428571428572</ele><time>2026-04-19T12:54:07.886Z</time></trkpt><trkpt lat="43.891945" lon="12.66904"><ele>124.28571428571429</ele><time>2026-04-19T12:54:08.885Z</time></trkpt><trkpt lat="43.8920117" lon="12.6690267"><ele>122.85714285714286</ele><time>2026-04-19T12:54:09.885Z</time></trkpt><trkpt lat="43.89208" lon="12.6690217"><ele>121.42857142857143</ele><time>2026-04-19T12:54:10.889Z</time></trkpt><trkpt lat="43.892145" lon="12.66902"><ele>120.0</ele><time>2026-04-19T12:54:11.889Z</time></trkpt><trkpt lat="43.89221" lon="12.6690167"><ele>120.0</ele><time>2026-04-19T12:54:12.889Z</time></trkpt><trkpt lat="43.89228" lon="12.6690167"><ele>120.0</ele><time>2026-04-19T12:54:13.89Z</time></trkpt><trkpt lat="43.8923433" lon="12.66902"><ele>120.0</ele><time>2026-04-19T12:54:14.889Z</time></trkpt><trkpt lat="43.8924083" lon="12.669025"><ele>120.0</ele><time>2026-04-19T12:54:15.885Z</time></trkpt><trkpt lat="43.8924733" lon="12.6690333"><ele>120.0</ele><time>2026-04-19T12:54:16.887Z</time></trkpt><trkpt lat="43.8925383" lon="12.669045"><ele>120.0</ele><time>2026-04-19T12:54:17.887Z</time></trkpt><trkpt lat="43.892605" lon="12.6690567"><ele>120.0</ele><time>2026-04-19T12:54:18.887Z</time></trkpt><trkpt lat="43.8926717" lon="12.6690717"><ele>117.83333333333333</ele><time>2026-04-19T12:54:19.887Z</time></trkpt><trkpt lat="43.892745" lon="12.669085"><ele>115.66666666666666</ele><time>2026-04-19T12:54:20.886Z</time></trkpt><trkpt lat="43.8928183" lon="12.6690983"><ele>113.5</ele><time>2026-04-19T12:54:21.887Z</time></trkpt><trkpt lat="43.8928933" lon="12.6691117"><ele>111.33333333333333</ele><time>2026-04-19T12:54:22.888Z</time></trkpt><trkpt lat="43.89297" lon="12.6691317"><ele>109.16666666666666</ele><time>2026-04-19T12:54:23.889Z</time></trkpt><trkpt lat="43.8930483" lon="12.669145"><ele>107.0</ele><time>2026-04-19T12:54:24.889Z</time></trkpt><trkpt lat="43.8931283" lon="12.6691517"><ele>106.99999999999999</ele><time>2026-04-19T12:54:25.891Z</time></trkpt><trkpt lat="43.8932083" lon="12.6691567"><ele>107.0</ele><time>2026-04-19T12:54:26.889Z</time></trkpt><trkpt lat="43.893285" lon="12.669155"><ele>107.0</ele><time>2026-04-19T12:54:27.886Z</time></trkpt><trkpt lat="43.8933683" lon="12.66915"><ele>107.0</ele><time>2026-04-19T12:54:28.885Z</time></trkpt><trkpt lat="43.8934533" lon="12.6691383"><ele>106.99999999999999</ele><time>2026-04-19T12:54:29.886Z</time></trkpt><trkpt lat="43.8935367" lon="12.66912"><ele>107.0</ele><time>2026-04-19T12:54:30.886Z</time></trkpt><trkpt lat="43.89362" lon="12.6690983"><ele>105.16666666666666</ele><time>2026-04-19T12:54:31.886Z</time></trkpt><trkpt lat="43.8936883" lon="12.6690733"><ele>103.33333333333333</ele><time>2026-04-19T12:54:32.885Z</time></trkpt><trkpt lat="43.8937617" lon="12.6690383"><ele>101.5</ele><time>2026-04-19T12:54:33.885Z</time></trkpt><trkpt lat="43.89384" lon="12.6690067"><ele>99.66666666666666</ele><time>2026-04-19T12:54:34.885Z</time></trkpt><trkpt lat="43.893915" lon="12.6689867"><ele>97.83333333333333</ele><time>2026-04-19T12:54:35.886Z</time></trkpt><trkpt lat="43.8939967" lon="12.668965"><ele>96.0</ele><time>2026-04-19T12:54:36.885Z</time></trkpt><trkpt lat="43.8940767" lon="12.66894"><ele>96.0</ele><time>2026-04-19T12:54:37.886Z</time></trkpt><trkpt lat="43.8941567" lon="12.66891"><ele>96.0</ele><time>2026-04-19T12:54:38.886Z</time></trkpt><trkpt lat="43.894235" lon="12.66888"><ele>96.0</ele><time>2026-04-19T12:54:39.886Z</time></trkpt><trkpt lat="43.894315" lon="12.66885"><ele>96.0</ele><time>2026-04-19T12:54:40.887Z</time></trkpt><trkpt lat="43.8943867" lon="12.6688133"><ele>96.0</ele><time>2026-04-19T12:54:41.886Z</time></trkpt><trkpt lat="43.894455" lon="12.6687767"><ele>96.0</ele><time>2026-04-19T12:54:42.887Z</time></trkpt><trkpt lat="43.894525" lon="12.6687333"><ele>96.4</ele><time>2026-04-19T12:54:43.886Z</time></trkpt><trkpt lat="43.8945967" lon="12.6686767"><ele>96.8</ele><time>2026-04-19T12:54:44.889Z</time></trkpt><trkpt lat="43.8946783" lon="12.6685983"><ele>97.2</ele><time>2026-04-19T12:54:45.888Z</time></trkpt><trkpt lat="43.8947583" lon="12.6684967"><ele>97.60000000000001</ele><time>2026-04-19T12:54:46.889Z</time></trkpt><trkpt lat="43.8948367" lon="12.6683867"><ele>98.0</ele><time>2026-04-19T12:54:47.89Z</time></trkpt><trkpt lat="43.89491" lon="12.6682783"><ele>98.0</ele><time>2026-04-19T12:54:48.889Z</time></trkpt><trkpt lat="43.8949717" lon="12.6681633"><ele>98.0</ele><time>2026-04-19T12:54:49.889Z</time></trkpt><trkpt lat="43.8950167" lon="12.6680317"><ele>98.0</ele><time>2026-04-19T12:54:50.888Z</time></trkpt><trkpt lat="43.8950583" lon="12.667895"><ele>98.0</ele><time>2026-04-19T12:54:51.89Z</time></trkpt><trkpt lat="43.8950933" lon="12.6677683"><ele>98.0</ele><time>2026-04-19T12:54:52.888Z</time></trkpt><trkpt lat="43.8951433" lon="12.66767"><ele>102.0</ele><time>2026-04-19T12:54:53.889Z</time></trkpt><trkpt lat="43.8952" lon="12.6676017"><ele>106.0</ele><time>2026-04-19T12:54:54.885Z</time></trkpt><trkpt lat="43.8952717" lon="12.6675467"><ele>110.00000000000001</ele><time>2026-04-19T12:54:55.888Z</time></trkpt><trkpt lat="43.89536" lon="12.6674983"><ele>114.0</ele><time>2026-04-19T12:54:56.889Z</time></trkpt><trkpt lat="43.8954617" lon="12.6674533"><ele>118.0</ele><time>2026-04-19T12:54:57.888Z</time></trkpt><trkpt lat="43.8955667" lon="12.6674033"><ele>118.0</ele><time>2026-04-19T12:54:58.889Z</time></trkpt><trkpt lat="43.8956667" lon="12.6673333"><ele>118.00000000000001</ele><time>2026-04-19T12:54:59.888Z</time></trkpt><trkpt lat="43.895755" lon="12.6672467"><ele>118.00000000000001</ele><time>2026-04-19T12:55:00.888Z</time></trkpt><trkpt lat="43.895845" lon="12.667155"><ele>118.0</ele><time>2026-04-19T12:55:01.889Z</time></trkpt><trkpt lat="43.8959333" lon="12.6670717"><ele>118.0</ele><time>2026-04-19T12:55:02.888Z</time></trkpt><trkpt lat="43.8960283" lon="12.667"><ele>120.33333333333334</ele><time>2026-04-19T12:55:03.889Z</time></trkpt><trkpt lat="43.8961267" lon="12.6669433"><ele>122.66666666666667</ele><time>2026-04-19T12:55:04.889Z</time></trkpt><trkpt lat="43.8962217" lon="12.6669283"><ele>125.0</ele><time>2026-04-19T12:55:05.888Z</time></trkpt><trkpt lat="43.8963083" lon="12.6669467"><ele>127.33333333333334</ele><time>2026-04-19T12:55:06.889Z</time></trkpt><trkpt lat="43.8963817" lon="12.6669933"><ele>129.66666666666666</ele><time>2026-04-19T12:55:07.888Z</time></trkpt><trkpt lat="43.896435" lon="12.667055"><ele>132.0</ele><time>2026-04-19T12:55:08.889Z</time></trkpt><trkpt lat="43.89647" lon="12.6671433"><ele>132.0</ele><time>2026-04-19T12:55:09.889Z</time></trkpt><trkpt lat="43.8965067" lon="12.6672283"><ele>132.0</ele><time>2026-04-19T12:55:10.888Z</time></trkpt><trkpt lat="43.896555" lon="12.6673"><ele>132.0</ele><time>2026-04-19T12:55:11.888Z</time></trkpt><trkpt lat="43.8966167" lon="12.66736"><ele>132.0</ele><time>2026-04-19T12:55:12.889Z</time></trkpt><trkpt lat="43.8966967" lon="12.6674017"><ele>132.0</ele><time>2026-04-19T12:55:13.889Z</time></trkpt><trkpt lat="43.8967867" lon="12.6674317"><ele>132.0</ele><time>2026-04-19T12:55:14.888Z</time></trkpt><trkpt lat="43.89688" lon="12.6674567"><ele>134.16666666666666</ele><time>2026-04-19T12:55:15.889Z</time></trkpt><trkpt lat="43.8969667" lon="12.667475"><ele>136.33333333333334</ele><time>2026-04-19T12:55:16.888Z</time></trkpt><trkpt lat="43.8970467" lon="12.66748"><ele>138.5</ele><time>2026-04-19T12:55:17.889Z</time></trkpt><trkpt lat="43.8971317" lon="12.6674667"><ele>140.66666666666669</ele><time>2026-04-19T12:55:18.888Z</time></trkpt><trkpt lat="43.89722" lon="12.6674383"><ele>142.83333333333334</ele><time>2026-04-19T12:55:19.889Z</time></trkpt><trkpt lat="43.8973117" lon="12.6674033"><ele>145.0</ele><time>2026-04-19T12:55:20.889Z</time></trkpt><trkpt lat="43.897405" lon="12.6673633"><ele>145.0</ele><time>2026-04-19T12:55:21.887Z</time></trkpt><trkpt lat="43.8974933" lon="12.6673133"><ele>145.0</ele><time>2026-04-19T12:55:22.888Z</time></trkpt><trkpt lat="43.8975817" lon="12.6672667"><ele>145.0</ele><time>2026-04-19T12:55:23.888Z</time></trkpt><trkpt lat="43.8976583" lon="12.6672283"><ele>145.0</ele><time>2026-04-19T12:55:24.888Z</time></trkpt><trkpt lat="43.897755" lon="12.6671967"><ele>145.0</ele><time>2026-04-19T12:55:26.886Z</time></trkpt><trkpt lat="43.8978367" lon="12.667225"><ele>145.16666666666669</ele><time>2026-04-19T12:55:29.886Z</time></trkpt><trkpt lat="43.8979183" lon="12.6672583"><ele>145.33333333333334</ele><time>2026-04-19T12:55:31.889Z</time></trkpt><trkpt lat="43.8979983" lon="12.6673017"><ele>145.5</ele><time>2026-04-19T12:55:33.888Z</time></trkpt><trkpt lat="43.89806" lon="12.66733"><ele>145.66666666666666</ele><time>2026-04-19T12:56:04.889Z</time></trkpt><trkpt lat="43.8981467" lon="12.667255"><ele>145.83333333333331</ele><time>2026-04-19T12:56:06.888Z</time></trkpt><trkpt lat="43.8982083" lon="12.6671883"><ele>146.0</ele><time>2026-04-19T12:56:07.89Z</time></trkpt><trkpt lat="43.8982833" lon="12.667115"><ele>146.0</ele><time>2026-04-19T12:56:08.888Z</time></trkpt><trkpt lat="43.898365" lon="12.66704"><ele>146.0</ele><time>2026-04-19T12:56:09.888Z</time></trkpt><trkpt lat="43.89845" lon="12.6669667"><ele>146.0</ele><time>2026-04-19T12:56:10.888Z</time></trkpt><trkpt lat="43.898535" lon="12.666895"><ele>146.0</ele><time>2026-04-19T12:56:11.889Z</time></trkpt><trkpt lat="43.8986233" lon="12.6668083"><ele>146.0</ele><time>2026-04-19T12:56:12.889Z</time></trkpt><trkpt lat="43.8987217" lon="12.6667117"><ele>144.25</ele><time>2026-04-19T12:56:13.889Z</time></trkpt><trkpt lat="43.8988317" lon="12.66661"><ele>142.5</ele><time>2026-04-19T12:56:14.889Z</time></trkpt><trkpt lat="43.89894" lon="12.6665067"><ele>140.75</ele><time>2026-04-19T12:56:15.888Z</time></trkpt><trkpt lat="43.8990433" lon="12.6664067"><ele>139.0</ele><time>2026-04-19T12:56:16.888Z</time></trkpt><trkpt lat="43.8991417" lon="12.66631"><ele>139.0</ele><time>2026-04-19T12:56:17.888Z</time></trkpt><trkpt lat="43.8992417" lon="12.6662167"><ele>139.0</ele><time>2026-04-19T12:56:18.888Z</time></trkpt><trkpt lat="43.89934" lon="12.666125"><ele>139.0</ele><time>2026-04-19T12:56:19.888Z</time></trkpt><trkpt lat="43.8994317" lon="12.6660367"><ele>139.0</ele><time>2026-04-19T12:56:20.888Z</time></trkpt><trkpt lat="43.8995183" lon="12.6659483"><ele>138.2</ele><time>2026-04-19T12:56:21.888Z</time></trkpt><trkpt lat="43.8996017" lon="12.6658683"><ele>137.4</ele><time>2026-04-19T12:56:22.889Z</time></trkpt><trkpt lat="43.8996817" lon="12.66579"><ele>136.6</ele><time>2026-04-19T12:56:23.888Z</time></trkpt><trkpt lat="43.89976" lon="12.66571"><ele>135.8</ele><time>2026-04-19T12:56:24.888Z</time></trkpt><trkpt lat="43.8998467" lon="12.665625"><ele>135.0</ele><time>2026-04-19T12:56:25.888Z</time></trkpt><trkpt lat="43.899935" lon="12.66554"><ele>135.0</ele><time>2026-04-19T12:56:26.888Z</time></trkpt><trkpt lat="43.900025" lon="12.6654533"><ele>135.0</ele><time>2026-04-19T12:56:27.889Z</time></trkpt><trkpt lat="43.9001133" lon="12.6653683"><ele>135.0</ele><time>2026-04-19T12:56:28.889Z</time></trkpt><trkpt lat="43.9001983" lon="12.66529"><ele>135.0</ele><time>2026-04-19T12:56:29.889Z</time></trkpt><trkpt lat="43.9002833" lon="12.6652167"><ele>135.0</ele><time>2026-04-19T12:56:30.888Z</time></trkpt><trkpt lat="43.900365" lon="12.66515"><ele>133.83333333333334</ele><time>2026-04-19T12:56:31.887Z</time></trkpt><trkpt lat="43.9004367" lon="12.6650967"><ele>132.66666666666666</ele><time>2026-04-19T12:56:32.887Z</time></trkpt><trkpt lat="43.9005317" lon="12.6650283"><ele>131.5</ele><time>2026-04-19T12:56:34.887Z</time></trkpt><trkpt lat="43.90056" lon="12.6648933"><ele>130.33333333333331</ele><time>2026-04-19T12:56:37.89Z</time></trkpt><trkpt lat="43.9005533" lon="12.664805"><ele>129.16666666666666</ele><time>2026-04-19T12:56:38.889Z</time></trkpt><trkpt lat="43.900535" lon="12.6646933"><ele>128.0</ele><time>2026-04-19T12:56:39.885Z</time></trkpt><trkpt lat="43.9004917" lon="12.6645717"><ele>129.25</ele><time>2026-04-19T12:56:40.889Z</time></trkpt><trkpt lat="43.9004383" lon="12.66444"><ele>130.5</ele><time>2026-04-19T12:56:41.889Z</time></trkpt><trkpt lat="43.9003733" lon="12.664295"><ele>131.75</ele><time>2026-04-19T12:56:42.89Z</time></trkpt><trkpt lat="43.9003" lon="12.6641583"><ele>133.0</ele><time>2026-04-19T12:56:43.889Z</time></trkpt><trkpt lat="43.9002333" lon="12.6640433"><ele>133.0</ele><time>2026-04-19T12:56:44.889Z</time></trkpt><trkpt lat="43.900175" lon="12.6639467"><ele>133.0</ele><time>2026-04-19T12:56:45.887Z</time></trkpt><trkpt lat="43.900115" lon="12.6638633"><ele>133.0</ele><time>2026-04-19T12:56:46.888Z</time></trkpt><trkpt lat="43.9000583" lon="12.6637867"><ele>133.0</ele><time>2026-04-19T12:56:47.888Z</time></trkpt><trkpt lat="43.9000067" lon="12.663705"><ele>133.0</ele><time>2026-04-19T12:56:48.887Z</time></trkpt><trkpt lat="43.89997" lon="12.66361"><ele>133.0</ele><time>2026-04-19T12:56:49.887Z</time></trkpt><trkpt lat="43.89994" lon="12.663495"><ele>135.8</ele><time>2026-04-19T12:56:50.887Z</time></trkpt><trkpt lat="43.89992" lon="12.6633517"><ele>138.60000000000002</ele><time>2026-04-19T12:56:51.888Z</time></trkpt><trkpt lat="43.8999033" lon="12.6632033"><ele>141.39999999999998</ele><time>2026-04-19T12:56:52.888Z</time></trkpt><trkpt lat="43.89989" lon="12.663055"><ele>144.2</ele><time>2026-04-19T12:56:53.887Z</time></trkpt><trkpt lat="43.8998767" lon="12.6629"><ele>147.0</ele><time>2026-04-19T12:56:54.888Z</time></trkpt><trkpt lat="43.8998733" lon="12.6627517"><ele>148.0</ele><time>2026-04-19T12:56:55.888Z</time></trkpt><trkpt lat="43.8998683" lon="12.6626133"><ele>149.0</ele><time>2026-04-19T12:56:56.888Z</time></trkpt><trkpt lat="43.89986" lon="12.6624817"><ele>150.0</ele><time>2026-04-19T12:56:57.886Z</time></trkpt><trkpt lat="43.89984" lon="12.66237"><ele>151.0</ele><time>2026-04-19T12:56:58.89Z</time></trkpt><trkpt lat="43.899805" lon="12.662235"><ele>152.0</ele><time>2026-04-19T12:57:00.888Z</time></trkpt><trkpt lat="43.8997717" lon="12.6621517"><ele>152.0</ele><time>2026-04-19T12:57:13.89Z</time></trkpt><trkpt lat="43.8997383" lon="12.6620733"><ele>152.0</ele><time>2026-04-19T12:57:14.888Z</time></trkpt><trkpt lat="43.8996917" lon="12.6619917"><ele>152.0</ele><time>2026-04-19T12:57:15.89Z</time></trkpt><trkpt lat="43.8996417" lon="12.6619133"><ele>152.0</ele><time>2026-04-19T12:57:16.888Z</time></trkpt><trkpt lat="43.8995933" lon="12.661845"><ele>152.0</ele><time>2026-04-19T12:57:17.888Z</time></trkpt><trkpt lat="43.899545" lon="12.6617767"><ele>152.0</ele><time>2026-04-19T12:57:18.891Z</time></trkpt><trkpt lat="43.8994983" lon="12.66171"><ele>152.0</ele><time>2026-04-19T12:57:19.89Z</time></trkpt><trkpt lat="43.899455" lon="12.6616417"><ele>151.85714285714286</ele><time>2026-04-19T12:57:20.885Z</time></trkpt><trkpt lat="43.899405" lon="12.6615667"><ele>151.71428571428572</ele><time>2026-04-19T12:57:21.89Z</time></trkpt><trkpt lat="43.89935" lon="12.6614917"><ele>151.57142857142858</ele><time>2026-04-19T12:57:22.889Z</time></trkpt><trkpt lat="43.8993" lon="12.66142"><ele>151.42857142857144</ele><time>2026-04-19T12:57:23.885Z</time></trkpt><trkpt lat="43.899245" lon="12.661355"><ele>151.28571428571428</ele><time>2026-04-19T12:57:24.889Z</time></trkpt><trkpt lat="43.8991883" lon="12.66129"><ele>151.14285714285717</ele><time>2026-04-19T12:57:25.887Z</time></trkpt><trkpt lat="43.89913" lon="12.6612283"><ele>151.0</ele><time>2026-04-19T12:57:26.887Z</time></trkpt><trkpt lat="43.89907" lon="12.6611717"><ele>149.16666666666669</ele><time>2026-04-19T12:57:27.888Z</time></trkpt><trkpt lat="43.8990133" lon="12.6611167"><ele>147.33333333333334</ele><time>2026-04-19T12:57:28.89Z</time></trkpt><trkpt lat="43.8989567" lon="12.6610617"><ele>145.5</ele><time>2026-04-19T12:57:29.889Z</time></trkpt><trkpt lat="43.8989017" lon="12.6610083"><ele>143.66666666666666</ele><time>2026-04-19T12:57:30.888Z</time></trkpt><trkpt lat="43.8988033" lon="12.66092"><ele>141.83333333333331</ele><time>2026-04-19T12:57:32.888Z</time></trkpt><trkpt lat="43.8987367" lon="12.6608283"><ele>140.0</ele><time>2026-04-19T12:57:34.888Z</time></trkpt><trkpt lat="43.8986867" lon="12.6606883"><ele>140.0</ele><time>2026-04-19T12:57:36.888Z</time></trkpt><trkpt lat="43.8986533" lon="12.6605267"><ele>140.0</ele><time>2026-04-19T12:57:38.889Z</time></trkpt><trkpt lat="43.89864" lon="12.6604367"><ele>140.0</ele><time>2026-04-19T12:57:39.888Z</time></trkpt><trkpt lat="43.898625" lon="12.660345"><ele>140.0</ele><time>2026-04-19T12:57:40.886Z</time></trkpt><trkpt lat="43.898605" lon="12.66025"><ele>140.0</ele><time>2026-04-19T12:57:41.888Z</time></trkpt><trkpt lat="43.89858" lon="12.660155"><ele>140.0</ele><time>2026-04-19T12:57:42.888Z</time></trkpt><trkpt lat="43.8985533" lon="12.660065"><ele>138.42857142857142</ele><time>2026-04-19T12:57:43.889Z</time></trkpt><trkpt lat="43.89853" lon="12.6599783"><ele>136.85714285714286</ele><time>2026-04-19T12:57:44.885Z</time></trkpt><trkpt lat="43.8985067" lon="12.65989"><ele>135.28571428571428</ele><time>2026-04-19T12:57:45.886Z</time></trkpt><trkpt lat="43.8984867" lon="12.6597933"><ele>133.71428571428572</ele><time>2026-04-19T12:57:46.886Z</time></trkpt><trkpt lat="43.8984683" lon="12.6597017"><ele>132.14285714285714</ele><time>2026-04-19T12:57:47.885Z</time></trkpt><trkpt lat="43.8984517" lon="12.65961"><ele>130.57142857142856</ele><time>2026-04-19T12:57:48.886Z</time></trkpt><trkpt lat="43.898445" lon="12.6595217"><ele>129.0</ele><time>2026-04-19T12:57:49.887Z</time></trkpt><trkpt lat="43.8984483" lon="12.65934"><ele>126.83333333333333</ele><time>2026-04-19T12:57:51.889Z</time></trkpt><trkpt lat="43.8984583" lon="12.6592533"><ele>124.66666666666666</ele><time>2026-04-19T12:57:52.89Z</time></trkpt><trkpt lat="43.8985017" lon="12.6591283"><ele>122.5</ele><time>2026-04-19T12:57:54.889Z</time></trkpt><trkpt lat="43.89859" lon="12.6590317"><ele>120.33333333333333</ele><time>2026-04-19T12:57:56.891Z</time></trkpt><trkpt lat="43.8986417" lon="12.6589817"><ele>118.16666666666666</ele><time>2026-04-19T12:57:57.891Z</time></trkpt><trkpt lat="43.8987383" lon="12.6589083"><ele>116.0</ele><time>2026-04-19T12:57:59.89Z</time></trkpt><trkpt lat="43.8988367" lon="12.65888"><ele>115.99999999999999</ele><time>2026-04-19T12:58:01.89Z</time></trkpt><trkpt lat="43.8989033" lon="12.6588717"><ele>116.0</ele><time>2026-04-19T12:58:02.889Z</time></trkpt><trkpt lat="43.898975" lon="12.6588617"><ele>116.0</ele><time>2026-04-19T12:58:03.89Z</time></trkpt><trkpt lat="43.89904" lon="12.6588467"><ele>116.0</ele><time>2026-04-19T12:58:04.886Z</time></trkpt><trkpt lat="43.8991567" lon="12.6588033"><ele>115.99999999999999</ele><time>2026-04-19T12:58:06.89Z</time></trkpt><trkpt lat="43.8992217" lon="12.6587767"><ele>116.0</ele><time>2026-04-19T12:58:07.89Z</time></trkpt><trkpt lat="43.899285" lon="12.6587467"><ele>114.99999999999999</ele><time>2026-04-19T12:58:08.889Z</time></trkpt><trkpt lat="43.89935" lon="12.65872"><ele>114.0</ele><time>2026-04-19T12:58:09.888Z</time></trkpt><trkpt lat="43.8994133" lon="12.658695"><ele>113.0</ele><time>2026-04-19T12:58:10.889Z</time></trkpt><trkpt lat="43.8994767" lon="12.6586717"><ele>112.0</ele><time>2026-04-19T12:58:11.89Z</time></trkpt><trkpt lat="43.8995783" lon="12.65864"><ele>110.99999999999999</ele><time>2026-04-19T12:58:13.89Z</time></trkpt><trkpt lat="43.89967" lon="12.6586117"><ele>110.0</ele><time>2026-04-19T12:58:15.888Z</time></trkpt><trkpt lat="43.8997683" lon="12.6585783"><ele>107.8</ele><time>2026-04-19T12:58:17.886Z</time></trkpt><trkpt lat="43.8998617" lon="12.6585483"><ele>105.6</ele><time>2026-04-19T12:58:19.886Z</time></trkpt><trkpt lat="43.8999633" lon="12.65852"><ele>103.4</ele><time>2026-04-19T12:58:21.886Z</time></trkpt><trkpt lat="43.9000717" lon="12.65847"><ele>101.2</ele><time>2026-04-19T12:58:23.885Z</time></trkpt><trkpt lat="43.9001633" lon="12.65839"><ele>99.0</ele><time>2026-04-19T12:58:25.888Z</time></trkpt><trkpt lat="43.9002233" lon="12.658305"><ele>98.80000000000001</ele><time>2026-04-19T12:58:27.889Z</time></trkpt><trkpt lat="43.900285" lon="12.6581983"><ele>98.60000000000001</ele><time>2026-04-19T12:58:29.884Z</time></trkpt><trkpt lat="43.9003417" lon="12.6580533"><ele>98.4</ele><time>2026-04-19T12:58:31.888Z</time></trkpt><trkpt lat="43.900365" lon="12.6579717"><ele>98.2</ele><time>2026-04-19T12:58:32.888Z</time></trkpt><trkpt lat="43.9004117" lon="12.6578133"><ele>98.0</ele><time>2026-04-19T12:58:34.888Z</time></trkpt><trkpt lat="43.9004467" lon="12.657685"><ele>95.2</ele><time>2026-04-19T12:58:36.889Z</time></trkpt><trkpt lat="43.9004317" lon="12.657585"><ele>92.4</ele><time>2026-04-19T12:58:38.889Z</time></trkpt><trkpt lat="43.9003933" lon="12.657505"><ele>89.60000000000001</ele><time>2026-04-19T12:58:40.887Z</time></trkpt><trkpt lat="43.9003433" lon="12.657415"><ele>86.80000000000001</ele><time>2026-04-19T12:58:42.886Z</time></trkpt><trkpt lat="43.9002983" lon="12.657295"><ele>84.0</ele><time>2026-04-19T12:58:44.884Z</time></trkpt><trkpt lat="43.9002683" lon="12.6571183"><ele>84.0</ele><time>2026-04-19T12:58:46.887Z</time></trkpt><trkpt lat="43.9002467" lon="12.657025"><ele>84.0</ele><time>2026-04-19T12:58:47.884Z</time></trkpt><trkpt lat="43.9002267" lon="12.656935"><ele>84.0</ele><time>2026-04-19T12:58:48.887Z</time></trkpt><trkpt lat="43.9002133" lon="12.656845"><ele>84.0</ele><time>2026-04-19T12:58:49.885Z</time></trkpt><trkpt lat="43.9002017" lon="12.6567467"><ele>84.0</ele><time>2026-04-19T12:58:50.885Z</time></trkpt><trkpt lat="43.9002017" lon="12.6566433"><ele>84.0</ele><time>2026-04-19T12:58:51.887Z</time></trkpt><trkpt lat="43.900205" lon="12.6565467"><ele>84.0</ele><time>2026-04-19T12:58:52.889Z</time></trkpt><trkpt lat="43.9002117" lon="12.65644"><ele>82.83333333333333</ele><time>2026-04-19T12:58:53.886Z</time></trkpt><trkpt lat="43.9002183" lon="12.6563283"><ele>81.66666666666667</ele><time>2026-04-19T12:58:54.888Z</time></trkpt><trkpt lat="43.9002233" lon="12.656215"><ele>80.5</ele><time>2026-04-19T12:58:55.887Z</time></trkpt><trkpt lat="43.9002317" lon="12.6561033"><ele>79.33333333333334</ele><time>2026-04-19T12:58:56.885Z</time></trkpt><trkpt lat="43.90024" lon="12.656"><ele>78.16666666666667</ele><time>2026-04-19T12:58:57.885Z</time></trkpt><trkpt lat="43.90027" lon="12.6558383"><ele>77.0</ele><time>2026-04-19T12:58:59.886Z</time></trkpt><trkpt lat="43.900285" lon="12.6557483"><ele>76.33333333333334</ele><time>2026-04-19T12:59:00.887Z</time></trkpt><trkpt lat="43.9002967" lon="12.6556517"><ele>75.66666666666667</ele><time>2026-04-19T12:59:01.887Z</time></trkpt><trkpt lat="43.900305" lon="12.6555617"><ele>75.0</ele><time>2026-04-19T12:59:02.886Z</time></trkpt><trkpt lat="43.9003083" lon="12.6554667"><ele>74.33333333333333</ele><time>2026-04-19T12:59:03.887Z</time></trkpt><trkpt lat="43.900285" lon="12.6553033"><ele>73.66666666666666</ele><time>2026-04-19T12:59:05.887Z</time></trkpt><trkpt lat="43.900225" lon="12.655155"><ele>73.0</ele><time>2026-04-19T12:59:07.888Z</time></trkpt><trkpt lat="43.9001567" lon="12.65503"><ele>72.5</ele><time>2026-04-19T12:59:09.886Z</time></trkpt><trkpt lat="43.9001133" lon="12.6549417"><ele>72.0</ele><time>2026-04-19T12:59:11.889Z</time></trkpt><trkpt lat="43.9000617" lon="12.6548433"><ele>71.5</ele><time>2026-04-19T12:59:13.888Z</time></trkpt><trkpt lat="43.900015" lon="12.654775"><ele>71.0</ele><time>2026-04-19T12:59:14.888Z</time></trkpt><trkpt lat="43.89996" lon="12.6546967"><ele>70.5</ele><time>2026-04-19T12:59:15.889Z</time></trkpt><trkpt lat="43.899905" lon="12.654625"><ele>70.0</ele><time>2026-04-19T12:59:16.886Z</time></trkpt><trkpt lat="43.89985" lon="12.654565"><ele>70.0</ele><time>2026-04-19T12:59:17.887Z</time></trkpt><trkpt lat="43.8997967" lon="12.6545183"><ele>70.0</ele><time>2026-04-19T12:59:18.886Z</time></trkpt><trkpt lat="43.8996983" lon="12.6544917"><ele>70.0</ele><time>2026-04-19T12:59:20.887Z</time></trkpt><trkpt lat="43.8995867" lon="12.654575"><ele>70.0</ele><time>2026-04-19T12:59:22.887Z</time></trkpt><trkpt lat="43.8995183" lon="12.6546383"><ele>70.0</ele><time>2026-04-19T12:59:23.887Z</time></trkpt><trkpt lat="43.8994317" lon="12.654695"><ele>70.0</ele><time>2026-04-19T12:59:24.886Z</time></trkpt><trkpt lat="43.8993517" lon="12.6547483"><ele>70.0</ele><time>2026-04-19T12:59:25.888Z</time></trkpt><trkpt lat="43.899275" lon="12.6548117"><ele>70.0</ele><time>2026-04-19T12:59:26.886Z</time></trkpt><trkpt lat="43.8991983" lon="12.6548983"><ele>70.0</ele><time>2026-04-19T12:59:27.888Z</time></trkpt><trkpt lat="43.8991233" lon="12.6549967"><ele>70.0</ele><time>2026-04-19T12:59:28.887Z</time></trkpt><trkpt lat="43.8990567" lon="12.65508"><ele>70.0</ele><time>2026-04-19T12:59:29.885Z</time></trkpt><trkpt lat="43.8989867" lon="12.655165"><ele>70.0</ele><time>2026-04-19T12:59:30.887Z</time></trkpt><trkpt lat="43.8989217" lon="12.65526"><ele>70.0</ele><time>2026-04-19T12:59:31.89Z</time></trkpt><trkpt lat="43.898865" lon="12.6553633"><ele>70.0</ele><time>2026-04-19T12:59:32.885Z</time></trkpt><trkpt lat="43.89882" lon="12.65546"><ele>70.0</ele><time>2026-04-19T12:59:33.889Z</time></trkpt><trkpt lat="43.89877" lon="12.655555"><ele>70.0</ele><time>2026-04-19T12:59:34.885Z</time></trkpt><trkpt lat="43.8987167" lon="12.6556433"><ele>70.33333333333333</ele><time>2026-04-19T12:59:35.885Z</time></trkpt><trkpt lat="43.898655" lon="12.6557233"><ele>70.66666666666666</ele><time>2026-04-19T12:59:36.886Z</time></trkpt><trkpt lat="43.8985933" lon="12.6557917"><ele>71.0</ele><time>2026-04-19T12:59:37.886Z</time></trkpt><trkpt lat="43.8985333" lon="12.65585"><ele>71.33333333333333</ele><time>2026-04-19T12:59:38.888Z</time></trkpt><trkpt lat="43.89843" lon="12.6559217"><ele>71.66666666666667</ele><time>2026-04-19T12:59:40.889Z</time></trkpt><trkpt lat="43.8983683" lon="12.6559433"><ele>72.0</ele><time>2026-04-19T12:59:42.888Z</time></trkpt><trkpt lat="43.89829" lon="12.65593"><ele>72.16666666666667</ele><time>2026-04-19T12:59:45.888Z</time></trkpt><trkpt lat="43.8982217" lon="12.6558933"><ele>72.33333333333333</ele><time>2026-04-19T12:59:48.886Z</time></trkpt><trkpt lat="43.898135" lon="12.6558617"><ele>72.5</ele><time>2026-04-19T12:59:51.886Z</time></trkpt><trkpt lat="43.8980667" lon="12.6558683"><ele>72.66666666666666</ele><time>2026-04-19T12:59:53.887Z</time></trkpt><trkpt lat="43.8979883" lon="12.65589"><ele>72.83333333333333</ele><time>2026-04-19T12:59:55.886Z</time></trkpt><trkpt lat="43.8979117" lon="12.655905"><ele>73.0</ele><time>2026-04-19T12:59:57.886Z</time></trkpt><trkpt lat="43.897825" lon="12.6558833"><ele>73.0</ele><time>2026-04-19T13:00:00.887Z</time></trkpt><trkpt lat="43.8977467" lon="12.6558267"><ele>73.0</ele><time>2026-04-19T13:00:02.887Z</time></trkpt><trkpt lat="43.897675" lon="12.6557417"><ele>73.0</ele><time>2026-04-19T13:00:04.887Z</time></trkpt><trkpt lat="43.89761" lon="12.655645"><ele>73.0</ele><time>2026-04-19T13:00:06.886Z</time></trkpt><trkpt lat="43.89756" lon="12.6555633"><ele>73.0</ele><time>2026-04-19T13:00:08.886Z</time></trkpt><trkpt lat="43.8974733" lon="12.6555783"><ele>73.0</ele><time>2026-04-19T13:00:22.887Z</time></trkpt><trkpt lat="43.8974217" lon="12.65563"><ele>74.2</ele><time>2026-04-19T13:00:23.889Z</time></trkpt><trkpt lat="43.8973483" lon="12.6556967"><ele>75.4</ele><time>2026-04-19T13:00:24.888Z</time></trkpt><trkpt lat="43.8972533" lon="12.6557783"><ele>76.60000000000001</ele><time>2026-04-19T13:00:25.889Z</time></trkpt><trkpt lat="43.8971533" lon="12.655865"><ele>77.8</ele><time>2026-04-19T13:00:26.888Z</time></trkpt><trkpt lat="43.8970583" lon="12.65594"><ele>79.0</ele><time>2026-04-19T13:00:27.886Z</time></trkpt><trkpt lat="43.8969733" lon="12.65601"><ele>79.0</ele><time>2026-04-19T13:00:28.887Z</time></trkpt><trkpt lat="43.8968917" lon="12.656075"><ele>79.0</ele><time>2026-04-19T13:00:29.89Z</time></trkpt><trkpt lat="43.8968167" lon="12.6561383"><ele>79.0</ele><time>2026-04-19T13:00:30.888Z</time></trkpt><trkpt lat="43.896745" lon="12.6562"><ele>79.0</ele><time>2026-04-19T13:00:31.887Z</time></trkpt><trkpt lat="43.896675" lon="12.6562567"><ele>79.0</ele><time>2026-04-19T13:00:32.886Z</time></trkpt><trkpt lat="43.89661" lon="12.6563083"><ele>79.0</ele><time>2026-04-19T13:00:33.888Z</time></trkpt><trkpt lat="43.8965467" lon="12.6563517"><ele>79.5</ele><time>2026-04-19T13:00:34.886Z</time></trkpt><trkpt lat="43.896485" lon="12.6563733"><ele>80.0</ele><time>2026-04-19T13:00:35.886Z</time></trkpt><trkpt lat="43.896395" lon="12.656365"><ele>80.5</ele><time>2026-04-19T13:00:37.888Z</time></trkpt><trkpt lat="43.89635" lon="12.6562517"><ele>81.0</ele><time>2026-04-19T13:00:40.888Z</time></trkpt><trkpt lat="43.89636" lon="12.6561333"><ele>81.5</ele><time>2026-04-19T13:00:42.888Z</time></trkpt><trkpt lat="43.89642" lon="12.6560117"><ele>82.0</ele><time>2026-04-19T13:00:44.888Z</time></trkpt><trkpt lat="43.8964883" lon="12.6558967"><ele>83.39999999999999</ele><time>2026-04-19T13:00:46.886Z</time></trkpt><trkpt lat="43.8965517" lon="12.6557817"><ele>84.8</ele><time>2026-04-19T13:00:48.886Z</time></trkpt><trkpt lat="43.8966067" lon="12.6556967"><ele>86.2</ele><time>2026-04-19T13:00:50.886Z</time></trkpt><trkpt lat="43.8966633" lon="12.6555867"><ele>87.6</ele><time>2026-04-19T13:00:52.885Z</time></trkpt><trkpt lat="43.8967183" lon="12.6555"><ele>89.0</ele><time>2026-04-19T13:00:54.886Z</time></trkpt><trkpt lat="43.8966317" lon="12.6556067"><ele>89.0</ele><time>2026-04-19T13:01:00.887Z</time></trkpt><trkpt lat="43.89658" lon="12.6557067"><ele>89.0</ele><time>2026-04-19T13:01:01.886Z</time></trkpt><trkpt lat="43.89652" lon="12.6558083"><ele>89.0</ele><time>2026-04-19T13:01:02.885Z</time></trkpt><trkpt lat="43.89646" lon="12.6559083"><ele>89.0</ele><time>2026-04-19T13:01:03.885Z</time></trkpt><trkpt lat="43.8964033" lon="12.6560067"><ele>89.0</ele><time>2026-04-19T13:01:04.886Z</time></trkpt><trkpt lat="43.8963617" lon="12.6560967"><ele>89.0</ele><time>2026-04-19T13:01:05.887Z</time></trkpt><trkpt lat="43.8963283" lon="12.6561833"><ele>87.6</ele><time>2026-04-19T13:01:06.887Z</time></trkpt><trkpt lat="43.8963133" lon="12.6562683"><ele>86.2</ele><time>2026-04-19T13:01:07.89Z</time></trkpt><trkpt lat="43.8963867" lon="12.6563983"><ele>84.8</ele><time>2026-04-19T13:01:09.889Z</time></trkpt><trkpt lat="43.8964517" lon="12.6564183"><ele>83.39999999999999</ele><time>2026-04-19T13:01:10.889Z</time></trkpt><trkpt lat="43.8965417" lon="12.6563917"><ele>82.0</ele><time>2026-04-19T13:01:11.888Z</time></trkpt><trkpt lat="43.8966533" lon="12.6563133"><ele>81.25</ele><time>2026-04-19T13:01:12.888Z</time></trkpt><trkpt lat="43.896775" lon="12.6561967"><ele>80.5</ele><time>2026-04-19T13:01:13.889Z</time></trkpt><trkpt lat="43.8968983" lon="12.6560867"><ele>79.75</ele><time>2026-04-19T13:01:14.889Z</time></trkpt><trkpt lat="43.8970167" lon="12.655995"><ele>79.0</ele><time>2026-04-19T13:01:15.889Z</time></trkpt><trkpt lat="43.8971283" lon="12.65591"><ele>79.0</ele><time>2026-04-19T13:01:16.886Z</time></trkpt><trkpt lat="43.8972333" lon="12.6558233"><ele>79.0</ele><time>2026-04-19T13:01:17.886Z</time></trkpt><trkpt lat="43.89733" lon="12.6557333"><ele>79.0</ele><time>2026-04-19T13:01:18.887Z</time></trkpt><trkpt lat="43.8974167" lon="12.6556367"><ele>79.0</ele><time>2026-04-19T13:01:19.89Z</time></trkpt><trkpt lat="43.897495" lon="12.6555317"><ele>79.0</ele><time>2026-04-19T13:01:20.887Z</time></trkpt><trkpt lat="43.8975733" lon="12.6554167"><ele>79.0</ele><time>2026-04-19T13:01:21.886Z</time></trkpt><trkpt lat="43.8976517" lon="12.655295"><ele>79.0</ele><time>2026-04-19T13:01:22.889Z</time></trkpt><trkpt lat="43.89773" lon="12.6551733"><ele>79.0</ele><time>2026-04-19T13:01:23.888Z</time></trkpt><trkpt lat="43.8978133" lon="12.6550667"><ele>78.0</ele><time>2026-04-19T13:01:24.89Z</time></trkpt><trkpt lat="43.8979033" lon="12.654975"><ele>77.0</ele><time>2026-04-19T13:01:25.889Z</time></trkpt><trkpt lat="43.898005" lon="12.6548933"><ele>76.0</ele><time>2026-04-19T13:01:26.888Z</time></trkpt><trkpt lat="43.8981167" lon="12.654815"><ele>75.0</ele><time>2026-04-19T13:01:27.885Z</time></trkpt><trkpt lat="43.898235" lon="12.654735"><ele>75.0</ele><time>2026-04-19T13:01:28.889Z</time></trkpt><trkpt lat="43.8983517" lon="12.6546583"><ele>75.0</ele><time>2026-04-19T13:01:29.889Z</time></trkpt><trkpt lat="43.8984683" lon="12.65458"><ele>75.0</ele><time>2026-04-19T13:01:30.887Z</time></trkpt><trkpt lat="43.8985833" lon="12.6545017"><ele>75.0</ele><time>2026-04-19T13:01:31.887Z</time></trkpt><trkpt lat="43.898705" lon="12.654425"><ele>74.75</ele><time>2026-04-19T13:01:32.885Z</time></trkpt><trkpt lat="43.898815" lon="12.654335"><ele>74.5</ele><time>2026-04-19T13:01:33.888Z</time></trkpt><trkpt lat="43.8989183" lon="12.65425"><ele>74.25</ele><time>2026-04-19T13:01:34.886Z</time></trkpt><trkpt lat="43.8990083" lon="12.6541517"><ele>74.0</ele><time>2026-04-19T13:01:35.886Z</time></trkpt><trkpt lat="43.8990833" lon="12.6540333"><ele>74.0</ele><time>2026-04-19T13:01:36.888Z</time></trkpt><trkpt lat="43.8991383" lon="12.653895"><ele>74.0</ele><time>2026-04-19T13:01:37.886Z</time></trkpt><trkpt lat="43.8991783" lon="12.6537617"><ele>74.0</ele><time>2026-04-19T13:01:38.885Z</time></trkpt><trkpt lat="43.8992117" lon="12.6536467"><ele>74.0</ele><time>2026-04-19T13:01:39.887Z</time></trkpt><trkpt lat="43.8992433" lon="12.6535517"><ele>74.0</ele><time>2026-04-19T13:01:40.889Z</time></trkpt><trkpt lat="43.8992883" lon="12.65343"><ele>74.0</ele><time>2026-04-19T13:01:42.886Z</time></trkpt><trkpt lat="43.8992217" lon="12.6533933"><ele>74.0</ele><time>2026-04-19T13:01:45.886Z</time></trkpt><trkpt lat="43.8991267" lon="12.6535317"><ele>74.0</ele><time>2026-04-19T13:01:47.889Z</time></trkpt><trkpt lat="43.8990733" lon="12.6536233"><ele>74.0</ele><time>2026-04-19T13:01:48.888Z</time></trkpt><trkpt lat="43.8990033" lon="12.6537283"><ele>74.0</ele><time>2026-04-19T13:01:49.889Z</time></trkpt><trkpt lat="43.8989267" lon="12.6538383"><ele>74.0</ele><time>2026-04-19T13:01:50.889Z</time></trkpt><trkpt lat="43.898845" lon="12.6539417"><ele>74.0</ele><time>2026-04-19T13:01:51.888Z</time></trkpt><trkpt lat="43.898765" lon="12.65404"><ele>74.0</ele><time>2026-04-19T13:01:52.891Z</time></trkpt><trkpt lat="43.898685" lon="12.654115"><ele>74.0</ele><time>2026-04-19T13:01:53.888Z</time></trkpt><trkpt lat="43.8986133" lon="12.6541617"><ele>74.0</ele><time>2026-04-19T13:01:54.889Z</time></trkpt><trkpt lat="43.8985433" lon="12.6541833"><ele>74.0</ele><time>2026-04-19T13:01:55.888Z</time></trkpt><trkpt lat="43.8984767" lon="12.65416"><ele>74.0</ele><time>2026-04-19T13:01:56.89Z</time></trkpt><trkpt lat="43.89841" lon="12.654115"><ele>74.0</ele><time>2026-04-19T13:01:57.887Z</time></trkpt><trkpt lat="43.8983633" lon="12.6540333"><ele>74.0</ele><time>2026-04-19T13:01:58.887Z</time></trkpt><trkpt lat="43.8983167" lon="12.6539067"><ele>74.0</ele><time>2026-04-19T13:01:59.885Z</time></trkpt><trkpt lat="43.89827" lon="12.6537467"><ele>74.0</ele><time>2026-04-19T13:02:00.887Z</time></trkpt><trkpt lat="43.8982217" lon="12.653595"><ele>74.0</ele><time>2026-04-19T13:02:01.886Z</time></trkpt><trkpt lat="43.8981733" lon="12.6534383"><ele>74.0</ele><time>2026-04-19T13:02:02.886Z</time></trkpt><trkpt lat="43.898135" lon="12.65329"><ele>74.0</ele><time>2026-04-19T13:02:03.887Z</time></trkpt><trkpt lat="43.8980983" lon="12.6531517"><ele>74.0</ele><time>2026-04-19T13:02:04.886Z</time></trkpt><trkpt lat="43.8980567" lon="12.6530217"><ele>74.0</ele><time>2026-04-19T13:02:05.886Z</time></trkpt><trkpt lat="43.8979933" lon="12.6529067"><ele>74.0</ele><time>2026-04-19T13:02:06.887Z</time></trkpt><trkpt lat="43.8979133" lon="12.6528133"><ele>74.0</ele><time>2026-04-19T13:02:07.887Z</time></trkpt><trkpt lat="43.8978033" lon="12.6527333"><ele>74.0</ele><time>2026-04-19T13:02:08.886Z</time></trkpt><trkpt lat="43.897695" lon="12.6526533"><ele>74.0</ele><time>2026-04-19T13:02:09.887Z</time></trkpt><trkpt lat="43.8975883" lon="12.6525717"><ele>74.4</ele><time>2026-04-19T13:02:10.89Z</time></trkpt><trkpt lat="43.89749" lon="12.6524783"><ele>74.80000000000001</ele><time>2026-04-19T13:02:11.885Z</time></trkpt><trkpt lat="43.897405" lon="12.6523883"><ele>75.19999999999999</ele><time>2026-04-19T13:02:12.891Z</time></trkpt><trkpt lat="43.8973333" lon="12.6522933"><ele>75.6</ele><time>2026-04-19T13:02:13.886Z</time></trkpt><trkpt lat="43.8972817" lon="12.652195"><ele>76.0</ele><time>2026-04-19T13:02:14.886Z</time></trkpt><trkpt lat="43.8972467" lon="12.6520933"><ele>76.0</ele><time>2026-04-19T13:02:15.889Z</time></trkpt><trkpt lat="43.8972167" lon="12.6519817"><ele>76.0</ele><time>2026-04-19T13:02:16.886Z</time></trkpt><trkpt lat="43.8972067" lon="12.65188"><ele>76.0</ele><time>2026-04-19T13:02:17.889Z</time></trkpt><trkpt lat="43.8972217" lon="12.65179"><ele>76.0</ele><time>2026-04-19T13:02:18.888Z</time></trkpt><trkpt lat="43.8972417" lon="12.6516983"><ele>76.0</ele><time>2026-04-19T13:02:19.886Z</time></trkpt><trkpt lat="43.8972883" lon="12.6516083"><ele>76.0</ele><time>2026-04-19T13:02:20.886Z</time></trkpt><trkpt lat="43.897325" lon="12.6515117"><ele>76.0</ele><time>2026-04-19T13:02:21.89Z</time></trkpt><trkpt lat="43.8973517" lon="12.6513983"><ele>76.0</ele><time>2026-04-19T13:02:22.889Z</time></trkpt><trkpt lat="43.8973617" lon="12.651265"><ele>76.0</ele><time>2026-04-19T13:02:23.888Z</time></trkpt><trkpt lat="43.89735" lon="12.6511283"><ele>76.0</ele><time>2026-04-19T13:02:24.89Z</time></trkpt><trkpt lat="43.8973183" lon="12.651005"><ele>76.0</ele><time>2026-04-19T13:02:25.888Z</time></trkpt><trkpt lat="43.897255" lon="12.6508983"><ele>76.0</ele><time>2026-04-19T13:02:26.889Z</time></trkpt><trkpt lat="43.8971817" lon="12.6508133"><ele>76.0</ele><time>2026-04-19T13:02:27.886Z</time></trkpt><trkpt lat="43.8971083" lon="12.65073"><ele>76.0</ele><time>2026-04-19T13:02:28.888Z</time></trkpt><trkpt lat="43.89705" lon="12.6506433"><ele>76.0</ele><time>2026-04-19T13:02:29.887Z</time></trkpt><trkpt lat="43.8970033" lon="12.6505433"><ele>76.0</ele><time>2026-04-19T13:02:30.887Z</time></trkpt><trkpt lat="43.89699" lon="12.650435"><ele>76.0</ele><time>2026-04-19T13:02:31.889Z</time></trkpt><trkpt lat="43.8969983" lon="12.6502983"><ele>75.8</ele><time>2026-04-19T13:02:32.886Z</time></trkpt><trkpt lat="43.89702" lon="12.650145"><ele>75.6</ele><time>2026-04-19T13:02:33.886Z</time></trkpt><trkpt lat="43.897045" lon="12.6500083"><ele>75.4</ele><time>2026-04-19T13:02:34.886Z</time></trkpt><trkpt lat="43.8970817" lon="12.6498917"><ele>75.2</ele><time>2026-04-19T13:02:35.886Z</time></trkpt><trkpt lat="43.89713" lon="12.6497933"><ele>75.0</ele><time>2026-04-19T13:02:36.886Z</time></trkpt><trkpt lat="43.8971967" lon="12.6497167"><ele>75.0</ele><time>2026-04-19T13:02:37.887Z</time></trkpt><trkpt lat="43.89727" lon="12.6496733"><ele>75.0</ele><time>2026-04-19T13:02:38.887Z</time></trkpt><trkpt lat="43.8973633" lon="12.6496433"><ele>75.0</ele><time>2026-04-19T13:02:39.89Z</time></trkpt><trkpt lat="43.8974433" lon="12.6495833"><ele>75.0</ele><time>2026-04-19T13:02:40.889Z</time></trkpt><trkpt lat="43.8975133" lon="12.6495"><ele>75.0</ele><time>2026-04-19T13:02:41.885Z</time></trkpt><trkpt lat="43.8975633" lon="12.64939"><ele>76.4</ele><time>2026-04-19T13:02:42.89Z</time></trkpt><trkpt lat="43.8975767" lon="12.649265"><ele>77.8</ele><time>2026-04-19T13:02:43.89Z</time></trkpt><trkpt lat="43.8975667" lon="12.649135"><ele>79.19999999999999</ele><time>2026-04-19T13:02:44.888Z</time></trkpt><trkpt lat="43.8975183" lon="12.6489983"><ele>80.6</ele><time>2026-04-19T13:02:45.89Z</time></trkpt><trkpt lat="43.8974433" lon="12.648865"><ele>82.0</ele><time>2026-04-19T13:02:46.888Z</time></trkpt><trkpt lat="43.8973567" lon="12.6487283"><ele>83.0</ele><time>2026-04-19T13:02:47.889Z</time></trkpt><trkpt lat="43.897255" lon="12.6485933"><ele>84.0</ele><time>2026-04-19T13:02:48.888Z</time></trkpt><trkpt lat="43.8971417" lon="12.6484683"><ele>85.0</ele><time>2026-04-19T13:02:49.89Z</time></trkpt><trkpt lat="43.8970267" lon="12.648355"><ele>86.0</ele><time>2026-04-19T13:02:50.888Z</time></trkpt><trkpt lat="43.896915" lon="12.6482483"><ele>86.0</ele><time>2026-04-19T13:02:51.89Z</time></trkpt><trkpt lat="43.896805" lon="12.64815"><ele>86.0</ele><time>2026-04-19T13:02:52.888Z</time></trkpt><trkpt lat="43.8966867" lon="12.6480683"><ele>86.0</ele><time>2026-04-19T13:02:53.891Z</time></trkpt><trkpt lat="43.8965617" lon="12.647995"><ele>86.0</ele><time>2026-04-19T13:02:54.889Z</time></trkpt><trkpt lat="43.8964367" lon="12.647915"><ele>86.0</ele><time>2026-04-19T13:02:55.888Z</time></trkpt><trkpt lat="43.8963233" lon="12.6478383"><ele>86.0</ele><time>2026-04-19T13:02:56.887Z</time></trkpt><trkpt lat="43.89621" lon="12.6477583"><ele>86.0</ele><time>2026-04-19T13:02:57.888Z</time></trkpt><trkpt lat="43.8960917" lon="12.6476817"><ele>86.0</ele><time>2026-04-19T13:02:58.887Z</time></trkpt><trkpt lat="43.895965" lon="12.6476067"><ele>85.25</ele><time>2026-04-19T13:02:59.888Z</time></trkpt><trkpt lat="43.89584" lon="12.64754"><ele>84.5</ele><time>2026-04-19T13:03:00.887Z</time></trkpt><trkpt lat="43.8957133" lon="12.6474783"><ele>83.75</ele><time>2026-04-19T13:03:01.888Z</time></trkpt><trkpt lat="43.8955967" lon="12.6474183"><ele>83.0</ele><time>2026-04-19T13:03:02.888Z</time></trkpt><trkpt lat="43.8954733" lon="12.6473583"><ele>83.0</ele><time>2026-04-19T13:03:03.889Z</time></trkpt><trkpt lat="43.8953467" lon="12.6472983"><ele>83.0</ele><time>2026-04-19T13:03:04.888Z</time></trkpt><trkpt lat="43.8952233" lon="12.6472483"><ele>83.0</ele><time>2026-04-19T13:03:05.887Z</time></trkpt><trkpt lat="43.8950967" lon="12.6472183"><ele>83.0</ele><time>2026-04-19T13:03:06.885Z</time></trkpt><trkpt lat="43.8949533" lon="12.6472"><ele>82.75</ele><time>2026-04-19T13:03:07.887Z</time></trkpt><trkpt lat="43.894805" lon="12.6471933"><ele>82.5</ele><time>2026-04-19T13:03:08.889Z</time></trkpt><trkpt lat="43.8946567" lon="12.6471917"><ele>82.25</ele><time>2026-04-19T13:03:09.887Z</time></trkpt><trkpt lat="43.8945083" lon="12.6471883"><ele>82.0</ele><time>2026-04-19T13:03:10.886Z</time></trkpt><trkpt lat="43.8943667" lon="12.64719"><ele>82.75</ele><time>2026-04-19T13:03:11.886Z</time></trkpt><trkpt lat="43.8942283" lon="12.6471933"><ele>83.5</ele><time>2026-04-19T13:03:12.886Z</time></trkpt><trkpt lat="43.8940917" lon="12.6471917"><ele>84.25</ele><time>2026-04-19T13:03:13.889Z</time></trkpt><trkpt lat="43.8939583" lon="12.6471667"><ele>85.0</ele><time>2026-04-19T13:03:14.885Z</time></trkpt><trkpt lat="43.8938317" lon="12.6471317"><ele>85.0</ele><time>2026-04-19T13:03:15.886Z</time></trkpt><trkpt lat="43.8937083" lon="12.6470817"><ele>85.0</ele><time>2026-04-19T13:03:16.885Z</time></trkpt><trkpt lat="43.89359" lon="12.6470067"><ele>85.0</ele><time>2026-04-19T13:03:17.886Z</time></trkpt><trkpt lat="43.8934817" lon="12.646935"><ele>85.0</ele><time>2026-04-19T13:03:18.886Z</time></trkpt><trkpt lat="43.8933783" lon="12.646865"><ele>84.8</ele><time>2026-04-19T13:03:19.887Z</time></trkpt><trkpt lat="43.8932783" lon="12.6468017"><ele>84.6</ele><time>2026-04-19T13:03:20.884Z</time></trkpt><trkpt lat="43.8931783" lon="12.6467417"><ele>84.4</ele><time>2026-04-19T13:03:21.887Z</time></trkpt><trkpt lat="43.893085" lon="12.646685"><ele>84.2</ele><time>2026-04-19T13:03:22.886Z</time></trkpt><trkpt lat="43.8929833" lon="12.6466217"><ele>84.0</ele><time>2026-04-19T13:03:23.886Z</time></trkpt><trkpt lat="43.8928767" lon="12.6465617"><ele>84.0</ele><time>2026-04-19T13:03:24.887Z</time></trkpt><trkpt lat="43.8927567" lon="12.646495"><ele>84.0</ele><time>2026-04-19T13:03:25.887Z</time></trkpt><trkpt lat="43.8926317" lon="12.6464267"><ele>84.0</ele><time>2026-04-19T13:03:26.884Z</time></trkpt><trkpt lat="43.8925067" lon="12.64636"><ele>84.0</ele><time>2026-04-19T13:03:27.886Z</time></trkpt><trkpt lat="43.892375" lon="12.6462883"><ele>84.0</ele><time>2026-04-19T13:03:28.886Z</time></trkpt><trkpt lat="43.89224" lon="12.6462167"><ele>84.0</ele><time>2026-04-19T13:03:29.886Z</time></trkpt><trkpt lat="43.8921017" lon="12.64614"><ele>84.0</ele><time>2026-04-19T13:03:30.886Z</time></trkpt><trkpt lat="43.8919667" lon="12.6460683"><ele>84.0</ele><time>2026-04-19T13:03:31.887Z</time></trkpt><trkpt lat="43.8918333" lon="12.646005"><ele>83.75</ele><time>2026-04-19T13:03:32.885Z</time></trkpt><trkpt lat="43.891705" lon="12.645945"><ele>83.5</ele><time>2026-04-19T13:03:33.89Z</time></trkpt><trkpt lat="43.8915767" lon="12.6458933"><ele>83.25</ele><time>2026-04-19T13:03:34.887Z</time></trkpt><trkpt lat="43.8914467" lon="12.645845"><ele>83.0</ele><time>2026-04-19T13:03:35.886Z</time></trkpt><trkpt lat="43.89131" lon="12.6457983"><ele>83.0</ele><time>2026-04-19T13:03:36.886Z</time></trkpt><trkpt lat="43.8911683" lon="12.6457567"><ele>83.0</ele><time>2026-04-19T13:03:37.886Z</time></trkpt><trkpt lat="43.8910217" lon="12.6457133"><ele>83.0</ele><time>2026-04-19T13:03:38.886Z</time></trkpt><trkpt lat="43.8908767" lon="12.645665"><ele>83.0</ele><time>2026-04-19T13:03:39.889Z</time></trkpt><trkpt lat="43.8907333" lon="12.64561"><ele>83.5</ele><time>2026-04-19T13:03:40.888Z</time></trkpt><trkpt lat="43.8905983" lon="12.645555"><ele>84.0</ele><time>2026-04-19T13:03:41.89Z</time></trkpt><trkpt lat="43.8904667" lon="12.6455083"><ele>84.5</ele><time>2026-04-19T13:03:42.889Z</time></trkpt><trkpt lat="43.8903317" lon="12.645465"><ele>85.0</ele><time>2026-04-19T13:03:43.886Z</time></trkpt><trkpt lat="43.8902033" lon="12.645425"><ele>86.75</ele><time>2026-04-19T13:03:44.885Z</time></trkpt><trkpt lat="43.8900767" lon="12.6453983"><ele>88.5</ele><time>2026-04-19T13:03:45.889Z</time></trkpt><trkpt lat="43.88995" lon="12.6453817"><ele>90.25</ele><time>2026-04-19T13:03:46.888Z</time></trkpt><trkpt lat="43.8898267" lon="12.645385"><ele>92.0</ele><time>2026-04-19T13:03:47.886Z</time></trkpt><trkpt lat="43.8897017" lon="12.64541"><ele>92.0</ele><time>2026-04-19T13:03:48.887Z</time></trkpt><trkpt lat="43.8895717" lon="12.6454533"><ele>92.0</ele><time>2026-04-19T13:03:49.885Z</time></trkpt><trkpt lat="43.8894367" lon="12.6455033"><ele>92.0</ele><time>2026-04-19T13:03:50.887Z</time></trkpt><trkpt lat="43.8892967" lon="12.6455617"><ele>92.0</ele><time>2026-04-19T13:03:51.885Z</time></trkpt><trkpt lat="43.8891583" lon="12.645615"><ele>93.5</ele><time>2026-04-19T13:03:52.887Z</time></trkpt><trkpt lat="43.8890267" lon="12.645655"><ele>95.0</ele><time>2026-04-19T13:03:53.887Z</time></trkpt><trkpt lat="43.888905" lon="12.64566"><ele>96.5</ele><time>2026-04-19T13:03:54.886Z</time></trkpt><trkpt lat="43.8887867" lon="12.645615"><ele>98.0</ele><time>2026-04-19T13:03:55.887Z</time></trkpt><trkpt lat="43.8886633" lon="12.64555"><ele>98.0</ele><time>2026-04-19T13:03:56.887Z</time></trkpt><trkpt lat="43.88853" lon="12.64548"><ele>98.0</ele><time>2026-04-19T13:03:57.886Z</time></trkpt><trkpt lat="43.8883883" lon="12.645405"><ele>98.0</ele><time>2026-04-19T13:03:58.886Z</time></trkpt><trkpt lat="43.8882517" lon="12.6453333"><ele>98.0</ele><time>2026-04-19T13:03:59.886Z</time></trkpt><trkpt lat="43.888115" lon="12.6452567"><ele>95.5</ele><time>2026-04-19T13:04:00.887Z</time></trkpt><trkpt lat="43.8879933" lon="12.6451867"><ele>93.0</ele><time>2026-04-19T13:04:01.886Z</time></trkpt><trkpt lat="43.8878833" lon="12.6451167"><ele>90.5</ele><time>2026-04-19T13:04:02.887Z</time></trkpt><trkpt lat="43.8877833" lon="12.645045"><ele>88.0</ele><time>2026-04-19T13:04:03.885Z</time></trkpt><trkpt lat="43.8876933" lon="12.644975"><ele>88.0</ele><time>2026-04-19T13:04:04.888Z</time></trkpt><trkpt lat="43.8876117" lon="12.64492"><ele>88.0</ele><time>2026-04-19T13:04:05.886Z</time></trkpt><trkpt lat="43.88754" lon="12.6448883"><ele>88.0</ele><time>2026-04-19T13:04:06.885Z</time></trkpt><trkpt lat="43.8874667" lon="12.6448867"><ele>88.0</ele><time>2026-04-19T13:04:07.888Z</time></trkpt><trkpt lat="43.887385" lon="12.6449017"><ele>88.0</ele><time>2026-04-19T13:04:08.885Z</time></trkpt><trkpt lat="43.8872733" lon="12.6449333"><ele>88.0</ele><time>2026-04-19T13:04:09.888Z</time></trkpt><trkpt lat="43.8871417" lon="12.64496"><ele>89.5</ele><time>2026-04-19T13:04:10.887Z</time></trkpt><trkpt lat="43.8870067" lon="12.644965"><ele>91.0</ele><time>2026-04-19T13:04:11.889Z</time></trkpt><trkpt lat="43.8868583" lon="12.644955"><ele>92.5</ele><time>2026-04-19T13:04:12.886Z</time></trkpt><trkpt lat="43.886695" lon="12.6449217"><ele>94.0</ele><time>2026-04-19T13:04:13.887Z</time></trkpt><trkpt lat="43.886525" lon="12.6448767"><ele>97.25</ele><time>2026-04-19T13:04:14.886Z</time></trkpt><trkpt lat="43.886375" lon="12.6448267"><ele>100.5</ele><time>2026-04-19T13:04:15.888Z</time></trkpt><trkpt lat="43.8862333" lon="12.6447683"><ele>103.75</ele><time>2026-04-19T13:04:16.886Z</time></trkpt><trkpt lat="43.8861033" lon="12.644695"><ele>107.0</ele><time>2026-04-19T13:04:17.886Z</time></trkpt><trkpt lat="43.8859833" lon="12.6445933"><ele>105.5</ele><time>2026-04-19T13:04:18.886Z</time></trkpt><trkpt lat="43.8858767" lon="12.64447"><ele>104.0</ele><time>2026-04-19T13:04:19.887Z</time></trkpt><trkpt lat="43.8857833" lon="12.6443483"><ele>102.5</ele><time>2026-04-19T13:04:20.886Z</time></trkpt><trkpt lat="43.885695" lon="12.6442417"><ele>101.0</ele><time>2026-04-19T13:04:21.888Z</time></trkpt><trkpt lat="43.88562" lon="12.6441333"><ele>101.0</ele><time>2026-04-19T13:04:22.886Z</time></trkpt><trkpt lat="43.8855567" lon="12.6440117"><ele>101.0</ele><time>2026-04-19T13:04:23.887Z</time></trkpt><trkpt lat="43.8854883" lon="12.643875"><ele>101.0</ele><time>2026-04-19T13:04:24.886Z</time></trkpt><trkpt lat="43.8854283" lon="12.6437283"><ele>101.0</ele><time>2026-04-19T13:04:25.887Z</time></trkpt><trkpt lat="43.8853767" lon="12.6435833"><ele>99.5</ele><time>2026-04-19T13:04:26.887Z</time></trkpt><trkpt lat="43.8853167" lon="12.6434383"><ele>98.0</ele><time>2026-04-19T13:04:27.888Z</time></trkpt><trkpt lat="43.88525" lon="12.6432967"><ele>96.5</ele><time>2026-04-19T13:04:28.885Z</time></trkpt><trkpt lat="43.8851733" lon="12.6431583"><ele>95.0</ele><time>2026-04-19T13:04:29.886Z</time></trkpt><trkpt lat="43.8850967" lon="12.6430433"><ele>95.8</ele><time>2026-04-19T13:04:30.886Z</time></trkpt><trkpt lat="43.8850217" lon="12.642945"><ele>96.6</ele><time>2026-04-19T13:04:31.889Z</time></trkpt><trkpt lat="43.8849283" lon="12.6428817"><ele>97.4</ele><time>2026-04-19T13:04:32.888Z</time></trkpt><trkpt lat="43.8848267" lon="12.642845"><ele>98.2</ele><time>2026-04-19T13:04:33.887Z</time></trkpt><trkpt lat="43.8847083" lon="12.6428267"><ele>99.0</ele><time>2026-04-19T13:04:34.885Z</time></trkpt><trkpt lat="43.8845783" lon="12.6428167"><ele>99.0</ele><time>2026-04-19T13:04:35.886Z</time></trkpt><trkpt lat="43.8844333" lon="12.6428117"><ele>99.0</ele><time>2026-04-19T13:04:36.888Z</time></trkpt><trkpt lat="43.8842917" lon="12.6428067"><ele>99.0</ele><time>2026-04-19T13:04:37.887Z</time></trkpt><trkpt lat="43.8841583" lon="12.6428033"><ele>99.0</ele><time>2026-04-19T13:04:38.888Z</time></trkpt><trkpt lat="43.8840283" lon="12.6427967"><ele>98.0</ele><time>2026-04-19T13:04:39.886Z</time></trkpt><trkpt lat="43.8838983" lon="12.6427933"><ele>97.0</ele><time>2026-04-19T13:04:40.885Z</time></trkpt><trkpt lat="43.88377" lon="12.6427917"><ele>96.0</ele><time>2026-04-19T13:04:41.89Z</time></trkpt><trkpt lat="43.8836417" lon="12.6428"><ele>95.0</ele><time>2026-04-19T13:04:42.885Z</time></trkpt><trkpt lat="43.8835183" lon="12.6428133"><ele>98.6</ele><time>2026-04-19T13:04:43.887Z</time></trkpt><trkpt lat="43.8834067" lon="12.6428317"><ele>102.2</ele><time>2026-04-19T13:04:44.886Z</time></trkpt><trkpt lat="43.8833067" lon="12.642845"><ele>105.80000000000001</ele><time>2026-04-19T13:04:45.886Z</time></trkpt><trkpt lat="43.8832183" lon="12.6428567"><ele>109.4</ele><time>2026-04-19T13:04:46.885Z</time></trkpt><trkpt lat="43.8831433" lon="12.64287"><ele>113.0</ele><time>2026-04-19T13:04:47.885Z</time></trkpt><trkpt lat="43.8830383" lon="12.6428883"><ele>113.0</ele><time>2026-04-19T13:04:49.887Z</time></trkpt><trkpt lat="43.882945" lon="12.6429"><ele>113.0</ele><time>2026-04-19T13:05:36.885Z</time></trkpt><trkpt lat="43.8827817" lon="12.64294"><ele>113.0</ele><time>2026-04-19T13:05:38.885Z</time></trkpt><trkpt lat="43.8826833" lon="12.642955"><ele>113.0</ele><time>2026-04-19T13:05:39.886Z</time></trkpt><trkpt lat="43.88258" lon="12.6429517"><ele>114.33333333333333</ele><time>2026-04-19T13:05:40.888Z</time></trkpt><trkpt lat="43.8824233" lon="12.6429383"><ele>115.66666666666666</ele><time>2026-04-19T13:05:41.887Z</time></trkpt><trkpt lat="43.88224" lon="12.6429233"><ele>117.0</ele><time>2026-04-19T13:05:42.886Z</time></trkpt><trkpt lat="43.882075" lon="12.6429183"><ele>117.0</ele><time>2026-04-19T13:05:43.886Z</time></trkpt><trkpt lat="43.8819" lon="12.6429033"><ele>117.0</ele><time>2026-04-19T13:05:44.886Z</time></trkpt><trkpt lat="43.8816867" lon="12.6428833"><ele>117.0</ele><time>2026-04-19T13:05:45.885Z</time></trkpt><trkpt lat="43.88155" lon="12.64287"><ele>118.0</ele><time>2026-04-19T13:05:46.886Z</time></trkpt><trkpt lat="43.8814183" lon="12.6428567"><ele>119.0</ele><time>2026-04-19T13:05:47.885Z</time></trkpt><trkpt lat="43.8812933" lon="12.6428517"><ele>120.0</ele><time>2026-04-19T13:05:48.885Z</time></trkpt><trkpt lat="43.8811667" lon="12.6428733"><ele>121.0</ele><time>2026-04-19T13:05:49.887Z</time></trkpt><trkpt lat="43.8810317" lon="12.6429133"><ele>119.5</ele><time>2026-04-19T13:05:50.885Z</time></trkpt><trkpt lat="43.8808917" lon="12.6429567"><ele>118.0</ele><time>2026-04-19T13:05:51.886Z</time></trkpt><trkpt lat="43.8807583" lon="12.643005"><ele>116.5</ele><time>2026-04-19T13:05:52.886Z</time></trkpt><trkpt lat="43.8806267" lon="12.643055"><ele>115.0</ele><time>2026-04-19T13:05:53.886Z</time></trkpt><trkpt lat="43.8804883" lon="12.6430917"><ele>115.0</ele><time>2026-04-19T13:05:54.886Z</time></trkpt><trkpt lat="43.880345" lon="12.643135"><ele>115.0</ele><time>2026-04-19T13:05:55.889Z</time></trkpt><trkpt lat="43.8802033" lon="12.6431817"><ele>115.0</ele><time>2026-04-19T13:05:56.889Z</time></trkpt><trkpt lat="43.8800617" lon="12.643215"><ele>115.0</ele><time>2026-04-19T13:05:57.886Z</time></trkpt><trkpt lat="43.87992" lon="12.643235"><ele>113.0</ele><time>2026-04-19T13:05:58.885Z</time></trkpt><trkpt lat="43.8797783" lon="12.6432417"><ele>111.0</ele><time>2026-04-19T13:05:59.885Z</time></trkpt><trkpt lat="43.87963" lon="12.643245"><ele>109.0</ele><time>2026-04-19T13:06:00.885Z</time></trkpt><trkpt lat="43.8794817" lon="12.6432567"><ele>107.0</ele><time>2026-04-19T13:06:01.888Z</time></trkpt><trkpt lat="43.879335" lon="12.6432833"><ele>106.75</ele><time>2026-04-19T13:06:02.885Z</time></trkpt><trkpt lat="43.8791867" lon="12.64331"><ele>106.5</ele><time>2026-04-19T13:06:03.888Z</time></trkpt><trkpt lat="43.87904" lon="12.6433333"><ele>106.25</ele><time>2026-04-19T13:06:04.886Z</time></trkpt><trkpt lat="43.878905" lon="12.6433533"><ele>106.0</ele><time>2026-04-19T13:06:05.885Z</time></trkpt><trkpt lat="43.87878" lon="12.64337"><ele>106.0</ele><time>2026-04-19T13:06:06.886Z</time></trkpt><trkpt lat="43.878665" lon="12.6434017"><ele>106.0</ele><time>2026-04-19T13:06:07.889Z</time></trkpt><trkpt lat="43.8785567" lon="12.64345"><ele>106.0</ele><time>2026-04-19T13:06:08.886Z</time></trkpt><trkpt lat="43.878455" lon="12.6435117"><ele>106.0</ele><time>2026-04-19T13:06:09.887Z</time></trkpt><trkpt lat="43.8783717" lon="12.6436017"><ele>106.0</ele><time>2026-04-19T13:06:10.887Z</time></trkpt><trkpt lat="43.878295" lon="12.6437117"><ele>110.6</ele><time>2026-04-19T13:06:11.886Z</time></trkpt><trkpt lat="43.878215" lon="12.643825"><ele>115.19999999999999</ele><time>2026-04-19T13:06:12.887Z</time></trkpt><trkpt lat="43.8781367" lon="12.64392"><ele>119.80000000000001</ele><time>2026-04-19T13:06:13.888Z</time></trkpt><trkpt lat="43.878055" lon="12.6439833"><ele>124.4</ele><time>2026-04-19T13:06:14.887Z</time></trkpt><trkpt lat="43.8779683" lon="12.6440183"><ele>129.0</ele><time>2026-04-19T13:06:15.887Z</time></trkpt><trkpt lat="43.8778783" lon="12.64404"><ele>129.0</ele><time>2026-04-19T13:06:16.886Z</time></trkpt><trkpt lat="43.8777717" lon="12.6440367"><ele>129.0</ele><time>2026-04-19T13:06:17.886Z</time></trkpt><trkpt lat="43.87764" lon="12.644"><ele>129.0</ele><time>2026-04-19T13:06:18.886Z</time></trkpt><trkpt lat="43.8775133" lon="12.6439567"><ele>129.0</ele><time>2026-04-19T13:06:19.887Z</time></trkpt><trkpt lat="43.87739" lon="12.6439033"><ele>125.80000000000001</ele><time>2026-04-19T13:06:20.886Z</time></trkpt><trkpt lat="43.877275" lon="12.6438417"><ele>122.60000000000001</ele><time>2026-04-19T13:06:21.888Z</time></trkpt><trkpt lat="43.8771833" lon="12.643765"><ele>119.4</ele><time>2026-04-19T13:06:22.889Z</time></trkpt><trkpt lat="43.8771067" lon="12.6436833"><ele>116.2</ele><time>2026-04-19T13:06:23.888Z</time></trkpt><trkpt lat="43.8770483" lon="12.6435933"><ele>113.0</ele><time>2026-04-19T13:06:24.887Z</time></trkpt><trkpt lat="43.8770133" lon="12.6434917"><ele>112.2</ele><time>2026-04-19T13:06:25.887Z</time></trkpt><trkpt lat="43.8769883" lon="12.6433833"><ele>111.4</ele><time>2026-04-19T13:06:26.886Z</time></trkpt><trkpt lat="43.876975" lon="12.643225"><ele>110.60000000000001</ele><time>2026-04-19T13:06:28.885Z</time></trkpt><trkpt lat="43.8769317" lon="12.643065"><ele>109.80000000000001</ele><time>2026-04-19T13:06:30.888Z</time></trkpt><trkpt lat="43.8768967" lon="12.642965"><ele>109.0</ele><time>2026-04-19T13:06:31.886Z</time></trkpt><trkpt lat="43.87686" lon="12.6428383"><ele>108.5</ele><time>2026-04-19T13:06:32.887Z</time></trkpt><trkpt lat="43.8768283" lon="12.6427033"><ele>108.0</ele><time>2026-04-19T13:06:33.885Z</time></trkpt><trkpt lat="43.8767817" lon="12.642545"><ele>107.5</ele><time>2026-04-19T13:06:34.886Z</time></trkpt><trkpt lat="43.876735" lon="12.642375"><ele>107.0</ele><time>2026-04-19T13:06:35.886Z</time></trkpt><trkpt lat="43.876695" lon="12.6422117"><ele>108.0</ele><time>2026-04-19T13:06:36.886Z</time></trkpt><trkpt lat="43.876655" lon="12.642065"><ele>108.99999999999999</ele><time>2026-04-19T13:06:37.887Z</time></trkpt><trkpt lat="43.8766183" lon="12.64193"><ele>109.99999999999999</ele><time>2026-04-19T13:06:38.886Z</time></trkpt><trkpt lat="43.8765717" lon="12.6418167"><ele>111.0</ele><time>2026-04-19T13:06:39.886Z</time></trkpt><trkpt lat="43.876515" lon="12.641725"><ele>112.0</ele><time>2026-04-19T13:06:40.888Z</time></trkpt><trkpt lat="43.87645" lon="12.641645"><ele>112.00000000000001</ele><time>2026-04-19T13:06:41.885Z</time></trkpt><trkpt lat="43.8763867" lon="12.6415767"><ele>112.0</ele><time>2026-04-19T13:06:42.886Z</time></trkpt><trkpt lat="43.87632" lon="12.6414983"><ele>112.0</ele><time>2026-04-19T13:06:43.886Z</time></trkpt><trkpt lat="43.8762567" lon="12.6414117"><ele>112.0</ele><time>2026-04-19T13:06:44.885Z</time></trkpt><trkpt lat="43.876195" lon="12.6413217"><ele>112.00000000000001</ele><time>2026-04-19T13:06:45.885Z</time></trkpt><trkpt lat="43.8761317" lon="12.641225"><ele>112.0</ele><time>2026-04-19T13:06:46.886Z</time></trkpt><trkpt lat="43.876075" lon="12.641115"><ele>112.0</ele><time>2026-04-19T13:06:47.885Z</time></trkpt><trkpt lat="43.8760317" lon="12.641005"><ele>111.99999999999999</ele><time>2026-04-19T13:06:48.887Z</time></trkpt><trkpt lat="43.8759767" lon="12.640875"><ele>111.99999999999999</ele><time>2026-04-19T13:06:49.887Z</time></trkpt><trkpt lat="43.875915" lon="12.6407383"><ele>112.0</ele><time>2026-04-19T13:06:50.886Z</time></trkpt><trkpt lat="43.8758583" lon="12.640605"><ele>112.0</ele><time>2026-04-19T13:06:51.886Z</time></trkpt><trkpt lat="43.8758183" lon="12.6404783"><ele>112.0</ele><time>2026-04-19T13:06:52.887Z</time></trkpt><trkpt lat="43.8757683" lon="12.6403333"><ele>112.0</ele><time>2026-04-19T13:06:53.885Z</time></trkpt><trkpt lat="43.875705" lon="12.64018"><ele>112.0</ele><time>2026-04-19T13:06:54.887Z</time></trkpt><trkpt lat="43.8756233" lon="12.6400317"><ele>112.0</ele><time>2026-04-19T13:06:55.886Z</time></trkpt><trkpt lat="43.87554" lon="12.6398683"><ele>112.0</ele><time>2026-04-19T13:06:56.885Z</time></trkpt><trkpt lat="43.8754483" lon="12.6397"><ele>112.0</ele><time>2026-04-19T13:06:57.886Z</time></trkpt><trkpt lat="43.8753617" lon="12.6395467"><ele>112.0</ele><time>2026-04-19T13:06:58.887Z</time></trkpt><trkpt lat="43.875285" lon="12.6394033"><ele>112.0</ele><time>2026-04-19T13:06:59.885Z</time></trkpt><trkpt lat="43.8752033" lon="12.639265"><ele>113.5</ele><time>2026-04-19T13:07:00.886Z</time></trkpt><trkpt lat="43.87512" lon="12.63914"><ele>115.0</ele><time>2026-04-19T13:07:01.886Z</time></trkpt><trkpt lat="43.8750333" lon="12.6390183"><ele>116.5</ele><time>2026-04-19T13:07:02.886Z</time></trkpt><trkpt lat="43.8749567" lon="12.6389117"><ele>118.0</ele><time>2026-04-19T13:07:03.887Z</time></trkpt><trkpt lat="43.8748817" lon="12.6388167"><ele>118.0</ele><time>2026-04-19T13:07:04.886Z</time></trkpt><trkpt lat="43.8747633" lon="12.63874"><ele>118.0</ele><time>2026-04-19T13:07:05.887Z</time></trkpt><trkpt lat="43.8746517" lon="12.6386767"><ele>118.0</ele><time>2026-04-19T13:07:06.886Z</time></trkpt><trkpt lat="43.8745217" lon="12.6386017"><ele>118.0</ele><time>2026-04-19T13:07:07.888Z</time></trkpt><trkpt lat="43.8743917" lon="12.6385117"><ele>117.75</ele><time>2026-04-19T13:07:08.885Z</time></trkpt><trkpt lat="43.8742583" lon="12.6384117"><ele>117.5</ele><time>2026-04-19T13:07:09.887Z</time></trkpt><trkpt lat="43.8741333" lon="12.6383133"><ele>117.25</ele><time>2026-04-19T13:07:10.886Z</time></trkpt><trkpt lat="43.8740017" lon="12.6382083"><ele>117.0</ele><time>2026-04-19T13:07:11.886Z</time></trkpt><trkpt lat="43.8738767" lon="12.6380983"><ele>117.0</ele><time>2026-04-19T13:07:12.888Z</time></trkpt><trkpt lat="43.87376" lon="12.6379767"><ele>117.0</ele><time>2026-04-19T13:07:13.886Z</time></trkpt><trkpt lat="43.8736517" lon="12.6378367"><ele>117.0</ele><time>2026-04-19T13:07:14.886Z</time></trkpt><trkpt lat="43.8735417" lon="12.6376867"><ele>117.0</ele><time>2026-04-19T13:07:15.885Z</time></trkpt><trkpt lat="43.8734383" lon="12.637525"><ele>118.66666666666666</ele><time>2026-04-19T13:07:16.886Z</time></trkpt><trkpt lat="43.8733317" lon="12.63735"><ele>120.33333333333333</ele><time>2026-04-19T13:07:17.886Z</time></trkpt><trkpt lat="43.87322" lon="12.6371717"><ele>122.0</ele><time>2026-04-19T13:07:18.887Z</time></trkpt><trkpt lat="43.8731117" lon="12.636985"><ele>120.66666666666666</ele><time>2026-04-19T13:07:19.886Z</time></trkpt><trkpt lat="43.87302" lon="12.6368033"><ele>119.33333333333334</ele><time>2026-04-19T13:07:20.886Z</time></trkpt><trkpt lat="43.8729317" lon="12.6366217"><ele>118.0</ele><time>2026-04-19T13:07:21.887Z</time></trkpt><trkpt lat="43.8728467" lon="12.63644"><ele>118.0</ele><time>2026-04-19T13:07:22.886Z</time></trkpt><trkpt lat="43.8727483" lon="12.636235"><ele>118.0</ele><time>2026-04-19T13:07:23.886Z</time></trkpt><trkpt lat="43.87267" lon="12.636045"><ele>118.0</ele><time>2026-04-19T13:07:24.89Z</time></trkpt><trkpt lat="43.8725983" lon="12.63586"><ele>118.0</ele><time>2026-04-19T13:07:25.887Z</time></trkpt><trkpt lat="43.8725233" lon="12.6356717"><ele>118.0</ele><time>2026-04-19T13:07:26.888Z</time></trkpt><trkpt lat="43.8724467" lon="12.6354817"><ele>118.0</ele><time>2026-04-19T13:07:27.886Z</time></trkpt><trkpt lat="43.8723683" lon="12.6353"><ele>118.0</ele><time>2026-04-19T13:07:28.886Z</time></trkpt><trkpt lat="43.8722933" lon="12.63513"><ele>118.0</ele><time>2026-04-19T13:07:29.885Z</time></trkpt><trkpt lat="43.8722183" lon="12.63499"><ele>118.0</ele><time>2026-04-19T13:07:30.885Z</time></trkpt><trkpt lat="43.8721433" lon="12.6348783"><ele>118.0</ele><time>2026-04-19T13:07:31.887Z</time></trkpt><trkpt lat="43.8720517" lon="12.634785"><ele>118.0</ele><time>2026-04-19T13:07:32.886Z</time></trkpt><trkpt lat="43.8719567" lon="12.6347083"><ele>118.00000000000001</ele><time>2026-04-19T13:07:33.887Z</time></trkpt><trkpt lat="43.871865" lon="12.6346433"><ele>118.00000000000001</ele><time>2026-04-19T13:07:34.889Z</time></trkpt><trkpt lat="43.87177" lon="12.63457"><ele>118.0</ele><time>2026-04-19T13:07:35.884Z</time></trkpt><trkpt lat="43.8716767" lon="12.63449"><ele>118.0</ele><time>2026-04-19T13:07:36.888Z</time></trkpt><trkpt lat="43.8715817" lon="12.6343883"><ele>118.75</ele><time>2026-04-19T13:07:37.888Z</time></trkpt><trkpt lat="43.8714767" lon="12.6342733"><ele>119.5</ele><time>2026-04-19T13:07:38.886Z</time></trkpt><trkpt lat="43.8713667" lon="12.63415"><ele>120.25</ele><time>2026-04-19T13:07:39.888Z</time></trkpt><trkpt lat="43.8712517" lon="12.6340133"><ele>121.0</ele><time>2026-04-19T13:07:40.889Z</time></trkpt><trkpt lat="43.8711333" lon="12.6338833"><ele>121.0</ele><time>2026-04-19T13:07:41.886Z</time></trkpt><trkpt lat="43.871015" lon="12.6337567"><ele>121.0</ele><time>2026-04-19T13:07:42.888Z</time></trkpt><trkpt lat="43.8709067" lon="12.6336417"><ele>121.0</ele><time>2026-04-19T13:07:43.887Z</time></trkpt><trkpt lat="43.8708067" lon="12.6335383"><ele>121.0</ele><time>2026-04-19T13:07:44.885Z</time></trkpt><trkpt lat="43.8707167" lon="12.6334267"><ele>121.75</ele><time>2026-04-19T13:07:45.885Z</time></trkpt><trkpt lat="43.87064" lon="12.6333067"><ele>122.5</ele><time>2026-04-19T13:07:46.887Z</time></trkpt><trkpt lat="43.8705733" lon="12.6331733"><ele>123.25</ele><time>2026-04-19T13:07:47.885Z</time></trkpt><trkpt lat="43.8705117" lon="12.633025"><ele>124.0</ele><time>2026-04-19T13:07:48.887Z</time></trkpt><trkpt lat="43.8704517" lon="12.6328567"><ele>125.33333333333334</ele><time>2026-04-19T13:07:49.887Z</time></trkpt><trkpt lat="43.8703983" lon="12.63267"><ele>126.66666666666666</ele><time>2026-04-19T13:07:50.886Z</time></trkpt><trkpt lat="43.87034" lon="12.6324733"><ele>128.0</ele><time>2026-04-19T13:07:51.889Z</time></trkpt><trkpt lat="43.8702767" lon="12.6322783"><ele>128.0</ele><time>2026-04-19T13:07:52.886Z</time></trkpt><trkpt lat="43.8702117" lon="12.6320917"><ele>128.0</ele><time>2026-04-19T13:07:53.886Z</time></trkpt><trkpt lat="43.87015" lon="12.631915"><ele>128.0</ele><time>2026-04-19T13:07:54.887Z</time></trkpt><trkpt lat="43.8700917" lon="12.6317367"><ele>128.0</ele><time>2026-04-19T13:07:55.89Z</time></trkpt><trkpt lat="43.870035" lon="12.631555"><ele>128.0</ele><time>2026-04-19T13:07:56.886Z</time></trkpt><trkpt lat="43.8699833" lon="12.6313883"><ele>128.0</ele><time>2026-04-19T13:07:57.889Z</time></trkpt><trkpt lat="43.869935" lon="12.63124"><ele>128.0</ele><time>2026-04-19T13:07:58.887Z</time></trkpt><trkpt lat="43.8698883" lon="12.6311083"><ele>128.0</ele><time>2026-04-19T13:07:59.889Z</time></trkpt><trkpt lat="43.8698417" lon="12.6309733"><ele>128.0</ele><time>2026-04-19T13:08:00.888Z</time></trkpt><trkpt lat="43.8697933" lon="12.630825"><ele>128.0</ele><time>2026-04-19T13:08:01.886Z</time></trkpt><trkpt lat="43.8697433" lon="12.6306633"><ele>128.0</ele><time>2026-04-19T13:08:02.884Z</time></trkpt><trkpt lat="43.86969" lon="12.630485"><ele>128.0</ele><time>2026-04-19T13:08:03.885Z</time></trkpt><trkpt lat="43.869635" lon="12.6303033"><ele>128.75</ele><time>2026-04-19T13:08:04.885Z</time></trkpt><trkpt lat="43.8695733" lon="12.6301317"><ele>129.5</ele><time>2026-04-19T13:08:05.886Z</time></trkpt><trkpt lat="43.8695017" lon="12.6299583"><ele>130.25</ele><time>2026-04-19T13:08:06.888Z</time></trkpt><trkpt lat="43.8694283" lon="12.6297933"><ele>131.0</ele><time>2026-04-19T13:08:07.885Z</time></trkpt><trkpt lat="43.8693517" lon="12.6296367"><ele>131.0</ele><time>2026-04-19T13:08:08.884Z</time></trkpt><trkpt lat="43.869285" lon="12.6295033"><ele>131.0</ele><time>2026-04-19T13:08:09.885Z</time></trkpt><trkpt lat="43.8692267" lon="12.629395"><ele>131.0</ele><time>2026-04-19T13:08:10.885Z</time></trkpt><trkpt lat="43.8691817" lon="12.6293133"><ele>131.0</ele><time>2026-04-19T13:08:11.889Z</time></trkpt><trkpt lat="43.869115" lon="12.629195"><ele>131.0</ele><time>2026-04-19T13:08:13.886Z</time></trkpt><trkpt lat="43.86909" lon="12.6291"><ele>130.16666666666666</ele><time>2026-04-19T13:08:15.885Z</time></trkpt><trkpt lat="43.8691167" lon="12.628985"><ele>129.33333333333331</ele><time>2026-04-19T13:08:17.885Z</time></trkpt><trkpt lat="43.8691533" lon="12.6289"><ele>128.5</ele><time>2026-04-19T13:08:18.888Z</time></trkpt><trkpt lat="43.8692167" lon="12.6287983"><ele>127.66666666666666</ele><time>2026-04-19T13:08:19.887Z</time></trkpt><trkpt lat="43.8692717" lon="12.6287083"><ele>126.83333333333333</ele><time>2026-04-19T13:08:20.887Z</time></trkpt><trkpt lat="43.8693267" lon="12.6286217"><ele>126.0</ele><time>2026-04-19T13:08:21.886Z</time></trkpt><trkpt lat="43.86938" lon="12.6285517"><ele>127.66666666666667</ele><time>2026-04-19T13:08:22.889Z</time></trkpt><trkpt lat="43.86948" lon="12.628465"><ele>129.33333333333334</ele><time>2026-04-19T13:08:24.888Z</time></trkpt><trkpt lat="43.869555" lon="12.628465"><ele>131.0</ele><time>2026-04-19T13:08:26.886Z</time></trkpt><trkpt lat="43.86963" lon="12.6285567"><ele>132.66666666666669</ele><time>2026-04-19T13:08:28.885Z</time></trkpt><trkpt lat="43.8696767" lon="12.6286283"><ele>134.33333333333334</ele><time>2026-04-19T13:08:29.885Z</time></trkpt><trkpt lat="43.8697333" lon="12.6286867"><ele>136.0</ele><time>2026-04-19T13:08:30.885Z</time></trkpt><trkpt lat="43.8697933" lon="12.62872"><ele>136.0</ele><time>2026-04-19T13:08:31.885Z</time></trkpt><trkpt lat="43.8698567" lon="12.628725"><ele>136.0</ele><time>2026-04-19T13:08:32.884Z</time></trkpt><trkpt lat="43.8699667" lon="12.6286533"><ele>136.0</ele><time>2026-04-19T13:08:34.886Z</time></trkpt><trkpt lat="43.8700217" lon="12.628595"><ele>136.0</ele><time>2026-04-19T13:08:35.889Z</time></trkpt><trkpt lat="43.8700783" lon="12.6285233"><ele>136.0</ele><time>2026-04-19T13:08:36.888Z</time></trkpt><trkpt lat="43.870135" lon="12.6284517"><ele>136.0</ele><time>2026-04-19T13:08:37.888Z</time></trkpt><trkpt lat="43.8701883" lon="12.6283683"><ele>139.83333333333334</ele><time>2026-04-19T13:08:38.889Z</time></trkpt><trkpt lat="43.8702383" lon="12.6282733"><ele>143.66666666666669</ele><time>2026-04-19T13:08:39.886Z</time></trkpt><trkpt lat="43.87028" lon="12.62818"><ele>147.5</ele><time>2026-04-19T13:08:40.889Z</time></trkpt><trkpt lat="43.8703117" lon="12.62809"><ele>151.33333333333334</ele><time>2026-04-19T13:08:41.889Z</time></trkpt><trkpt lat="43.8703233" lon="12.6279183"><ele>155.16666666666666</ele><time>2026-04-19T13:08:43.889Z</time></trkpt><trkpt lat="43.8703433" lon="12.6278333"><ele>159.0</ele><time>2026-04-19T13:08:44.888Z</time></trkpt><trkpt lat="43.87037" lon="12.6277517"><ele>159.0</ele><time>2026-04-19T13:08:45.889Z</time></trkpt><trkpt lat="43.8704583" lon="12.6276583"><ele>159.0</ele><time>2026-04-19T13:08:47.886Z</time></trkpt><trkpt lat="43.8705517" lon="12.6276733"><ele>159.0</ele><time>2026-04-19T13:08:48.889Z</time></trkpt><trkpt lat="43.8706567" lon="12.6276933"><ele>159.0</ele><time>2026-04-19T13:08:49.891Z</time></trkpt><trkpt lat="43.8707633" lon="12.6276867"><ele>159.0</ele><time>2026-04-19T13:08:50.889Z</time></trkpt><trkpt lat="43.87086" lon="12.6276717"><ele>161.16666666666666</ele><time>2026-04-19T13:08:51.889Z</time></trkpt><trkpt lat="43.870945" lon="12.6276567"><ele>163.33333333333334</ele><time>2026-04-19T13:08:52.889Z</time></trkpt><trkpt lat="43.8710217" lon="12.62764"><ele>165.5</ele><time>2026-04-19T13:08:53.888Z</time></trkpt><trkpt lat="43.8711017" lon="12.6276283"><ele>167.66666666666669</ele><time>2026-04-19T13:08:54.889Z</time></trkpt><trkpt lat="43.8711817" lon="12.627625"><ele>169.83333333333334</ele><time>2026-04-19T13:08:55.888Z</time></trkpt><trkpt lat="43.8712667" lon="12.6276283"><ele>172.0</ele><time>2026-04-19T13:08:56.889Z</time></trkpt><trkpt lat="43.8713467" lon="12.62763"><ele>172.0</ele><time>2026-04-19T13:08:57.889Z</time></trkpt><trkpt lat="43.8714333" lon="12.6276267"><ele>172.0</ele><time>2026-04-19T13:08:58.888Z</time></trkpt><trkpt lat="43.87152" lon="12.6276167"><ele>172.0</ele><time>2026-04-19T13:08:59.886Z</time></trkpt><trkpt lat="43.871605" lon="12.62761"><ele>172.0</ele><time>2026-04-19T13:09:00.886Z</time></trkpt><trkpt lat="43.8716917" lon="12.6276017"><ele>172.0</ele><time>2026-04-19T13:09:01.886Z</time></trkpt><trkpt lat="43.8717783" lon="12.6275917"><ele>172.0</ele><time>2026-04-19T13:09:02.886Z</time></trkpt><trkpt lat="43.8718767" lon="12.6275867"><ele>174.39999999999998</ele><time>2026-04-19T13:09:03.886Z</time></trkpt><trkpt lat="43.8719833" lon="12.62758"><ele>176.79999999999998</ele><time>2026-04-19T13:09:04.886Z</time></trkpt><trkpt lat="43.8720933" lon="12.6275833"><ele>179.2</ele><time>2026-04-19T13:09:05.885Z</time></trkpt><trkpt lat="43.8722067" lon="12.6275817"><ele>181.6</ele><time>2026-04-19T13:09:06.885Z</time></trkpt><trkpt lat="43.8723133" lon="12.6275867"><ele>184.0</ele><time>2026-04-19T13:09:07.885Z</time></trkpt><trkpt lat="43.8724217" lon="12.627595"><ele>184.0</ele><time>2026-04-19T13:09:08.885Z</time></trkpt><trkpt lat="43.8725233" lon="12.6276033"><ele>184.0</ele><time>2026-04-19T13:09:09.886Z</time></trkpt><trkpt lat="43.872605" lon="12.6276117"><ele>184.0</ele><time>2026-04-19T13:09:10.889Z</time></trkpt><trkpt lat="43.8726867" lon="12.62764"><ele>184.0</ele><time>2026-04-19T13:09:11.888Z</time></trkpt><trkpt lat="43.872755" lon="12.627675"><ele>184.0</ele><time>2026-04-19T13:09:12.888Z</time></trkpt><trkpt lat="43.8728217" lon="12.6277133"><ele>184.0</ele><time>2026-04-19T13:09:13.889Z</time></trkpt><trkpt lat="43.872865" lon="12.6277867"><ele>187.66666666666669</ele><time>2026-04-19T13:09:14.888Z</time></trkpt><trkpt lat="43.872915" lon="12.6278817"><ele>191.33333333333334</ele><time>2026-04-19T13:09:15.891Z</time></trkpt><trkpt lat="43.8729467" lon="12.6279833"><ele>195.0</ele><time>2026-04-19T13:09:16.888Z</time></trkpt><trkpt lat="43.8729683" lon="12.628085"><ele>198.66666666666669</ele><time>2026-04-19T13:09:17.889Z</time></trkpt><trkpt lat="43.872985" lon="12.6281867"><ele>202.33333333333334</ele><time>2026-04-19T13:09:18.888Z</time></trkpt><trkpt lat="43.8729983" lon="12.6282883"><ele>206.0</ele><time>2026-04-19T13:09:19.889Z</time></trkpt><trkpt lat="43.87301" lon="12.628385"><ele>206.0</ele><time>2026-04-19T13:09:20.889Z</time></trkpt><trkpt lat="43.87302" lon="12.6285267"><ele>206.0</ele><time>2026-04-19T13:09:22.889Z</time></trkpt><trkpt lat="43.8730283" lon="12.62865"><ele>206.0</ele><time>2026-04-19T13:09:24.889Z</time></trkpt><trkpt lat="43.8730433" lon="12.6287817"><ele>206.0</ele><time>2026-04-19T13:09:26.889Z</time></trkpt><trkpt lat="43.8730533" lon="12.6289167"><ele>206.0</ele><time>2026-04-19T13:09:28.886Z</time></trkpt><trkpt lat="43.873055" lon="12.629005"><ele>205.66666666666669</ele><time>2026-04-19T13:09:29.884Z</time></trkpt><trkpt lat="43.8730617" lon="12.6291183"><ele>205.33333333333334</ele><time>2026-04-19T13:09:30.888Z</time></trkpt><trkpt lat="43.8730733" lon="12.6292367"><ele>205.0</ele><time>2026-04-19T13:09:31.886Z</time></trkpt><trkpt lat="43.873085" lon="12.6293333"><ele>204.66666666666669</ele><time>2026-04-19T13:09:32.889Z</time></trkpt><trkpt lat="43.8731283" lon="12.6294517"><ele>204.33333333333334</ele><time>2026-04-19T13:09:34.885Z</time></trkpt><trkpt lat="43.8732033" lon="12.62949"><ele>204.0</ele><time>2026-04-19T13:09:36.888Z</time></trkpt><trkpt lat="43.8732583" lon="12.6294433"><ele>204.0</ele><time>2026-04-19T13:09:37.889Z</time></trkpt><trkpt lat="43.8733317" lon="12.629365"><ele>204.0</ele><time>2026-04-19T13:09:38.885Z</time></trkpt><trkpt lat="43.8734117" lon="12.629285"><ele>204.0</ele><time>2026-04-19T13:09:39.889Z</time></trkpt><trkpt lat="43.8734917" lon="12.62919"><ele>204.0</ele><time>2026-04-19T13:09:40.889Z</time></trkpt><trkpt lat="43.8735633" lon="12.6291067"><ele>204.0</ele><time>2026-04-19T13:09:41.888Z</time></trkpt><trkpt lat="43.8736233" lon="12.6290117"><ele>207.79999999999998</ele><time>2026-04-19T13:09:42.887Z</time></trkpt><trkpt lat="43.873685" lon="12.62892"><ele>211.6</ele><time>2026-04-19T13:09:43.887Z</time></trkpt><trkpt lat="43.87375" lon="12.6288283"><ele>215.4</ele><time>2026-04-19T13:09:44.885Z</time></trkpt><trkpt lat="43.8738233" lon="12.6287383"><ele>219.2</ele><time>2026-04-19T13:09:45.888Z</time></trkpt><trkpt lat="43.8739033" lon="12.628645"><ele>223.0</ele><time>2026-04-19T13:09:46.888Z</time></trkpt><trkpt lat="43.8739883" lon="12.62855"><ele>224.0</ele><time>2026-04-19T13:09:47.885Z</time></trkpt><trkpt lat="43.8740733" lon="12.6284533"><ele>225.0</ele><time>2026-04-19T13:09:48.886Z</time></trkpt><trkpt lat="43.87416" lon="12.6283583"><ele>226.0</ele><time>2026-04-19T13:09:49.886Z</time></trkpt><trkpt lat="43.8742467" lon="12.62826"><ele>227.0</ele><time>2026-04-19T13:09:50.884Z</time></trkpt><trkpt lat="43.8743333" lon="12.628155"><ele>228.0</ele><time>2026-04-19T13:09:51.888Z</time></trkpt><trkpt lat="43.874405" lon="12.6280633"><ele>231.4</ele><time>2026-04-19T13:09:52.885Z</time></trkpt><trkpt lat="43.8744667" lon="12.6279917"><ele>234.8</ele><time>2026-04-19T13:09:53.885Z</time></trkpt><trkpt lat="43.8745217" lon="12.6279483"><ele>238.2</ele><time>2026-04-19T13:09:54.885Z</time></trkpt><trkpt lat="43.874655" lon="12.62791"><ele>241.6</ele><time>2026-04-19T13:09:56.885Z</time></trkpt><trkpt lat="43.8747433" lon="12.6278933"><ele>245.0</ele><time>2026-04-19T13:09:57.886Z</time></trkpt><trkpt lat="43.8748333" lon="12.627885"><ele>245.00000000000003</ele><time>2026-04-19T13:09:58.887Z</time></trkpt><trkpt lat="43.8749233" lon="12.6278917"><ele>245.0</ele><time>2026-04-19T13:09:59.886Z</time></trkpt><trkpt lat="43.8750033" lon="12.6279067"><ele>245.0</ele><time>2026-04-19T13:10:00.886Z</time></trkpt><trkpt lat="43.8750783" lon="12.6279217"><ele>245.0</ele><time>2026-04-19T13:10:01.889Z</time></trkpt><trkpt lat="43.8751617" lon="12.6279367"><ele>245.00000000000003</ele><time>2026-04-19T13:10:02.889Z</time></trkpt><trkpt lat="43.8752467" lon="12.6279517"><ele>245.0</ele><time>2026-04-19T13:10:03.887Z</time></trkpt><trkpt lat="43.8753367" lon="12.627965"><ele>249.00000000000003</ele><time>2026-04-19T13:10:04.886Z</time></trkpt><trkpt lat="43.875425" lon="12.627985"><ele>253.0</ele><time>2026-04-19T13:10:05.886Z</time></trkpt><trkpt lat="43.8755033" lon="12.6280183"><ele>257.0</ele><time>2026-04-19T13:10:06.885Z</time></trkpt><trkpt lat="43.8755783" lon="12.6280683"><ele>261.0</ele><time>2026-04-19T13:10:07.888Z</time></trkpt><trkpt lat="43.87565" lon="12.628145"><ele>265.0</ele><time>2026-04-19T13:10:08.885Z</time></trkpt><trkpt lat="43.8757167" lon="12.6282333"><ele>269.0</ele><time>2026-04-19T13:10:09.886Z</time></trkpt><trkpt lat="43.875785" lon="12.6283083"><ele>269.0</ele><time>2026-04-19T13:10:10.889Z</time></trkpt><trkpt lat="43.8758517" lon="12.6283917"><ele>269.0</ele><time>2026-04-19T13:10:11.888Z</time></trkpt><trkpt lat="43.875915" lon="12.6284983"><ele>269.0</ele><time>2026-04-19T13:10:12.885Z</time></trkpt><trkpt lat="43.875965" lon="12.6285983"><ele>269.0</ele><time>2026-04-19T13:10:13.887Z</time></trkpt><trkpt lat="43.8760033" lon="12.628705"><ele>269.0</ele><time>2026-04-19T13:10:14.884Z</time></trkpt><trkpt lat="43.8760383" lon="12.6288083"><ele>269.0</ele><time>2026-04-19T13:10:15.885Z</time></trkpt><trkpt lat="43.87605" lon="12.628905"><ele>269.1666666666667</ele><time>2026-04-19T13:10:16.885Z</time></trkpt><trkpt lat="43.87607" lon="12.6289917"><ele>269.33333333333337</ele><time>2026-04-19T13:10:17.89Z</time></trkpt><trkpt lat="43.87613" lon="12.629115"><ele>269.5</ele><time>2026-04-19T13:10:19.889Z</time></trkpt><trkpt lat="43.876175" lon="12.6291767"><ele>269.6666666666667</ele><time>2026-04-19T13:10:22.886Z</time></trkpt><trkpt lat="43.8762567" lon="12.6291567"><ele>269.8333333333333</ele><time>2026-04-19T13:10:24.889Z</time></trkpt><trkpt lat="43.8763167" lon="12.6291217"><ele>270.0</ele><time>2026-04-19T13:10:25.888Z</time></trkpt><trkpt lat="43.8763833" lon="12.6290717"><ele>270.0</ele><time>2026-04-19T13:10:26.888Z</time></trkpt><trkpt lat="43.8764567" lon="12.62901"><ele>270.0</ele><time>2026-04-19T13:10:27.889Z</time></trkpt><trkpt lat="43.87653" lon="12.6289317"><ele>270.0</ele><time>2026-04-19T13:10:28.889Z</time></trkpt><trkpt lat="43.8765983" lon="12.6288367"><ele>270.0</ele><time>2026-04-19T13:10:29.89Z</time></trkpt><trkpt lat="43.876655" lon="12.6287283"><ele>270.0</ele><time>2026-04-19T13:10:30.888Z</time></trkpt><trkpt lat="43.8766983" lon="12.628605"><ele>272.6</ele><time>2026-04-19T13:10:31.889Z</time></trkpt><trkpt lat="43.8767333" lon="12.6284767"><ele>275.2</ele><time>2026-04-19T13:10:32.888Z</time></trkpt><trkpt lat="43.876765" lon="12.6283433"><ele>277.8</ele><time>2026-04-19T13:10:33.888Z</time></trkpt><trkpt lat="43.8767867" lon="12.6282083"><ele>280.4</ele><time>2026-04-19T13:10:34.887Z</time></trkpt><trkpt lat="43.8768033" lon="12.62807"><ele>283.0</ele><time>2026-04-19T13:10:35.89Z</time></trkpt><trkpt lat="43.876825" lon="12.62794"><ele>283.0</ele><time>2026-04-19T13:10:36.888Z</time></trkpt><trkpt lat="43.87686" lon="12.6278117"><ele>283.0</ele><time>2026-04-19T13:10:37.888Z</time></trkpt><trkpt lat="43.8769167" lon="12.6276917"><ele>283.0</ele><time>2026-04-19T13:10:38.886Z</time></trkpt><trkpt lat="43.8769883" lon="12.6275867"><ele>283.0</ele><time>2026-04-19T13:10:39.889Z</time></trkpt><trkpt lat="43.8770767" lon="12.627505"><ele>283.0</ele><time>2026-04-19T13:10:40.888Z</time></trkpt><trkpt lat="43.8771767" lon="12.6274433"><ele>286.6</ele><time>2026-04-19T13:10:41.889Z</time></trkpt><trkpt lat="43.877275" lon="12.6273883"><ele>290.20000000000005</ele><time>2026-04-19T13:10:42.889Z</time></trkpt><trkpt lat="43.877365" lon="12.6273383"><ele>293.8</ele><time>2026-04-19T13:10:43.89Z</time></trkpt><trkpt lat="43.877455" lon="12.627295"><ele>297.40000000000003</ele><time>2026-04-19T13:10:44.888Z</time></trkpt><trkpt lat="43.877555" lon="12.6272483"><ele>301.0</ele><time>2026-04-19T13:10:45.889Z</time></trkpt><trkpt lat="43.8776667" lon="12.6272067"><ele>302.25</ele><time>2026-04-19T13:10:46.886Z</time></trkpt><trkpt lat="43.8777833" lon="12.6271783"><ele>303.5</ele><time>2026-04-19T13:10:47.887Z</time></trkpt><trkpt lat="43.877905" lon="12.627155"><ele>304.75</ele><time>2026-04-19T13:10:48.885Z</time></trkpt><trkpt lat="43.87802" lon="12.6271367"><ele>306.0</ele><time>2026-04-19T13:10:49.887Z</time></trkpt><trkpt lat="43.87813" lon="12.6271183"><ele>306.0</ele><time>2026-04-19T13:10:50.886Z</time></trkpt><trkpt lat="43.8782283" lon="12.627095"><ele>306.0</ele><time>2026-04-19T13:10:51.886Z</time></trkpt><trkpt lat="43.8783233" lon="12.6270717"><ele>306.0</ele><time>2026-04-19T13:10:52.885Z</time></trkpt><trkpt lat="43.8784167" lon="12.6270417"><ele>306.0</ele><time>2026-04-19T13:10:53.886Z</time></trkpt><trkpt lat="43.87851" lon="12.6270033"><ele>306.0</ele><time>2026-04-19T13:10:54.89Z</time></trkpt><trkpt lat="43.8786083" lon="12.6269683"><ele>310.0</ele><time>2026-04-19T13:10:55.887Z</time></trkpt><trkpt lat="43.8787133" lon="12.62694"><ele>314.0</ele><time>2026-04-19T13:10:56.885Z</time></trkpt><trkpt lat="43.8788233" lon="12.626915"><ele>318.0</ele><time>2026-04-19T13:10:57.886Z</time></trkpt><trkpt lat="43.8789367" lon="12.62688"><ele>322.0</ele><time>2026-04-19T13:10:58.891Z</time></trkpt><trkpt lat="43.87905" lon="12.626845"><ele>322.0</ele><time>2026-04-19T13:10:59.887Z</time></trkpt><trkpt lat="43.8791617" lon="12.6268"><ele>322.0</ele><time>2026-04-19T13:11:00.89Z</time></trkpt><trkpt lat="43.8792617" lon="12.62674"><ele>322.0</ele><time>2026-04-19T13:11:01.888Z</time></trkpt><trkpt lat="43.8793433" lon="12.6266683"><ele>322.0</ele><time>2026-04-19T13:11:02.889Z</time></trkpt><trkpt lat="43.8794083" lon="12.626585"><ele>322.0</ele><time>2026-04-19T13:11:03.889Z</time></trkpt><trkpt lat="43.8794733" lon="12.6264933"><ele>322.40000000000003</ele><time>2026-04-19T13:11:04.889Z</time></trkpt><trkpt lat="43.8795483" lon="12.6263917"><ele>322.8</ele><time>2026-04-19T13:11:05.888Z</time></trkpt><trkpt lat="43.8796233" lon="12.6262883"><ele>323.2</ele><time>2026-04-19T13:11:06.888Z</time></trkpt><trkpt lat="43.8797" lon="12.6261867"><ele>323.6</ele><time>2026-04-19T13:11:07.889Z</time></trkpt><trkpt lat="43.879775" lon="12.626095"><ele>324.0</ele><time>2026-04-19T13:11:08.888Z</time></trkpt><trkpt lat="43.879855" lon="12.62601"><ele>324.0</ele><time>2026-04-19T13:11:09.889Z</time></trkpt><trkpt lat="43.8799367" lon="12.625925"><ele>324.0</ele><time>2026-04-19T13:11:10.889Z</time></trkpt><trkpt lat="43.8800233" lon="12.6258367"><ele>324.0</ele><time>2026-04-19T13:11:11.889Z</time></trkpt><trkpt lat="43.88011" lon="12.6257417"><ele>324.0</ele><time>2026-04-19T13:11:12.888Z</time></trkpt><trkpt lat="43.8801933" lon="12.6256433"><ele>324.0</ele><time>2026-04-19T13:11:13.889Z</time></trkpt><trkpt lat="43.8802717" lon="12.625545"><ele>323.5</ele><time>2026-04-19T13:11:14.887Z</time></trkpt><trkpt lat="43.88035" lon="12.625445"><ele>323.0</ele><time>2026-04-19T13:11:15.889Z</time></trkpt><trkpt lat="43.8804367" lon="12.62534"><ele>322.5</ele><time>2026-04-19T13:11:16.887Z</time></trkpt><trkpt lat="43.8805233" lon="12.6252267"><ele>322.0</ele><time>2026-04-19T13:11:17.888Z</time></trkpt><trkpt lat="43.8806067" lon="12.6251083"><ele>322.0</ele><time>2026-04-19T13:11:18.887Z</time></trkpt><trkpt lat="43.8806917" lon="12.624985"><ele>322.0</ele><time>2026-04-19T13:11:19.89Z</time></trkpt><trkpt lat="43.88077" lon="12.6248617"><ele>322.0</ele><time>2026-04-19T13:11:20.885Z</time></trkpt><trkpt lat="43.8808567" lon="12.6247433"><ele>322.0</ele><time>2026-04-19T13:11:21.886Z</time></trkpt><trkpt lat="43.88094" lon="12.6246233"><ele>322.0</ele><time>2026-04-19T13:11:22.886Z</time></trkpt><trkpt lat="43.881025" lon="12.62449"><ele>322.0</ele><time>2026-04-19T13:11:23.889Z</time></trkpt><trkpt lat="43.8811117" lon="12.62436"><ele>322.0</ele><time>2026-04-19T13:11:24.89Z</time></trkpt><trkpt lat="43.8811983" lon="12.6242367"><ele>322.0</ele><time>2026-04-19T13:11:25.888Z</time></trkpt><trkpt lat="43.88129" lon="12.624115"><ele>322.0</ele><time>2026-04-19T13:11:26.887Z</time></trkpt><trkpt lat="43.8813833" lon="12.624"><ele>322.0</ele><time>2026-04-19T13:11:27.886Z</time></trkpt><trkpt lat="43.8814733" lon="12.62389"><ele>322.0</ele><time>2026-04-19T13:11:28.889Z</time></trkpt><trkpt lat="43.8815633" lon="12.6237867"><ele>322.0</ele><time>2026-04-19T13:11:29.889Z</time></trkpt><trkpt lat="43.8816333" lon="12.6236883"><ele>324.16666666666663</ele><time>2026-04-19T13:11:30.885Z</time></trkpt><trkpt lat="43.8816883" lon="12.6236067"><ele>326.3333333333333</ele><time>2026-04-19T13:11:31.886Z</time></trkpt><trkpt lat="43.8817633" lon="12.6235"><ele>328.5</ele><time>2026-04-19T13:11:33.886Z</time></trkpt><trkpt lat="43.88179" lon="12.62341"><ele>330.6666666666667</ele><time>2026-04-19T13:11:36.886Z</time></trkpt><trkpt lat="43.8817217" lon="12.6233367"><ele>332.83333333333337</ele><time>2026-04-19T13:11:38.885Z</time></trkpt><trkpt lat="43.881665" lon="12.6232817"><ele>335.0</ele><time>2026-04-19T13:11:39.886Z</time></trkpt><trkpt lat="43.8815783" lon="12.6232033"><ele>335.0</ele><time>2026-04-19T13:11:40.887Z</time></trkpt><trkpt lat="43.8815233" lon="12.6230917"><ele>335.0</ele><time>2026-04-19T13:11:41.885Z</time></trkpt><trkpt lat="43.8814867" lon="12.6229717"><ele>335.0</ele><time>2026-04-19T13:11:42.889Z</time></trkpt><trkpt lat="43.8814767" lon="12.6228483"><ele>335.0</ele><time>2026-04-19T13:11:43.889Z</time></trkpt><trkpt lat="43.8815033" lon="12.6227267"><ele>335.0</ele><time>2026-04-19T13:11:44.885Z</time></trkpt><trkpt lat="43.8815267" lon="12.6225917"><ele>336.25</ele><time>2026-04-19T13:11:45.889Z</time></trkpt><trkpt lat="43.88158" lon="12.622435"><ele>337.5</ele><time>2026-04-19T13:11:46.888Z</time></trkpt><trkpt lat="43.8816317" lon="12.6222783"><ele>338.75</ele><time>2026-04-19T13:11:47.885Z</time></trkpt><trkpt lat="43.88172" lon="12.622115"><ele>340.0</ele><time>2026-04-19T13:11:48.887Z</time></trkpt><trkpt lat="43.8818033" lon="12.62195"><ele>343.0</ele><time>2026-04-19T13:11:49.887Z</time></trkpt><trkpt lat="43.8818833" lon="12.6217817"><ele>346.0</ele><time>2026-04-19T13:11:50.887Z</time></trkpt><trkpt lat="43.8819483" lon="12.621605"><ele>349.0</ele><time>2026-04-19T13:11:51.885Z</time></trkpt><trkpt lat="43.882" lon="12.6214267"><ele>352.0</ele><time>2026-04-19T13:11:52.887Z</time></trkpt><trkpt lat="43.8820283" lon="12.6212367"><ele>351.75</ele><time>2026-04-19T13:11:53.885Z</time></trkpt><trkpt lat="43.8820417" lon="12.6210433"><ele>351.5</ele><time>2026-04-19T13:11:54.892Z</time></trkpt><trkpt lat="43.8820467" lon="12.6208467"><ele>351.25</ele><time>2026-04-19T13:11:55.889Z</time></trkpt><trkpt lat="43.8820483" lon="12.6206517"><ele>351.0</ele><time>2026-04-19T13:11:56.89Z</time></trkpt><trkpt lat="43.8820483" lon="12.620455"><ele>350.0</ele><time>2026-04-19T13:11:57.886Z</time></trkpt><trkpt lat="43.8820533" lon="12.6202467"><ele>349.0</ele><time>2026-04-19T13:11:58.889Z</time></trkpt><trkpt lat="43.8820583" lon="12.6200317"><ele>348.0</ele><time>2026-04-19T13:11:59.886Z</time></trkpt><trkpt lat="43.8820717" lon="12.619815"><ele>348.0</ele><time>2026-04-19T13:12:00.89Z</time></trkpt><trkpt lat="43.8820867" lon="12.6195983"><ele>348.0</ele><time>2026-04-19T13:12:01.889Z</time></trkpt><trkpt lat="43.8821183" lon="12.619365"><ele>348.0</ele><time>2026-04-19T13:12:02.886Z</time></trkpt><trkpt lat="43.8821667" lon="12.6191433"><ele>347.5</ele><time>2026-04-19T13:12:03.886Z</time></trkpt><trkpt lat="43.8822117" lon="12.6189383"><ele>347.0</ele><time>2026-04-19T13:12:04.889Z</time></trkpt><trkpt lat="43.8822467" lon="12.6187533"><ele>346.5</ele><time>2026-04-19T13:12:05.889Z</time></trkpt><trkpt lat="43.8822567" lon="12.6185683"><ele>346.0</ele><time>2026-04-19T13:12:06.887Z</time></trkpt><trkpt lat="43.8822383" lon="12.6183867"><ele>345.0</ele><time>2026-04-19T13:12:07.888Z</time></trkpt><trkpt lat="43.8821783" lon="12.6182167"><ele>344.0</ele><time>2026-04-19T13:12:08.889Z</time></trkpt><trkpt lat="43.8820767" lon="12.6180517"><ele>343.0</ele><time>2026-04-19T13:12:09.889Z</time></trkpt><trkpt lat="43.881965" lon="12.617885"><ele>344.3333333333333</ele><time>2026-04-19T13:12:10.889Z</time></trkpt><trkpt lat="43.8818483" lon="12.6177133"><ele>345.6666666666667</ele><time>2026-04-19T13:12:11.888Z</time></trkpt><trkpt lat="43.88174" lon="12.6175467"><ele>347.0</ele><time>2026-04-19T13:12:12.889Z</time></trkpt><trkpt lat="43.88164" lon="12.6173783"><ele>345.75</ele><time>2026-04-19T13:12:13.889Z</time></trkpt><trkpt lat="43.88156" lon="12.6172067"><ele>344.5</ele><time>2026-04-19T13:12:14.885Z</time></trkpt><trkpt lat="43.8815" lon="12.6170367"><ele>343.25</ele><time>2026-04-19T13:12:15.886Z</time></trkpt><trkpt lat="43.8814567" lon="12.61686"><ele>342.0</ele><time>2026-04-19T13:12:16.887Z</time></trkpt><trkpt lat="43.8814283" lon="12.6166617"><ele>342.0</ele><time>2026-04-19T13:12:17.885Z</time></trkpt><trkpt lat="43.8814083" lon="12.616455"><ele>342.0</ele><time>2026-04-19T13:12:18.887Z</time></trkpt><trkpt lat="43.8813917" lon="12.6162483"><ele>342.0</ele><time>2026-04-19T13:12:19.887Z</time></trkpt><trkpt lat="43.8813883" lon="12.61605"><ele>342.0</ele><time>2026-04-19T13:12:20.885Z</time></trkpt><trkpt lat="43.8813967" lon="12.6158567"><ele>341.75</ele><time>2026-04-19T13:12:21.887Z</time></trkpt><trkpt lat="43.8814183" lon="12.61566"><ele>341.5</ele><time>2026-04-19T13:12:22.889Z</time></trkpt><trkpt lat="43.881455" lon="12.615455"><ele>341.25</ele><time>2026-04-19T13:12:23.89Z</time></trkpt><trkpt lat="43.88149" lon="12.6152483"><ele>341.0</ele><time>2026-04-19T13:12:24.888Z</time></trkpt><trkpt lat="43.8815233" lon="12.61504"><ele>341.0</ele><time>2026-04-19T13:12:25.89Z</time></trkpt><trkpt lat="43.8815583" lon="12.614845"><ele>341.0</ele><time>2026-04-19T13:12:26.888Z</time></trkpt><trkpt lat="43.881595" lon="12.6146517"><ele>341.0</ele><time>2026-04-19T13:12:27.889Z</time></trkpt><trkpt lat="43.8816183" lon="12.6144583"><ele>341.0</ele><time>2026-04-19T13:12:28.889Z</time></trkpt><trkpt lat="43.8816433" lon="12.61427"><ele>339.75</ele><time>2026-04-19T13:12:29.889Z</time></trkpt><trkpt lat="43.8816533" lon="12.6140767"><ele>338.5</ele><time>2026-04-19T13:12:30.89Z</time></trkpt><trkpt lat="43.88165" lon="12.61388"><ele>337.25</ele><time>2026-04-19T13:12:31.888Z</time></trkpt><trkpt lat="43.881635" lon="12.6136833"><ele>336.0</ele><time>2026-04-19T13:12:32.887Z</time></trkpt><trkpt lat="43.8815983" lon="12.6134933"><ele>336.0</ele><time>2026-04-19T13:12:33.889Z</time></trkpt><trkpt lat="43.88153" lon="12.6133167"><ele>336.0</ele><time>2026-04-19T13:12:34.889Z</time></trkpt><trkpt lat="43.88144" lon="12.6131517"><ele>336.0</ele><time>2026-04-19T13:12:35.888Z</time></trkpt><trkpt lat="43.8813433" lon="12.6129983"><ele>336.0</ele><time>2026-04-19T13:12:36.887Z</time></trkpt><trkpt lat="43.88125" lon="12.6128567"><ele>338.0</ele><time>2026-04-19T13:12:37.888Z</time></trkpt><trkpt lat="43.8811633" lon="12.612705"><ele>340.0</ele><time>2026-04-19T13:12:38.886Z</time></trkpt><trkpt lat="43.8810933" lon="12.6125383"><ele>342.0</ele><time>2026-04-19T13:12:39.887Z</time></trkpt><trkpt lat="43.8810467" lon="12.6123517"><ele>344.0</ele><time>2026-04-19T13:12:40.889Z</time></trkpt><trkpt lat="43.8810217" lon="12.612155"><ele>344.75</ele><time>2026-04-19T13:12:41.89Z</time></trkpt><trkpt lat="43.8810133" lon="12.6119517"><ele>345.5</ele><time>2026-04-19T13:12:42.889Z</time></trkpt><trkpt lat="43.881" lon="12.6117583"><ele>346.25</ele><time>2026-04-19T13:12:43.889Z</time></trkpt><trkpt lat="43.8809717" lon="12.6115817"><ele>347.0</ele><time>2026-04-19T13:12:44.888Z</time></trkpt><trkpt lat="43.8809183" lon="12.6114283"><ele>346.0</ele><time>2026-04-19T13:12:45.885Z</time></trkpt><trkpt lat="43.8808417" lon="12.6113"><ele>345.0</ele><time>2026-04-19T13:12:46.888Z</time></trkpt><trkpt lat="43.8807517" lon="12.6111883"><ele>344.0</ele><time>2026-04-19T13:12:47.885Z</time></trkpt><trkpt lat="43.8806583" lon="12.6110783"><ele>343.0</ele><time>2026-04-19T13:12:48.888Z</time></trkpt><trkpt lat="43.8805683" lon="12.6109667"><ele>343.0</ele><time>2026-04-19T13:12:49.887Z</time></trkpt><trkpt lat="43.8804917" lon="12.610845"><ele>343.0</ele><time>2026-04-19T13:12:50.887Z</time></trkpt><trkpt lat="43.8804267" lon="12.6107133"><ele>343.0</ele><time>2026-04-19T13:12:51.887Z</time></trkpt><trkpt lat="43.8803767" lon="12.610565"><ele>343.0</ele><time>2026-04-19T13:12:52.886Z</time></trkpt><trkpt lat="43.8803317" lon="12.6104033"><ele>344.5</ele><time>2026-04-19T13:12:53.889Z</time></trkpt><trkpt lat="43.8802883" lon="12.610235"><ele>346.0</ele><time>2026-04-19T13:12:54.889Z</time></trkpt><trkpt lat="43.88024" lon="12.6100617"><ele>347.5</ele><time>2026-04-19T13:12:55.889Z</time></trkpt><trkpt lat="43.880195" lon="12.6098833"><ele>349.0</ele><time>2026-04-19T13:12:56.886Z</time></trkpt><trkpt lat="43.8801467" lon="12.6097033"><ele>349.0</ele><time>2026-04-19T13:12:57.89Z</time></trkpt><trkpt lat="43.8801017" lon="12.6095267"><ele>349.0</ele><time>2026-04-19T13:12:58.889Z</time></trkpt><trkpt lat="43.8800583" lon="12.609355"><ele>349.0</ele><time>2026-04-19T13:12:59.888Z</time></trkpt><trkpt lat="43.8800133" lon="12.6091933"><ele>349.0</ele><time>2026-04-19T13:13:00.888Z</time></trkpt><trkpt lat="43.8799633" lon="12.6090367"><ele>342.75</ele><time>2026-04-19T13:13:01.89Z</time></trkpt><trkpt lat="43.8799017" lon="12.6088883"><ele>336.5</ele><time>2026-04-19T13:13:02.885Z</time></trkpt><trkpt lat="43.8798317" lon="12.6087617"><ele>330.25</ele><time>2026-04-19T13:13:03.888Z</time></trkpt><trkpt lat="43.87975" lon="12.6086533"><ele>324.0</ele><time>2026-04-19T13:13:04.888Z</time></trkpt><trkpt lat="43.8796617" lon="12.60857"><ele>323.6</ele><time>2026-04-19T13:13:05.886Z</time></trkpt><trkpt lat="43.8795617" lon="12.6085017"><ele>323.2</ele><time>2026-04-19T13:13:06.89Z</time></trkpt><trkpt lat="43.87946" lon="12.60845"><ele>322.8</ele><time>2026-04-19T13:13:07.887Z</time></trkpt><trkpt lat="43.8793567" lon="12.60842"><ele>322.40000000000003</ele><time>2026-04-19T13:13:08.888Z</time></trkpt><trkpt lat="43.8792567" lon="12.6083967"><ele>322.0</ele><time>2026-04-19T13:13:09.889Z</time></trkpt><trkpt lat="43.8791583" lon="12.608375"><ele>321.20000000000005</ele><time>2026-04-19T13:13:10.888Z</time></trkpt><trkpt lat="43.8790617" lon="12.6083533"><ele>320.40000000000003</ele><time>2026-04-19T13:13:11.889Z</time></trkpt><trkpt lat="43.8789633" lon="12.6083317"><ele>319.6</ele><time>2026-04-19T13:13:12.891Z</time></trkpt><trkpt lat="43.8788583" lon="12.6083133"><ele>318.8</ele><time>2026-04-19T13:13:13.889Z</time></trkpt><trkpt lat="43.878745" lon="12.608295"><ele>318.0</ele><time>2026-04-19T13:13:14.889Z</time></trkpt><trkpt lat="43.878625" lon="12.608275"><ele>318.0</ele><time>2026-04-19T13:13:15.889Z</time></trkpt><trkpt lat="43.8785033" lon="12.60825"><ele>318.0</ele><time>2026-04-19T13:13:16.888Z</time></trkpt><trkpt lat="43.8783767" lon="12.60822"><ele>318.0</ele><time>2026-04-19T13:13:17.887Z</time></trkpt><trkpt lat="43.8782467" lon="12.60819"><ele>318.0</ele><time>2026-04-19T13:13:18.889Z</time></trkpt><trkpt lat="43.878115" lon="12.6081617"><ele>317.5</ele><time>2026-04-19T13:13:19.888Z</time></trkpt><trkpt lat="43.8779833" lon="12.6081333"><ele>317.0</ele><time>2026-04-19T13:13:20.889Z</time></trkpt><trkpt lat="43.877855" lon="12.60811"><ele>316.5</ele><time>2026-04-19T13:13:21.886Z</time></trkpt><trkpt lat="43.8777317" lon="12.6080917"><ele>316.0</ele><time>2026-04-19T13:13:22.888Z</time></trkpt><trkpt lat="43.8776117" lon="12.6080867"><ele>314.5</ele><time>2026-04-19T13:13:23.887Z</time></trkpt><trkpt lat="43.877495" lon="12.60809"><ele>313.0</ele><time>2026-04-19T13:13:24.889Z</time></trkpt><trkpt lat="43.8773783" lon="12.6080867"><ele>311.5</ele><time>2026-04-19T13:13:25.982Z</time></trkpt><trkpt lat="43.8772617" lon="12.6080833"><ele>310.0</ele><time>2026-04-19T13:13:26.886Z</time></trkpt><trkpt lat="43.8771417" lon="12.6080733"><ele>310.0</ele><time>2026-04-19T13:13:27.888Z</time></trkpt><trkpt lat="43.87702" lon="12.6080483"><ele>310.0</ele><time>2026-04-19T13:13:28.888Z</time></trkpt><trkpt lat="43.8769017" lon="12.608005"><ele>310.0</ele><time>2026-04-19T13:13:29.888Z</time></trkpt><trkpt lat="43.87679" lon="12.6079367"><ele>310.0</ele><time>2026-04-19T13:13:30.888Z</time></trkpt><trkpt lat="43.8766883" lon="12.6078433"><ele>309.25</ele><time>2026-04-19T13:13:31.89Z</time></trkpt><trkpt lat="43.8765883" lon="12.6077383"><ele>308.5</ele><time>2026-04-19T13:13:32.888Z</time></trkpt><trkpt lat="43.8764917" lon="12.6076267"><ele>307.75</ele><time>2026-04-19T13:13:33.887Z</time></trkpt><trkpt lat="43.8763917" lon="12.6075183"><ele>307.0</ele><time>2026-04-19T13:13:34.888Z</time></trkpt><trkpt lat="43.8762833" lon="12.6074167"><ele>307.0</ele><time>2026-04-19T13:13:35.89Z</time></trkpt><trkpt lat="43.8761667" lon="12.6073283"><ele>307.0</ele><time>2026-04-19T13:13:36.889Z</time></trkpt><trkpt lat="43.87604" lon="12.607245"><ele>307.0</ele><time>2026-04-19T13:13:37.889Z</time></trkpt><trkpt lat="43.875905" lon="12.60718"><ele>307.0</ele><time>2026-04-19T13:13:38.889Z</time></trkpt><trkpt lat="43.8757617" lon="12.6071217"><ele>305.25</ele><time>2026-04-19T13:13:39.888Z</time></trkpt><trkpt lat="43.87562" lon="12.6070683"><ele>303.5</ele><time>2026-04-19T13:13:40.889Z</time></trkpt><trkpt lat="43.8754833" lon="12.6070167"><ele>301.75</ele><time>2026-04-19T13:13:41.888Z</time></trkpt><trkpt lat="43.8753517" lon="12.60696"><ele>300.0</ele><time>2026-04-19T13:13:42.888Z</time></trkpt><trkpt lat="43.875225" lon="12.6069067"><ele>300.25</ele><time>2026-04-19T13:13:43.888Z</time></trkpt><trkpt lat="43.8751033" lon="12.606855"><ele>300.5</ele><time>2026-04-19T13:13:44.887Z</time></trkpt><trkpt lat="43.8749883" lon="12.6068"><ele>300.75</ele><time>2026-04-19T13:13:45.888Z</time></trkpt><trkpt lat="43.8748767" lon="12.60674"><ele>301.0</ele><time>2026-04-19T13:13:46.888Z</time></trkpt><trkpt lat="43.8747717" lon="12.6066717"><ele>301.0</ele><time>2026-04-19T13:13:47.888Z</time></trkpt><trkpt lat="43.8746733" lon="12.6065933"><ele>301.0</ele><time>2026-04-19T13:13:48.888Z</time></trkpt><trkpt lat="43.874575" lon="12.6065067"><ele>301.0</ele><time>2026-04-19T13:13:49.888Z</time></trkpt><trkpt lat="43.8744683" lon="12.60642"><ele>301.0</ele><time>2026-04-19T13:13:50.887Z</time></trkpt><trkpt lat="43.874355" lon="12.6063317"><ele>301.25</ele><time>2026-04-19T13:13:51.888Z</time></trkpt><trkpt lat="43.874235" lon="12.60624"><ele>301.5</ele><time>2026-04-19T13:13:52.888Z</time></trkpt><trkpt lat="43.874115" lon="12.60614"><ele>301.75</ele><time>2026-04-19T13:13:53.888Z</time></trkpt><trkpt lat="43.87399" lon="12.60604"><ele>302.0</ele><time>2026-04-19T13:13:54.888Z</time></trkpt><trkpt lat="43.8738617" lon="12.60594"><ele>299.6666666666667</ele><time>2026-04-19T13:13:55.888Z</time></trkpt><trkpt lat="43.87373" lon="12.605845"><ele>297.3333333333333</ele><time>2026-04-19T13:13:56.888Z</time></trkpt><trkpt lat="43.8735933" lon="12.6057517"><ele>295.0</ele><time>2026-04-19T13:13:57.885Z</time></trkpt><trkpt lat="43.8734567" lon="12.6056567"><ele>295.0</ele><time>2026-04-19T13:13:58.886Z</time></trkpt><trkpt lat="43.8733283" lon="12.6055567"><ele>295.0</ele><time>2026-04-19T13:13:59.886Z</time></trkpt><trkpt lat="43.8732133" lon="12.6054533"><ele>295.0</ele><time>2026-04-19T13:14:00.887Z</time></trkpt><trkpt lat="43.87311" lon="12.605345"><ele>295.0</ele><time>2026-04-19T13:14:01.885Z</time></trkpt><trkpt lat="43.873005" lon="12.6052383"><ele>294.5</ele><time>2026-04-19T13:14:02.885Z</time></trkpt><trkpt lat="43.87289" lon="12.6051417"><ele>294.0</ele><time>2026-04-19T13:14:03.885Z</time></trkpt><trkpt lat="43.872765" lon="12.60505"><ele>293.5</ele><time>2026-04-19T13:14:04.887Z</time></trkpt><trkpt lat="43.87263" lon="12.6049733"><ele>293.0</ele><time>2026-04-19T13:14:05.886Z</time></trkpt><trkpt lat="43.8724917" lon="12.6049133"><ele>293.0</ele><time>2026-04-19T13:14:06.887Z</time></trkpt><trkpt lat="43.8723417" lon="12.6048783"><ele>293.0</ele><time>2026-04-19T13:14:07.887Z</time></trkpt><trkpt lat="43.872185" lon="12.6048617"><ele>293.0</ele><time>2026-04-19T13:14:08.884Z</time></trkpt><trkpt lat="43.8720267" lon="12.6048567"><ele>293.0</ele><time>2026-04-19T13:14:09.886Z</time></trkpt><trkpt lat="43.871875" lon="12.6048567"><ele>293.0</ele><time>2026-04-19T13:14:10.889Z</time></trkpt><trkpt lat="43.8717317" lon="12.6048733"><ele>293.0</ele><time>2026-04-19T13:14:11.889Z</time></trkpt><trkpt lat="43.8715917" lon="12.6049083"><ele>293.0</ele><time>2026-04-19T13:14:12.885Z</time></trkpt><trkpt lat="43.871455" lon="12.6049567"><ele>293.0</ele><time>2026-04-19T13:14:13.886Z</time></trkpt><trkpt lat="43.8713183" lon="12.6050183"><ele>293.0</ele><time>2026-04-19T13:14:14.885Z</time></trkpt><trkpt lat="43.8711833" lon="12.605085"><ele>293.0</ele><time>2026-04-19T13:14:15.888Z</time></trkpt><trkpt lat="43.8710517" lon="12.6051433"><ele>293.0</ele><time>2026-04-19T13:14:16.888Z</time></trkpt><trkpt lat="43.8709217" lon="12.6051733"><ele>292.75</ele><time>2026-04-19T13:14:17.889Z</time></trkpt><trkpt lat="43.870785" lon="12.6051783"><ele>292.5</ele><time>2026-04-19T13:14:18.888Z</time></trkpt><trkpt lat="43.8706567" lon="12.60517"><ele>292.25</ele><time>2026-04-19T13:14:19.889Z</time></trkpt><trkpt lat="43.8705233" lon="12.6051433"><ele>292.0</ele><time>2026-04-19T13:14:20.888Z</time></trkpt><trkpt lat="43.8703917" lon="12.605115"><ele>292.0</ele><time>2026-04-19T13:14:21.888Z</time></trkpt><trkpt lat="43.8702683" lon="12.6050883"><ele>292.0</ele><time>2026-04-19T13:14:22.889Z</time></trkpt><trkpt lat="43.8701433" lon="12.605065"><ele>292.0</ele><time>2026-04-19T13:14:23.889Z</time></trkpt><trkpt lat="43.8700133" lon="12.6050517"><ele>292.0</ele><time>2026-04-19T13:14:24.888Z</time></trkpt><trkpt lat="43.8698817" lon="12.60504"><ele>290.75</ele><time>2026-04-19T13:14:25.89Z</time></trkpt><trkpt lat="43.8697517" lon="12.6050267"><ele>289.5</ele><time>2026-04-19T13:14:26.888Z</time></trkpt><trkpt lat="43.86963" lon="12.6050033"><ele>288.25</ele><time>2026-04-19T13:14:27.889Z</time></trkpt><trkpt lat="43.86952" lon="12.6049717"><ele>287.0</ele><time>2026-04-19T13:14:28.888Z</time></trkpt><trkpt lat="43.8694317" lon="12.604935"><ele>287.0</ele><time>2026-04-19T13:14:29.888Z</time></trkpt><trkpt lat="43.8693683" lon="12.6049067"><ele>287.0</ele><time>2026-04-19T13:14:30.886Z</time></trkpt><trkpt lat="43.8693183" lon="12.6048517"><ele>287.0</ele><time>2026-04-19T13:14:32.889Z</time></trkpt><trkpt lat="43.8694267" lon="12.6047917"><ele>287.0</ele><time>2026-04-19T13:14:35.885Z</time></trkpt><trkpt lat="43.869535" lon="12.6047517"><ele>287.0</ele><time>2026-04-19T13:14:37.887Z</time></trkpt><trkpt lat="43.8696183" lon="12.6046283"><ele>286.6</ele><time>2026-04-19T13:14:39.888Z</time></trkpt><trkpt lat="43.86962" lon="12.6044867"><ele>286.2</ele><time>2026-04-19T13:14:41.888Z</time></trkpt><trkpt lat="43.8695633" lon="12.6044167"><ele>285.8</ele><time>2026-04-19T13:14:42.887Z</time></trkpt><trkpt lat="43.8694417" lon="12.6042933"><ele>285.4</ele><time>2026-04-19T13:14:44.885Z</time></trkpt><trkpt lat="43.869375" lon="12.6042333"><ele>285.0</ele><time>2026-04-19T13:14:45.888Z</time></trkpt><trkpt lat="43.8693033" lon="12.6041717"><ele>284.3333333333333</ele><time>2026-04-19T13:14:46.888Z</time></trkpt><trkpt lat="43.86923" lon="12.60411"><ele>283.6666666666667</ele><time>2026-04-19T13:14:47.888Z</time></trkpt><trkpt lat="43.8691617" lon="12.6040467"><ele>283.0</ele><time>2026-04-19T13:14:48.888Z</time></trkpt><trkpt lat="43.8690867" lon="12.6039883"><ele>282.33333333333337</ele><time>2026-04-19T13:14:49.888Z</time></trkpt><trkpt lat="43.8690083" lon="12.6039217"><ele>281.6666666666667</ele><time>2026-04-19T13:14:50.888Z</time></trkpt><trkpt lat="43.868935" lon="12.6038433"><ele>281.0</ele><time>2026-04-19T13:14:51.888Z</time></trkpt><trkpt lat="43.8688733" lon="12.60374"><ele>279.0</ele><time>2026-04-19T13:14:52.888Z</time></trkpt><trkpt lat="43.8688233" lon="12.6036283"><ele>277.0</ele><time>2026-04-19T13:14:53.888Z</time></trkpt><trkpt lat="43.8687817" lon="12.603515"><ele>275.0</ele><time>2026-04-19T13:14:54.888Z</time></trkpt><trkpt lat="43.8687517" lon="12.6033917"><ele>273.0</ele><time>2026-04-19T13:14:55.889Z</time></trkpt><trkpt lat="43.8687317" lon="12.6032533"><ele>271.0</ele><time>2026-04-19T13:14:56.885Z</time></trkpt><trkpt lat="43.8687217" lon="12.6031083"><ele>271.0</ele><time>2026-04-19T13:14:57.888Z</time></trkpt><trkpt lat="43.8687183" lon="12.6029717"><ele>271.0</ele><time>2026-04-19T13:14:58.886Z</time></trkpt><trkpt lat="43.8687167" lon="12.602845"><ele>271.0</ele><time>2026-04-19T13:14:59.888Z</time></trkpt><trkpt lat="43.8687067" lon="12.6027317"><ele>271.0</ele><time>2026-04-19T13:15:00.885Z</time></trkpt><trkpt lat="43.8686883" lon="12.6026217"><ele>271.0</ele><time>2026-04-19T13:15:01.885Z</time></trkpt><trkpt lat="43.8686567" lon="12.602515"><ele>271.0</ele><time>2026-04-19T13:15:02.887Z</time></trkpt><trkpt lat="43.8686167" lon="12.6024167"><ele>269.66666666666663</ele><time>2026-04-19T13:15:03.885Z</time></trkpt><trkpt lat="43.8685767" lon="12.6023333"><ele>268.3333333333333</ele><time>2026-04-19T13:15:04.887Z</time></trkpt><trkpt lat="43.868535" lon="12.6022433"><ele>267.0</ele><time>2026-04-19T13:15:05.887Z</time></trkpt><trkpt lat="43.86849" lon="12.602135"><ele>265.6666666666667</ele><time>2026-04-19T13:15:06.889Z</time></trkpt><trkpt lat="43.868445" lon="12.602025"><ele>264.33333333333337</ele><time>2026-04-19T13:15:07.886Z</time></trkpt><trkpt lat="43.868405" lon="12.6019233"><ele>263.0</ele><time>2026-04-19T13:15:08.886Z</time></trkpt><trkpt lat="43.8683683" lon="12.601825"><ele>263.0</ele><time>2026-04-19T13:15:09.887Z</time></trkpt><trkpt lat="43.868335" lon="12.601725"><ele>263.0</ele><time>2026-04-19T13:15:10.889Z</time></trkpt><trkpt lat="43.8683167" lon="12.6016283"><ele>263.0</ele><time>2026-04-19T13:15:11.887Z</time></trkpt><trkpt lat="43.8683167" lon="12.6015317"><ele>263.0</ele><time>2026-04-19T13:15:12.888Z</time></trkpt><trkpt lat="43.8683367" lon="12.6014367"><ele>263.0</ele><time>2026-04-19T13:15:13.886Z</time></trkpt><trkpt lat="43.8683667" lon="12.6013433"><ele>263.0</ele><time>2026-04-19T13:15:14.888Z</time></trkpt><trkpt lat="43.8684067" lon="12.601275"><ele>263.0</ele><time>2026-04-19T13:15:15.888Z</time></trkpt><trkpt lat="43.8685217" lon="12.601265"><ele>260.6</ele><time>2026-04-19T13:15:17.885Z</time></trkpt><trkpt lat="43.8686" lon="12.601335"><ele>258.20000000000005</ele><time>2026-04-19T13:15:18.886Z</time></trkpt><trkpt lat="43.868665" lon="12.6013817"><ele>255.8</ele><time>2026-04-19T13:15:19.886Z</time></trkpt><trkpt lat="43.868725" lon="12.6014117"><ele>253.4</ele><time>2026-04-19T13:15:20.886Z</time></trkpt><trkpt lat="43.8688117" lon="12.6013617"><ele>251.0</ele><time>2026-04-19T13:15:22.886Z</time></trkpt><trkpt lat="43.8688683" lon="12.6011833"><ele>249.60000000000002</ele><time>2026-04-19T13:15:24.885Z</time></trkpt><trkpt lat="43.8688933" lon="12.6010717"><ele>248.20000000000002</ele><time>2026-04-19T13:15:25.887Z</time></trkpt><trkpt lat="43.8689133" lon="12.60094"><ele>246.79999999999998</ele><time>2026-04-19T13:15:26.885Z</time></trkpt><trkpt lat="43.8689317" lon="12.6007983"><ele>245.39999999999998</ele><time>2026-04-19T13:15:27.888Z</time></trkpt><trkpt lat="43.8689467" lon="12.60066"><ele>244.0</ele><time>2026-04-19T13:15:28.886Z</time></trkpt><trkpt lat="43.8689633" lon="12.60053"><ele>244.0</ele><time>2026-04-19T13:15:29.887Z</time></trkpt><trkpt lat="43.8689883" lon="12.6004033"><ele>243.99999999999997</ele><time>2026-04-19T13:15:30.887Z</time></trkpt><trkpt lat="43.8690133" lon="12.60028"><ele>243.99999999999997</ele><time>2026-04-19T13:15:31.886Z</time></trkpt><trkpt lat="43.8690333" lon="12.6001633"><ele>244.0</ele><time>2026-04-19T13:15:32.887Z</time></trkpt><trkpt lat="43.86905" lon="12.60004"><ele>244.0</ele><time>2026-04-19T13:15:33.886Z</time></trkpt><trkpt lat="43.8690683" lon="12.5999167"><ele>243.83333333333331</ele><time>2026-04-19T13:15:34.885Z</time></trkpt><trkpt lat="43.869085" lon="12.599805"><ele>243.66666666666666</ele><time>2026-04-19T13:15:35.886Z</time></trkpt><trkpt lat="43.869095" lon="12.5996883"><ele>243.5</ele><time>2026-04-19T13:15:36.886Z</time></trkpt><trkpt lat="43.8690967" lon="12.5995633"><ele>243.33333333333331</ele><time>2026-04-19T13:15:37.887Z</time></trkpt><trkpt lat="43.8690883" lon="12.59944"><ele>243.16666666666666</ele><time>2026-04-19T13:15:38.889Z</time></trkpt><trkpt lat="43.8690783" lon="12.599325"><ele>243.0</ele><time>2026-04-19T13:15:39.889Z</time></trkpt><trkpt lat="43.8690667" lon="12.5992283"><ele>241.60000000000002</ele><time>2026-04-19T13:15:40.887Z</time></trkpt><trkpt lat="43.86901" lon="12.599105"><ele>240.20000000000002</ele><time>2026-04-19T13:15:42.889Z</time></trkpt><trkpt lat="43.8688817" lon="12.59905"><ele>238.8</ele><time>2026-04-19T13:15:44.888Z</time></trkpt><trkpt lat="43.8688" lon="12.5990483"><ele>237.4</ele><time>2026-04-19T13:15:45.888Z</time></trkpt><trkpt lat="43.8687267" lon="12.59904"><ele>236.0</ele><time>2026-04-19T13:15:46.888Z</time></trkpt><trkpt lat="43.8686583" lon="12.5990317"><ele>236.0</ele><time>2026-04-19T13:15:47.885Z</time></trkpt><trkpt lat="43.8685933" lon="12.5990217"><ele>236.0</ele><time>2026-04-19T13:15:48.886Z</time></trkpt><trkpt lat="43.8685267" lon="12.5990117"><ele>236.0</ele><time>2026-04-19T13:15:49.887Z</time></trkpt><trkpt lat="43.8684517" lon="12.5990033"><ele>236.0</ele><time>2026-04-19T13:15:50.886Z</time></trkpt><trkpt lat="43.8683717" lon="12.5989917"><ele>236.0</ele><time>2026-04-19T13:15:51.885Z</time></trkpt><trkpt lat="43.8682933" lon="12.5989817"><ele>236.0</ele><time>2026-04-19T13:15:52.886Z</time></trkpt><trkpt lat="43.8682183" lon="12.5989667"><ele>236.0</ele><time>2026-04-19T13:15:53.887Z</time></trkpt><trkpt lat="43.86815" lon="12.5989467"><ele>236.00000000000003</ele><time>2026-04-19T13:15:54.886Z</time></trkpt><trkpt lat="43.8680517" lon="12.59889"><ele>236.0</ele><time>2026-04-19T13:15:56.885Z</time></trkpt><trkpt lat="43.86803" lon="12.5987717"><ele>236.0</ele><time>2026-04-19T13:15:58.885Z</time></trkpt><trkpt lat="43.8680433" lon="12.598685"><ele>236.0</ele><time>2026-04-19T13:15:59.889Z</time></trkpt><trkpt lat="43.8680817" lon="12.5985733"><ele>236.00000000000003</ele><time>2026-04-19T13:16:00.886Z</time></trkpt><trkpt lat="43.8681333" lon="12.59847"><ele>236.0</ele><time>2026-04-19T13:16:01.886Z</time></trkpt><trkpt lat="43.8681867" lon="12.5983733"><ele>234.50000000000003</ele><time>2026-04-19T13:16:02.888Z</time></trkpt><trkpt lat="43.8682417" lon="12.5982733"><ele>233.0</ele><time>2026-04-19T13:16:03.889Z</time></trkpt><trkpt lat="43.8683017" lon="12.5981767"><ele>231.5</ele><time>2026-04-19T13:16:04.889Z</time></trkpt><trkpt lat="43.86836" lon="12.5980967"><ele>230.0</ele><time>2026-04-19T13:16:05.888Z</time></trkpt><trkpt lat="43.86842" lon="12.5980133"><ele>228.50000000000003</ele><time>2026-04-19T13:16:06.887Z</time></trkpt><trkpt lat="43.8684783" lon="12.59793"><ele>227.0</ele><time>2026-04-19T13:16:07.888Z</time></trkpt><trkpt lat="43.8685333" lon="12.5978567"><ele>225.71428571428572</ele><time>2026-04-19T13:16:08.889Z</time></trkpt><trkpt lat="43.8685917" lon="12.59779"><ele>224.42857142857144</ele><time>2026-04-19T13:16:09.887Z</time></trkpt><trkpt lat="43.8686483" lon="12.597725"><ele>223.14285714285717</ele><time>2026-04-19T13:16:10.888Z</time></trkpt><trkpt lat="43.8687067" lon="12.597665"><ele>221.85714285714286</ele><time>2026-04-19T13:16:11.889Z</time></trkpt><trkpt lat="43.86877" lon="12.5976283"><ele>220.57142857142858</ele><time>2026-04-19T13:16:12.888Z</time></trkpt><trkpt lat="43.8688433" lon="12.5976133"><ele>219.28571428571428</ele><time>2026-04-19T13:16:13.889Z</time></trkpt><trkpt lat="43.8689267" lon="12.5976167"><ele>218.0</ele><time>2026-04-19T13:16:14.888Z</time></trkpt><trkpt lat="43.869015" lon="12.5976383"><ele>218.0</ele><time>2026-04-19T13:16:15.889Z</time></trkpt><trkpt lat="43.86909" lon="12.597665"><ele>218.0</ele><time>2026-04-19T13:16:16.888Z</time></trkpt><trkpt lat="43.86916" lon="12.5976767"><ele>218.0</ele><time>2026-04-19T13:16:17.889Z</time></trkpt><trkpt lat="43.8692683" lon="12.597645"><ele>218.0</ele><time>2026-04-19T13:16:19.886Z</time></trkpt><trkpt lat="43.8693233" lon="12.5975267"><ele>218.0</ele><time>2026-04-19T13:16:21.885Z</time></trkpt><trkpt lat="43.8692667" lon="12.5973733"><ele>218.0</ele><time>2026-04-19T13:16:23.886Z</time></trkpt><trkpt lat="43.869225" lon="12.5972917"><ele>218.0</ele><time>2026-04-19T13:16:24.885Z</time></trkpt><trkpt lat="43.869195" lon="12.597205"><ele>218.0</ele><time>2026-04-19T13:16:25.886Z</time></trkpt><trkpt lat="43.8691683" lon="12.5971233"><ele>218.0</ele><time>2026-04-19T13:16:26.885Z</time></trkpt><trkpt lat="43.869185" lon="12.5969817"><ele>218.0</ele><time>2026-04-19T13:16:28.888Z</time></trkpt><trkpt lat="43.869225" lon="12.5969117"><ele>218.0</ele><time>2026-04-19T13:16:29.889Z</time></trkpt><trkpt lat="43.869285" lon="12.5968567"><ele>218.0</ele><time>2026-04-19T13:16:30.886Z</time></trkpt><trkpt lat="43.8693417" lon="12.5968033"><ele>216.50000000000003</ele><time>2026-04-19T13:16:31.887Z</time></trkpt><trkpt lat="43.8694133" lon="12.596685"><ele>215.0</ele><time>2026-04-19T13:16:33.886Z</time></trkpt><trkpt lat="43.86937" lon="12.596565"><ele>213.5</ele><time>2026-04-19T13:16:35.887Z</time></trkpt><trkpt lat="43.8693067" lon="12.5965133"><ele>212.0</ele><time>2026-04-19T13:16:36.888Z</time></trkpt><trkpt lat="43.8692267" lon="12.59646"><ele>210.50000000000003</ele><time>2026-04-19T13:16:37.888Z</time></trkpt><trkpt lat="43.869165" lon="12.5964067"><ele>209.0</ele><time>2026-04-19T13:16:38.888Z</time></trkpt><trkpt lat="43.8691067" lon="12.5963017"><ele>209.00000000000003</ele><time>2026-04-19T13:16:40.889Z</time></trkpt><trkpt lat="43.869175" lon="12.596195"><ele>209.0</ele><time>2026-04-19T13:16:42.889Z</time></trkpt><trkpt lat="43.869235" lon="12.5961333"><ele>209.0</ele><time>2026-04-19T13:16:43.889Z</time></trkpt><trkpt lat="43.8693083" lon="12.59606"><ele>209.0</ele><time>2026-04-19T13:16:44.889Z</time></trkpt><trkpt lat="43.8693733" lon="12.5959783"><ele>209.00000000000003</ele><time>2026-04-19T13:16:45.888Z</time></trkpt><trkpt lat="43.8694333" lon="12.5959017"><ele>209.0</ele><time>2026-04-19T13:16:46.888Z</time></trkpt><trkpt lat="43.86949" lon="12.5958217"><ele>206.33333333333334</ele><time>2026-04-19T13:16:47.888Z</time></trkpt><trkpt lat="43.8695333" lon="12.595735"><ele>203.66666666666669</ele><time>2026-04-19T13:16:48.888Z</time></trkpt><trkpt lat="43.869555" lon="12.5956483"><ele>201.0</ele><time>2026-04-19T13:16:49.888Z</time></trkpt><trkpt lat="43.8695283" lon="12.59547"><ele>198.33333333333331</ele><time>2026-04-19T13:16:51.89Z</time></trkpt><trkpt lat="43.8694933" lon="12.59538"><ele>195.66666666666666</ele><time>2026-04-19T13:16:52.887Z</time></trkpt><trkpt lat="43.8694383" lon="12.5953017"><ele>193.0</ele><time>2026-04-19T13:16:53.888Z</time></trkpt><trkpt lat="43.8693867" lon="12.5952417"><ele>192.2</ele><time>2026-04-19T13:16:54.888Z</time></trkpt><trkpt lat="43.8693233" lon="12.5952283"><ele>191.4</ele><time>2026-04-19T13:16:55.888Z</time></trkpt><trkpt lat="43.86924" lon="12.5952433"><ele>190.6</ele><time>2026-04-19T13:16:56.887Z</time></trkpt><trkpt lat="43.8691433" lon="12.5953133"><ele>189.79999999999998</ele><time>2026-04-19T13:16:57.888Z</time></trkpt><trkpt lat="43.869045" lon="12.5953833"><ele>189.0</ele><time>2026-04-19T13:16:58.889Z</time></trkpt><trkpt lat="43.8689583" lon="12.5954317"><ele>189.0</ele><time>2026-04-19T13:16:59.888Z</time></trkpt><trkpt lat="43.8688783" lon="12.5954583"><ele>189.0</ele><time>2026-04-19T13:17:00.89Z</time></trkpt><trkpt lat="43.8688083" lon="12.5954583"><ele>189.0</ele><time>2026-04-19T13:17:01.888Z</time></trkpt><trkpt lat="43.8687083" lon="12.595365"><ele>189.0</ele><time>2026-04-19T13:17:03.889Z</time></trkpt><trkpt lat="43.8686767" lon="12.5952683"><ele>189.0</ele><time>2026-04-19T13:17:04.888Z</time></trkpt><trkpt lat="43.86865" lon="12.5951617"><ele>189.0</ele><time>2026-04-19T13:17:05.888Z</time></trkpt><trkpt lat="43.8686233" lon="12.595045"><ele>189.0</ele><time>2026-04-19T13:17:06.888Z</time></trkpt><trkpt lat="43.8686017" lon="12.5949533"><ele>189.0</ele><time>2026-04-19T13:17:07.889Z</time></trkpt><trkpt lat="43.8685867" lon="12.5948683"><ele>189.0</ele><time>2026-04-19T13:17:08.888Z</time></trkpt><trkpt lat="43.8686133" lon="12.5947183"><ele>189.0</ele><time>2026-04-19T13:17:10.889Z</time></trkpt><trkpt lat="43.8687133" lon="12.5946367"><ele>189.0</ele><time>2026-04-19T13:17:12.888Z</time></trkpt><trkpt lat="43.86878" lon="12.59462"><ele>189.0</ele><time>2026-04-19T13:17:13.888Z</time></trkpt><trkpt lat="43.8688417" lon="12.5945967"><ele>189.0</ele><time>2026-04-19T13:17:14.888Z</time></trkpt><trkpt lat="43.86891" lon="12.5945217"><ele>189.0</ele><time>2026-04-19T13:17:16.887Z</time></trkpt><trkpt lat="43.868915" lon="12.5943817"><ele>189.0</ele><time>2026-04-19T13:17:18.888Z</time></trkpt><trkpt lat="43.868895" lon="12.5942667"><ele>189.0</ele><time>2026-04-19T13:17:19.889Z</time></trkpt><trkpt lat="43.8688683" lon="12.5941567"><ele>189.0</ele><time>2026-04-19T13:17:20.886Z</time></trkpt><trkpt lat="43.8688267" lon="12.5940517"><ele>189.0</ele><time>2026-04-19T13:17:21.891Z</time></trkpt><trkpt lat="43.8687717" lon="12.5939633"><ele>187.16666666666666</ele><time>2026-04-19T13:17:22.888Z</time></trkpt><trkpt lat="43.8687017" lon="12.5938867"><ele>185.33333333333334</ele><time>2026-04-19T13:17:23.888Z</time></trkpt><trkpt lat="43.8686317" lon="12.5938367"><ele>183.5</ele><time>2026-04-19T13:17:24.89Z</time></trkpt><trkpt lat="43.868565" lon="12.5938117"><ele>181.66666666666669</ele><time>2026-04-19T13:17:25.888Z</time></trkpt><trkpt lat="43.8684983" lon="12.5938067"><ele>179.83333333333334</ele><time>2026-04-19T13:17:26.888Z</time></trkpt><trkpt lat="43.8684317" lon="12.5938317"><ele>178.0</ele><time>2026-04-19T13:17:27.888Z</time></trkpt><trkpt lat="43.868355" lon="12.59388"><ele>178.0</ele><time>2026-04-19T13:17:28.889Z</time></trkpt><trkpt lat="43.8682783" lon="12.5939283"><ele>178.0</ele><time>2026-04-19T13:17:29.888Z</time></trkpt><trkpt lat="43.8682" lon="12.5939767"><ele>178.0</ele><time>2026-04-19T13:17:30.886Z</time></trkpt><trkpt lat="43.8681283" lon="12.5940017"><ele>178.0</ele><time>2026-04-19T13:17:31.888Z</time></trkpt><trkpt lat="43.8680533" lon="12.5940017"><ele>178.0</ele><time>2026-04-19T13:17:32.89Z</time></trkpt><trkpt lat="43.8679817" lon="12.5939567"><ele>178.0</ele><time>2026-04-19T13:17:33.888Z</time></trkpt><trkpt lat="43.8679117" lon="12.5938867"><ele>178.0</ele><time>2026-04-19T13:17:34.889Z</time></trkpt><trkpt lat="43.86785" lon="12.5938267"><ele>178.0</ele><time>2026-04-19T13:17:35.888Z</time></trkpt><trkpt lat="43.8677933" lon="12.5937717"><ele>178.0</ele><time>2026-04-19T13:17:36.889Z</time></trkpt><trkpt lat="43.8676733" lon="12.5937333"><ele>178.0</ele><time>2026-04-19T13:17:38.893Z</time></trkpt><trkpt lat="43.867605" lon="12.5937583"><ele>178.0</ele><time>2026-04-19T13:17:39.886Z</time></trkpt><trkpt lat="43.86753" lon="12.5938017"><ele>178.0</ele><time>2026-04-19T13:17:40.889Z</time></trkpt><trkpt lat="43.8674717" lon="12.5938617"><ele>176.66666666666669</ele><time>2026-04-19T13:17:41.888Z</time></trkpt><trkpt lat="43.8674217" lon="12.5939367"><ele>175.33333333333334</ele><time>2026-04-19T13:17:42.888Z</time></trkpt><trkpt lat="43.8673783" lon="12.5940283"><ele>174.0</ele><time>2026-04-19T13:17:43.889Z</time></trkpt><trkpt lat="43.8673367" lon="12.594125"><ele>172.66666666666666</ele><time>2026-04-19T13:17:44.889Z</time></trkpt><trkpt lat="43.8672967" lon="12.594205"><ele>171.33333333333331</ele><time>2026-04-19T13:17:45.888Z</time></trkpt><trkpt lat="43.8672167" lon="12.5942833"><ele>170.0</ele><time>2026-04-19T13:17:47.886Z</time></trkpt><trkpt lat="43.8671383" lon="12.5942233"><ele>170.0</ele><time>2026-04-19T13:17:49.888Z</time></trkpt><trkpt lat="43.8670967" lon="12.5941533"><ele>170.0</ele><time>2026-04-19T13:17:50.885Z</time></trkpt><trkpt lat="43.8670533" lon="12.5940533"><ele>170.0</ele><time>2026-04-19T13:17:51.886Z</time></trkpt><trkpt lat="43.8670183" lon="12.5939517"><ele>170.0</ele><time>2026-04-19T13:17:52.886Z</time></trkpt><trkpt lat="43.8669783" lon="12.59387"><ele>170.0</ele><time>2026-04-19T13:17:53.889Z</time></trkpt><trkpt lat="43.8669317" lon="12.5938067"><ele>170.0</ele><time>2026-04-19T13:17:54.886Z</time></trkpt><trkpt lat="43.8668733" lon="12.5937733"><ele>170.0</ele><time>2026-04-19T13:17:55.889Z</time></trkpt><trkpt lat="43.8667583" lon="12.5938"><ele>170.0</ele><time>2026-04-19T13:17:57.89Z</time></trkpt><trkpt lat="43.8666533" lon="12.5937883"><ele>170.0</ele><time>2026-04-19T13:17:59.888Z</time></trkpt><trkpt lat="43.8665867" lon="12.5936567"><ele>170.0</ele><time>2026-04-19T13:18:01.888Z</time></trkpt><trkpt lat="43.86656" lon="12.5935533"><ele>170.0</ele><time>2026-04-19T13:18:02.887Z</time></trkpt><trkpt lat="43.8665417" lon="12.5934433"><ele>170.0</ele><time>2026-04-19T13:18:03.886Z</time></trkpt><trkpt lat="43.86653" lon="12.593305"><ele>168.8</ele><time>2026-04-19T13:18:04.887Z</time></trkpt><trkpt lat="43.866515" lon="12.5931733"><ele>167.6</ele><time>2026-04-19T13:18:05.888Z</time></trkpt><trkpt lat="43.8664967" lon="12.5930467"><ele>166.39999999999998</ele><time>2026-04-19T13:18:06.888Z</time></trkpt><trkpt lat="43.8664783" lon="12.59292"><ele>165.2</ele><time>2026-04-19T13:18:07.888Z</time></trkpt><trkpt lat="43.8664633" lon="12.59279"><ele>164.0</ele><time>2026-04-19T13:18:08.887Z</time></trkpt><trkpt lat="43.8664533" lon="12.59266"><ele>163.0</ele><time>2026-04-19T13:18:09.888Z</time></trkpt><trkpt lat="43.8664483" lon="12.5925067"><ele>162.0</ele><time>2026-04-19T13:18:10.888Z</time></trkpt><trkpt lat="43.8664417" lon="12.5923533"><ele>161.0</ele><time>2026-04-19T13:18:11.888Z</time></trkpt><trkpt lat="43.8664333" lon="12.5922133"><ele>160.0</ele><time>2026-04-19T13:18:12.89Z</time></trkpt><trkpt lat="43.8664267" lon="12.5920867"><ele>159.0</ele><time>2026-04-19T13:18:13.89Z</time></trkpt><trkpt lat="43.8664233" lon="12.5919717"><ele>158.57142857142856</ele><time>2026-04-19T13:18:14.888Z</time></trkpt><trkpt lat="43.8664117" lon="12.5918617"><ele>158.14285714285717</ele><time>2026-04-19T13:18:15.888Z</time></trkpt><trkpt lat="43.8663967" lon="12.591765"><ele>157.71428571428572</ele><time>2026-04-19T13:18:16.888Z</time></trkpt><trkpt lat="43.86638" lon="12.591675"><ele>157.28571428571428</ele><time>2026-04-19T13:18:17.89Z</time></trkpt><trkpt lat="43.8663517" lon="12.5915917"><ele>156.85714285714283</ele><time>2026-04-19T13:18:18.888Z</time></trkpt><trkpt lat="43.8663133" lon="12.591515"><ele>156.42857142857144</ele><time>2026-04-19T13:18:19.89Z</time></trkpt><trkpt lat="43.86626" lon="12.5914417"><ele>156.0</ele><time>2026-04-19T13:18:20.886Z</time></trkpt><trkpt lat="43.8661967" lon="12.5913733"><ele>156.0</ele><time>2026-04-19T13:18:21.889Z</time></trkpt><trkpt lat="43.86612" lon="12.5913017"><ele>156.0</ele><time>2026-04-19T13:18:22.886Z</time></trkpt><trkpt lat="43.8660267" lon="12.5912167"><ele>156.0</ele><time>2026-04-19T13:18:23.888Z</time></trkpt><trkpt lat="43.8659267" lon="12.5911367"><ele>156.0</ele><time>2026-04-19T13:18:24.888Z</time></trkpt><trkpt lat="43.865835" lon="12.5910667"><ele>156.0</ele><time>2026-04-19T13:18:25.89Z</time></trkpt><trkpt lat="43.86575" lon="12.5910033"><ele>156.0</ele><time>2026-04-19T13:18:26.889Z</time></trkpt><trkpt lat="43.8656783" lon="12.5909417"><ele>156.0</ele><time>2026-04-19T13:18:27.889Z</time></trkpt><trkpt lat="43.8656183" lon="12.59088"><ele>156.0</ele><time>2026-04-19T13:18:28.89Z</time></trkpt><trkpt lat="43.865565" lon="12.5908267"><ele>156.0</ele><time>2026-04-19T13:18:29.889Z</time></trkpt><trkpt lat="43.8655033" lon="12.5907683"><ele>156.0</ele><time>2026-04-19T13:18:30.888Z</time></trkpt><trkpt lat="43.8654383" lon="12.59071"><ele>156.0</ele><time>2026-04-19T13:18:31.889Z</time></trkpt><trkpt lat="43.8653667" lon="12.590635"><ele>156.0</ele><time>2026-04-19T13:18:32.889Z</time></trkpt><trkpt lat="43.865275" lon="12.5905533"><ele>156.0</ele><time>2026-04-19T13:18:33.887Z</time></trkpt><trkpt lat="43.865185" lon="12.59046"><ele>156.0</ele><time>2026-04-19T13:18:34.886Z</time></trkpt><trkpt lat="43.8651133" lon="12.5903567"><ele>156.0</ele><time>2026-04-19T13:18:35.888Z</time></trkpt><trkpt lat="43.8650533" lon="12.59025"><ele>156.0</ele><time>2026-04-19T13:18:36.885Z</time></trkpt><trkpt lat="43.8649867" lon="12.5901367"><ele>156.5</ele><time>2026-04-19T13:18:37.889Z</time></trkpt><trkpt lat="43.8649217" lon="12.5900267"><ele>157.0</ele><time>2026-04-19T13:18:38.889Z</time></trkpt><trkpt lat="43.8648683" lon="12.5899267"><ele>157.5</ele><time>2026-04-19T13:18:39.888Z</time></trkpt><trkpt lat="43.8648233" lon="12.5898367"><ele>158.0</ele><time>2026-04-19T13:18:40.888Z</time></trkpt><trkpt lat="43.8647883" lon="12.5897533"><ele>158.5</ele><time>2026-04-19T13:18:41.889Z</time></trkpt><trkpt lat="43.8647683" lon="12.58967"><ele>159.0</ele><time>2026-04-19T13:18:42.888Z</time></trkpt><trkpt lat="43.864765" lon="12.58958"><ele>158.6</ele><time>2026-04-19T13:18:43.889Z</time></trkpt><trkpt lat="43.864775" lon="12.58947"><ele>158.2</ele><time>2026-04-19T13:18:44.888Z</time></trkpt><trkpt lat="43.86479" lon="12.5893383"><ele>157.79999999999998</ele><time>2026-04-19T13:18:45.889Z</time></trkpt><trkpt lat="43.86481" lon="12.589185"><ele>157.4</ele><time>2026-04-19T13:18:46.891Z</time></trkpt><trkpt lat="43.8648283" lon="12.5890333"><ele>157.0</ele><time>2026-04-19T13:18:47.889Z</time></trkpt><trkpt lat="43.8648483" lon="12.588875"><ele>157.0</ele><time>2026-04-19T13:18:48.888Z</time></trkpt><trkpt lat="43.8648767" lon="12.5887217"><ele>157.0</ele><time>2026-04-19T13:18:49.889Z</time></trkpt><trkpt lat="43.8649133" lon="12.58858"><ele>157.0</ele><time>2026-04-19T13:18:50.889Z</time></trkpt><trkpt lat="43.86495" lon="12.5884467"><ele>157.0</ele><time>2026-04-19T13:18:51.885Z</time></trkpt><trkpt lat="43.864975" lon="12.588315"><ele>157.0</ele><time>2026-04-19T13:18:52.89Z</time></trkpt><trkpt lat="43.86499" lon="12.58818"><ele>156.66666666666669</ele><time>2026-04-19T13:18:53.886Z</time></trkpt><trkpt lat="43.8649917" lon="12.5880433"><ele>156.33333333333334</ele><time>2026-04-19T13:18:54.889Z</time></trkpt><trkpt lat="43.8649883" lon="12.5879233"><ele>156.0</ele><time>2026-04-19T13:18:55.886Z</time></trkpt><trkpt lat="43.8649933" lon="12.587815"><ele>155.66666666666666</ele><time>2026-04-19T13:18:56.888Z</time></trkpt><trkpt lat="43.8649917" lon="12.5877067"><ele>155.33333333333331</ele><time>2026-04-19T13:18:57.887Z</time></trkpt><trkpt lat="43.864975" lon="12.5876067"><ele>155.0</ele><time>2026-04-19T13:18:58.888Z</time></trkpt><trkpt lat="43.864935" lon="12.5875117"><ele>155.8</ele><time>2026-04-19T13:18:59.888Z</time></trkpt><trkpt lat="43.8648683" lon="12.5874167"><ele>156.6</ele><time>2026-04-19T13:19:00.889Z</time></trkpt><trkpt lat="43.86479" lon="12.5873117"><ele>157.4</ele><time>2026-04-19T13:19:01.886Z</time></trkpt><trkpt lat="43.86471" lon="12.58721"><ele>158.2</ele><time>2026-04-19T13:19:02.886Z</time></trkpt><trkpt lat="43.8646433" lon="12.587115"><ele>159.0</ele><time>2026-04-19T13:19:03.887Z</time></trkpt><trkpt lat="43.8645933" lon="12.5870183"><ele>161.6</ele><time>2026-04-19T13:19:04.887Z</time></trkpt><trkpt lat="43.8645517" lon="12.5869167"><ele>164.2</ele><time>2026-04-19T13:19:05.887Z</time></trkpt><trkpt lat="43.8645217" lon="12.5867983"><ele>166.79999999999998</ele><time>2026-04-19T13:19:06.886Z</time></trkpt><trkpt lat="43.8645" lon="12.5866633"><ele>169.4</ele><time>2026-04-19T13:19:07.888Z</time></trkpt><trkpt lat="43.86448" lon="12.5865117"><ele>172.0</ele><time>2026-04-19T13:19:08.887Z</time></trkpt><trkpt lat="43.8644667" lon="12.5863567"><ele>172.0</ele><time>2026-04-19T13:19:09.887Z</time></trkpt><trkpt lat="43.864455" lon="12.586215"><ele>172.0</ele><time>2026-04-19T13:19:10.888Z</time></trkpt><trkpt lat="43.86445" lon="12.5860917"><ele>172.0</ele><time>2026-04-19T13:19:11.886Z</time></trkpt><trkpt lat="43.8644567" lon="12.5859717"><ele>172.0</ele><time>2026-04-19T13:19:12.886Z</time></trkpt><trkpt lat="43.86448" lon="12.5858583"><ele>172.0</ele><time>2026-04-19T13:19:13.89Z</time></trkpt><trkpt lat="43.86452" lon="12.58576"><ele>172.0</ele><time>2026-04-19T13:19:14.886Z</time></trkpt><trkpt lat="43.86456" lon="12.5856683"><ele>173.5</ele><time>2026-04-19T13:19:15.888Z</time></trkpt><trkpt lat="43.8645783" lon="12.5855733"><ele>175.0</ele><time>2026-04-19T13:19:16.886Z</time></trkpt><trkpt lat="43.86459" lon="12.5854767"><ele>176.5</ele><time>2026-04-19T13:19:17.891Z</time></trkpt><trkpt lat="43.8645617" lon="12.5853883"><ele>178.0</ele><time>2026-04-19T13:19:18.888Z</time></trkpt><trkpt lat="43.8645067" lon="12.5853417"><ele>179.5</ele><time>2026-04-19T13:19:19.888Z</time></trkpt><trkpt lat="43.8644267" lon="12.58531"><ele>181.0</ele><time>2026-04-19T13:19:20.889Z</time></trkpt><trkpt lat="43.8643167" lon="12.5852817"><ele>180.75</ele><time>2026-04-19T13:19:21.889Z</time></trkpt><trkpt lat="43.864195" lon="12.5852567"><ele>180.5</ele><time>2026-04-19T13:19:22.889Z</time></trkpt><trkpt lat="43.86408" lon="12.5852367"><ele>180.25</ele><time>2026-04-19T13:19:23.888Z</time></trkpt><trkpt lat="43.8639617" lon="12.5852267"><ele>180.0</ele><time>2026-04-19T13:19:24.885Z</time></trkpt><trkpt lat="43.8638417" lon="12.5852383"><ele>180.0</ele><time>2026-04-19T13:19:25.89Z</time></trkpt><trkpt lat="43.8637167" lon="12.5852583"><ele>180.0</ele><time>2026-04-19T13:19:26.888Z</time></trkpt><trkpt lat="43.86359" lon="12.5852733"><ele>180.0</ele><time>2026-04-19T13:19:27.886Z</time></trkpt><trkpt lat="43.86347" lon="12.5852733"><ele>180.0</ele><time>2026-04-19T13:19:28.885Z</time></trkpt><trkpt lat="43.8633583" lon="12.5852483"><ele>182.25</ele><time>2026-04-19T13:19:29.887Z</time></trkpt><trkpt lat="43.863255" lon="12.585205"><ele>184.5</ele><time>2026-04-19T13:19:30.887Z</time></trkpt><trkpt lat="43.8631483" lon="12.5851367"><ele>186.75</ele><time>2026-04-19T13:19:31.886Z</time></trkpt><trkpt lat="43.8630283" lon="12.58506"><ele>189.0</ele><time>2026-04-19T13:19:32.886Z</time></trkpt><trkpt lat="43.8628967" lon="12.5849833"><ele>189.0</ele><time>2026-04-19T13:19:33.885Z</time></trkpt><trkpt lat="43.862765" lon="12.584915"><ele>189.0</ele><time>2026-04-19T13:19:34.887Z</time></trkpt><trkpt lat="43.8626383" lon="12.58486"><ele>189.0</ele><time>2026-04-19T13:19:35.885Z</time></trkpt><trkpt lat="43.8625233" lon="12.5848167"><ele>189.0</ele><time>2026-04-19T13:19:36.887Z</time></trkpt><trkpt lat="43.8624133" lon="12.5847733"><ele>187.6</ele><time>2026-04-19T13:19:37.887Z</time></trkpt><trkpt lat="43.8623067" lon="12.5847167"><ele>186.2</ele><time>2026-04-19T13:19:38.886Z</time></trkpt><trkpt lat="43.8622083" lon="12.5846367"><ele>184.79999999999998</ele><time>2026-04-19T13:19:39.887Z</time></trkpt><trkpt lat="43.8621133" lon="12.5845533"><ele>183.39999999999998</ele><time>2026-04-19T13:19:40.886Z</time></trkpt><trkpt lat="43.8620267" lon="12.5844783"><ele>182.0</ele><time>2026-04-19T13:19:41.886Z</time></trkpt><trkpt lat="43.861965" lon="12.5844067"><ele>186.6</ele><time>2026-04-19T13:19:42.886Z</time></trkpt><trkpt lat="43.86192" lon="12.5842517"><ele>191.2</ele><time>2026-04-19T13:19:44.89Z</time></trkpt><trkpt lat="43.86197" lon="12.5841017"><ele>195.8</ele><time>2026-04-19T13:19:46.887Z</time></trkpt><trkpt lat="43.8620567" lon="12.5839917"><ele>200.4</ele><time>2026-04-19T13:19:48.888Z</time></trkpt><trkpt lat="43.8621367" lon="12.5839917"><ele>205.0</ele><time>2026-04-19T13:19:49.89Z</time></trkpt><trkpt lat="43.8622133" lon="12.58399"><ele>205.0</ele><time>2026-04-19T13:19:50.889Z</time></trkpt><trkpt lat="43.8623283" lon="12.5840383"><ele>205.0</ele><time>2026-04-19T13:19:51.889Z</time></trkpt><trkpt lat="43.8624567" lon="12.5841267"><ele>205.0</ele><time>2026-04-19T13:19:52.886Z</time></trkpt><trkpt lat="43.8626183" lon="12.5842433"><ele>205.0</ele><time>2026-04-19T13:19:53.886Z</time></trkpt><trkpt lat="43.862785" lon="12.5843383"><ele>208.0</ele><time>2026-04-19T13:19:54.889Z</time></trkpt><trkpt lat="43.8629267" lon="12.5844083"><ele>211.0</ele><time>2026-04-19T13:19:55.888Z</time></trkpt><trkpt lat="43.86306" lon="12.5844667"><ele>214.0</ele><time>2026-04-19T13:19:56.886Z</time></trkpt><trkpt lat="43.8631683" lon="12.5845167"><ele>217.0</ele><time>2026-04-19T13:19:57.887Z</time></trkpt><trkpt lat="43.8632633" lon="12.58456"><ele>216.99999999999997</ele><time>2026-04-19T13:19:58.885Z</time></trkpt><trkpt lat="43.8633467" lon="12.584575"><ele>217.0</ele><time>2026-04-19T13:19:59.89Z</time></trkpt><trkpt lat="43.86342" lon="12.5845567"><ele>217.0</ele><time>2026-04-19T13:20:00.888Z</time></trkpt><trkpt lat="43.863475" lon="12.5845067"><ele>217.0</ele><time>2026-04-19T13:20:01.89Z</time></trkpt><trkpt lat="43.8634883" lon="12.5843833"><ele>216.99999999999997</ele><time>2026-04-19T13:20:03.889Z</time></trkpt><trkpt lat="43.8633933" lon="12.58429"><ele>217.0</ele><time>2026-04-19T13:20:05.888Z</time></trkpt><trkpt lat="43.8632683" lon="12.5842033"><ele>217.0</ele><time>2026-04-19T13:20:07.886Z</time></trkpt><trkpt lat="43.8631883" lon="12.5841583"><ele>217.0</ele><time>2026-04-19T13:20:08.886Z</time></trkpt><trkpt lat="43.8630483" lon="12.584095"><ele>217.0</ele><time>2026-04-19T13:20:09.887Z</time></trkpt><trkpt lat="43.86292" lon="12.5840083"><ele>217.0</ele><time>2026-04-19T13:20:10.886Z</time></trkpt><trkpt lat="43.8627917" lon="12.583905"><ele>217.0</ele><time>2026-04-19T13:20:11.886Z</time></trkpt><trkpt lat="43.8626467" lon="12.583785"><ele>217.0</ele><time>2026-04-19T13:20:12.886Z</time></trkpt><trkpt lat="43.8625267" lon="12.5836733"><ele>217.0</ele><time>2026-04-19T13:20:13.887Z</time></trkpt><trkpt lat="43.86241" lon="12.5835667"><ele>220.5</ele><time>2026-04-19T13:20:14.888Z</time></trkpt><trkpt lat="43.8622967" lon="12.5834583"><ele>224.0</ele><time>2026-04-19T13:20:15.885Z</time></trkpt><trkpt lat="43.86219" lon="12.58335"><ele>227.5</ele><time>2026-04-19T13:20:16.889Z</time></trkpt><trkpt lat="43.8620867" lon="12.5832367"><ele>231.0</ele><time>2026-04-19T13:20:17.884Z</time></trkpt><trkpt lat="43.8619817" lon="12.58313"><ele>231.0</ele><time>2026-04-19T13:20:18.885Z</time></trkpt><trkpt lat="43.861875" lon="12.5830317"><ele>231.0</ele><time>2026-04-19T13:20:19.886Z</time></trkpt><trkpt lat="43.861765" lon="12.5829267"><ele>231.0</ele><time>2026-04-19T13:20:20.884Z</time></trkpt><trkpt lat="43.8616567" lon="12.5828183"><ele>231.0</ele><time>2026-04-19T13:20:21.89Z</time></trkpt><trkpt lat="43.86155" lon="12.582695"><ele>231.5</ele><time>2026-04-19T13:20:22.887Z</time></trkpt><trkpt lat="43.8614433" lon="12.5825717"><ele>232.0</ele><time>2026-04-19T13:20:23.888Z</time></trkpt><trkpt lat="43.861335" lon="12.5824533"><ele>232.5</ele><time>2026-04-19T13:20:24.888Z</time></trkpt><trkpt lat="43.8612333" lon="12.5823417"><ele>233.0</ele><time>2026-04-19T13:20:25.886Z</time></trkpt><trkpt lat="43.8611467" lon="12.5822417"><ele>233.00000000000003</ele><time>2026-04-19T13:20:26.886Z</time></trkpt><trkpt lat="43.86108" lon="12.5821567"><ele>233.0</ele><time>2026-04-19T13:20:27.885Z</time></trkpt><trkpt lat="43.8610317" lon="12.582085"><ele>233.0</ele><time>2026-04-19T13:20:28.888Z</time></trkpt><trkpt lat="43.860995" lon="12.5819217"><ele>233.0</ele><time>2026-04-19T13:20:30.885Z</time></trkpt><trkpt lat="43.8610017" lon="12.5818167"><ele>233.00000000000003</ele><time>2026-04-19T13:20:31.887Z</time></trkpt><trkpt lat="43.861025" lon="12.5817083"><ele>233.0</ele><time>2026-04-19T13:20:32.885Z</time></trkpt><trkpt lat="43.8610683" lon="12.5816033"><ele>236.00000000000003</ele><time>2026-04-19T13:20:33.886Z</time></trkpt><trkpt lat="43.8611067" lon="12.5815083"><ele>239.0</ele><time>2026-04-19T13:20:34.886Z</time></trkpt><trkpt lat="43.86115" lon="12.5814283"><ele>242.0</ele><time>2026-04-19T13:20:35.888Z</time></trkpt><trkpt lat="43.8612033" lon="12.5813767"><ele>245.0</ele><time>2026-04-19T13:20:36.888Z</time></trkpt><trkpt lat="43.8613167" lon="12.5814067"><ele>248.00000000000003</ele><time>2026-04-19T13:20:38.888Z</time></trkpt><trkpt lat="43.86136" lon="12.5815433"><ele>251.0</ele><time>2026-04-19T13:20:40.888Z</time></trkpt><trkpt lat="43.861365" lon="12.5816433"><ele>251.0</ele><time>2026-04-19T13:20:41.886Z</time></trkpt><trkpt lat="43.86135" lon="12.5817783"><ele>251.00000000000003</ele><time>2026-04-19T13:20:42.886Z</time></trkpt><trkpt lat="43.8613483" lon="12.5818783"><ele>251.00000000000003</ele><time>2026-04-19T13:20:43.885Z</time></trkpt><trkpt lat="43.8614" lon="12.5819717"><ele>251.0</ele><time>2026-04-19T13:20:45.889Z</time></trkpt><trkpt lat="43.8614833" lon="12.5819033"><ele>251.0</ele><time>2026-04-19T13:20:47.888Z</time></trkpt><trkpt lat="43.861505" lon="12.5817717"><ele>251.0</ele><time>2026-04-19T13:20:48.888Z</time></trkpt><trkpt lat="43.8615433" lon="12.5816383"><ele>251.0</ele><time>2026-04-19T13:20:49.888Z</time></trkpt><trkpt lat="43.86157" lon="12.5814417"><ele>251.0</ele><time>2026-04-19T13:20:50.889Z</time></trkpt><trkpt lat="43.8616083" lon="12.5812617"><ele>251.0</ele><time>2026-04-19T13:20:51.887Z</time></trkpt><trkpt lat="43.8616517" lon="12.5810833"><ele>250.5</ele><time>2026-04-19T13:20:52.888Z</time></trkpt><trkpt lat="43.8616933" lon="12.5809033"><ele>250.0</ele><time>2026-04-19T13:20:53.887Z</time></trkpt><trkpt lat="43.8617383" lon="12.58073"><ele>249.5</ele><time>2026-04-19T13:20:54.885Z</time></trkpt><trkpt lat="43.8617783" lon="12.58057"><ele>249.0</ele><time>2026-04-19T13:20:55.885Z</time></trkpt><trkpt lat="43.8618183" lon="12.5804317"><ele>253.0</ele><time>2026-04-19T13:20:56.887Z</time></trkpt><trkpt lat="43.8618533" lon="12.5803183"><ele>257.0</ele><time>2026-04-19T13:20:57.886Z</time></trkpt><trkpt lat="43.861885" lon="12.5802233"><ele>261.0</ele><time>2026-04-19T13:20:58.886Z</time></trkpt><trkpt lat="43.8619283" lon="12.580155"><ele>265.0</ele><time>2026-04-19T13:20:59.887Z</time></trkpt><trkpt lat="43.8620183" lon="12.5801067"><ele>269.0</ele><time>2026-04-19T13:21:01.889Z</time></trkpt><trkpt lat="43.8621117" lon="12.5801817"><ele>273.0</ele><time>2026-04-19T13:21:03.888Z</time></trkpt><trkpt lat="43.86217" lon="12.5803367"><ele>273.6</ele><time>2026-04-19T13:21:05.889Z</time></trkpt><trkpt lat="43.8621867" lon="12.5804317"><ele>274.20000000000005</ele><time>2026-04-19T13:21:06.885Z</time></trkpt><trkpt lat="43.8621967" lon="12.5805383"><ele>274.8</ele><time>2026-04-19T13:21:07.889Z</time></trkpt><trkpt lat="43.8621933" lon="12.5806683"><ele>275.40000000000003</ele><time>2026-04-19T13:21:08.884Z</time></trkpt><trkpt lat="43.862185" lon="12.5808183"><ele>276.0</ele><time>2026-04-19T13:21:09.888Z</time></trkpt><trkpt lat="43.8621717" lon="12.58097"><ele>276.0</ele><time>2026-04-19T13:21:10.885Z</time></trkpt><trkpt lat="43.8621583" lon="12.58112"><ele>276.0</ele><time>2026-04-19T13:21:11.887Z</time></trkpt><trkpt lat="43.862145" lon="12.5812683"><ele>276.0</ele><time>2026-04-19T13:21:12.885Z</time></trkpt><trkpt lat="43.862135" lon="12.5813983"><ele>276.0</ele><time>2026-04-19T13:21:13.887Z</time></trkpt><trkpt lat="43.86213" lon="12.5815067"><ele>276.0</ele><time>2026-04-19T13:21:14.885Z</time></trkpt><trkpt lat="43.8621317" lon="12.5816083"><ele>275.6</ele><time>2026-04-19T13:21:15.886Z</time></trkpt><trkpt lat="43.8621417" lon="12.5816983"><ele>275.20000000000005</ele><time>2026-04-19T13:21:16.889Z</time></trkpt><trkpt lat="43.8621933" lon="12.58178"><ele>274.79999999999995</ele><time>2026-04-19T13:21:17.888Z</time></trkpt><trkpt lat="43.8622733" lon="12.58186"><ele>274.4</ele><time>2026-04-19T13:21:18.888Z</time></trkpt><trkpt lat="43.8623867" lon="12.5819433"><ele>274.0</ele><time>2026-04-19T13:21:19.889Z</time></trkpt><trkpt lat="43.8625133" lon="12.5820367"><ele>272.59999999999997</ele><time>2026-04-19T13:21:20.888Z</time></trkpt><trkpt lat="43.8626233" lon="12.5821183"><ele>271.2</ele><time>2026-04-19T13:21:21.888Z</time></trkpt><trkpt lat="43.8627183" lon="12.5821933"><ele>269.79999999999995</ele><time>2026-04-19T13:21:22.887Z</time></trkpt><trkpt lat="43.8628033" lon="12.582265"><ele>268.4</ele><time>2026-04-19T13:21:23.885Z</time></trkpt><trkpt lat="43.8628867" lon="12.582315"><ele>267.0</ele><time>2026-04-19T13:21:24.885Z</time></trkpt><trkpt lat="43.8629667" lon="12.582345"><ele>267.0</ele><time>2026-04-19T13:21:25.888Z</time></trkpt><trkpt lat="43.863045" lon="12.582365"><ele>267.0</ele><time>2026-04-19T13:21:26.888Z</time></trkpt><trkpt lat="43.8631217" lon="12.5823567"><ele>267.0</ele><time>2026-04-19T13:21:27.886Z</time></trkpt><trkpt lat="43.8632083" lon="12.58231"><ele>267.0</ele><time>2026-04-19T13:21:28.888Z</time></trkpt><trkpt lat="43.86329" lon="12.5822383"><ele>267.0</ele><time>2026-04-19T13:21:29.888Z</time></trkpt><trkpt lat="43.863375" lon="12.582125"><ele>265.75</ele><time>2026-04-19T13:21:30.889Z</time></trkpt><trkpt lat="43.86346" lon="12.5819717"><ele>264.5</ele><time>2026-04-19T13:21:31.885Z</time></trkpt><trkpt lat="43.8635433" lon="12.58183"><ele>263.25</ele><time>2026-04-19T13:21:32.886Z</time></trkpt><trkpt lat="43.8636317" lon="12.5816883"><ele>262.0</ele><time>2026-04-19T13:21:33.888Z</time></trkpt><trkpt lat="43.8637117" lon="12.581565"><ele>262.0</ele><time>2026-04-19T13:21:34.888Z</time></trkpt><trkpt lat="43.8637767" lon="12.5814633"><ele>262.0</ele><time>2026-04-19T13:21:35.885Z</time></trkpt><trkpt lat="43.86383" lon="12.5813733"><ele>262.0</ele><time>2026-04-19T13:21:36.886Z</time></trkpt><trkpt lat="43.8638683" lon="12.5812933"><ele>262.0</ele><time>2026-04-19T13:21:37.886Z</time></trkpt><trkpt lat="43.86387" lon="12.5811417"><ele>262.0</ele><time>2026-04-19T13:21:39.888Z</time></trkpt><trkpt lat="43.8637933" lon="12.5810617"><ele>262.0</ele><time>2026-04-19T13:21:41.889Z</time></trkpt><trkpt lat="43.8637267" lon="12.5811017"><ele>262.0</ele><time>2026-04-19T13:21:42.888Z</time></trkpt><trkpt lat="43.8636417" lon="12.5811767"><ele>262.0</ele><time>2026-04-19T13:21:43.887Z</time></trkpt><trkpt lat="43.8635567" lon="12.5812483"><ele>262.0</ele><time>2026-04-19T13:21:44.885Z</time></trkpt><trkpt lat="43.8634467" lon="12.58136"><ele>262.0</ele><time>2026-04-19T13:21:45.887Z</time></trkpt><trkpt lat="43.86334" lon="12.5814633"><ele>266.8</ele><time>2026-04-19T13:21:46.887Z</time></trkpt><trkpt lat="43.8632567" lon="12.581525"><ele>271.6</ele><time>2026-04-19T13:21:47.886Z</time></trkpt><trkpt lat="43.86317" lon="12.5815683"><ele>276.40000000000003</ele><time>2026-04-19T13:21:48.889Z</time></trkpt><trkpt lat="43.8631033" lon="12.581585"><ele>281.2</ele><time>2026-04-19T13:21:49.887Z</time></trkpt><trkpt lat="43.863025" lon="12.58151"><ele>286.0</ele><time>2026-04-19T13:21:51.885Z</time></trkpt><trkpt lat="43.8630117" lon="12.58136"><ele>286.0</ele><time>2026-04-19T13:21:53.889Z</time></trkpt><trkpt lat="43.86304" lon="12.5812433"><ele>286.0</ele><time>2026-04-19T13:21:54.889Z</time></trkpt><trkpt lat="43.8630683" lon="12.5811133"><ele>286.0</ele><time>2026-04-19T13:21:55.888Z</time></trkpt><trkpt lat="43.863115" lon="12.5809317"><ele>286.0</ele><time>2026-04-19T13:21:56.888Z</time></trkpt><trkpt lat="43.863205" lon="12.580705"><ele>289.25</ele><time>2026-04-19T13:21:57.888Z</time></trkpt><trkpt lat="43.86326" lon="12.5805233"><ele>292.5</ele><time>2026-04-19T13:21:58.889Z</time></trkpt><trkpt lat="43.8633117" lon="12.5803467"><ele>295.75</ele><time>2026-04-19T13:21:59.886Z</time></trkpt><trkpt lat="43.8633633" lon="12.580185"><ele>299.0</ele><time>2026-04-19T13:22:00.888Z</time></trkpt><trkpt lat="43.8634083" lon="12.580035"><ele>301.0</ele><time>2026-04-19T13:22:01.89Z</time></trkpt><trkpt lat="43.8634533" lon="12.5798883"><ele>303.0</ele><time>2026-04-19T13:22:02.888Z</time></trkpt><trkpt lat="43.8635067" lon="12.5797567"><ele>305.0</ele><time>2026-04-19T13:22:03.888Z</time></trkpt><trkpt lat="43.863565" lon="12.57963"><ele>307.0</ele><time>2026-04-19T13:22:04.889Z</time></trkpt><trkpt lat="43.8636283" lon="12.579505"><ele>309.0</ele><time>2026-04-19T13:22:05.886Z</time></trkpt><trkpt lat="43.863695" lon="12.5793733"><ele>311.75</ele><time>2026-04-19T13:22:06.889Z</time></trkpt><trkpt lat="43.8637583" lon="12.5792317"><ele>314.5</ele><time>2026-04-19T13:22:07.888Z</time></trkpt><trkpt lat="43.8638183" lon="12.5790833"><ele>317.25</ele><time>2026-04-19T13:22:08.888Z</time></trkpt><trkpt lat="43.8638717" lon="12.5789317"><ele>320.0</ele><time>2026-04-19T13:22:09.889Z</time></trkpt><trkpt lat="43.8639267" lon="12.5787733"><ele>319.75</ele><time>2026-04-19T13:22:10.885Z</time></trkpt><trkpt lat="43.8639917" lon="12.5786183"><ele>319.5</ele><time>2026-04-19T13:22:11.888Z</time></trkpt><trkpt lat="43.8640667" lon="12.5784683"><ele>319.25</ele><time>2026-04-19T13:22:12.889Z</time></trkpt><trkpt lat="43.8641483" lon="12.5783183"><ele>319.0</ele><time>2026-04-19T13:22:13.889Z</time></trkpt><trkpt lat="43.8642267" lon="12.57817"><ele>321.4</ele><time>2026-04-19T13:22:14.888Z</time></trkpt><trkpt lat="43.8642983" lon="12.5780267"><ele>323.79999999999995</ele><time>2026-04-19T13:22:15.888Z</time></trkpt><trkpt lat="43.864365" lon="12.5778917"><ele>326.20000000000005</ele><time>2026-04-19T13:22:16.887Z</time></trkpt><trkpt lat="43.8644267" lon="12.5777733"><ele>328.6</ele><time>2026-04-19T13:22:17.885Z</time></trkpt><trkpt lat="43.86448" lon="12.5776783"><ele>331.0</ele><time>2026-04-19T13:22:18.886Z</time></trkpt><trkpt lat="43.8645267" lon="12.577615"><ele>331.0</ele><time>2026-04-19T13:22:19.885Z</time></trkpt><trkpt lat="43.8645917" lon="12.5775867"><ele>331.0</ele><time>2026-04-19T13:22:21.886Z</time></trkpt><trkpt lat="43.8646233" lon="12.577685"><ele>331.0</ele><time>2026-04-19T13:22:23.888Z</time></trkpt><trkpt lat="43.8646033" lon="12.5778383"><ele>331.0</ele><time>2026-04-19T13:22:25.889Z</time></trkpt><trkpt lat="43.8645767" lon="12.5779367"><ele>331.0</ele><time>2026-04-19T13:22:26.887Z</time></trkpt><trkpt lat="43.864555" lon="12.5780367"><ele>331.0</ele><time>2026-04-19T13:22:27.888Z</time></trkpt><trkpt lat="43.8645433" lon="12.5781733"><ele>331.0</ele><time>2026-04-19T13:22:29.886Z</time></trkpt><trkpt lat="43.8646183" lon="12.5782283"><ele>331.0</ele><time>2026-04-19T13:22:32.885Z</time></trkpt><trkpt lat="43.8647033" lon="12.5781283"><ele>331.0</ele><time>2026-04-19T13:22:34.887Z</time></trkpt><trkpt lat="43.8647467" lon="12.57804"><ele>331.0</ele><time>2026-04-19T13:22:35.889Z</time></trkpt><trkpt lat="43.864785" lon="12.577925"><ele>331.0</ele><time>2026-04-19T13:22:36.888Z</time></trkpt><trkpt lat="43.8648183" lon="12.577805"><ele>331.3333333333333</ele><time>2026-04-19T13:22:37.887Z</time></trkpt><trkpt lat="43.8648467" lon="12.5777067"><ele>331.66666666666663</ele><time>2026-04-19T13:22:38.889Z</time></trkpt><trkpt lat="43.8648817" lon="12.57762"><ele>332.0</ele><time>2026-04-19T13:22:39.888Z</time></trkpt><trkpt lat="43.8649333" lon="12.577545"><ele>332.3333333333333</ele><time>2026-04-19T13:22:40.888Z</time></trkpt><trkpt lat="43.8650083" lon="12.5774817"><ele>332.6666666666667</ele><time>2026-04-19T13:22:41.885Z</time></trkpt><trkpt lat="43.8650917" lon="12.5774317"><ele>333.0</ele><time>2026-04-19T13:22:42.888Z</time></trkpt><trkpt lat="43.8651917" lon="12.57738"><ele>332.2</ele><time>2026-04-19T13:22:43.885Z</time></trkpt><trkpt lat="43.8652983" lon="12.57732"><ele>331.4</ele><time>2026-04-19T13:22:44.888Z</time></trkpt><trkpt lat="43.865395" lon="12.57726"><ele>330.59999999999997</ele><time>2026-04-19T13:22:45.889Z</time></trkpt><trkpt lat="43.86549" lon="12.5771933"><ele>329.79999999999995</ele><time>2026-04-19T13:22:46.885Z</time></trkpt><trkpt lat="43.8655817" lon="12.57712"><ele>329.0</ele><time>2026-04-19T13:22:47.886Z</time></trkpt><trkpt lat="43.8656733" lon="12.5770317"><ele>330.6</ele><time>2026-04-19T13:22:48.886Z</time></trkpt><trkpt lat="43.86576" lon="12.576935"><ele>332.2</ele><time>2026-04-19T13:22:49.886Z</time></trkpt><trkpt lat="43.8658283" lon="12.5768383"><ele>333.8</ele><time>2026-04-19T13:22:50.885Z</time></trkpt><trkpt lat="43.865885" lon="12.5767517"><ele>335.40000000000003</ele><time>2026-04-19T13:22:51.886Z</time></trkpt><trkpt lat="43.8659317" lon="12.5766817"><ele>337.0</ele><time>2026-04-19T13:22:52.886Z</time></trkpt><trkpt lat="43.8660317" lon="12.5766217"><ele>338.16666666666663</ele><time>2026-04-19T13:22:54.889Z</time></trkpt><trkpt lat="43.8660967" lon="12.5766533"><ele>339.3333333333333</ele><time>2026-04-19T13:22:55.89Z</time></trkpt><trkpt lat="43.8661683" lon="12.5767167"><ele>340.5</ele><time>2026-04-19T13:22:56.888Z</time></trkpt><trkpt lat="43.86624" lon="12.5767533"><ele>341.6666666666667</ele><time>2026-04-19T13:22:57.887Z</time></trkpt><trkpt lat="43.8663067" lon="12.5767983"><ele>342.83333333333337</ele><time>2026-04-19T13:22:58.889Z</time></trkpt><trkpt lat="43.8663867" lon="12.57682"><ele>344.0</ele><time>2026-04-19T13:22:59.889Z</time></trkpt><trkpt lat="43.86647" lon="12.5768367"><ele>344.0</ele><time>2026-04-19T13:23:00.889Z</time></trkpt><trkpt lat="43.866565" lon="12.5768317"><ele>344.0</ele><time>2026-04-19T13:23:01.89Z</time></trkpt><trkpt lat="43.86666" lon="12.5768083"><ele>344.0</ele><time>2026-04-19T13:23:02.884Z</time></trkpt><trkpt lat="43.86676" lon="12.5767633"><ele>344.0</ele><time>2026-04-19T13:23:03.888Z</time></trkpt><trkpt lat="43.8668717" lon="12.5767067"><ele>344.0</ele><time>2026-04-19T13:23:04.888Z</time></trkpt><trkpt lat="43.86699" lon="12.5766483"><ele>341.33333333333337</ele><time>2026-04-19T13:23:05.888Z</time></trkpt><trkpt lat="43.8670967" lon="12.5765917"><ele>338.6666666666667</ele><time>2026-04-19T13:23:06.887Z</time></trkpt><trkpt lat="43.8671833" lon="12.57654"><ele>336.0</ele><time>2026-04-19T13:23:07.888Z</time></trkpt><trkpt lat="43.86726" lon="12.5764983"><ele>333.3333333333333</ele><time>2026-04-19T13:23:08.888Z</time></trkpt><trkpt lat="43.8673217" lon="12.5764483"><ele>330.66666666666663</ele><time>2026-04-19T13:23:09.888Z</time></trkpt><trkpt lat="43.8673833" lon="12.5763833"><ele>328.0</ele><time>2026-04-19T13:23:10.885Z</time></trkpt><trkpt lat="43.867435" lon="12.5763033"><ele>331.79999999999995</ele><time>2026-04-19T13:23:11.888Z</time></trkpt><trkpt lat="43.86752" lon="12.5761833"><ele>335.6</ele><time>2026-04-19T13:23:13.889Z</time></trkpt><trkpt lat="43.86765" lon="12.57616"><ele>339.4</ele><time>2026-04-19T13:23:15.888Z</time></trkpt><trkpt lat="43.8677417" lon="12.5761583"><ele>343.20000000000005</ele><time>2026-04-19T13:23:16.886Z</time></trkpt><trkpt lat="43.8678333" lon="12.57614"><ele>347.0</ele><time>2026-04-19T13:23:17.885Z</time></trkpt><trkpt lat="43.86793" lon="12.57611"><ele>347.0</ele><time>2026-04-19T13:23:18.886Z</time></trkpt><trkpt lat="43.868025" lon="12.5760683"><ele>347.0</ele><time>2026-04-19T13:23:19.888Z</time></trkpt><trkpt lat="43.868125" lon="12.5760217"><ele>347.0</ele><time>2026-04-19T13:23:20.886Z</time></trkpt><trkpt lat="43.8682317" lon="12.575965"><ele>347.0</ele><time>2026-04-19T13:23:21.885Z</time></trkpt><trkpt lat="43.8683367" lon="12.5759067"><ele>347.0</ele><time>2026-04-19T13:23:22.889Z</time></trkpt><trkpt lat="43.8684417" lon="12.575845"><ele>347.20000000000005</ele><time>2026-04-19T13:23:23.888Z</time></trkpt><trkpt lat="43.86854" lon="12.5757767"><ele>347.4</ele><time>2026-04-19T13:23:24.887Z</time></trkpt><trkpt lat="43.86864" lon="12.57571"><ele>347.6</ele><time>2026-04-19T13:23:25.889Z</time></trkpt><trkpt lat="43.868735" lon="12.5756417"><ele>347.79999999999995</ele><time>2026-04-19T13:23:26.889Z</time></trkpt><trkpt lat="43.8688133" lon="12.575575"><ele>348.0</ele><time>2026-04-19T13:23:27.888Z</time></trkpt><trkpt lat="43.8688867" lon="12.5755133"><ele>348.0</ele><time>2026-04-19T13:23:28.888Z</time></trkpt><trkpt lat="43.868955" lon="12.57546"><ele>348.0</ele><time>2026-04-19T13:23:29.889Z</time></trkpt><trkpt lat="43.8690217" lon="12.575425"><ele>348.0</ele><time>2026-04-19T13:23:30.888Z</time></trkpt><trkpt lat="43.86909" lon="12.575405"><ele>348.0</ele><time>2026-04-19T13:23:31.887Z</time></trkpt><trkpt lat="43.8692133" lon="12.5754417"><ele>348.0</ele><time>2026-04-19T13:23:33.887Z</time></trkpt><trkpt lat="43.869255" lon="12.5755083"><ele>348.0</ele><time>2026-04-19T13:23:34.888Z</time></trkpt><trkpt lat="43.8692933" lon="12.5756083"><ele>350.0</ele><time>2026-04-19T13:23:35.887Z</time></trkpt><trkpt lat="43.869335" lon="12.5757233"><ele>352.0</ele><time>2026-04-19T13:23:36.886Z</time></trkpt><trkpt lat="43.86936" lon="12.5758433"><ele>354.0</ele><time>2026-04-19T13:23:37.889Z</time></trkpt><trkpt lat="43.8693917" lon="12.575995"><ele>356.0</ele><time>2026-04-19T13:23:39.886Z</time></trkpt><trkpt lat="43.8694467" lon="12.576065"><ele>358.0</ele><time>2026-04-19T13:23:40.89Z</time></trkpt><trkpt lat="43.8695483" lon="12.5761483"><ele>354.5</ele><time>2026-04-19T13:23:41.889Z</time></trkpt><trkpt lat="43.8696567" lon="12.5762333"><ele>351.0</ele><time>2026-04-19T13:23:42.888Z</time></trkpt><trkpt lat="43.8697617" lon="12.5763083"><ele>347.5</ele><time>2026-04-19T13:23:43.889Z</time></trkpt><trkpt lat="43.8698717" lon="12.5763867"><ele>344.0</ele><time>2026-04-19T13:23:44.886Z</time></trkpt><trkpt lat="43.8699633" lon="12.5764433"><ele>344.0</ele><time>2026-04-19T13:23:45.889Z</time></trkpt><trkpt lat="43.8700483" lon="12.57649"><ele>344.0</ele><time>2026-04-19T13:23:46.892Z</time></trkpt><trkpt lat="43.8701367" lon="12.5765217"><ele>344.0</ele><time>2026-04-19T13:23:47.888Z</time></trkpt><trkpt lat="43.8702267" lon="12.5765417"><ele>344.0</ele><time>2026-04-19T13:23:48.889Z</time></trkpt><trkpt lat="43.870325" lon="12.5765667"><ele>344.0</ele><time>2026-04-19T13:23:49.888Z</time></trkpt><trkpt lat="43.87041" lon="12.5766033"><ele>343.6666666666667</ele><time>2026-04-19T13:23:50.889Z</time></trkpt><trkpt lat="43.8704917" lon="12.57666"><ele>343.33333333333337</ele><time>2026-04-19T13:23:51.885Z</time></trkpt><trkpt lat="43.870565" lon="12.57673"><ele>343.0</ele><time>2026-04-19T13:23:52.889Z</time></trkpt><trkpt lat="43.8706217" lon="12.5768183"><ele>342.6666666666667</ele><time>2026-04-19T13:23:53.891Z</time></trkpt><trkpt lat="43.87066" lon="12.5769333"><ele>342.3333333333333</ele><time>2026-04-19T13:23:54.889Z</time></trkpt><trkpt lat="43.8706967" lon="12.57705"><ele>342.0</ele><time>2026-04-19T13:23:55.886Z</time></trkpt><trkpt lat="43.8707217" lon="12.57719"><ele>342.0</ele><time>2026-04-19T13:23:56.886Z</time></trkpt><trkpt lat="43.8707333" lon="12.5773333"><ele>342.0</ele><time>2026-04-19T13:23:57.888Z</time></trkpt><trkpt lat="43.8707667" lon="12.5774783"><ele>342.0</ele><time>2026-04-19T13:23:58.888Z</time></trkpt><trkpt lat="43.8708117" lon="12.5776267"><ele>342.0</ele><time>2026-04-19T13:23:59.888Z</time></trkpt><trkpt lat="43.8708583" lon="12.577775"><ele>342.0</ele><time>2026-04-19T13:24:00.888Z</time></trkpt><trkpt lat="43.8708867" lon="12.5779133"><ele>341.8</ele><time>2026-04-19T13:24:01.886Z</time></trkpt><trkpt lat="43.8708933" lon="12.5780467"><ele>341.6</ele><time>2026-04-19T13:24:02.885Z</time></trkpt><trkpt lat="43.87088" lon="12.57819"><ele>341.40000000000003</ele><time>2026-04-19T13:24:03.887Z</time></trkpt><trkpt lat="43.8708633" lon="12.578345"><ele>341.20000000000005</ele><time>2026-04-19T13:24:04.886Z</time></trkpt><trkpt lat="43.8708467" lon="12.5784983"><ele>341.0</ele><time>2026-04-19T13:24:05.886Z</time></trkpt><trkpt lat="43.87084" lon="12.57864"><ele>340.6</ele><time>2026-04-19T13:24:06.887Z</time></trkpt><trkpt lat="43.8708417" lon="12.57878"><ele>340.20000000000005</ele><time>2026-04-19T13:24:07.886Z</time></trkpt><trkpt lat="43.8708533" lon="12.5789067"><ele>339.79999999999995</ele><time>2026-04-19T13:24:08.887Z</time></trkpt><trkpt lat="43.870875" lon="12.57902"><ele>339.4</ele><time>2026-04-19T13:24:09.886Z</time></trkpt><trkpt lat="43.870915" lon="12.5791183"><ele>339.0</ele><time>2026-04-19T13:24:10.89Z</time></trkpt><trkpt lat="43.8709767" lon="12.5792167"><ele>340.6</ele><time>2026-04-19T13:24:11.886Z</time></trkpt><trkpt lat="43.8710483" lon="12.5793017"><ele>342.2</ele><time>2026-04-19T13:24:12.89Z</time></trkpt><trkpt lat="43.8711283" lon="12.5793733"><ele>343.8</ele><time>2026-04-19T13:24:13.889Z</time></trkpt><trkpt lat="43.8712133" lon="12.5794367"><ele>345.40000000000003</ele><time>2026-04-19T13:24:14.888Z</time></trkpt><trkpt lat="43.871295" lon="12.5794817"><ele>347.0</ele><time>2026-04-19T13:24:15.888Z</time></trkpt><trkpt lat="43.87137" lon="12.57951"><ele>347.0</ele><time>2026-04-19T13:24:16.888Z</time></trkpt><trkpt lat="43.871435" lon="12.579505"><ele>347.0</ele><time>2026-04-19T13:24:17.888Z</time></trkpt><trkpt lat="43.8715117" lon="12.5794733"><ele>347.0</ele><time>2026-04-19T13:24:18.889Z</time></trkpt><trkpt lat="43.8716117" lon="12.5794283"><ele>347.0</ele><time>2026-04-19T13:24:19.889Z</time></trkpt><trkpt lat="43.8717267" lon="12.5793817"><ele>347.0</ele><time>2026-04-19T13:24:20.889Z</time></trkpt><trkpt lat="43.8718467" lon="12.579335"><ele>348.75</ele><time>2026-04-19T13:24:21.889Z</time></trkpt><trkpt lat="43.871965" lon="12.5792933"><ele>350.5</ele><time>2026-04-19T13:24:22.888Z</time></trkpt><trkpt lat="43.8720767" lon="12.579255"><ele>352.25</ele><time>2026-04-19T13:24:23.889Z</time></trkpt><trkpt lat="43.8721967" lon="12.5792167"><ele>354.0</ele><time>2026-04-19T13:24:24.889Z</time></trkpt><trkpt lat="43.8723267" lon="12.5791783"><ele>354.0</ele><time>2026-04-19T13:24:25.888Z</time></trkpt><trkpt lat="43.8724467" lon="12.5791367"><ele>354.0</ele><time>2026-04-19T13:24:26.885Z</time></trkpt><trkpt lat="43.87256" lon="12.5791"><ele>354.0</ele><time>2026-04-19T13:24:27.889Z</time></trkpt><trkpt lat="43.8726667" lon="12.57907"><ele>354.0</ele><time>2026-04-19T13:24:28.888Z</time></trkpt><trkpt lat="43.8727583" lon="12.5790433"><ele>354.0</ele><time>2026-04-19T13:24:29.886Z</time></trkpt><trkpt lat="43.87285" lon="12.5790383"><ele>355.0</ele><time>2026-04-19T13:24:30.889Z</time></trkpt><trkpt lat="43.8729433" lon="12.5790667"><ele>356.0</ele><time>2026-04-19T13:24:31.886Z</time></trkpt><trkpt lat="43.8730367" lon="12.5791033"><ele>357.0</ele><time>2026-04-19T13:24:32.888Z</time></trkpt><trkpt lat="43.8731183" lon="12.57913"><ele>358.0</ele><time>2026-04-19T13:24:33.888Z</time></trkpt><trkpt lat="43.8732017" lon="12.579135"><ele>359.0</ele><time>2026-04-19T13:24:34.888Z</time></trkpt><trkpt lat="43.87329" lon="12.5791283"><ele>360.0</ele><time>2026-04-19T13:24:35.887Z</time></trkpt><trkpt lat="43.87339" lon="12.5791117"><ele>360.6</ele><time>2026-04-19T13:24:36.979Z</time></trkpt><trkpt lat="43.87349" lon="12.57908"><ele>361.2</ele><time>2026-04-19T13:24:37.886Z</time></trkpt><trkpt lat="43.87359" lon="12.5790433"><ele>361.79999999999995</ele><time>2026-04-19T13:24:38.886Z</time></trkpt><trkpt lat="43.8736983" lon="12.5790067"><ele>362.4</ele><time>2026-04-19T13:24:39.887Z</time></trkpt><trkpt lat="43.8738083" lon="12.5789683"><ele>363.0</ele><time>2026-04-19T13:24:40.888Z</time></trkpt><trkpt lat="43.8739167" lon="12.5789267"><ele>363.0</ele><time>2026-04-19T13:24:41.886Z</time></trkpt><trkpt lat="43.874025" lon="12.57888"><ele>363.0</ele><time>2026-04-19T13:24:42.888Z</time></trkpt><trkpt lat="43.8741333" lon="12.5788383"><ele>363.0</ele><time>2026-04-19T13:24:43.889Z</time></trkpt><trkpt lat="43.874235" lon="12.5788033"><ele>363.0</ele><time>2026-04-19T13:24:44.888Z</time></trkpt><trkpt lat="43.8743283" lon="12.57877"><ele>363.0</ele><time>2026-04-19T13:24:45.888Z</time></trkpt><trkpt lat="43.87441" lon="12.57873"><ele>363.1666666666667</ele><time>2026-04-19T13:24:46.888Z</time></trkpt><trkpt lat="43.8744817" lon="12.5786783"><ele>363.3333333333333</ele><time>2026-04-19T13:24:47.889Z</time></trkpt><trkpt lat="43.8745417" lon="12.5786183"><ele>363.5</ele><time>2026-04-19T13:24:48.889Z</time></trkpt><trkpt lat="43.8745933" lon="12.5785567"><ele>363.66666666666663</ele><time>2026-04-19T13:24:49.888Z</time></trkpt><trkpt lat="43.8746217" lon="12.5784233"><ele>363.8333333333333</ele><time>2026-04-19T13:24:51.888Z</time></trkpt><trkpt lat="43.8745483" lon="12.57829"><ele>364.0</ele><time>2026-04-19T13:24:53.888Z</time></trkpt><trkpt lat="43.8744883" lon="12.5782033"><ele>364.0</ele><time>2026-04-19T13:24:54.888Z</time></trkpt><trkpt lat="43.8744283" lon="12.5780933"><ele>364.0</ele><time>2026-04-19T13:24:55.888Z</time></trkpt><trkpt lat="43.8743517" lon="12.5779667"><ele>364.0</ele><time>2026-04-19T13:24:56.888Z</time></trkpt><trkpt lat="43.8742767" lon="12.5778333"><ele>364.0</ele><time>2026-04-19T13:24:57.888Z</time></trkpt><trkpt lat="43.8742017" lon="12.5777"><ele>368.0</ele><time>2026-04-19T13:24:58.887Z</time></trkpt><trkpt lat="43.8741267" lon="12.57758"><ele>372.0</ele><time>2026-04-19T13:24:59.887Z</time></trkpt><trkpt lat="43.8740583" lon="12.577465"><ele>376.0</ele><time>2026-04-19T13:25:00.888Z</time></trkpt><trkpt lat="43.8739917" lon="12.5773433"><ele>380.0</ele><time>2026-04-19T13:25:01.89Z</time></trkpt><trkpt lat="43.873935" lon="12.577225"><ele>384.0</ele><time>2026-04-19T13:25:02.886Z</time></trkpt><trkpt lat="43.87387" lon="12.5771083"><ele>382.4</ele><time>2026-04-19T13:25:03.886Z</time></trkpt><trkpt lat="43.873795" lon="12.5769933"><ele>380.79999999999995</ele><time>2026-04-19T13:25:04.886Z</time></trkpt><trkpt lat="43.8737183" lon="12.5768817"><ele>379.20000000000005</ele><time>2026-04-19T13:25:05.885Z</time></trkpt><trkpt lat="43.873645" lon="12.5767683"><ele>377.6</ele><time>2026-04-19T13:25:06.886Z</time></trkpt><trkpt lat="43.8735683" lon="12.5766567"><ele>376.0</ele><time>2026-04-19T13:25:07.887Z</time></trkpt><trkpt lat="43.8734933" lon="12.5765333"><ele>377.8</ele><time>2026-04-19T13:25:08.888Z</time></trkpt><trkpt lat="43.8734233" lon="12.5764133"><ele>379.6</ele><time>2026-04-19T13:25:09.889Z</time></trkpt><trkpt lat="43.8733567" lon="12.5762933"><ele>381.4</ele><time>2026-04-19T13:25:10.888Z</time></trkpt><trkpt lat="43.8732933" lon="12.5761717"><ele>383.2</ele><time>2026-04-19T13:25:11.889Z</time></trkpt><trkpt lat="43.8732233" lon="12.5760483"><ele>385.0</ele><time>2026-04-19T13:25:12.889Z</time></trkpt><trkpt lat="43.8731567" lon="12.5759317"><ele>385.0</ele><time>2026-04-19T13:25:13.888Z</time></trkpt><trkpt lat="43.873105" lon="12.5758183"><ele>385.0</ele><time>2026-04-19T13:25:14.888Z</time></trkpt><trkpt lat="43.8730533" lon="12.5757033"><ele>385.0</ele><time>2026-04-19T13:25:15.889Z</time></trkpt><trkpt lat="43.872985" lon="12.5755767"><ele>385.0</ele><time>2026-04-19T13:25:16.885Z</time></trkpt><trkpt lat="43.8729233" lon="12.5754383"><ele>385.0</ele><time>2026-04-19T13:25:17.888Z</time></trkpt><trkpt lat="43.8728633" lon="12.5753017"><ele>384.2</ele><time>2026-04-19T13:25:18.886Z</time></trkpt><trkpt lat="43.8727967" lon="12.5751717"><ele>383.4</ele><time>2026-04-19T13:25:19.886Z</time></trkpt><trkpt lat="43.8727267" lon="12.575055"><ele>382.6</ele><time>2026-04-19T13:25:20.885Z</time></trkpt><trkpt lat="43.8726567" lon="12.57496"><ele>381.8</ele><time>2026-04-19T13:25:21.886Z</time></trkpt><trkpt lat="43.872585" lon="12.5748783"><ele>381.0</ele><time>2026-04-19T13:25:22.886Z</time></trkpt><trkpt lat="43.872505" lon="12.5748017"><ele>383.6</ele><time>2026-04-19T13:25:23.889Z</time></trkpt><trkpt lat="43.8724183" lon="12.5747167"><ele>386.20000000000005</ele><time>2026-04-19T13:25:24.889Z</time></trkpt><trkpt lat="43.8723333" lon="12.5746233"><ele>388.79999999999995</ele><time>2026-04-19T13:25:25.89Z</time></trkpt><trkpt lat="43.87225" lon="12.5745233"><ele>391.4</ele><time>2026-04-19T13:25:26.886Z</time></trkpt><trkpt lat="43.8721683" lon="12.5744167"><ele>394.0</ele><time>2026-04-19T13:25:27.885Z</time></trkpt><trkpt lat="43.872085" lon="12.57431"><ele>396.75</ele><time>2026-04-19T13:25:28.887Z</time></trkpt><trkpt lat="43.872" lon="12.574205"><ele>399.5</ele><time>2026-04-19T13:25:29.887Z</time></trkpt><trkpt lat="43.8719183" lon="12.5741017"><ele>402.25</ele><time>2026-04-19T13:25:30.886Z</time></trkpt><trkpt lat="43.8718367" lon="12.573995"><ele>405.0</ele><time>2026-04-19T13:25:31.886Z</time></trkpt><trkpt lat="43.8717517" lon="12.5738883"><ele>405.2</ele><time>2026-04-19T13:25:32.885Z</time></trkpt><trkpt lat="43.871675" lon="12.5737917"><ele>405.4</ele><time>2026-04-19T13:25:33.886Z</time></trkpt><trkpt lat="43.8716033" lon="12.5736933"><ele>405.6</ele><time>2026-04-19T13:25:34.887Z</time></trkpt><trkpt lat="43.87155" lon="12.5735983"><ele>405.8</ele><time>2026-04-19T13:25:35.886Z</time></trkpt><trkpt lat="43.8714967" lon="12.57349"><ele>406.0</ele><time>2026-04-19T13:25:36.885Z</time></trkpt><trkpt lat="43.8714467" lon="12.573355"><ele>408.5</ele><time>2026-04-19T13:25:37.887Z</time></trkpt><trkpt lat="43.8714" lon="12.573205"><ele>411.0</ele><time>2026-04-19T13:25:38.885Z</time></trkpt><trkpt lat="43.8713567" lon="12.57305"><ele>413.5</ele><time>2026-04-19T13:25:39.888Z</time></trkpt><trkpt lat="43.8713167" lon="12.5728883"><ele>416.0</ele><time>2026-04-19T13:25:40.888Z</time></trkpt><trkpt lat="43.871275" lon="12.5727267"><ele>417.0</ele><time>2026-04-19T13:25:41.889Z</time></trkpt><trkpt lat="43.8712333" lon="12.5725633"><ele>418.0</ele><time>2026-04-19T13:25:42.889Z</time></trkpt><trkpt lat="43.8711867" lon="12.5723933"><ele>419.0</ele><time>2026-04-19T13:25:43.889Z</time></trkpt><trkpt lat="43.8711333" lon="12.572225"><ele>420.0</ele><time>2026-04-19T13:25:44.889Z</time></trkpt><trkpt lat="43.8710767" lon="12.5720533"><ele>420.5</ele><time>2026-04-19T13:25:45.888Z</time></trkpt><trkpt lat="43.8710183" lon="12.5718867"><ele>421.0</ele><time>2026-04-19T13:25:46.888Z</time></trkpt><trkpt lat="43.8709667" lon="12.57173"><ele>421.5</ele><time>2026-04-19T13:25:47.889Z</time></trkpt><trkpt lat="43.87092" lon="12.5715717"><ele>422.0</ele><time>2026-04-19T13:25:48.889Z</time></trkpt><trkpt lat="43.8708783" lon="12.5714133"><ele>422.0</ele><time>2026-04-19T13:25:49.889Z</time></trkpt><trkpt lat="43.8708517" lon="12.5712633"><ele>422.0</ele><time>2026-04-19T13:25:50.888Z</time></trkpt><trkpt lat="43.870835" lon="12.5711067"><ele>422.0</ele><time>2026-04-19T13:25:51.889Z</time></trkpt><trkpt lat="43.8708333" lon="12.5709383"><ele>422.0</ele><time>2026-04-19T13:25:52.889Z</time></trkpt><trkpt lat="43.87084" lon="12.57076"><ele>421.75</ele><time>2026-04-19T13:25:53.888Z</time></trkpt><trkpt lat="43.8708467" lon="12.5705867"><ele>421.5</ele><time>2026-04-19T13:25:54.889Z</time></trkpt><trkpt lat="43.870845" lon="12.5704167"><ele>421.25</ele><time>2026-04-19T13:25:55.889Z</time></trkpt><trkpt lat="43.8708383" lon="12.5702483"><ele>421.0</ele><time>2026-04-19T13:25:56.889Z</time></trkpt><trkpt lat="43.8708333" lon="12.5700967"><ele>421.0</ele><time>2026-04-19T13:25:57.889Z</time></trkpt><trkpt lat="43.8708283" lon="12.5699667"><ele>421.0</ele><time>2026-04-19T13:25:58.888Z</time></trkpt><trkpt lat="43.8708217" lon="12.5698467"><ele>421.0</ele><time>2026-04-19T13:25:59.888Z</time></trkpt><trkpt lat="43.8708067" lon="12.56973"><ele>421.0</ele><time>2026-04-19T13:26:00.888Z</time></trkpt><trkpt lat="43.8707767" lon="12.5696067"><ele>421.0</ele><time>2026-04-19T13:26:01.888Z</time></trkpt><trkpt lat="43.8707217" lon="12.5694667"><ele>421.75</ele><time>2026-04-19T13:26:02.89Z</time></trkpt><trkpt lat="43.870655" lon="12.5693183"><ele>422.5</ele><time>2026-04-19T13:26:03.889Z</time></trkpt><trkpt lat="43.8705817" lon="12.5691633"><ele>423.25</ele><time>2026-04-19T13:26:04.887Z</time></trkpt><trkpt lat="43.8705083" lon="12.5690067"><ele>424.0</ele><time>2026-04-19T13:26:05.888Z</time></trkpt><trkpt lat="43.8704367" lon="12.5688467"><ele>423.25</ele><time>2026-04-19T13:26:06.889Z</time></trkpt><trkpt lat="43.87037" lon="12.5686767"><ele>422.5</ele><time>2026-04-19T13:26:07.89Z</time></trkpt><trkpt lat="43.8703133" lon="12.5685067"><ele>421.75</ele><time>2026-04-19T13:26:08.89Z</time></trkpt><trkpt lat="43.87026" lon="12.5683517"><ele>421.0</ele><time>2026-04-19T13:26:09.89Z</time></trkpt><trkpt lat="43.87021" lon="12.56821"><ele>421.0</ele><time>2026-04-19T13:26:10.888Z</time></trkpt><trkpt lat="43.8701667" lon="12.5680833"><ele>421.0</ele><time>2026-04-19T13:26:11.888Z</time></trkpt><trkpt lat="43.8701233" lon="12.56796"><ele>421.0</ele><time>2026-04-19T13:26:12.889Z</time></trkpt><trkpt lat="43.87008" lon="12.5678317"><ele>421.0</ele><time>2026-04-19T13:26:13.889Z</time></trkpt><trkpt lat="43.8700367" lon="12.5677067"><ele>421.0</ele><time>2026-04-19T13:26:14.889Z</time></trkpt><trkpt lat="43.8699933" lon="12.5675917"><ele>420.6666666666667</ele><time>2026-04-19T13:26:15.888Z</time></trkpt><trkpt lat="43.8699533" lon="12.5674783"><ele>420.33333333333337</ele><time>2026-04-19T13:26:16.887Z</time></trkpt><trkpt lat="43.8699183" lon="12.5673683"><ele>420.0</ele><time>2026-04-19T13:26:17.891Z</time></trkpt><trkpt lat="43.8698833" lon="12.5672617"><ele>419.66666666666663</ele><time>2026-04-19T13:26:18.888Z</time></trkpt><trkpt lat="43.8698467" lon="12.5671533"><ele>419.3333333333333</ele><time>2026-04-19T13:26:19.889Z</time></trkpt><trkpt lat="43.8698083" lon="12.5670417"><ele>419.0</ele><time>2026-04-19T13:26:20.885Z</time></trkpt><trkpt lat="43.8697717" lon="12.5669233"><ele>417.79999999999995</ele><time>2026-04-19T13:26:21.89Z</time></trkpt><trkpt lat="43.8697333" lon="12.5668033"><ele>416.59999999999997</ele><time>2026-04-19T13:26:22.886Z</time></trkpt><trkpt lat="43.869695" lon="12.5666833"><ele>415.4</ele><time>2026-04-19T13:26:23.886Z</time></trkpt><trkpt lat="43.869655" lon="12.5665633"><ele>414.2</ele><time>2026-04-19T13:26:24.889Z</time></trkpt><trkpt lat="43.8696133" lon="12.566445"><ele>413.0</ele><time>2026-04-19T13:26:25.889Z</time></trkpt><trkpt lat="43.86957" lon="12.5663283"><ele>413.0</ele><time>2026-04-19T13:26:26.888Z</time></trkpt><trkpt lat="43.8695267" lon="12.5662117"><ele>413.0</ele><time>2026-04-19T13:26:27.889Z</time></trkpt><trkpt lat="43.86948" lon="12.566095"><ele>413.0</ele><time>2026-04-19T13:26:28.889Z</time></trkpt><trkpt lat="43.8694317" lon="12.5659767"><ele>413.0</ele><time>2026-04-19T13:26:29.889Z</time></trkpt><trkpt lat="43.8693783" lon="12.5658583"><ele>413.0</ele><time>2026-04-19T13:26:30.888Z</time></trkpt><trkpt lat="43.8693217" lon="12.5657417"><ele>416.5</ele><time>2026-04-19T13:26:31.886Z</time></trkpt><trkpt lat="43.86926" lon="12.56562"><ele>420.0</ele><time>2026-04-19T13:26:32.886Z</time></trkpt><trkpt lat="43.869195" lon="12.5654933"><ele>423.5</ele><time>2026-04-19T13:26:33.888Z</time></trkpt><trkpt lat="43.869125" lon="12.565355"><ele>427.0</ele><time>2026-04-19T13:26:34.886Z</time></trkpt><trkpt lat="43.8690533" lon="12.56521"><ele>428.0</ele><time>2026-04-19T13:26:35.885Z</time></trkpt><trkpt lat="43.8689817" lon="12.5650667"><ele>429.0</ele><time>2026-04-19T13:26:36.886Z</time></trkpt><trkpt lat="43.86891" lon="12.5649217"><ele>430.0</ele><time>2026-04-19T13:26:37.887Z</time></trkpt><trkpt lat="43.8688483" lon="12.5647767"><ele>431.0</ele><time>2026-04-19T13:26:38.885Z</time></trkpt><trkpt lat="43.868785" lon="12.5646267"><ele>431.4</ele><time>2026-04-19T13:26:39.887Z</time></trkpt><trkpt lat="43.8687167" lon="12.564485"><ele>431.8</ele><time>2026-04-19T13:26:40.889Z</time></trkpt><trkpt lat="43.8686533" lon="12.5643567"><ele>432.19999999999993</ele><time>2026-04-19T13:26:41.889Z</time></trkpt><trkpt lat="43.8685983" lon="12.5642333"><ele>432.59999999999997</ele><time>2026-04-19T13:26:42.887Z</time></trkpt><trkpt lat="43.8685467" lon="12.5641067"><ele>433.0</ele><time>2026-04-19T13:26:43.889Z</time></trkpt><trkpt lat="43.8684917" lon="12.5639733"><ele>432.25</ele><time>2026-04-19T13:26:44.889Z</time></trkpt><trkpt lat="43.8684267" lon="12.5638367"><ele>431.5</ele><time>2026-04-19T13:26:45.889Z</time></trkpt><trkpt lat="43.86836" lon="12.5637033"><ele>430.75</ele><time>2026-04-19T13:26:46.89Z</time></trkpt><trkpt lat="43.8682883" lon="12.5635733"><ele>430.0</ele><time>2026-04-19T13:26:47.889Z</time></trkpt><trkpt lat="43.8682167" lon="12.5634517"><ele>431.2</ele><time>2026-04-19T13:26:48.888Z</time></trkpt><trkpt lat="43.8681417" lon="12.5633333"><ele>432.4</ele><time>2026-04-19T13:26:49.89Z</time></trkpt><trkpt lat="43.86807" lon="12.563215"><ele>433.6</ele><time>2026-04-19T13:26:50.889Z</time></trkpt><trkpt lat="43.8680017" lon="12.5631"><ele>434.8</ele><time>2026-04-19T13:26:51.888Z</time></trkpt><trkpt lat="43.867935" lon="12.5629933"><ele>436.0</ele><time>2026-04-19T13:26:52.89Z</time></trkpt><trkpt lat="43.86786" lon="12.5628933"><ele>436.20000000000005</ele><time>2026-04-19T13:26:53.89Z</time></trkpt><trkpt lat="43.8677817" lon="12.5628"><ele>436.40000000000003</ele><time>2026-04-19T13:26:54.889Z</time></trkpt><trkpt lat="43.867695" lon="12.5627067"><ele>436.6</ele><time>2026-04-19T13:26:55.889Z</time></trkpt><trkpt lat="43.8676033" lon="12.5626217"><ele>436.8</ele><time>2026-04-19T13:26:56.889Z</time></trkpt><trkpt lat="43.867505" lon="12.5625517"><ele>437.0</ele><time>2026-04-19T13:26:57.889Z</time></trkpt><trkpt lat="43.8673983" lon="12.5624967"><ele>437.0</ele><time>2026-04-19T13:26:58.888Z</time></trkpt><trkpt lat="43.86729" lon="12.5624467"><ele>437.00000000000006</ele><time>2026-04-19T13:26:59.888Z</time></trkpt><trkpt lat="43.86719" lon="12.5624017"><ele>437.00000000000006</ele><time>2026-04-19T13:27:00.889Z</time></trkpt><trkpt lat="43.8671017" lon="12.5623583"><ele>437.0</ele><time>2026-04-19T13:27:01.889Z</time></trkpt><trkpt lat="43.8670167" lon="12.5623133"><ele>437.0</ele><time>2026-04-19T13:27:02.89Z</time></trkpt><trkpt lat="43.8669283" lon="12.562275"><ele>437.0</ele><time>2026-04-19T13:27:03.888Z</time></trkpt><trkpt lat="43.8668433" lon="12.5622333"><ele>437.00000000000006</ele><time>2026-04-19T13:27:04.89Z</time></trkpt><trkpt lat="43.8667617" lon="12.5621917"><ele>437.00000000000006</ele><time>2026-04-19T13:27:05.889Z</time></trkpt><trkpt lat="43.86668" lon="12.562145"><ele>437.0</ele><time>2026-04-19T13:27:06.888Z</time></trkpt><trkpt lat="43.866595" lon="12.562095"><ele>437.0</ele><time>2026-04-19T13:27:07.891Z</time></trkpt><trkpt lat="43.8665017" lon="12.56205"><ele>437.6</ele><time>2026-04-19T13:27:08.89Z</time></trkpt><trkpt lat="43.8664017" lon="12.562005"><ele>438.20000000000005</ele><time>2026-04-19T13:27:09.889Z</time></trkpt><trkpt lat="43.8663033" lon="12.561955"><ele>438.8</ele><time>2026-04-19T13:27:10.89Z</time></trkpt><trkpt lat="43.8662067" lon="12.5618983"><ele>439.4</ele><time>2026-04-19T13:27:11.89Z</time></trkpt><trkpt lat="43.8661117" lon="12.561845"><ele>440.0</ele><time>2026-04-19T13:27:12.888Z</time></trkpt><trkpt lat="43.8660217" lon="12.5618"><ele>439.66666666666663</ele><time>2026-04-19T13:27:13.889Z</time></trkpt><trkpt lat="43.8659383" lon="12.5617633"><ele>439.3333333333333</ele><time>2026-04-19T13:27:14.888Z</time></trkpt><trkpt lat="43.8658667" lon="12.5617317"><ele>439.0</ele><time>2026-04-19T13:27:15.888Z</time></trkpt><trkpt lat="43.8658083" lon="12.5616983"><ele>438.66666666666663</ele><time>2026-04-19T13:27:16.888Z</time></trkpt><trkpt lat="43.8657067" lon="12.5616183"><ele>438.3333333333333</ele><time>2026-04-19T13:27:18.886Z</time></trkpt><trkpt lat="43.8656067" lon="12.5615667"><ele>438.0</ele><time>2026-04-19T13:27:20.886Z</time></trkpt><trkpt lat="43.8654733" lon="12.5614983"><ele>438.0</ele><time>2026-04-19T13:27:22.886Z</time></trkpt><trkpt lat="43.8653883" lon="12.5614483"><ele>437.99999999999994</ele><time>2026-04-19T13:27:23.887Z</time></trkpt><trkpt lat="43.8653067" lon="12.561395"><ele>437.99999999999994</ele><time>2026-04-19T13:27:24.885Z</time></trkpt><trkpt lat="43.8652333" lon="12.56133"><ele>438.0</ele><time>2026-04-19T13:27:25.885Z</time></trkpt><trkpt lat="43.8651683" lon="12.5612533"><ele>438.0</ele><time>2026-04-19T13:27:26.886Z</time></trkpt><trkpt lat="43.865115" lon="12.5611383"><ele>439.75</ele><time>2026-04-19T13:27:27.886Z</time></trkpt><trkpt lat="43.8650617" lon="12.5610033"><ele>441.5</ele><time>2026-04-19T13:27:28.888Z</time></trkpt><trkpt lat="43.865005" lon="12.56086"><ele>443.25</ele><time>2026-04-19T13:27:29.888Z</time></trkpt><trkpt lat="43.8649483" lon="12.56071"><ele>445.0</ele><time>2026-04-19T13:27:30.888Z</time></trkpt><trkpt lat="43.8648883" lon="12.5605583"><ele>445.0</ele><time>2026-04-19T13:27:31.889Z</time></trkpt><trkpt lat="43.864825" lon="12.5604033"><ele>445.0</ele><time>2026-04-19T13:27:32.888Z</time></trkpt><trkpt lat="43.8647667" lon="12.560255"><ele>445.0</ele><time>2026-04-19T13:27:33.889Z</time></trkpt><trkpt lat="43.86471" lon="12.5601017"><ele>445.0</ele><time>2026-04-19T13:27:34.889Z</time></trkpt><trkpt lat="43.8646517" lon="12.55995"><ele>446.5</ele><time>2026-04-19T13:27:35.888Z</time></trkpt><trkpt lat="43.86459" lon="12.559805"><ele>448.0</ele><time>2026-04-19T13:27:36.887Z</time></trkpt><trkpt lat="43.8645283" lon="12.5596667"><ele>449.5</ele><time>2026-04-19T13:27:37.889Z</time></trkpt><trkpt lat="43.8644717" lon="12.5595233"><ele>451.0</ele><time>2026-04-19T13:27:38.888Z</time></trkpt><trkpt lat="43.864415" lon="12.5593717"><ele>451.0</ele><time>2026-04-19T13:27:39.887Z</time></trkpt><trkpt lat="43.8643617" lon="12.559215"><ele>451.0</ele><time>2026-04-19T13:27:40.888Z</time></trkpt><trkpt lat="43.8643117" lon="12.5590567"><ele>451.0</ele><time>2026-04-19T13:27:41.889Z</time></trkpt><trkpt lat="43.8642633" lon="12.5588983"><ele>451.0</ele><time>2026-04-19T13:27:42.888Z</time></trkpt><trkpt lat="43.8642167" lon="12.5587483"><ele>453.0</ele><time>2026-04-19T13:27:43.887Z</time></trkpt><trkpt lat="43.86417" lon="12.5586083"><ele>455.0</ele><time>2026-04-19T13:27:44.885Z</time></trkpt><trkpt lat="43.8641217" lon="12.5584783"><ele>457.0</ele><time>2026-04-19T13:27:45.888Z</time></trkpt><trkpt lat="43.8640717" lon="12.5583517"><ele>459.0</ele><time>2026-04-19T13:27:46.887Z</time></trkpt><trkpt lat="43.8640333" lon="12.5582417"><ele>461.0</ele><time>2026-04-19T13:27:47.885Z</time></trkpt><trkpt lat="43.86401" lon="12.5581433"><ele>460.99999999999994</ele><time>2026-04-19T13:27:48.886Z</time></trkpt><trkpt lat="43.863985" lon="12.5580433"><ele>461.0</ele><time>2026-04-19T13:27:49.886Z</time></trkpt><trkpt lat="43.8639583" lon="12.55795"><ele>461.0</ele><time>2026-04-19T13:27:50.887Z</time></trkpt><trkpt lat="43.86394" lon="12.55785"><ele>461.0</ele><time>2026-04-19T13:27:51.886Z</time></trkpt><trkpt lat="43.86393" lon="12.55774"><ele>460.99999999999994</ele><time>2026-04-19T13:27:52.885Z</time></trkpt><trkpt lat="43.8639283" lon="12.5576133"><ele>461.0</ele><time>2026-04-19T13:27:53.885Z</time></trkpt><trkpt lat="43.8639367" lon="12.5574817"><ele>461.4</ele><time>2026-04-19T13:27:54.885Z</time></trkpt><trkpt lat="43.86396" lon="12.5573533"><ele>461.8</ele><time>2026-04-19T13:27:55.886Z</time></trkpt><trkpt lat="43.8640017" lon="12.5572317"><ele>462.19999999999993</ele><time>2026-04-19T13:27:56.885Z</time></trkpt><trkpt lat="43.8640583" lon="12.5571117"><ele>462.59999999999997</ele><time>2026-04-19T13:27:57.886Z</time></trkpt><trkpt lat="43.864115" lon="12.5569883"><ele>463.0</ele><time>2026-04-19T13:27:58.888Z</time></trkpt><trkpt lat="43.8641633" lon="12.5568717"><ele>463.0</ele><time>2026-04-19T13:27:59.889Z</time></trkpt><trkpt lat="43.864205" lon="12.55675"><ele>462.99999999999994</ele><time>2026-04-19T13:28:00.889Z</time></trkpt><trkpt lat="43.8642433" lon="12.5566133"><ele>462.99999999999994</ele><time>2026-04-19T13:28:01.889Z</time></trkpt><trkpt lat="43.8642833" lon="12.5564583"><ele>463.0</ele><time>2026-04-19T13:28:02.889Z</time></trkpt><trkpt lat="43.8643283" lon="12.5562967"><ele>463.0</ele><time>2026-04-19T13:28:03.888Z</time></trkpt><trkpt lat="43.864375" lon="12.5561383"><ele>467.0</ele><time>2026-04-19T13:28:04.888Z</time></trkpt><trkpt lat="43.86443" lon="12.5559867"><ele>471.0</ele><time>2026-04-19T13:28:05.888Z</time></trkpt><trkpt lat="43.864485" lon="12.5558433"><ele>475.0</ele><time>2026-04-19T13:28:06.888Z</time></trkpt><trkpt lat="43.8645333" lon="12.55571"><ele>479.0</ele><time>2026-04-19T13:28:07.89Z</time></trkpt><trkpt lat="43.8645833" lon="12.5555767"><ele>479.0</ele><time>2026-04-19T13:28:08.889Z</time></trkpt><trkpt lat="43.8646283" lon="12.5554483"><ele>479.0</ele><time>2026-04-19T13:28:09.885Z</time></trkpt><trkpt lat="43.8646667" lon="12.5553233"><ele>479.0</ele><time>2026-04-19T13:28:10.886Z</time></trkpt><trkpt lat="43.864695" lon="12.5551933"><ele>479.0</ele><time>2026-04-19T13:28:11.888Z</time></trkpt><trkpt lat="43.8647167" lon="12.5550633"><ele>479.0</ele><time>2026-04-19T13:28:12.885Z</time></trkpt><trkpt lat="43.8647333" lon="12.5549317"><ele>478.99999999999994</ele><time>2026-04-19T13:28:13.886Z</time></trkpt><trkpt lat="43.8647383" lon="12.554805"><ele>479.0</ele><time>2026-04-19T13:28:14.889Z</time></trkpt><trkpt lat="43.8647367" lon="12.5546967"><ele>479.0</ele><time>2026-04-19T13:28:15.888Z</time></trkpt><trkpt lat="43.8647183" lon="12.5545867"><ele>479.0</ele><time>2026-04-19T13:28:16.886Z</time></trkpt><trkpt lat="43.86469" lon="12.5544833"><ele>478.99999999999994</ele><time>2026-04-19T13:28:17.886Z</time></trkpt><trkpt lat="43.86465" lon="12.5543967"><ele>479.0</ele><time>2026-04-19T13:28:18.887Z</time></trkpt><trkpt lat="43.8645933" lon="12.5543283"><ele>478.79999999999995</ele><time>2026-04-19T13:28:19.886Z</time></trkpt><trkpt lat="43.8645183" lon="12.5542667"><ele>478.59999999999997</ele><time>2026-04-19T13:28:20.886Z</time></trkpt><trkpt lat="43.8644367" lon="12.5541883"><ele>478.4</ele><time>2026-04-19T13:28:21.885Z</time></trkpt><trkpt lat="43.8643383" lon="12.554115"><ele>478.2</ele><time>2026-04-19T13:28:22.886Z</time></trkpt><trkpt lat="43.8642367" lon="12.5540383"><ele>478.0</ele><time>2026-04-19T13:28:23.886Z</time></trkpt><trkpt lat="43.8641283" lon="12.553965"><ele>478.0</ele><time>2026-04-19T13:28:24.885Z</time></trkpt><trkpt lat="43.8640167" lon="12.55389"><ele>478.0</ele><time>2026-04-19T13:28:25.885Z</time></trkpt><trkpt lat="43.8639067" lon="12.5537983"><ele>478.0</ele><time>2026-04-19T13:28:26.885Z</time></trkpt><trkpt lat="43.8637983" lon="12.5537"><ele>478.0</ele><time>2026-04-19T13:28:27.887Z</time></trkpt><trkpt lat="43.8636967" lon="12.5536"><ele>478.25</ele><time>2026-04-19T13:28:28.889Z</time></trkpt><trkpt lat="43.863595" lon="12.5534867"><ele>478.5</ele><time>2026-04-19T13:28:29.886Z</time></trkpt><trkpt lat="43.8635033" lon="12.5533683"><ele>478.75</ele><time>2026-04-19T13:28:30.888Z</time></trkpt><trkpt lat="43.8634217" lon="12.5532317"><ele>479.0</ele><time>2026-04-19T13:28:31.889Z</time></trkpt><trkpt lat="43.8633483" lon="12.5530933"><ele>479.0</ele><time>2026-04-19T13:28:32.888Z</time></trkpt><trkpt lat="43.86328" lon="12.5529583"><ele>479.0</ele><time>2026-04-19T13:28:33.887Z</time></trkpt><trkpt lat="43.8632067" lon="12.5528283"><ele>479.0</ele><time>2026-04-19T13:28:34.887Z</time></trkpt><trkpt lat="43.8631267" lon="12.55272"><ele>479.0</ele><time>2026-04-19T13:28:35.888Z</time></trkpt><trkpt lat="43.8630433" lon="12.55263"><ele>480.75</ele><time>2026-04-19T13:28:36.888Z</time></trkpt><trkpt lat="43.8629667" lon="12.552535"><ele>482.5</ele><time>2026-04-19T13:28:37.89Z</time></trkpt><trkpt lat="43.862885" lon="12.55242"><ele>484.25</ele><time>2026-04-19T13:28:38.888Z</time></trkpt><trkpt lat="43.8627967" lon="12.5523017"><ele>486.0</ele><time>2026-04-19T13:28:39.888Z</time></trkpt><trkpt lat="43.8626917" lon="12.552185"><ele>486.75</ele><time>2026-04-19T13:28:40.886Z</time></trkpt><trkpt lat="43.8625783" lon="12.5520617"><ele>487.5</ele><time>2026-04-19T13:28:41.888Z</time></trkpt><trkpt lat="43.8624583" lon="12.55193"><ele>488.25</ele><time>2026-04-19T13:28:42.888Z</time></trkpt><trkpt lat="43.8623483" lon="12.551795"><ele>489.0</ele><time>2026-04-19T13:28:43.889Z</time></trkpt><trkpt lat="43.8622517" lon="12.551665"><ele>489.0</ele><time>2026-04-19T13:28:44.887Z</time></trkpt><trkpt lat="43.8621617" lon="12.55155"><ele>489.0</ele><time>2026-04-19T13:28:45.888Z</time></trkpt><trkpt lat="43.8620567" lon="12.5514483"><ele>489.0</ele><time>2026-04-19T13:28:46.885Z</time></trkpt><trkpt lat="43.8619417" lon="12.5513433"><ele>489.0</ele><time>2026-04-19T13:28:47.885Z</time></trkpt><trkpt lat="43.8618283" lon="12.5512317"><ele>489.0</ele><time>2026-04-19T13:28:48.885Z</time></trkpt><trkpt lat="43.86171" lon="12.551115"><ele>489.0</ele><time>2026-04-19T13:28:49.887Z</time></trkpt><trkpt lat="43.8615883" lon="12.5509983"><ele>489.0</ele><time>2026-04-19T13:28:50.885Z</time></trkpt><trkpt lat="43.8614683" lon="12.5508717"><ele>489.0</ele><time>2026-04-19T13:28:51.886Z</time></trkpt><trkpt lat="43.8613533" lon="12.5507433"><ele>489.0</ele><time>2026-04-19T13:28:52.886Z</time></trkpt><trkpt lat="43.8612467" lon="12.5506283"><ele>489.0</ele><time>2026-04-19T13:28:53.886Z</time></trkpt><trkpt lat="43.861155" lon="12.5505267"><ele>489.0</ele><time>2026-04-19T13:28:54.885Z</time></trkpt><trkpt lat="43.86107" lon="12.5504267"><ele>489.0</ele><time>2026-04-19T13:28:55.885Z</time></trkpt><trkpt lat="43.8609917" lon="12.5503383"><ele>489.0</ele><time>2026-04-19T13:28:56.886Z</time></trkpt><trkpt lat="43.8609183" lon="12.5502583"><ele>489.0</ele><time>2026-04-19T13:28:57.886Z</time></trkpt><trkpt lat="43.86085" lon="12.5501817"><ele>489.0</ele><time>2026-04-19T13:28:58.889Z</time></trkpt><trkpt lat="43.8607933" lon="12.5501133"><ele>489.0</ele><time>2026-04-19T13:28:59.888Z</time></trkpt><trkpt lat="43.8607383" lon="12.55001"><ele>489.0</ele><time>2026-04-19T13:29:01.886Z</time></trkpt><trkpt lat="43.860795" lon="12.5499217"><ele>489.0</ele><time>2026-04-19T13:29:04.885Z</time></trkpt><trkpt lat="43.8609183" lon="12.5499033"><ele>490.25</ele><time>2026-04-19T13:29:06.886Z</time></trkpt><trkpt lat="43.8610083" lon="12.5498867"><ele>491.5</ele><time>2026-04-19T13:29:07.887Z</time></trkpt><trkpt lat="43.86112" lon="12.5498683"><ele>492.75</ele><time>2026-04-19T13:29:08.886Z</time></trkpt><trkpt lat="43.8612483" lon="12.5498533"><ele>494.0</ele><time>2026-04-19T13:29:09.885Z</time></trkpt><trkpt lat="43.8613933" lon="12.54984"><ele>494.0</ele><time>2026-04-19T13:29:10.888Z</time></trkpt><trkpt lat="43.861535" lon="12.5498267"><ele>494.0</ele><time>2026-04-19T13:29:11.887Z</time></trkpt><trkpt lat="43.861675" lon="12.5498133"><ele>494.0</ele><time>2026-04-19T13:29:12.888Z</time></trkpt><trkpt lat="43.8618183" lon="12.5497983"><ele>494.0</ele><time>2026-04-19T13:29:13.889Z</time></trkpt><trkpt lat="43.861965" lon="12.549775"><ele>495.75</ele><time>2026-04-19T13:29:14.888Z</time></trkpt><trkpt lat="43.8621083" lon="12.5497483"><ele>497.5</ele><time>2026-04-19T13:29:15.888Z</time></trkpt><trkpt lat="43.862255" lon="12.5497267"><ele>499.25</ele><time>2026-04-19T13:29:16.887Z</time></trkpt><trkpt lat="43.8623983" lon="12.5497133"><ele>501.0</ele><time>2026-04-19T13:29:17.886Z</time></trkpt><trkpt lat="43.8625367" lon="12.5497"><ele>503.5</ele><time>2026-04-19T13:29:18.885Z</time></trkpt><trkpt lat="43.862675" lon="12.549685"><ele>506.0</ele><time>2026-04-19T13:29:19.886Z</time></trkpt><trkpt lat="43.8628067" lon="12.5496783"><ele>508.5</ele><time>2026-04-19T13:29:20.886Z</time></trkpt><trkpt lat="43.8629167" lon="12.5496767"><ele>511.0</ele><time>2026-04-19T13:29:21.885Z</time></trkpt><trkpt lat="43.86301" lon="12.54967"><ele>511.00000000000006</ele><time>2026-04-19T13:29:22.888Z</time></trkpt><trkpt lat="43.86309" lon="12.5496667"><ele>511.0</ele><time>2026-04-19T13:29:23.886Z</time></trkpt><trkpt lat="43.8631567" lon="12.5496567"><ele>511.0</ele><time>2026-04-19T13:29:24.886Z</time></trkpt><trkpt lat="43.8632333" lon="12.54959"><ele>511.0</ele><time>2026-04-19T13:29:26.889Z</time></trkpt><trkpt lat="43.8632583" lon="12.5494633"><ele>511.00000000000006</ele><time>2026-04-19T13:29:28.889Z</time></trkpt><trkpt lat="43.8633317" lon="12.5493733"><ele>511.0</ele><time>2026-04-19T13:29:30.888Z</time></trkpt><trkpt lat="43.8634017" lon="12.549365"><ele>513.6666666666667</ele><time>2026-04-19T13:29:31.889Z</time></trkpt><trkpt lat="43.86349" lon="12.5493783"><ele>516.3333333333334</ele><time>2026-04-19T13:29:32.888Z</time></trkpt><trkpt lat="43.8635738" lon="12.5493884"><ele>519.0</ele><time>2026-04-19T13:29:33.888Z</time></trkpt><trkpt lat="43.8636621" lon="12.5494024"><ele>521.6666666666666</ele><time>2026-04-19T13:29:34.888Z</time></trkpt><trkpt lat="43.863746" lon="12.5493941"><ele>524.3333333333333</ele><time>2026-04-19T13:29:35.887Z</time></trkpt><trkpt lat="43.8638262" lon="12.5493527"><ele>527.0</ele><time>2026-04-19T13:29:36.888Z</time></trkpt><trkpt lat="43.8638967" lon="12.5492861"><ele>527.0</ele><time>2026-04-19T13:29:37.888Z</time></trkpt><trkpt lat="43.863963" lon="12.5491863"><ele>527.0</ele><time>2026-04-19T13:29:38.889Z</time></trkpt><trkpt lat="43.8640287" lon="12.5490696"><ele>527.0</ele><time>2026-04-19T13:29:39.888Z</time></trkpt><trkpt lat="43.8640907" lon="12.5489504"><ele>527.0</ele><time>2026-04-19T13:29:40.888Z</time></trkpt><trkpt lat="43.8641511" lon="12.5488351"><ele>527.0</ele><time>2026-04-19T13:29:41.888Z</time></trkpt><trkpt lat="43.8642063" lon="12.5487369"><ele>526.8571428571429</ele><time>2026-04-19T13:29:42.89Z</time></trkpt><trkpt lat="43.8642581" lon="12.5486555"><ele>526.7142857142858</ele><time>2026-04-19T13:29:43.886Z</time></trkpt><trkpt lat="43.8643134" lon="12.5485806"><ele>526.5714285714286</ele><time>2026-04-19T13:29:44.888Z</time></trkpt><trkpt lat="43.8643663" lon="12.5485082"><ele>526.4285714285714</ele><time>2026-04-19T13:29:45.888Z</time></trkpt><trkpt lat="43.864406" lon="12.5484374"><ele>526.2857142857142</ele><time>2026-04-19T13:29:46.887Z</time></trkpt><trkpt lat="43.8644417" lon="12.5483577"><ele>526.1428571428571</ele><time>2026-04-19T13:29:47.886Z</time></trkpt><trkpt lat="43.8644729" lon="12.5482791"><ele>526.0</ele><time>2026-04-19T13:29:48.887Z</time></trkpt><trkpt lat="43.8645301" lon="12.5481248"><ele>526.0</ele><time>2026-04-19T13:29:50.887Z</time></trkpt><trkpt lat="43.8645724" lon="12.5479859"><ele>526.0</ele><time>2026-04-19T13:29:52.886Z</time></trkpt><trkpt lat="43.864592" lon="12.5478961"><ele>526.0</ele><time>2026-04-19T13:30:06.886Z</time></trkpt><trkpt lat="43.8646795" lon="12.5478862"><ele>526.0</ele><time>2026-04-19T13:30:09.886Z</time></trkpt><trkpt lat="43.8647466" lon="12.5478844"><ele>526.0</ele><time>2026-04-19T13:30:11.889Z</time></trkpt><trkpt lat="43.8648235" lon="12.547873"><ele>526.0</ele><time>2026-04-19T13:30:14.888Z</time></trkpt><trkpt lat="43.8647929" lon="12.54777"><ele>525.1666666666667</ele><time>2026-04-19T13:30:18.888Z</time></trkpt><trkpt lat="43.8647357" lon="12.5477222"><ele>524.3333333333334</ele><time>2026-04-19T13:30:20.887Z</time></trkpt><trkpt lat="43.864676" lon="12.5476783"><ele>523.5</ele><time>2026-04-19T13:30:23.889Z</time></trkpt><trkpt lat="43.8646517" lon="12.5475717"><ele>522.6666666666666</ele><time>2026-04-19T13:31:17.889Z</time></trkpt><trkpt lat="43.8646533" lon="12.5474817"><ele>521.8333333333333</ele><time>2026-04-19T13:31:19.888Z</time></trkpt><trkpt lat="43.8646483" lon="12.54736"><ele>521.0</ele><time>2026-04-19T13:31:21.888Z</time></trkpt><trkpt lat="43.86465" lon="12.547215"><ele>521.0</ele><time>2026-04-19T13:31:23.888Z</time></trkpt><trkpt lat="43.8646483" lon="12.5470833"><ele>521.0</ele><time>2026-04-19T13:31:25.89Z</time></trkpt><trkpt lat="43.8646517" lon="12.5469433"><ele>521.0</ele><time>2026-04-19T13:31:27.889Z</time></trkpt><trkpt lat="43.8646517" lon="12.5468267"><ele>521.0</ele><time>2026-04-19T13:31:29.885Z</time></trkpt><trkpt lat="43.8645883" lon="12.5467933"><ele>521.0</ele><time>2026-04-19T13:31:35.886Z</time></trkpt><trkpt lat="43.864545" lon="12.5468567"><ele>521.0</ele><time>2026-04-19T13:31:41.888Z</time></trkpt><trkpt lat="43.8644833" lon="12.5469117"><ele>521.0</ele><time>2026-04-19T13:31:44.889Z</time></trkpt><trkpt lat="43.8644383" lon="12.5469867"><ele>521.0</ele><time>2026-04-19T13:31:46.888Z</time></trkpt><trkpt lat="43.8643833" lon="12.5470967"><ele>521.0</ele><time>2026-04-19T13:31:48.888Z</time></trkpt><trkpt lat="43.8643267" lon="12.547225"><ele>521.0</ele><time>2026-04-19T13:31:50.888Z</time></trkpt><trkpt lat="43.8642733" lon="12.547345"><ele>521.0</ele><time>2026-04-19T13:31:52.885Z</time></trkpt><trkpt lat="43.8642117" lon="12.54747"><ele>521.8</ele><time>2026-04-19T13:31:54.888Z</time></trkpt><trkpt lat="43.8641533" lon="12.547575"><ele>522.6</ele><time>2026-04-19T13:31:56.885Z</time></trkpt><trkpt lat="43.8640833" lon="12.5476733"><ele>523.4</ele><time>2026-04-19T13:31:58.888Z</time></trkpt><trkpt lat="43.8639933" lon="12.5477583"><ele>524.2</ele><time>2026-04-19T13:32:00.887Z</time></trkpt><trkpt lat="43.863915" lon="12.5478367"><ele>525.0</ele><time>2026-04-19T13:32:02.885Z</time></trkpt><trkpt lat="43.863815" lon="12.547915"><ele>525.5714285714286</ele><time>2026-04-19T13:32:04.887Z</time></trkpt><trkpt lat="43.8637617" lon="12.547965"><ele>526.1428571428571</ele><time>2026-04-19T13:32:05.885Z</time></trkpt><trkpt lat="43.8637067" lon="12.548025"><ele>526.7142857142858</ele><time>2026-04-19T13:32:06.885Z</time></trkpt><trkpt lat="43.86366" lon="12.54809"><ele>527.2857142857142</ele><time>2026-04-19T13:32:07.886Z</time></trkpt><trkpt lat="43.8636183" lon="12.54816"><ele>527.8571428571429</ele><time>2026-04-19T13:32:08.886Z</time></trkpt><trkpt lat="43.863575" lon="12.5482317"><ele>528.4285714285714</ele><time>2026-04-19T13:32:09.885Z</time></trkpt><trkpt lat="43.8635367" lon="12.548315"><ele>529.0</ele><time>2026-04-19T13:32:10.886Z</time></trkpt><trkpt lat="43.863495" lon="12.548395"><ele>529.0</ele><time>2026-04-19T13:32:11.887Z</time></trkpt><trkpt lat="43.86346" lon="12.5484767"><ele>529.0</ele><time>2026-04-19T13:32:12.887Z</time></trkpt><trkpt lat="43.8634233" lon="12.5485583"><ele>529.0</ele><time>2026-04-19T13:32:13.887Z</time></trkpt><trkpt lat="43.8633617" lon="12.548695"><ele>529.0</ele><time>2026-04-19T13:32:15.888Z</time></trkpt><trkpt lat="43.863305" lon="12.548835"><ele>529.0</ele><time>2026-04-19T13:32:17.889Z</time></trkpt><trkpt lat="43.8632383" lon="12.5489867"><ele>526.8333333333334</ele><time>2026-04-19T13:32:19.89Z</time></trkpt><trkpt lat="43.8632033" lon="12.5490683"><ele>524.6666666666667</ele><time>2026-04-19T13:32:20.89Z</time></trkpt><trkpt lat="43.86317" lon="12.5491467"><ele>522.5</ele><time>2026-04-19T13:32:21.888Z</time></trkpt><trkpt lat="43.8631133" lon="12.5492883"><ele>520.3333333333334</ele><time>2026-04-19T13:32:23.886Z</time></trkpt><trkpt lat="43.8630817" lon="12.5493967"><ele>518.1666666666666</ele><time>2026-04-19T13:32:25.888Z</time></trkpt><trkpt lat="43.8630467" lon="12.54953"><ele>516.0</ele><time>2026-04-19T13:32:27.886Z</time></trkpt><trkpt lat="43.8630083" lon="12.5496183"><ele>515.2857142857142</ele><time>2026-04-19T13:32:29.886Z</time></trkpt><trkpt lat="43.8629517" lon="12.54966"><ele>514.5714285714286</ele><time>2026-04-19T13:32:31.888Z</time></trkpt><trkpt lat="43.8628483" lon="12.5496633"><ele>513.8571428571429</ele><time>2026-04-19T13:32:33.888Z</time></trkpt><trkpt lat="43.862785" lon="12.5496683"><ele>513.1428571428571</ele><time>2026-04-19T13:32:34.887Z</time></trkpt><trkpt lat="43.8627133" lon="12.5496783"><ele>512.4285714285714</ele><time>2026-04-19T13:32:35.888Z</time></trkpt><trkpt lat="43.8626467" lon="12.5496867"><ele>511.7142857142857</ele><time>2026-04-19T13:32:36.89Z</time></trkpt><trkpt lat="43.862575" lon="12.5496883"><ele>511.0</ele><time>2026-04-19T13:32:37.886Z</time></trkpt><trkpt lat="43.862505" lon="12.5496917"><ele>509.57142857142856</ele><time>2026-04-19T13:32:38.886Z</time></trkpt><trkpt lat="43.8624367" lon="12.5496883"><ele>508.1428571428571</ele><time>2026-04-19T13:32:39.888Z</time></trkpt><trkpt lat="43.8623717" lon="12.5496917"><ele>506.7142857142857</ele><time>2026-04-19T13:32:40.889Z</time></trkpt><trkpt lat="43.862305" lon="12.5496983"><ele>505.2857142857143</ele><time>2026-04-19T13:32:41.889Z</time></trkpt><trkpt lat="43.86224" lon="12.5497033"><ele>503.85714285714283</ele><time>2026-04-19T13:32:42.889Z</time></trkpt><trkpt lat="43.8621733" lon="12.5497133"><ele>502.42857142857144</ele><time>2026-04-19T13:32:43.888Z</time></trkpt><trkpt lat="43.8621067" lon="12.5497267"><ele>501.0</ele><time>2026-04-19T13:32:44.889Z</time></trkpt><trkpt lat="43.8620417" lon="12.54974"><ele>501.0</ele><time>2026-04-19T13:32:45.889Z</time></trkpt><trkpt lat="43.8619767" lon="12.54975"><ele>501.0</ele><time>2026-04-19T13:32:46.889Z</time></trkpt><trkpt lat="43.86191" lon="12.54976"><ele>501.0</ele><time>2026-04-19T13:32:47.888Z</time></trkpt><trkpt lat="43.861785" lon="12.549775"><ele>501.0</ele><time>2026-04-19T13:32:49.887Z</time></trkpt><trkpt lat="43.86172" lon="12.5497817"><ele>501.0</ele><time>2026-04-19T13:32:50.889Z</time></trkpt><trkpt lat="43.8616483" lon="12.5497917"><ele>501.0</ele><time>2026-04-19T13:32:51.888Z</time></trkpt><trkpt lat="43.86157" lon="12.5497983"><ele>499.8333333333333</ele><time>2026-04-19T13:32:52.888Z</time></trkpt><trkpt lat="43.8614833" lon="12.549805"><ele>498.66666666666663</ele><time>2026-04-19T13:32:53.889Z</time></trkpt><trkpt lat="43.861395" lon="12.549815"><ele>497.5</ele><time>2026-04-19T13:32:54.887Z</time></trkpt><trkpt lat="43.8613083" lon="12.549825"><ele>496.3333333333333</ele><time>2026-04-19T13:32:55.887Z</time></trkpt><trkpt lat="43.8612217" lon="12.5498383"><ele>495.16666666666663</ele><time>2026-04-19T13:32:56.886Z</time></trkpt><trkpt lat="43.86114" lon="12.5498483"><ele>494.0</ele><time>2026-04-19T13:32:57.887Z</time></trkpt><trkpt lat="43.8610633" lon="12.54986"><ele>493.99999999999994</ele><time>2026-04-19T13:32:58.887Z</time></trkpt><trkpt lat="43.8609917" lon="12.5498717"><ele>494.0</ele><time>2026-04-19T13:32:59.888Z</time></trkpt><trkpt lat="43.8609267" lon="12.5498783"><ele>494.0</ele><time>2026-04-19T13:33:00.889Z</time></trkpt><trkpt lat="43.8608367" lon="12.549885"><ele>494.0</ele><time>2026-04-19T13:33:02.887Z</time></trkpt><trkpt lat="43.86087" lon="12.5498033"><ele>493.99999999999994</ele><time>2026-04-19T13:33:09.888Z</time></trkpt><trkpt lat="43.8609933" lon="12.54975"><ele>494.0</ele><time>2026-04-19T13:33:11.889Z</time></trkpt><trkpt lat="43.8610667" lon="12.5497167"><ele>494.0</ele><time>2026-04-19T13:33:12.887Z</time></trkpt><trkpt lat="43.8611533" lon="12.5496733"><ele>494.0</ele><time>2026-04-19T13:33:13.889Z</time></trkpt><trkpt lat="43.86125" lon="12.549615"><ele>494.0</ele><time>2026-04-19T13:33:14.886Z</time></trkpt><trkpt lat="43.8613583" lon="12.5495483"><ele>494.0</ele><time>2026-04-19T13:33:15.889Z</time></trkpt><trkpt lat="43.8614717" lon="12.5494733"><ele>494.0</ele><time>2026-04-19T13:33:16.888Z</time></trkpt><trkpt lat="43.861585" lon="12.5493883"><ele>492.75</ele><time>2026-04-19T13:33:17.887Z</time></trkpt><trkpt lat="43.8617" lon="12.549295"><ele>491.5</ele><time>2026-04-19T13:33:18.888Z</time></trkpt><trkpt lat="43.8618133" lon="12.549195"><ele>490.25</ele><time>2026-04-19T13:33:19.887Z</time></trkpt><trkpt lat="43.8619283" lon="12.5490867"><ele>489.0</ele><time>2026-04-19T13:33:20.887Z</time></trkpt><trkpt lat="43.862045" lon="12.548975"><ele>490.0</ele><time>2026-04-19T13:33:21.887Z</time></trkpt><trkpt lat="43.86216" lon="12.5488567"><ele>491.0</ele><time>2026-04-19T13:33:22.887Z</time></trkpt><trkpt lat="43.8622717" lon="12.54873"><ele>492.0</ele><time>2026-04-19T13:33:23.888Z</time></trkpt><trkpt lat="43.8623767" lon="12.5485967"><ele>493.0</ele><time>2026-04-19T13:33:24.887Z</time></trkpt><trkpt lat="43.8624683" lon="12.5484633"><ele>493.0</ele><time>2026-04-19T13:33:25.887Z</time></trkpt><trkpt lat="43.862545" lon="12.5483333"><ele>492.99999999999994</ele><time>2026-04-19T13:33:26.887Z</time></trkpt><trkpt lat="43.8626067" lon="12.5482117"><ele>492.99999999999994</ele><time>2026-04-19T13:33:27.888Z</time></trkpt><trkpt lat="43.8626533" lon="12.5480917"><ele>493.0</ele><time>2026-04-19T13:33:28.888Z</time></trkpt><trkpt lat="43.8626767" lon="12.547955"><ele>493.0</ele><time>2026-04-19T13:33:29.887Z</time></trkpt><trkpt lat="43.8626733" lon="12.5478017"><ele>495.4</ele><time>2026-04-19T13:33:30.89Z</time></trkpt><trkpt lat="43.8626617" lon="12.5476433"><ele>497.79999999999995</ele><time>2026-04-19T13:33:31.886Z</time></trkpt><trkpt lat="43.8626717" lon="12.5474933"><ele>500.2</ele><time>2026-04-19T13:33:32.887Z</time></trkpt><trkpt lat="43.8627133" lon="12.54736"><ele>502.6</ele><time>2026-04-19T13:33:33.886Z</time></trkpt><trkpt lat="43.862775" lon="12.5472333"><ele>505.0</ele><time>2026-04-19T13:33:34.887Z</time></trkpt><trkpt lat="43.862835" lon="12.5471167"><ele>505.0</ele><time>2026-04-19T13:33:35.888Z</time></trkpt><trkpt lat="43.862875" lon="12.547005"><ele>505.0</ele><time>2026-04-19T13:33:36.889Z</time></trkpt><trkpt lat="43.8628767" lon="12.5468867"><ele>505.0</ele><time>2026-04-19T13:33:37.889Z</time></trkpt><trkpt lat="43.8628467" lon="12.5467767"><ele>505.0</ele><time>2026-04-19T13:33:38.888Z</time></trkpt><trkpt lat="43.8627817" lon="12.5466817"><ele>505.0</ele><time>2026-04-19T13:33:39.889Z</time></trkpt><trkpt lat="43.862685" lon="12.546605"><ele>502.25</ele><time>2026-04-19T13:33:40.89Z</time></trkpt><trkpt lat="43.8625733" lon="12.54653"><ele>499.5</ele><time>2026-04-19T13:33:41.888Z</time></trkpt><trkpt lat="43.8624583" lon="12.5464483"><ele>496.75</ele><time>2026-04-19T13:33:42.889Z</time></trkpt><trkpt lat="43.8623533" lon="12.5463533"><ele>494.0</ele><time>2026-04-19T13:33:43.888Z</time></trkpt><trkpt lat="43.8622467" lon="12.546255"><ele>497.25</ele><time>2026-04-19T13:33:44.889Z</time></trkpt><trkpt lat="43.8621483" lon="12.5461467"><ele>500.5</ele><time>2026-04-19T13:33:45.889Z</time></trkpt><trkpt lat="43.8620533" lon="12.546025"><ele>503.75</ele><time>2026-04-19T13:33:46.888Z</time></trkpt><trkpt lat="43.86196" lon="12.5458917"><ele>507.0</ele><time>2026-04-19T13:33:47.887Z</time></trkpt><trkpt lat="43.8618717" lon="12.5457467"><ele>507.0</ele><time>2026-04-19T13:33:48.887Z</time></trkpt><trkpt lat="43.8617933" lon="12.5455983"><ele>507.0</ele><time>2026-04-19T13:33:49.888Z</time></trkpt><trkpt lat="43.8617233" lon="12.5454483"><ele>507.0</ele><time>2026-04-19T13:33:50.886Z</time></trkpt><trkpt lat="43.8616667" lon="12.5453"><ele>507.0</ele><time>2026-04-19T13:33:51.891Z</time></trkpt><trkpt lat="43.861625" lon="12.5451533"><ele>507.1666666666667</ele><time>2026-04-19T13:33:52.889Z</time></trkpt><trkpt lat="43.8615917" lon="12.5450233"><ele>507.33333333333337</ele><time>2026-04-19T13:33:53.887Z</time></trkpt><trkpt lat="43.86157" lon="12.5449067"><ele>507.5</ele><time>2026-04-19T13:33:54.888Z</time></trkpt><trkpt lat="43.8615617" lon="12.5447933"><ele>507.6666666666667</ele><time>2026-04-19T13:33:55.889Z</time></trkpt><trkpt lat="43.8615667" lon="12.5446833"><ele>507.83333333333337</ele><time>2026-04-19T13:33:56.888Z</time></trkpt><trkpt lat="43.861585" lon="12.5445817"><ele>508.0</ele><time>2026-04-19T13:33:57.886Z</time></trkpt><trkpt lat="43.8616183" lon="12.5444883"><ele>507.4</ele><time>2026-04-19T13:33:58.888Z</time></trkpt><trkpt lat="43.86167" lon="12.5444"><ele>506.79999999999995</ele><time>2026-04-19T13:33:59.887Z</time></trkpt><trkpt lat="43.86174" lon="12.54432"><ele>506.2</ele><time>2026-04-19T13:34:00.888Z</time></trkpt><trkpt lat="43.86183" lon="12.5442633"><ele>505.6</ele><time>2026-04-19T13:34:01.887Z</time></trkpt><trkpt lat="43.861925" lon="12.5442167"><ele>505.0</ele><time>2026-04-19T13:34:02.886Z</time></trkpt><trkpt lat="43.86201" lon="12.54415"><ele>508.2</ele><time>2026-04-19T13:34:03.889Z</time></trkpt><trkpt lat="43.862075" lon="12.5440533"><ele>511.4</ele><time>2026-04-19T13:34:04.887Z</time></trkpt><trkpt lat="43.8621267" lon="12.5439233"><ele>514.6</ele><time>2026-04-19T13:34:05.887Z</time></trkpt><trkpt lat="43.8621767" lon="12.54378"><ele>517.8</ele><time>2026-04-19T13:34:06.888Z</time></trkpt><trkpt lat="43.862245" lon="12.5436433"><ele>521.0</ele><time>2026-04-19T13:34:07.889Z</time></trkpt><trkpt lat="43.8623283" lon="12.5435133"><ele>521.75</ele><time>2026-04-19T13:34:08.886Z</time></trkpt><trkpt lat="43.8624167" lon="12.5433833"><ele>522.5</ele><time>2026-04-19T13:34:09.887Z</time></trkpt><trkpt lat="43.8625117" lon="12.5432567"><ele>523.25</ele><time>2026-04-19T13:34:10.888Z</time></trkpt><trkpt lat="43.8626017" lon="12.54313"><ele>524.0</ele><time>2026-04-19T13:34:11.886Z</time></trkpt><trkpt lat="43.8626783" lon="12.5430017"><ele>526.0</ele><time>2026-04-19T13:34:12.889Z</time></trkpt><trkpt lat="43.862735" lon="12.5428783"><ele>528.0</ele><time>2026-04-19T13:34:13.889Z</time></trkpt><trkpt lat="43.86277" lon="12.54276"><ele>530.0</ele><time>2026-04-19T13:34:14.886Z</time></trkpt><trkpt lat="43.8627833" lon="12.5426383"><ele>532.0</ele><time>2026-04-19T13:34:15.887Z</time></trkpt><trkpt lat="43.8627767" lon="12.54252"><ele>534.0</ele><time>2026-04-19T13:34:16.886Z</time></trkpt><trkpt lat="43.8627533" lon="12.5424067"><ele>534.0</ele><time>2026-04-19T13:34:17.887Z</time></trkpt><trkpt lat="43.86271" lon="12.5422917"><ele>534.0</ele><time>2026-04-19T13:34:18.889Z</time></trkpt><trkpt lat="43.8626467" lon="12.54217"><ele>534.0</ele><time>2026-04-19T13:34:19.888Z</time></trkpt><trkpt lat="43.8625717" lon="12.54205"><ele>534.0</ele><time>2026-04-19T13:34:20.888Z</time></trkpt><trkpt lat="43.8625" lon="12.541935"><ele>534.0</ele><time>2026-04-19T13:34:21.887Z</time></trkpt><trkpt lat="43.86244" lon="12.54183"><ele>531.8333333333334</ele><time>2026-04-19T13:34:22.889Z</time></trkpt><trkpt lat="43.8624067" lon="12.541725"><ele>529.6666666666666</ele><time>2026-04-19T13:34:23.888Z</time></trkpt><trkpt lat="43.8623933" lon="12.5416267"><ele>527.5</ele><time>2026-04-19T13:34:24.889Z</time></trkpt><trkpt lat="43.8624033" lon="12.54153"><ele>525.3333333333333</ele><time>2026-04-19T13:34:25.889Z</time></trkpt><trkpt lat="43.8624433" lon="12.5414483"><ele>523.1666666666666</ele><time>2026-04-19T13:34:26.888Z</time></trkpt><trkpt lat="43.8624983" lon="12.5413667"><ele>521.0</ele><time>2026-04-19T13:34:27.888Z</time></trkpt><trkpt lat="43.8625583" lon="12.5412683"><ele>521.2</ele><time>2026-04-19T13:34:28.887Z</time></trkpt><trkpt lat="43.8626133" lon="12.54115"><ele>521.4000000000001</ele><time>2026-04-19T13:34:29.89Z</time></trkpt><trkpt lat="43.8626633" lon="12.541015"><ele>521.6</ele><time>2026-04-19T13:34:30.888Z</time></trkpt><trkpt lat="43.8627017" lon="12.54088"><ele>521.8000000000001</ele><time>2026-04-19T13:34:31.887Z</time></trkpt><trkpt lat="43.8627283" lon="12.5407383"><ele>522.0</ele><time>2026-04-19T13:34:32.884Z</time></trkpt><trkpt lat="43.862745" lon="12.5406033"><ele>522.0</ele><time>2026-04-19T13:34:33.887Z</time></trkpt><trkpt lat="43.8627617" lon="12.5404767"><ele>522.0</ele><time>2026-04-19T13:34:34.888Z</time></trkpt><trkpt lat="43.8627833" lon="12.540365"><ele>522.0</ele><time>2026-04-19T13:34:35.884Z</time></trkpt><trkpt lat="43.862825" lon="12.5402567"><ele>522.0</ele><time>2026-04-19T13:34:36.889Z</time></trkpt><trkpt lat="43.86288" lon="12.5401667"><ele>522.0</ele><time>2026-04-19T13:34:37.886Z</time></trkpt><trkpt lat="43.8629417" lon="12.5400867"><ele>522.0</ele><time>2026-04-19T13:34:38.887Z</time></trkpt><trkpt lat="43.8629967" lon="12.5400017"><ele>519.5</ele><time>2026-04-19T13:34:39.886Z</time></trkpt><trkpt lat="43.86304" lon="12.5399033"><ele>517.0</ele><time>2026-04-19T13:34:40.888Z</time></trkpt><trkpt lat="43.8630667" lon="12.5397883"><ele>514.5</ele><time>2026-04-19T13:34:41.889Z</time></trkpt><trkpt lat="43.8630817" lon="12.5396733"><ele>512.0</ele><time>2026-04-19T13:34:42.887Z</time></trkpt><trkpt lat="43.863085" lon="12.5395733"><ele>509.5</ele><time>2026-04-19T13:34:43.887Z</time></trkpt><trkpt lat="43.8630783" lon="12.5394483"><ele>507.0</ele><time>2026-04-19T13:34:45.887Z</time></trkpt><trkpt lat="43.8629767" lon="12.5394733"><ele>507.0</ele><time>2026-04-19T13:34:48.886Z</time></trkpt><trkpt lat="43.8628933" lon="12.53959"><ele>507.0</ele><time>2026-04-19T13:34:50.884Z</time></trkpt><trkpt lat="43.86285" lon="12.5396683"><ele>507.0</ele><time>2026-04-19T13:34:51.886Z</time></trkpt><trkpt lat="43.8628117" lon="12.5397483"><ele>507.0</ele><time>2026-04-19T13:34:52.885Z</time></trkpt><trkpt lat="43.8627683" lon="12.5398183"><ele>507.0</ele><time>2026-04-19T13:34:53.887Z</time></trkpt><trkpt lat="43.8626817" lon="12.539875"><ele>507.0</ele><time>2026-04-19T13:34:55.889Z</time></trkpt><trkpt lat="43.8626183" lon="12.5397767"><ele>507.0</ele><time>2026-04-19T13:34:57.885Z</time></trkpt><trkpt lat="43.862625" lon="12.5396867"><ele>507.0</ele><time>2026-04-19T13:34:58.885Z</time></trkpt><trkpt lat="43.86264" lon="12.5395817"><ele>507.0</ele><time>2026-04-19T13:34:59.888Z</time></trkpt><trkpt lat="43.86268" lon="12.539475"><ele>507.0</ele><time>2026-04-19T13:35:00.887Z</time></trkpt><trkpt lat="43.8627417" lon="12.53936"><ele>507.0</ele><time>2026-04-19T13:35:01.888Z</time></trkpt><trkpt lat="43.8628" lon="12.5392333"><ele>507.0</ele><time>2026-04-19T13:35:02.888Z</time></trkpt><trkpt lat="43.8628583" lon="12.5390983"><ele>505.40000000000003</ele><time>2026-04-19T13:35:03.887Z</time></trkpt><trkpt lat="43.8629083" lon="12.538965"><ele>503.80000000000007</ele><time>2026-04-19T13:35:04.889Z</time></trkpt><trkpt lat="43.8629633" lon="12.5388333"><ele>502.2</ele><time>2026-04-19T13:35:05.887Z</time></trkpt><trkpt lat="43.8630083" lon="12.5387033"><ele>500.6</ele><time>2026-04-19T13:35:06.888Z</time></trkpt><trkpt lat="43.863045" lon="12.5385767"><ele>499.0</ele><time>2026-04-19T13:35:07.888Z</time></trkpt><trkpt lat="43.86307" lon="12.5384517"><ele>496.83333333333337</ele><time>2026-04-19T13:35:08.885Z</time></trkpt><trkpt lat="43.8630817" lon="12.53834"><ele>494.6666666666667</ele><time>2026-04-19T13:35:09.889Z</time></trkpt><trkpt lat="43.863085" lon="12.5382283"><ele>492.5</ele><time>2026-04-19T13:35:10.888Z</time></trkpt><trkpt lat="43.86303" lon="12.5380833"><ele>490.33333333333337</ele><time>2026-04-19T13:35:12.886Z</time></trkpt><trkpt lat="43.8629733" lon="12.53804"><ele>488.1666666666667</ele><time>2026-04-19T13:35:13.89Z</time></trkpt><trkpt lat="43.8628867" lon="12.5380083"><ele>486.0</ele><time>2026-04-19T13:35:14.887Z</time></trkpt><trkpt lat="43.8627833" lon="12.5379767"><ele>486.0</ele><time>2026-04-19T13:35:15.888Z</time></trkpt><trkpt lat="43.8626717" lon="12.5379533"><ele>486.0</ele><time>2026-04-19T13:35:16.888Z</time></trkpt><trkpt lat="43.862555" lon="12.537935"><ele>486.0</ele><time>2026-04-19T13:35:17.884Z</time></trkpt><trkpt lat="43.8624417" lon="12.5379133"><ele>486.0</ele><time>2026-04-19T13:35:18.886Z</time></trkpt><trkpt lat="43.8623333" lon="12.5378933"><ele>487.4</ele><time>2026-04-19T13:35:19.886Z</time></trkpt><trkpt lat="43.8622283" lon="12.5378667"><ele>488.8</ele><time>2026-04-19T13:35:20.886Z</time></trkpt><trkpt lat="43.86212" lon="12.537835"><ele>490.19999999999993</ele><time>2026-04-19T13:35:21.886Z</time></trkpt><trkpt lat="43.8620117" lon="12.5378"><ele>491.59999999999997</ele><time>2026-04-19T13:35:22.887Z</time></trkpt><trkpt lat="43.8619017" lon="12.5377633"><ele>493.0</ele><time>2026-04-19T13:35:23.888Z</time></trkpt><trkpt lat="43.86179" lon="12.5377267"><ele>490.4</ele><time>2026-04-19T13:35:24.885Z</time></trkpt><trkpt lat="43.8616767" lon="12.5376917"><ele>487.79999999999995</ele><time>2026-04-19T13:35:25.886Z</time></trkpt><trkpt lat="43.861575" lon="12.537655"><ele>485.2</ele><time>2026-04-19T13:35:26.886Z</time></trkpt><trkpt lat="43.8614917" lon="12.5376133"><ele>482.6</ele><time>2026-04-19T13:35:27.885Z</time></trkpt><trkpt lat="43.8614317" lon="12.5375683"><ele>480.0</ele><time>2026-04-19T13:35:28.885Z</time></trkpt><trkpt lat="43.8613767" lon="12.5374383"><ele>480.0</ele><time>2026-04-19T13:35:30.889Z</time></trkpt><trkpt lat="43.8613933" lon="12.5373517"><ele>480.0</ele><time>2026-04-19T13:35:31.888Z</time></trkpt><trkpt lat="43.8614467" lon="12.53726"><ele>480.0</ele><time>2026-04-19T13:35:32.888Z</time></trkpt><trkpt lat="43.8615667" lon="12.5371433"><ele>480.0</ele><time>2026-04-19T13:35:33.889Z</time></trkpt><trkpt lat="43.861665" lon="12.5370683"><ele>480.0</ele><time>2026-04-19T13:35:34.885Z</time></trkpt><trkpt lat="43.861755" lon="12.5369883"><ele>481.6</ele><time>2026-04-19T13:35:35.888Z</time></trkpt><trkpt lat="43.861825" lon="12.5369067"><ele>483.2</ele><time>2026-04-19T13:35:36.889Z</time></trkpt><trkpt lat="43.8618767" lon="12.536825"><ele>484.79999999999995</ele><time>2026-04-19T13:35:37.887Z</time></trkpt><trkpt lat="43.8619083" lon="12.5367417"><ele>486.4</ele><time>2026-04-19T13:35:38.887Z</time></trkpt><trkpt lat="43.8619133" lon="12.53657"><ele>488.0</ele><time>2026-04-19T13:35:40.889Z</time></trkpt><trkpt lat="43.8619467" lon="12.5364033"><ele>487.99999999999994</ele><time>2026-04-19T13:35:42.889Z</time></trkpt><trkpt lat="43.86198" lon="12.5363233"><ele>488.0</ele><time>2026-04-19T13:35:43.887Z</time></trkpt><trkpt lat="43.8620217" lon="12.5362433"><ele>487.99999999999994</ele><time>2026-04-19T13:35:44.885Z</time></trkpt><trkpt lat="43.8620667" lon="12.5361583"><ele>487.99999999999994</ele><time>2026-04-19T13:35:45.886Z</time></trkpt><trkpt lat="43.8621083" lon="12.5360717"><ele>488.0</ele><time>2026-04-19T13:35:46.888Z</time></trkpt><trkpt lat="43.8621417" lon="12.5359783"><ele>487.99999999999994</ele><time>2026-04-19T13:35:47.884Z</time></trkpt><trkpt lat="43.86217" lon="12.5358817"><ele>487.99999999999994</ele><time>2026-04-19T13:35:48.888Z</time></trkpt><trkpt lat="43.8621933" lon="12.5357817"><ele>485.16666666666663</ele><time>2026-04-19T13:35:49.889Z</time></trkpt><trkpt lat="43.8622217" lon="12.5356783"><ele>482.3333333333333</ele><time>2026-04-19T13:35:50.888Z</time></trkpt><trkpt lat="43.8622583" lon="12.5355817"><ele>479.5</ele><time>2026-04-19T13:35:51.888Z</time></trkpt><trkpt lat="43.8623067" lon="12.5354917"><ele>476.66666666666663</ele><time>2026-04-19T13:35:52.887Z</time></trkpt><trkpt lat="43.8623683" lon="12.535425"><ele>473.8333333333333</ele><time>2026-04-19T13:35:53.888Z</time></trkpt><trkpt lat="43.86243" lon="12.5353583"><ele>471.0</ele><time>2026-04-19T13:35:54.887Z</time></trkpt><trkpt lat="43.8624833" lon="12.5352783"><ele>468.5</ele><time>2026-04-19T13:35:55.888Z</time></trkpt><trkpt lat="43.8625217" lon="12.53518"><ele>466.0</ele><time>2026-04-19T13:35:56.888Z</time></trkpt><trkpt lat="43.8625333" lon="12.5350683"><ele>463.5</ele><time>2026-04-19T13:35:57.888Z</time></trkpt><trkpt lat="43.8625333" lon="12.5349467"><ele>461.0</ele><time>2026-04-19T13:35:58.887Z</time></trkpt><trkpt lat="43.86254" lon="12.5348117"><ele>458.5</ele><time>2026-04-19T13:35:59.888Z</time></trkpt><trkpt lat="43.862575" lon="12.5346817"><ele>456.0</ele><time>2026-04-19T13:36:00.889Z</time></trkpt><trkpt lat="43.8626383" lon="12.5345667"><ele>452.25</ele><time>2026-04-19T13:36:01.889Z</time></trkpt><trkpt lat="43.8627183" lon="12.53446"><ele>448.5</ele><time>2026-04-19T13:36:02.885Z</time></trkpt><trkpt lat="43.8628017" lon="12.5343417"><ele>444.75</ele><time>2026-04-19T13:36:03.885Z</time></trkpt><trkpt lat="43.86288" lon="12.5342117"><ele>441.0</ele><time>2026-04-19T13:36:04.885Z</time></trkpt><trkpt lat="43.8629533" lon="12.53407"><ele>441.0</ele><time>2026-04-19T13:36:05.887Z</time></trkpt><trkpt lat="43.863025" lon="12.5339233"><ele>441.0</ele><time>2026-04-19T13:36:06.887Z</time></trkpt><trkpt lat="43.863095" lon="12.5337733"><ele>441.0</ele><time>2026-04-19T13:36:07.886Z</time></trkpt><trkpt lat="43.8631683" lon="12.53362"><ele>441.0</ele><time>2026-04-19T13:36:08.889Z</time></trkpt><trkpt lat="43.86324" lon="12.5334617"><ele>440.25</ele><time>2026-04-19T13:36:09.889Z</time></trkpt><trkpt lat="43.8633183" lon="12.5333033"><ele>439.5</ele><time>2026-04-19T13:36:10.888Z</time></trkpt><trkpt lat="43.8634" lon="12.5331467"><ele>438.75</ele><time>2026-04-19T13:36:11.888Z</time></trkpt><trkpt lat="43.863485" lon="12.5329917"><ele>438.0</ele><time>2026-04-19T13:36:12.889Z</time></trkpt><trkpt lat="43.8635717" lon="12.532835"><ele>438.0</ele><time>2026-04-19T13:36:13.888Z</time></trkpt><trkpt lat="43.8636583" lon="12.5326783"><ele>438.0</ele><time>2026-04-19T13:36:14.884Z</time></trkpt><trkpt lat="43.8637383" lon="12.53252"><ele>438.0</ele><time>2026-04-19T13:36:15.89Z</time></trkpt><trkpt lat="43.863805" lon="12.5323517"><ele>438.0</ele><time>2026-04-19T13:36:16.886Z</time></trkpt><trkpt lat="43.8638517" lon="12.5321667"><ele>440.0</ele><time>2026-04-19T13:36:17.888Z</time></trkpt><trkpt lat="43.86388" lon="12.53197"><ele>442.0</ele><time>2026-04-19T13:36:18.888Z</time></trkpt><trkpt lat="43.863895" lon="12.5317617"><ele>444.0</ele><time>2026-04-19T13:36:19.888Z</time></trkpt><trkpt lat="43.863905" lon="12.5315517"><ele>446.0</ele><time>2026-04-19T13:36:20.889Z</time></trkpt><trkpt lat="43.8639183" lon="12.5313483"><ele>445.75</ele><time>2026-04-19T13:36:21.888Z</time></trkpt><trkpt lat="43.8639433" lon="12.5311533"><ele>445.5</ele><time>2026-04-19T13:36:22.889Z</time></trkpt><trkpt lat="43.8639733" lon="12.5309733"><ele>445.25</ele><time>2026-04-19T13:36:23.888Z</time></trkpt><trkpt lat="43.8640117" lon="12.5308"><ele>445.0</ele><time>2026-04-19T13:36:24.888Z</time></trkpt><trkpt lat="43.864055" lon="12.5306283"><ele>445.0</ele><time>2026-04-19T13:36:25.888Z</time></trkpt><trkpt lat="43.8641067" lon="12.5304533"><ele>445.0</ele><time>2026-04-19T13:36:26.889Z</time></trkpt><trkpt lat="43.8641583" lon="12.5302717"><ele>445.0</ele><time>2026-04-19T13:36:27.89Z</time></trkpt><trkpt lat="43.8642" lon="12.5300783"><ele>445.0</ele><time>2026-04-19T13:36:28.888Z</time></trkpt><trkpt lat="43.86423" lon="12.5298767"><ele>443.33333333333337</ele><time>2026-04-19T13:36:29.889Z</time></trkpt><trkpt lat="43.8642483" lon="12.529665"><ele>441.66666666666663</ele><time>2026-04-19T13:36:30.889Z</time></trkpt><trkpt lat="43.8642533" lon="12.5294517"><ele>440.0</ele><time>2026-04-19T13:36:31.887Z</time></trkpt><trkpt lat="43.864255" lon="12.5292317"><ele>439.3333333333333</ele><time>2026-04-19T13:36:32.887Z</time></trkpt><trkpt lat="43.8642533" lon="12.52901"><ele>438.66666666666663</ele><time>2026-04-19T13:36:33.889Z</time></trkpt><trkpt lat="43.8642483" lon="12.5287867"><ele>438.0</ele><time>2026-04-19T13:36:34.891Z</time></trkpt><trkpt lat="43.8642467" lon="12.528565"><ele>438.0</ele><time>2026-04-19T13:36:35.888Z</time></trkpt><trkpt lat="43.86425" lon="12.528345"><ele>438.0</ele><time>2026-04-19T13:36:36.888Z</time></trkpt><trkpt lat="43.8642617" lon="12.5281267"><ele>438.0</ele><time>2026-04-19T13:36:37.888Z</time></trkpt><trkpt lat="43.8642833" lon="12.52792"><ele>438.75</ele><time>2026-04-19T13:36:38.889Z</time></trkpt><trkpt lat="43.8643017" lon="12.527725"><ele>439.5</ele><time>2026-04-19T13:36:39.888Z</time></trkpt><trkpt lat="43.8642983" lon="12.52754"><ele>440.25</ele><time>2026-04-19T13:36:40.889Z</time></trkpt><trkpt lat="43.86427" lon="12.5273633"><ele>441.0</ele><time>2026-04-19T13:36:41.888Z</time></trkpt><trkpt lat="43.864225" lon="12.527185"><ele>441.75</ele><time>2026-04-19T13:36:42.888Z</time></trkpt><trkpt lat="43.86418" lon="12.5270067"><ele>442.5</ele><time>2026-04-19T13:36:43.888Z</time></trkpt><trkpt lat="43.8641417" lon="12.5268367"><ele>443.25</ele><time>2026-04-19T13:36:44.887Z</time></trkpt><trkpt lat="43.8641083" lon="12.52668"><ele>444.0</ele><time>2026-04-19T13:36:45.889Z</time></trkpt><trkpt lat="43.8640767" lon="12.5265367"><ele>444.0</ele><time>2026-04-19T13:36:46.89Z</time></trkpt><trkpt lat="43.86404" lon="12.5264067"><ele>444.0</ele><time>2026-04-19T13:36:47.888Z</time></trkpt><trkpt lat="43.863995" lon="12.5263"><ele>444.0</ele><time>2026-04-19T13:36:48.888Z</time></trkpt><trkpt lat="43.8639367" lon="12.5262067"><ele>444.0</ele><time>2026-04-19T13:36:49.889Z</time></trkpt><trkpt lat="43.8638717" lon="12.52613"><ele>444.0</ele><time>2026-04-19T13:36:50.889Z</time></trkpt><trkpt lat="43.8638017" lon="12.5260667"><ele>444.0</ele><time>2026-04-19T13:36:51.888Z</time></trkpt><trkpt lat="43.863725" lon="12.5259983"><ele>443.4</ele><time>2026-04-19T13:36:52.887Z</time></trkpt><trkpt lat="43.8636483" lon="12.5259133"><ele>442.79999999999995</ele><time>2026-04-19T13:36:53.889Z</time></trkpt><trkpt lat="43.8635683" lon="12.5258217"><ele>442.20000000000005</ele><time>2026-04-19T13:36:54.888Z</time></trkpt><trkpt lat="43.863485" lon="12.52572"><ele>441.6</ele><time>2026-04-19T13:36:55.888Z</time></trkpt><trkpt lat="43.86339" lon="12.5256117"><ele>441.0</ele><time>2026-04-19T13:36:56.888Z</time></trkpt><trkpt lat="43.8632883" lon="12.5255067"><ele>443.0</ele><time>2026-04-19T13:36:57.888Z</time></trkpt><trkpt lat="43.8631767" lon="12.525415"><ele>445.0</ele><time>2026-04-19T13:36:58.888Z</time></trkpt><trkpt lat="43.86306" lon="12.5253433"><ele>447.0</ele><time>2026-04-19T13:36:59.889Z</time></trkpt><trkpt lat="43.8629417" lon="12.5253017"><ele>449.0</ele><time>2026-04-19T13:37:00.888Z</time></trkpt><trkpt lat="43.86282" lon="12.52529"><ele>451.2</ele><time>2026-04-19T13:37:01.888Z</time></trkpt><trkpt lat="43.8626967" lon="12.525315"><ele>453.4</ele><time>2026-04-19T13:37:02.888Z</time></trkpt><trkpt lat="43.8625783" lon="12.525345"><ele>455.6</ele><time>2026-04-19T13:37:03.886Z</time></trkpt><trkpt lat="43.8624717" lon="12.5253367"><ele>457.8</ele><time>2026-04-19T13:37:04.891Z</time></trkpt><trkpt lat="43.8623783" lon="12.52533"><ele>460.0</ele><time>2026-04-19T13:37:05.888Z</time></trkpt><trkpt lat="43.8623033" lon="12.5252833"><ele>460.0</ele><time>2026-04-19T13:37:06.885Z</time></trkpt><trkpt lat="43.862235" lon="12.5252133"><ele>460.0</ele><time>2026-04-19T13:37:07.889Z</time></trkpt><trkpt lat="43.8621817" lon="12.5251233"><ele>460.0</ele><time>2026-04-19T13:37:08.889Z</time></trkpt><trkpt lat="43.8621533" lon="12.52501"><ele>460.0</ele><time>2026-04-19T13:37:09.885Z</time></trkpt><trkpt lat="43.8621533" lon="12.5248617"><ele>460.0</ele><time>2026-04-19T13:37:10.888Z</time></trkpt><trkpt lat="43.8621667" lon="12.524705"><ele>459.75</ele><time>2026-04-19T13:37:11.888Z</time></trkpt><trkpt lat="43.862175" lon="12.5245217"><ele>459.5</ele><time>2026-04-19T13:37:12.887Z</time></trkpt><trkpt lat="43.8621583" lon="12.5243383"><ele>459.25</ele><time>2026-04-19T13:37:13.889Z</time></trkpt><trkpt lat="43.862125" lon="12.5241617"><ele>459.0</ele><time>2026-04-19T13:37:14.887Z</time></trkpt><trkpt lat="43.8620917" lon="12.5239883"><ele>459.0</ele><time>2026-04-19T13:37:15.886Z</time></trkpt><trkpt lat="43.8620633" lon="12.5238317"><ele>459.0</ele><time>2026-04-19T13:37:16.888Z</time></trkpt><trkpt lat="43.8620567" lon="12.5236733"><ele>459.0</ele><time>2026-04-19T13:37:17.884Z</time></trkpt><trkpt lat="43.8620633" lon="12.52354"><ele>459.0</ele><time>2026-04-19T13:37:18.886Z</time></trkpt><trkpt lat="43.8620867" lon="12.5234183"><ele>459.0</ele><time>2026-04-19T13:37:19.891Z</time></trkpt><trkpt lat="43.8621217" lon="12.5233033"><ele>456.79999999999995</ele><time>2026-04-19T13:37:20.885Z</time></trkpt><trkpt lat="43.8621483" lon="12.5231917"><ele>454.59999999999997</ele><time>2026-04-19T13:37:21.887Z</time></trkpt><trkpt lat="43.862155" lon="12.5230783"><ele>452.4</ele><time>2026-04-19T13:37:22.886Z</time></trkpt><trkpt lat="43.8621267" lon="12.522965"><ele>450.2</ele><time>2026-04-19T13:37:23.888Z</time></trkpt><trkpt lat="43.8620633" lon="12.5228517"><ele>448.0</ele><time>2026-04-19T13:37:24.888Z</time></trkpt><trkpt lat="43.861985" lon="12.5227467"><ele>447.1666666666667</ele><time>2026-04-19T13:37:25.888Z</time></trkpt><trkpt lat="43.8619117" lon="12.5226483"><ele>446.33333333333337</ele><time>2026-04-19T13:37:26.888Z</time></trkpt><trkpt lat="43.8618583" lon="12.522555"><ele>445.5</ele><time>2026-04-19T13:37:27.886Z</time></trkpt><trkpt lat="43.8618317" lon="12.5224583"><ele>444.66666666666663</ele><time>2026-04-19T13:37:28.885Z</time></trkpt><trkpt lat="43.8618283" lon="12.5223617"><ele>443.8333333333333</ele><time>2026-04-19T13:37:29.887Z</time></trkpt><trkpt lat="43.86187" lon="12.5222717"><ele>443.0</ele><time>2026-04-19T13:37:30.888Z</time></trkpt><trkpt lat="43.8619517" lon="12.5221917"><ele>443.0</ele><time>2026-04-19T13:37:31.892Z</time></trkpt><trkpt lat="43.8620583" lon="12.522115"><ele>443.0</ele><time>2026-04-19T13:37:32.886Z</time></trkpt><trkpt lat="43.8621567" lon="12.5220383"><ele>443.0</ele><time>2026-04-19T13:37:33.886Z</time></trkpt><trkpt lat="43.8622533" lon="12.5219567"><ele>443.0</ele><time>2026-04-19T13:37:34.889Z</time></trkpt><trkpt lat="43.8623433" lon="12.52188"><ele>441.59999999999997</ele><time>2026-04-19T13:37:35.888Z</time></trkpt><trkpt lat="43.8624333" lon="12.5218033"><ele>440.19999999999993</ele><time>2026-04-19T13:37:36.886Z</time></trkpt><trkpt lat="43.8625217" lon="12.5217317"><ele>438.8</ele><time>2026-04-19T13:37:37.886Z</time></trkpt><trkpt lat="43.862605" lon="12.5216567"><ele>437.4</ele><time>2026-04-19T13:37:38.885Z</time></trkpt><trkpt lat="43.8626833" lon="12.5215867"><ele>436.0</ele><time>2026-04-19T13:37:39.888Z</time></trkpt><trkpt lat="43.8627583" lon="12.5215183"><ele>435.50000000000006</ele><time>2026-04-19T13:37:40.889Z</time></trkpt><trkpt lat="43.8628317" lon="12.5214533"><ele>435.0</ele><time>2026-04-19T13:37:41.887Z</time></trkpt><trkpt lat="43.8629033" lon="12.5213867"><ele>434.5</ele><time>2026-04-19T13:37:42.888Z</time></trkpt><trkpt lat="43.8629717" lon="12.52132"><ele>434.0</ele><time>2026-04-19T13:37:43.889Z</time></trkpt><trkpt lat="43.863035" lon="12.5212617"><ele>433.50000000000006</ele><time>2026-04-19T13:37:44.889Z</time></trkpt><trkpt lat="43.86309" lon="12.5212167"><ele>433.0</ele><time>2026-04-19T13:37:45.888Z</time></trkpt><trkpt lat="43.86317" lon="12.521175"><ele>433.00000000000006</ele><time>2026-04-19T13:37:47.889Z</time></trkpt><trkpt lat="43.8632333" lon="12.52121"><ele>433.0</ele><time>2026-04-19T13:37:49.89Z</time></trkpt><trkpt lat="43.86327" lon="12.5213033"><ele>433.0</ele><time>2026-04-19T13:37:51.888Z</time></trkpt><trkpt lat="43.8632533" lon="12.5214467"><ele>433.0</ele><time>2026-04-19T13:37:53.887Z</time></trkpt><trkpt lat="43.8632383" lon="12.5215317"><ele>433.00000000000006</ele><time>2026-04-19T13:37:54.889Z</time></trkpt><trkpt lat="43.863225" lon="12.5216233"><ele>433.0</ele><time>2026-04-19T13:37:55.887Z</time></trkpt><trkpt lat="43.8632383" lon="12.5217183"><ele>433.00000000000006</ele><time>2026-04-19T13:37:56.886Z</time></trkpt><trkpt lat="43.863265" lon="12.5218033"><ele>433.0</ele><time>2026-04-19T13:37:57.886Z</time></trkpt><trkpt lat="43.863315" lon="12.5218767"><ele>433.0</ele><time>2026-04-19T13:37:58.89Z</time></trkpt><trkpt lat="43.8633833" lon="12.52193"><ele>433.0</ele><time>2026-04-19T13:37:59.885Z</time></trkpt><trkpt lat="43.8634617" lon="12.5219683"><ele>433.00000000000006</ele><time>2026-04-19T13:38:00.888Z</time></trkpt><trkpt lat="43.8635517" lon="12.5219967"><ele>433.0</ele><time>2026-04-19T13:38:01.887Z</time></trkpt><trkpt lat="43.8636467" lon="12.52201"><ele>430.2</ele><time>2026-04-19T13:38:02.887Z</time></trkpt><trkpt lat="43.863745" lon="12.5220167"><ele>427.4</ele><time>2026-04-19T13:38:03.888Z</time></trkpt><trkpt lat="43.8638417" lon="12.5220183"><ele>424.59999999999997</ele><time>2026-04-19T13:38:04.887Z</time></trkpt><trkpt lat="43.8639367" lon="12.522015"><ele>421.79999999999995</ele><time>2026-04-19T13:38:05.884Z</time></trkpt><trkpt lat="43.864025" lon="12.5220083"><ele>419.0</ele><time>2026-04-19T13:38:06.886Z</time></trkpt><trkpt lat="43.8641117" lon="12.5219933"><ele>418.99999999999994</ele><time>2026-04-19T13:38:07.885Z</time></trkpt><trkpt lat="43.8641983" lon="12.5219733"><ele>419.0</ele><time>2026-04-19T13:38:08.888Z</time></trkpt><trkpt lat="43.8642817" lon="12.5219483"><ele>419.0</ele><time>2026-04-19T13:38:09.888Z</time></trkpt><trkpt lat="43.8643633" lon="12.52191"><ele>419.0</ele><time>2026-04-19T13:38:10.89Z</time></trkpt><trkpt lat="43.8644383" lon="12.5218667"><ele>418.99999999999994</ele><time>2026-04-19T13:38:11.888Z</time></trkpt><trkpt lat="43.86451" lon="12.5218183"><ele>419.0</ele><time>2026-04-19T13:38:12.886Z</time></trkpt><trkpt lat="43.86458" lon="12.5217733"><ele>418.8333333333333</ele><time>2026-04-19T13:38:13.888Z</time></trkpt><trkpt lat="43.8646483" lon="12.52173"><ele>418.66666666666663</ele><time>2026-04-19T13:38:14.888Z</time></trkpt><trkpt lat="43.86472" lon="12.5216867"><ele>418.5</ele><time>2026-04-19T13:38:15.89Z</time></trkpt><trkpt lat="43.86479" lon="12.5216417"><ele>418.33333333333337</ele><time>2026-04-19T13:38:16.886Z</time></trkpt><trkpt lat="43.8648633" lon="12.5216"><ele>418.1666666666667</ele><time>2026-04-19T13:38:17.886Z</time></trkpt><trkpt lat="43.86494" lon="12.5215633"><ele>418.0</ele><time>2026-04-19T13:38:18.889Z</time></trkpt><trkpt lat="43.8650217" lon="12.5215367"><ele>418.00000000000006</ele><time>2026-04-19T13:38:19.889Z</time></trkpt><trkpt lat="43.865105" lon="12.5215183"><ele>418.0</ele><time>2026-04-19T13:38:20.888Z</time></trkpt><trkpt lat="43.865185" lon="12.5215033"><ele>418.0</ele><time>2026-04-19T13:38:21.889Z</time></trkpt><trkpt lat="43.8652633" lon="12.5214883"><ele>418.0</ele><time>2026-04-19T13:38:22.892Z</time></trkpt><trkpt lat="43.8653433" lon="12.5214733"><ele>418.00000000000006</ele><time>2026-04-19T13:38:23.888Z</time></trkpt><trkpt lat="43.8654267" lon="12.5214683"><ele>418.0</ele><time>2026-04-19T13:38:24.889Z</time></trkpt><trkpt lat="43.8655067" lon="12.521485"><ele>416.83333333333337</ele><time>2026-04-19T13:38:25.888Z</time></trkpt><trkpt lat="43.8655783" lon="12.5215333"><ele>415.6666666666667</ele><time>2026-04-19T13:38:26.889Z</time></trkpt><trkpt lat="43.8656417" lon="12.52161"><ele>414.5</ele><time>2026-04-19T13:38:27.886Z</time></trkpt><trkpt lat="43.8657017" lon="12.521695"><ele>413.33333333333337</ele><time>2026-04-19T13:38:28.885Z</time></trkpt><trkpt lat="43.8657683" lon="12.521775"><ele>412.1666666666667</ele><time>2026-04-19T13:38:29.886Z</time></trkpt><trkpt lat="43.8658417" lon="12.5218383"><ele>411.0</ele><time>2026-04-19T13:38:30.885Z</time></trkpt><trkpt lat="43.8659233" lon="12.52188"><ele>410.8</ele><time>2026-04-19T13:38:31.886Z</time></trkpt><trkpt lat="43.86601" lon="12.5219017"><ele>410.6</ele><time>2026-04-19T13:38:32.885Z</time></trkpt><trkpt lat="43.8660983" lon="12.5219217"><ele>410.4</ele><time>2026-04-19T13:38:33.888Z</time></trkpt><trkpt lat="43.866185" lon="12.5219567"><ele>410.2</ele><time>2026-04-19T13:38:34.888Z</time></trkpt><trkpt lat="43.8662683" lon="12.5220167"><ele>410.0</ele><time>2026-04-19T13:38:35.886Z</time></trkpt><trkpt lat="43.86635" lon="12.5220917"><ele>410.0</ele><time>2026-04-19T13:38:36.888Z</time></trkpt><trkpt lat="43.8664417" lon="12.5221783"><ele>410.0</ele><time>2026-04-19T13:38:37.888Z</time></trkpt><trkpt lat="43.8665317" lon="12.52226"><ele>410.0</ele><time>2026-04-19T13:38:38.888Z</time></trkpt><trkpt lat="43.8666217" lon="12.5223217"><ele>410.0</ele><time>2026-04-19T13:38:39.888Z</time></trkpt><trkpt lat="43.8667067" lon="12.5223717"><ele>410.0</ele><time>2026-04-19T13:38:40.888Z</time></trkpt><trkpt lat="43.8667867" lon="12.522415"><ele>408.3333333333333</ele><time>2026-04-19T13:38:41.888Z</time></trkpt><trkpt lat="43.8668633" lon="12.5224617"><ele>406.66666666666663</ele><time>2026-04-19T13:38:42.892Z</time></trkpt><trkpt lat="43.8669367" lon="12.5225133"><ele>405.0</ele><time>2026-04-19T13:38:43.889Z</time></trkpt><trkpt lat="43.8670133" lon="12.522555"><ele>403.33333333333337</ele><time>2026-04-19T13:38:44.888Z</time></trkpt><trkpt lat="43.8670933" lon="12.5225717"><ele>401.6666666666667</ele><time>2026-04-19T13:38:45.888Z</time></trkpt><trkpt lat="43.8671683" lon="12.5225617"><ele>400.0</ele><time>2026-04-19T13:38:46.889Z</time></trkpt><trkpt lat="43.8672467" lon="12.5225183"><ele>400.00000000000006</ele><time>2026-04-19T13:38:47.888Z</time></trkpt><trkpt lat="43.8673167" lon="12.5224517"><ele>400.0</ele><time>2026-04-19T13:38:48.889Z</time></trkpt><trkpt lat="43.8673817" lon="12.52238"><ele>400.0</ele><time>2026-04-19T13:38:49.888Z</time></trkpt><trkpt lat="43.8674433" lon="12.5223083"><ele>400.0</ele><time>2026-04-19T13:38:50.889Z</time></trkpt><trkpt lat="43.8675" lon="12.5222417"><ele>400.00000000000006</ele><time>2026-04-19T13:38:51.885Z</time></trkpt><trkpt lat="43.867555" lon="12.52218"><ele>400.0</ele><time>2026-04-19T13:38:52.886Z</time></trkpt><trkpt lat="43.867605" lon="12.5221233"><ele>398.5714285714286</ele><time>2026-04-19T13:38:53.886Z</time></trkpt><trkpt lat="43.8676533" lon="12.5220667"><ele>397.14285714285717</ele><time>2026-04-19T13:38:54.885Z</time></trkpt><trkpt lat="43.8677067" lon="12.522015"><ele>395.7142857142857</ele><time>2026-04-19T13:38:55.887Z</time></trkpt><trkpt lat="43.8677667" lon="12.52197"><ele>394.28571428571433</ele><time>2026-04-19T13:38:56.889Z</time></trkpt><trkpt lat="43.8678333" lon="12.521935"><ele>392.85714285714283</ele><time>2026-04-19T13:38:57.886Z</time></trkpt><trkpt lat="43.8679033" lon="12.5219067"><ele>391.42857142857144</ele><time>2026-04-19T13:38:58.886Z</time></trkpt><trkpt lat="43.8679733" lon="12.5218867"><ele>390.0</ele><time>2026-04-19T13:38:59.887Z</time></trkpt><trkpt lat="43.868045" lon="12.521875"><ele>390.0</ele><time>2026-04-19T13:39:00.887Z</time></trkpt><trkpt lat="43.868115" lon="12.5218783"><ele>390.0</ele><time>2026-04-19T13:39:01.886Z</time></trkpt><trkpt lat="43.86818" lon="12.5219017"><ele>390.0</ele><time>2026-04-19T13:39:02.886Z</time></trkpt><trkpt lat="43.8682383" lon="12.5219467"><ele>390.0</ele><time>2026-04-19T13:39:03.886Z</time></trkpt><trkpt lat="43.8682867" lon="12.522015"><ele>390.0</ele><time>2026-04-19T13:39:04.885Z</time></trkpt><trkpt lat="43.86833" lon="12.5221067"><ele>390.0</ele><time>2026-04-19T13:39:05.887Z</time></trkpt><trkpt lat="43.8683733" lon="12.5222083"><ele>390.0</ele><time>2026-04-19T13:39:06.886Z</time></trkpt><trkpt lat="43.8684117" lon="12.5223067"><ele>387.0</ele><time>2026-04-19T13:39:07.887Z</time></trkpt><trkpt lat="43.86845" lon="12.5223917"><ele>384.0</ele><time>2026-04-19T13:39:08.891Z</time></trkpt><trkpt lat="43.868525" lon="12.5225033"><ele>381.0</ele><time>2026-04-19T13:39:10.888Z</time></trkpt><trkpt lat="43.8686" lon="12.5224867"><ele>378.0</ele><time>2026-04-19T13:39:13.888Z</time></trkpt><trkpt lat="43.868615" lon="12.5223717"><ele>375.0</ele><time>2026-04-19T13:39:15.889Z</time></trkpt><trkpt lat="43.868605" lon="12.5222167"><ele>375.3333333333333</ele><time>2026-04-19T13:39:17.886Z</time></trkpt><trkpt lat="43.868615" lon="12.5220483"><ele>375.6666666666667</ele><time>2026-04-19T13:39:19.886Z</time></trkpt><trkpt lat="43.868625" lon="12.52196"><ele>376.0</ele><time>2026-04-19T13:39:20.888Z</time></trkpt><trkpt lat="43.8686417" lon="12.521875"><ele>376.33333333333337</ele><time>2026-04-19T13:39:21.886Z</time></trkpt><trkpt lat="43.8686767" lon="12.52171"><ele>376.6666666666667</ele><time>2026-04-19T13:39:23.886Z</time></trkpt><trkpt lat="43.8686933" lon="12.5216233"><ele>377.0</ele><time>2026-04-19T13:39:24.887Z</time></trkpt><trkpt lat="43.8687083" lon="12.5215333"><ele>377.0</ele><time>2026-04-19T13:39:25.887Z</time></trkpt><trkpt lat="43.8687233" lon="12.521445"><ele>377.0</ele><time>2026-04-19T13:39:26.887Z</time></trkpt><trkpt lat="43.86877" lon="12.5213067"><ele>377.0</ele><time>2026-04-19T13:39:28.886Z</time></trkpt><trkpt lat="43.868835" lon="12.52125"><ele>377.0</ele><time>2026-04-19T13:39:30.887Z</time></trkpt><trkpt lat="43.868905" lon="12.521345"><ele>377.0</ele><time>2026-04-19T13:39:32.887Z</time></trkpt><trkpt lat="43.8689433" lon="12.521485"><ele>377.0</ele><time>2026-04-19T13:39:34.889Z</time></trkpt><trkpt lat="43.869005" lon="12.5216067"><ele>377.0</ele><time>2026-04-19T13:39:36.886Z</time></trkpt><trkpt lat="43.869105" lon="12.5216733"><ele>377.0</ele><time>2026-04-19T13:39:38.889Z</time></trkpt><trkpt lat="43.8692217" lon="12.52166"><ele>377.0</ele><time>2026-04-19T13:39:40.888Z</time></trkpt><trkpt lat="43.8693367" lon="12.5216233"><ele>374.0</ele><time>2026-04-19T13:39:42.889Z</time></trkpt><trkpt lat="43.8693967" lon="12.5215967"><ele>371.0</ele><time>2026-04-19T13:39:43.888Z</time></trkpt><trkpt lat="43.869515" lon="12.5215633"><ele>368.0</ele><time>2026-04-19T13:39:45.886Z</time></trkpt><trkpt lat="43.8696317" lon="12.5215867"><ele>365.0</ele><time>2026-04-19T13:39:47.885Z</time></trkpt><trkpt lat="43.8697367" lon="12.5216733"><ele>362.0</ele><time>2026-04-19T13:39:49.886Z</time></trkpt><trkpt lat="43.86978" lon="12.5217367"><ele>362.0</ele><time>2026-04-19T13:39:50.885Z</time></trkpt><trkpt lat="43.86985" lon="12.5218817"><ele>362.0</ele><time>2026-04-19T13:39:52.889Z</time></trkpt><trkpt lat="43.8698867" lon="12.52197"><ele>362.0</ele><time>2026-04-19T13:39:53.886Z</time></trkpt><trkpt lat="43.8699267" lon="12.52206"><ele>362.0</ele><time>2026-04-19T13:39:54.887Z</time></trkpt><trkpt lat="43.8699683" lon="12.522145"><ele>362.0</ele><time>2026-04-19T13:39:55.888Z</time></trkpt><trkpt lat="43.870015" lon="12.5222233"><ele>362.0</ele><time>2026-04-19T13:39:56.885Z</time></trkpt><trkpt lat="43.87007" lon="12.522295"><ele>359.83333333333337</ele><time>2026-04-19T13:39:57.886Z</time></trkpt><trkpt lat="43.8701317" lon="12.5223483"><ele>357.6666666666667</ele><time>2026-04-19T13:39:58.886Z</time></trkpt><trkpt lat="43.8702017" lon="12.5223867"><ele>355.5</ele><time>2026-04-19T13:39:59.886Z</time></trkpt><trkpt lat="43.8702767" lon="12.52241"><ele>353.3333333333333</ele><time>2026-04-19T13:40:00.886Z</time></trkpt><trkpt lat="43.8703567" lon="12.5224267"><ele>351.16666666666663</ele><time>2026-04-19T13:40:01.886Z</time></trkpt><trkpt lat="43.8704417" lon="12.5224383"><ele>349.0</ele><time>2026-04-19T13:40:02.888Z</time></trkpt><trkpt lat="43.87053" lon="12.5224417"><ele>349.0</ele><time>2026-04-19T13:40:03.888Z</time></trkpt><trkpt lat="43.8706183" lon="12.5224367"><ele>349.0</ele><time>2026-04-19T13:40:04.889Z</time></trkpt><trkpt lat="43.8707083" lon="12.52243"><ele>349.0</ele><time>2026-04-19T13:40:05.889Z</time></trkpt><trkpt lat="43.8708" lon="12.52242"><ele>349.0</ele><time>2026-04-19T13:40:06.886Z</time></trkpt><trkpt lat="43.8708933" lon="12.5224017"><ele>349.0</ele><time>2026-04-19T13:40:07.887Z</time></trkpt><trkpt lat="43.870985" lon="12.5223767"><ele>348.2</ele><time>2026-04-19T13:40:08.886Z</time></trkpt><trkpt lat="43.8710733" lon="12.5223483"><ele>347.4</ele><time>2026-04-19T13:40:09.886Z</time></trkpt><trkpt lat="43.87117" lon="12.522315"><ele>346.6</ele><time>2026-04-19T13:40:10.888Z</time></trkpt><trkpt lat="43.8712717" lon="12.5222783"><ele>345.8</ele><time>2026-04-19T13:40:11.888Z</time></trkpt><trkpt lat="43.8713817" lon="12.5222483"><ele>345.0</ele><time>2026-04-19T13:40:12.888Z</time></trkpt><trkpt lat="43.8714867" lon="12.5222217"><ele>345.0</ele><time>2026-04-19T13:40:13.888Z</time></trkpt><trkpt lat="43.8715833" lon="12.52219"><ele>345.0</ele><time>2026-04-19T13:40:14.888Z</time></trkpt><trkpt lat="43.8716717" lon="12.5221417"><ele>345.0</ele><time>2026-04-19T13:40:15.888Z</time></trkpt><trkpt lat="43.8717533" lon="12.5220583"><ele>345.0</ele><time>2026-04-19T13:40:16.889Z</time></trkpt><trkpt lat="43.8718283" lon="12.52195"><ele>345.0</ele><time>2026-04-19T13:40:17.884Z</time></trkpt><trkpt lat="43.8719" lon="12.5218367"><ele>347.2</ele><time>2026-04-19T13:40:18.886Z</time></trkpt><trkpt lat="43.8719633" lon="12.521735"><ele>349.4</ele><time>2026-04-19T13:40:19.886Z</time></trkpt><trkpt lat="43.8720267" lon="12.5216583"><ele>351.6</ele><time>2026-04-19T13:40:20.888Z</time></trkpt><trkpt lat="43.8721" lon="12.5216067"><ele>353.8</ele><time>2026-04-19T13:40:21.886Z</time></trkpt><trkpt lat="43.8721883" lon="12.5215717"><ele>356.0</ele><time>2026-04-19T13:40:22.886Z</time></trkpt><trkpt lat="43.8722883" lon="12.5215433"><ele>356.0</ele><time>2026-04-19T13:40:23.887Z</time></trkpt><trkpt lat="43.87239" lon="12.521525"><ele>356.0</ele><time>2026-04-19T13:40:24.886Z</time></trkpt><trkpt lat="43.872495" lon="12.52151"><ele>356.0</ele><time>2026-04-19T13:40:25.887Z</time></trkpt><trkpt lat="43.8726" lon="12.521495"><ele>356.0</ele><time>2026-04-19T13:40:26.887Z</time></trkpt><trkpt lat="43.8726983" lon="12.5214817"><ele>356.0</ele><time>2026-04-19T13:40:27.888Z</time></trkpt><trkpt lat="43.8727867" lon="12.5214733"><ele>355.6666666666667</ele><time>2026-04-19T13:40:28.888Z</time></trkpt><trkpt lat="43.8728667" lon="12.5214683"><ele>355.33333333333337</ele><time>2026-04-19T13:40:29.889Z</time></trkpt><trkpt lat="43.872945" lon="12.521465"><ele>355.0</ele><time>2026-04-19T13:40:30.889Z</time></trkpt><trkpt lat="43.8730167" lon="12.5214717"><ele>354.6666666666667</ele><time>2026-04-19T13:40:31.888Z</time></trkpt><trkpt lat="43.8731017" lon="12.521505"><ele>354.3333333333333</ele><time>2026-04-19T13:40:33.889Z</time></trkpt><trkpt lat="43.873165" lon="12.5215483"><ele>354.0</ele><time>2026-04-19T13:40:35.887Z</time></trkpt><trkpt lat="43.873275" lon="12.5216417"><ele>354.0</ele><time>2026-04-19T13:40:37.888Z</time></trkpt><trkpt lat="43.8733483" lon="12.5217117"><ele>354.0</ele><time>2026-04-19T13:40:38.887Z</time></trkpt><trkpt lat="43.87343" lon="12.5217867"><ele>354.0</ele><time>2026-04-19T13:40:39.887Z</time></trkpt><trkpt lat="43.8735133" lon="12.5218633"><ele>354.0</ele><time>2026-04-19T13:40:40.888Z</time></trkpt><trkpt lat="43.8736017" lon="12.5219433"><ele>354.0</ele><time>2026-04-19T13:40:41.888Z</time></trkpt><trkpt lat="43.8736917" lon="12.522025"><ele>351.2</ele><time>2026-04-19T13:40:42.888Z</time></trkpt><trkpt lat="43.8737783" lon="12.522105"><ele>348.4</ele><time>2026-04-19T13:40:43.889Z</time></trkpt><trkpt lat="43.873865" lon="12.5221817"><ele>345.6</ele><time>2026-04-19T13:40:44.888Z</time></trkpt><trkpt lat="43.8739467" lon="12.5222533"><ele>342.8</ele><time>2026-04-19T13:40:45.889Z</time></trkpt><trkpt lat="43.87402" lon="12.5223183"><ele>340.0</ele><time>2026-04-19T13:40:46.886Z</time></trkpt><trkpt lat="43.8740817" lon="12.5223783"><ele>340.0</ele><time>2026-04-19T13:40:47.885Z</time></trkpt><trkpt lat="43.8741583" lon="12.5224983"><ele>340.0</ele><time>2026-04-19T13:40:49.886Z</time></trkpt><trkpt lat="43.8741667" lon="12.5226233"><ele>340.0</ele><time>2026-04-19T13:40:51.885Z</time></trkpt><trkpt lat="43.874115" lon="12.5227233"><ele>340.0</ele><time>2026-04-19T13:40:53.885Z</time></trkpt><trkpt lat="43.8740183" lon="12.5227967"><ele>340.0</ele><time>2026-04-19T13:40:55.886Z</time></trkpt><trkpt lat="43.8739233" lon="12.5228767"><ele>338.8333333333333</ele><time>2026-04-19T13:40:57.886Z</time></trkpt><trkpt lat="43.8738967" lon="12.5229867"><ele>337.66666666666663</ele><time>2026-04-19T13:40:59.885Z</time></trkpt><trkpt lat="43.8739517" lon="12.5230867"><ele>336.5</ele><time>2026-04-19T13:41:01.887Z</time></trkpt><trkpt lat="43.8740617" lon="12.5231367"><ele>335.3333333333333</ele><time>2026-04-19T13:41:03.889Z</time></trkpt><trkpt lat="43.8741333" lon="12.5231533"><ele>334.1666666666667</ele><time>2026-04-19T13:41:04.891Z</time></trkpt><trkpt lat="43.87421" lon="12.523165"><ele>333.0</ele><time>2026-04-19T13:41:05.889Z</time></trkpt><trkpt lat="43.8742883" lon="12.5231767"><ele>331.8333333333333</ele><time>2026-04-19T13:41:06.889Z</time></trkpt><trkpt lat="43.8743683" lon="12.52319"><ele>330.6666666666667</ele><time>2026-04-19T13:41:07.888Z</time></trkpt><trkpt lat="43.8744483" lon="12.5232017"><ele>329.5</ele><time>2026-04-19T13:41:08.889Z</time></trkpt><trkpt lat="43.87453" lon="12.5232067"><ele>328.33333333333337</ele><time>2026-04-19T13:41:09.889Z</time></trkpt><trkpt lat="43.8746117" lon="12.523195"><ele>327.1666666666667</ele><time>2026-04-19T13:41:10.888Z</time></trkpt><trkpt lat="43.8746867" lon="12.5231617"><ele>326.0</ele><time>2026-04-19T13:41:11.888Z</time></trkpt><trkpt lat="43.8747467" lon="12.5231017"><ele>326.0</ele><time>2026-04-19T13:41:12.889Z</time></trkpt><trkpt lat="43.8747933" lon="12.5230167"><ele>326.0</ele><time>2026-04-19T13:41:13.888Z</time></trkpt><trkpt lat="43.8748267" lon="12.5229167"><ele>326.0</ele><time>2026-04-19T13:41:14.889Z</time></trkpt><trkpt lat="43.87486" lon="12.5228133"><ele>326.0</ele><time>2026-04-19T13:41:15.889Z</time></trkpt><trkpt lat="43.8748917" lon="12.5227233"><ele>326.0</ele><time>2026-04-19T13:41:16.886Z</time></trkpt><trkpt lat="43.87493" lon="12.5226517"><ele>326.0</ele><time>2026-04-19T13:41:17.885Z</time></trkpt><trkpt lat="43.87502" lon="12.5225733"><ele>323.6</ele><time>2026-04-19T13:41:19.889Z</time></trkpt><trkpt lat="43.8751267" lon="12.522635"><ele>321.20000000000005</ele><time>2026-04-19T13:41:21.886Z</time></trkpt><trkpt lat="43.8752033" lon="12.52275"><ele>318.79999999999995</ele><time>2026-04-19T13:41:22.887Z</time></trkpt><trkpt lat="43.8752633" lon="12.52286"><ele>316.4</ele><time>2026-04-19T13:41:23.888Z</time></trkpt><trkpt lat="43.8753233" lon="12.5229817"><ele>314.0</ele><time>2026-04-19T13:41:24.888Z</time></trkpt><trkpt lat="43.8753833" lon="12.5231067"><ele>314.0</ele><time>2026-04-19T13:41:25.889Z</time></trkpt><trkpt lat="43.8754283" lon="12.5232317"><ele>314.0</ele><time>2026-04-19T13:41:26.888Z</time></trkpt><trkpt lat="43.87546" lon="12.5233617"><ele>314.0</ele><time>2026-04-19T13:41:27.889Z</time></trkpt><trkpt lat="43.87548" lon="12.523495"><ele>314.0</ele><time>2026-04-19T13:41:28.889Z</time></trkpt><trkpt lat="43.8754833" lon="12.5236317"><ele>314.0</ele><time>2026-04-19T13:41:29.888Z</time></trkpt><trkpt lat="43.8754717" lon="12.52377"><ele>313.4</ele><time>2026-04-19T13:41:30.888Z</time></trkpt><trkpt lat="43.87545" lon="12.523905"><ele>312.79999999999995</ele><time>2026-04-19T13:41:31.889Z</time></trkpt><trkpt lat="43.87543" lon="12.5240267"><ele>312.20000000000005</ele><time>2026-04-19T13:41:32.886Z</time></trkpt><trkpt lat="43.87542" lon="12.5241333"><ele>311.6</ele><time>2026-04-19T13:41:33.885Z</time></trkpt><trkpt lat="43.8754283" lon="12.5242217"><ele>311.0</ele><time>2026-04-19T13:41:34.887Z</time></trkpt><trkpt lat="43.87551" lon="12.5243467"><ele>311.0</ele><time>2026-04-19T13:41:36.887Z</time></trkpt><trkpt lat="43.8755883" lon="12.5243833"><ele>311.0</ele><time>2026-04-19T13:41:37.888Z</time></trkpt><trkpt lat="43.87567" lon="12.5244083"><ele>311.0</ele><time>2026-04-19T13:41:38.888Z</time></trkpt><trkpt lat="43.8757683" lon="12.5243917"><ele>311.0</ele><time>2026-04-19T13:41:39.888Z</time></trkpt><trkpt lat="43.87587" lon="12.524345"><ele>311.0</ele><time>2026-04-19T13:41:40.888Z</time></trkpt><trkpt lat="43.8759567" lon="12.524275"><ele>308.0</ele><time>2026-04-19T13:41:41.888Z</time></trkpt><trkpt lat="43.8760383" lon="12.5241867"><ele>305.0</ele><time>2026-04-19T13:41:42.888Z</time></trkpt><trkpt lat="43.8761133" lon="12.5240917"><ele>302.0</ele><time>2026-04-19T13:41:43.889Z</time></trkpt><trkpt lat="43.87618" lon="12.5240133"><ele>299.0</ele><time>2026-04-19T13:41:44.889Z</time></trkpt><trkpt lat="43.8762417" lon="12.5239617"><ele>296.0</ele><time>2026-04-19T13:41:45.888Z</time></trkpt><trkpt lat="43.8763483" lon="12.5239433"><ele>296.0</ele><time>2026-04-19T13:41:47.886Z</time></trkpt><trkpt lat="43.8764033" lon="12.52399"><ele>296.0</ele><time>2026-04-19T13:41:48.886Z</time></trkpt><trkpt lat="43.8764483" lon="12.5240833"><ele>296.0</ele><time>2026-04-19T13:41:49.887Z</time></trkpt><trkpt lat="43.8764783" lon="12.5242183"><ele>296.0</ele><time>2026-04-19T13:41:50.888Z</time></trkpt><trkpt lat="43.8765133" lon="12.52435"><ele>296.0</ele><time>2026-04-19T13:41:51.888Z</time></trkpt><trkpt lat="43.87651" lon="12.5245283"><ele>295.5</ele><time>2026-04-19T13:41:52.887Z</time></trkpt><trkpt lat="43.8765017" lon="12.5246917"><ele>295.0</ele><time>2026-04-19T13:41:53.888Z</time></trkpt><trkpt lat="43.8764933" lon="12.52485"><ele>294.5</ele><time>2026-04-19T13:41:54.889Z</time></trkpt><trkpt lat="43.8764817" lon="12.5250117"><ele>294.0</ele><time>2026-04-19T13:41:55.889Z</time></trkpt><trkpt lat="43.8764717" lon="12.52516"><ele>294.0</ele><time>2026-04-19T13:41:56.889Z</time></trkpt><trkpt lat="43.8764667" lon="12.5252883"><ele>294.0</ele><time>2026-04-19T13:41:57.888Z</time></trkpt><trkpt lat="43.87647" lon="12.5254017"><ele>294.0</ele><time>2026-04-19T13:41:58.888Z</time></trkpt><trkpt lat="43.8764917" lon="12.5255033"><ele>294.0</ele><time>2026-04-19T13:41:59.891Z</time></trkpt><trkpt lat="43.8765433" lon="12.5256117"><ele>294.0</ele><time>2026-04-19T13:42:00.889Z</time></trkpt><trkpt lat="43.8766167" lon="12.5257233"><ele>293.25</ele><time>2026-04-19T13:42:01.887Z</time></trkpt><trkpt lat="43.876705" lon="12.5258383"><ele>292.5</ele><time>2026-04-19T13:42:02.885Z</time></trkpt><trkpt lat="43.8768017" lon="12.5259633"><ele>291.75</ele><time>2026-04-19T13:42:03.89Z</time></trkpt><trkpt lat="43.8769" lon="12.5260917"><ele>291.0</ele><time>2026-04-19T13:42:04.89Z</time></trkpt><trkpt lat="43.8769967" lon="12.5262133"><ele>288.0</ele><time>2026-04-19T13:42:05.888Z</time></trkpt><trkpt lat="43.8770867" lon="12.5263267"><ele>285.0</ele><time>2026-04-19T13:42:06.89Z</time></trkpt><trkpt lat="43.8771733" lon="12.526435"><ele>282.0</ele><time>2026-04-19T13:42:07.888Z</time></trkpt><trkpt lat="43.8772567" lon="12.5265417"><ele>279.0</ele><time>2026-04-19T13:42:08.889Z</time></trkpt><trkpt lat="43.87734" lon="12.526645"><ele>279.0</ele><time>2026-04-19T13:42:09.888Z</time></trkpt><trkpt lat="43.8774183" lon="12.5267417"><ele>279.0</ele><time>2026-04-19T13:42:10.888Z</time></trkpt><trkpt lat="43.877495" lon="12.5268383"><ele>279.0</ele><time>2026-04-19T13:42:11.89Z</time></trkpt><trkpt lat="43.8775683" lon="12.5269317"><ele>279.0</ele><time>2026-04-19T13:42:12.889Z</time></trkpt><trkpt lat="43.87764" lon="12.5270217"><ele>279.0</ele><time>2026-04-19T13:42:13.89Z</time></trkpt><trkpt lat="43.8777117" lon="12.5271083"><ele>277.4</ele><time>2026-04-19T13:42:14.889Z</time></trkpt><trkpt lat="43.8777883" lon="12.52719"><ele>275.79999999999995</ele><time>2026-04-19T13:42:15.888Z</time></trkpt><trkpt lat="43.8778717" lon="12.5272617"><ele>274.20000000000005</ele><time>2026-04-19T13:42:16.888Z</time></trkpt><trkpt lat="43.877955" lon="12.5273267"><ele>272.6</ele><time>2026-04-19T13:42:17.889Z</time></trkpt><trkpt lat="43.8780383" lon="12.52739"><ele>271.0</ele><time>2026-04-19T13:42:18.888Z</time></trkpt><trkpt lat="43.87812" lon="12.5274533"><ele>271.0</ele><time>2026-04-19T13:42:19.888Z</time></trkpt><trkpt lat="43.8781967" lon="12.52752"><ele>271.0</ele><time>2026-04-19T13:42:20.888Z</time></trkpt><trkpt lat="43.8782783" lon="12.5275883"><ele>271.0</ele><time>2026-04-19T13:42:21.89Z</time></trkpt><trkpt lat="43.8783633" lon="12.5276583"><ele>271.0</ele><time>2026-04-19T13:42:22.886Z</time></trkpt><trkpt lat="43.87845" lon="12.5277333"><ele>271.0</ele><time>2026-04-19T13:42:23.888Z</time></trkpt><trkpt lat="43.878545" lon="12.5278133"><ele>267.75</ele><time>2026-04-19T13:42:24.889Z</time></trkpt><trkpt lat="43.8786433" lon="12.527895"><ele>264.5</ele><time>2026-04-19T13:42:25.889Z</time></trkpt><trkpt lat="43.87874" lon="12.5279767"><ele>261.25</ele><time>2026-04-19T13:42:26.889Z</time></trkpt><trkpt lat="43.878835" lon="12.5280633"><ele>258.0</ele><time>2026-04-19T13:42:27.888Z</time></trkpt><trkpt lat="43.87892" lon="12.5281567"><ele>258.0</ele><time>2026-04-19T13:42:28.891Z</time></trkpt><trkpt lat="43.8789967" lon="12.52826"><ele>258.0</ele><time>2026-04-19T13:42:29.89Z</time></trkpt><trkpt lat="43.8790617" lon="12.5283667"><ele>258.0</ele><time>2026-04-19T13:42:30.888Z</time></trkpt><trkpt lat="43.87912" lon="12.528465"><ele>258.0</ele><time>2026-04-19T13:42:31.887Z</time></trkpt><trkpt lat="43.87918" lon="12.5285483"><ele>258.0</ele><time>2026-04-19T13:42:32.889Z</time></trkpt><trkpt lat="43.87925" lon="12.528615"><ele>256.8</ele><time>2026-04-19T13:42:33.885Z</time></trkpt><trkpt lat="43.879335" lon="12.52866"><ele>255.60000000000002</ele><time>2026-04-19T13:42:34.89Z</time></trkpt><trkpt lat="43.8794233" lon="12.52869"><ele>254.39999999999998</ele><time>2026-04-19T13:42:35.888Z</time></trkpt><trkpt lat="43.8795133" lon="12.5286967"><ele>253.2</ele><time>2026-04-19T13:42:36.886Z</time></trkpt><trkpt lat="43.879605" lon="12.5286817"><ele>252.0</ele><time>2026-04-19T13:42:37.889Z</time></trkpt><trkpt lat="43.879695" lon="12.5286517"><ele>252.0</ele><time>2026-04-19T13:42:38.885Z</time></trkpt><trkpt lat="43.8797683" lon="12.52859"><ele>252.0</ele><time>2026-04-19T13:42:39.889Z</time></trkpt><trkpt lat="43.879835" lon="12.5285117"><ele>252.0</ele><time>2026-04-19T13:42:40.889Z</time></trkpt><trkpt lat="43.8798967" lon="12.5284417"><ele>252.0</ele><time>2026-04-19T13:42:41.889Z</time></trkpt><trkpt lat="43.8799483" lon="12.528385"><ele>252.0</ele><time>2026-04-19T13:42:42.89Z</time></trkpt><trkpt lat="43.88004" lon="12.5283383"><ele>252.0</ele><time>2026-04-19T13:42:44.89Z</time></trkpt><trkpt lat="43.8801017" lon="12.528395"><ele>252.0</ele><time>2026-04-19T13:42:46.889Z</time></trkpt><trkpt lat="43.8801117" lon="12.5285117"><ele>252.0</ele><time>2026-04-19T13:42:48.889Z</time></trkpt><trkpt lat="43.88009" lon="12.5286433"><ele>252.0</ele><time>2026-04-19T13:42:50.886Z</time></trkpt><trkpt lat="43.8800767" lon="12.5287383"><ele>252.0</ele><time>2026-04-19T13:42:51.888Z</time></trkpt><trkpt lat="43.8800717" lon="12.5288267"><ele>252.0</ele><time>2026-04-19T13:42:52.886Z</time></trkpt><trkpt lat="43.8800717" lon="12.5289617"><ele>252.0</ele><time>2026-04-19T13:42:54.886Z</time></trkpt><trkpt lat="43.8801083" lon="12.529075"><ele>249.39999999999998</ele><time>2026-04-19T13:42:56.89Z</time></trkpt><trkpt lat="43.88016" lon="12.5291817"><ele>246.79999999999998</ele><time>2026-04-19T13:42:58.888Z</time></trkpt><trkpt lat="43.88023" lon="12.52929"><ele>244.2</ele><time>2026-04-19T13:43:00.889Z</time></trkpt><trkpt lat="43.88032" lon="12.52936"><ele>241.6</ele><time>2026-04-19T13:43:02.889Z</time></trkpt><trkpt lat="43.8804083" lon="12.52941"><ele>239.0</ele><time>2026-04-19T13:43:04.889Z</time></trkpt><trkpt lat="43.8804867" lon="12.5294583"><ele>239.0</ele><time>2026-04-19T13:43:06.888Z</time></trkpt><trkpt lat="43.8805717" lon="12.5295017"><ele>238.99999999999997</ele><time>2026-04-19T13:43:08.889Z</time></trkpt><trkpt lat="43.8806617" lon="12.5295483"><ele>238.99999999999997</ele><time>2026-04-19T13:43:10.89Z</time></trkpt><trkpt lat="43.880745" lon="12.52962"><ele>239.0</ele><time>2026-04-19T13:43:12.89Z</time></trkpt><trkpt lat="43.88081" lon="12.5297317"><ele>239.0</ele><time>2026-04-19T13:43:14.887Z</time></trkpt><trkpt lat="43.8808817" lon="12.5298583"><ele>237.71428571428575</ele><time>2026-04-19T13:43:16.889Z</time></trkpt><trkpt lat="43.8809283" lon="12.5299183"><ele>236.42857142857144</ele><time>2026-04-19T13:43:17.89Z</time></trkpt><trkpt lat="43.8809833" lon="12.5299717"><ele>235.14285714285714</ele><time>2026-04-19T13:43:18.888Z</time></trkpt><trkpt lat="43.8810433" lon="12.5300133"><ele>233.85714285714286</ele><time>2026-04-19T13:43:19.886Z</time></trkpt><trkpt lat="43.88111" lon="12.5300417"><ele>232.57142857142856</ele><time>2026-04-19T13:43:20.885Z</time></trkpt><trkpt lat="43.88118" lon="12.5300617"><ele>231.28571428571425</ele><time>2026-04-19T13:43:21.886Z</time></trkpt><trkpt lat="43.8812533" lon="12.53008"><ele>229.99999999999997</ele><time>2026-04-19T13:43:22.89Z</time></trkpt><trkpt lat="43.8813283" lon="12.530095"><ele>229.33333333333334</ele><time>2026-04-19T13:43:23.889Z</time></trkpt><trkpt lat="43.8814033" lon="12.5301067"><ele>228.66666666666669</ele><time>2026-04-19T13:43:24.888Z</time></trkpt><trkpt lat="43.881485" lon="12.53011"><ele>228.0</ele><time>2026-04-19T13:43:25.889Z</time></trkpt><trkpt lat="43.8815683" lon="12.53011"><ele>227.33333333333331</ele><time>2026-04-19T13:43:26.89Z</time></trkpt><trkpt lat="43.881655" lon="12.530105"><ele>226.66666666666666</ele><time>2026-04-19T13:43:27.89Z</time></trkpt><trkpt lat="43.881745" lon="12.5301067"><ele>226.0</ele><time>2026-04-19T13:43:28.886Z</time></trkpt><trkpt lat="43.8818383" lon="12.5301117"><ele>224.20000000000002</ele><time>2026-04-19T13:43:29.888Z</time></trkpt><trkpt lat="43.88194" lon="12.5301217"><ele>222.40000000000003</ele><time>2026-04-19T13:43:30.887Z</time></trkpt><trkpt lat="43.882045" lon="12.5301283"><ele>220.6</ele><time>2026-04-19T13:43:31.887Z</time></trkpt><trkpt lat="43.8821467" lon="12.5301367"><ele>218.8</ele><time>2026-04-19T13:43:32.891Z</time></trkpt><trkpt lat="43.8822483" lon="12.5301483"><ele>217.0</ele><time>2026-04-19T13:43:33.888Z</time></trkpt><trkpt lat="43.8823567" lon="12.5301683"><ele>217.0</ele><time>2026-04-19T13:43:34.886Z</time></trkpt><trkpt lat="43.882465" lon="12.5302033"><ele>217.0</ele><time>2026-04-19T13:43:35.885Z</time></trkpt><trkpt lat="43.8825717" lon="12.5302383"><ele>217.0</ele><time>2026-04-19T13:43:36.888Z</time></trkpt><trkpt lat="43.8826783" lon="12.5302767"><ele>217.0</ele><time>2026-04-19T13:43:37.887Z</time></trkpt><trkpt lat="43.8827783" lon="12.530305"><ele>217.0</ele><time>2026-04-19T13:43:38.888Z</time></trkpt><trkpt lat="43.88287" lon="12.53033"><ele>216.16666666666666</ele><time>2026-04-19T13:43:39.888Z</time></trkpt><trkpt lat="43.882955" lon="12.5303567"><ele>215.33333333333331</ele><time>2026-04-19T13:43:40.888Z</time></trkpt><trkpt lat="43.8830283" lon="12.530375"><ele>214.5</ele><time>2026-04-19T13:43:41.889Z</time></trkpt><trkpt lat="43.8831317" lon="12.5304067"><ele>213.66666666666669</ele><time>2026-04-19T13:43:43.886Z</time></trkpt><trkpt lat="43.883195" lon="12.5304317"><ele>212.83333333333334</ele><time>2026-04-19T13:43:45.886Z</time></trkpt><trkpt lat="43.8832717" lon="12.53035"><ele>212.0</ele><time>2026-04-19T13:44:43.887Z</time></trkpt><trkpt lat="43.8833267" lon="12.5302267"><ele>211.8</ele><time>2026-04-19T13:44:45.889Z</time></trkpt><trkpt lat="43.8833817" lon="12.5300933"><ele>211.6</ele><time>2026-04-19T13:44:47.888Z</time></trkpt><trkpt lat="43.88343" lon="12.5299617"><ele>211.4</ele><time>2026-04-19T13:44:49.887Z</time></trkpt><trkpt lat="43.8834783" lon="12.529855"><ele>211.20000000000002</ele><time>2026-04-19T13:44:51.888Z</time></trkpt><trkpt lat="43.883525" lon="12.52977"><ele>211.0</ele><time>2026-04-19T13:44:53.887Z</time></trkpt><trkpt lat="43.8835733" lon="12.52969"><ele>210.71428571428572</ele><time>2026-04-19T13:44:55.887Z</time></trkpt><trkpt lat="43.88362" lon="12.529625"><ele>210.42857142857144</ele><time>2026-04-19T13:44:58.888Z</time></trkpt><trkpt lat="43.8836283" lon="12.5295217"><ele>210.14285714285714</ele><time>2026-04-19T13:45:02.888Z</time></trkpt><trkpt lat="43.88362" lon="12.5294183"><ele>209.85714285714286</ele><time>2026-04-19T13:45:04.885Z</time></trkpt><trkpt lat="43.883625" lon="12.5293067"><ele>209.57142857142856</ele><time>2026-04-19T13:45:06.889Z</time></trkpt><trkpt lat="43.8836383" lon="12.5292133"><ele>209.28571428571428</ele><time>2026-04-19T13:45:08.887Z</time></trkpt><trkpt lat="43.8836617" lon="12.5291217"><ele>209.0</ele><time>2026-04-19T13:45:11.884Z</time></trkpt><trkpt lat="43.8836" lon="12.5290983"><ele>208.79999999999998</ele><time>2026-04-19T13:45:46.888Z</time></trkpt><trkpt lat="43.8835317" lon="12.529085"><ele>208.6</ele><time>2026-04-19T13:45:48.888Z</time></trkpt><trkpt lat="43.883465" lon="12.529015"><ele>208.4</ele><time>2026-04-19T13:45:50.885Z</time></trkpt><trkpt lat="43.88341" lon="12.5288883"><ele>208.2</ele><time>2026-04-19T13:45:52.887Z</time></trkpt><trkpt lat="43.8833633" lon="12.5287317"><ele>208.0</ele><time>2026-04-19T13:45:54.885Z</time></trkpt><trkpt lat="43.88332" lon="12.5286083"><ele>208.8</ele><time>2026-04-19T13:45:56.885Z</time></trkpt><trkpt lat="43.8832933" lon="12.5285283"><ele>209.60000000000002</ele><time>2026-04-19T13:45:58.885Z</time></trkpt><trkpt lat="43.8832417" lon="12.52841"><ele>210.39999999999998</ele><time>2026-04-19T13:46:01.886Z</time></trkpt><trkpt lat="43.8831833" lon="12.52832"><ele>211.2</ele><time>2026-04-19T13:46:03.884Z</time></trkpt><trkpt lat="43.8830683" lon="12.528245"><ele>212.0</ele><time>2026-04-19T13:46:05.884Z</time></trkpt><trkpt lat="43.8829917" lon="12.528205"><ele>212.00000000000003</ele><time>2026-04-19T13:46:06.884Z</time></trkpt><trkpt lat="43.8829183" lon="12.52817"><ele>212.0</ele><time>2026-04-19T13:46:07.887Z</time></trkpt><trkpt lat="43.8828533" lon="12.5281383"><ele>212.0</ele><time>2026-04-19T13:46:08.979Z</time></trkpt><trkpt lat="43.88275" lon="12.5281"><ele>212.0</ele><time>2026-04-19T13:46:10.885Z</time></trkpt><trkpt lat="43.882665" lon="12.52807"><ele>212.00000000000003</ele><time>2026-04-19T13:46:12.886Z</time></trkpt><trkpt lat="43.8825733" lon="12.5280467"><ele>212.0</ele><time>2026-04-19T13:46:14.886Z</time></trkpt><trkpt lat="43.8824583" lon="12.528015"><ele>211.85714285714286</ele><time>2026-04-19T13:46:16.885Z</time></trkpt><trkpt lat="43.88239" lon="12.5279867"><ele>211.7142857142857</ele><time>2026-04-19T13:46:17.884Z</time></trkpt><trkpt lat="43.8823233" lon="12.5279533"><ele>211.57142857142856</ele><time>2026-04-19T13:46:18.886Z</time></trkpt><trkpt lat="43.8822567" lon="12.5279117"><ele>211.42857142857144</ele><time>2026-04-19T13:46:19.887Z</time></trkpt><trkpt lat="43.88219" lon="12.5278633"><ele>211.28571428571428</ele><time>2026-04-19T13:46:20.886Z</time></trkpt><trkpt lat="43.8821283" lon="12.52781"><ele>211.14285714285714</ele><time>2026-04-19T13:46:21.886Z</time></trkpt><trkpt lat="43.882075" lon="12.5277583"><ele>211.0</ele><time>2026-04-19T13:46:22.886Z</time></trkpt><trkpt lat="43.88202" lon="12.5277033"><ele>210.99999999999997</ele><time>2026-04-19T13:46:23.886Z</time></trkpt><trkpt lat="43.8819633" lon="12.527645"><ele>211.0</ele><time>2026-04-19T13:46:24.885Z</time></trkpt><trkpt lat="43.88191" lon="12.5275767"><ele>211.0</ele><time>2026-04-19T13:46:25.888Z</time></trkpt><trkpt lat="43.8818583" lon="12.5274983"><ele>211.0</ele><time>2026-04-19T13:46:26.889Z</time></trkpt><trkpt lat="43.8818017" lon="12.5274217"><ele>210.99999999999997</ele><time>2026-04-19T13:46:27.888Z</time></trkpt><trkpt lat="43.8817483" lon="12.5273467"><ele>211.0</ele><time>2026-04-19T13:46:28.886Z</time></trkpt><trkpt lat="43.8817033" lon="12.5272633"><ele>211.49999999999997</ele><time>2026-04-19T13:46:29.888Z</time></trkpt><trkpt lat="43.8816617" lon="12.5271733"><ele>212.0</ele><time>2026-04-19T13:46:30.889Z</time></trkpt><trkpt lat="43.8816133" lon="12.527075"><ele>212.5</ele><time>2026-04-19T13:46:31.888Z</time></trkpt><trkpt lat="43.8815667" lon="12.5269767"><ele>213.0</ele><time>2026-04-19T13:46:32.889Z</time></trkpt><trkpt lat="43.881515" lon="12.526875"><ele>213.49999999999997</ele><time>2026-04-19T13:46:33.888Z</time></trkpt><trkpt lat="43.8814617" lon="12.5267683"><ele>214.0</ele><time>2026-04-19T13:46:34.888Z</time></trkpt><trkpt lat="43.88142" lon="12.5266583"><ele>214.0</ele><time>2026-04-19T13:46:35.888Z</time></trkpt><trkpt lat="43.88138" lon="12.5265467"><ele>213.99999999999997</ele><time>2026-04-19T13:46:36.889Z</time></trkpt><trkpt lat="43.8813433" lon="12.526435"><ele>213.99999999999997</ele><time>2026-04-19T13:46:37.888Z</time></trkpt><trkpt lat="43.8813083" lon="12.52632"><ele>214.0</ele><time>2026-04-19T13:46:38.889Z</time></trkpt><trkpt lat="43.8812667" lon="12.5261983"><ele>214.0</ele><time>2026-04-19T13:46:39.887Z</time></trkpt><trkpt lat="43.8812333" lon="12.5260783"><ele>213.99999999999997</ele><time>2026-04-19T13:46:40.891Z</time></trkpt><trkpt lat="43.8812033" lon="12.5259617"><ele>214.0</ele><time>2026-04-19T13:46:41.889Z</time></trkpt><trkpt lat="43.881175" lon="12.5258483"><ele>214.0</ele><time>2026-04-19T13:46:42.89Z</time></trkpt><trkpt lat="43.8811483" lon="12.5257417"><ele>214.0</ele><time>2026-04-19T13:46:43.888Z</time></trkpt><trkpt lat="43.8811233" lon="12.5256333"><ele>213.99999999999997</ele><time>2026-04-19T13:46:44.886Z</time></trkpt><trkpt lat="43.8811033" lon="12.5255233"><ele>214.0</ele><time>2026-04-19T13:46:45.891Z</time></trkpt><trkpt lat="43.8810833" lon="12.5254217"><ele>213.83333333333331</ele><time>2026-04-19T13:46:46.889Z</time></trkpt><trkpt lat="43.8810667" lon="12.5253267"><ele>213.66666666666666</ele><time>2026-04-19T13:46:47.888Z</time></trkpt><trkpt lat="43.8810533" lon="12.5252333"><ele>213.5</ele><time>2026-04-19T13:46:48.885Z</time></trkpt><trkpt lat="43.8810533" lon="12.5250667"><ele>213.33333333333331</ele><time>2026-04-19T13:46:50.889Z</time></trkpt><trkpt lat="43.8810517" lon="12.5249767"><ele>213.16666666666666</ele><time>2026-04-19T13:46:51.885Z</time></trkpt><trkpt lat="43.881045" lon="12.524875"><ele>213.0</ele><time>2026-04-19T13:46:52.885Z</time></trkpt><trkpt lat="43.881035" lon="12.524765"><ele>213.0</ele><time>2026-04-19T13:46:53.885Z</time></trkpt><trkpt lat="43.8810233" lon="12.5246383"><ele>213.0</ele><time>2026-04-19T13:46:54.886Z</time></trkpt><trkpt lat="43.8810133" lon="12.5245083"><ele>213.0</ele><time>2026-04-19T13:46:55.889Z</time></trkpt><trkpt lat="43.8810067" lon="12.524385"><ele>213.0</ele><time>2026-04-19T13:46:56.884Z</time></trkpt><trkpt lat="43.8809933" lon="12.5242717"><ele>213.0</ele><time>2026-04-19T13:46:57.888Z</time></trkpt><trkpt lat="43.880985" lon="12.5241767"><ele>213.0</ele><time>2026-04-19T13:46:58.89Z</time></trkpt><trkpt lat="43.8809833" lon="12.5240433"><ele>213.4</ele><time>2026-04-19T13:47:00.887Z</time></trkpt><trkpt lat="43.8810067" lon="12.5238983"><ele>213.8</ele><time>2026-04-19T13:47:02.889Z</time></trkpt><trkpt lat="43.88102" lon="12.5237517"><ele>214.2</ele><time>2026-04-19T13:47:04.888Z</time></trkpt><trkpt lat="43.8810183" lon="12.5236317"><ele>214.6</ele><time>2026-04-19T13:47:06.888Z</time></trkpt><trkpt lat="43.8810067" lon="12.5234817"><ele>215.0</ele><time>2026-04-19T13:47:08.888Z</time></trkpt><trkpt lat="43.88099" lon="12.5233233"><ele>215.0</ele><time>2026-04-19T13:47:10.887Z</time></trkpt><trkpt lat="43.8809867" lon="12.5231517"><ele>215.0</ele><time>2026-04-19T13:47:12.889Z</time></trkpt><trkpt lat="43.8809917" lon="12.5229867"><ele>215.0</ele><time>2026-04-19T13:47:14.889Z</time></trkpt><trkpt lat="43.880975" lon="12.522845"><ele>215.0</ele><time>2026-04-19T13:47:16.887Z</time></trkpt><trkpt lat="43.8809283" lon="12.5227133"><ele>215.66666666666669</ele><time>2026-04-19T13:47:18.885Z</time></trkpt><trkpt lat="43.88089" lon="12.5225933"><ele>216.33333333333334</ele><time>2026-04-19T13:47:20.884Z</time></trkpt><trkpt lat="43.8808383" lon="12.5225017"><ele>217.0</ele><time>2026-04-19T13:47:22.886Z</time></trkpt><trkpt lat="43.8807817" lon="12.5223683"><ele>217.66666666666669</ele><time>2026-04-19T13:47:24.889Z</time></trkpt><trkpt lat="43.8807517" lon="12.522285"><ele>218.33333333333334</ele><time>2026-04-19T13:47:25.885Z</time></trkpt><trkpt lat="43.880725" lon="12.5221867"><ele>219.0</ele><time>2026-04-19T13:47:26.888Z</time></trkpt><trkpt lat="43.88069" lon="12.5220867"><ele>219.0</ele><time>2026-04-19T13:47:27.888Z</time></trkpt><trkpt lat="43.88065" lon="12.52199"><ele>219.0</ele><time>2026-04-19T13:47:28.889Z</time></trkpt><trkpt lat="43.880625" lon="12.5218933"><ele>219.0</ele><time>2026-04-19T13:47:29.888Z</time></trkpt><trkpt lat="43.8806033" lon="12.5217933"><ele>219.0</ele><time>2026-04-19T13:47:30.885Z</time></trkpt><trkpt lat="43.8805783" lon="12.521695"><ele>219.0</ele><time>2026-04-19T13:47:31.886Z</time></trkpt><trkpt lat="43.8805467" lon="12.5215983"><ele>219.0</ele><time>2026-04-19T13:47:32.888Z</time></trkpt><trkpt lat="43.88051" lon="12.5214983"><ele>219.0</ele><time>2026-04-19T13:47:33.885Z</time></trkpt><trkpt lat="43.8804683" lon="12.5213967"><ele>219.0</ele><time>2026-04-19T13:47:34.888Z</time></trkpt><trkpt lat="43.88043" lon="12.5212983"><ele>219.0</ele><time>2026-04-19T13:47:35.885Z</time></trkpt><trkpt lat="43.8803933" lon="12.5211883"><ele>219.0</ele><time>2026-04-19T13:47:36.887Z</time></trkpt><trkpt lat="43.8803667" lon="12.5210667"><ele>219.0</ele><time>2026-04-19T13:47:37.886Z</time></trkpt><trkpt lat="43.88034" lon="12.5209367"><ele>219.0</ele><time>2026-04-19T13:47:38.885Z</time></trkpt><trkpt lat="43.8803067" lon="12.5207983"><ele>219.0</ele><time>2026-04-19T13:47:39.886Z</time></trkpt><trkpt lat="43.8802717" lon="12.52066"><ele>218.99999999999997</ele><time>2026-04-19T13:47:40.886Z</time></trkpt><trkpt lat="43.88024" lon="12.5205367"><ele>218.99999999999997</ele><time>2026-04-19T13:47:41.886Z</time></trkpt><trkpt lat="43.8802183" lon="12.520425"><ele>219.0</ele><time>2026-04-19T13:47:42.886Z</time></trkpt><trkpt lat="43.8802067" lon="12.52031"><ele>219.0</ele><time>2026-04-19T13:47:43.886Z</time></trkpt><trkpt lat="43.8802083" lon="12.5201933"><ele>219.39999999999998</ele><time>2026-04-19T13:47:44.885Z</time></trkpt><trkpt lat="43.880205" lon="12.5200567"><ele>219.79999999999998</ele><time>2026-04-19T13:47:45.887Z</time></trkpt><trkpt lat="43.8802017" lon="12.5199183"><ele>220.20000000000002</ele><time>2026-04-19T13:47:46.885Z</time></trkpt><trkpt lat="43.8801983" lon="12.5197817"><ele>220.60000000000002</ele><time>2026-04-19T13:47:47.886Z</time></trkpt><trkpt lat="43.8801917" lon="12.5196517"><ele>221.0</ele><time>2026-04-19T13:47:48.885Z</time></trkpt><trkpt lat="43.8801917" lon="12.5195217"><ele>221.20000000000002</ele><time>2026-04-19T13:47:49.886Z</time></trkpt><trkpt lat="43.8801883" lon="12.519395"><ele>221.40000000000003</ele><time>2026-04-19T13:47:50.884Z</time></trkpt><trkpt lat="43.88019" lon="12.5192717"><ele>221.6</ele><time>2026-04-19T13:47:51.885Z</time></trkpt><trkpt lat="43.8801917" lon="12.51914"><ele>221.8</ele><time>2026-04-19T13:47:52.885Z</time></trkpt><trkpt lat="43.8801967" lon="12.519005"><ele>222.0</ele><time>2026-04-19T13:47:53.885Z</time></trkpt><trkpt lat="43.880205" lon="12.51887"><ele>222.0</ele><time>2026-04-19T13:47:54.889Z</time></trkpt><trkpt lat="43.88021" lon="12.5187383"><ele>222.0</ele><time>2026-04-19T13:47:55.886Z</time></trkpt><trkpt lat="43.880215" lon="12.5186033"><ele>222.0</ele><time>2026-04-19T13:47:56.889Z</time></trkpt><trkpt lat="43.8802167" lon="12.51847"><ele>222.0</ele><time>2026-04-19T13:47:57.884Z</time></trkpt><trkpt lat="43.8802083" lon="12.5183467"><ele>222.0</ele><time>2026-04-19T13:47:58.889Z</time></trkpt><trkpt lat="43.880205" lon="12.5182267"><ele>222.16666666666666</ele><time>2026-04-19T13:47:59.887Z</time></trkpt><trkpt lat="43.8802017" lon="12.5181033"><ele>222.33333333333331</ele><time>2026-04-19T13:48:00.886Z</time></trkpt><trkpt lat="43.880195" lon="12.517985"><ele>222.5</ele><time>2026-04-19T13:48:01.888Z</time></trkpt><trkpt lat="43.8801867" lon="12.5178717"><ele>222.66666666666666</ele><time>2026-04-19T13:48:02.888Z</time></trkpt><trkpt lat="43.8801817" lon="12.5177517"><ele>222.83333333333331</ele><time>2026-04-19T13:48:03.887Z</time></trkpt><trkpt lat="43.8801767" lon="12.5176267"><ele>223.0</ele><time>2026-04-19T13:48:04.888Z</time></trkpt><trkpt lat="43.880175" lon="12.517505"><ele>223.33333333333331</ele><time>2026-04-19T13:48:05.888Z</time></trkpt><trkpt lat="43.8801717" lon="12.5173917"><ele>223.66666666666666</ele><time>2026-04-19T13:48:06.888Z</time></trkpt><trkpt lat="43.8801667" lon="12.5172783"><ele>224.0</ele><time>2026-04-19T13:48:07.887Z</time></trkpt><trkpt lat="43.8801583" lon="12.517165"><ele>224.33333333333331</ele><time>2026-04-19T13:48:08.888Z</time></trkpt><trkpt lat="43.880145" lon="12.5170617"><ele>224.66666666666666</ele><time>2026-04-19T13:48:09.888Z</time></trkpt><trkpt lat="43.8801267" lon="12.5169617"><ele>225.0</ele><time>2026-04-19T13:48:10.888Z</time></trkpt><trkpt lat="43.8801033" lon="12.51687"><ele>225.33333333333334</ele><time>2026-04-19T13:48:11.888Z</time></trkpt><trkpt lat="43.8800717" lon="12.5167933"><ele>225.66666666666669</ele><time>2026-04-19T13:48:12.888Z</time></trkpt><trkpt lat="43.8800267" lon="12.5167267"><ele>226.0</ele><time>2026-04-19T13:48:13.889Z</time></trkpt><trkpt lat="43.8799667" lon="12.51667"><ele>226.33333333333334</ele><time>2026-04-19T13:48:14.886Z</time></trkpt><trkpt lat="43.8798933" lon="12.51661"><ele>226.66666666666669</ele><time>2026-04-19T13:48:15.888Z</time></trkpt><trkpt lat="43.8798133" lon="12.51656"><ele>227.0</ele><time>2026-04-19T13:48:16.888Z</time></trkpt><trkpt lat="43.8797267" lon="12.5165167"><ele>227.00000000000003</ele><time>2026-04-19T13:48:17.888Z</time></trkpt><trkpt lat="43.8796333" lon="12.5164917"><ele>227.0</ele><time>2026-04-19T13:48:18.889Z</time></trkpt><trkpt lat="43.87954" lon="12.5164667"><ele>227.0</ele><time>2026-04-19T13:48:19.889Z</time></trkpt><trkpt lat="43.8794533" lon="12.516455"><ele>227.0</ele><time>2026-04-19T13:48:20.885Z</time></trkpt><trkpt lat="43.8793733" lon="12.5164367"><ele>227.00000000000003</ele><time>2026-04-19T13:48:21.888Z</time></trkpt><trkpt lat="43.8793017" lon="12.51642"><ele>227.0</ele><time>2026-04-19T13:48:22.888Z</time></trkpt><trkpt lat="43.8792367" lon="12.5163983"><ele>227.2857142857143</ele><time>2026-04-19T13:48:23.888Z</time></trkpt><trkpt lat="43.87918" lon="12.5163583"><ele>227.5714285714286</ele><time>2026-04-19T13:48:24.888Z</time></trkpt><trkpt lat="43.8791233" lon="12.5162983"><ele>227.85714285714286</ele><time>2026-04-19T13:48:25.888Z</time></trkpt><trkpt lat="43.87907" lon="12.5162267"><ele>228.14285714285717</ele><time>2026-04-19T13:48:26.885Z</time></trkpt><trkpt lat="43.8790133" lon="12.51616"><ele>228.42857142857144</ele><time>2026-04-19T13:48:27.889Z</time></trkpt><trkpt lat="43.8789583" lon="12.5160933"><ele>228.71428571428572</ele><time>2026-04-19T13:48:28.886Z</time></trkpt><trkpt lat="43.878905" lon="12.5160183"><ele>229.0</ele><time>2026-04-19T13:48:29.888Z</time></trkpt><trkpt lat="43.8788483" lon="12.51594"><ele>229.49999999999997</ele><time>2026-04-19T13:48:30.888Z</time></trkpt><trkpt lat="43.8787917" lon="12.5158533"><ele>230.0</ele><time>2026-04-19T13:48:31.888Z</time></trkpt><trkpt lat="43.8787383" lon="12.5157683"><ele>230.5</ele><time>2026-04-19T13:48:32.886Z</time></trkpt><trkpt lat="43.8786817" lon="12.5156883"><ele>231.0</ele><time>2026-04-19T13:48:33.886Z</time></trkpt><trkpt lat="43.878625" lon="12.5156183"><ele>231.49999999999997</ele><time>2026-04-19T13:48:34.887Z</time></trkpt><trkpt lat="43.8785617" lon="12.5155567"><ele>232.0</ele><time>2026-04-19T13:48:35.885Z</time></trkpt><trkpt lat="43.8784983" lon="12.515505"><ele>232.00000000000003</ele><time>2026-04-19T13:48:36.889Z</time></trkpt><trkpt lat="43.8784383" lon="12.51545"><ele>232.0</ele><time>2026-04-19T13:48:37.889Z</time></trkpt><trkpt lat="43.878375" lon="12.515405"><ele>232.00000000000003</ele><time>2026-04-19T13:48:38.889Z</time></trkpt><trkpt lat="43.8783117" lon="12.5153567"><ele>232.00000000000003</ele><time>2026-04-19T13:48:39.888Z</time></trkpt><trkpt lat="43.8782483" lon="12.515315"><ele>232.0</ele><time>2026-04-19T13:48:40.888Z</time></trkpt><trkpt lat="43.8781833" lon="12.51528"><ele>232.00000000000003</ele><time>2026-04-19T13:48:41.887Z</time></trkpt><trkpt lat="43.8781217" lon="12.51525"><ele>232.00000000000003</ele><time>2026-04-19T13:48:42.889Z</time></trkpt><trkpt lat="43.87801" lon="12.51522"><ele>232.16666666666666</ele><time>2026-04-19T13:48:44.888Z</time></trkpt><trkpt lat="43.8779333" lon="12.5152017"><ele>232.33333333333331</ele><time>2026-04-19T13:48:46.889Z</time></trkpt><trkpt lat="43.8779067" lon="12.5151133"><ele>232.5</ele><time>2026-04-19T13:48:58.886Z</time></trkpt><trkpt lat="43.877925" lon="12.5150033"><ele>232.66666666666669</ele><time>2026-04-19T13:49:02.885Z</time></trkpt><trkpt lat="43.8779333" lon="12.5148717"><ele>232.83333333333334</ele><time>2026-04-19T13:49:05.886Z</time></trkpt><trkpt lat="43.8779217" lon="12.5147583"><ele>233.0</ele><time>2026-04-19T13:49:07.885Z</time></trkpt><trkpt lat="43.8779367" lon="12.5146117"><ele>232.50000000000003</ele><time>2026-04-19T13:49:09.888Z</time></trkpt><trkpt lat="43.8779633" lon="12.5145083"><ele>232.0</ele><time>2026-04-19T13:49:11.888Z</time></trkpt><trkpt lat="43.877985" lon="12.5143633"><ele>231.5</ele><time>2026-04-19T13:49:22.885Z</time></trkpt><trkpt lat="43.8780183" lon="12.51427"><ele>231.0</ele><time>2026-04-19T13:49:26.888Z</time></trkpt><trkpt lat="43.878045" lon="12.5141767"><ele>230.50000000000003</ele><time>2026-04-19T13:49:29.888Z</time></trkpt><trkpt lat="43.8780767" lon="12.514095"><ele>230.0</ele><time>2026-04-19T13:49:32.887Z</time></trkpt><trkpt lat="43.8781167" lon="12.5139717"><ele>229.99999999999997</ele><time>2026-04-19T13:51:07.889Z</time></trkpt><trkpt lat="43.8781383" lon="12.5138733"><ele>230.0</ele><time>2026-04-19T13:51:12.886Z</time></trkpt><trkpt lat="43.8781633" lon="12.513775"><ele>229.99999999999997</ele><time>2026-04-19T13:51:18.884Z</time></trkpt><trkpt lat="43.8781867" lon="12.5136783"><ele>229.99999999999997</ele><time>2026-04-19T13:51:22.886Z</time></trkpt><trkpt lat="43.8782117" lon="12.513595"><ele>230.0</ele><time>2026-04-19T13:51:25.886Z</time></trkpt><trkpt lat="43.8782467" lon="12.5134817"><ele>229.99999999999997</ele><time>2026-04-19T13:51:28.888Z</time></trkpt><trkpt lat="43.8782717" lon="12.5134"><ele>229.99999999999997</ele><time>2026-04-19T13:51:30.888Z</time></trkpt><trkpt lat="43.8782933" lon="12.5133117"><ele>230.33333333333334</ele><time>2026-04-19T13:51:32.887Z</time></trkpt><trkpt lat="43.8783183" lon="12.513225"><ele>230.66666666666669</ele><time>2026-04-19T13:51:34.888Z</time></trkpt><trkpt lat="43.8783567" lon="12.5131017"><ele>231.0</ele><time>2026-04-19T13:51:37.887Z</time></trkpt><trkpt lat="43.8783867" lon="12.51301"><ele>231.33333333333331</ele><time>2026-04-19T13:51:39.888Z</time></trkpt><trkpt lat="43.878425" lon="12.5129233"><ele>231.66666666666666</ele><time>2026-04-19T13:51:41.887Z</time></trkpt><trkpt lat="43.8784717" lon="12.5128367"><ele>232.0</ele><time>2026-04-19T13:51:43.888Z</time></trkpt><trkpt lat="43.8785167" lon="12.51276"><ele>232.16666666666666</ele><time>2026-04-19T13:51:45.887Z</time></trkpt><trkpt lat="43.8785733" lon="12.5126683"><ele>232.33333333333331</ele><time>2026-04-19T13:51:48.884Z</time></trkpt><trkpt lat="43.8786217" lon="12.512585"><ele>232.5</ele><time>2026-04-19T13:51:50.885Z</time></trkpt><trkpt lat="43.8786733" lon="12.5124967"><ele>232.66666666666669</ele><time>2026-04-19T13:51:52.885Z</time></trkpt><trkpt lat="43.878715" lon="12.51242"><ele>232.83333333333334</ele><time>2026-04-19T13:51:54.886Z</time></trkpt><trkpt lat="43.8787517" lon="12.5123333"><ele>233.0</ele><time>2026-04-19T13:51:56.885Z</time></trkpt><trkpt lat="43.8787833" lon="12.5122333"><ele>233.00000000000003</ele><time>2026-04-19T13:51:58.888Z</time></trkpt><trkpt lat="43.878795" lon="12.5121383"><ele>233.0</ele><time>2026-04-19T13:52:01.888Z</time></trkpt><trkpt lat="43.8788183" lon="12.51202"><ele>233.0</ele><time>2026-04-19T13:52:04.887Z</time></trkpt><trkpt lat="43.878815" lon="12.5119167"><ele>233.0</ele><time>2026-04-19T13:52:12.888Z</time></trkpt><trkpt lat="43.878745" lon="12.5118533"><ele>233.00000000000003</ele><time>2026-04-19T13:52:14.888Z</time></trkpt><trkpt lat="43.87866" lon="12.5117767"><ele>233.0</ele><time>2026-04-19T13:52:16.888Z</time></trkpt><trkpt lat="43.8785617" lon="12.51169"><ele>233.4</ele><time>2026-04-19T13:52:18.885Z</time></trkpt><trkpt lat="43.8784467" lon="12.5116183"><ele>233.8</ele><time>2026-04-19T13:52:20.884Z</time></trkpt><trkpt lat="43.878385" lon="12.51159"><ele>234.2</ele><time>2026-04-19T13:52:21.884Z</time></trkpt><trkpt lat="43.8782783" lon="12.5115683"><ele>234.6</ele><time>2026-04-19T13:52:23.885Z</time></trkpt><trkpt lat="43.8781817" lon="12.5115367"><ele>235.0</ele><time>2026-04-19T13:52:25.886Z</time></trkpt><trkpt lat="43.8780817" lon="12.5114517"><ele>236.0</ele><time>2026-04-19T13:52:27.885Z</time></trkpt><trkpt lat="43.8779817" lon="12.5113517"><ele>237.0</ele><time>2026-04-19T13:52:29.886Z</time></trkpt><trkpt lat="43.877885" lon="12.5112433"><ele>238.0</ele><time>2026-04-19T13:52:31.886Z</time></trkpt><trkpt lat="43.877805" lon="12.5111267"><ele>239.0</ele><time>2026-04-19T13:52:33.887Z</time></trkpt><trkpt lat="43.8777333" lon="12.5110417"><ele>239.0</ele><time>2026-04-19T13:52:35.885Z</time></trkpt><trkpt lat="43.8776467" lon="12.51096"><ele>238.99999999999997</ele><time>2026-04-19T13:52:37.886Z</time></trkpt><trkpt lat="43.877555" lon="12.51086"><ele>238.99999999999997</ele><time>2026-04-19T13:52:39.885Z</time></trkpt><trkpt lat="43.8774767" lon="12.5107567"><ele>239.0</ele><time>2026-04-19T13:52:41.886Z</time></trkpt><trkpt lat="43.8774167" lon="12.5106633"><ele>239.0</ele><time>2026-04-19T13:52:43.893Z</time></trkpt><trkpt lat="43.8773633" lon="12.5105617"><ele>239.39999999999998</ele><time>2026-04-19T13:52:45.888Z</time></trkpt><trkpt lat="43.8773317" lon="12.51047"><ele>239.79999999999998</ele><time>2026-04-19T13:52:47.885Z</time></trkpt><trkpt lat="43.8773033" lon="12.5103717"><ele>240.20000000000002</ele><time>2026-04-19T13:52:50.884Z</time></trkpt><trkpt lat="43.87726" lon="12.5102467"><ele>240.60000000000002</ele><time>2026-04-19T13:52:53.884Z</time></trkpt><trkpt lat="43.8771833" lon="12.5101167"><ele>241.0</ele><time>2026-04-19T13:52:55.884Z</time></trkpt><trkpt lat="43.8771017" lon="12.5099933"><ele>241.0</ele><time>2026-04-19T13:52:57.885Z</time></trkpt><trkpt lat="43.87703" lon="12.5098767"><ele>241.00000000000003</ele><time>2026-04-19T13:52:59.887Z</time></trkpt><trkpt lat="43.87698" lon="12.5097683"><ele>241.00000000000003</ele><time>2026-04-19T13:53:01.885Z</time></trkpt><trkpt lat="43.8769533" lon="12.5096383"><ele>241.0</ele><time>2026-04-19T13:53:03.889Z</time></trkpt><trkpt lat="43.8769483" lon="12.5095133"><ele>241.0</ele><time>2026-04-19T13:53:05.884Z</time></trkpt><trkpt lat="43.8769567" lon="12.5093767"><ele>241.20000000000002</ele><time>2026-04-19T13:53:07.888Z</time></trkpt><trkpt lat="43.876945" lon="12.5092417"><ele>241.40000000000003</ele><time>2026-04-19T13:53:09.888Z</time></trkpt><trkpt lat="43.8769017" lon="12.5091017"><ele>241.6</ele><time>2026-04-19T13:53:11.888Z</time></trkpt><trkpt lat="43.8768383" lon="12.5089467"><ele>241.8</ele><time>2026-04-19T13:53:13.889Z</time></trkpt><trkpt lat="43.8768017" lon="12.5088617"><ele>242.0</ele><time>2026-04-19T13:53:14.887Z</time></trkpt><trkpt lat="43.8767683" lon="12.50878"><ele>242.28571428571428</ele><time>2026-04-19T13:53:15.888Z</time></trkpt><trkpt lat="43.876735" lon="12.5087"><ele>242.57142857142856</ele><time>2026-04-19T13:53:16.885Z</time></trkpt><trkpt lat="43.8766983" lon="12.50861"><ele>242.85714285714283</ele><time>2026-04-19T13:53:17.885Z</time></trkpt><trkpt lat="43.8766683" lon="12.5085233"><ele>243.1428571428571</ele><time>2026-04-19T13:53:18.887Z</time></trkpt><trkpt lat="43.8766433" lon="12.50844"><ele>243.42857142857142</ele><time>2026-04-19T13:53:19.886Z</time></trkpt><trkpt lat="43.87663" lon="12.5083533"><ele>243.71428571428567</ele><time>2026-04-19T13:53:20.889Z</time></trkpt><trkpt lat="43.8766217" lon="12.5082583"><ele>243.99999999999997</ele><time>2026-04-19T13:53:21.885Z</time></trkpt><trkpt lat="43.8766183" lon="12.5081617"><ele>243.99999999999997</ele><time>2026-04-19T13:53:22.887Z</time></trkpt><trkpt lat="43.8766133" lon="12.5080683"><ele>244.0</ele><time>2026-04-19T13:53:23.889Z</time></trkpt><trkpt lat="43.8766017" lon="12.5079633"><ele>243.99999999999997</ele><time>2026-04-19T13:53:24.885Z</time></trkpt><trkpt lat="43.8765867" lon="12.507865"><ele>243.99999999999997</ele><time>2026-04-19T13:53:25.889Z</time></trkpt><trkpt lat="43.8765683" lon="12.5077717"><ele>244.0</ele><time>2026-04-19T13:53:26.889Z</time></trkpt><trkpt lat="43.8765483" lon="12.5076833"><ele>243.99999999999997</ele><time>2026-04-19T13:53:27.887Z</time></trkpt><trkpt lat="43.8765267" lon="12.5075983"><ele>243.99999999999997</ele><time>2026-04-19T13:53:28.888Z</time></trkpt><trkpt lat="43.876485" lon="12.5074333"><ele>243.99999999999997</ele><time>2026-04-19T13:53:30.887Z</time></trkpt><trkpt lat="43.8764633" lon="12.5073417"><ele>244.0</ele><time>2026-04-19T13:53:31.889Z</time></trkpt><trkpt lat="43.8764417" lon="12.5072517"><ele>244.0</ele><time>2026-04-19T13:53:32.888Z</time></trkpt><trkpt lat="43.876415" lon="12.507165"><ele>244.0</ele><time>2026-04-19T13:53:33.889Z</time></trkpt><trkpt lat="43.8763883" lon="12.5070817"><ele>243.99999999999997</ele><time>2026-04-19T13:53:34.887Z</time></trkpt><trkpt lat="43.8763467" lon="12.506955"><ele>244.0</ele><time>2026-04-19T13:53:36.888Z</time></trkpt><trkpt lat="43.8763133" lon="12.5068217"><ele>244.16666666666666</ele><time>2026-04-19T13:53:38.885Z</time></trkpt><trkpt lat="43.8762817" lon="12.5067017"><ele>244.33333333333331</ele><time>2026-04-19T13:53:40.889Z</time></trkpt><trkpt lat="43.8762433" lon="12.5066033"><ele>244.5</ele><time>2026-04-19T13:53:43.887Z</time></trkpt><trkpt lat="43.8761583" lon="12.5065533"><ele>244.66666666666669</ele><time>2026-04-19T13:56:15.889Z</time></trkpt><trkpt lat="43.8762333" lon="12.5066033"><ele>244.83333333333334</ele><time>2026-04-19T13:56:26.889Z</time></trkpt><trkpt lat="43.8762683" lon="12.5067133"><ele>245.0</ele><time>2026-04-19T13:56:29.89Z</time></trkpt><trkpt lat="43.876305" lon="12.5068217"><ele>245.0</ele><time>2026-04-19T13:56:32.888Z</time></trkpt><trkpt lat="43.876335" lon="12.5069317"><ele>245.0</ele><time>2026-04-19T13:56:35.888Z</time></trkpt><trkpt lat="43.8763633" lon="12.507015"><ele>245.0</ele><time>2026-04-19T13:56:37.889Z</time></trkpt><trkpt lat="43.8763983" lon="12.5071233"><ele>245.0</ele><time>2026-04-19T13:56:39.889Z</time></trkpt><trkpt lat="43.8764333" lon="12.5072533"><ele>245.0</ele><time>2026-04-19T13:56:41.889Z</time></trkpt><trkpt lat="43.8764683" lon="12.5074033"><ele>244.75</ele><time>2026-04-19T13:56:43.89Z</time></trkpt><trkpt lat="43.876505" lon="12.507545"><ele>244.5</ele><time>2026-04-19T13:56:45.888Z</time></trkpt><trkpt lat="43.8765417" lon="12.5076883"><ele>244.25</ele><time>2026-04-19T13:56:47.889Z</time></trkpt><trkpt lat="43.87657" lon="12.5078383"><ele>244.0</ele><time>2026-04-19T13:56:49.889Z</time></trkpt><trkpt lat="43.8765917" lon="12.5080083"><ele>244.0</ele><time>2026-04-19T13:56:51.889Z</time></trkpt><trkpt lat="43.8765967" lon="12.5081"><ele>243.99999999999997</ele><time>2026-04-19T13:56:52.89Z</time></trkpt><trkpt lat="43.8766033" lon="12.508265"><ele>243.99999999999997</ele><time>2026-04-19T13:56:54.889Z</time></trkpt><trkpt lat="43.8766267" lon="12.5084233"><ele>244.0</ele><time>2026-04-19T13:56:56.889Z</time></trkpt><trkpt lat="43.8766783" lon="12.5085917"><ele>244.0</ele><time>2026-04-19T13:56:58.887Z</time></trkpt><trkpt lat="43.8767167" lon="12.508685"><ele>244.33333333333331</ele><time>2026-04-19T13:56:59.886Z</time></trkpt><trkpt lat="43.876755" lon="12.5087783"><ele>244.66666666666666</ele><time>2026-04-19T13:57:00.886Z</time></trkpt><trkpt lat="43.8767917" lon="12.5088667"><ele>245.0</ele><time>2026-04-19T13:57:01.887Z</time></trkpt><trkpt lat="43.8768267" lon="12.508955"><ele>245.33333333333331</ele><time>2026-04-19T13:57:02.886Z</time></trkpt><trkpt lat="43.8768633" lon="12.5090367"><ele>245.66666666666666</ele><time>2026-04-19T13:57:03.885Z</time></trkpt><trkpt lat="43.8768933" lon="12.5091167"><ele>246.0</ele><time>2026-04-19T13:57:04.886Z</time></trkpt><trkpt lat="43.8769367" lon="12.5092667"><ele>245.33333333333334</ele><time>2026-04-19T13:57:06.886Z</time></trkpt><trkpt lat="43.8769517" lon="12.5093983"><ele>244.66666666666669</ele><time>2026-04-19T13:57:08.889Z</time></trkpt><trkpt lat="43.8769433" lon="12.5095383"><ele>244.0</ele><time>2026-04-19T13:57:10.887Z</time></trkpt><trkpt lat="43.87694" lon="12.509645"><ele>243.33333333333334</ele><time>2026-04-19T13:57:12.887Z</time></trkpt><trkpt lat="43.8769517" lon="12.5097333"><ele>242.66666666666669</ele><time>2026-04-19T13:57:14.888Z</time></trkpt><trkpt lat="43.8769933" lon="12.5098417"><ele>242.0</ele><time>2026-04-19T13:57:16.888Z</time></trkpt><trkpt lat="43.8770683" lon="12.5099667"><ele>241.85714285714283</ele><time>2026-04-19T13:57:18.888Z</time></trkpt><trkpt lat="43.8771167" lon="12.5100383"><ele>241.7142857142857</ele><time>2026-04-19T13:57:19.888Z</time></trkpt><trkpt lat="43.877165" lon="12.51011"><ele>241.57142857142856</ele><time>2026-04-19T13:57:20.887Z</time></trkpt><trkpt lat="43.8772133" lon="12.5101817"><ele>241.42857142857144</ele><time>2026-04-19T13:57:21.887Z</time></trkpt><trkpt lat="43.8772567" lon="12.5102567"><ele>241.2857142857143</ele><time>2026-04-19T13:57:22.887Z</time></trkpt><trkpt lat="43.8772933" lon="12.5103417"><ele>241.14285714285717</ele><time>2026-04-19T13:57:23.888Z</time></trkpt><trkpt lat="43.8773233" lon="12.5104317"><ele>241.0</ele><time>2026-04-19T13:57:24.888Z</time></trkpt><trkpt lat="43.8773483" lon="12.510515"><ele>240.66666666666666</ele><time>2026-04-19T13:57:25.887Z</time></trkpt><trkpt lat="43.877395" lon="12.51063"><ele>240.33333333333331</ele><time>2026-04-19T13:57:27.888Z</time></trkpt><trkpt lat="43.8774683" lon="12.5107417"><ele>240.0</ele><time>2026-04-19T13:57:29.888Z</time></trkpt><trkpt lat="43.87752" lon="12.5108017"><ele>239.66666666666669</ele><time>2026-04-19T13:57:30.886Z</time></trkpt><trkpt lat="43.8775783" lon="12.51087"><ele>239.33333333333334</ele><time>2026-04-19T13:57:31.887Z</time></trkpt><trkpt lat="43.8776383" lon="12.5109283"><ele>239.0</ele><time>2026-04-19T13:57:32.888Z</time></trkpt><trkpt lat="43.877705" lon="12.51099"><ele>239.00000000000003</ele><time>2026-04-19T13:57:33.888Z</time></trkpt><trkpt lat="43.8777617" lon="12.5110517"><ele>239.0</ele><time>2026-04-19T13:57:34.887Z</time></trkpt><trkpt lat="43.8778133" lon="12.51112"><ele>239.00000000000003</ele><time>2026-04-19T13:57:35.887Z</time></trkpt><trkpt lat="43.87787" lon="12.5111983"><ele>239.00000000000003</ele><time>2026-04-19T13:57:36.887Z</time></trkpt><trkpt lat="43.8779283" lon="12.5112667"><ele>239.0</ele><time>2026-04-19T13:57:37.885Z</time></trkpt><trkpt lat="43.8779833" lon="12.5113267"><ele>239.00000000000003</ele><time>2026-04-19T13:57:38.885Z</time></trkpt><trkpt lat="43.878035" lon="12.51138"><ele>239.00000000000003</ele><time>2026-04-19T13:57:39.885Z</time></trkpt><trkpt lat="43.87814" lon="12.5114783"><ele>239.16666666666669</ele><time>2026-04-19T13:57:41.887Z</time></trkpt><trkpt lat="43.87825" lon="12.51155"><ele>239.33333333333334</ele><time>2026-04-19T13:57:43.887Z</time></trkpt><trkpt lat="43.878315" lon="12.5115817"><ele>239.5</ele><time>2026-04-19T13:57:44.888Z</time></trkpt><trkpt lat="43.8783833" lon="12.51161"><ele>239.66666666666669</ele><time>2026-04-19T13:57:45.884Z</time></trkpt><trkpt lat="43.8784533" lon="12.5116317"><ele>239.83333333333334</ele><time>2026-04-19T13:57:46.886Z</time></trkpt><trkpt lat="43.87852" lon="12.5116533"><ele>240.0</ele><time>2026-04-19T13:57:47.884Z</time></trkpt><trkpt lat="43.8785883" lon="12.51169"><ele>239.16666666666666</ele><time>2026-04-19T13:57:48.886Z</time></trkpt><trkpt lat="43.8786483" lon="12.5117333"><ele>238.33333333333331</ele><time>2026-04-19T13:57:49.887Z</time></trkpt><trkpt lat="43.8787017" lon="12.5117817"><ele>237.5</ele><time>2026-04-19T13:57:50.885Z</time></trkpt><trkpt lat="43.878795" lon="12.5118633"><ele>236.66666666666666</ele><time>2026-04-19T13:57:52.886Z</time></trkpt><trkpt lat="43.8788767" lon="12.51193"><ele>235.83333333333331</ele><time>2026-04-19T13:57:54.887Z</time></trkpt><trkpt lat="43.8789617" lon="12.5119517"><ele>235.0</ele><time>2026-04-19T13:57:56.888Z</time></trkpt><trkpt lat="43.8790583" lon="12.5119717"><ele>235.0</ele><time>2026-04-19T13:57:58.886Z</time></trkpt><trkpt lat="43.8791483" lon="12.51198"><ele>235.0</ele><time>2026-04-19T13:58:00.885Z</time></trkpt><trkpt lat="43.879255" lon="12.5119867"><ele>235.0</ele><time>2026-04-19T13:58:02.888Z</time></trkpt><trkpt lat="43.8793717" lon="12.511975"><ele>235.0</ele><time>2026-04-19T13:58:04.886Z</time></trkpt><trkpt lat="43.8794883" lon="12.5119533"><ele>235.0</ele><time>2026-04-19T13:58:06.889Z</time></trkpt><trkpt lat="43.87959" lon="12.51194"><ele>234.83333333333331</ele><time>2026-04-19T13:58:08.885Z</time></trkpt><trkpt lat="43.87967" lon="12.5119233"><ele>234.66666666666666</ele><time>2026-04-19T13:58:11.886Z</time></trkpt><trkpt lat="43.8797433" lon="12.5118833"><ele>234.5</ele><time>2026-04-19T13:59:07.889Z</time></trkpt><trkpt lat="43.87982" lon="12.5118633"><ele>234.33333333333331</ele><time>2026-04-19T13:59:10.888Z</time></trkpt><trkpt lat="43.8798983" lon="12.5118683"><ele>234.16666666666666</ele><time>2026-04-19T13:59:20.886Z</time></trkpt><trkpt lat="43.8799833" lon="12.5118383"><ele>234.0</ele><time>2026-04-19T13:59:23.888Z</time></trkpt><trkpt lat="43.880045" lon="12.51181"><ele>234.57142857142858</ele><time>2026-04-19T13:59:25.885Z</time></trkpt><trkpt lat="43.8801167" lon="12.511805"><ele>235.14285714285717</ele><time>2026-04-19T13:59:27.888Z</time></trkpt><trkpt lat="43.8801883" lon="12.5117567"><ele>235.71428571428572</ele><time>2026-04-19T13:59:40.888Z</time></trkpt><trkpt lat="43.8801883" lon="12.5116683"><ele>236.28571428571428</ele><time>2026-04-19T13:59:42.885Z</time></trkpt><trkpt lat="43.88018" lon="12.51157"><ele>236.85714285714286</ele><time>2026-04-19T13:59:43.888Z</time></trkpt><trkpt lat="43.8801583" lon="12.5114783"><ele>237.42857142857144</ele><time>2026-04-19T13:59:44.888Z</time></trkpt><trkpt lat="43.8801367" lon="12.5113733"><ele>238.0</ele><time>2026-04-19T13:59:45.886Z</time></trkpt><trkpt lat="43.8801117" lon="12.5112733"><ele>237.66666666666666</ele><time>2026-04-19T13:59:46.886Z</time></trkpt><trkpt lat="43.8800867" lon="12.5111767"><ele>237.33333333333331</ele><time>2026-04-19T13:59:47.888Z</time></trkpt><trkpt lat="43.8800683" lon="12.5110883"><ele>237.0</ele><time>2026-04-19T13:59:48.886Z</time></trkpt><trkpt lat="43.8800483" lon="12.5109383"><ele>236.66666666666669</ele><time>2026-04-19T13:59:50.886Z</time></trkpt><trkpt lat="43.8800717" lon="12.5107867"><ele>236.33333333333334</ele><time>2026-04-19T13:59:52.885Z</time></trkpt><trkpt lat="43.880095" lon="12.5106967"><ele>236.0</ele><time>2026-04-19T13:59:53.886Z</time></trkpt><trkpt lat="43.8801283" lon="12.510545"><ele>236.20000000000002</ele><time>2026-04-19T13:59:55.889Z</time></trkpt><trkpt lat="43.88014" lon="12.510425"><ele>236.40000000000003</ele><time>2026-04-19T13:59:57.886Z</time></trkpt><trkpt lat="43.8801283" lon="12.5102567"><ele>236.6</ele><time>2026-04-19T13:59:59.886Z</time></trkpt><trkpt lat="43.8801167" lon="12.5101483"><ele>236.8</ele><time>2026-04-19T14:00:00.886Z</time></trkpt><trkpt lat="43.8801" lon="12.5100317"><ele>237.0</ele><time>2026-04-19T14:00:01.886Z</time></trkpt><trkpt lat="43.880085" lon="12.50992"><ele>237.0</ele><time>2026-04-19T14:00:02.886Z</time></trkpt><trkpt lat="43.8800733" lon="12.5098167"><ele>237.0</ele><time>2026-04-19T14:00:03.885Z</time></trkpt><trkpt lat="43.8800667" lon="12.5097217"><ele>237.0</ele><time>2026-04-19T14:00:04.885Z</time></trkpt><trkpt lat="43.8800367" lon="12.5095717"><ele>237.0</ele><time>2026-04-19T14:00:06.886Z</time></trkpt><trkpt lat="43.880005" lon="12.5094867"><ele>237.0</ele><time>2026-04-19T14:00:08.885Z</time></trkpt><trkpt lat="43.8799467" lon="12.5093967"><ele>237.0</ele><time>2026-04-19T14:00:11.887Z</time></trkpt><trkpt lat="43.8798867" lon="12.50927"><ele>238.0</ele><time>2026-04-19T14:00:13.886Z</time></trkpt><trkpt lat="43.8798517" lon="12.5091867"><ele>239.0</ele><time>2026-04-19T14:00:14.885Z</time></trkpt><trkpt lat="43.87982" lon="12.5091017"><ele>240.0</ele><time>2026-04-19T14:00:15.886Z</time></trkpt><trkpt lat="43.8797883" lon="12.5090217"><ele>241.0</ele><time>2026-04-19T14:00:16.886Z</time></trkpt><trkpt lat="43.8797317" lon="12.5088833"><ele>242.0</ele><time>2026-04-19T14:00:18.885Z</time></trkpt><trkpt lat="43.8797" lon="12.5087883"><ele>243.0</ele><time>2026-04-19T14:00:20.885Z</time></trkpt><trkpt lat="43.879735" lon="12.5086667"><ele>243.60000000000002</ele><time>2026-04-19T14:00:23.888Z</time></trkpt><trkpt lat="43.8797783" lon="12.5085633"><ele>244.20000000000002</ele><time>2026-04-19T14:00:25.889Z</time></trkpt><trkpt lat="43.8798167" lon="12.5084733"><ele>244.8</ele><time>2026-04-19T14:00:27.885Z</time></trkpt><trkpt lat="43.8799" lon="12.5083933"><ele>245.4</ele><time>2026-04-19T14:00:29.885Z</time></trkpt><trkpt lat="43.8799867" lon="12.5083533"><ele>246.0</ele><time>2026-04-19T14:00:31.887Z</time></trkpt><trkpt lat="43.8800883" lon="12.508345"><ele>246.0</ele><time>2026-04-19T14:00:33.885Z</time></trkpt><trkpt lat="43.8801683" lon="12.508325"><ele>246.0</ele><time>2026-04-19T14:00:48.888Z</time></trkpt><trkpt lat="43.8801533" lon="12.5082283"><ele>246.0</ele><time>2026-04-19T14:00:50.889Z</time></trkpt><trkpt lat="43.8801233" lon="12.5081467"><ele>246.0</ele><time>2026-04-19T14:00:51.889Z</time></trkpt><trkpt lat="43.8800767" lon="12.50804"><ele>246.0</ele><time>2026-04-19T14:00:52.887Z</time></trkpt><trkpt lat="43.8800217" lon="12.5079067"><ele>246.0</ele><time>2026-04-19T14:00:53.889Z</time></trkpt><trkpt lat="43.87996" lon="12.507755"><ele>247.0</ele><time>2026-04-19T14:00:54.885Z</time></trkpt><trkpt lat="43.879895" lon="12.507595"><ele>248.0</ele><time>2026-04-19T14:00:55.888Z</time></trkpt><trkpt lat="43.8798283" lon="12.50743"><ele>249.0</ele><time>2026-04-19T14:00:56.888Z</time></trkpt><trkpt lat="43.8797683" lon="12.5072683"><ele>250.0</ele><time>2026-04-19T14:00:57.885Z</time></trkpt><trkpt lat="43.8797133" lon="12.5071083"><ele>251.75</ele><time>2026-04-19T14:00:58.885Z</time></trkpt><trkpt lat="43.879665" lon="12.5069533"><ele>253.5</ele><time>2026-04-19T14:00:59.886Z</time></trkpt><trkpt lat="43.8796217" lon="12.5067983"><ele>255.25</ele><time>2026-04-19T14:01:00.885Z</time></trkpt><trkpt lat="43.8795833" lon="12.5066417"><ele>257.0</ele><time>2026-04-19T14:01:01.886Z</time></trkpt><trkpt lat="43.87955" lon="12.5064817"><ele>257.0</ele><time>2026-04-19T14:01:02.886Z</time></trkpt><trkpt lat="43.8795183" lon="12.5063317"><ele>257.0</ele><time>2026-04-19T14:01:03.885Z</time></trkpt><trkpt lat="43.8794933" lon="12.5061967"><ele>257.0</ele><time>2026-04-19T14:01:04.885Z</time></trkpt><trkpt lat="43.8794633" lon="12.5060783"><ele>257.0</ele><time>2026-04-19T14:01:05.886Z</time></trkpt><trkpt lat="43.87944" lon="12.5059767"><ele>257.0</ele><time>2026-04-19T14:01:06.885Z</time></trkpt><trkpt lat="43.8794317" lon="12.5058483"><ele>258.2</ele><time>2026-04-19T14:01:08.889Z</time></trkpt><trkpt lat="43.87949" lon="12.505815"><ele>259.4</ele><time>2026-04-19T14:01:10.888Z</time></trkpt><trkpt lat="43.8796217" lon="12.505815"><ele>260.6</ele><time>2026-04-19T14:01:12.888Z</time></trkpt><trkpt lat="43.8797083" lon="12.5057967"><ele>261.8</ele><time>2026-04-19T14:01:13.889Z</time></trkpt><trkpt lat="43.8798017" lon="12.5057617"><ele>263.0</ele><time>2026-04-19T14:01:14.888Z</time></trkpt><trkpt lat="43.8798967" lon="12.5057067"><ele>263.0</ele><time>2026-04-19T14:01:15.888Z</time></trkpt><trkpt lat="43.88" lon="12.5056333"><ele>263.0</ele><time>2026-04-19T14:01:16.887Z</time></trkpt><trkpt lat="43.8801133" lon="12.5055517"><ele>263.0</ele><time>2026-04-19T14:01:17.886Z</time></trkpt><trkpt lat="43.8802283" lon="12.5054683"><ele>263.0</ele><time>2026-04-19T14:01:18.886Z</time></trkpt><trkpt lat="43.8803417" lon="12.5053867"><ele>267.0</ele><time>2026-04-19T14:01:19.887Z</time></trkpt><trkpt lat="43.8804517" lon="12.5053067"><ele>271.0</ele><time>2026-04-19T14:01:20.887Z</time></trkpt><trkpt lat="43.8805617" lon="12.5052217"><ele>275.0</ele><time>2026-04-19T14:01:21.885Z</time></trkpt><trkpt lat="43.8806683" lon="12.505145"><ele>279.0</ele><time>2026-04-19T14:01:22.888Z</time></trkpt><trkpt lat="43.88077" lon="12.5050733"><ele>279.0</ele><time>2026-04-19T14:01:23.889Z</time></trkpt><trkpt lat="43.88086" lon="12.5050117"><ele>279.0</ele><time>2026-04-19T14:01:24.889Z</time></trkpt><trkpt lat="43.8809417" lon="12.5049683"><ele>279.0</ele><time>2026-04-19T14:01:25.889Z</time></trkpt><trkpt lat="43.881015" lon="12.5049567"><ele>279.0</ele><time>2026-04-19T14:01:26.889Z</time></trkpt><trkpt lat="43.8810883" lon="12.5049817"><ele>279.0</ele><time>2026-04-19T14:01:27.885Z</time></trkpt><trkpt lat="43.8811733" lon="12.5050317"><ele>279.0</ele><time>2026-04-19T14:01:28.886Z</time></trkpt><trkpt lat="43.8812767" lon="12.5050767"><ele>282.25</ele><time>2026-04-19T14:01:29.884Z</time></trkpt><trkpt lat="43.881385" lon="12.5051333"><ele>285.5</ele><time>2026-04-19T14:01:30.886Z</time></trkpt><trkpt lat="43.8815017" lon="12.5051883"><ele>288.75</ele><time>2026-04-19T14:01:31.887Z</time></trkpt><trkpt lat="43.8816133" lon="12.5052417"><ele>292.0</ele><time>2026-04-19T14:01:32.885Z</time></trkpt><trkpt lat="43.881725" lon="12.50531"><ele>291.8</ele><time>2026-04-19T14:01:33.886Z</time></trkpt><trkpt lat="43.8818167" lon="12.5053983"><ele>291.6</ele><time>2026-04-19T14:01:34.885Z</time></trkpt><trkpt lat="43.881895" lon="12.5054867"><ele>291.40000000000003</ele><time>2026-04-19T14:01:35.886Z</time></trkpt><trkpt lat="43.881965" lon="12.5055533"><ele>291.2</ele><time>2026-04-19T14:01:36.885Z</time></trkpt><trkpt lat="43.8820367" lon="12.505595"><ele>291.0</ele><time>2026-04-19T14:01:37.885Z</time></trkpt><trkpt lat="43.8821117" lon="12.5056117"><ele>291.0</ele><time>2026-04-19T14:01:38.885Z</time></trkpt><trkpt lat="43.8821833" lon="12.5055767"><ele>291.0</ele><time>2026-04-19T14:01:39.885Z</time></trkpt><trkpt lat="43.8822517" lon="12.5055067"><ele>291.0</ele><time>2026-04-19T14:01:40.889Z</time></trkpt><trkpt lat="43.882325" lon="12.5054183"><ele>291.0</ele><time>2026-04-19T14:01:41.888Z</time></trkpt><trkpt lat="43.8824033" lon="12.50534"><ele>291.0</ele><time>2026-04-19T14:01:42.886Z</time></trkpt><trkpt lat="43.8824867" lon="12.5052883"><ele>291.0</ele><time>2026-04-19T14:01:43.886Z</time></trkpt><trkpt lat="43.8825817" lon="12.50525"><ele>294.8</ele><time>2026-04-19T14:01:44.886Z</time></trkpt><trkpt lat="43.8826817" lon="12.50522"><ele>298.6</ele><time>2026-04-19T14:01:45.888Z</time></trkpt><trkpt lat="43.8827783" lon="12.505185"><ele>302.4</ele><time>2026-04-19T14:01:46.888Z</time></trkpt><trkpt lat="43.8828717" lon="12.5051367"><ele>306.2</ele><time>2026-04-19T14:01:47.888Z</time></trkpt><trkpt lat="43.8829533" lon="12.505075"><ele>310.0</ele><time>2026-04-19T14:01:48.889Z</time></trkpt><trkpt lat="43.8830167" lon="12.5049933"><ele>310.0</ele><time>2026-04-19T14:01:49.888Z</time></trkpt><trkpt lat="43.8830683" lon="12.5048933"><ele>310.0</ele><time>2026-04-19T14:01:50.888Z</time></trkpt><trkpt lat="43.8831067" lon="12.5047783"><ele>310.0</ele><time>2026-04-19T14:01:51.889Z</time></trkpt><trkpt lat="43.8831233" lon="12.5046617"><ele>310.0</ele><time>2026-04-19T14:01:52.885Z</time></trkpt><trkpt lat="43.8831167" lon="12.5045417"><ele>310.0</ele><time>2026-04-19T14:01:53.889Z</time></trkpt><trkpt lat="43.8831033" lon="12.5044183"><ele>310.0</ele><time>2026-04-19T14:01:54.889Z</time></trkpt><trkpt lat="43.8830933" lon="12.5043117"><ele>312.8333333333333</ele><time>2026-04-19T14:01:55.889Z</time></trkpt><trkpt lat="43.8830967" lon="12.5042167"><ele>315.66666666666663</ele><time>2026-04-19T14:01:56.888Z</time></trkpt><trkpt lat="43.8831183" lon="12.50413"><ele>318.5</ele><time>2026-04-19T14:01:57.886Z</time></trkpt><trkpt lat="43.883155" lon="12.504035"><ele>321.3333333333333</ele><time>2026-04-19T14:01:58.886Z</time></trkpt><trkpt lat="43.8831983" lon="12.5039383"><ele>324.1666666666667</ele><time>2026-04-19T14:01:59.887Z</time></trkpt><trkpt lat="43.883245" lon="12.5038467"><ele>327.0</ele><time>2026-04-19T14:02:00.888Z</time></trkpt><trkpt lat="43.883295" lon="12.5037683"><ele>327.42857142857144</ele><time>2026-04-19T14:02:01.886Z</time></trkpt><trkpt lat="43.883345" lon="12.5037017"><ele>327.8571428571429</ele><time>2026-04-19T14:02:02.888Z</time></trkpt><trkpt lat="43.8833967" lon="12.50365"><ele>328.28571428571433</ele><time>2026-04-19T14:02:03.887Z</time></trkpt><trkpt lat="43.8834467" lon="12.5035933"><ele>328.7142857142857</ele><time>2026-04-19T14:02:04.887Z</time></trkpt><trkpt lat="43.883505" lon="12.5035317"><ele>329.14285714285717</ele><time>2026-04-19T14:02:05.887Z</time></trkpt><trkpt lat="43.88357" lon="12.5034683"><ele>329.5714285714286</ele><time>2026-04-19T14:02:06.887Z</time></trkpt><trkpt lat="43.88364" lon="12.503405"><ele>330.0</ele><time>2026-04-19T14:02:07.886Z</time></trkpt><trkpt lat="43.8837133" lon="12.50335"><ele>331.6</ele><time>2026-04-19T14:02:08.886Z</time></trkpt><trkpt lat="43.8837783" lon="12.5033083"><ele>333.2</ele><time>2026-04-19T14:02:09.886Z</time></trkpt><trkpt lat="43.8838867" lon="12.5032883"><ele>334.79999999999995</ele><time>2026-04-19T14:02:11.891Z</time></trkpt><trkpt lat="43.883995" lon="12.5033483"><ele>336.4</ele><time>2026-04-19T14:02:13.889Z</time></trkpt><trkpt lat="43.8840983" lon="12.5034283"><ele>338.0</ele><time>2026-04-19T14:02:15.888Z</time></trkpt><trkpt lat="43.8841583" lon="12.5034767"><ele>338.0</ele><time>2026-04-19T14:02:16.888Z</time></trkpt><trkpt lat="43.88422" lon="12.503525"><ele>338.0</ele><time>2026-04-19T14:02:17.889Z</time></trkpt><trkpt lat="43.884285" lon="12.50356"><ele>338.0</ele><time>2026-04-19T14:02:18.889Z</time></trkpt><trkpt lat="43.8843833" lon="12.5036017"><ele>338.0</ele><time>2026-04-19T14:02:20.891Z</time></trkpt><trkpt lat="43.884455" lon="12.5036233"><ele>338.0</ele><time>2026-04-19T14:02:23.888Z</time></trkpt><trkpt lat="43.8845433" lon="12.5036133"><ele>338.0</ele><time>2026-04-19T14:02:26.889Z</time></trkpt><trkpt lat="43.8846233" lon="12.5035633"><ele>339.4</ele><time>2026-04-19T14:02:28.886Z</time></trkpt><trkpt lat="43.8846867" lon="12.5035083"><ele>340.79999999999995</ele><time>2026-04-19T14:02:30.885Z</time></trkpt><trkpt lat="43.8847217" lon="12.5034067"><ele>342.2</ele><time>2026-04-19T14:02:32.886Z</time></trkpt><trkpt lat="43.8847533" lon="12.50328"><ele>343.6</ele><time>2026-04-19T14:02:34.887Z</time></trkpt><trkpt lat="43.8848033" lon="12.5031583"><ele>345.0</ele><time>2026-04-19T14:02:36.886Z</time></trkpt><trkpt lat="43.884895" lon="12.5030783"><ele>345.0</ele><time>2026-04-19T14:02:38.887Z</time></trkpt><trkpt lat="43.8850067" lon="12.503005"><ele>345.0</ele><time>2026-04-19T14:02:40.889Z</time></trkpt><trkpt lat="43.885065" lon="12.502965"><ele>345.0</ele><time>2026-04-19T14:02:41.89Z</time></trkpt><trkpt lat="43.8851267" lon="12.5029183"><ele>345.0</ele><time>2026-04-19T14:02:42.887Z</time></trkpt><trkpt lat="43.8851833" lon="12.5028733"><ele>345.0</ele><time>2026-04-19T14:02:43.886Z</time></trkpt><trkpt lat="43.8852733" lon="12.50277"><ele>345.0</ele><time>2026-04-19T14:02:45.886Z</time></trkpt><trkpt lat="43.8853717" lon="12.5026583"><ele>345.5</ele><time>2026-04-19T14:02:47.887Z</time></trkpt><trkpt lat="43.8854617" lon="12.5025617"><ele>346.0</ele><time>2026-04-19T14:02:49.889Z</time></trkpt><trkpt lat="43.8854033" lon="12.5026367"><ele>346.5</ele><time>2026-04-19T14:04:15.887Z</time></trkpt><trkpt lat="43.8853467" lon="12.5026783"><ele>347.0</ele><time>2026-04-19T14:04:17.885Z</time></trkpt><trkpt lat="43.8852933" lon="12.5027617"><ele>347.5</ele><time>2026-04-19T14:04:20.886Z</time></trkpt><trkpt lat="43.8852517" lon="12.50284"><ele>348.0</ele><time>2026-04-19T14:04:22.885Z</time></trkpt><trkpt lat="43.885185" lon="12.502915"><ele>348.0</ele><time>2026-04-19T14:04:25.885Z</time></trkpt><trkpt lat="43.8850967" lon="12.5029833"><ele>348.0</ele><time>2026-04-19T14:04:28.889Z</time></trkpt><trkpt lat="43.8850083" lon="12.503015"><ele>348.0</ele><time>2026-04-19T14:04:30.885Z</time></trkpt><trkpt lat="43.8849417" lon="12.5030433"><ele>348.0</ele><time>2026-04-19T14:04:32.884Z</time></trkpt><trkpt lat="43.8848733" lon="12.503135"><ele>348.0</ele><time>2026-04-19T14:04:41.887Z</time></trkpt><trkpt lat="43.8848183" lon="12.50323"><ele>348.0</ele><time>2026-04-19T14:04:43.889Z</time></trkpt><trkpt lat="43.8847733" lon="12.5033333"><ele>347.5</ele><time>2026-04-19T14:04:45.885Z</time></trkpt><trkpt lat="43.88474" lon="12.5034533"><ele>347.0</ele><time>2026-04-19T14:04:47.884Z</time></trkpt><trkpt lat="43.88469" lon="12.50353"><ele>346.5</ele><time>2026-04-19T14:04:49.886Z</time></trkpt><trkpt lat="43.8846183" lon="12.5035633"><ele>346.0</ele><time>2026-04-19T14:04:51.885Z</time></trkpt><trkpt lat="43.884555" lon="12.5035967"><ele>345.5</ele><time>2026-04-19T14:04:53.885Z</time></trkpt><trkpt lat="43.8844683" lon="12.5036233"><ele>345.0</ele><time>2026-04-19T14:04:56.885Z</time></trkpt><trkpt lat="43.884375" lon="12.5036517"><ele>345.0</ele><time>2026-04-19T14:04:59.888Z</time></trkpt><trkpt lat="43.8842883" lon="12.5036367"><ele>345.0</ele><time>2026-04-19T14:05:01.888Z</time></trkpt><trkpt lat="43.8841933" lon="12.503575"><ele>345.0</ele><time>2026-04-19T14:05:03.888Z</time></trkpt><trkpt lat="43.8841083" lon="12.50349"><ele>345.0</ele><time>2026-04-19T14:05:05.888Z</time></trkpt><trkpt lat="43.884015" lon="12.50341"><ele>345.0</ele><time>2026-04-19T14:05:07.885Z</time></trkpt><trkpt lat="43.883905" lon="12.5033367"><ele>343.8333333333333</ele><time>2026-04-19T14:05:09.888Z</time></trkpt><trkpt lat="43.883815" lon="12.5033067"><ele>342.6666666666667</ele><time>2026-04-19T14:05:11.885Z</time></trkpt><trkpt lat="43.8837433" lon="12.5033117"><ele>341.5</ele><time>2026-04-19T14:05:13.886Z</time></trkpt><trkpt lat="43.88367" lon="12.5033767"><ele>340.33333333333337</ele><time>2026-04-19T14:05:15.885Z</time></trkpt><trkpt lat="43.8835883" lon="12.503475"><ele>339.1666666666667</ele><time>2026-04-19T14:05:17.884Z</time></trkpt><trkpt lat="43.8835367" lon="12.5035267"><ele>338.0</ele><time>2026-04-19T14:05:18.887Z</time></trkpt><trkpt lat="43.8834383" lon="12.503625"><ele>336.6666666666667</ele><time>2026-04-19T14:05:20.886Z</time></trkpt><trkpt lat="43.8833867" lon="12.5036817"><ele>335.33333333333337</ele><time>2026-04-19T14:05:21.886Z</time></trkpt><trkpt lat="43.8833367" lon="12.50374"><ele>334.0</ele><time>2026-04-19T14:05:22.885Z</time></trkpt><trkpt lat="43.88325" lon="12.5038433"><ele>332.6666666666667</ele><time>2026-04-19T14:05:24.885Z</time></trkpt><trkpt lat="43.8832133" lon="12.50392"><ele>331.3333333333333</ele><time>2026-04-19T14:05:25.886Z</time></trkpt><trkpt lat="43.8831733" lon="12.5039983"><ele>330.0</ele><time>2026-04-19T14:05:26.889Z</time></trkpt><trkpt lat="43.8831383" lon="12.5040833"><ele>329.4</ele><time>2026-04-19T14:05:27.889Z</time></trkpt><trkpt lat="43.88311" lon="12.5041683"><ele>328.8</ele><time>2026-04-19T14:05:28.888Z</time></trkpt><trkpt lat="43.8830933" lon="12.5042533"><ele>328.20000000000005</ele><time>2026-04-19T14:05:29.888Z</time></trkpt><trkpt lat="43.8830883" lon="12.5044183"><ele>327.6</ele><time>2026-04-19T14:05:31.886Z</time></trkpt><trkpt lat="43.8831067" lon="12.5045767"><ele>327.0</ele><time>2026-04-19T14:05:33.885Z</time></trkpt><trkpt lat="43.8831067" lon="12.50472"><ele>324.1666666666667</ele><time>2026-04-19T14:05:35.888Z</time></trkpt><trkpt lat="43.8830683" lon="12.50488"><ele>321.3333333333333</ele><time>2026-04-19T14:05:37.889Z</time></trkpt><trkpt lat="43.8830267" lon="12.50496"><ele>318.5</ele><time>2026-04-19T14:05:38.888Z</time></trkpt><trkpt lat="43.88297" lon="12.5050317"><ele>315.66666666666663</ele><time>2026-04-19T14:05:39.884Z</time></trkpt><trkpt lat="43.8829" lon="12.5050917"><ele>312.8333333333333</ele><time>2026-04-19T14:05:40.89Z</time></trkpt><trkpt lat="43.8828233" lon="12.5051367"><ele>310.0</ele><time>2026-04-19T14:05:41.884Z</time></trkpt><trkpt lat="43.88274" lon="12.50518"><ele>310.0</ele><time>2026-04-19T14:05:42.889Z</time></trkpt><trkpt lat="43.8826567" lon="12.50521"><ele>310.0</ele><time>2026-04-19T14:05:43.889Z</time></trkpt><trkpt lat="43.8825733" lon="12.505235"><ele>310.0</ele><time>2026-04-19T14:05:44.887Z</time></trkpt><trkpt lat="43.8824933" lon="12.50526"><ele>310.0</ele><time>2026-04-19T14:05:45.887Z</time></trkpt><trkpt lat="43.88242" lon="12.5052933"><ele>310.0</ele><time>2026-04-19T14:05:46.888Z</time></trkpt><trkpt lat="43.8823533" lon="12.505345"><ele>310.0</ele><time>2026-04-19T14:05:47.885Z</time></trkpt><trkpt lat="43.8822867" lon="12.505405"><ele>306.8333333333333</ele><time>2026-04-19T14:05:48.886Z</time></trkpt><trkpt lat="43.88222" lon="12.5054733"><ele>303.66666666666663</ele><time>2026-04-19T14:05:49.886Z</time></trkpt><trkpt lat="43.882155" lon="12.5055417"><ele>300.5</ele><time>2026-04-19T14:05:50.885Z</time></trkpt><trkpt lat="43.8820783" lon="12.5055883"><ele>297.3333333333333</ele><time>2026-04-19T14:05:51.885Z</time></trkpt><trkpt lat="43.881995" lon="12.5055833"><ele>294.1666666666667</ele><time>2026-04-19T14:05:52.886Z</time></trkpt><trkpt lat="43.8819183" lon="12.5055667"><ele>291.0</ele><time>2026-04-19T14:05:53.888Z</time></trkpt><trkpt lat="43.881845" lon="12.50551"><ele>291.0</ele><time>2026-04-19T14:05:54.889Z</time></trkpt><trkpt lat="43.8817667" lon="12.50542"><ele>291.0</ele><time>2026-04-19T14:05:55.888Z</time></trkpt><trkpt lat="43.8816683" lon="12.5053333"><ele>291.0</ele><time>2026-04-19T14:05:56.889Z</time></trkpt><trkpt lat="43.88157" lon="12.5052633"><ele>291.0</ele><time>2026-04-19T14:05:57.888Z</time></trkpt><trkpt lat="43.8814683" lon="12.505215"><ele>291.0</ele><time>2026-04-19T14:05:58.887Z</time></trkpt><trkpt lat="43.881375" lon="12.5051717"><ele>291.1666666666667</ele><time>2026-04-19T14:05:59.888Z</time></trkpt><trkpt lat="43.8812833" lon="12.5051283"><ele>291.3333333333333</ele><time>2026-04-19T14:06:00.888Z</time></trkpt><trkpt lat="43.8811933" lon="12.50509"><ele>291.5</ele><time>2026-04-19T14:06:01.889Z</time></trkpt><trkpt lat="43.8811067" lon="12.5050517"><ele>291.66666666666663</ele><time>2026-04-19T14:06:02.888Z</time></trkpt><trkpt lat="43.8810283" lon="12.5050133"><ele>291.8333333333333</ele><time>2026-04-19T14:06:03.887Z</time></trkpt><trkpt lat="43.8809567" lon="12.50499"><ele>292.0</ele><time>2026-04-19T14:06:04.887Z</time></trkpt><trkpt lat="43.8808867" lon="12.5049883"><ele>289.4</ele><time>2026-04-19T14:06:05.888Z</time></trkpt><trkpt lat="43.8808117" lon="12.5050183"><ele>286.79999999999995</ele><time>2026-04-19T14:06:06.889Z</time></trkpt><trkpt lat="43.8807333" lon="12.5050783"><ele>284.2</ele><time>2026-04-19T14:06:07.888Z</time></trkpt><trkpt lat="43.88065" lon="12.5051483"><ele>281.59999999999997</ele><time>2026-04-19T14:06:08.889Z</time></trkpt><trkpt lat="43.880565" lon="12.50521"><ele>279.0</ele><time>2026-04-19T14:06:09.886Z</time></trkpt><trkpt lat="43.880475" lon="12.505275"><ele>279.0</ele><time>2026-04-19T14:06:10.889Z</time></trkpt><trkpt lat="43.880385" lon="12.5053417"><ele>279.0</ele><time>2026-04-19T14:06:11.887Z</time></trkpt><trkpt lat="43.8802933" lon="12.505405"><ele>279.0</ele><time>2026-04-19T14:06:12.889Z</time></trkpt><trkpt lat="43.8802067" lon="12.5054683"><ele>279.0</ele><time>2026-04-19T14:06:13.889Z</time></trkpt><trkpt lat="43.8801167" lon="12.505535"><ele>279.0</ele><time>2026-04-19T14:06:14.886Z</time></trkpt><trkpt lat="43.88003" lon="12.5055967"><ele>276.3333333333333</ele><time>2026-04-19T14:06:15.889Z</time></trkpt><trkpt lat="43.8799483" lon="12.505655"><ele>273.6666666666667</ele><time>2026-04-19T14:06:16.888Z</time></trkpt><trkpt lat="43.8798633" lon="12.50571"><ele>271.0</ele><time>2026-04-19T14:06:17.885Z</time></trkpt><trkpt lat="43.87978" lon="12.5057467"><ele>268.33333333333337</ele><time>2026-04-19T14:06:18.886Z</time></trkpt><trkpt lat="43.8796983" lon="12.5057767"><ele>265.6666666666667</ele><time>2026-04-19T14:06:19.888Z</time></trkpt><trkpt lat="43.879615" lon="12.5058017"><ele>263.0</ele><time>2026-04-19T14:06:20.889Z</time></trkpt><trkpt lat="43.8795433" lon="12.505815"><ele>263.0</ele><time>2026-04-19T14:06:21.888Z</time></trkpt><trkpt lat="43.879445" lon="12.5057983"><ele>263.0</ele><time>2026-04-19T14:06:23.89Z</time></trkpt><trkpt lat="43.8793867" lon="12.50572"><ele>263.0</ele><time>2026-04-19T14:06:49.889Z</time></trkpt><trkpt lat="43.87934" lon="12.505635"><ele>263.0</ele><time>2026-04-19T14:06:50.888Z</time></trkpt><trkpt lat="43.8792867" lon="12.5055283"><ele>263.0</ele><time>2026-04-19T14:06:51.888Z</time></trkpt><trkpt lat="43.87922" lon="12.5054"><ele>262.25</ele><time>2026-04-19T14:06:52.889Z</time></trkpt><trkpt lat="43.879145" lon="12.5052617"><ele>261.5</ele><time>2026-04-19T14:06:53.889Z</time></trkpt><trkpt lat="43.8790667" lon="12.5051217"><ele>260.75</ele><time>2026-04-19T14:06:54.888Z</time></trkpt><trkpt lat="43.8789883" lon="12.504975"><ele>260.0</ele><time>2026-04-19T14:06:55.889Z</time></trkpt><trkpt lat="43.8789083" lon="12.5048317"><ele>260.0</ele><time>2026-04-19T14:06:56.889Z</time></trkpt><trkpt lat="43.8788267" lon="12.5046833"><ele>260.0</ele><time>2026-04-19T14:06:57.89Z</time></trkpt><trkpt lat="43.8787417" lon="12.5045317"><ele>260.0</ele><time>2026-04-19T14:06:58.888Z</time></trkpt><trkpt lat="43.878655" lon="12.5043783"><ele>260.0</ele><time>2026-04-19T14:06:59.89Z</time></trkpt><trkpt lat="43.8785717" lon="12.5042217"><ele>259.0</ele><time>2026-04-19T14:07:00.889Z</time></trkpt><trkpt lat="43.8784867" lon="12.50406"><ele>258.0</ele><time>2026-04-19T14:07:01.891Z</time></trkpt><trkpt lat="43.8784017" lon="12.5039017"><ele>257.0</ele><time>2026-04-19T14:07:02.889Z</time></trkpt><trkpt lat="43.8783167" lon="12.5037417"><ele>256.0</ele><time>2026-04-19T14:07:03.889Z</time></trkpt><trkpt lat="43.878235" lon="12.5035767"><ele>258.0</ele><time>2026-04-19T14:07:04.889Z</time></trkpt><trkpt lat="43.87816" lon="12.5034"><ele>260.0</ele><time>2026-04-19T14:07:05.89Z</time></trkpt><trkpt lat="43.87809" lon="12.5032283"><ele>262.0</ele><time>2026-04-19T14:07:06.889Z</time></trkpt><trkpt lat="43.87802" lon="12.5030567"><ele>264.0</ele><time>2026-04-19T14:07:07.888Z</time></trkpt><trkpt lat="43.8779517" lon="12.502885"><ele>265.5</ele><time>2026-04-19T14:07:08.889Z</time></trkpt><trkpt lat="43.8778833" lon="12.5027133"><ele>267.0</ele><time>2026-04-19T14:07:09.888Z</time></trkpt><trkpt lat="43.8778117" lon="12.5025417"><ele>268.5</ele><time>2026-04-19T14:07:10.888Z</time></trkpt><trkpt lat="43.87774" lon="12.50237"><ele>270.0</ele><time>2026-04-19T14:07:11.888Z</time></trkpt><trkpt lat="43.8776667" lon="12.5021983"><ele>268.0</ele><time>2026-04-19T14:07:12.888Z</time></trkpt><trkpt lat="43.8775933" lon="12.50202"><ele>266.0</ele><time>2026-04-19T14:07:13.889Z</time></trkpt><trkpt lat="43.8775183" lon="12.5018467"><ele>264.0</ele><time>2026-04-19T14:07:14.886Z</time></trkpt><trkpt lat="43.8774467" lon="12.5016767"><ele>262.0</ele><time>2026-04-19T14:07:15.886Z</time></trkpt><trkpt lat="43.87737" lon="12.5015083"><ele>262.0</ele><time>2026-04-19T14:07:16.887Z</time></trkpt><trkpt lat="43.8772983" lon="12.5013333"><ele>262.0</ele><time>2026-04-19T14:07:17.889Z</time></trkpt><trkpt lat="43.877225" lon="12.5011567"><ele>262.0</ele><time>2026-04-19T14:07:18.888Z</time></trkpt><trkpt lat="43.8771517" lon="12.5009767"><ele>262.0</ele><time>2026-04-19T14:07:19.889Z</time></trkpt><trkpt lat="43.8770767" lon="12.500795"><ele>263.66666666666663</ele><time>2026-04-19T14:07:20.888Z</time></trkpt><trkpt lat="43.8770033" lon="12.5006067"><ele>265.3333333333333</ele><time>2026-04-19T14:07:21.889Z</time></trkpt><trkpt lat="43.8769283" lon="12.50042"><ele>267.0</ele><time>2026-04-19T14:07:22.886Z</time></trkpt><trkpt lat="43.8768517" lon="12.50023"><ele>266.0</ele><time>2026-04-19T14:07:23.887Z</time></trkpt><trkpt lat="43.8767717" lon="12.5000433"><ele>265.0</ele><time>2026-04-19T14:07:24.886Z</time></trkpt><trkpt lat="43.8766917" lon="12.4998567"><ele>264.0</ele><time>2026-04-19T14:07:25.888Z</time></trkpt><trkpt lat="43.8766117" lon="12.499675"><ele>264.75</ele><time>2026-04-19T14:07:26.888Z</time></trkpt><trkpt lat="43.87654" lon="12.499505"><ele>265.5</ele><time>2026-04-19T14:07:27.888Z</time></trkpt><trkpt lat="43.876475" lon="12.4993383"><ele>266.25</ele><time>2026-04-19T14:07:28.888Z</time></trkpt><trkpt lat="43.876415" lon="12.49917"><ele>267.0</ele><time>2026-04-19T14:07:29.886Z</time></trkpt><trkpt lat="43.87636" lon="12.499"><ele>267.0</ele><time>2026-04-19T14:07:30.886Z</time></trkpt><trkpt lat="43.8763083" lon="12.4988267"><ele>267.0</ele><time>2026-04-19T14:07:31.886Z</time></trkpt><trkpt lat="43.87626" lon="12.4986467"><ele>267.0</ele><time>2026-04-19T14:07:32.887Z</time></trkpt><trkpt lat="43.876215" lon="12.4984667"><ele>267.0</ele><time>2026-04-19T14:07:33.888Z</time></trkpt><trkpt lat="43.8761733" lon="12.4982867"><ele>268.25</ele><time>2026-04-19T14:07:34.887Z</time></trkpt><trkpt lat="43.876135" lon="12.4981067"><ele>269.5</ele><time>2026-04-19T14:07:35.889Z</time></trkpt><trkpt lat="43.8760967" lon="12.4979333"><ele>270.75</ele><time>2026-04-19T14:07:36.885Z</time></trkpt><trkpt lat="43.876065" lon="12.49777"><ele>272.0</ele><time>2026-04-19T14:07:37.886Z</time></trkpt><trkpt lat="43.8760333" lon="12.4976133"><ele>272.0</ele><time>2026-04-19T14:07:38.889Z</time></trkpt><trkpt lat="43.876" lon="12.4974633"><ele>272.0</ele><time>2026-04-19T14:07:39.886Z</time></trkpt><trkpt lat="43.8759683" lon="12.4973117"><ele>272.0</ele><time>2026-04-19T14:07:40.889Z</time></trkpt><trkpt lat="43.8759367" lon="12.49717"><ele>272.0</ele><time>2026-04-19T14:07:41.888Z</time></trkpt><trkpt lat="43.8759083" lon="12.497045"><ele>272.0</ele><time>2026-04-19T14:07:42.885Z</time></trkpt><trkpt lat="43.87588" lon="12.496935"><ele>272.0</ele><time>2026-04-19T14:07:43.886Z</time></trkpt><trkpt lat="43.8758533" lon="12.4968433"><ele>272.0</ele><time>2026-04-19T14:07:44.888Z</time></trkpt><trkpt lat="43.8758867" lon="12.49675"><ele>272.0</ele><time>2026-04-19T14:07:47.888Z</time></trkpt><trkpt lat="43.8759917" lon="12.496755"><ele>272.0</ele><time>2026-04-19T14:07:49.886Z</time></trkpt><trkpt lat="43.8760717" lon="12.49675"><ele>272.0</ele><time>2026-04-19T14:07:50.889Z</time></trkpt><trkpt lat="43.8761533" lon="12.49672"><ele>272.0</ele><time>2026-04-19T14:07:51.888Z</time></trkpt><trkpt lat="43.8762567" lon="12.49668"><ele>274.6666666666667</ele><time>2026-04-19T14:07:52.89Z</time></trkpt><trkpt lat="43.8763317" lon="12.4966233"><ele>277.33333333333337</ele><time>2026-04-19T14:07:53.886Z</time></trkpt><trkpt lat="43.8764117" lon="12.496555"><ele>280.0</ele><time>2026-04-19T14:07:54.886Z</time></trkpt><trkpt lat="43.87649" lon="12.49649"><ele>282.6666666666667</ele><time>2026-04-19T14:07:55.888Z</time></trkpt><trkpt lat="43.8765683" lon="12.4964417"><ele>285.3333333333333</ele><time>2026-04-19T14:07:56.889Z</time></trkpt><trkpt lat="43.8766517" lon="12.4964133"><ele>288.0</ele><time>2026-04-19T14:07:57.888Z</time></trkpt><trkpt lat="43.876745" lon="12.4964217"><ele>291.25</ele><time>2026-04-19T14:07:58.888Z</time></trkpt><trkpt lat="43.8768667" lon="12.4964717"><ele>294.5</ele><time>2026-04-19T14:07:59.889Z</time></trkpt><trkpt lat="43.8769683" lon="12.4965117"><ele>297.75</ele><time>2026-04-19T14:08:00.887Z</time></trkpt><trkpt lat="43.8770867" lon="12.4965783"><ele>301.0</ele><time>2026-04-19T14:08:01.885Z</time></trkpt><trkpt lat="43.877215" lon="12.4966083"><ele>301.0</ele><time>2026-04-19T14:08:02.888Z</time></trkpt><trkpt lat="43.8773133" lon="12.49661"><ele>301.0</ele><time>2026-04-19T14:08:03.887Z</time></trkpt><trkpt lat="43.8773933" lon="12.4966033"><ele>301.0</ele><time>2026-04-19T14:08:04.888Z</time></trkpt><trkpt lat="43.8774683" lon="12.4965733"><ele>301.0</ele><time>2026-04-19T14:08:05.885Z</time></trkpt><trkpt lat="43.877535" lon="12.4965383"><ele>301.0</ele><time>2026-04-19T14:08:06.886Z</time></trkpt><trkpt lat="43.8775983" lon="12.4965017"><ele>301.0</ele><time>2026-04-19T14:08:07.89Z</time></trkpt><trkpt lat="43.8776733" lon="12.4964467"><ele>303.6</ele><time>2026-04-19T14:08:08.979Z</time></trkpt><trkpt lat="43.8777533" lon="12.49639"><ele>306.20000000000005</ele><time>2026-04-19T14:08:09.887Z</time></trkpt><trkpt lat="43.8778433" lon="12.4963283"><ele>308.79999999999995</ele><time>2026-04-19T14:08:10.886Z</time></trkpt><trkpt lat="43.8779433" lon="12.4962683"><ele>311.4</ele><time>2026-04-19T14:08:11.887Z</time></trkpt><trkpt lat="43.87805" lon="12.4962033"><ele>314.0</ele><time>2026-04-19T14:08:12.889Z</time></trkpt><trkpt lat="43.8781617" lon="12.49614"><ele>314.0</ele><time>2026-04-19T14:08:13.889Z</time></trkpt><trkpt lat="43.8782683" lon="12.4960817"><ele>314.0</ele><time>2026-04-19T14:08:14.886Z</time></trkpt><trkpt lat="43.87837" lon="12.496025"><ele>314.0</ele><time>2026-04-19T14:08:15.887Z</time></trkpt><trkpt lat="43.87846" lon="12.4959833"><ele>314.0</ele><time>2026-04-19T14:08:16.887Z</time></trkpt><trkpt lat="43.8785367" lon="12.4959483"><ele>314.0</ele><time>2026-04-19T14:08:17.887Z</time></trkpt><trkpt lat="43.8786033" lon="12.4959283"><ele>316.79999999999995</ele><time>2026-04-19T14:08:18.886Z</time></trkpt><trkpt lat="43.8786917" lon="12.4959317"><ele>319.59999999999997</ele><time>2026-04-19T14:08:20.885Z</time></trkpt><trkpt lat="43.8787617" lon="12.49594"><ele>322.4</ele><time>2026-04-19T14:08:45.887Z</time></trkpt><trkpt lat="43.87889" lon="12.4959633"><ele>325.2</ele><time>2026-04-19T14:08:47.888Z</time></trkpt><trkpt lat="43.8789667" lon="12.4959783"><ele>328.0</ele><time>2026-04-19T14:08:48.884Z</time></trkpt><trkpt lat="43.879055" lon="12.4959883"><ele>328.0</ele><time>2026-04-19T14:08:49.886Z</time></trkpt><trkpt lat="43.8791467" lon="12.4959917"><ele>328.0</ele><time>2026-04-19T14:08:50.888Z</time></trkpt><trkpt lat="43.8792383" lon="12.4959917"><ele>328.0</ele><time>2026-04-19T14:08:51.887Z</time></trkpt><trkpt lat="43.8793333" lon="12.49599"><ele>328.0</ele><time>2026-04-19T14:08:52.887Z</time></trkpt><trkpt lat="43.879425" lon="12.49598"><ele>328.0</ele><time>2026-04-19T14:08:53.887Z</time></trkpt><trkpt lat="43.87951" lon="12.4959717"><ele>329.71428571428567</ele><time>2026-04-19T14:08:54.887Z</time></trkpt><trkpt lat="43.879585" lon="12.4959733"><ele>331.42857142857144</ele><time>2026-04-19T14:08:55.888Z</time></trkpt><trkpt lat="43.8796583" lon="12.4959883"><ele>333.1428571428571</ele><time>2026-04-19T14:08:56.888Z</time></trkpt><trkpt lat="43.879725" lon="12.4960167"><ele>334.85714285714283</ele><time>2026-04-19T14:08:57.888Z</time></trkpt><trkpt lat="43.8797867" lon="12.4960517"><ele>336.57142857142856</ele><time>2026-04-19T14:08:58.887Z</time></trkpt><trkpt lat="43.8798467" lon="12.4961067"><ele>338.2857142857143</ele><time>2026-04-19T14:08:59.889Z</time></trkpt><trkpt lat="43.879905" lon="12.4961767"><ele>340.0</ele><time>2026-04-19T14:09:00.887Z</time></trkpt><trkpt lat="43.8799667" lon="12.4962483"><ele>340.16666666666663</ele><time>2026-04-19T14:09:01.888Z</time></trkpt><trkpt lat="43.8800283" lon="12.49631"><ele>340.3333333333333</ele><time>2026-04-19T14:09:02.888Z</time></trkpt><trkpt lat="43.8800967" lon="12.4963633"><ele>340.5</ele><time>2026-04-19T14:09:03.888Z</time></trkpt><trkpt lat="43.8801733" lon="12.4964033"><ele>340.6666666666667</ele><time>2026-04-19T14:09:04.887Z</time></trkpt><trkpt lat="43.880265" lon="12.496435"><ele>340.83333333333337</ele><time>2026-04-19T14:09:05.887Z</time></trkpt><trkpt lat="43.8803667" lon="12.4964567"><ele>341.0</ele><time>2026-04-19T14:09:06.887Z</time></trkpt><trkpt lat="43.88048" lon="12.4964717"><ele>342.5</ele><time>2026-04-19T14:09:07.888Z</time></trkpt><trkpt lat="43.8805867" lon="12.4964817"><ele>344.0</ele><time>2026-04-19T14:09:08.888Z</time></trkpt><trkpt lat="43.8806817" lon="12.496495"><ele>345.5</ele><time>2026-04-19T14:09:09.886Z</time></trkpt><trkpt lat="43.88077" lon="12.496515"><ele>347.0</ele><time>2026-04-19T14:09:10.885Z</time></trkpt><trkpt lat="43.8808467" lon="12.4965317"><ele>348.5</ele><time>2026-04-19T14:09:11.888Z</time></trkpt><trkpt lat="43.8809167" lon="12.496545"><ele>350.0</ele><time>2026-04-19T14:09:12.884Z</time></trkpt><trkpt lat="43.8810017" lon="12.4965383"><ele>352.1666666666667</ele><time>2026-04-19T14:09:14.889Z</time></trkpt><trkpt lat="43.88104" lon="12.4964617"><ele>354.33333333333337</ele><time>2026-04-19T14:09:16.888Z</time></trkpt><trkpt lat="43.8810617" lon="12.49633"><ele>356.5</ele><time>2026-04-19T14:09:18.885Z</time></trkpt><trkpt lat="43.8811183" lon="12.4961967"><ele>358.6666666666667</ele><time>2026-04-19T14:09:20.886Z</time></trkpt><trkpt lat="43.8811633" lon="12.4961233"><ele>360.8333333333333</ele><time>2026-04-19T14:09:21.885Z</time></trkpt><trkpt lat="43.8812117" lon="12.49605"><ele>363.0</ele><time>2026-04-19T14:09:22.886Z</time></trkpt><trkpt lat="43.88126" lon="12.4959817"><ele>365.2</ele><time>2026-04-19T14:09:23.884Z</time></trkpt><trkpt lat="43.8813133" lon="12.4959083"><ele>367.4</ele><time>2026-04-19T14:09:24.885Z</time></trkpt><trkpt lat="43.8813933" lon="12.4958133"><ele>369.59999999999997</ele><time>2026-04-19T14:09:26.884Z</time></trkpt><trkpt lat="43.8814317" lon="12.4956967"><ele>371.79999999999995</ele><time>2026-04-19T14:09:28.885Z</time></trkpt><trkpt lat="43.8814767" lon="12.4955517"><ele>374.0</ele><time>2026-04-19T14:09:30.887Z</time></trkpt><trkpt lat="43.8815483" lon="12.495455"><ele>374.0</ele><time>2026-04-19T14:09:32.884Z</time></trkpt><trkpt lat="43.8816667" lon="12.4954317"><ele>374.0</ele><time>2026-04-19T14:09:34.886Z</time></trkpt><trkpt lat="43.88178" lon="12.49542"><ele>374.0</ele><time>2026-04-19T14:09:36.886Z</time></trkpt><trkpt lat="43.8818733" lon="12.4953683"><ele>374.0</ele><time>2026-04-19T14:09:38.884Z</time></trkpt><trkpt lat="43.8819767" lon="12.4953083"><ele>374.0</ele><time>2026-04-19T14:09:40.884Z</time></trkpt><trkpt lat="43.8820767" lon="12.4952483"><ele>377.33333333333337</ele><time>2026-04-19T14:09:42.885Z</time></trkpt><trkpt lat="43.8821617" lon="12.49521"><ele>380.6666666666667</ele><time>2026-04-19T14:09:44.885Z</time></trkpt><trkpt lat="43.8822333" lon="12.495185"><ele>384.0</ele><time>2026-04-19T14:09:46.885Z</time></trkpt><trkpt lat="43.8823" lon="12.4951933"><ele>387.33333333333337</ele><time>2026-04-19T14:09:48.886Z</time></trkpt><trkpt lat="43.8823633" lon="12.4952217"><ele>390.6666666666667</ele><time>2026-04-19T14:09:50.886Z</time></trkpt><trkpt lat="43.8824917" lon="12.4952367"><ele>394.0</ele><time>2026-04-19T14:09:52.886Z</time></trkpt><trkpt lat="43.8825683" lon="12.495245"><ele>396.6</ele><time>2026-04-19T14:09:53.888Z</time></trkpt><trkpt lat="43.8826483" lon="12.495255"><ele>399.2</ele><time>2026-04-19T14:09:54.888Z</time></trkpt><trkpt lat="43.8827167" lon="12.4952717"><ele>401.8</ele><time>2026-04-19T14:09:55.884Z</time></trkpt><trkpt lat="43.8828217" lon="12.4952767"><ele>404.40000000000003</ele><time>2026-04-19T14:09:57.884Z</time></trkpt><trkpt lat="43.882935" lon="12.495255"><ele>407.0</ele><time>2026-04-19T14:09:59.889Z</time></trkpt><trkpt lat="43.8830483" lon="12.4952783"><ele>407.00000000000006</ele><time>2026-04-19T14:10:01.885Z</time></trkpt><trkpt lat="43.8831183" lon="12.4953067"><ele>407.0</ele><time>2026-04-19T14:10:02.888Z</time></trkpt><trkpt lat="43.8831917" lon="12.495335"><ele>407.0</ele><time>2026-04-19T14:10:03.888Z</time></trkpt><trkpt lat="43.883275" lon="12.4953583"><ele>407.0</ele><time>2026-04-19T14:10:04.889Z</time></trkpt><trkpt lat="43.8833517" lon="12.4953783"><ele>407.0</ele><time>2026-04-19T14:10:05.888Z</time></trkpt><trkpt lat="43.88342" lon="12.495395"><ele>407.00000000000006</ele><time>2026-04-19T14:10:06.889Z</time></trkpt><trkpt lat="43.8834817" lon="12.49542"><ele>407.0</ele><time>2026-04-19T14:10:07.889Z</time></trkpt><trkpt lat="43.883545" lon="12.4954533"><ele>410.40000000000003</ele><time>2026-04-19T14:10:08.884Z</time></trkpt><trkpt lat="43.88361" lon="12.4954883"><ele>413.8</ele><time>2026-04-19T14:10:09.889Z</time></trkpt><trkpt lat="43.88367" lon="12.4955167"><ele>417.2</ele><time>2026-04-19T14:10:10.885Z</time></trkpt><trkpt lat="43.883775" lon="12.49559"><ele>420.6</ele><time>2026-04-19T14:10:12.887Z</time></trkpt><trkpt lat="43.88385" lon="12.4957"><ele>424.0</ele><time>2026-04-19T14:10:14.885Z</time></trkpt><trkpt lat="43.883895" lon="12.49584"><ele>424.0</ele><time>2026-04-19T14:10:16.885Z</time></trkpt><trkpt lat="43.8839383" lon="12.4959533"><ele>424.0</ele><time>2026-04-19T14:10:18.885Z</time></trkpt><trkpt lat="43.8840083" lon="12.4960467"><ele>424.0</ele><time>2026-04-19T14:10:20.885Z</time></trkpt><trkpt lat="43.8841217" lon="12.4961283"><ele>424.0</ele><time>2026-04-19T14:10:22.886Z</time></trkpt><trkpt lat="43.8842217" lon="12.496215"><ele>424.0</ele><time>2026-04-19T14:10:24.885Z</time></trkpt><trkpt lat="43.88428" lon="12.4963517"><ele>427.00000000000006</ele><time>2026-04-19T14:10:26.885Z</time></trkpt><trkpt lat="43.8843183" lon="12.4965217"><ele>430.0</ele><time>2026-04-19T14:10:28.885Z</time></trkpt><trkpt lat="43.8843383" lon="12.4966083"><ele>433.0</ele><time>2026-04-19T14:10:29.885Z</time></trkpt><trkpt lat="43.88439" lon="12.4967183"><ele>436.0</ele><time>2026-04-19T14:10:31.885Z</time></trkpt><trkpt lat="43.8844767" lon="12.49673"><ele>439.00000000000006</ele><time>2026-04-19T14:10:33.888Z</time></trkpt><trkpt lat="43.8845383" lon="12.4967033"><ele>442.0</ele><time>2026-04-19T14:10:34.885Z</time></trkpt><trkpt lat="43.8846017" lon="12.4966717"><ele>442.00000000000006</ele><time>2026-04-19T14:10:35.885Z</time></trkpt><trkpt lat="43.8846667" lon="12.4966383"><ele>442.0</ele><time>2026-04-19T14:10:36.886Z</time></trkpt><trkpt lat="43.884735" lon="12.4966067"><ele>442.0</ele><time>2026-04-19T14:10:37.885Z</time></trkpt><trkpt lat="43.8848067" lon="12.4965683"><ele>442.0</ele><time>2026-04-19T14:10:38.884Z</time></trkpt><trkpt lat="43.8848883" lon="12.4965333"><ele>442.00000000000006</ele><time>2026-04-19T14:10:39.884Z</time></trkpt><trkpt lat="43.8849733" lon="12.4965033"><ele>442.0</ele><time>2026-04-19T14:10:40.885Z</time></trkpt><trkpt lat="43.8850567" lon="12.4964733"><ele>444.00000000000006</ele><time>2026-04-19T14:10:41.888Z</time></trkpt><trkpt lat="43.8851317" lon="12.4964583"><ele>446.0</ele><time>2026-04-19T14:10:42.888Z</time></trkpt><trkpt lat="43.8852083" lon="12.4964533"><ele>448.0</ele><time>2026-04-19T14:10:43.887Z</time></trkpt><trkpt lat="43.88529" lon="12.49646"><ele>450.0</ele><time>2026-04-19T14:10:44.886Z</time></trkpt><trkpt lat="43.8853767" lon="12.4964567"><ele>452.00000000000006</ele><time>2026-04-19T14:10:45.889Z</time></trkpt><trkpt lat="43.8854567" lon="12.496455"><ele>454.0</ele><time>2026-04-19T14:10:46.886Z</time></trkpt><trkpt lat="43.885545" lon="12.4964483"><ele>454.00000000000006</ele><time>2026-04-19T14:10:47.885Z</time></trkpt><trkpt lat="43.8856367" lon="12.4964367"><ele>454.0</ele><time>2026-04-19T14:10:48.887Z</time></trkpt><trkpt lat="43.885725" lon="12.4964317"><ele>454.0</ele><time>2026-04-19T14:10:49.885Z</time></trkpt><trkpt lat="43.88581" lon="12.496435"><ele>454.0</ele><time>2026-04-19T14:10:50.887Z</time></trkpt><trkpt lat="43.8858883" lon="12.4964417"><ele>454.00000000000006</ele><time>2026-04-19T14:10:51.884Z</time></trkpt><trkpt lat="43.8859583" lon="12.4964567"><ele>454.0</ele><time>2026-04-19T14:10:52.886Z</time></trkpt><trkpt lat="43.8860633" lon="12.496475"><ele>456.79999999999995</ele><time>2026-04-19T14:10:54.886Z</time></trkpt><trkpt lat="43.8861767" lon="12.496515"><ele>459.59999999999997</ele><time>2026-04-19T14:10:56.884Z</time></trkpt><trkpt lat="43.8862933" lon="12.4965833"><ele>462.4</ele><time>2026-04-19T14:10:58.886Z</time></trkpt><trkpt lat="43.886355" lon="12.496615"><ele>465.2</ele><time>2026-04-19T14:10:59.889Z</time></trkpt><trkpt lat="43.8864267" lon="12.4966467"><ele>468.0</ele><time>2026-04-19T14:11:00.888Z</time></trkpt><trkpt lat="43.8865" lon="12.4966717"><ele>468.0</ele><time>2026-04-19T14:11:01.888Z</time></trkpt><trkpt lat="43.8865667" lon="12.4966833"><ele>467.99999999999994</ele><time>2026-04-19T14:11:02.885Z</time></trkpt><trkpt lat="43.886675" lon="12.4966883"><ele>467.99999999999994</ele><time>2026-04-19T14:11:04.887Z</time></trkpt><trkpt lat="43.8867633" lon="12.4966467"><ele>468.0</ele><time>2026-04-19T14:11:06.885Z</time></trkpt><trkpt lat="43.8868633" lon="12.4966033"><ele>468.0</ele><time>2026-04-19T14:11:08.886Z</time></trkpt><trkpt lat="43.8869933" lon="12.4965683"><ele>469.8333333333333</ele><time>2026-04-19T14:11:10.888Z</time></trkpt><trkpt lat="43.8870717" lon="12.4965467"><ele>471.66666666666663</ele><time>2026-04-19T14:11:11.888Z</time></trkpt><trkpt lat="43.8871517" lon="12.4965283"><ele>473.5</ele><time>2026-04-19T14:11:12.885Z</time></trkpt><trkpt lat="43.887235" lon="12.4965117"><ele>475.3333333333333</ele><time>2026-04-19T14:11:13.886Z</time></trkpt><trkpt lat="43.8873183" lon="12.4965067"><ele>477.16666666666663</ele><time>2026-04-19T14:11:14.885Z</time></trkpt><trkpt lat="43.8874" lon="12.4965033"><ele>479.0</ele><time>2026-04-19T14:11:15.885Z</time></trkpt><trkpt lat="43.887485" lon="12.4964967"><ele>478.99999999999994</ele><time>2026-04-19T14:11:16.886Z</time></trkpt><trkpt lat="43.8875667" lon="12.4964883"><ele>479.0</ele><time>2026-04-19T14:11:17.885Z</time></trkpt><trkpt lat="43.88765" lon="12.4964717"><ele>479.0</ele><time>2026-04-19T14:11:18.886Z</time></trkpt><trkpt lat="43.8877333" lon="12.4964317"><ele>479.0</ele><time>2026-04-19T14:11:19.887Z</time></trkpt><trkpt lat="43.8878217" lon="12.4963767"><ele>478.99999999999994</ele><time>2026-04-19T14:11:20.885Z</time></trkpt><trkpt lat="43.887905" lon="12.49632"><ele>479.0</ele><time>2026-04-19T14:11:21.886Z</time></trkpt><trkpt lat="43.8879683" lon="12.49627"><ele>481.0</ele><time>2026-04-19T14:11:22.887Z</time></trkpt><trkpt lat="43.8880717" lon="12.4962167"><ele>483.0</ele><time>2026-04-19T14:11:24.886Z</time></trkpt><trkpt lat="43.8882067" lon="12.4962083"><ele>485.0</ele><time>2026-04-19T14:11:26.885Z</time></trkpt><trkpt lat="43.8882967" lon="12.49621"><ele>487.0</ele><time>2026-04-19T14:11:27.884Z</time></trkpt><trkpt lat="43.8883917" lon="12.4962217"><ele>489.0</ele><time>2026-04-19T14:11:28.886Z</time></trkpt><trkpt lat="43.8884833" lon="12.4962283"><ele>489.79999999999995</ele><time>2026-04-19T14:11:29.888Z</time></trkpt><trkpt lat="43.88857" lon="12.4962133"><ele>490.59999999999997</ele><time>2026-04-19T14:11:30.885Z</time></trkpt><trkpt lat="43.8886567" lon="12.4961817"><ele>491.4</ele><time>2026-04-19T14:11:31.886Z</time></trkpt><trkpt lat="43.888745" lon="12.496135"><ele>492.2</ele><time>2026-04-19T14:11:32.886Z</time></trkpt><trkpt lat="43.888835" lon="12.4960783"><ele>493.0</ele><time>2026-04-19T14:11:33.889Z</time></trkpt><trkpt lat="43.8889233" lon="12.4960217"><ele>493.0</ele><time>2026-04-19T14:11:34.889Z</time></trkpt><trkpt lat="43.8890067" lon="12.4959683"><ele>492.99999999999994</ele><time>2026-04-19T14:11:35.888Z</time></trkpt><trkpt lat="43.88909" lon="12.4959167"><ele>492.99999999999994</ele><time>2026-04-19T14:11:36.887Z</time></trkpt><trkpt lat="43.88917" lon="12.4958617"><ele>493.0</ele><time>2026-04-19T14:11:37.885Z</time></trkpt><trkpt lat="43.8892483" lon="12.495815"><ele>493.0</ele><time>2026-04-19T14:11:38.886Z</time></trkpt><trkpt lat="43.88935" lon="12.4957583"><ele>494.50000000000006</ele><time>2026-04-19T14:11:40.889Z</time></trkpt><trkpt lat="43.8894233" lon="12.495775"><ele>496.0</ele><time>2026-04-19T14:11:42.888Z</time></trkpt><trkpt lat="43.889495" lon="12.4958133"><ele>497.5</ele><time>2026-04-19T14:11:44.889Z</time></trkpt><trkpt lat="43.8895617" lon="12.4958783"><ele>499.0</ele><time>2026-04-19T14:11:46.888Z</time></trkpt><trkpt lat="43.8896333" lon="12.4959717"><ele>500.50000000000006</ele><time>2026-04-19T14:11:48.889Z</time></trkpt><trkpt lat="43.88971" lon="12.496065"><ele>502.0</ele><time>2026-04-19T14:11:50.886Z</time></trkpt><trkpt lat="43.8898033" lon="12.496155"><ele>502.0</ele><time>2026-04-19T14:11:52.889Z</time></trkpt><trkpt lat="43.8899" lon="12.4962383"><ele>502.00000000000006</ele><time>2026-04-19T14:11:54.888Z</time></trkpt><trkpt lat="43.88996" lon="12.496285"><ele>502.00000000000006</ele><time>2026-04-19T14:11:55.885Z</time></trkpt><trkpt lat="43.8900167" lon="12.496325"><ele>502.0</ele><time>2026-04-19T14:11:56.885Z</time></trkpt><trkpt lat="43.8901217" lon="12.4963883"><ele>502.0</ele><time>2026-04-19T14:11:58.888Z</time></trkpt><trkpt lat="43.8902217" lon="12.49644"><ele>499.1666666666667</ele><time>2026-04-19T14:12:00.886Z</time></trkpt><trkpt lat="43.8903317" lon="12.49652"><ele>496.33333333333337</ele><time>2026-04-19T14:12:02.885Z</time></trkpt><trkpt lat="43.8903933" lon="12.4965717"><ele>493.5</ele><time>2026-04-19T14:12:03.887Z</time></trkpt><trkpt lat="43.89046" lon="12.496615"><ele>490.66666666666663</ele><time>2026-04-19T14:12:04.886Z</time></trkpt><trkpt lat="43.8905367" lon="12.4966567"><ele>487.8333333333333</ele><time>2026-04-19T14:12:05.886Z</time></trkpt><trkpt lat="43.890605" lon="12.4966867"><ele>485.0</ele><time>2026-04-19T14:12:06.888Z</time></trkpt><trkpt lat="43.8906667" lon="12.4967117"><ele>484.99999999999994</ele><time>2026-04-19T14:12:07.889Z</time></trkpt><trkpt lat="43.8907267" lon="12.4967383"><ele>485.0</ele><time>2026-04-19T14:12:08.889Z</time></trkpt><trkpt lat="43.8907883" lon="12.4967583"><ele>485.0</ele><time>2026-04-19T14:12:09.888Z</time></trkpt><trkpt lat="43.8909" lon="12.4968067"><ele>485.0</ele><time>2026-04-19T14:12:11.886Z</time></trkpt><trkpt lat="43.8909983" lon="12.4968383"><ele>484.99999999999994</ele><time>2026-04-19T14:12:13.888Z</time></trkpt><trkpt lat="43.89108" lon="12.4968167"><ele>485.0</ele><time>2026-04-19T14:12:16.889Z</time></trkpt><trkpt lat="43.8911483" lon="12.4968917"><ele>481.8</ele><time>2026-04-19T14:12:19.885Z</time></trkpt><trkpt lat="43.8911967" lon="12.4970167"><ele>478.6</ele><time>2026-04-19T14:12:21.885Z</time></trkpt><trkpt lat="43.891235" lon="12.4971717"><ele>475.4</ele><time>2026-04-19T14:12:23.889Z</time></trkpt><trkpt lat="43.8912467" lon="12.49727"><ele>472.2</ele><time>2026-04-19T14:12:24.889Z</time></trkpt><trkpt lat="43.891255" lon="12.4973817"><ele>469.0</ele><time>2026-04-19T14:12:25.889Z</time></trkpt><trkpt lat="43.8912667" lon="12.4975083"><ele>468.6</ele><time>2026-04-19T14:12:26.888Z</time></trkpt><trkpt lat="43.8912783" lon="12.497645"><ele>468.2</ele><time>2026-04-19T14:12:27.888Z</time></trkpt><trkpt lat="43.89129" lon="12.497785"><ele>467.80000000000007</ele><time>2026-04-19T14:12:28.887Z</time></trkpt><trkpt lat="43.8913017" lon="12.4979333"><ele>467.40000000000003</ele><time>2026-04-19T14:12:29.887Z</time></trkpt><trkpt lat="43.89131" lon="12.4980817"><ele>467.0</ele><time>2026-04-19T14:12:30.889Z</time></trkpt><trkpt lat="43.8913167" lon="12.49823"><ele>466.0</ele><time>2026-04-19T14:12:31.889Z</time></trkpt><trkpt lat="43.891325" lon="12.4983817"><ele>465.0</ele><time>2026-04-19T14:12:32.889Z</time></trkpt><trkpt lat="43.8913333" lon="12.49854"><ele>464.0</ele><time>2026-04-19T14:12:33.888Z</time></trkpt><trkpt lat="43.891345" lon="12.49871"><ele>463.0</ele><time>2026-04-19T14:12:34.888Z</time></trkpt><trkpt lat="43.8913583" lon="12.4988817"><ele>461.25</ele><time>2026-04-19T14:12:35.885Z</time></trkpt><trkpt lat="43.8913733" lon="12.4990517"><ele>459.5</ele><time>2026-04-19T14:12:36.887Z</time></trkpt><trkpt lat="43.8913867" lon="12.4992167"><ele>457.75</ele><time>2026-04-19T14:12:37.886Z</time></trkpt><trkpt lat="43.8914" lon="12.499385"><ele>456.0</ele><time>2026-04-19T14:12:38.889Z</time></trkpt><trkpt lat="43.8914117" lon="12.499555"><ele>455.0</ele><time>2026-04-19T14:12:39.885Z</time></trkpt><trkpt lat="43.89143" lon="12.4997283"><ele>454.0</ele><time>2026-04-19T14:12:40.888Z</time></trkpt><trkpt lat="43.891445" lon="12.4998967"><ele>453.0</ele><time>2026-04-19T14:12:41.885Z</time></trkpt><trkpt lat="43.8914533" lon="12.5000533"><ele>452.0</ele><time>2026-04-19T14:12:42.889Z</time></trkpt><trkpt lat="43.8914567" lon="12.5002083"><ele>452.0</ele><time>2026-04-19T14:12:43.889Z</time></trkpt><trkpt lat="43.8914533" lon="12.5003667"><ele>452.00000000000006</ele><time>2026-04-19T14:12:44.889Z</time></trkpt><trkpt lat="43.891445" lon="12.5005217"><ele>452.00000000000006</ele><time>2026-04-19T14:12:45.888Z</time></trkpt><trkpt lat="43.891425" lon="12.5006733"><ele>452.0</ele><time>2026-04-19T14:12:46.889Z</time></trkpt><trkpt lat="43.8913933" lon="12.5008167"><ele>452.0</ele><time>2026-04-19T14:12:47.889Z</time></trkpt><trkpt lat="43.8913533" lon="12.5009517"><ele>452.0</ele><time>2026-04-19T14:12:48.887Z</time></trkpt><trkpt lat="43.8913017" lon="12.501075"><ele>452.00000000000006</ele><time>2026-04-19T14:12:49.89Z</time></trkpt><trkpt lat="43.8912367" lon="12.5011917"><ele>452.00000000000006</ele><time>2026-04-19T14:12:50.885Z</time></trkpt><trkpt lat="43.89116" lon="12.501295"><ele>452.0</ele><time>2026-04-19T14:12:51.885Z</time></trkpt><trkpt lat="43.8910783" lon="12.501385"><ele>452.0</ele><time>2026-04-19T14:12:52.887Z</time></trkpt><trkpt lat="43.890995" lon="12.5014583"><ele>452.16666666666663</ele><time>2026-04-19T14:12:53.886Z</time></trkpt><trkpt lat="43.890925" lon="12.50154"><ele>452.3333333333333</ele><time>2026-04-19T14:12:54.89Z</time></trkpt><trkpt lat="43.89087" lon="12.5016283"><ele>452.5</ele><time>2026-04-19T14:12:55.889Z</time></trkpt><trkpt lat="43.8908367" lon="12.5017367"><ele>452.66666666666663</ele><time>2026-04-19T14:12:56.888Z</time></trkpt><trkpt lat="43.8908183" lon="12.501855"><ele>452.8333333333333</ele><time>2026-04-19T14:12:57.888Z</time></trkpt><trkpt lat="43.89082" lon="12.5019833"><ele>453.0</ele><time>2026-04-19T14:12:58.889Z</time></trkpt><trkpt lat="43.89084" lon="12.5021217"><ele>451.59999999999997</ele><time>2026-04-19T14:12:59.888Z</time></trkpt><trkpt lat="43.8908783" lon="12.5022633"><ele>450.19999999999993</ele><time>2026-04-19T14:13:00.888Z</time></trkpt><trkpt lat="43.8909133" lon="12.5024033"><ele>448.8</ele><time>2026-04-19T14:13:01.888Z</time></trkpt><trkpt lat="43.8909367" lon="12.5025433"><ele>447.4</ele><time>2026-04-19T14:13:02.885Z</time></trkpt><trkpt lat="43.8909467" lon="12.5026817"><ele>446.0</ele><time>2026-04-19T14:13:03.889Z</time></trkpt><trkpt lat="43.8909517" lon="12.5028183"><ele>443.20000000000005</ele><time>2026-04-19T14:13:04.889Z</time></trkpt><trkpt lat="43.8909517" lon="12.502955"><ele>440.40000000000003</ele><time>2026-04-19T14:13:05.889Z</time></trkpt><trkpt lat="43.8909567" lon="12.5030833"><ele>437.6</ele><time>2026-04-19T14:13:06.889Z</time></trkpt><trkpt lat="43.89097" lon="12.503215"><ele>434.8</ele><time>2026-04-19T14:13:07.886Z</time></trkpt><trkpt lat="43.8909883" lon="12.5033467"><ele>432.0</ele><time>2026-04-19T14:13:08.886Z</time></trkpt><trkpt lat="43.8910083" lon="12.503475"><ele>432.0</ele><time>2026-04-19T14:13:09.887Z</time></trkpt><trkpt lat="43.891025" lon="12.5035983"><ele>432.0</ele><time>2026-04-19T14:13:10.889Z</time></trkpt><trkpt lat="43.8910467" lon="12.5037217"><ele>432.0</ele><time>2026-04-19T14:13:11.889Z</time></trkpt><trkpt lat="43.8910683" lon="12.503845"><ele>432.0</ele><time>2026-04-19T14:13:12.888Z</time></trkpt><trkpt lat="43.8910883" lon="12.5039583"><ele>432.0</ele><time>2026-04-19T14:13:13.886Z</time></trkpt><trkpt lat="43.8911067" lon="12.5040583"><ele>432.0</ele><time>2026-04-19T14:13:14.89Z</time></trkpt><trkpt lat="43.891125" lon="12.5041967"><ele>432.3333333333333</ele><time>2026-04-19T14:13:16.885Z</time></trkpt><trkpt lat="43.891045" lon="12.50421"><ele>432.66666666666663</ele><time>2026-04-19T14:13:19.887Z</time></trkpt><trkpt lat="43.8909367" lon="12.50417"><ele>433.0</ele><time>2026-04-19T14:13:21.885Z</time></trkpt><trkpt lat="43.8908633" lon="12.5041417"><ele>433.3333333333333</ele><time>2026-04-19T14:13:22.886Z</time></trkpt><trkpt lat="43.8907817" lon="12.5041133"><ele>433.66666666666663</ele><time>2026-04-19T14:13:23.889Z</time></trkpt><trkpt lat="43.8906933" lon="12.5040883"><ele>434.0</ele><time>2026-04-19T14:13:24.889Z</time></trkpt><trkpt lat="43.8906067" lon="12.5040733"><ele>433.99999999999994</ele><time>2026-04-19T14:13:25.888Z</time></trkpt><trkpt lat="43.8905267" lon="12.5040683"><ele>434.0</ele><time>2026-04-19T14:13:26.889Z</time></trkpt><trkpt lat="43.8904517" lon="12.504055"><ele>434.0</ele><time>2026-04-19T14:13:27.89Z</time></trkpt><trkpt lat="43.8903767" lon="12.5040433"><ele>434.0</ele><time>2026-04-19T14:13:28.98Z</time></trkpt><trkpt lat="43.890305" lon="12.5040283"><ele>433.99999999999994</ele><time>2026-04-19T14:13:29.886Z</time></trkpt><trkpt lat="43.8902333" lon="12.5040083"><ele>434.0</ele><time>2026-04-19T14:13:30.888Z</time></trkpt><trkpt lat="43.8901583" lon="12.5040033"><ele>432.42857142857144</ele><time>2026-04-19T14:13:31.888Z</time></trkpt><trkpt lat="43.8900867" lon="12.5040033"><ele>430.8571428571429</ele><time>2026-04-19T14:13:32.888Z</time></trkpt><trkpt lat="43.8900117" lon="12.504015"><ele>429.2857142857143</ele><time>2026-04-19T14:13:33.885Z</time></trkpt><trkpt lat="43.8899417" lon="12.5040333"><ele>427.7142857142857</ele><time>2026-04-19T14:13:34.888Z</time></trkpt><trkpt lat="43.8898733" lon="12.504065"><ele>426.14285714285717</ele><time>2026-04-19T14:13:35.889Z</time></trkpt><trkpt lat="43.88981" lon="12.504115"><ele>424.57142857142856</ele><time>2026-04-19T14:13:36.887Z</time></trkpt><trkpt lat="43.8897533" lon="12.5041783"><ele>423.0</ele><time>2026-04-19T14:13:37.887Z</time></trkpt><trkpt lat="43.8897" lon="12.504255"><ele>423.0</ele><time>2026-04-19T14:13:38.887Z</time></trkpt><trkpt lat="43.8896467" lon="12.5043383"><ele>423.0</ele><time>2026-04-19T14:13:39.89Z</time></trkpt><trkpt lat="43.889595" lon="12.5044283"><ele>423.0</ele><time>2026-04-19T14:13:40.889Z</time></trkpt><trkpt lat="43.8895483" lon="12.5045233"><ele>423.0</ele><time>2026-04-19T14:13:41.887Z</time></trkpt><trkpt lat="43.8895133" lon="12.504615"><ele>423.0</ele><time>2026-04-19T14:13:42.887Z</time></trkpt><trkpt lat="43.8894817" lon="12.504705"><ele>423.0</ele><time>2026-04-19T14:13:43.888Z</time></trkpt><trkpt lat="43.8894417" lon="12.5047867"><ele>421.1428571428571</ele><time>2026-04-19T14:13:44.888Z</time></trkpt><trkpt lat="43.8893983" lon="12.5048617"><ele>419.28571428571433</ele><time>2026-04-19T14:13:45.888Z</time></trkpt><trkpt lat="43.8893467" lon="12.50492"><ele>417.42857142857144</ele><time>2026-04-19T14:13:46.889Z</time></trkpt><trkpt lat="43.88929" lon="12.50497"><ele>415.57142857142856</ele><time>2026-04-19T14:13:47.888Z</time></trkpt><trkpt lat="43.8892267" lon="12.5050167"><ele>413.71428571428567</ele><time>2026-04-19T14:13:48.891Z</time></trkpt><trkpt lat="43.8891617" lon="12.5050667"><ele>411.8571428571429</ele><time>2026-04-19T14:13:49.887Z</time></trkpt><trkpt lat="43.8890967" lon="12.5051217"><ele>410.0</ele><time>2026-04-19T14:13:50.885Z</time></trkpt><trkpt lat="43.88903" lon="12.5051717"><ele>409.42857142857144</ele><time>2026-04-19T14:13:51.888Z</time></trkpt><trkpt lat="43.8889617" lon="12.5052117"><ele>408.85714285714283</ele><time>2026-04-19T14:13:52.886Z</time></trkpt><trkpt lat="43.8888933" lon="12.5052417"><ele>408.2857142857143</ele><time>2026-04-19T14:13:53.887Z</time></trkpt><trkpt lat="43.8888233" lon="12.5052467"><ele>407.7142857142857</ele><time>2026-04-19T14:13:54.887Z</time></trkpt><trkpt lat="43.8887517" lon="12.5052317"><ele>407.1428571428571</ele><time>2026-04-19T14:13:55.888Z</time></trkpt><trkpt lat="43.8886867" lon="12.5052067"><ele>406.57142857142856</ele><time>2026-04-19T14:13:56.888Z</time></trkpt><trkpt lat="43.8886" lon="12.5051783"><ele>406.0</ele><time>2026-04-19T14:13:58.885Z</time></trkpt><trkpt lat="43.8885233" lon="12.5051883"><ele>406.00000000000006</ele><time>2026-04-19T14:14:00.887Z</time></trkpt><trkpt lat="43.8884417" lon="12.50524"><ele>406.0</ele><time>2026-04-19T14:14:02.886Z</time></trkpt><trkpt lat="43.888375" lon="12.5053117"><ele>406.0</ele><time>2026-04-19T14:14:05.885Z</time></trkpt><trkpt lat="43.8884367" lon="12.50528"><ele>406.0</ele><time>2026-04-19T14:14:20.887Z</time></trkpt><trkpt lat="43.8884917" lon="12.5052233"><ele>406.00000000000006</ele><time>2026-04-19T14:14:22.888Z</time></trkpt><trkpt lat="43.8885633" lon="12.5052067"><ele>406.0</ele><time>2026-04-19T14:14:24.887Z</time></trkpt><trkpt lat="43.8886383" lon="12.5052"><ele>406.00000000000006</ele><time>2026-04-19T14:14:26.887Z</time></trkpt><trkpt lat="43.8887083" lon="12.5052233"><ele>406.0</ele><time>2026-04-19T14:14:28.887Z</time></trkpt><trkpt lat="43.88879" lon="12.5052483"><ele>406.0</ele><time>2026-04-19T14:14:30.888Z</time></trkpt><trkpt lat="43.8888833" lon="12.50525"><ele>406.0</ele><time>2026-04-19T14:14:32.884Z</time></trkpt><trkpt lat="43.8889783" lon="12.5052167"><ele>406.00000000000006</ele><time>2026-04-19T14:14:34.885Z</time></trkpt><trkpt lat="43.88907" lon="12.505155"><ele>406.0</ele><time>2026-04-19T14:14:36.885Z</time></trkpt><trkpt lat="43.8891533" lon="12.50509"><ele>406.0</ele><time>2026-04-19T14:14:38.885Z</time></trkpt><trkpt lat="43.8892583" lon="12.505005"><ele>406.0</ele><time>2026-04-19T14:14:40.889Z</time></trkpt><trkpt lat="43.8893567" lon="12.504925"><ele>406.0</ele><time>2026-04-19T14:14:42.888Z</time></trkpt><trkpt lat="43.8894167" lon="12.5048567"><ele>406.0</ele><time>2026-04-19T14:14:44.887Z</time></trkpt><trkpt lat="43.8894533" lon="12.504765"><ele>406.0</ele><time>2026-04-19T14:14:46.887Z</time></trkpt><trkpt lat="43.88949" lon="12.504665"><ele>408.83333333333337</ele><time>2026-04-19T14:14:48.887Z</time></trkpt><trkpt lat="43.8895367" lon="12.5045417"><ele>411.6666666666667</ele><time>2026-04-19T14:14:50.887Z</time></trkpt><trkpt lat="43.8896" lon="12.5044117"><ele>414.5</ele><time>2026-04-19T14:14:52.888Z</time></trkpt><trkpt lat="43.8896417" lon="12.5043333"><ele>417.33333333333337</ele><time>2026-04-19T14:14:53.89Z</time></trkpt><trkpt lat="43.8896867" lon="12.504255"><ele>420.1666666666667</ele><time>2026-04-19T14:14:54.887Z</time></trkpt><trkpt lat="43.8897383" lon="12.50419"><ele>423.0</ele><time>2026-04-19T14:14:55.889Z</time></trkpt><trkpt lat="43.889795" lon="12.5041367"><ele>423.0</ele><time>2026-04-19T14:14:56.887Z</time></trkpt><trkpt lat="43.88986" lon="12.5040933"><ele>423.0</ele><time>2026-04-19T14:14:57.887Z</time></trkpt><trkpt lat="43.88994" lon="12.5040567"><ele>423.0</ele><time>2026-04-19T14:14:58.887Z</time></trkpt><trkpt lat="43.890025" lon="12.50403"><ele>423.0</ele><time>2026-04-19T14:14:59.885Z</time></trkpt><trkpt lat="43.8901083" lon="12.5040133"><ele>423.0</ele><time>2026-04-19T14:15:00.886Z</time></trkpt><trkpt lat="43.890195" lon="12.50402"><ele>423.0</ele><time>2026-04-19T14:15:01.888Z</time></trkpt><trkpt lat="43.8902917" lon="12.5040367"><ele>425.2</ele><time>2026-04-19T14:15:02.887Z</time></trkpt><trkpt lat="43.8903883" lon="12.504055"><ele>427.4</ele><time>2026-04-19T14:15:03.887Z</time></trkpt><trkpt lat="43.8904967" lon="12.504065"><ele>429.59999999999997</ele><time>2026-04-19T14:15:04.887Z</time></trkpt><trkpt lat="43.89061" lon="12.50407"><ele>431.79999999999995</ele><time>2026-04-19T14:15:05.889Z</time></trkpt><trkpt lat="43.8907217" lon="12.5040833"><ele>434.0</ele><time>2026-04-19T14:15:06.888Z</time></trkpt><trkpt lat="43.8908283" lon="12.5041083"><ele>433.99999999999994</ele><time>2026-04-19T14:15:07.887Z</time></trkpt><trkpt lat="43.89092" lon="12.5041333"><ele>434.0</ele><time>2026-04-19T14:15:08.888Z</time></trkpt><trkpt lat="43.8909933" lon="12.50416"><ele>434.0</ele><time>2026-04-19T14:15:09.885Z</time></trkpt><trkpt lat="43.891055" lon="12.5041933"><ele>434.0</ele><time>2026-04-19T14:15:10.889Z</time></trkpt><trkpt lat="43.891115" lon="12.5042467"><ele>433.99999999999994</ele><time>2026-04-19T14:15:12.887Z</time></trkpt><trkpt lat="43.89114" lon="12.504375"><ele>434.0</ele><time>2026-04-19T14:15:35.884Z</time></trkpt><trkpt lat="43.89116" lon="12.5045067"><ele>433.4</ele><time>2026-04-19T14:15:37.888Z</time></trkpt><trkpt lat="43.8911867" lon="12.504645"><ele>432.79999999999995</ele><time>2026-04-19T14:15:39.888Z</time></trkpt><trkpt lat="43.891225" lon="12.5047883"><ele>432.20000000000005</ele><time>2026-04-19T14:15:41.888Z</time></trkpt><trkpt lat="43.89129" lon="12.5049317"><ele>431.6</ele><time>2026-04-19T14:15:43.888Z</time></trkpt><trkpt lat="43.8913367" lon="12.5050033"><ele>431.0</ele><time>2026-04-19T14:15:44.887Z</time></trkpt><trkpt lat="43.8913867" lon="12.5050767"><ele>431.0</ele><time>2026-04-19T14:15:45.889Z</time></trkpt><trkpt lat="43.8914417" lon="12.5051533"><ele>431.0</ele><time>2026-04-19T14:15:46.887Z</time></trkpt><trkpt lat="43.891505" lon="12.5052367"><ele>431.0</ele><time>2026-04-19T14:15:47.886Z</time></trkpt><trkpt lat="43.8915733" lon="12.505335"><ele>431.0</ele><time>2026-04-19T14:15:48.886Z</time></trkpt><trkpt lat="43.89164" lon="12.5054483"><ele>431.0</ele><time>2026-04-19T14:15:49.885Z</time></trkpt><trkpt lat="43.8916967" lon="12.5055767"><ele>431.0</ele><time>2026-04-19T14:15:50.885Z</time></trkpt><trkpt lat="43.891735" lon="12.5057267"><ele>431.0</ele><time>2026-04-19T14:15:51.885Z</time></trkpt><trkpt lat="43.8917617" lon="12.5058917"><ele>431.0</ele><time>2026-04-19T14:15:52.887Z</time></trkpt><trkpt lat="43.8917767" lon="12.50605"><ele>431.0</ele><time>2026-04-19T14:15:53.886Z</time></trkpt><trkpt lat="43.89179" lon="12.5062"><ele>430.0</ele><time>2026-04-19T14:15:54.886Z</time></trkpt><trkpt lat="43.8918033" lon="12.5063533"><ele>429.0</ele><time>2026-04-19T14:15:55.887Z</time></trkpt><trkpt lat="43.891815" lon="12.506515"><ele>428.0</ele><time>2026-04-19T14:15:56.887Z</time></trkpt><trkpt lat="43.8918267" lon="12.5066833"><ele>427.0</ele><time>2026-04-19T14:15:57.885Z</time></trkpt><trkpt lat="43.8918433" lon="12.506865"><ele>427.0</ele><time>2026-04-19T14:15:58.886Z</time></trkpt><trkpt lat="43.8918617" lon="12.5070517"><ele>427.0</ele><time>2026-04-19T14:15:59.889Z</time></trkpt><trkpt lat="43.8918817" lon="12.5072333"><ele>427.0</ele><time>2026-04-19T14:16:00.889Z</time></trkpt><trkpt lat="43.8919" lon="12.5074067"><ele>427.0</ele><time>2026-04-19T14:16:01.889Z</time></trkpt><trkpt lat="43.8919133" lon="12.5075767"><ele>431.5</ele><time>2026-04-19T14:16:02.889Z</time></trkpt><trkpt lat="43.8919167" lon="12.5077467"><ele>436.0</ele><time>2026-04-19T14:16:03.888Z</time></trkpt><trkpt lat="43.8919" lon="12.5079183"><ele>440.5</ele><time>2026-04-19T14:16:04.888Z</time></trkpt><trkpt lat="43.89186" lon="12.5080883"><ele>445.0</ele><time>2026-04-19T14:16:05.886Z</time></trkpt><trkpt lat="43.8918017" lon="12.5082467"><ele>445.2</ele><time>2026-04-19T14:16:06.888Z</time></trkpt><trkpt lat="43.8917317" lon="12.5083833"><ele>445.4</ele><time>2026-04-19T14:16:07.885Z</time></trkpt><trkpt lat="43.8916533" lon="12.5085033"><ele>445.6</ele><time>2026-04-19T14:16:08.891Z</time></trkpt><trkpt lat="43.8915817" lon="12.50862"><ele>445.8</ele><time>2026-04-19T14:16:09.885Z</time></trkpt><trkpt lat="43.891525" lon="12.5087283"><ele>446.0</ele><time>2026-04-19T14:16:10.889Z</time></trkpt><trkpt lat="43.8914767" lon="12.508845"><ele>448.25</ele><time>2026-04-19T14:16:11.889Z</time></trkpt><trkpt lat="43.8914333" lon="12.50898"><ele>450.5</ele><time>2026-04-19T14:16:12.888Z</time></trkpt><trkpt lat="43.8913783" lon="12.5091267"><ele>452.75</ele><time>2026-04-19T14:16:13.888Z</time></trkpt><trkpt lat="43.8913233" lon="12.50929"><ele>455.0</ele><time>2026-04-19T14:16:14.887Z</time></trkpt><trkpt lat="43.89128" lon="12.5094767"><ele>455.0</ele><time>2026-04-19T14:16:15.888Z</time></trkpt><trkpt lat="43.8912517" lon="12.5096683"><ele>455.0</ele><time>2026-04-19T14:16:16.888Z</time></trkpt><trkpt lat="43.8912383" lon="12.5098517"><ele>455.0</ele><time>2026-04-19T14:16:17.884Z</time></trkpt><trkpt lat="43.89124" lon="12.51003"><ele>455.0</ele><time>2026-04-19T14:16:18.886Z</time></trkpt><trkpt lat="43.89126" lon="12.5102067"><ele>455.0</ele><time>2026-04-19T14:16:19.885Z</time></trkpt><trkpt lat="43.8912883" lon="12.5103783"><ele>455.0</ele><time>2026-04-19T14:16:20.888Z</time></trkpt><trkpt lat="43.8913217" lon="12.5105383"><ele>455.0</ele><time>2026-04-19T14:16:21.885Z</time></trkpt><trkpt lat="43.8913517" lon="12.510695"><ele>455.0</ele><time>2026-04-19T14:16:22.886Z</time></trkpt><trkpt lat="43.8913833" lon="12.5108433"><ele>454.2</ele><time>2026-04-19T14:16:23.885Z</time></trkpt><trkpt lat="43.89141" lon="12.5109833"><ele>453.4</ele><time>2026-04-19T14:16:24.887Z</time></trkpt><trkpt lat="43.8914183" lon="12.5111133"><ele>452.6</ele><time>2026-04-19T14:16:25.886Z</time></trkpt><trkpt lat="43.891415" lon="12.5112317"><ele>451.8</ele><time>2026-04-19T14:16:26.885Z</time></trkpt><trkpt lat="43.89139" lon="12.5113233"><ele>451.0</ele><time>2026-04-19T14:16:27.885Z</time></trkpt><trkpt lat="43.8912867" lon="12.5113867"><ele>451.0</ele><time>2026-04-19T14:16:29.889Z</time></trkpt><trkpt lat="43.8912033" lon="12.51131"><ele>451.0</ele><time>2026-04-19T14:16:30.889Z</time></trkpt><trkpt lat="43.8911233" lon="12.5111783"><ele>451.0</ele><time>2026-04-19T14:16:31.887Z</time></trkpt><trkpt lat="43.8910883" lon="12.5110233"><ele>451.0</ele><time>2026-04-19T14:16:32.887Z</time></trkpt><trkpt lat="43.8910617" lon="12.510765"><ele>450.33333333333337</ele><time>2026-04-19T14:16:33.887Z</time></trkpt><trkpt lat="43.8910117" lon="12.5105"><ele>449.66666666666663</ele><time>2026-04-19T14:16:34.886Z</time></trkpt><trkpt lat="43.8909717" lon="12.5102967"><ele>449.0</ele><time>2026-04-19T14:16:35.888Z</time></trkpt><trkpt lat="43.8909333" lon="12.5101267"><ele>445.99999999999994</ele><time>2026-04-19T14:16:36.885Z</time></trkpt><trkpt lat="43.89089" lon="12.509985"><ele>443.0</ele><time>2026-04-19T14:16:37.889Z</time></trkpt><trkpt lat="43.8908333" lon="12.5098817"><ele>440.0</ele><time>2026-04-19T14:16:38.888Z</time></trkpt><trkpt lat="43.890765" lon="12.5098167"><ele>437.0</ele><time>2026-04-19T14:16:39.888Z</time></trkpt><trkpt lat="43.89069" lon="12.5097933"><ele>433.99999999999994</ele><time>2026-04-19T14:16:40.889Z</time></trkpt><trkpt lat="43.8906183" lon="12.5098217"><ele>431.0</ele><time>2026-04-19T14:16:41.887Z</time></trkpt><trkpt lat="43.8905683" lon="12.5098983"><ele>431.0</ele><time>2026-04-19T14:16:42.889Z</time></trkpt><trkpt lat="43.8905683" lon="12.5100517"><ele>431.0</ele><time>2026-04-19T14:16:43.888Z</time></trkpt><trkpt lat="43.8905783" lon="12.5102183"><ele>431.0</ele><time>2026-04-19T14:16:44.888Z</time></trkpt><trkpt lat="43.8906117" lon="12.5104367"><ele>431.0</ele><time>2026-04-19T14:16:45.888Z</time></trkpt><trkpt lat="43.8906333" lon="12.5106217"><ele>429.25</ele><time>2026-04-19T14:16:46.885Z</time></trkpt><trkpt lat="43.8906533" lon="12.5108217"><ele>427.5</ele><time>2026-04-19T14:16:47.884Z</time></trkpt><trkpt lat="43.8906733" lon="12.51102"><ele>425.75</ele><time>2026-04-19T14:16:48.885Z</time></trkpt><trkpt lat="43.8906933" lon="12.5112233"><ele>424.0</ele><time>2026-04-19T14:16:49.886Z</time></trkpt><trkpt lat="43.8907133" lon="12.5114217"><ele>422.5</ele><time>2026-04-19T14:16:50.886Z</time></trkpt><trkpt lat="43.890745" lon="12.5116117"><ele>421.0</ele><time>2026-04-19T14:16:51.885Z</time></trkpt><trkpt lat="43.8907883" lon="12.5117933"><ele>419.5</ele><time>2026-04-19T14:16:52.886Z</time></trkpt><trkpt lat="43.890835" lon="12.5119667"><ele>418.0</ele><time>2026-04-19T14:16:53.884Z</time></trkpt><trkpt lat="43.890885" lon="12.51214"><ele>424.75</ele><time>2026-04-19T14:16:54.885Z</time></trkpt><trkpt lat="43.8909383" lon="12.5123117"><ele>431.5</ele><time>2026-04-19T14:16:55.885Z</time></trkpt><trkpt lat="43.89099" lon="12.5124883"><ele>438.25</ele><time>2026-04-19T14:16:56.885Z</time></trkpt><trkpt lat="43.891045" lon="12.51267"><ele>445.0</ele><time>2026-04-19T14:16:57.884Z</time></trkpt><trkpt lat="43.8910983" lon="12.5128483"><ele>440.0</ele><time>2026-04-19T14:16:58.887Z</time></trkpt><trkpt lat="43.8911517" lon="12.5130217"><ele>435.0</ele><time>2026-04-19T14:16:59.884Z</time></trkpt><trkpt lat="43.891205" lon="12.513185"><ele>430.0</ele><time>2026-04-19T14:17:00.887Z</time></trkpt><trkpt lat="43.8912533" lon="12.5133517"><ele>425.0</ele><time>2026-04-19T14:17:01.886Z</time></trkpt><trkpt lat="43.8913033" lon="12.513515"><ele>425.0</ele><time>2026-04-19T14:17:02.888Z</time></trkpt><trkpt lat="43.891355" lon="12.5136817"><ele>425.0</ele><time>2026-04-19T14:17:03.885Z</time></trkpt><trkpt lat="43.8914083" lon="12.5138533"><ele>425.0</ele><time>2026-04-19T14:17:04.888Z</time></trkpt><trkpt lat="43.891465" lon="12.5140317"><ele>425.0</ele><time>2026-04-19T14:17:05.89Z</time></trkpt><trkpt lat="43.8915217" lon="12.51421"><ele>418.0</ele><time>2026-04-19T14:17:06.886Z</time></trkpt><trkpt lat="43.891575" lon="12.5143833"><ele>411.0</ele><time>2026-04-19T14:17:07.886Z</time></trkpt><trkpt lat="43.89163" lon="12.5145517"><ele>404.0</ele><time>2026-04-19T14:17:08.889Z</time></trkpt><trkpt lat="43.8916783" lon="12.514715"><ele>397.0</ele><time>2026-04-19T14:17:09.885Z</time></trkpt><trkpt lat="43.89171" lon="12.514855"><ele>394.6</ele><time>2026-04-19T14:17:10.888Z</time></trkpt><trkpt lat="43.8917217" lon="12.51497"><ele>392.20000000000005</ele><time>2026-04-19T14:17:11.887Z</time></trkpt><trkpt lat="43.8917083" lon="12.515065"><ele>389.8</ele><time>2026-04-19T14:17:12.888Z</time></trkpt><trkpt lat="43.8916217" lon="12.51515"><ele>387.4</ele><time>2026-04-19T14:17:14.889Z</time></trkpt><trkpt lat="43.8914967" lon="12.5151067"><ele>385.0</ele><time>2026-04-19T14:17:16.885Z</time></trkpt><trkpt lat="43.8914617" lon="12.5150017"><ele>385.0</ele><time>2026-04-19T14:17:17.884Z</time></trkpt><trkpt lat="43.891445" lon="12.514755"><ele>385.0</ele><time>2026-04-19T14:17:18.887Z</time></trkpt><trkpt lat="43.8913983" lon="12.51464"><ele>385.0</ele><time>2026-04-19T14:17:19.886Z</time></trkpt><trkpt lat="43.8913417" lon="12.5145167"><ele>385.0</ele><time>2026-04-19T14:17:20.885Z</time></trkpt><trkpt lat="43.8912917" lon="12.5144383"><ele>385.0</ele><time>2026-04-19T14:17:21.885Z</time></trkpt><trkpt lat="43.8912283" lon="12.514415"><ele>385.0</ele><time>2026-04-19T14:17:22.886Z</time></trkpt><trkpt lat="43.8911633" lon="12.5144617"><ele>385.0</ele><time>2026-04-19T14:17:23.889Z</time></trkpt><trkpt lat="43.8910983" lon="12.5146217"><ele>385.0</ele><time>2026-04-19T14:17:25.888Z</time></trkpt><trkpt lat="43.8911283" lon="12.5148233"><ele>385.0</ele><time>2026-04-19T14:17:26.885Z</time></trkpt><trkpt lat="43.89122" lon="12.5151183"><ele>385.0</ele><time>2026-04-19T14:17:27.884Z</time></trkpt><trkpt lat="43.891265" lon="12.515335"><ele>385.0</ele><time>2026-04-19T14:17:28.886Z</time></trkpt><trkpt lat="43.8913083" lon="12.515545"><ele>385.0</ele><time>2026-04-19T14:17:29.885Z</time></trkpt><trkpt lat="43.89135" lon="12.5157533"><ele>383.25</ele><time>2026-04-19T14:17:30.886Z</time></trkpt><trkpt lat="43.89139" lon="12.5159517"><ele>381.5</ele><time>2026-04-19T14:17:31.889Z</time></trkpt><trkpt lat="43.89143" lon="12.516135"><ele>379.75</ele><time>2026-04-19T14:17:32.888Z</time></trkpt><trkpt lat="43.8914683" lon="12.51631"><ele>378.0</ele><time>2026-04-19T14:17:33.887Z</time></trkpt><trkpt lat="43.8915067" lon="12.5164867"><ele>375.25</ele><time>2026-04-19T14:17:34.889Z</time></trkpt><trkpt lat="43.8915467" lon="12.5166667"><ele>372.5</ele><time>2026-04-19T14:17:35.888Z</time></trkpt><trkpt lat="43.89159" lon="12.516855"><ele>369.75</ele><time>2026-04-19T14:17:36.889Z</time></trkpt><trkpt lat="43.89163" lon="12.5170367"><ele>367.0</ele><time>2026-04-19T14:17:37.885Z</time></trkpt><trkpt lat="43.8916617" lon="12.5172117"><ele>365.40000000000003</ele><time>2026-04-19T14:17:38.887Z</time></trkpt><trkpt lat="43.891685" lon="12.517375"><ele>363.8</ele><time>2026-04-19T14:17:39.888Z</time></trkpt><trkpt lat="43.8917017" lon="12.5175217"><ele>362.2</ele><time>2026-04-19T14:17:40.888Z</time></trkpt><trkpt lat="43.891715" lon="12.5176583"><ele>360.6</ele><time>2026-04-19T14:17:41.887Z</time></trkpt><trkpt lat="43.89172" lon="12.51778"><ele>359.0</ele><time>2026-04-19T14:17:42.888Z</time></trkpt><trkpt lat="43.8917233" lon="12.5178933"><ele>359.1666666666667</ele><time>2026-04-19T14:17:43.889Z</time></trkpt><trkpt lat="43.891725" lon="12.5179983"><ele>359.33333333333337</ele><time>2026-04-19T14:17:44.888Z</time></trkpt><trkpt lat="43.8917233" lon="12.5180917"><ele>359.5</ele><time>2026-04-19T14:17:45.889Z</time></trkpt><trkpt lat="43.89173" lon="12.51823"><ele>359.6666666666667</ele><time>2026-04-19T14:17:47.887Z</time></trkpt><trkpt lat="43.8917933" lon="12.51826"><ele>359.8333333333333</ele><time>2026-04-19T14:17:50.885Z</time></trkpt><trkpt lat="43.8918717" lon="12.5182183"><ele>360.0</ele><time>2026-04-19T14:17:52.886Z</time></trkpt><trkpt lat="43.8919833" lon="12.51815"><ele>358.5</ele><time>2026-04-19T14:17:54.889Z</time></trkpt><trkpt lat="43.8920467" lon="12.5180933"><ele>357.0</ele><time>2026-04-19T14:17:55.889Z</time></trkpt><trkpt lat="43.8921133" lon="12.51803"><ele>355.5</ele><time>2026-04-19T14:17:56.888Z</time></trkpt><trkpt lat="43.8921817" lon="12.5179583"><ele>354.0</ele><time>2026-04-19T14:17:57.887Z</time></trkpt><trkpt lat="43.8922433" lon="12.5178817"><ele>352.5</ele><time>2026-04-19T14:17:58.888Z</time></trkpt><trkpt lat="43.8923" lon="12.5177933"><ele>351.0</ele><time>2026-04-19T14:17:59.889Z</time></trkpt><trkpt lat="43.892355" lon="12.5177"><ele>351.0</ele><time>2026-04-19T14:18:00.889Z</time></trkpt><trkpt lat="43.8924133" lon="12.5176167"><ele>351.0</ele><time>2026-04-19T14:18:01.892Z</time></trkpt><trkpt lat="43.8924767" lon="12.5175433"><ele>351.0</ele><time>2026-04-19T14:18:02.889Z</time></trkpt><trkpt lat="43.892545" lon="12.5174883"><ele>351.0</ele><time>2026-04-19T14:18:03.889Z</time></trkpt><trkpt lat="43.892625" lon="12.5174467"><ele>351.0</ele><time>2026-04-19T14:18:04.886Z</time></trkpt><trkpt lat="43.8927083" lon="12.5174117"><ele>351.0</ele><time>2026-04-19T14:18:05.888Z</time></trkpt><trkpt lat="43.8927933" lon="12.5173733"><ele>350.0</ele><time>2026-04-19T14:18:06.888Z</time></trkpt><trkpt lat="43.8928767" lon="12.517325"><ele>349.0</ele><time>2026-04-19T14:18:07.889Z</time></trkpt><trkpt lat="43.8929633" lon="12.51726"><ele>348.0</ele><time>2026-04-19T14:18:08.889Z</time></trkpt><trkpt lat="43.8930467" lon="12.517175"><ele>347.0</ele><time>2026-04-19T14:18:09.888Z</time></trkpt><trkpt lat="43.89313" lon="12.5170683"><ele>346.0</ele><time>2026-04-19T14:18:10.887Z</time></trkpt><trkpt lat="43.893215" lon="12.5169517"><ele>346.0</ele><time>2026-04-19T14:18:11.884Z</time></trkpt><trkpt lat="43.8932917" lon="12.5168333"><ele>346.0</ele><time>2026-04-19T14:18:12.886Z</time></trkpt><trkpt lat="43.8933633" lon="12.516725"><ele>346.0</ele><time>2026-04-19T14:18:13.887Z</time></trkpt><trkpt lat="43.8934417" lon="12.516635"><ele>346.0</ele><time>2026-04-19T14:18:14.884Z</time></trkpt><trkpt lat="43.8935217" lon="12.5165517"><ele>346.0</ele><time>2026-04-19T14:18:15.887Z</time></trkpt><trkpt lat="43.893605" lon="12.5164683"><ele>345.25</ele><time>2026-04-19T14:18:16.888Z</time></trkpt><trkpt lat="43.8936917" lon="12.5163767"><ele>344.5</ele><time>2026-04-19T14:18:17.884Z</time></trkpt><trkpt lat="43.893795" lon="12.516305"><ele>343.75</ele><time>2026-04-19T14:18:18.889Z</time></trkpt><trkpt lat="43.8939133" lon="12.51625"><ele>343.0</ele><time>2026-04-19T14:18:19.888Z</time></trkpt><trkpt lat="43.8940367" lon="12.516195"><ele>343.0</ele><time>2026-04-19T14:18:20.888Z</time></trkpt><trkpt lat="43.8941583" lon="12.5161333"><ele>343.0</ele><time>2026-04-19T14:18:21.888Z</time></trkpt><trkpt lat="43.89427" lon="12.516065"><ele>343.0</ele><time>2026-04-19T14:18:22.888Z</time></trkpt><trkpt lat="43.8943817" lon="12.5159883"><ele>343.0</ele><time>2026-04-19T14:18:23.888Z</time></trkpt><trkpt lat="43.8944933" lon="12.5158983"><ele>342.25</ele><time>2026-04-19T14:18:24.888Z</time></trkpt><trkpt lat="43.8946083" lon="12.5158017"><ele>341.5</ele><time>2026-04-19T14:18:25.888Z</time></trkpt><trkpt lat="43.8947183" lon="12.5157117"><ele>340.75</ele><time>2026-04-19T14:18:26.888Z</time></trkpt><trkpt lat="43.894815" lon="12.5156383"><ele>340.0</ele><time>2026-04-19T14:18:27.887Z</time></trkpt><trkpt lat="43.894905" lon="12.515555"><ele>340.0</ele><time>2026-04-19T14:18:28.889Z</time></trkpt><trkpt lat="43.8949867" lon="12.515465"><ele>340.0</ele><time>2026-04-19T14:18:29.885Z</time></trkpt><trkpt lat="43.8950633" lon="12.5153617"><ele>340.0</ele><time>2026-04-19T14:18:30.889Z</time></trkpt><trkpt lat="43.89513" lon="12.5152667"><ele>340.0</ele><time>2026-04-19T14:18:31.888Z</time></trkpt><trkpt lat="43.8951917" lon="12.515175"><ele>340.0</ele><time>2026-04-19T14:18:32.889Z</time></trkpt><trkpt lat="43.895245" lon="12.5150833"><ele>340.8</ele><time>2026-04-19T14:18:33.89Z</time></trkpt><trkpt lat="43.8952933" lon="12.5150067"><ele>341.6</ele><time>2026-04-19T14:18:34.886Z</time></trkpt><trkpt lat="43.8953717" lon="12.5148933"><ele>342.4</ele><time>2026-04-19T14:18:36.888Z</time></trkpt><trkpt lat="43.895435" lon="12.5148933"><ele>343.2</ele><time>2026-04-19T14:18:40.888Z</time></trkpt><trkpt lat="43.8955217" lon="12.514995"><ele>344.0</ele><time>2026-04-19T14:18:42.888Z</time></trkpt><trkpt lat="43.8955833" lon="12.5150817"><ele>344.0</ele><time>2026-04-19T14:18:43.888Z</time></trkpt><trkpt lat="43.8956483" lon="12.5151783"><ele>344.0</ele><time>2026-04-19T14:18:44.888Z</time></trkpt><trkpt lat="43.8957083" lon="12.515275"><ele>344.0</ele><time>2026-04-19T14:18:45.888Z</time></trkpt><trkpt lat="43.8957567" lon="12.51536"><ele>344.0</ele><time>2026-04-19T14:18:46.888Z</time></trkpt><trkpt lat="43.8958317" lon="12.5154667"><ele>344.0</ele><time>2026-04-19T14:18:48.891Z</time></trkpt><trkpt lat="43.8959317" lon="12.5155"><ele>342.5</ele><time>2026-04-19T14:18:50.888Z</time></trkpt><trkpt lat="43.8959983" lon="12.5155083"><ele>341.0</ele><time>2026-04-19T14:18:51.888Z</time></trkpt><trkpt lat="43.8960667" lon="12.5155117"><ele>339.5</ele><time>2026-04-19T14:18:52.888Z</time></trkpt><trkpt lat="43.8961367" lon="12.5155083"><ele>338.0</ele><time>2026-04-19T14:18:53.888Z</time></trkpt><trkpt lat="43.8962017" lon="12.515505"><ele>336.5</ele><time>2026-04-19T14:18:54.888Z</time></trkpt><trkpt lat="43.8963167" lon="12.5154967"><ele>335.0</ele><time>2026-04-19T14:18:56.888Z</time></trkpt><trkpt lat="43.896435" lon="12.5154817"><ele>335.0</ele><time>2026-04-19T14:18:58.889Z</time></trkpt><trkpt lat="43.8965583" lon="12.5154483"><ele>335.0</ele><time>2026-04-19T14:19:00.888Z</time></trkpt><trkpt lat="43.8966233" lon="12.5154183"><ele>335.0</ele><time>2026-04-19T14:19:01.887Z</time></trkpt><trkpt lat="43.8966883" lon="12.515375"><ele>335.0</ele><time>2026-04-19T14:19:02.887Z</time></trkpt><trkpt lat="43.8967517" lon="12.515325"><ele>335.0</ele><time>2026-04-19T14:19:03.887Z</time></trkpt><trkpt lat="43.8968083" lon="12.51527"><ele>335.0</ele><time>2026-04-19T14:19:04.887Z</time></trkpt><trkpt lat="43.8968633" lon="12.5152067"><ele>332.83333333333337</ele><time>2026-04-19T14:19:05.887Z</time></trkpt><trkpt lat="43.8969117" lon="12.5151467"><ele>330.6666666666667</ele><time>2026-04-19T14:19:06.887Z</time></trkpt><trkpt lat="43.897" lon="12.5150533"><ele>328.5</ele><time>2026-04-19T14:19:08.888Z</time></trkpt><trkpt lat="43.8970967" lon="12.5150433"><ele>326.3333333333333</ele><time>2026-04-19T14:19:10.885Z</time></trkpt><trkpt lat="43.8971683" lon="12.5150433"><ele>324.16666666666663</ele><time>2026-04-19T14:19:13.887Z</time></trkpt><trkpt lat="43.897095" lon="12.51503"><ele>322.0</ele><time>2026-04-19T14:19:23.887Z</time></trkpt><trkpt lat="43.8969933" lon="12.515105"><ele>322.0</ele><time>2026-04-19T14:19:25.887Z</time></trkpt><trkpt lat="43.8969317" lon="12.5151583"><ele>322.0</ele><time>2026-04-19T14:19:26.888Z</time></trkpt><trkpt lat="43.8968583" lon="12.5152367"><ele>322.0</ele><time>2026-04-19T14:19:27.889Z</time></trkpt><trkpt lat="43.8967717" lon="12.51532"><ele>322.0</ele><time>2026-04-19T14:19:28.888Z</time></trkpt><trkpt lat="43.8966817" lon="12.5153867"><ele>322.0</ele><time>2026-04-19T14:19:29.887Z</time></trkpt><trkpt lat="43.8965867" lon="12.5154367"><ele>324.6</ele><time>2026-04-19T14:19:30.888Z</time></trkpt><trkpt lat="43.8964833" lon="12.5154667"><ele>327.20000000000005</ele><time>2026-04-19T14:19:31.889Z</time></trkpt><trkpt lat="43.89638" lon="12.515485"><ele>329.8</ele><time>2026-04-19T14:19:32.887Z</time></trkpt><trkpt lat="43.8962783" lon="12.5154933"><ele>332.4</ele><time>2026-04-19T14:19:33.888Z</time></trkpt><trkpt lat="43.896175" lon="12.5154933"><ele>335.0</ele><time>2026-04-19T14:19:34.887Z</time></trkpt><trkpt lat="43.8960767" lon="12.5154867"><ele>335.0</ele><time>2026-04-19T14:19:35.888Z</time></trkpt><trkpt lat="43.89599" lon="12.51548"><ele>335.0</ele><time>2026-04-19T14:19:36.888Z</time></trkpt><trkpt lat="43.8959183" lon="12.5154717"><ele>335.0</ele><time>2026-04-19T14:19:37.891Z</time></trkpt><trkpt lat="43.8958117" lon="12.5154383"><ele>335.0</ele><time>2026-04-19T14:19:39.887Z</time></trkpt><trkpt lat="43.89573" lon="12.51534"><ele>335.0</ele><time>2026-04-19T14:19:41.888Z</time></trkpt><trkpt lat="43.895685" lon="12.5152617"><ele>335.0</ele><time>2026-04-19T14:19:42.887Z</time></trkpt><trkpt lat="43.8956333" lon="12.5151783"><ele>336.5</ele><time>2026-04-19T14:19:43.889Z</time></trkpt><trkpt lat="43.8955783" lon="12.515095"><ele>338.0</ele><time>2026-04-19T14:19:44.887Z</time></trkpt><trkpt lat="43.895525" lon="12.5150133"><ele>339.5</ele><time>2026-04-19T14:19:45.888Z</time></trkpt><trkpt lat="43.89547" lon="12.5149483"><ele>341.0</ele><time>2026-04-19T14:19:46.888Z</time></trkpt><trkpt lat="43.8953833" lon="12.5148817"><ele>342.5</ele><time>2026-04-19T14:19:48.888Z</time></trkpt><trkpt lat="43.8953467" lon="12.5147833"><ele>344.0</ele><time>2026-04-19T14:20:08.887Z</time></trkpt><trkpt lat="43.89532" lon="12.5146617"><ele>343.0</ele><time>2026-04-19T14:20:10.888Z</time></trkpt><trkpt lat="43.8952867" lon="12.5145383"><ele>342.0</ele><time>2026-04-19T14:20:12.889Z</time></trkpt><trkpt lat="43.895245" lon="12.514415"><ele>341.0</ele><time>2026-04-19T14:20:14.888Z</time></trkpt><trkpt lat="43.8952" lon="12.5142933"><ele>340.0</ele><time>2026-04-19T14:20:16.887Z</time></trkpt><trkpt lat="43.895155" lon="12.5141833"><ele>339.0</ele><time>2026-04-19T14:20:18.887Z</time></trkpt><trkpt lat="43.8951183" lon="12.514075"><ele>339.0</ele><time>2026-04-19T14:20:20.887Z</time></trkpt><trkpt lat="43.8950983" lon="12.513975"><ele>339.0</ele><time>2026-04-19T14:20:22.884Z</time></trkpt><trkpt lat="43.8950717" lon="12.5138667"><ele>339.0</ele><time>2026-04-19T14:20:24.884Z</time></trkpt><trkpt lat="43.89503" lon="12.51374"><ele>339.0</ele><time>2026-04-19T14:20:26.887Z</time></trkpt><trkpt lat="43.89499" lon="12.5136133"><ele>339.0</ele><time>2026-04-19T14:20:28.889Z</time></trkpt><trkpt lat="43.8949517" lon="12.5135233"><ele>339.0</ele><time>2026-04-19T14:20:30.887Z</time></trkpt><trkpt lat="43.8948917" lon="12.5134117"><ele>345.5</ele><time>2026-04-19T14:20:32.887Z</time></trkpt><trkpt lat="43.8948267" lon="12.5132767"><ele>352.0</ele><time>2026-04-19T14:20:34.885Z</time></trkpt><trkpt lat="43.8947617" lon="12.5131483"><ele>358.5</ele><time>2026-04-19T14:20:36.888Z</time></trkpt><trkpt lat="43.894695" lon="12.5130133"><ele>365.0</ele><time>2026-04-19T14:20:38.887Z</time></trkpt><trkpt lat="43.8946317" lon="12.5128883"><ele>365.0</ele><time>2026-04-19T14:20:40.886Z</time></trkpt><trkpt lat="43.894565" lon="12.5128067"><ele>365.0</ele><time>2026-04-19T14:20:42.887Z</time></trkpt><trkpt lat="43.8944767" lon="12.5127483"><ele>365.0</ele><time>2026-04-19T14:20:44.887Z</time></trkpt><trkpt lat="43.8943867" lon="12.5126783"><ele>365.0</ele><time>2026-04-19T14:20:46.887Z</time></trkpt><trkpt lat="43.8943133" lon="12.5125633"><ele>365.0</ele><time>2026-04-19T14:20:48.887Z</time></trkpt><trkpt lat="43.89427" lon="12.5124217"><ele>370.0</ele><time>2026-04-19T14:20:50.885Z</time></trkpt><trkpt lat="43.89424" lon="12.51227"><ele>375.0</ele><time>2026-04-19T14:20:52.886Z</time></trkpt><trkpt lat="43.8941983" lon="12.51212"><ele>380.0</ele><time>2026-04-19T14:20:54.885Z</time></trkpt><trkpt lat="43.8941533" lon="12.5119783"><ele>385.0</ele><time>2026-04-19T14:20:56.884Z</time></trkpt><trkpt lat="43.894115" lon="12.511855"><ele>390.0</ele><time>2026-04-19T14:20:58.885Z</time></trkpt><trkpt lat="43.8940717" lon="12.5117767"><ele>391.5</ele><time>2026-04-19T14:21:00.885Z</time></trkpt><trkpt lat="43.8939967" lon="12.5117033"><ele>393.0</ele><time>2026-04-19T14:21:02.885Z</time></trkpt><trkpt lat="43.893905" lon="12.5116067"><ele>394.5</ele><time>2026-04-19T14:21:04.886Z</time></trkpt><trkpt lat="43.89385" lon="12.511555"><ele>396.0</ele><time>2026-04-19T14:21:05.885Z</time></trkpt><trkpt lat="43.8937933" lon="12.5115017"><ele>397.5</ele><time>2026-04-19T14:21:06.885Z</time></trkpt><trkpt lat="43.8937267" lon="12.51145"><ele>399.0</ele><time>2026-04-19T14:21:07.884Z</time></trkpt><trkpt lat="43.893665" lon="12.5114083"><ele>399.0</ele><time>2026-04-19T14:21:08.887Z</time></trkpt><trkpt lat="43.8936033" lon="12.51137"><ele>399.0</ele><time>2026-04-19T14:21:09.884Z</time></trkpt><trkpt lat="43.8935467" lon="12.51133"><ele>399.0</ele><time>2026-04-19T14:21:10.885Z</time></trkpt><trkpt lat="43.893495" lon="12.5112733"><ele>399.0</ele><time>2026-04-19T14:21:11.886Z</time></trkpt><trkpt lat="43.8934167" lon="12.5111683"><ele>399.0</ele><time>2026-04-19T14:21:13.886Z</time></trkpt><trkpt lat="43.8933583" lon="12.51109"><ele>399.0</ele><time>2026-04-19T14:21:15.885Z</time></trkpt><trkpt lat="43.8932817" lon="12.5110667"><ele>401.6666666666667</ele><time>2026-04-19T14:21:33.884Z</time></trkpt><trkpt lat="43.8932067" lon="12.5111233"><ele>404.33333333333337</ele><time>2026-04-19T14:21:35.889Z</time></trkpt><trkpt lat="43.8930967" lon="12.5112083"><ele>407.0</ele><time>2026-04-19T14:21:37.888Z</time></trkpt><trkpt lat="43.893035" lon="12.5112583"><ele>409.6666666666667</ele><time>2026-04-19T14:21:38.888Z</time></trkpt><trkpt lat="43.892975" lon="12.5113167"><ele>412.33333333333337</ele><time>2026-04-19T14:21:39.884Z</time></trkpt><trkpt lat="43.8929133" lon="12.5113767"><ele>415.0</ele><time>2026-04-19T14:21:40.886Z</time></trkpt><trkpt lat="43.8928567" lon="12.5114333"><ele>415.0</ele><time>2026-04-19T14:21:41.885Z</time></trkpt><trkpt lat="43.8928" lon="12.51149"><ele>415.0</ele><time>2026-04-19T14:21:42.885Z</time></trkpt><trkpt lat="43.8927383" lon="12.5115483"><ele>415.0</ele><time>2026-04-19T14:21:43.884Z</time></trkpt><trkpt lat="43.8926783" lon="12.5116167"><ele>415.0</ele><time>2026-04-19T14:21:44.885Z</time></trkpt><trkpt lat="43.89262" lon="12.5116817"><ele>415.0</ele><time>2026-04-19T14:21:45.886Z</time></trkpt><trkpt lat="43.8925633" lon="12.5117517"><ele>415.0</ele><time>2026-04-19T14:21:46.884Z</time></trkpt><trkpt lat="43.8925083" lon="12.5118133"><ele>415.0</ele><time>2026-04-19T14:21:47.885Z</time></trkpt><trkpt lat="43.8924117" lon="12.5119167"><ele>418.8</ele><time>2026-04-19T14:21:49.885Z</time></trkpt><trkpt lat="43.8923233" lon="12.5120183"><ele>422.6</ele><time>2026-04-19T14:21:51.886Z</time></trkpt><trkpt lat="43.8922683" lon="12.5121167"><ele>426.4</ele><time>2026-04-19T14:21:53.886Z</time></trkpt><trkpt lat="43.892225" lon="12.5122333"><ele>430.2</ele><time>2026-04-19T14:21:55.887Z</time></trkpt><trkpt lat="43.8921733" lon="12.51237"><ele>434.0</ele><time>2026-04-19T14:21:57.884Z</time></trkpt><trkpt lat="43.8921317" lon="12.5124933"><ele>434.0</ele><time>2026-04-19T14:21:59.885Z</time></trkpt><trkpt lat="43.8921517" lon="12.512395"><ele>434.0</ele><time>2026-04-19T14:22:05.885Z</time></trkpt><trkpt lat="43.8921783" lon="12.5122367"><ele>434.0</ele><time>2026-04-19T14:22:07.886Z</time></trkpt><trkpt lat="43.892175" lon="12.5121017"><ele>434.0</ele><time>2026-04-19T14:22:09.885Z</time></trkpt><trkpt lat="43.892175" lon="12.511935"><ele>434.0</ele><time>2026-04-19T14:22:11.885Z</time></trkpt><trkpt lat="43.892185" lon="12.5118367"><ele>435.3333333333333</ele><time>2026-04-19T14:22:12.887Z</time></trkpt><trkpt lat="43.8921967" lon="12.5117417"><ele>436.66666666666663</ele><time>2026-04-19T14:22:13.889Z</time></trkpt><trkpt lat="43.892215" lon="12.5116383"><ele>438.0</ele><time>2026-04-19T14:22:14.885Z</time></trkpt><trkpt lat="43.89224" lon="12.511525"><ele>439.33333333333337</ele><time>2026-04-19T14:22:15.884Z</time></trkpt><trkpt lat="43.892265" lon="12.5113983"><ele>440.6666666666667</ele><time>2026-04-19T14:22:16.886Z</time></trkpt><trkpt lat="43.8922867" lon="12.5112633"><ele>442.0</ele><time>2026-04-19T14:22:17.884Z</time></trkpt><trkpt lat="43.8923017" lon="12.511125"><ele>443.6</ele><time>2026-04-19T14:22:18.885Z</time></trkpt><trkpt lat="43.8923183" lon="12.5109717"><ele>445.20000000000005</ele><time>2026-04-19T14:22:19.886Z</time></trkpt><trkpt lat="43.892335" lon="12.510825"><ele>446.8</ele><time>2026-04-19T14:22:20.885Z</time></trkpt><trkpt lat="43.892355" lon="12.51067"><ele>448.4</ele><time>2026-04-19T14:22:21.886Z</time></trkpt><trkpt lat="43.8923683" lon="12.5105417"><ele>450.0</ele><time>2026-04-19T14:22:22.888Z</time></trkpt><trkpt lat="43.8923767" lon="12.5104333"><ele>451.5</ele><time>2026-04-19T14:22:23.884Z</time></trkpt><trkpt lat="43.89238" lon="12.51034"><ele>453.0</ele><time>2026-04-19T14:22:24.886Z</time></trkpt><trkpt lat="43.892385" lon="12.510245"><ele>454.5</ele><time>2026-04-19T14:22:25.885Z</time></trkpt><trkpt lat="43.8924017" lon="12.5100717"><ele>456.0</ele><time>2026-04-19T14:22:27.884Z</time></trkpt><trkpt lat="43.8924283" lon="12.5099183"><ele>457.5</ele><time>2026-04-19T14:22:29.884Z</time></trkpt><trkpt lat="43.8924433" lon="12.5098317"><ele>459.0</ele><time>2026-04-19T14:22:30.885Z</time></trkpt><trkpt lat="43.8924617" lon="12.5097417"><ele>459.0</ele><time>2026-04-19T14:22:31.886Z</time></trkpt><trkpt lat="43.8924833" lon="12.5096467"><ele>459.0</ele><time>2026-04-19T14:22:32.886Z</time></trkpt><trkpt lat="43.8925033" lon="12.5095467"><ele>459.0</ele><time>2026-04-19T14:22:33.884Z</time></trkpt><trkpt lat="43.8925267" lon="12.509445"><ele>459.0</ele><time>2026-04-19T14:22:34.886Z</time></trkpt><trkpt lat="43.8925483" lon="12.5093433"><ele>459.0</ele><time>2026-04-19T14:22:35.885Z</time></trkpt><trkpt lat="43.8925617" lon="12.5092367"><ele>459.0</ele><time>2026-04-19T14:22:36.886Z</time></trkpt><trkpt lat="43.8925633" lon="12.509135"><ele>459.2</ele><time>2026-04-19T14:22:37.886Z</time></trkpt><trkpt lat="43.8925533" lon="12.5090417"><ele>459.4</ele><time>2026-04-19T14:22:38.884Z</time></trkpt><trkpt lat="43.892535" lon="12.50895"><ele>459.6</ele><time>2026-04-19T14:22:39.888Z</time></trkpt><trkpt lat="43.8924867" lon="12.5088367"><ele>459.8</ele><time>2026-04-19T14:22:41.888Z</time></trkpt><trkpt lat="43.8923883" lon="12.5087667"><ele>460.0</ele><time>2026-04-19T14:22:43.885Z</time></trkpt><trkpt lat="43.892265" lon="12.5087033"><ele>459.2</ele><time>2026-04-19T14:22:45.886Z</time></trkpt><trkpt lat="43.8921567" lon="12.5086633"><ele>458.4</ele><time>2026-04-19T14:22:47.885Z</time></trkpt><trkpt lat="43.8920917" lon="12.5086283"><ele>457.6</ele><time>2026-04-19T14:22:49.887Z</time></trkpt><trkpt lat="43.892035" lon="12.5085617"><ele>456.8</ele><time>2026-04-19T14:22:51.885Z</time></trkpt><trkpt lat="43.891945" lon="12.50853"><ele>456.0</ele><time>2026-04-19T14:22:53.888Z</time></trkpt><trkpt lat="43.8918367" lon="12.508575"><ele>455.8</ele><time>2026-04-19T14:22:55.889Z</time></trkpt><trkpt lat="43.8917283" lon="12.5086717"><ele>455.6</ele><time>2026-04-19T14:22:57.885Z</time></trkpt><trkpt lat="43.8916317" lon="12.50875"><ele>455.4</ele><time>2026-04-19T14:22:59.888Z</time></trkpt><trkpt lat="43.8915667" lon="12.50878"><ele>455.2</ele><time>2026-04-19T14:23:01.885Z</time></trkpt><trkpt lat="43.891505" lon="12.5088417"><ele>455.0</ele><time>2026-04-19T14:23:38.889Z</time></trkpt><trkpt lat="43.89147" lon="12.508925"><ele>455.0</ele><time>2026-04-19T14:23:39.888Z</time></trkpt><trkpt lat="43.89143" lon="12.509025"><ele>455.0</ele><time>2026-04-19T14:23:40.888Z</time></trkpt><trkpt lat="43.8913833" lon="12.5091483"><ele>455.0</ele><time>2026-04-19T14:23:41.892Z</time></trkpt><trkpt lat="43.89134" lon="12.509275"><ele>455.0</ele><time>2026-04-19T14:23:42.889Z</time></trkpt><trkpt lat="43.8913017" lon="12.5094233"><ele>455.0</ele><time>2026-04-19T14:23:43.888Z</time></trkpt><trkpt lat="43.8912733" lon="12.509585"><ele>455.0</ele><time>2026-04-19T14:23:44.887Z</time></trkpt><trkpt lat="43.8912583" lon="12.509745"><ele>455.0</ele><time>2026-04-19T14:23:45.889Z</time></trkpt><trkpt lat="43.89126" lon="12.509895"><ele>455.0</ele><time>2026-04-19T14:23:46.888Z</time></trkpt><trkpt lat="43.89127" lon="12.51004"><ele>455.0</ele><time>2026-04-19T14:23:47.888Z</time></trkpt><trkpt lat="43.8912833" lon="12.510175"><ele>455.0</ele><time>2026-04-19T14:23:48.889Z</time></trkpt><trkpt lat="43.8913017" lon="12.510305"><ele>453.99999999999994</ele><time>2026-04-19T14:23:49.889Z</time></trkpt><trkpt lat="43.8913217" lon="12.5104283"><ele>453.0</ele><time>2026-04-19T14:23:50.889Z</time></trkpt><trkpt lat="43.8913433" lon="12.5105467"><ele>452.0</ele><time>2026-04-19T14:23:51.889Z</time></trkpt><trkpt lat="43.891365" lon="12.5106617"><ele>451.0</ele><time>2026-04-19T14:23:52.889Z</time></trkpt><trkpt lat="43.891385" lon="12.5107717"><ele>449.99999999999994</ele><time>2026-04-19T14:23:53.886Z</time></trkpt><trkpt lat="43.8914067" lon="12.51088"><ele>449.0</ele><time>2026-04-19T14:23:54.889Z</time></trkpt><trkpt lat="43.8914233" lon="12.5109917"><ele>449.0</ele><time>2026-04-19T14:23:55.888Z</time></trkpt><trkpt lat="43.891435" lon="12.5111083"><ele>448.99999999999994</ele><time>2026-04-19T14:23:56.889Z</time></trkpt><trkpt lat="43.891425" lon="12.5112167"><ele>449.0</ele><time>2026-04-19T14:23:57.889Z</time></trkpt><trkpt lat="43.89139" lon="12.5113033"><ele>449.0</ele><time>2026-04-19T14:23:58.888Z</time></trkpt><trkpt lat="43.8913333" lon="12.51135"><ele>448.99999999999994</ele><time>2026-04-19T14:23:59.888Z</time></trkpt><trkpt lat="43.89127" lon="12.5113567"><ele>449.0</ele><time>2026-04-19T14:24:00.888Z</time></trkpt><trkpt lat="43.891205" lon="12.5113117"><ele>449.0</ele><time>2026-04-19T14:24:01.889Z</time></trkpt><trkpt lat="43.89115" lon="12.511205"><ele>449.0</ele><time>2026-04-19T14:24:02.889Z</time></trkpt><trkpt lat="43.8911117" lon="12.5110467"><ele>449.0</ele><time>2026-04-19T14:24:03.889Z</time></trkpt><trkpt lat="43.891085" lon="12.5108783"><ele>449.0</ele><time>2026-04-19T14:24:04.888Z</time></trkpt><trkpt lat="43.891055" lon="12.5107133"><ele>449.0</ele><time>2026-04-19T14:24:05.89Z</time></trkpt><trkpt lat="43.89102" lon="12.510545"><ele>450.5</ele><time>2026-04-19T14:24:06.888Z</time></trkpt><trkpt lat="43.8909867" lon="12.5103767"><ele>452.0</ele><time>2026-04-19T14:24:07.888Z</time></trkpt><trkpt lat="43.8909533" lon="12.51021"><ele>453.5</ele><time>2026-04-19T14:24:08.889Z</time></trkpt><trkpt lat="43.89092" lon="12.5100633"><ele>455.0</ele><time>2026-04-19T14:24:09.888Z</time></trkpt><trkpt lat="43.8908717" lon="12.5099333"><ele>450.99999999999994</ele><time>2026-04-19T14:24:10.889Z</time></trkpt><trkpt lat="43.890805" lon="12.50985"><ele>447.0</ele><time>2026-04-19T14:24:11.889Z</time></trkpt><trkpt lat="43.8907317" lon="12.5098033"><ele>443.0</ele><time>2026-04-19T14:24:12.888Z</time></trkpt><trkpt lat="43.8906533" lon="12.5098033"><ele>439.0</ele><time>2026-04-19T14:24:13.889Z</time></trkpt><trkpt lat="43.8905817" lon="12.509855"><ele>434.99999999999994</ele><time>2026-04-19T14:24:14.888Z</time></trkpt><trkpt lat="43.8905233" lon="12.5099233"><ele>431.0</ele><time>2026-04-19T14:24:15.888Z</time></trkpt><trkpt lat="43.89053" lon="12.5100967"><ele>431.0</ele><time>2026-04-19T14:24:16.888Z</time></trkpt><trkpt lat="43.8905717" lon="12.5103167"><ele>431.0</ele><time>2026-04-19T14:24:17.887Z</time></trkpt><trkpt lat="43.8906017" lon="12.5104883"><ele>431.0</ele><time>2026-04-19T14:24:18.887Z</time></trkpt><trkpt lat="43.890625" lon="12.5106533"><ele>431.0</ele><time>2026-04-19T14:24:19.887Z</time></trkpt><trkpt lat="43.8906467" lon="12.5108317"><ele>429.25</ele><time>2026-04-19T14:24:20.888Z</time></trkpt><trkpt lat="43.8906633" lon="12.5109967"><ele>427.5</ele><time>2026-04-19T14:24:21.889Z</time></trkpt><trkpt lat="43.89068" lon="12.5111517"><ele>425.75</ele><time>2026-04-19T14:24:22.887Z</time></trkpt><trkpt lat="43.890695" lon="12.5113067"><ele>424.0</ele><time>2026-04-19T14:24:23.887Z</time></trkpt><trkpt lat="43.8907133" lon="12.5114633"><ele>422.5</ele><time>2026-04-19T14:24:24.885Z</time></trkpt><trkpt lat="43.8907383" lon="12.5116217"><ele>421.0</ele><time>2026-04-19T14:24:25.888Z</time></trkpt><trkpt lat="43.8907733" lon="12.5117817"><ele>419.5</ele><time>2026-04-19T14:24:26.888Z</time></trkpt><trkpt lat="43.8908183" lon="12.511945"><ele>418.0</ele><time>2026-04-19T14:24:27.884Z</time></trkpt><trkpt lat="43.8908683" lon="12.51211"><ele>415.75</ele><time>2026-04-19T14:24:28.889Z</time></trkpt><trkpt lat="43.89092" lon="12.512275"><ele>413.5</ele><time>2026-04-19T14:24:29.888Z</time></trkpt><trkpt lat="43.89097" lon="12.51244"><ele>411.25</ele><time>2026-04-19T14:24:30.887Z</time></trkpt><trkpt lat="43.8910217" lon="12.5126033"><ele>409.0</ele><time>2026-04-19T14:24:31.888Z</time></trkpt><trkpt lat="43.8910717" lon="12.5127667"><ele>413.0</ele><time>2026-04-19T14:24:32.889Z</time></trkpt><trkpt lat="43.8911233" lon="12.5129317"><ele>417.0</ele><time>2026-04-19T14:24:33.886Z</time></trkpt><trkpt lat="43.8911733" lon="12.5130967"><ele>421.0</ele><time>2026-04-19T14:24:34.89Z</time></trkpt><trkpt lat="43.89122" lon="12.5132583"><ele>425.0</ele><time>2026-04-19T14:24:35.883Z</time></trkpt><trkpt lat="43.891265" lon="12.5134133"><ele>425.0</ele><time>2026-04-19T14:24:36.884Z</time></trkpt><trkpt lat="43.89131" lon="12.5135667"><ele>425.0</ele><time>2026-04-19T14:24:37.887Z</time></trkpt><trkpt lat="43.8913533" lon="12.5137167"><ele>425.0</ele><time>2026-04-19T14:24:38.885Z</time></trkpt><trkpt lat="43.8914" lon="12.5138617"><ele>425.0</ele><time>2026-04-19T14:24:39.887Z</time></trkpt><trkpt lat="43.891445" lon="12.5140067"><ele>419.4</ele><time>2026-04-19T14:24:40.887Z</time></trkpt><trkpt lat="43.891485" lon="12.5141483"><ele>413.8</ele><time>2026-04-19T14:24:41.885Z</time></trkpt><trkpt lat="43.8915283" lon="12.5142883"><ele>408.20000000000005</ele><time>2026-04-19T14:24:42.885Z</time></trkpt><trkpt lat="43.8915733" lon="12.5144233"><ele>402.6</ele><time>2026-04-19T14:24:43.887Z</time></trkpt><trkpt lat="43.8916167" lon="12.5145533"><ele>397.0</ele><time>2026-04-19T14:24:44.887Z</time></trkpt><trkpt lat="43.8916617" lon="12.5146833"><ele>395.00000000000006</ele><time>2026-04-19T14:24:45.888Z</time></trkpt><trkpt lat="43.8917" lon="12.5148083"><ele>393.0</ele><time>2026-04-19T14:24:46.887Z</time></trkpt><trkpt lat="43.8917167" lon="12.514925"><ele>391.0</ele><time>2026-04-19T14:24:47.888Z</time></trkpt><trkpt lat="43.8917133" lon="12.5150283"><ele>389.0</ele><time>2026-04-19T14:24:48.887Z</time></trkpt><trkpt lat="43.8916833" lon="12.5151083"><ele>387.00000000000006</ele><time>2026-04-19T14:24:49.888Z</time></trkpt><trkpt lat="43.891625" lon="12.5151933"><ele>385.0</ele><time>2026-04-19T14:24:51.887Z</time></trkpt><trkpt lat="43.8915583" lon="12.5151367"><ele>385.0</ele><time>2026-04-19T14:24:52.887Z</time></trkpt><trkpt lat="43.8915117" lon="12.5150317"><ele>385.0</ele><time>2026-04-19T14:24:53.884Z</time></trkpt><trkpt lat="43.8914783" lon="12.514925"><ele>385.0</ele><time>2026-04-19T14:24:54.885Z</time></trkpt><trkpt lat="43.8914383" lon="12.5147017"><ele>385.0</ele><time>2026-04-19T14:24:55.884Z</time></trkpt><trkpt lat="43.8913833" lon="12.5145967"><ele>385.0</ele><time>2026-04-19T14:24:56.883Z</time></trkpt><trkpt lat="43.8913217" lon="12.5145133"><ele>385.0</ele><time>2026-04-19T14:24:57.887Z</time></trkpt><trkpt lat="43.8912483" lon="12.5144583"><ele>385.0</ele><time>2026-04-19T14:24:58.887Z</time></trkpt><trkpt lat="43.8911767" lon="12.5144667"><ele>385.0</ele><time>2026-04-19T14:24:59.887Z</time></trkpt><trkpt lat="43.891125" lon="12.51454"><ele>385.0</ele><time>2026-04-19T14:25:00.887Z</time></trkpt><trkpt lat="43.8911117" lon="12.514635"><ele>385.0</ele><time>2026-04-19T14:25:01.887Z</time></trkpt><trkpt lat="43.8911617" lon="12.5148383"><ele>385.0</ele><time>2026-04-19T14:25:02.884Z</time></trkpt><trkpt lat="43.8912117" lon="12.515065"><ele>385.0</ele><time>2026-04-19T14:25:03.884Z</time></trkpt><trkpt lat="43.8912567" lon="12.5152783"><ele>385.0</ele><time>2026-04-19T14:25:04.888Z</time></trkpt><trkpt lat="43.8912983" lon="12.5154717"><ele>383.25</ele><time>2026-04-19T14:25:05.887Z</time></trkpt><trkpt lat="43.8913333" lon="12.5156583"><ele>381.5</ele><time>2026-04-19T14:25:06.887Z</time></trkpt><trkpt lat="43.8913717" lon="12.5158517"><ele>379.75</ele><time>2026-04-19T14:25:07.889Z</time></trkpt><trkpt lat="43.89141" lon="12.5160383"><ele>378.0</ele><time>2026-04-19T14:25:08.887Z</time></trkpt><trkpt lat="43.89145" lon="12.5162283"><ele>375.25</ele><time>2026-04-19T14:25:09.887Z</time></trkpt><trkpt lat="43.8914883" lon="12.51642"><ele>372.5</ele><time>2026-04-19T14:25:10.888Z</time></trkpt><trkpt lat="43.8915267" lon="12.51662"><ele>369.75</ele><time>2026-04-19T14:25:11.887Z</time></trkpt><trkpt lat="43.89157" lon="12.516815"><ele>367.0</ele><time>2026-04-19T14:25:12.887Z</time></trkpt><trkpt lat="43.8916133" lon="12.5170133"><ele>365.0</ele><time>2026-04-19T14:25:13.889Z</time></trkpt><trkpt lat="43.8916533" lon="12.51721"><ele>363.0</ele><time>2026-04-19T14:25:14.887Z</time></trkpt><trkpt lat="43.8916883" lon="12.51741"><ele>361.0</ele><time>2026-04-19T14:25:15.888Z</time></trkpt><trkpt lat="43.8917083" lon="12.517605"><ele>359.0</ele><time>2026-04-19T14:25:16.885Z</time></trkpt><trkpt lat="43.8917167" lon="12.5177933"><ele>359.25</ele><time>2026-04-19T14:25:17.884Z</time></trkpt><trkpt lat="43.8917183" lon="12.5179767"><ele>359.5</ele><time>2026-04-19T14:25:18.885Z</time></trkpt><trkpt lat="43.891715" lon="12.51815"><ele>359.75</ele><time>2026-04-19T14:25:19.886Z</time></trkpt><trkpt lat="43.8917083" lon="12.518315"><ele>360.0</ele><time>2026-04-19T14:25:20.884Z</time></trkpt><trkpt lat="43.8916933" lon="12.5184733"><ele>360.0</ele><time>2026-04-19T14:25:21.884Z</time></trkpt><trkpt lat="43.89167" lon="12.5186233"><ele>360.0</ele><time>2026-04-19T14:25:22.885Z</time></trkpt><trkpt lat="43.891635" lon="12.5187683"><ele>360.0</ele><time>2026-04-19T14:25:23.889Z</time></trkpt><trkpt lat="43.8915867" lon="12.5189133"><ele>360.0</ele><time>2026-04-19T14:25:24.888Z</time></trkpt><trkpt lat="43.8915317" lon="12.5190533"><ele>360.2</ele><time>2026-04-19T14:25:25.889Z</time></trkpt><trkpt lat="43.8914733" lon="12.5191817"><ele>360.4</ele><time>2026-04-19T14:25:26.887Z</time></trkpt><trkpt lat="43.891415" lon="12.5193067"><ele>360.6</ele><time>2026-04-19T14:25:27.888Z</time></trkpt><trkpt lat="43.8913567" lon="12.51942"><ele>360.8</ele><time>2026-04-19T14:25:28.89Z</time></trkpt><trkpt lat="43.891305" lon="12.5195183"><ele>361.0</ele><time>2026-04-19T14:25:29.89Z</time></trkpt><trkpt lat="43.8912567" lon="12.51961"><ele>361.0</ele><time>2026-04-19T14:25:30.888Z</time></trkpt><trkpt lat="43.89121" lon="12.5197017"><ele>361.0</ele><time>2026-04-19T14:25:31.889Z</time></trkpt><trkpt lat="43.8911633" lon="12.5197883"><ele>361.0</ele><time>2026-04-19T14:25:32.888Z</time></trkpt><trkpt lat="43.891115" lon="12.5198783"><ele>361.0</ele><time>2026-04-19T14:25:33.888Z</time></trkpt><trkpt lat="43.8910633" lon="12.51998"><ele>361.0</ele><time>2026-04-19T14:25:34.887Z</time></trkpt><trkpt lat="43.8910083" lon="12.52009"><ele>361.0</ele><time>2026-04-19T14:25:35.889Z</time></trkpt><trkpt lat="43.8909533" lon="12.5202"><ele>359.4</ele><time>2026-04-19T14:25:36.887Z</time></trkpt><trkpt lat="43.8909" lon="12.5203067"><ele>357.8</ele><time>2026-04-19T14:25:37.889Z</time></trkpt><trkpt lat="43.8908467" lon="12.520415"><ele>356.2</ele><time>2026-04-19T14:25:38.888Z</time></trkpt><trkpt lat="43.8907867" lon="12.520535"><ele>354.59999999999997</ele><time>2026-04-19T14:25:39.888Z</time></trkpt><trkpt lat="43.8907267" lon="12.5206567"><ele>353.0</ele><time>2026-04-19T14:25:40.888Z</time></trkpt><trkpt lat="43.8906683" lon="12.5207783"><ele>353.0</ele><time>2026-04-19T14:25:41.887Z</time></trkpt><trkpt lat="43.89061" lon="12.5208967"><ele>353.0</ele><time>2026-04-19T14:25:42.887Z</time></trkpt><trkpt lat="43.890555" lon="12.521025"><ele>353.0</ele><time>2026-04-19T14:25:43.888Z</time></trkpt><trkpt lat="43.8905167" lon="12.521175"><ele>353.0</ele><time>2026-04-19T14:25:44.889Z</time></trkpt><trkpt lat="43.89049" lon="12.521335"><ele>353.0</ele><time>2026-04-19T14:25:45.887Z</time></trkpt><trkpt lat="43.89048" lon="12.5214983"><ele>352.0</ele><time>2026-04-19T14:25:46.888Z</time></trkpt><trkpt lat="43.8904883" lon="12.5216533"><ele>351.0</ele><time>2026-04-19T14:25:47.887Z</time></trkpt><trkpt lat="43.8905183" lon="12.5217917"><ele>350.0</ele><time>2026-04-19T14:25:48.888Z</time></trkpt><trkpt lat="43.8905767" lon="12.52191"><ele>349.0</ele><time>2026-04-19T14:25:49.888Z</time></trkpt><trkpt lat="43.890665" lon="12.522"><ele>348.0</ele><time>2026-04-19T14:25:50.888Z</time></trkpt><trkpt lat="43.89077" lon="12.5220567"><ele>346.79999999999995</ele><time>2026-04-19T14:25:51.888Z</time></trkpt><trkpt lat="43.8908717" lon="12.5221083"><ele>345.6</ele><time>2026-04-19T14:25:52.888Z</time></trkpt><trkpt lat="43.8909567" lon="12.522165"><ele>344.4</ele><time>2026-04-19T14:25:53.887Z</time></trkpt><trkpt lat="43.89102" lon="12.5222317"><ele>343.20000000000005</ele><time>2026-04-19T14:25:54.887Z</time></trkpt><trkpt lat="43.8910667" lon="12.522305"><ele>342.0</ele><time>2026-04-19T14:25:55.888Z</time></trkpt><trkpt lat="43.8910817" lon="12.522445"><ele>342.0</ele><time>2026-04-19T14:25:57.888Z</time></trkpt><trkpt lat="43.8910317" lon="12.5225067"><ele>342.0</ele><time>2026-04-19T14:25:59.89Z</time></trkpt><trkpt lat="43.8909317" lon="12.5225217"><ele>342.0</ele><time>2026-04-19T14:26:01.888Z</time></trkpt><trkpt lat="43.8908083" lon="12.5224833"><ele>342.0</ele><time>2026-04-19T14:26:03.889Z</time></trkpt><trkpt lat="43.89074" lon="12.52246"><ele>342.0</ele><time>2026-04-19T14:26:04.888Z</time></trkpt><trkpt lat="43.8906617" lon="12.5224383"><ele>342.0</ele><time>2026-04-19T14:26:05.887Z</time></trkpt><trkpt lat="43.8905717" lon="12.5224117"><ele>340.6</ele><time>2026-04-19T14:26:06.887Z</time></trkpt><trkpt lat="43.8904767" lon="12.5223783"><ele>339.20000000000005</ele><time>2026-04-19T14:26:07.888Z</time></trkpt><trkpt lat="43.89037" lon="12.522345"><ele>337.8</ele><time>2026-04-19T14:26:08.888Z</time></trkpt><trkpt lat="43.890265" lon="12.5223117"><ele>336.4</ele><time>2026-04-19T14:26:09.887Z</time></trkpt><trkpt lat="43.8901583" lon="12.5222867"><ele>335.0</ele><time>2026-04-19T14:26:10.888Z</time></trkpt><trkpt lat="43.890055" lon="12.5222567"><ele>333.8</ele><time>2026-04-19T14:26:11.888Z</time></trkpt><trkpt lat="43.8899583" lon="12.52222"><ele>332.6</ele><time>2026-04-19T14:26:12.889Z</time></trkpt><trkpt lat="43.889875" lon="12.5221533"><ele>331.4</ele><time>2026-04-19T14:26:13.89Z</time></trkpt><trkpt lat="43.8898117" lon="12.5220517"><ele>330.2</ele><time>2026-04-19T14:26:14.888Z</time></trkpt><trkpt lat="43.8897717" lon="12.5219217"><ele>329.0</ele><time>2026-04-19T14:26:15.889Z</time></trkpt><trkpt lat="43.88975" lon="12.5217733"><ele>329.0</ele><time>2026-04-19T14:26:16.888Z</time></trkpt><trkpt lat="43.889735" lon="12.521615"><ele>329.0</ele><time>2026-04-19T14:26:17.889Z</time></trkpt><trkpt lat="43.88971" lon="12.52145"><ele>329.0</ele><time>2026-04-19T14:26:18.888Z</time></trkpt><trkpt lat="43.8896733" lon="12.521285"><ele>329.0</ele><time>2026-04-19T14:26:19.89Z</time></trkpt><trkpt lat="43.88961" lon="12.5211317"><ele>329.25</ele><time>2026-04-19T14:26:20.889Z</time></trkpt><trkpt lat="43.88953" lon="12.5209917"><ele>329.5</ele><time>2026-04-19T14:26:21.887Z</time></trkpt><trkpt lat="43.88944" lon="12.520875"><ele>329.75</ele><time>2026-04-19T14:26:22.889Z</time></trkpt><trkpt lat="43.8893317" lon="12.5207983"><ele>330.0</ele><time>2026-04-19T14:26:23.888Z</time></trkpt><trkpt lat="43.8892133" lon="12.52075"><ele>326.25</ele><time>2026-04-19T14:26:24.888Z</time></trkpt><trkpt lat="43.889085" lon="12.5207367"><ele>322.5</ele><time>2026-04-19T14:26:25.89Z</time></trkpt><trkpt lat="43.8889467" lon="12.5207567"><ele>318.75</ele><time>2026-04-19T14:26:26.888Z</time></trkpt><trkpt lat="43.8888117" lon="12.5207967"><ele>315.0</ele><time>2026-04-19T14:26:27.888Z</time></trkpt><trkpt lat="43.8886783" lon="12.52084"><ele>315.0</ele><time>2026-04-19T14:26:28.889Z</time></trkpt><trkpt lat="43.88855" lon="12.5208817"><ele>315.0</ele><time>2026-04-19T14:26:29.888Z</time></trkpt><trkpt lat="43.8884233" lon="12.5209233"><ele>315.0</ele><time>2026-04-19T14:26:30.888Z</time></trkpt><trkpt lat="43.8883" lon="12.52096"><ele>315.0</ele><time>2026-04-19T14:26:31.887Z</time></trkpt><trkpt lat="43.8881833" lon="12.5209933"><ele>312.8</ele><time>2026-04-19T14:26:32.888Z</time></trkpt><trkpt lat="43.88807" lon="12.5210267"><ele>310.6</ele><time>2026-04-19T14:26:33.888Z</time></trkpt><trkpt lat="43.88796" lon="12.5210567"><ele>308.4</ele><time>2026-04-19T14:26:34.887Z</time></trkpt><trkpt lat="43.8878517" lon="12.5210867"><ele>306.2</ele><time>2026-04-19T14:26:35.888Z</time></trkpt><trkpt lat="43.8877533" lon="12.5211317"><ele>304.0</ele><time>2026-04-19T14:26:36.888Z</time></trkpt><trkpt lat="43.8876667" lon="12.5212033"><ele>301.0</ele><time>2026-04-19T14:26:37.888Z</time></trkpt><trkpt lat="43.88759" lon="12.52131"><ele>298.0</ele><time>2026-04-19T14:26:38.887Z</time></trkpt><trkpt lat="43.8875283" lon="12.521445"><ele>295.0</ele><time>2026-04-19T14:26:39.888Z</time></trkpt><trkpt lat="43.8874767" lon="12.5216033"><ele>292.0</ele><time>2026-04-19T14:26:40.888Z</time></trkpt><trkpt lat="43.88744" lon="12.521775"><ele>292.0</ele><time>2026-04-19T14:26:41.888Z</time></trkpt><trkpt lat="43.8874017" lon="12.5219433"><ele>292.0</ele><time>2026-04-19T14:26:42.887Z</time></trkpt><trkpt lat="43.887355" lon="12.5221"><ele>292.0</ele><time>2026-04-19T14:26:43.889Z</time></trkpt><trkpt lat="43.887295" lon="12.5222383"><ele>292.0</ele><time>2026-04-19T14:26:44.887Z</time></trkpt><trkpt lat="43.8872183" lon="12.5223517"><ele>289.5</ele><time>2026-04-19T14:26:45.887Z</time></trkpt><trkpt lat="43.8871233" lon="12.522425"><ele>287.0</ele><time>2026-04-19T14:26:46.889Z</time></trkpt><trkpt lat="43.8870167" lon="12.5224617"><ele>284.5</ele><time>2026-04-19T14:26:47.887Z</time></trkpt><trkpt lat="43.886905" lon="12.52246"><ele>282.0</ele><time>2026-04-19T14:26:48.892Z</time></trkpt><trkpt lat="43.8867833" lon="12.5224133"><ele>282.0</ele><time>2026-04-19T14:26:49.889Z</time></trkpt><trkpt lat="43.8866633" lon="12.52234"><ele>282.0</ele><time>2026-04-19T14:26:50.887Z</time></trkpt><trkpt lat="43.88654" lon="12.5222533"><ele>282.0</ele><time>2026-04-19T14:26:51.888Z</time></trkpt><trkpt lat="43.8864233" lon="12.52217"><ele>282.0</ele><time>2026-04-19T14:26:52.887Z</time></trkpt><trkpt lat="43.88631" lon="12.5220917"><ele>282.6</ele><time>2026-04-19T14:26:53.888Z</time></trkpt><trkpt lat="43.8862033" lon="12.52202"><ele>283.2</ele><time>2026-04-19T14:26:54.887Z</time></trkpt><trkpt lat="43.8861133" lon="12.5219433"><ele>283.8</ele><time>2026-04-19T14:26:55.889Z</time></trkpt><trkpt lat="43.8860483" lon="12.52184"><ele>284.4</ele><time>2026-04-19T14:26:56.887Z</time></trkpt><trkpt lat="43.8860183" lon="12.5217117"><ele>285.0</ele><time>2026-04-19T14:26:57.89Z</time></trkpt><trkpt lat="43.8860233" lon="12.52155"><ele>285.0</ele><time>2026-04-19T14:26:58.888Z</time></trkpt><trkpt lat="43.88606" lon="12.5213583"><ele>285.0</ele><time>2026-04-19T14:26:59.887Z</time></trkpt><trkpt lat="43.8861117" lon="12.5211767"><ele>285.0</ele><time>2026-04-19T14:27:00.888Z</time></trkpt><trkpt lat="43.8861617" lon="12.5210067"><ele>285.0</ele><time>2026-04-19T14:27:01.889Z</time></trkpt><trkpt lat="43.8862067" lon="12.5208467"><ele>283.8</ele><time>2026-04-19T14:27:02.888Z</time></trkpt><trkpt lat="43.8862483" lon="12.5206917"><ele>282.6</ele><time>2026-04-19T14:27:03.886Z</time></trkpt><trkpt lat="43.8862817" lon="12.52055"><ele>281.4</ele><time>2026-04-19T14:27:04.889Z</time></trkpt><trkpt lat="43.8863017" lon="12.520425"><ele>280.2</ele><time>2026-04-19T14:27:05.886Z</time></trkpt><trkpt lat="43.8862983" lon="12.5203083"><ele>279.0</ele><time>2026-04-19T14:27:06.888Z</time></trkpt><trkpt lat="43.8862683" lon="12.5202133"><ele>277.4</ele><time>2026-04-19T14:27:07.888Z</time></trkpt><trkpt lat="43.8862067" lon="12.5201417"><ele>275.79999999999995</ele><time>2026-04-19T14:27:08.893Z</time></trkpt><trkpt lat="43.8861117" lon="12.5201233"><ele>274.20000000000005</ele><time>2026-04-19T14:27:09.889Z</time></trkpt><trkpt lat="43.8859983" lon="12.5201433"><ele>272.6</ele><time>2026-04-19T14:27:10.888Z</time></trkpt><trkpt lat="43.8858683" lon="12.5202083"><ele>271.0</ele><time>2026-04-19T14:27:11.887Z</time></trkpt><trkpt lat="43.885725" lon="12.5202983"><ele>270.25</ele><time>2026-04-19T14:27:12.889Z</time></trkpt><trkpt lat="43.8855817" lon="12.5203767"><ele>269.5</ele><time>2026-04-19T14:27:13.888Z</time></trkpt><trkpt lat="43.8854483" lon="12.52044"><ele>268.75</ele><time>2026-04-19T14:27:14.889Z</time></trkpt><trkpt lat="43.8853167" lon="12.5205033"><ele>268.0</ele><time>2026-04-19T14:27:15.888Z</time></trkpt><trkpt lat="43.88519" lon="12.5205633"><ele>264.5</ele><time>2026-04-19T14:27:16.888Z</time></trkpt><trkpt lat="43.885065" lon="12.5206267"><ele>261.0</ele><time>2026-04-19T14:27:17.886Z</time></trkpt><trkpt lat="43.8849533" lon="12.5206917"><ele>257.5</ele><time>2026-04-19T14:27:18.885Z</time></trkpt><trkpt lat="43.8848517" lon="12.5207717"><ele>254.0</ele><time>2026-04-19T14:27:19.887Z</time></trkpt><trkpt lat="43.8847583" lon="12.5208717"><ele>254.0</ele><time>2026-04-19T14:27:20.884Z</time></trkpt><trkpt lat="43.88467" lon="12.520985"><ele>254.0</ele><time>2026-04-19T14:27:21.886Z</time></trkpt><trkpt lat="43.8845817" lon="12.521105"><ele>254.0</ele><time>2026-04-19T14:27:22.885Z</time></trkpt><trkpt lat="43.8844933" lon="12.5212283"><ele>254.0</ele><time>2026-04-19T14:27:23.886Z</time></trkpt><trkpt lat="43.884405" lon="12.5213483"><ele>254.0</ele><time>2026-04-19T14:27:24.885Z</time></trkpt><trkpt lat="43.8843133" lon="12.5214633"><ele>254.0</ele><time>2026-04-19T14:27:25.886Z</time></trkpt><trkpt lat="43.88422" lon="12.52158"><ele>254.0</ele><time>2026-04-19T14:27:26.886Z</time></trkpt><trkpt lat="43.8841283" lon="12.5217033"><ele>254.0</ele><time>2026-04-19T14:27:27.885Z</time></trkpt><trkpt lat="43.8840333" lon="12.52183"><ele>251.25</ele><time>2026-04-19T14:27:28.887Z</time></trkpt><trkpt lat="43.8839383" lon="12.5219567"><ele>248.5</ele><time>2026-04-19T14:27:29.886Z</time></trkpt><trkpt lat="43.8838417" lon="12.522075"><ele>245.75</ele><time>2026-04-19T14:27:30.886Z</time></trkpt><trkpt lat="43.8837517" lon="12.52219"><ele>243.0</ele><time>2026-04-19T14:27:31.886Z</time></trkpt><trkpt lat="43.8836683" lon="12.5222983"><ele>242.2</ele><time>2026-04-19T14:27:32.885Z</time></trkpt><trkpt lat="43.88359" lon="12.522405"><ele>241.4</ele><time>2026-04-19T14:27:33.884Z</time></trkpt><trkpt lat="43.8835133" lon="12.5225083"><ele>240.59999999999997</ele><time>2026-04-19T14:27:34.885Z</time></trkpt><trkpt lat="43.8834433" lon="12.5226117"><ele>239.79999999999998</ele><time>2026-04-19T14:27:35.885Z</time></trkpt><trkpt lat="43.88339" lon="12.5227233"><ele>239.0</ele><time>2026-04-19T14:27:36.884Z</time></trkpt><trkpt lat="43.8833567" lon="12.5228283"><ele>238.16666666666669</ele><time>2026-04-19T14:27:37.886Z</time></trkpt><trkpt lat="43.8833433" lon="12.5229233"><ele>237.33333333333334</ele><time>2026-04-19T14:27:38.885Z</time></trkpt><trkpt lat="43.8833467" lon="12.5230467"><ele>236.5</ele><time>2026-04-19T14:27:40.886Z</time></trkpt><trkpt lat="43.8834117" lon="12.5231633"><ele>235.66666666666669</ele><time>2026-04-19T14:27:42.886Z</time></trkpt><trkpt lat="43.883475" lon="12.523225"><ele>234.83333333333334</ele><time>2026-04-19T14:27:43.889Z</time></trkpt><trkpt lat="43.88355" lon="12.5232883"><ele>234.0</ele><time>2026-04-19T14:27:44.884Z</time></trkpt><trkpt lat="43.8836317" lon="12.5233533"><ele>234.0</ele><time>2026-04-19T14:27:45.888Z</time></trkpt><trkpt lat="43.8837167" lon="12.52342"><ele>234.0</ele><time>2026-04-19T14:27:46.886Z</time></trkpt><trkpt lat="43.8838" lon="12.5234883"><ele>234.0</ele><time>2026-04-19T14:27:47.886Z</time></trkpt><trkpt lat="43.8838817" lon="12.5235533"><ele>234.0</ele><time>2026-04-19T14:27:48.885Z</time></trkpt><trkpt lat="43.8839467" lon="12.523625"><ele>234.0</ele><time>2026-04-19T14:27:49.885Z</time></trkpt><trkpt lat="43.884" lon="12.5237017"><ele>234.0</ele><time>2026-04-19T14:27:50.885Z</time></trkpt><trkpt lat="43.8840467" lon="12.5237917"><ele>233.0</ele><time>2026-04-19T14:27:51.886Z</time></trkpt><trkpt lat="43.88409" lon="12.5238933"><ele>231.99999999999997</ele><time>2026-04-19T14:27:52.885Z</time></trkpt><trkpt lat="43.8841333" lon="12.5240067"><ele>230.99999999999997</ele><time>2026-04-19T14:27:53.886Z</time></trkpt><trkpt lat="43.88417" lon="12.524135"><ele>230.0</ele><time>2026-04-19T14:27:54.886Z</time></trkpt><trkpt lat="43.8842033" lon="12.5242733"><ele>229.0</ele><time>2026-04-19T14:27:55.886Z</time></trkpt><trkpt lat="43.884235" lon="12.52442"><ele>229.5</ele><time>2026-04-19T14:27:56.886Z</time></trkpt><trkpt lat="43.88427" lon="12.52457"><ele>230.0</ele><time>2026-04-19T14:27:57.886Z</time></trkpt><trkpt lat="43.8843083" lon="12.5247217"><ele>230.5</ele><time>2026-04-19T14:27:58.886Z</time></trkpt><trkpt lat="43.8843483" lon="12.52487"><ele>231.0</ele><time>2026-04-19T14:27:59.886Z</time></trkpt><trkpt lat="43.8843867" lon="12.525015"><ele>231.0</ele><time>2026-04-19T14:28:00.886Z</time></trkpt><trkpt lat="43.8844267" lon="12.5251533"><ele>231.00000000000003</ele><time>2026-04-19T14:28:01.888Z</time></trkpt><trkpt lat="43.88447" lon="12.5252917"><ele>231.00000000000003</ele><time>2026-04-19T14:28:02.889Z</time></trkpt><trkpt lat="43.8845183" lon="12.52543"><ele>231.0</ele><time>2026-04-19T14:28:03.887Z</time></trkpt><trkpt lat="43.88457" lon="12.5255667"><ele>231.0</ele><time>2026-04-19T14:28:04.889Z</time></trkpt><trkpt lat="43.88462" lon="12.5257"><ele>229.0</ele><time>2026-04-19T14:28:05.889Z</time></trkpt><trkpt lat="43.8846683" lon="12.5258317"><ele>227.00000000000003</ele><time>2026-04-19T14:28:06.886Z</time></trkpt><trkpt lat="43.8847133" lon="12.5259617"><ele>225.00000000000003</ele><time>2026-04-19T14:28:07.885Z</time></trkpt><trkpt lat="43.88475" lon="12.52609"><ele>223.0</ele><time>2026-04-19T14:28:08.888Z</time></trkpt><trkpt lat="43.884775" lon="12.5262083"><ele>221.0</ele><time>2026-04-19T14:28:09.889Z</time></trkpt><trkpt lat="43.88479" lon="12.5263083"><ele>218.75</ele><time>2026-04-19T14:28:10.888Z</time></trkpt><trkpt lat="43.884795" lon="12.5264733"><ele>216.5</ele><time>2026-04-19T14:28:12.889Z</time></trkpt><trkpt lat="43.8847817" lon="12.5266617"><ele>214.25</ele><time>2026-04-19T14:28:14.889Z</time></trkpt><trkpt lat="43.8847633" lon="12.5267867"><ele>212.0</ele><time>2026-04-19T14:28:15.887Z</time></trkpt><trkpt lat="43.8847367" lon="12.52694"><ele>211.5</ele><time>2026-04-19T14:28:16.888Z</time></trkpt><trkpt lat="43.8846917" lon="12.5271083"><ele>211.0</ele><time>2026-04-19T14:28:17.886Z</time></trkpt><trkpt lat="43.8846283" lon="12.527275"><ele>210.5</ele><time>2026-04-19T14:28:18.886Z</time></trkpt><trkpt lat="43.8845583" lon="12.5274433"><ele>210.0</ele><time>2026-04-19T14:28:19.885Z</time></trkpt><trkpt lat="43.8844833" lon="12.5276067"><ele>210.0</ele><time>2026-04-19T14:28:20.885Z</time></trkpt><trkpt lat="43.8844117" lon="12.527755"><ele>210.0</ele><time>2026-04-19T14:28:21.888Z</time></trkpt><trkpt lat="43.88434" lon="12.5279033"><ele>210.0</ele><time>2026-04-19T14:28:22.886Z</time></trkpt><trkpt lat="43.8842683" lon="12.528035"><ele>210.0</ele><time>2026-04-19T14:28:23.886Z</time></trkpt><trkpt lat="43.8841983" lon="12.5281467"><ele>210.0</ele><time>2026-04-19T14:28:24.885Z</time></trkpt><trkpt lat="43.8841333" lon="12.5282517"><ele>210.0</ele><time>2026-04-19T14:28:25.885Z</time></trkpt><trkpt lat="43.8840733" lon="12.5283483"><ele>210.0</ele><time>2026-04-19T14:28:26.885Z</time></trkpt><trkpt lat="43.884015" lon="12.5284333"><ele>210.0</ele><time>2026-04-19T14:28:27.885Z</time></trkpt><trkpt lat="43.883965" lon="12.5285217"><ele>210.0</ele><time>2026-04-19T14:28:28.886Z</time></trkpt><trkpt lat="43.8839133" lon="12.5286133"><ele>210.0</ele><time>2026-04-19T14:28:29.889Z</time></trkpt><trkpt lat="43.88386" lon="12.5287067"><ele>209.66666666666666</ele><time>2026-04-19T14:28:30.889Z</time></trkpt><trkpt lat="43.8838033" lon="12.5288033"><ele>209.33333333333331</ele><time>2026-04-19T14:28:31.889Z</time></trkpt><trkpt lat="43.8837467" lon="12.5289"><ele>209.0</ele><time>2026-04-19T14:28:32.888Z</time></trkpt><trkpt lat="43.883695" lon="12.5289933"><ele>208.66666666666666</ele><time>2026-04-19T14:28:33.887Z</time></trkpt><trkpt lat="43.883655" lon="12.5290883"><ele>208.33333333333331</ele><time>2026-04-19T14:28:34.887Z</time></trkpt><trkpt lat="43.883625" lon="12.5292"><ele>208.0</ele><time>2026-04-19T14:28:35.888Z</time></trkpt><trkpt lat="43.883605" lon="12.52933"><ele>208.0</ele><time>2026-04-19T14:28:36.889Z</time></trkpt><trkpt lat="43.8835917" lon="12.5294717"><ele>208.0</ele><time>2026-04-19T14:28:37.889Z</time></trkpt><trkpt lat="43.8835617" lon="12.52962"><ele>208.0</ele><time>2026-04-19T14:28:38.888Z</time></trkpt><trkpt lat="43.8835183" lon="12.5297617"><ele>208.0</ele><time>2026-04-19T14:28:39.888Z</time></trkpt><trkpt lat="43.88347" lon="12.5298867"><ele>208.0</ele><time>2026-04-19T14:28:40.888Z</time></trkpt><trkpt lat="43.8834183" lon="12.5300033"><ele>208.49999999999997</ele><time>2026-04-19T14:28:41.889Z</time></trkpt><trkpt lat="43.8833683" lon="12.530105"><ele>209.0</ele><time>2026-04-19T14:28:42.889Z</time></trkpt><trkpt lat="43.8833233" lon="12.5301967"><ele>209.5</ele><time>2026-04-19T14:28:43.889Z</time></trkpt><trkpt lat="43.8832817" lon="12.5302717"><ele>210.0</ele><time>2026-04-19T14:28:44.889Z</time></trkpt><trkpt lat="43.8832367" lon="12.53043"><ele>210.49999999999997</ele><time>2026-04-19T14:28:46.885Z</time></trkpt><trkpt lat="43.88324" lon="12.53053"><ele>211.0</ele><time>2026-04-19T14:28:47.886Z</time></trkpt><trkpt lat="43.883275" lon="12.5306383"><ele>211.25</ele><time>2026-04-19T14:28:48.886Z</time></trkpt><trkpt lat="43.8833417" lon="12.5307483"><ele>211.5</ele><time>2026-04-19T14:28:49.887Z</time></trkpt><trkpt lat="43.88344" lon="12.5308733"><ele>211.75</ele><time>2026-04-19T14:28:50.886Z</time></trkpt><trkpt lat="43.8835283" lon="12.5309883"><ele>212.0</ele><time>2026-04-19T14:28:51.885Z</time></trkpt><trkpt lat="43.8836033" lon="12.53109"><ele>211.66666666666669</ele><time>2026-04-19T14:28:52.886Z</time></trkpt><trkpt lat="43.8836533" lon="12.531185"><ele>211.33333333333334</ele><time>2026-04-19T14:28:53.887Z</time></trkpt><trkpt lat="43.88369" lon="12.5312783"><ele>211.0</ele><time>2026-04-19T14:28:54.886Z</time></trkpt><trkpt lat="43.883705" lon="12.5313683"><ele>210.66666666666669</ele><time>2026-04-19T14:28:55.885Z</time></trkpt><trkpt lat="43.8837133" lon="12.5314633"><ele>210.33333333333334</ele><time>2026-04-19T14:28:56.885Z</time></trkpt><trkpt lat="43.883725" lon="12.5315767"><ele>210.0</ele><time>2026-04-19T14:28:57.885Z</time></trkpt><trkpt lat="43.883745" lon="12.531705"><ele>210.0</ele><time>2026-04-19T14:28:58.888Z</time></trkpt><trkpt lat="43.8837833" lon="12.5318517"><ele>210.0</ele><time>2026-04-19T14:28:59.889Z</time></trkpt><trkpt lat="43.883835" lon="12.532015"><ele>210.0</ele><time>2026-04-19T14:29:00.888Z</time></trkpt><trkpt lat="43.883895" lon="12.5321883"><ele>210.0</ele><time>2026-04-19T14:29:01.888Z</time></trkpt><trkpt lat="43.883955" lon="12.5323667"><ele>209.75</ele><time>2026-04-19T14:29:02.888Z</time></trkpt><trkpt lat="43.884015" lon="12.532545"><ele>209.5</ele><time>2026-04-19T14:29:03.888Z</time></trkpt><trkpt lat="43.8840867" lon="12.5327217"><ele>209.25</ele><time>2026-04-19T14:29:04.889Z</time></trkpt><trkpt lat="43.884175" lon="12.5328967"><ele>209.0</ele><time>2026-04-19T14:29:05.888Z</time></trkpt><trkpt lat="43.884275" lon="12.5330767"><ele>209.0</ele><time>2026-04-19T14:29:06.889Z</time></trkpt><trkpt lat="43.8843817" lon="12.53326"><ele>209.0</ele><time>2026-04-19T14:29:07.888Z</time></trkpt><trkpt lat="43.88449" lon="12.5334283"><ele>209.0</ele><time>2026-04-19T14:29:08.888Z</time></trkpt><trkpt lat="43.8845967" lon="12.533585"><ele>210.75</ele><time>2026-04-19T14:29:09.889Z</time></trkpt><trkpt lat="43.8846933" lon="12.5337367"><ele>212.5</ele><time>2026-04-19T14:29:10.888Z</time></trkpt><trkpt lat="43.8847767" lon="12.5338933"><ele>214.25</ele><time>2026-04-19T14:29:11.889Z</time></trkpt><trkpt lat="43.8848583" lon="12.534055"><ele>216.0</ele><time>2026-04-19T14:29:12.887Z</time></trkpt><trkpt lat="43.8849417" lon="12.534215"><ele>216.0</ele><time>2026-04-19T14:29:13.886Z</time></trkpt><trkpt lat="43.885025" lon="12.5343717"><ele>216.0</ele><time>2026-04-19T14:29:14.885Z</time></trkpt><trkpt lat="43.88511" lon="12.5345317"><ele>216.0</ele><time>2026-04-19T14:29:15.889Z</time></trkpt><trkpt lat="43.885195" lon="12.53469"><ele>216.0</ele><time>2026-04-19T14:29:16.885Z</time></trkpt><trkpt lat="43.8852817" lon="12.5348517"><ele>215.33333333333331</ele><time>2026-04-19T14:29:17.886Z</time></trkpt><trkpt lat="43.8853733" lon="12.5350217"><ele>214.66666666666666</ele><time>2026-04-19T14:29:18.885Z</time></trkpt><trkpt lat="43.885465" lon="12.535205"><ele>214.0</ele><time>2026-04-19T14:29:19.887Z</time></trkpt><trkpt lat="43.8855567" lon="12.5354"><ele>216.5</ele><time>2026-04-19T14:29:20.885Z</time></trkpt><trkpt lat="43.8856417" lon="12.535595"><ele>219.0</ele><time>2026-04-19T14:29:21.886Z</time></trkpt><trkpt lat="43.8857117" lon="12.53577"><ele>221.5</ele><time>2026-04-19T14:29:22.887Z</time></trkpt><trkpt lat="43.8857667" lon="12.535925"><ele>224.0</ele><time>2026-04-19T14:29:23.886Z</time></trkpt><trkpt lat="43.8858017" lon="12.5360633"><ele>224.0</ele><time>2026-04-19T14:29:24.889Z</time></trkpt><trkpt lat="43.8858117" lon="12.53619"><ele>223.99999999999997</ele><time>2026-04-19T14:29:25.889Z</time></trkpt><trkpt lat="43.8857933" lon="12.5362933"><ele>223.99999999999997</ele><time>2026-04-19T14:29:26.888Z</time></trkpt><trkpt lat="43.8857567" lon="12.5363717"><ele>224.0</ele><time>2026-04-19T14:29:27.889Z</time></trkpt><trkpt lat="43.885635" lon="12.536425"><ele>224.0</ele><time>2026-04-19T14:29:29.888Z</time></trkpt><trkpt lat="43.8855017" lon="12.53634"><ele>224.0</ele><time>2026-04-19T14:29:30.889Z</time></trkpt><trkpt lat="43.885375" lon="12.5362583"><ele>224.0</ele><time>2026-04-19T14:29:31.889Z</time></trkpt><trkpt lat="43.8852467" lon="12.5361817"><ele>224.0</ele><time>2026-04-19T14:29:32.893Z</time></trkpt><trkpt lat="43.8851317" lon="12.5361183"><ele>224.0</ele><time>2026-04-19T14:29:33.889Z</time></trkpt><trkpt lat="43.8850183" lon="12.536075"><ele>228.25</ele><time>2026-04-19T14:29:34.889Z</time></trkpt><trkpt lat="43.8849033" lon="12.5360483"><ele>232.5</ele><time>2026-04-19T14:29:35.889Z</time></trkpt><trkpt lat="43.884785" lon="12.53605"><ele>236.75</ele><time>2026-04-19T14:29:36.888Z</time></trkpt><trkpt lat="43.8846567" lon="12.5360883"><ele>241.0</ele><time>2026-04-19T14:29:37.888Z</time></trkpt><trkpt lat="43.8845367" lon="12.53612"><ele>241.0</ele><time>2026-04-19T14:29:38.888Z</time></trkpt><trkpt lat="43.8844167" lon="12.536125"><ele>241.0</ele><time>2026-04-19T14:29:39.887Z</time></trkpt><trkpt lat="43.8843" lon="12.5360983"><ele>241.0</ele><time>2026-04-19T14:29:40.885Z</time></trkpt><trkpt lat="43.8841867" lon="12.5360583"><ele>241.0</ele><time>2026-04-19T14:29:41.888Z</time></trkpt><trkpt lat="43.8840833" lon="12.536035"><ele>243.33333333333331</ele><time>2026-04-19T14:29:42.887Z</time></trkpt><trkpt lat="43.883995" lon="12.53605"><ele>245.66666666666666</ele><time>2026-04-19T14:29:43.887Z</time></trkpt><trkpt lat="43.88392" lon="12.5360933"><ele>248.0</ele><time>2026-04-19T14:29:44.888Z</time></trkpt><trkpt lat="43.8838617" lon="12.5361667"><ele>250.33333333333331</ele><time>2026-04-19T14:29:45.889Z</time></trkpt><trkpt lat="43.88382" lon="12.536265"><ele>252.66666666666666</ele><time>2026-04-19T14:29:46.886Z</time></trkpt><trkpt lat="43.8837917" lon="12.5363717"><ele>255.0</ele><time>2026-04-19T14:29:47.885Z</time></trkpt><trkpt lat="43.8837967" lon="12.5364967"><ele>258.0</ele><time>2026-04-19T14:29:48.887Z</time></trkpt><trkpt lat="43.8838333" lon="12.5366217"><ele>261.0</ele><time>2026-04-19T14:29:49.886Z</time></trkpt><trkpt lat="43.8838983" lon="12.5367517"><ele>264.0</ele><time>2026-04-19T14:29:50.885Z</time></trkpt><trkpt lat="43.883985" lon="12.5368833"><ele>267.0</ele><time>2026-04-19T14:29:51.884Z</time></trkpt><trkpt lat="43.8840933" lon="12.5370233"><ele>266.25</ele><time>2026-04-19T14:29:52.885Z</time></trkpt><trkpt lat="43.8842017" lon="12.5371717"><ele>265.5</ele><time>2026-04-19T14:29:53.888Z</time></trkpt><trkpt lat="43.88431" lon="12.53731"><ele>264.75</ele><time>2026-04-19T14:29:54.887Z</time></trkpt><trkpt lat="43.8844" lon="12.5374283"><ele>264.0</ele><time>2026-04-19T14:29:55.888Z</time></trkpt><trkpt lat="43.8844767" lon="12.5375383"><ele>264.0</ele><time>2026-04-19T14:29:56.888Z</time></trkpt><trkpt lat="43.88454" lon="12.5376533"><ele>264.0</ele><time>2026-04-19T14:29:57.884Z</time></trkpt><trkpt lat="43.8845883" lon="12.537775"><ele>264.0</ele><time>2026-04-19T14:29:58.885Z</time></trkpt><trkpt lat="43.8846183" lon="12.5379033"><ele>264.0</ele><time>2026-04-19T14:29:59.885Z</time></trkpt><trkpt lat="43.8846317" lon="12.53804"><ele>264.0</ele><time>2026-04-19T14:30:00.885Z</time></trkpt><trkpt lat="43.884625" lon="12.5381783"><ele>265.0</ele><time>2026-04-19T14:30:01.885Z</time></trkpt><trkpt lat="43.8846117" lon="12.5383133"><ele>266.0</ele><time>2026-04-19T14:30:02.885Z</time></trkpt><trkpt lat="43.8846067" lon="12.53845"><ele>267.0</ele><time>2026-04-19T14:30:03.885Z</time></trkpt><trkpt lat="43.884605" lon="12.53859"><ele>268.0</ele><time>2026-04-19T14:30:04.885Z</time></trkpt><trkpt lat="43.8845983" lon="12.5387333"><ele>269.0</ele><time>2026-04-19T14:30:05.886Z</time></trkpt><trkpt lat="43.88458" lon="12.5388717"><ele>271.2</ele><time>2026-04-19T14:30:06.885Z</time></trkpt><trkpt lat="43.8845617" lon="12.5389917"><ele>273.4</ele><time>2026-04-19T14:30:07.885Z</time></trkpt><trkpt lat="43.8845467" lon="12.539085"><ele>275.6</ele><time>2026-04-19T14:30:08.885Z</time></trkpt><trkpt lat="43.88458" lon="12.5392083"><ele>277.8</ele><time>2026-04-19T14:30:10.887Z</time></trkpt><trkpt lat="43.8847133" lon="12.5392617"><ele>280.0</ele><time>2026-04-19T14:30:12.887Z</time></trkpt><trkpt lat="43.8848067" lon="12.5393033"><ele>280.0</ele><time>2026-04-19T14:30:13.887Z</time></trkpt><trkpt lat="43.8849133" lon="12.5393617"><ele>280.0</ele><time>2026-04-19T14:30:14.889Z</time></trkpt><trkpt lat="43.88503" lon="12.5394217"><ele>280.0</ele><time>2026-04-19T14:30:15.887Z</time></trkpt><trkpt lat="43.8851533" lon="12.5394883"><ele>280.0</ele><time>2026-04-19T14:30:16.887Z</time></trkpt><trkpt lat="43.88528" lon="12.53955"><ele>280.5</ele><time>2026-04-19T14:30:17.888Z</time></trkpt><trkpt lat="43.8853983" lon="12.5396083"><ele>281.0</ele><time>2026-04-19T14:30:18.887Z</time></trkpt><trkpt lat="43.8855133" lon="12.5396717"><ele>281.5</ele><time>2026-04-19T14:30:19.885Z</time></trkpt><trkpt lat="43.8856233" lon="12.53974"><ele>282.0</ele><time>2026-04-19T14:30:20.887Z</time></trkpt><trkpt lat="43.885735" lon="12.5398183"><ele>282.0</ele><time>2026-04-19T14:30:21.887Z</time></trkpt><trkpt lat="43.8858417" lon="12.5398983"><ele>282.0</ele><time>2026-04-19T14:30:22.887Z</time></trkpt><trkpt lat="43.8859367" lon="12.53999"><ele>282.0</ele><time>2026-04-19T14:30:23.887Z</time></trkpt><trkpt lat="43.8860183" lon="12.5401017"><ele>282.0</ele><time>2026-04-19T14:30:24.887Z</time></trkpt><trkpt lat="43.88609" lon="12.5402283"><ele>281.8</ele><time>2026-04-19T14:30:25.888Z</time></trkpt><trkpt lat="43.8861567" lon="12.540355"><ele>281.6</ele><time>2026-04-19T14:30:26.887Z</time></trkpt><trkpt lat="43.88622" lon="12.540475"><ele>281.40000000000003</ele><time>2026-04-19T14:30:27.885Z</time></trkpt><trkpt lat="43.88628" lon="12.54059"><ele>281.2</ele><time>2026-04-19T14:30:28.886Z</time></trkpt><trkpt lat="43.88635" lon="12.540695"><ele>281.0</ele><time>2026-04-19T14:30:29.885Z</time></trkpt><trkpt lat="43.8864317" lon="12.5408033"><ele>280.75</ele><time>2026-04-19T14:30:30.886Z</time></trkpt><trkpt lat="43.8865183" lon="12.540915"><ele>280.5</ele><time>2026-04-19T14:30:31.885Z</time></trkpt><trkpt lat="43.8866" lon="12.5410333"><ele>280.25</ele><time>2026-04-19T14:30:32.886Z</time></trkpt><trkpt lat="43.88667" lon="12.5411533"><ele>280.0</ele><time>2026-04-19T14:30:33.885Z</time></trkpt><trkpt lat="43.8867267" lon="12.5412817"><ele>284.2</ele><time>2026-04-19T14:30:34.886Z</time></trkpt><trkpt lat="43.8867767" lon="12.54142"><ele>288.4</ele><time>2026-04-19T14:30:35.885Z</time></trkpt><trkpt lat="43.88683" lon="12.5415483"><ele>292.6</ele><time>2026-04-19T14:30:36.886Z</time></trkpt><trkpt lat="43.8868833" lon="12.5416533"><ele>296.8</ele><time>2026-04-19T14:30:37.885Z</time></trkpt><trkpt lat="43.8869433" lon="12.5417383"><ele>301.0</ele><time>2026-04-19T14:30:38.886Z</time></trkpt><trkpt lat="43.88701" lon="12.5418133"><ele>301.0</ele><time>2026-04-19T14:30:39.885Z</time></trkpt><trkpt lat="43.8870833" lon="12.5418783"><ele>301.0</ele><time>2026-04-19T14:30:40.886Z</time></trkpt><trkpt lat="43.88716" lon="12.5419533"><ele>301.0</ele><time>2026-04-19T14:30:41.887Z</time></trkpt><trkpt lat="43.8872367" lon="12.542035"><ele>301.0</ele><time>2026-04-19T14:30:42.886Z</time></trkpt><trkpt lat="43.8873067" lon="12.5421267"><ele>301.0</ele><time>2026-04-19T14:30:43.888Z</time></trkpt><trkpt lat="43.8873667" lon="12.5422267"><ele>300.8</ele><time>2026-04-19T14:30:44.887Z</time></trkpt><trkpt lat="43.887435" lon="12.5423233"><ele>300.6</ele><time>2026-04-19T14:30:45.886Z</time></trkpt><trkpt lat="43.8875117" lon="12.5423867"><ele>300.4</ele><time>2026-04-19T14:30:46.888Z</time></trkpt><trkpt lat="43.8875933" lon="12.5424283"><ele>300.2</ele><time>2026-04-19T14:30:47.887Z</time></trkpt><trkpt lat="43.8876767" lon="12.5424517"><ele>300.0</ele><time>2026-04-19T14:30:48.888Z</time></trkpt><trkpt lat="43.8877683" lon="12.5424733"><ele>300.6666666666667</ele><time>2026-04-19T14:30:49.888Z</time></trkpt><trkpt lat="43.8878633" lon="12.5424917"><ele>301.3333333333333</ele><time>2026-04-19T14:30:50.888Z</time></trkpt><trkpt lat="43.8879567" lon="12.5425083"><ele>302.0</ele><time>2026-04-19T14:30:51.886Z</time></trkpt><trkpt lat="43.8880383" lon="12.5425183"><ele>302.66666666666663</ele><time>2026-04-19T14:30:52.885Z</time></trkpt><trkpt lat="43.8881117" lon="12.5425317"><ele>303.3333333333333</ele><time>2026-04-19T14:30:53.887Z</time></trkpt><trkpt lat="43.8881883" lon="12.5425467"><ele>304.0</ele><time>2026-04-19T14:30:54.885Z</time></trkpt><trkpt lat="43.8882717" lon="12.542575"><ele>304.0</ele><time>2026-04-19T14:30:55.885Z</time></trkpt><trkpt lat="43.8883583" lon="12.5426117"><ele>304.0</ele><time>2026-04-19T14:30:56.884Z</time></trkpt><trkpt lat="43.888455" lon="12.5426483"><ele>304.0</ele><time>2026-04-19T14:30:57.885Z</time></trkpt><trkpt lat="43.88855" lon="12.5426867"><ele>304.0</ele><time>2026-04-19T14:30:58.887Z</time></trkpt><trkpt lat="43.8886483" lon="12.5427317"><ele>304.0</ele><time>2026-04-19T14:30:59.888Z</time></trkpt><trkpt lat="43.8887433" lon="12.542785"><ele>302.59999999999997</ele><time>2026-04-19T14:31:00.886Z</time></trkpt><trkpt lat="43.8888333" lon="12.5428433"><ele>301.2</ele><time>2026-04-19T14:31:01.885Z</time></trkpt><trkpt lat="43.8889133" lon="12.5429067"><ele>299.79999999999995</ele><time>2026-04-19T14:31:02.889Z</time></trkpt><trkpt lat="43.8889817" lon="12.542975"><ele>298.4</ele><time>2026-04-19T14:31:03.891Z</time></trkpt><trkpt lat="43.88903" lon="12.5430483"><ele>297.0</ele><time>2026-04-19T14:31:04.884Z</time></trkpt><trkpt lat="43.8890667" lon="12.5431817"><ele>297.0</ele><time>2026-04-19T14:31:06.888Z</time></trkpt><trkpt lat="43.8891117" lon="12.5432767"><ele>297.0</ele><time>2026-04-19T14:31:08.886Z</time></trkpt><trkpt lat="43.8891767" lon="12.5433417"><ele>297.0</ele><time>2026-04-19T14:31:10.889Z</time></trkpt><trkpt lat="43.8892967" lon="12.5433983"><ele>297.0</ele><time>2026-04-19T14:31:12.885Z</time></trkpt><trkpt lat="43.889375" lon="12.5434217"><ele>297.0</ele><time>2026-04-19T14:31:13.886Z</time></trkpt><trkpt lat="43.8894633" lon="12.5434417"><ele>298.0</ele><time>2026-04-19T14:31:14.885Z</time></trkpt><trkpt lat="43.8895583" lon="12.5434617"><ele>299.0</ele><time>2026-04-19T14:31:15.888Z</time></trkpt><trkpt lat="43.8896567" lon="12.5434833"><ele>300.0</ele><time>2026-04-19T14:31:16.884Z</time></trkpt><trkpt lat="43.88976" lon="12.5434983"><ele>301.0</ele><time>2026-04-19T14:31:17.887Z</time></trkpt><trkpt lat="43.889865" lon="12.5435033"><ele>302.0</ele><time>2026-04-19T14:31:18.888Z</time></trkpt><trkpt lat="43.8899717" lon="12.5435067"><ele>302.0</ele><time>2026-04-19T14:31:19.889Z</time></trkpt><trkpt lat="43.890085" lon="12.5435083"><ele>302.0</ele><time>2026-04-19T14:31:20.885Z</time></trkpt><trkpt lat="43.8901967" lon="12.5435117"><ele>302.0</ele><time>2026-04-19T14:31:21.885Z</time></trkpt><trkpt lat="43.890295" lon="12.5435183"><ele>302.0</ele><time>2026-04-19T14:31:22.888Z</time></trkpt><trkpt lat="43.89039" lon="12.543535"><ele>302.0</ele><time>2026-04-19T14:31:23.885Z</time></trkpt><trkpt lat="43.8904767" lon="12.5435667"><ele>302.0</ele><time>2026-04-19T14:31:24.889Z</time></trkpt><trkpt lat="43.8905583" lon="12.5436133"><ele>302.0</ele><time>2026-04-19T14:31:25.889Z</time></trkpt><trkpt lat="43.8906317" lon="12.54367"><ele>302.0</ele><time>2026-04-19T14:31:26.888Z</time></trkpt><trkpt lat="43.8906983" lon="12.54373"><ele>302.0</ele><time>2026-04-19T14:31:27.886Z</time></trkpt><trkpt lat="43.890765" lon="12.5438"><ele>302.0</ele><time>2026-04-19T14:31:28.886Z</time></trkpt><trkpt lat="43.89084" lon="12.5438783"><ele>302.0</ele><time>2026-04-19T14:31:29.884Z</time></trkpt><trkpt lat="43.8909233" lon="12.5439583"><ele>304.4</ele><time>2026-04-19T14:31:30.886Z</time></trkpt><trkpt lat="43.8910067" lon="12.5440367"><ele>306.79999999999995</ele><time>2026-04-19T14:31:31.888Z</time></trkpt><trkpt lat="43.8910883" lon="12.5441117"><ele>309.2</ele><time>2026-04-19T14:31:32.888Z</time></trkpt><trkpt lat="43.8911633" lon="12.5441833"><ele>311.59999999999997</ele><time>2026-04-19T14:31:33.887Z</time></trkpt><trkpt lat="43.89123" lon="12.5442617"><ele>314.0</ele><time>2026-04-19T14:31:34.884Z</time></trkpt><trkpt lat="43.8912883" lon="12.5443517"><ele>314.0</ele><time>2026-04-19T14:31:35.887Z</time></trkpt><trkpt lat="43.8913383" lon="12.544455"><ele>314.0</ele><time>2026-04-19T14:31:36.886Z</time></trkpt><trkpt lat="43.89138" lon="12.5445667"><ele>314.0</ele><time>2026-04-19T14:31:37.885Z</time></trkpt><trkpt lat="43.8914183" lon="12.5446867"><ele>314.0</ele><time>2026-04-19T14:31:38.884Z</time></trkpt><trkpt lat="43.8914567" lon="12.5448117"><ele>314.0</ele><time>2026-04-19T14:31:39.888Z</time></trkpt><trkpt lat="43.8914967" lon="12.5449383"><ele>315.79999999999995</ele><time>2026-04-19T14:31:40.888Z</time></trkpt><trkpt lat="43.891545" lon="12.5450633"><ele>317.59999999999997</ele><time>2026-04-19T14:31:41.888Z</time></trkpt><trkpt lat="43.8915983" lon="12.545185"><ele>319.4</ele><time>2026-04-19T14:31:42.887Z</time></trkpt><trkpt lat="43.8916583" lon="12.5452917"><ele>321.2</ele><time>2026-04-19T14:31:43.889Z</time></trkpt><trkpt lat="43.8917233" lon="12.54539"><ele>323.0</ele><time>2026-04-19T14:31:44.888Z</time></trkpt><trkpt lat="43.8918" lon="12.5454817"><ele>323.79999999999995</ele><time>2026-04-19T14:31:45.888Z</time></trkpt><trkpt lat="43.8918833" lon="12.5455667"><ele>324.6</ele><time>2026-04-19T14:31:46.886Z</time></trkpt><trkpt lat="43.891975" lon="12.545645"><ele>325.4</ele><time>2026-04-19T14:31:47.888Z</time></trkpt><trkpt lat="43.8920683" lon="12.5457033"><ele>326.20000000000005</ele><time>2026-04-19T14:31:48.888Z</time></trkpt><trkpt lat="43.8921533" lon="12.545745"><ele>327.0</ele><time>2026-04-19T14:31:49.887Z</time></trkpt><trkpt lat="43.89223" lon="12.5457883"><ele>327.0</ele><time>2026-04-19T14:31:50.887Z</time></trkpt><trkpt lat="43.8922983" lon="12.5458367"><ele>327.0</ele><time>2026-04-19T14:31:51.889Z</time></trkpt><trkpt lat="43.8923717" lon="12.5458933"><ele>327.0</ele><time>2026-04-19T14:31:52.888Z</time></trkpt><trkpt lat="43.892455" lon="12.5459433"><ele>327.0</ele><time>2026-04-19T14:31:53.888Z</time></trkpt><trkpt lat="43.892555" lon="12.5459933"><ele>327.0</ele><time>2026-04-19T14:31:54.887Z</time></trkpt><trkpt lat="43.892665" lon="12.5460417"><ele>326.75</ele><time>2026-04-19T14:31:55.888Z</time></trkpt><trkpt lat="43.8927767" lon="12.54609"><ele>326.5</ele><time>2026-04-19T14:31:56.887Z</time></trkpt><trkpt lat="43.8928883" lon="12.5461333"><ele>326.25</ele><time>2026-04-19T14:31:57.885Z</time></trkpt><trkpt lat="43.89301" lon="12.5461467"><ele>326.0</ele><time>2026-04-19T14:31:58.885Z</time></trkpt><trkpt lat="43.8931333" lon="12.546155"><ele>326.0</ele><time>2026-04-19T14:31:59.886Z</time></trkpt><trkpt lat="43.89326" lon="12.5461617"><ele>326.0</ele><time>2026-04-19T14:32:00.885Z</time></trkpt><trkpt lat="43.8933867" lon="12.546165"><ele>326.0</ele><time>2026-04-19T14:32:01.886Z</time></trkpt><trkpt lat="43.89351" lon="12.546175"><ele>326.0</ele><time>2026-04-19T14:32:02.885Z</time></trkpt><trkpt lat="43.8936233" lon="12.5461933"><ele>326.8</ele><time>2026-04-19T14:32:03.886Z</time></trkpt><trkpt lat="43.89372" lon="12.546215"><ele>327.6</ele><time>2026-04-19T14:32:04.886Z</time></trkpt><trkpt lat="43.8938067" lon="12.5462533"><ele>328.4</ele><time>2026-04-19T14:32:05.885Z</time></trkpt><trkpt lat="43.8938883" lon="12.54631"><ele>329.2</ele><time>2026-04-19T14:32:06.887Z</time></trkpt><trkpt lat="43.8939683" lon="12.5463817"><ele>330.0</ele><time>2026-04-19T14:32:07.889Z</time></trkpt><trkpt lat="43.89405" lon="12.546475"><ele>330.0</ele><time>2026-04-19T14:32:08.887Z</time></trkpt><trkpt lat="43.894125" lon="12.5465817"><ele>330.0</ele><time>2026-04-19T14:32:09.885Z</time></trkpt><trkpt lat="43.8942017" lon="12.546695"><ele>330.0</ele><time>2026-04-19T14:32:10.889Z</time></trkpt><trkpt lat="43.8942817" lon="12.5468217"><ele>330.0</ele><time>2026-04-19T14:32:11.887Z</time></trkpt><trkpt lat="43.89436" lon="12.5469467"><ele>331.6</ele><time>2026-04-19T14:32:12.886Z</time></trkpt><trkpt lat="43.8944233" lon="12.5470717"><ele>333.2</ele><time>2026-04-19T14:32:13.888Z</time></trkpt><trkpt lat="43.8944717" lon="12.5471933"><ele>334.79999999999995</ele><time>2026-04-19T14:32:14.888Z</time></trkpt><trkpt lat="43.894505" lon="12.5473183"><ele>336.4</ele><time>2026-04-19T14:32:15.889Z</time></trkpt><trkpt lat="43.894525" lon="12.5474483"><ele>338.0</ele><time>2026-04-19T14:32:16.888Z</time></trkpt><trkpt lat="43.8945283" lon="12.5475783"><ele>338.0</ele><time>2026-04-19T14:32:17.887Z</time></trkpt><trkpt lat="43.8945233" lon="12.5477133"><ele>338.0</ele><time>2026-04-19T14:32:18.889Z</time></trkpt><trkpt lat="43.894505" lon="12.5478533"><ele>338.0</ele><time>2026-04-19T14:32:19.889Z</time></trkpt><trkpt lat="43.894475" lon="12.547985"><ele>338.0</ele><time>2026-04-19T14:32:20.888Z</time></trkpt><trkpt lat="43.894445" lon="12.5480983"><ele>338.0</ele><time>2026-04-19T14:32:21.888Z</time></trkpt><trkpt lat="43.8944183" lon="12.5482033"><ele>338.33333333333337</ele><time>2026-04-19T14:32:22.887Z</time></trkpt><trkpt lat="43.8943933" lon="12.5483117"><ele>338.6666666666667</ele><time>2026-04-19T14:32:23.888Z</time></trkpt><trkpt lat="43.8943667" lon="12.548425"><ele>339.0</ele><time>2026-04-19T14:32:24.888Z</time></trkpt><trkpt lat="43.8943517" lon="12.5485383"><ele>339.3333333333333</ele><time>2026-04-19T14:32:25.889Z</time></trkpt><trkpt lat="43.894355" lon="12.5486517"><ele>339.66666666666663</ele><time>2026-04-19T14:32:26.888Z</time></trkpt><trkpt lat="43.89437" lon="12.5487667"><ele>340.0</ele><time>2026-04-19T14:32:27.886Z</time></trkpt><trkpt lat="43.8943933" lon="12.5488833"><ele>336.8</ele><time>2026-04-19T14:32:28.885Z</time></trkpt><trkpt lat="43.8944183" lon="12.5489917"><ele>333.6</ele><time>2026-04-19T14:32:29.885Z</time></trkpt><trkpt lat="43.8944467" lon="12.5490817"><ele>330.4</ele><time>2026-04-19T14:32:30.889Z</time></trkpt><trkpt lat="43.89453" lon="12.549195"><ele>327.2</ele><time>2026-04-19T14:32:32.886Z</time></trkpt><trkpt lat="43.8946267" lon="12.5493067"><ele>324.0</ele><time>2026-04-19T14:32:34.885Z</time></trkpt><trkpt lat="43.8946733" lon="12.54938"><ele>324.0</ele><time>2026-04-19T14:32:35.885Z</time></trkpt><trkpt lat="43.8947017" lon="12.54947"><ele>324.0</ele><time>2026-04-19T14:32:36.886Z</time></trkpt><trkpt lat="43.8947117" lon="12.5495583"><ele>324.0</ele><time>2026-04-19T14:32:37.888Z</time></trkpt><trkpt lat="43.8947017" lon="12.5496617"><ele>324.0</ele><time>2026-04-19T14:32:38.886Z</time></trkpt><trkpt lat="43.8946883" lon="12.5497733"><ele>324.0</ele><time>2026-04-19T14:32:39.885Z</time></trkpt><trkpt lat="43.8946683" lon="12.5498917"><ele>324.0</ele><time>2026-04-19T14:32:40.89Z</time></trkpt><trkpt lat="43.8946383" lon="12.55001"><ele>320.0</ele><time>2026-04-19T14:32:41.887Z</time></trkpt><trkpt lat="43.8946017" lon="12.5501267"><ele>316.0</ele><time>2026-04-19T14:32:42.888Z</time></trkpt><trkpt lat="43.8945617" lon="12.5502383"><ele>312.0</ele><time>2026-04-19T14:32:43.886Z</time></trkpt><trkpt lat="43.894535" lon="12.550365"><ele>308.0</ele><time>2026-04-19T14:32:44.888Z</time></trkpt><trkpt lat="43.8945117" lon="12.5504867"><ele>304.0</ele><time>2026-04-19T14:32:45.888Z</time></trkpt><trkpt lat="43.8944783" lon="12.5506"><ele>302.0</ele><time>2026-04-19T14:32:46.89Z</time></trkpt><trkpt lat="43.894435" lon="12.55072"><ele>300.0</ele><time>2026-04-19T14:32:47.888Z</time></trkpt><trkpt lat="43.8943883" lon="12.550855"><ele>298.0</ele><time>2026-04-19T14:32:48.888Z</time></trkpt><trkpt lat="43.894345" lon="12.5510067"><ele>296.0</ele><time>2026-04-19T14:32:49.888Z</time></trkpt><trkpt lat="43.8943067" lon="12.5511583"><ele>294.0</ele><time>2026-04-19T14:32:50.887Z</time></trkpt><trkpt lat="43.8942717" lon="12.5512883"><ele>298.1666666666667</ele><time>2026-04-19T14:32:51.889Z</time></trkpt><trkpt lat="43.8942483" lon="12.551395"><ele>302.3333333333333</ele><time>2026-04-19T14:32:52.887Z</time></trkpt><trkpt lat="43.894235" lon="12.5514883"><ele>306.5</ele><time>2026-04-19T14:32:53.887Z</time></trkpt><trkpt lat="43.89423" lon="12.551585"><ele>310.66666666666663</ele><time>2026-04-19T14:32:54.887Z</time></trkpt><trkpt lat="43.8942233" lon="12.5516967"><ele>314.8333333333333</ele><time>2026-04-19T14:32:55.889Z</time></trkpt><trkpt lat="43.894215" lon="12.5518267"><ele>319.0</ele><time>2026-04-19T14:32:56.888Z</time></trkpt><trkpt lat="43.8942083" lon="12.5519567"><ele>318.16666666666663</ele><time>2026-04-19T14:32:57.887Z</time></trkpt><trkpt lat="43.8942" lon="12.5520767"><ele>317.3333333333333</ele><time>2026-04-19T14:32:58.885Z</time></trkpt><trkpt lat="43.8941933" lon="12.552195"><ele>316.5</ele><time>2026-04-19T14:32:59.885Z</time></trkpt><trkpt lat="43.8941867" lon="12.552305"><ele>315.6666666666667</ele><time>2026-04-19T14:33:00.886Z</time></trkpt><trkpt lat="43.8941833" lon="12.55241"><ele>314.83333333333337</ele><time>2026-04-19T14:33:01.888Z</time></trkpt><trkpt lat="43.8941883" lon="12.5525167"><ele>314.0</ele><time>2026-04-19T14:33:02.888Z</time></trkpt><trkpt lat="43.8941917" lon="12.552635"><ele>314.0</ele><time>2026-04-19T14:33:03.885Z</time></trkpt><trkpt lat="43.8941983" lon="12.5527583"><ele>314.0</ele><time>2026-04-19T14:33:04.885Z</time></trkpt><trkpt lat="43.89421" lon="12.5528867"><ele>314.0</ele><time>2026-04-19T14:33:05.886Z</time></trkpt><trkpt lat="43.89423" lon="12.553025"><ele>314.0</ele><time>2026-04-19T14:33:06.887Z</time></trkpt><trkpt lat="43.89425" lon="12.5531683"><ele>314.0</ele><time>2026-04-19T14:33:07.886Z</time></trkpt><trkpt lat="43.8942683" lon="12.55331"><ele>310.59999999999997</ele><time>2026-04-19T14:33:08.889Z</time></trkpt><trkpt lat="43.8942833" lon="12.5534483"><ele>307.2</ele><time>2026-04-19T14:33:09.886Z</time></trkpt><trkpt lat="43.8943083" lon="12.5535717"><ele>303.79999999999995</ele><time>2026-04-19T14:33:10.887Z</time></trkpt><trkpt lat="43.89434" lon="12.5536833"><ele>300.4</ele><time>2026-04-19T14:33:11.887Z</time></trkpt><trkpt lat="43.8943733" lon="12.55379"><ele>297.0</ele><time>2026-04-19T14:33:12.888Z</time></trkpt><trkpt lat="43.8944083" lon="12.5539033"><ele>297.0</ele><time>2026-04-19T14:33:13.888Z</time></trkpt><trkpt lat="43.894435" lon="12.5540133"><ele>297.0</ele><time>2026-04-19T14:33:14.887Z</time></trkpt><trkpt lat="43.8944433" lon="12.5541383"><ele>297.0</ele><time>2026-04-19T14:33:15.89Z</time></trkpt><trkpt lat="43.8944217" lon="12.554265"><ele>297.0</ele><time>2026-04-19T14:33:16.887Z</time></trkpt><trkpt lat="43.894385" lon="12.5543883"><ele>297.0</ele><time>2026-04-19T14:33:17.887Z</time></trkpt><trkpt lat="43.8943417" lon="12.5545033"><ele>297.8333333333333</ele><time>2026-04-19T14:33:18.888Z</time></trkpt><trkpt lat="43.8942967" lon="12.5546083"><ele>298.6666666666667</ele><time>2026-04-19T14:33:19.888Z</time></trkpt><trkpt lat="43.89426" lon="12.5547017"><ele>299.5</ele><time>2026-04-19T14:33:20.887Z</time></trkpt><trkpt lat="43.8942067" lon="12.5548433"><ele>300.33333333333337</ele><time>2026-04-19T14:33:22.889Z</time></trkpt><trkpt lat="43.8941917" lon="12.554935"><ele>301.1666666666667</ele><time>2026-04-19T14:33:23.887Z</time></trkpt><trkpt lat="43.8941833" lon="12.5550517"><ele>302.0</ele><time>2026-04-19T14:33:24.888Z</time></trkpt><trkpt lat="43.8941767" lon="12.5551933"><ele>302.0</ele><time>2026-04-19T14:33:25.888Z</time></trkpt><trkpt lat="43.8941733" lon="12.555345"><ele>302.0</ele><time>2026-04-19T14:33:26.891Z</time></trkpt><trkpt lat="43.8941717" lon="12.5555"><ele>302.0</ele><time>2026-04-19T14:33:27.887Z</time></trkpt><trkpt lat="43.8941667" lon="12.55566"><ele>302.0</ele><time>2026-04-19T14:33:28.885Z</time></trkpt><trkpt lat="43.8941617" lon="12.5558133"><ele>302.0</ele><time>2026-04-19T14:33:29.885Z</time></trkpt><trkpt lat="43.894155" lon="12.5559617"><ele>301.33333333333337</ele><time>2026-04-19T14:33:30.885Z</time></trkpt><trkpt lat="43.8941483" lon="12.5560983"><ele>300.6666666666667</ele><time>2026-04-19T14:33:31.885Z</time></trkpt><trkpt lat="43.89414" lon="12.5562183"><ele>300.0</ele><time>2026-04-19T14:33:32.888Z</time></trkpt><trkpt lat="43.8941367" lon="12.556315"><ele>299.3333333333333</ele><time>2026-04-19T14:33:33.886Z</time></trkpt><trkpt lat="43.8941433" lon="12.5564433"><ele>298.66666666666663</ele><time>2026-04-19T14:33:35.885Z</time></trkpt><trkpt lat="43.8941517" lon="12.55657"><ele>298.0</ele><time>2026-04-19T14:33:45.887Z</time></trkpt><trkpt lat="43.8941067" lon="12.55668"><ele>297.85714285714283</ele><time>2026-04-19T14:33:47.889Z</time></trkpt><trkpt lat="43.8940467" lon="12.55682"><ele>297.71428571428567</ele><time>2026-04-19T14:33:49.889Z</time></trkpt><trkpt lat="43.8940183" lon="12.5568983"><ele>297.57142857142856</ele><time>2026-04-19T14:33:50.887Z</time></trkpt><trkpt lat="43.8939867" lon="12.55698"><ele>297.42857142857144</ele><time>2026-04-19T14:33:51.887Z</time></trkpt><trkpt lat="43.893955" lon="12.55706"><ele>297.28571428571433</ele><time>2026-04-19T14:33:52.888Z</time></trkpt><trkpt lat="43.8939233" lon="12.5571383"><ele>297.14285714285717</ele><time>2026-04-19T14:33:53.889Z</time></trkpt><trkpt lat="43.89389" lon="12.5572217"><ele>297.0</ele><time>2026-04-19T14:33:54.888Z</time></trkpt><trkpt lat="43.8938567" lon="12.557305"><ele>297.0</ele><time>2026-04-19T14:33:55.888Z</time></trkpt><trkpt lat="43.8938233" lon="12.5573917"><ele>297.0</ele><time>2026-04-19T14:33:56.888Z</time></trkpt><trkpt lat="43.89379" lon="12.5574783"><ele>297.0</ele><time>2026-04-19T14:33:57.885Z</time></trkpt><trkpt lat="43.8937567" lon="12.557565"><ele>297.0</ele><time>2026-04-19T14:33:58.886Z</time></trkpt><trkpt lat="43.89372" lon="12.5576517"><ele>297.0</ele><time>2026-04-19T14:33:59.885Z</time></trkpt><trkpt lat="43.8936833" lon="12.55774"><ele>297.0</ele><time>2026-04-19T14:34:00.885Z</time></trkpt><trkpt lat="43.8936417" lon="12.5578283"><ele>297.0</ele><time>2026-04-19T14:34:01.887Z</time></trkpt><trkpt lat="43.8936017" lon="12.55792"><ele>297.0</ele><time>2026-04-19T14:34:02.885Z</time></trkpt><trkpt lat="43.893565" lon="12.5580167"><ele>297.0</ele><time>2026-04-19T14:34:03.885Z</time></trkpt><trkpt lat="43.89353" lon="12.558115"><ele>297.0</ele><time>2026-04-19T14:34:04.886Z</time></trkpt><trkpt lat="43.8934933" lon="12.5582083"><ele>297.0</ele><time>2026-04-19T14:34:05.886Z</time></trkpt><trkpt lat="43.8934567" lon="12.5583017"><ele>297.0</ele><time>2026-04-19T14:34:06.885Z</time></trkpt><trkpt lat="43.8934217" lon="12.55839"><ele>297.0</ele><time>2026-04-19T14:34:07.887Z</time></trkpt><trkpt lat="43.8933883" lon="12.55848"><ele>297.5</ele><time>2026-04-19T14:34:08.885Z</time></trkpt><trkpt lat="43.8933483" lon="12.5585667"><ele>298.0</ele><time>2026-04-19T14:34:09.888Z</time></trkpt><trkpt lat="43.8933083" lon="12.5586567"><ele>298.5</ele><time>2026-04-19T14:34:10.888Z</time></trkpt><trkpt lat="43.8932667" lon="12.5587533"><ele>299.0</ele><time>2026-04-19T14:34:11.888Z</time></trkpt><trkpt lat="43.8932217" lon="12.5588483"><ele>299.5</ele><time>2026-04-19T14:34:12.887Z</time></trkpt><trkpt lat="43.8931767" lon="12.558945"><ele>300.0</ele><time>2026-04-19T14:34:13.888Z</time></trkpt><trkpt lat="43.8931367" lon="12.5590467"><ele>299.2</ele><time>2026-04-19T14:34:14.889Z</time></trkpt><trkpt lat="43.89311" lon="12.5591617"><ele>298.4</ele><time>2026-04-19T14:34:15.889Z</time></trkpt><trkpt lat="43.893095" lon="12.5592917"><ele>297.6</ele><time>2026-04-19T14:34:16.885Z</time></trkpt><trkpt lat="43.893085" lon="12.559425"><ele>296.8</ele><time>2026-04-19T14:34:17.888Z</time></trkpt><trkpt lat="43.893075" lon="12.5595583"><ele>296.0</ele><time>2026-04-19T14:34:18.885Z</time></trkpt><trkpt lat="43.8930617" lon="12.5596867"><ele>296.0</ele><time>2026-04-19T14:34:19.886Z</time></trkpt><trkpt lat="43.8930417" lon="12.5598167"><ele>296.0</ele><time>2026-04-19T14:34:20.886Z</time></trkpt><trkpt lat="43.8930133" lon="12.559935"><ele>296.0</ele><time>2026-04-19T14:34:21.885Z</time></trkpt><trkpt lat="43.8929833" lon="12.5600483"><ele>296.0</ele><time>2026-04-19T14:34:22.885Z</time></trkpt><trkpt lat="43.892955" lon="12.5601583"><ele>296.0</ele><time>2026-04-19T14:34:23.886Z</time></trkpt><trkpt lat="43.8929217" lon="12.5602767"><ele>296.0</ele><time>2026-04-19T14:34:24.887Z</time></trkpt><trkpt lat="43.8928883" lon="12.5604033"><ele>293.8</ele><time>2026-04-19T14:34:25.889Z</time></trkpt><trkpt lat="43.89285" lon="12.560535"><ele>291.6</ele><time>2026-04-19T14:34:26.886Z</time></trkpt><trkpt lat="43.8928033" lon="12.56066"><ele>289.4</ele><time>2026-04-19T14:34:27.886Z</time></trkpt><trkpt lat="43.892755" lon="12.5607867"><ele>287.2</ele><time>2026-04-19T14:34:28.886Z</time></trkpt><trkpt lat="43.8927017" lon="12.5609183"><ele>285.0</ele><time>2026-04-19T14:34:29.885Z</time></trkpt><trkpt lat="43.89265" lon="12.5610433"><ele>285.0</ele><time>2026-04-19T14:34:30.885Z</time></trkpt><trkpt lat="43.8925967" lon="12.56116"><ele>285.0</ele><time>2026-04-19T14:34:31.886Z</time></trkpt><trkpt lat="43.8925383" lon="12.5612683"><ele>285.0</ele><time>2026-04-19T14:34:32.886Z</time></trkpt><trkpt lat="43.8924717" lon="12.5613617"><ele>285.0</ele><time>2026-04-19T14:34:33.885Z</time></trkpt><trkpt lat="43.8923933" lon="12.56144"><ele>285.0</ele><time>2026-04-19T14:34:34.887Z</time></trkpt><trkpt lat="43.8923067" lon="12.5614983"><ele>286.2</ele><time>2026-04-19T14:34:35.885Z</time></trkpt><trkpt lat="43.89221" lon="12.561535"><ele>287.4</ele><time>2026-04-19T14:34:36.886Z</time></trkpt><trkpt lat="43.8921067" lon="12.561545"><ele>288.6</ele><time>2026-04-19T14:34:37.886Z</time></trkpt><trkpt lat="43.8920017" lon="12.5615367"><ele>289.8</ele><time>2026-04-19T14:34:38.885Z</time></trkpt><trkpt lat="43.8918967" lon="12.5615083"><ele>291.0</ele><time>2026-04-19T14:34:39.886Z</time></trkpt><trkpt lat="43.89179" lon="12.5614717"><ele>291.40000000000003</ele><time>2026-04-19T14:34:40.887Z</time></trkpt><trkpt lat="43.8916867" lon="12.56143"><ele>291.8</ele><time>2026-04-19T14:34:41.886Z</time></trkpt><trkpt lat="43.8915833" lon="12.5613883"><ele>292.20000000000005</ele><time>2026-04-19T14:34:42.886Z</time></trkpt><trkpt lat="43.8914767" lon="12.5613467"><ele>292.6</ele><time>2026-04-19T14:34:43.885Z</time></trkpt><trkpt lat="43.89137" lon="12.5613017"><ele>293.0</ele><time>2026-04-19T14:34:44.885Z</time></trkpt><trkpt lat="43.8912633" lon="12.561255"><ele>293.0</ele><time>2026-04-19T14:34:45.886Z</time></trkpt><trkpt lat="43.8911583" lon="12.5612083"><ele>293.0</ele><time>2026-04-19T14:34:46.886Z</time></trkpt><trkpt lat="43.8910583" lon="12.5611683"><ele>293.0</ele><time>2026-04-19T14:34:47.886Z</time></trkpt><trkpt lat="43.8909617" lon="12.5611533"><ele>293.0</ele><time>2026-04-19T14:34:48.888Z</time></trkpt><trkpt lat="43.8908633" lon="12.56118"><ele>293.0</ele><time>2026-04-19T14:34:49.886Z</time></trkpt><trkpt lat="43.8907667" lon="12.5612333"><ele>291.0</ele><time>2026-04-19T14:34:50.885Z</time></trkpt><trkpt lat="43.89067" lon="12.5613033"><ele>289.0</ele><time>2026-04-19T14:34:51.885Z</time></trkpt><trkpt lat="43.8905817" lon="12.5613767"><ele>287.0</ele><time>2026-04-19T14:34:52.885Z</time></trkpt><trkpt lat="43.89049" lon="12.5614333"><ele>285.0</ele><time>2026-04-19T14:34:53.889Z</time></trkpt><trkpt lat="43.8903967" lon="12.5614717"><ele>283.0</ele><time>2026-04-19T14:34:54.888Z</time></trkpt><trkpt lat="43.8903017" lon="12.5614933"><ele>283.0</ele><time>2026-04-19T14:34:55.887Z</time></trkpt><trkpt lat="43.890195" lon="12.5614917"><ele>283.0</ele><time>2026-04-19T14:34:56.888Z</time></trkpt><trkpt lat="43.8900817" lon="12.5614767"><ele>283.0</ele><time>2026-04-19T14:34:57.886Z</time></trkpt><trkpt lat="43.8899583" lon="12.5614617"><ele>283.0</ele><time>2026-04-19T14:34:58.887Z</time></trkpt><trkpt lat="43.8898317" lon="12.5614417"><ele>282.75</ele><time>2026-04-19T14:34:59.886Z</time></trkpt><trkpt lat="43.88971" lon="12.561415"><ele>282.5</ele><time>2026-04-19T14:35:00.886Z</time></trkpt><trkpt lat="43.8895883" lon="12.5613983"><ele>282.25</ele><time>2026-04-19T14:35:01.888Z</time></trkpt><trkpt lat="43.889475" lon="12.561385"><ele>282.0</ele><time>2026-04-19T14:35:02.889Z</time></trkpt><trkpt lat="43.8893667" lon="12.5613783"><ele>282.0</ele><time>2026-04-19T14:35:03.886Z</time></trkpt><trkpt lat="43.8892617" lon="12.56139"><ele>282.0</ele><time>2026-04-19T14:35:04.888Z</time></trkpt><trkpt lat="43.8891583" lon="12.561425"><ele>282.0</ele><time>2026-04-19T14:35:05.886Z</time></trkpt><trkpt lat="43.88905" lon="12.5614717"><ele>282.0</ele><time>2026-04-19T14:35:06.888Z</time></trkpt><trkpt lat="43.8889417" lon="12.5615233"><ele>282.0</ele><time>2026-04-19T14:35:07.888Z</time></trkpt><trkpt lat="43.8888267" lon="12.5615783"><ele>280.75</ele><time>2026-04-19T14:35:08.889Z</time></trkpt><trkpt lat="43.8887083" lon="12.5616333"><ele>279.5</ele><time>2026-04-19T14:35:09.888Z</time></trkpt><trkpt lat="43.8885917" lon="12.5616867"><ele>278.25</ele><time>2026-04-19T14:35:10.889Z</time></trkpt><trkpt lat="43.8884817" lon="12.56173"><ele>277.0</ele><time>2026-04-19T14:35:11.887Z</time></trkpt><trkpt lat="43.8883717" lon="12.5617717"><ele>276.4</ele><time>2026-04-19T14:35:12.888Z</time></trkpt><trkpt lat="43.8882633" lon="12.5618067"><ele>275.79999999999995</ele><time>2026-04-19T14:35:13.888Z</time></trkpt><trkpt lat="43.888155" lon="12.5618383"><ele>275.2</ele><time>2026-04-19T14:35:14.888Z</time></trkpt><trkpt lat="43.8880483" lon="12.5618633"><ele>274.59999999999997</ele><time>2026-04-19T14:35:15.889Z</time></trkpt><trkpt lat="43.8879467" lon="12.5618833"><ele>274.0</ele><time>2026-04-19T14:35:16.888Z</time></trkpt><trkpt lat="43.8878467" lon="12.5618933"><ele>274.0</ele><time>2026-04-19T14:35:17.885Z</time></trkpt><trkpt lat="43.8877467" lon="12.561895"><ele>274.0</ele><time>2026-04-19T14:35:18.886Z</time></trkpt><trkpt lat="43.88765" lon="12.56187"><ele>274.0</ele><time>2026-04-19T14:35:19.885Z</time></trkpt><trkpt lat="43.8875567" lon="12.561825"><ele>274.0</ele><time>2026-04-19T14:35:20.884Z</time></trkpt><trkpt lat="43.8874617" lon="12.5617767"><ele>274.0</ele><time>2026-04-19T14:35:21.884Z</time></trkpt><trkpt lat="43.8873633" lon="12.5617367"><ele>272.2</ele><time>2026-04-19T14:35:22.886Z</time></trkpt><trkpt lat="43.8872583" lon="12.5617133"><ele>270.4</ele><time>2026-04-19T14:35:23.887Z</time></trkpt><trkpt lat="43.8871533" lon="12.5617133"><ele>268.6</ele><time>2026-04-19T14:35:24.887Z</time></trkpt><trkpt lat="43.88705" lon="12.5617283"><ele>266.8</ele><time>2026-04-19T14:35:25.884Z</time></trkpt><trkpt lat="43.88695" lon="12.561765"><ele>265.0</ele><time>2026-04-19T14:35:26.886Z</time></trkpt><trkpt lat="43.886865" lon="12.5618283"><ele>265.0</ele><time>2026-04-19T14:35:27.885Z</time></trkpt><trkpt lat="43.8867933" lon="12.5619167"><ele>265.0</ele><time>2026-04-19T14:35:28.885Z</time></trkpt><trkpt lat="43.8867367" lon="12.562025"><ele>265.0</ele><time>2026-04-19T14:35:29.886Z</time></trkpt><trkpt lat="43.8867017" lon="12.562145"><ele>265.0</ele><time>2026-04-19T14:35:30.886Z</time></trkpt><trkpt lat="43.8866983" lon="12.5622783"><ele>265.0</ele><time>2026-04-19T14:35:31.886Z</time></trkpt><trkpt lat="43.88672" lon="12.56241"><ele>264.5</ele><time>2026-04-19T14:35:32.887Z</time></trkpt><trkpt lat="43.886765" lon="12.5625483"><ele>264.0</ele><time>2026-04-19T14:35:33.884Z</time></trkpt><trkpt lat="43.8868167" lon="12.56269"><ele>263.5</ele><time>2026-04-19T14:35:34.886Z</time></trkpt><trkpt lat="43.8868683" lon="12.5628333"><ele>263.0</ele><time>2026-04-19T14:35:35.885Z</time></trkpt><trkpt lat="43.88691" lon="12.5629783"><ele>260.0</ele><time>2026-04-19T14:35:36.885Z</time></trkpt><trkpt lat="43.8869333" lon="12.5631267"><ele>257.0</ele><time>2026-04-19T14:35:37.884Z</time></trkpt><trkpt lat="43.8869417" lon="12.563275"><ele>254.0</ele><time>2026-04-19T14:35:38.888Z</time></trkpt><trkpt lat="43.88693" lon="12.5634283"><ele>251.0</ele><time>2026-04-19T14:35:39.887Z</time></trkpt><trkpt lat="43.886895" lon="12.563575"><ele>248.0</ele><time>2026-04-19T14:35:40.887Z</time></trkpt><trkpt lat="43.8868333" lon="12.5637083"><ele>244.8</ele><time>2026-04-19T14:35:41.886Z</time></trkpt><trkpt lat="43.8867633" lon="12.5638317"><ele>241.60000000000002</ele><time>2026-04-19T14:35:42.884Z</time></trkpt><trkpt lat="43.8866933" lon="12.5639567"><ele>238.39999999999998</ele><time>2026-04-19T14:35:43.888Z</time></trkpt><trkpt lat="43.8866233" lon="12.56408"><ele>235.2</ele><time>2026-04-19T14:35:44.887Z</time></trkpt><trkpt lat="43.8865583" lon="12.5641983"><ele>232.0</ele><time>2026-04-19T14:35:45.888Z</time></trkpt><trkpt lat="43.886505" lon="12.564325"><ele>232.0</ele><time>2026-04-19T14:35:46.887Z</time></trkpt><trkpt lat="43.886465" lon="12.5644567"><ele>232.0</ele><time>2026-04-19T14:35:47.888Z</time></trkpt><trkpt lat="43.8864417" lon="12.5645983"><ele>232.0</ele><time>2026-04-19T14:35:48.888Z</time></trkpt><trkpt lat="43.8864333" lon="12.564745"><ele>232.0</ele><time>2026-04-19T14:35:49.889Z</time></trkpt><trkpt lat="43.8864317" lon="12.5649017"><ele>232.0</ele><time>2026-04-19T14:35:50.884Z</time></trkpt><trkpt lat="43.8864283" lon="12.5650583"><ele>230.39999999999998</ele><time>2026-04-19T14:35:51.887Z</time></trkpt><trkpt lat="43.8864217" lon="12.565215"><ele>228.79999999999998</ele><time>2026-04-19T14:35:52.887Z</time></trkpt><trkpt lat="43.8864217" lon="12.56537"><ele>227.2</ele><time>2026-04-19T14:35:53.885Z</time></trkpt><trkpt lat="43.8864217" lon="12.565515"><ele>225.6</ele><time>2026-04-19T14:35:54.887Z</time></trkpt><trkpt lat="43.88641" lon="12.565655"><ele>224.0</ele><time>2026-04-19T14:35:55.885Z</time></trkpt><trkpt lat="43.88638" lon="12.5657917"><ele>221.2</ele><time>2026-04-19T14:35:56.887Z</time></trkpt><trkpt lat="43.886335" lon="12.5659217"><ele>218.39999999999998</ele><time>2026-04-19T14:35:57.884Z</time></trkpt><trkpt lat="43.8862667" lon="12.5660267"><ele>215.6</ele><time>2026-04-19T14:35:58.884Z</time></trkpt><trkpt lat="43.8861867" lon="12.5661017"><ele>212.8</ele><time>2026-04-19T14:35:59.885Z</time></trkpt><trkpt lat="43.8861017" lon="12.56616"><ele>210.0</ele><time>2026-04-19T14:36:00.885Z</time></trkpt><trkpt lat="43.88602" lon="12.5662033"><ele>208.83333333333334</ele><time>2026-04-19T14:36:01.884Z</time></trkpt><trkpt lat="43.8859517" lon="12.5662433"><ele>207.66666666666669</ele><time>2026-04-19T14:36:02.887Z</time></trkpt><trkpt lat="43.88586" lon="12.5662917"><ele>206.5</ele><time>2026-04-19T14:36:04.886Z</time></trkpt><trkpt lat="43.8858317" lon="12.56637"><ele>205.33333333333334</ele><time>2026-04-19T14:37:11.887Z</time></trkpt><trkpt lat="43.8858133" lon="12.56654"><ele>204.16666666666669</ele><time>2026-04-19T14:37:13.888Z</time></trkpt><trkpt lat="43.8858033" lon="12.566635"><ele>203.0</ele><time>2026-04-19T14:37:14.887Z</time></trkpt><trkpt lat="43.8857967" lon="12.5667283"><ele>203.0</ele><time>2026-04-19T14:37:15.887Z</time></trkpt><trkpt lat="43.8857917" lon="12.566895"><ele>203.0</ele><time>2026-04-19T14:37:17.884Z</time></trkpt><trkpt lat="43.8858117" lon="12.5670517"><ele>203.0</ele><time>2026-04-19T14:37:19.885Z</time></trkpt><trkpt lat="43.8858367" lon="12.5672067"><ele>203.0</ele><time>2026-04-19T14:37:21.886Z</time></trkpt><trkpt lat="43.8858583" lon="12.5673583"><ele>202.0</ele><time>2026-04-19T14:37:23.884Z</time></trkpt><trkpt lat="43.8858633" lon="12.56752"><ele>201.0</ele><time>2026-04-19T14:37:25.888Z</time></trkpt><trkpt lat="43.8858133" lon="12.567685"><ele>200.0</ele><time>2026-04-19T14:37:27.884Z</time></trkpt><trkpt lat="43.8857733" lon="12.56777"><ele>199.0</ele><time>2026-04-19T14:37:28.885Z</time></trkpt><trkpt lat="43.8857283" lon="12.56786"><ele>198.0</ele><time>2026-04-19T14:37:29.888Z</time></trkpt><trkpt lat="43.8856817" lon="12.5679567"><ele>194.8</ele><time>2026-04-19T14:37:30.887Z</time></trkpt><trkpt lat="43.885625" lon="12.568055"><ele>191.60000000000002</ele><time>2026-04-19T14:37:31.89Z</time></trkpt><trkpt lat="43.8855667" lon="12.5681533"><ele>188.39999999999998</ele><time>2026-04-19T14:37:32.888Z</time></trkpt><trkpt lat="43.8855083" lon="12.5682533"><ele>185.2</ele><time>2026-04-19T14:37:33.886Z</time></trkpt><trkpt lat="43.8854517" lon="12.5683633"><ele>182.0</ele><time>2026-04-19T14:37:34.885Z</time></trkpt><trkpt lat="43.8854" lon="12.5684767"><ele>182.0</ele><time>2026-04-19T14:37:35.884Z</time></trkpt><trkpt lat="43.885345" lon="12.5685967"><ele>182.0</ele><time>2026-04-19T14:37:36.884Z</time></trkpt><trkpt lat="43.885285" lon="12.5687233"><ele>182.0</ele><time>2026-04-19T14:37:37.887Z</time></trkpt><trkpt lat="43.8852267" lon="12.5688517"><ele>182.0</ele><time>2026-04-19T14:37:38.884Z</time></trkpt><trkpt lat="43.8851683" lon="12.5689733"><ele>182.0</ele><time>2026-04-19T14:37:39.886Z</time></trkpt><trkpt lat="43.8851117" lon="12.5690967"><ele>180.39999999999998</ele><time>2026-04-19T14:37:40.888Z</time></trkpt><trkpt lat="43.885055" lon="12.5692233"><ele>178.79999999999998</ele><time>2026-04-19T14:37:41.885Z</time></trkpt><trkpt lat="43.8850017" lon="12.5693533"><ele>177.2</ele><time>2026-04-19T14:37:42.888Z</time></trkpt><trkpt lat="43.8849517" lon="12.5694867"><ele>175.6</ele><time>2026-04-19T14:37:43.888Z</time></trkpt><trkpt lat="43.8849" lon="12.5696217"><ele>174.0</ele><time>2026-04-19T14:37:44.888Z</time></trkpt><trkpt lat="43.8848583" lon="12.5697583"><ele>171.33333333333334</ele><time>2026-04-19T14:37:45.889Z</time></trkpt><trkpt lat="43.8848183" lon="12.5698817"><ele>168.66666666666666</ele><time>2026-04-19T14:37:46.887Z</time></trkpt><trkpt lat="43.8847783" lon="12.569995"><ele>166.0</ele><time>2026-04-19T14:37:47.888Z</time></trkpt><trkpt lat="43.8847367" lon="12.5701017"><ele>163.33333333333331</ele><time>2026-04-19T14:37:48.887Z</time></trkpt><trkpt lat="43.8846933" lon="12.5701883"><ele>160.66666666666666</ele><time>2026-04-19T14:37:49.888Z</time></trkpt><trkpt lat="43.8846417" lon="12.57025"><ele>158.0</ele><time>2026-04-19T14:37:50.885Z</time></trkpt><trkpt lat="43.88451" lon="12.5702967"><ele>158.0</ele><time>2026-04-19T14:37:52.886Z</time></trkpt><trkpt lat="43.8844417" lon="12.570295"><ele>158.0</ele><time>2026-04-19T14:37:53.885Z</time></trkpt><trkpt lat="43.8843433" lon="12.57029"><ele>158.0</ele><time>2026-04-19T14:37:55.888Z</time></trkpt><trkpt lat="43.8842417" lon="12.5703133"><ele>158.0</ele><time>2026-04-19T14:37:57.885Z</time></trkpt><trkpt lat="43.884145" lon="12.5703717"><ele>158.0</ele><time>2026-04-19T14:37:59.885Z</time></trkpt><trkpt lat="43.884045" lon="12.5704483"><ele>156.33333333333331</ele><time>2026-04-19T14:38:01.887Z</time></trkpt><trkpt lat="43.8839533" lon="12.57053"><ele>154.66666666666666</ele><time>2026-04-19T14:38:03.885Z</time></trkpt><trkpt lat="43.8839067" lon="12.5705917"><ele>153.0</ele><time>2026-04-19T14:38:05.888Z</time></trkpt><trkpt lat="43.88393" lon="12.5707067"><ele>151.33333333333334</ele><time>2026-04-19T14:38:08.887Z</time></trkpt><trkpt lat="43.88399" lon="12.5708233"><ele>149.66666666666669</ele><time>2026-04-19T14:38:10.888Z</time></trkpt><trkpt lat="43.8840367" lon="12.5709067"><ele>148.0</ele><time>2026-04-19T14:38:12.886Z</time></trkpt><trkpt lat="43.8840917" lon="12.57097"><ele>148.0</ele><time>2026-04-19T14:38:14.885Z</time></trkpt><trkpt lat="43.884165" lon="12.5710133"><ele>148.0</ele><time>2026-04-19T14:38:16.887Z</time></trkpt><trkpt lat="43.8842533" lon="12.5710517"><ele>148.0</ele><time>2026-04-19T14:38:18.888Z</time></trkpt><trkpt lat="43.8843383" lon="12.5710883"><ele>148.0</ele><time>2026-04-19T14:38:20.887Z</time></trkpt><trkpt lat="43.8844267" lon="12.5710867"><ele>148.0</ele><time>2026-04-19T14:38:22.886Z</time></trkpt><trkpt lat="43.884495" lon="12.571045"><ele>148.0</ele><time>2026-04-19T14:38:24.888Z</time></trkpt><trkpt lat="43.8845783" lon="12.5710567"><ele>148.20000000000002</ele><time>2026-04-19T14:38:29.888Z</time></trkpt><trkpt lat="43.884645" lon="12.5711117"><ele>148.4</ele><time>2026-04-19T14:38:31.885Z</time></trkpt><trkpt lat="43.8847417" lon="12.5712267"><ele>148.60000000000002</ele><time>2026-04-19T14:38:33.887Z</time></trkpt><trkpt lat="43.8848067" lon="12.5713133"><ele>148.8</ele><time>2026-04-19T14:38:34.887Z</time></trkpt><trkpt lat="43.8849" lon="12.57142"><ele>149.0</ele><time>2026-04-19T14:38:35.888Z</time></trkpt><trkpt lat="43.8849933" lon="12.571535"><ele>149.0</ele><time>2026-04-19T14:38:36.889Z</time></trkpt><trkpt lat="43.885095" lon="12.5716533"><ele>149.0</ele><time>2026-04-19T14:38:37.889Z</time></trkpt><trkpt lat="43.8851933" lon="12.5717683"><ele>149.0</ele><time>2026-04-19T14:38:38.888Z</time></trkpt><trkpt lat="43.8852783" lon="12.571865"><ele>149.0</ele><time>2026-04-19T14:38:39.887Z</time></trkpt><trkpt lat="43.8853517" lon="12.5719467"><ele>152.0</ele><time>2026-04-19T14:38:40.888Z</time></trkpt><trkpt lat="43.885425" lon="12.572015"><ele>155.0</ele><time>2026-04-19T14:38:41.888Z</time></trkpt><trkpt lat="43.8855017" lon="12.5720667"><ele>158.0</ele><time>2026-04-19T14:38:42.888Z</time></trkpt><trkpt lat="43.8855883" lon="12.5721067"><ele>161.0</ele><time>2026-04-19T14:38:43.889Z</time></trkpt><trkpt lat="43.8856883" lon="12.572145"><ele>164.0</ele><time>2026-04-19T14:38:44.887Z</time></trkpt><trkpt lat="43.8857867" lon="12.5721767"><ele>164.6</ele><time>2026-04-19T14:38:45.886Z</time></trkpt><trkpt lat="43.88589" lon="12.5721967"><ele>165.2</ele><time>2026-04-19T14:38:46.887Z</time></trkpt><trkpt lat="43.88599" lon="12.57221"><ele>165.79999999999998</ele><time>2026-04-19T14:38:47.887Z</time></trkpt><trkpt lat="43.8860917" lon="12.572205"><ele>166.39999999999998</ele><time>2026-04-19T14:38:48.886Z</time></trkpt><trkpt lat="43.8861933" lon="12.5722033"><ele>167.0</ele><time>2026-04-19T14:38:49.888Z</time></trkpt><trkpt lat="43.8862917" lon="12.572205"><ele>171.39999999999998</ele><time>2026-04-19T14:38:50.888Z</time></trkpt><trkpt lat="43.88638" lon="12.572215"><ele>175.79999999999998</ele><time>2026-04-19T14:38:51.889Z</time></trkpt><trkpt lat="43.886455" lon="12.5722267"><ele>180.2</ele><time>2026-04-19T14:38:52.886Z</time></trkpt><trkpt lat="43.8865183" lon="12.57224"><ele>184.6</ele><time>2026-04-19T14:38:53.889Z</time></trkpt><trkpt lat="43.88658" lon="12.5723233"><ele>189.0</ele><time>2026-04-19T14:38:55.888Z</time></trkpt><trkpt lat="43.8866233" lon="12.5725067"><ele>189.0</ele><time>2026-04-19T14:38:57.886Z</time></trkpt><trkpt lat="43.8866467" lon="12.5726167"><ele>189.0</ele><time>2026-04-19T14:38:58.888Z</time></trkpt><trkpt lat="43.8866767" lon="12.5727033"><ele>189.0</ele><time>2026-04-19T14:38:59.888Z</time></trkpt><trkpt lat="43.88677" lon="12.5727967"><ele>189.0</ele><time>2026-04-19T14:39:01.885Z</time></trkpt><trkpt lat="43.8869017" lon="12.572775"><ele>189.0</ele><time>2026-04-19T14:39:03.889Z</time></trkpt><trkpt lat="43.8869833" lon="12.5727483"><ele>193.39999999999998</ele><time>2026-04-19T14:39:04.888Z</time></trkpt><trkpt lat="43.887075" lon="12.572715"><ele>197.8</ele><time>2026-04-19T14:39:05.888Z</time></trkpt><trkpt lat="43.8871667" lon="12.5726817"><ele>202.2</ele><time>2026-04-19T14:39:06.888Z</time></trkpt><trkpt lat="43.8872583" lon="12.5726517"><ele>206.60000000000002</ele><time>2026-04-19T14:39:07.888Z</time></trkpt><trkpt lat="43.8873467" lon="12.5726233"><ele>211.0</ele><time>2026-04-19T14:39:08.887Z</time></trkpt><trkpt lat="43.8874417" lon="12.57259"><ele>210.99999999999997</ele><time>2026-04-19T14:39:09.886Z</time></trkpt><trkpt lat="43.887535" lon="12.5725617"><ele>211.0</ele><time>2026-04-19T14:39:10.888Z</time></trkpt><trkpt lat="43.88762" lon="12.5725367"><ele>211.0</ele><time>2026-04-19T14:39:11.887Z</time></trkpt><trkpt lat="43.8877" lon="12.572515"><ele>211.0</ele><time>2026-04-19T14:39:12.886Z</time></trkpt><trkpt lat="43.8877717" lon="12.5725"><ele>210.99999999999997</ele><time>2026-04-19T14:39:13.886Z</time></trkpt><trkpt lat="43.8878433" lon="12.5724867"><ele>211.0</ele><time>2026-04-19T14:39:14.884Z</time></trkpt><trkpt lat="43.8879633" lon="12.5724967"><ele>211.99999999999997</ele><time>2026-04-19T14:39:16.888Z</time></trkpt><trkpt lat="43.88805" lon="12.5725683"><ele>213.0</ele><time>2026-04-19T14:39:18.886Z</time></trkpt><trkpt lat="43.8880717" lon="12.5726717"><ele>214.0</ele><time>2026-04-19T14:39:20.885Z</time></trkpt><trkpt lat="43.8880067" lon="12.5728317"><ele>215.0</ele><time>2026-04-19T14:39:22.885Z</time></trkpt><trkpt lat="43.8879733" lon="12.57291"><ele>215.99999999999997</ele><time>2026-04-19T14:39:23.885Z</time></trkpt><trkpt lat="43.88795" lon="12.5729933"><ele>217.0</ele><time>2026-04-19T14:39:24.886Z</time></trkpt><trkpt lat="43.8879733" lon="12.5731283"><ele>220.2</ele><time>2026-04-19T14:39:26.884Z</time></trkpt><trkpt lat="43.8880833" lon="12.57321"><ele>223.39999999999998</ele><time>2026-04-19T14:39:28.889Z</time></trkpt><trkpt lat="43.8881567" lon="12.5732633"><ele>226.60000000000002</ele><time>2026-04-19T14:39:29.885Z</time></trkpt><trkpt lat="43.8882283" lon="12.5733167"><ele>229.8</ele><time>2026-04-19T14:39:30.888Z</time></trkpt><trkpt lat="43.888305" lon="12.57337"><ele>233.0</ele><time>2026-04-19T14:39:31.888Z</time></trkpt><trkpt lat="43.88838" lon="12.5734267"><ele>235.60000000000002</ele><time>2026-04-19T14:39:32.889Z</time></trkpt><trkpt lat="43.8884683" lon="12.573475"><ele>238.20000000000002</ele><time>2026-04-19T14:39:33.888Z</time></trkpt><trkpt lat="43.8885617" lon="12.5735183"><ele>240.8</ele><time>2026-04-19T14:39:34.888Z</time></trkpt><trkpt lat="43.888655" lon="12.573555"><ele>243.4</ele><time>2026-04-19T14:39:35.887Z</time></trkpt><trkpt lat="43.8887533" lon="12.5735833"><ele>246.0</ele><time>2026-04-19T14:39:36.888Z</time></trkpt><trkpt lat="43.88885" lon="12.5736083"><ele>246.0</ele><time>2026-04-19T14:39:37.886Z</time></trkpt><trkpt lat="43.8889467" lon="12.5736317"><ele>246.0</ele><time>2026-04-19T14:39:38.887Z</time></trkpt><trkpt lat="43.8890333" lon="12.5736633"><ele>246.0</ele><time>2026-04-19T14:39:39.886Z</time></trkpt><trkpt lat="43.8891133" lon="12.57369"><ele>246.0</ele><time>2026-04-19T14:39:40.888Z</time></trkpt><trkpt lat="43.889195" lon="12.5737"><ele>246.0</ele><time>2026-04-19T14:39:41.888Z</time></trkpt><trkpt lat="43.8892717" lon="12.5737067"><ele>246.0</ele><time>2026-04-19T14:39:42.885Z</time></trkpt><trkpt lat="43.889355" lon="12.5737033"><ele>245.5</ele><time>2026-04-19T14:39:43.886Z</time></trkpt><trkpt lat="43.889435" lon="12.573695"><ele>245.0</ele><time>2026-04-19T14:39:44.885Z</time></trkpt><trkpt lat="43.8895083" lon="12.5736783"><ele>244.5</ele><time>2026-04-19T14:39:45.888Z</time></trkpt><trkpt lat="43.88957" lon="12.57366"><ele>244.0</ele><time>2026-04-19T14:39:46.89Z</time></trkpt><trkpt lat="43.8896883" lon="12.5736183"><ele>243.5</ele><time>2026-04-19T14:39:48.887Z</time></trkpt><trkpt lat="43.8897617" lon="12.5735983"><ele>243.0</ele><time>2026-04-19T14:39:49.886Z</time></trkpt><trkpt lat="43.889845" lon="12.57358"><ele>243.8</ele><time>2026-04-19T14:39:50.886Z</time></trkpt><trkpt lat="43.8899317" lon="12.5735717"><ele>244.60000000000002</ele><time>2026-04-19T14:39:51.887Z</time></trkpt><trkpt lat="43.89002" lon="12.5735717"><ele>245.39999999999998</ele><time>2026-04-19T14:39:52.887Z</time></trkpt><trkpt lat="43.8901133" lon="12.5735733"><ele>246.2</ele><time>2026-04-19T14:39:53.886Z</time></trkpt><trkpt lat="43.8902133" lon="12.5735833"><ele>247.0</ele><time>2026-04-19T14:39:54.889Z</time></trkpt><trkpt lat="43.890325" lon="12.5735967"><ele>247.0</ele><time>2026-04-19T14:39:55.887Z</time></trkpt><trkpt lat="43.8904333" lon="12.57361"><ele>247.0</ele><time>2026-04-19T14:39:56.886Z</time></trkpt><trkpt lat="43.8905317" lon="12.57362"><ele>247.0</ele><time>2026-04-19T14:39:57.889Z</time></trkpt><trkpt lat="43.8906233" lon="12.5736267"><ele>247.0</ele><time>2026-04-19T14:39:58.888Z</time></trkpt><trkpt lat="43.8907083" lon="12.573625"><ele>247.0</ele><time>2026-04-19T14:39:59.888Z</time></trkpt><trkpt lat="43.89079" lon="12.5736117"><ele>247.0</ele><time>2026-04-19T14:40:00.893Z</time></trkpt><trkpt lat="43.89087" lon="12.5735917"><ele>247.0</ele><time>2026-04-19T14:40:01.889Z</time></trkpt><trkpt lat="43.89096" lon="12.5735583"><ele>247.0</ele><time>2026-04-19T14:40:02.887Z</time></trkpt><trkpt lat="43.89106" lon="12.5735183"><ele>247.0</ele><time>2026-04-19T14:40:03.884Z</time></trkpt><trkpt lat="43.89116" lon="12.573485"><ele>247.0</ele><time>2026-04-19T14:40:04.887Z</time></trkpt><trkpt lat="43.8912567" lon="12.5734617"><ele>246.8</ele><time>2026-04-19T14:40:05.885Z</time></trkpt><trkpt lat="43.891355" lon="12.5734433"><ele>246.6</ele><time>2026-04-19T14:40:06.888Z</time></trkpt><trkpt lat="43.8914533" lon="12.5734117"><ele>246.40000000000003</ele><time>2026-04-19T14:40:07.889Z</time></trkpt><trkpt lat="43.8915517" lon="12.57337"><ele>246.20000000000002</ele><time>2026-04-19T14:40:08.888Z</time></trkpt><trkpt lat="43.8916467" lon="12.5733083"><ele>246.0</ele><time>2026-04-19T14:40:09.888Z</time></trkpt><trkpt lat="43.8917383" lon="12.5732317"><ele>246.4</ele><time>2026-04-19T14:40:10.889Z</time></trkpt><trkpt lat="43.8918283" lon="12.57316"><ele>246.8</ele><time>2026-04-19T14:40:11.889Z</time></trkpt><trkpt lat="43.8919167" lon="12.57309"><ele>247.20000000000002</ele><time>2026-04-19T14:40:12.889Z</time></trkpt><trkpt lat="43.8920017" lon="12.5730183"><ele>247.60000000000002</ele><time>2026-04-19T14:40:13.889Z</time></trkpt><trkpt lat="43.892085" lon="12.5729367"><ele>248.0</ele><time>2026-04-19T14:40:14.887Z</time></trkpt><trkpt lat="43.8921717" lon="12.572845"><ele>248.0</ele><time>2026-04-19T14:40:15.889Z</time></trkpt><trkpt lat="43.89226" lon="12.5727483"><ele>248.0</ele><time>2026-04-19T14:40:16.888Z</time></trkpt><trkpt lat="43.8923483" lon="12.57266"><ele>248.0</ele><time>2026-04-19T14:40:17.885Z</time></trkpt><trkpt lat="43.892435" lon="12.5725683"><ele>248.0</ele><time>2026-04-19T14:40:18.887Z</time></trkpt><trkpt lat="43.892525" lon="12.572475"><ele>248.0</ele><time>2026-04-19T14:40:19.888Z</time></trkpt><trkpt lat="43.8926233" lon="12.572385"><ele>250.8</ele><time>2026-04-19T14:40:20.887Z</time></trkpt><trkpt lat="43.8927217" lon="12.5723033"><ele>253.60000000000002</ele><time>2026-04-19T14:40:21.888Z</time></trkpt><trkpt lat="43.8928117" lon="12.5722333"><ele>256.4</ele><time>2026-04-19T14:40:22.887Z</time></trkpt><trkpt lat="43.8928933" lon="12.5721767"><ele>259.2</ele><time>2026-04-19T14:40:23.886Z</time></trkpt><trkpt lat="43.8929733" lon="12.5721317"><ele>262.0</ele><time>2026-04-19T14:40:24.888Z</time></trkpt><trkpt lat="43.8930617" lon="12.5720983"><ele>262.0</ele><time>2026-04-19T14:40:25.887Z</time></trkpt><trkpt lat="43.8931583" lon="12.57208"><ele>262.0</ele><time>2026-04-19T14:40:26.886Z</time></trkpt><trkpt lat="43.8932567" lon="12.5720783"><ele>262.0</ele><time>2026-04-19T14:40:27.886Z</time></trkpt><trkpt lat="43.8933533" lon="12.572085"><ele>262.0</ele><time>2026-04-19T14:40:28.888Z</time></trkpt><trkpt lat="43.89345" lon="12.5720983"><ele>262.0</ele><time>2026-04-19T14:40:29.89Z</time></trkpt><trkpt lat="43.89354" lon="12.5721167"><ele>263.6</ele><time>2026-04-19T14:40:30.887Z</time></trkpt><trkpt lat="43.8936283" lon="12.5721417"><ele>265.2</ele><time>2026-04-19T14:40:31.889Z</time></trkpt><trkpt lat="43.893715" lon="12.5721683"><ele>266.8</ele><time>2026-04-19T14:40:32.888Z</time></trkpt><trkpt lat="43.8937967" lon="12.572205"><ele>268.4</ele><time>2026-04-19T14:40:33.889Z</time></trkpt><trkpt lat="43.8938833" lon="12.572245"><ele>270.0</ele><time>2026-04-19T14:40:34.885Z</time></trkpt><trkpt lat="43.8939733" lon="12.5722883"><ele>270.0</ele><time>2026-04-19T14:40:35.889Z</time></trkpt><trkpt lat="43.894055" lon="12.5723367"><ele>270.0</ele><time>2026-04-19T14:40:36.888Z</time></trkpt><trkpt lat="43.894135" lon="12.57239"><ele>270.0</ele><time>2026-04-19T14:40:37.888Z</time></trkpt><trkpt lat="43.8942167" lon="12.5724517"><ele>270.0</ele><time>2026-04-19T14:40:38.888Z</time></trkpt><trkpt lat="43.8942917" lon="12.5725267"><ele>270.0</ele><time>2026-04-19T14:40:39.889Z</time></trkpt><trkpt lat="43.8943717" lon="12.572605"><ele>270.3333333333333</ele><time>2026-04-19T14:40:40.887Z</time></trkpt><trkpt lat="43.8944533" lon="12.5726783"><ele>270.6666666666667</ele><time>2026-04-19T14:40:41.888Z</time></trkpt><trkpt lat="43.8945317" lon="12.57274"><ele>271.0</ele><time>2026-04-19T14:40:42.889Z</time></trkpt><trkpt lat="43.8945933" lon="12.5727833"><ele>271.33333333333337</ele><time>2026-04-19T14:40:43.886Z</time></trkpt><trkpt lat="43.8946867" lon="12.5728317"><ele>271.6666666666667</ele><time>2026-04-19T14:40:45.884Z</time></trkpt><trkpt lat="43.89476" lon="12.57282"><ele>272.0</ele><time>2026-04-19T14:41:26.89Z</time></trkpt><trkpt lat="43.8948633" lon="12.5727567"><ele>272.0</ele><time>2026-04-19T14:41:28.887Z</time></trkpt><trkpt lat="43.89494" lon="12.5727133"><ele>272.0</ele><time>2026-04-19T14:41:29.887Z</time></trkpt><trkpt lat="43.895025" lon="12.5726683"><ele>272.0</ele><time>2026-04-19T14:41:30.887Z</time></trkpt><trkpt lat="43.8951183" lon="12.57262"><ele>272.0</ele><time>2026-04-19T14:41:31.888Z</time></trkpt><trkpt lat="43.8952133" lon="12.57257"><ele>272.0</ele><time>2026-04-19T14:41:32.887Z</time></trkpt><trkpt lat="43.8953033" lon="12.57252"><ele>275.5</ele><time>2026-04-19T14:41:33.888Z</time></trkpt><trkpt lat="43.8953817" lon="12.5724683"><ele>279.0</ele><time>2026-04-19T14:41:34.887Z</time></trkpt><trkpt lat="43.89545" lon="12.5724133"><ele>282.5</ele><time>2026-04-19T14:41:35.883Z</time></trkpt><trkpt lat="43.89551" lon="12.5723433"><ele>286.0</ele><time>2026-04-19T14:41:36.885Z</time></trkpt><trkpt lat="43.89556" lon="12.57226"><ele>289.5</ele><time>2026-04-19T14:41:37.887Z</time></trkpt><trkpt lat="43.8956017" lon="12.5721833"><ele>293.0</ele><time>2026-04-19T14:41:38.888Z</time></trkpt><trkpt lat="43.89565" lon="12.572115"><ele>293.0</ele><time>2026-04-19T14:41:39.888Z</time></trkpt><trkpt lat="43.8957117" lon="12.5720517"><ele>293.0</ele><time>2026-04-19T14:41:40.889Z</time></trkpt><trkpt lat="43.8957783" lon="12.5720067"><ele>293.0</ele><time>2026-04-19T14:41:41.888Z</time></trkpt><trkpt lat="43.895835" lon="12.5719583"><ele>293.0</ele><time>2026-04-19T14:41:42.888Z</time></trkpt><trkpt lat="43.8959033" lon="12.571845"><ele>293.0</ele><time>2026-04-19T14:41:44.888Z</time></trkpt><trkpt lat="43.8959417" lon="12.5717167"><ele>293.0</ele><time>2026-04-19T14:41:46.888Z</time></trkpt><trkpt lat="43.8959533" lon="12.5715817"><ele>293.4</ele><time>2026-04-19T14:41:48.886Z</time></trkpt><trkpt lat="43.8959733" lon="12.5714367"><ele>293.8</ele><time>2026-04-19T14:41:50.887Z</time></trkpt><trkpt lat="43.8960533" lon="12.5713"><ele>294.2</ele><time>2026-04-19T14:41:52.886Z</time></trkpt><trkpt lat="43.89612" lon="12.5712267"><ele>294.6</ele><time>2026-04-19T14:41:53.885Z</time></trkpt><trkpt lat="43.8961933" lon="12.5711483"><ele>295.0</ele><time>2026-04-19T14:41:54.886Z</time></trkpt><trkpt lat="43.8962683" lon="12.5710667"><ele>295.0</ele><time>2026-04-19T14:41:55.885Z</time></trkpt><trkpt lat="43.89635" lon="12.5709867"><ele>295.0</ele><time>2026-04-19T14:41:56.886Z</time></trkpt><trkpt lat="43.8964333" lon="12.5708983"><ele>295.0</ele><time>2026-04-19T14:41:57.886Z</time></trkpt><trkpt lat="43.89652" lon="12.5708283"><ele>295.0</ele><time>2026-04-19T14:41:58.885Z</time></trkpt><trkpt lat="43.8966067" lon="12.5707733"><ele>295.0</ele><time>2026-04-19T14:41:59.886Z</time></trkpt><trkpt lat="43.8966883" lon="12.5707333"><ele>299.2</ele><time>2026-04-19T14:42:00.885Z</time></trkpt><trkpt lat="43.8967733" lon="12.5707033"><ele>303.4</ele><time>2026-04-19T14:42:01.886Z</time></trkpt><trkpt lat="43.8968633" lon="12.5706867"><ele>307.6</ele><time>2026-04-19T14:42:02.886Z</time></trkpt><trkpt lat="43.8969583" lon="12.5706833"><ele>311.8</ele><time>2026-04-19T14:42:03.885Z</time></trkpt><trkpt lat="43.89705" lon="12.5706767"><ele>316.0</ele><time>2026-04-19T14:42:04.885Z</time></trkpt><trkpt lat="43.8971433" lon="12.5706683"><ele>316.0</ele><time>2026-04-19T14:42:05.886Z</time></trkpt><trkpt lat="43.8972367" lon="12.5706633"><ele>316.0</ele><time>2026-04-19T14:42:06.885Z</time></trkpt><trkpt lat="43.897325" lon="12.5706517"><ele>316.0</ele><time>2026-04-19T14:42:07.885Z</time></trkpt><trkpt lat="43.8974133" lon="12.5706517"><ele>316.0</ele><time>2026-04-19T14:42:08.885Z</time></trkpt><trkpt lat="43.897505" lon="12.570665"><ele>316.0</ele><time>2026-04-19T14:42:09.89Z</time></trkpt><trkpt lat="43.8976" lon="12.5706733"><ele>316.40000000000003</ele><time>2026-04-19T14:42:10.887Z</time></trkpt><trkpt lat="43.897695" lon="12.57069"><ele>316.8</ele><time>2026-04-19T14:42:11.886Z</time></trkpt><trkpt lat="43.89779" lon="12.570705"><ele>317.20000000000005</ele><time>2026-04-19T14:42:12.884Z</time></trkpt><trkpt lat="43.8978783" lon="12.57073"><ele>317.6</ele><time>2026-04-19T14:42:13.885Z</time></trkpt><trkpt lat="43.8979633" lon="12.5707483"><ele>318.0</ele><time>2026-04-19T14:42:14.885Z</time></trkpt><trkpt lat="43.8980417" lon="12.57079"><ele>318.0</ele><time>2026-04-19T14:42:15.884Z</time></trkpt><trkpt lat="43.89811" lon="12.5708433"><ele>318.0</ele><time>2026-04-19T14:42:16.884Z</time></trkpt><trkpt lat="43.898185" lon="12.5709017"><ele>318.0</ele><time>2026-04-19T14:42:17.885Z</time></trkpt><trkpt lat="43.8982733" lon="12.57097"><ele>318.0</ele><time>2026-04-19T14:42:18.886Z</time></trkpt><trkpt lat="43.8983633" lon="12.5710517"><ele>318.0</ele><time>2026-04-19T14:42:19.886Z</time></trkpt><trkpt lat="43.8984483" lon="12.571125"><ele>317.5</ele><time>2026-04-19T14:42:20.885Z</time></trkpt><trkpt lat="43.8985283" lon="12.5711767"><ele>317.0</ele><time>2026-04-19T14:42:21.888Z</time></trkpt><trkpt lat="43.8986033" lon="12.5712083"><ele>316.5</ele><time>2026-04-19T14:42:22.885Z</time></trkpt><trkpt lat="43.8986767" lon="12.5712283"><ele>316.0</ele><time>2026-04-19T14:42:23.884Z</time></trkpt><trkpt lat="43.8987483" lon="12.571255"><ele>315.5</ele><time>2026-04-19T14:42:24.884Z</time></trkpt><trkpt lat="43.8988167" lon="12.5712767"><ele>315.0</ele><time>2026-04-19T14:42:25.886Z</time></trkpt><trkpt lat="43.89889" lon="12.5713083"><ele>318.5</ele><time>2026-04-19T14:42:26.884Z</time></trkpt><trkpt lat="43.89897" lon="12.571345"><ele>322.0</ele><time>2026-04-19T14:42:27.885Z</time></trkpt><trkpt lat="43.8990617" lon="12.5713783"><ele>325.5</ele><time>2026-04-19T14:42:28.885Z</time></trkpt><trkpt lat="43.8991517" lon="12.5714117"><ele>329.0</ele><time>2026-04-19T14:42:29.884Z</time></trkpt><trkpt lat="43.8992383" lon="12.5714467"><ele>332.5</ele><time>2026-04-19T14:42:30.885Z</time></trkpt><trkpt lat="43.8993017" lon="12.571475"><ele>336.0</ele><time>2026-04-19T14:42:31.885Z</time></trkpt><trkpt lat="43.8993633" lon="12.5715083"><ele>337.6666666666667</ele><time>2026-04-19T14:42:32.887Z</time></trkpt><trkpt lat="43.8994233" lon="12.571555"><ele>339.3333333333333</ele><time>2026-04-19T14:42:33.886Z</time></trkpt><trkpt lat="43.8994767" lon="12.5716183"><ele>341.0</ele><time>2026-04-19T14:42:34.888Z</time></trkpt><trkpt lat="43.8995317" lon="12.5716967"><ele>342.66666666666663</ele><time>2026-04-19T14:42:35.884Z</time></trkpt><trkpt lat="43.8995833" lon="12.57179"><ele>344.3333333333333</ele><time>2026-04-19T14:42:36.981Z</time></trkpt><trkpt lat="43.8996283" lon="12.5718917"><ele>346.0</ele><time>2026-04-19T14:42:37.887Z</time></trkpt><trkpt lat="43.8996717" lon="12.5719867"><ele>347.6</ele><time>2026-04-19T14:42:38.885Z</time></trkpt><trkpt lat="43.8997117" lon="12.57209"><ele>349.20000000000005</ele><time>2026-04-19T14:42:39.89Z</time></trkpt><trkpt lat="43.8997533" lon="12.572175"><ele>350.79999999999995</ele><time>2026-04-19T14:42:40.886Z</time></trkpt><trkpt lat="43.899815" lon="12.5722867"><ele>352.4</ele><time>2026-04-19T14:42:42.885Z</time></trkpt><trkpt lat="43.8999033" lon="12.5723017"><ele>354.0</ele><time>2026-04-19T14:42:44.887Z</time></trkpt><trkpt lat="43.9000333" lon="12.572265"><ele>357.8333333333333</ele><time>2026-04-19T14:42:46.885Z</time></trkpt><trkpt lat="43.9001183" lon="12.57224"><ele>361.6666666666667</ele><time>2026-04-19T14:42:47.885Z</time></trkpt><trkpt lat="43.9002083" lon="12.572215"><ele>365.5</ele><time>2026-04-19T14:42:48.885Z</time></trkpt><trkpt lat="43.9002983" lon="12.5722"><ele>369.33333333333337</ele><time>2026-04-19T14:42:49.889Z</time></trkpt><trkpt lat="43.9003883" lon="12.5722017"><ele>373.1666666666667</ele><time>2026-04-19T14:42:50.887Z</time></trkpt><trkpt lat="43.9004717" lon="12.5722283"><ele>377.0</ele><time>2026-04-19T14:42:51.887Z</time></trkpt><trkpt lat="43.9005383" lon="12.5722633"><ele>377.0</ele><time>2026-04-19T14:42:52.888Z</time></trkpt><trkpt lat="43.90064" lon="12.572305"><ele>377.0</ele><time>2026-04-19T14:42:54.886Z</time></trkpt><trkpt lat="43.9007317" lon="12.5722467"><ele>377.0</ele><time>2026-04-19T14:42:56.884Z</time></trkpt><trkpt lat="43.9008033" lon="12.5721717"><ele>377.0</ele><time>2026-04-19T14:42:58.885Z</time></trkpt><trkpt lat="43.9007233" lon="12.5721783"><ele>377.0</ele><time>2026-04-19T14:43:19.886Z</time></trkpt><trkpt lat="43.90068" lon="12.5722467"><ele>377.0</ele><time>2026-04-19T14:43:20.887Z</time></trkpt><trkpt lat="43.90064" lon="12.5723233"><ele>377.0</ele><time>2026-04-19T14:43:21.887Z</time></trkpt><trkpt lat="43.900605" lon="12.5724133"><ele>377.0</ele><time>2026-04-19T14:43:22.888Z</time></trkpt><trkpt lat="43.90057" lon="12.5725017"><ele>377.0</ele><time>2026-04-19T14:43:23.888Z</time></trkpt><trkpt lat="43.9005417" lon="12.5725933"><ele>377.0</ele><time>2026-04-19T14:43:24.888Z</time></trkpt><trkpt lat="43.9005133" lon="12.5726917"><ele>377.0</ele><time>2026-04-19T14:43:25.889Z</time></trkpt><trkpt lat="43.9005" lon="12.5728"><ele>377.0</ele><time>2026-04-19T14:43:26.888Z</time></trkpt><trkpt lat="43.9005033" lon="12.5729183"><ele>376.40000000000003</ele><time>2026-04-19T14:43:27.885Z</time></trkpt><trkpt lat="43.9005233" lon="12.57304"><ele>375.8</ele><time>2026-04-19T14:43:28.884Z</time></trkpt><trkpt lat="43.9005567" lon="12.5731583"><ele>375.2</ele><time>2026-04-19T14:43:29.889Z</time></trkpt><trkpt lat="43.9006067" lon="12.5732633"><ele>374.6</ele><time>2026-04-19T14:43:30.887Z</time></trkpt><trkpt lat="43.9006633" lon="12.5733733"><ele>374.0</ele><time>2026-04-19T14:43:31.889Z</time></trkpt><trkpt lat="43.9007283" lon="12.5734867"><ele>374.0</ele><time>2026-04-19T14:43:32.888Z</time></trkpt><trkpt lat="43.900805" lon="12.5735967"><ele>374.0</ele><time>2026-04-19T14:43:33.888Z</time></trkpt><trkpt lat="43.900885" lon="12.5737083"><ele>374.0</ele><time>2026-04-19T14:43:34.888Z</time></trkpt><trkpt lat="43.90097" lon="12.573815"><ele>374.0</ele><time>2026-04-19T14:43:35.885Z</time></trkpt><trkpt lat="43.9010533" lon="12.5739167"><ele>374.0</ele><time>2026-04-19T14:43:36.883Z</time></trkpt><trkpt lat="43.9011367" lon="12.5740167"><ele>375.0</ele><time>2026-04-19T14:43:37.885Z</time></trkpt><trkpt lat="43.9012183" lon="12.574115"><ele>376.0</ele><time>2026-04-19T14:43:38.888Z</time></trkpt><trkpt lat="43.9013017" lon="12.5742117"><ele>377.0</ele><time>2026-04-19T14:43:39.885Z</time></trkpt><trkpt lat="43.9013817" lon="12.5743183"><ele>378.0</ele><time>2026-04-19T14:43:40.885Z</time></trkpt><trkpt lat="43.901465" lon="12.57442"><ele>379.0</ele><time>2026-04-19T14:43:41.884Z</time></trkpt><trkpt lat="43.901545" lon="12.574525"><ele>379.0</ele><time>2026-04-19T14:43:42.885Z</time></trkpt><trkpt lat="43.901605" lon="12.574655"><ele>379.0</ele><time>2026-04-19T14:43:43.888Z</time></trkpt><trkpt lat="43.9016383" lon="12.5748033"><ele>379.0</ele><time>2026-04-19T14:43:44.888Z</time></trkpt><trkpt lat="43.901645" lon="12.5749567"><ele>379.0</ele><time>2026-04-19T14:43:45.888Z</time></trkpt><trkpt lat="43.90162" lon="12.5751133"><ele>379.0</ele><time>2026-04-19T14:43:46.886Z</time></trkpt><trkpt lat="43.9015633" lon="12.575275"><ele>379.75</ele><time>2026-04-19T14:43:47.887Z</time></trkpt><trkpt lat="43.9014983" lon="12.575435"><ele>380.5</ele><time>2026-04-19T14:43:48.885Z</time></trkpt><trkpt lat="43.9014383" lon="12.575595"><ele>381.25</ele><time>2026-04-19T14:43:49.887Z</time></trkpt><trkpt lat="43.9013883" lon="12.5757517"><ele>382.0</ele><time>2026-04-19T14:43:50.885Z</time></trkpt><trkpt lat="43.9013483" lon="12.5759133"><ele>382.0</ele><time>2026-04-19T14:43:51.888Z</time></trkpt><trkpt lat="43.9012883" lon="12.576065"><ele>382.0</ele><time>2026-04-19T14:43:52.888Z</time></trkpt><trkpt lat="43.9011933" lon="12.5761883"><ele>382.0</ele><time>2026-04-19T14:43:53.888Z</time></trkpt><trkpt lat="43.9010867" lon="12.5762983"><ele>382.0</ele><time>2026-04-19T14:43:54.888Z</time></trkpt><trkpt lat="43.9009883" lon="12.5764133"><ele>379.5</ele><time>2026-04-19T14:43:55.885Z</time></trkpt><trkpt lat="43.9008967" lon="12.576535"><ele>377.0</ele><time>2026-04-19T14:43:56.884Z</time></trkpt><trkpt lat="43.9008133" lon="12.5766733"><ele>374.5</ele><time>2026-04-19T14:43:57.885Z</time></trkpt><trkpt lat="43.9007467" lon="12.576815"><ele>372.0</ele><time>2026-04-19T14:43:58.888Z</time></trkpt><trkpt lat="43.9006933" lon="12.5769567"><ele>372.0</ele><time>2026-04-19T14:43:59.888Z</time></trkpt><trkpt lat="43.90066" lon="12.5770933"><ele>372.0</ele><time>2026-04-19T14:44:00.887Z</time></trkpt><trkpt lat="43.9006533" lon="12.577225"><ele>372.0</ele><time>2026-04-19T14:44:01.888Z</time></trkpt><trkpt lat="43.9006633" lon="12.5773417"><ele>372.0</ele><time>2026-04-19T14:44:02.885Z</time></trkpt><trkpt lat="43.900695" lon="12.5774417"><ele>372.0</ele><time>2026-04-19T14:44:03.885Z</time></trkpt><trkpt lat="43.9007483" lon="12.5775117"><ele>372.0</ele><time>2026-04-19T14:44:04.885Z</time></trkpt><trkpt lat="43.90082" lon="12.5775533"><ele>372.0</ele><time>2026-04-19T14:44:05.888Z</time></trkpt><trkpt lat="43.9009067" lon="12.5775583"><ele>372.0</ele><time>2026-04-19T14:44:06.887Z</time></trkpt><trkpt lat="43.90101" lon="12.57753"><ele>372.0</ele><time>2026-04-19T14:44:07.888Z</time></trkpt><trkpt lat="43.9011283" lon="12.5774483"><ele>372.0</ele><time>2026-04-19T14:44:08.887Z</time></trkpt><trkpt lat="43.9012467" lon="12.577385"><ele>371.75</ele><time>2026-04-19T14:44:09.887Z</time></trkpt><trkpt lat="43.9013717" lon="12.5773167"><ele>371.5</ele><time>2026-04-19T14:44:10.885Z</time></trkpt><trkpt lat="43.9014933" lon="12.5772533"><ele>371.25</ele><time>2026-04-19T14:44:11.886Z</time></trkpt><trkpt lat="43.9016167" lon="12.57719"><ele>371.0</ele><time>2026-04-19T14:44:12.887Z</time></trkpt><trkpt lat="43.9017417" lon="12.57712"><ele>372.5</ele><time>2026-04-19T14:44:13.889Z</time></trkpt><trkpt lat="43.9018683" lon="12.5770483"><ele>374.0</ele><time>2026-04-19T14:44:14.884Z</time></trkpt><trkpt lat="43.9019867" lon="12.5769717"><ele>375.5</ele><time>2026-04-19T14:44:15.885Z</time></trkpt><trkpt lat="43.9021017" lon="12.576885"><ele>377.0</ele><time>2026-04-19T14:44:16.886Z</time></trkpt><trkpt lat="43.9022183" lon="12.5768083"><ele>380.5</ele><time>2026-04-19T14:44:17.887Z</time></trkpt><trkpt lat="43.90234" lon="12.5767667"><ele>384.0</ele><time>2026-04-19T14:44:18.887Z</time></trkpt><trkpt lat="43.9024617" lon="12.5767483"><ele>387.5</ele><time>2026-04-19T14:44:19.889Z</time></trkpt><trkpt lat="43.9025717" lon="12.5767583"><ele>391.0</ele><time>2026-04-19T14:44:20.887Z</time></trkpt><trkpt lat="43.9026717" lon="12.5768067"><ele>393.0</ele><time>2026-04-19T14:44:21.889Z</time></trkpt><trkpt lat="43.9027533" lon="12.5768867"><ele>395.0</ele><time>2026-04-19T14:44:22.887Z</time></trkpt><trkpt lat="43.9028283" lon="12.5769933"><ele>397.0</ele><time>2026-04-19T14:44:23.887Z</time></trkpt><trkpt lat="43.9028883" lon="12.5771117"><ele>399.0</ele><time>2026-04-19T14:44:24.889Z</time></trkpt><trkpt lat="43.9029433" lon="12.577245"><ele>401.0</ele><time>2026-04-19T14:44:25.885Z</time></trkpt><trkpt lat="43.9029867" lon="12.5774"><ele>401.0</ele><time>2026-04-19T14:44:26.885Z</time></trkpt><trkpt lat="43.90303" lon="12.577565"><ele>401.0</ele><time>2026-04-19T14:44:27.888Z</time></trkpt><trkpt lat="43.90307" lon="12.5777267"><ele>401.0</ele><time>2026-04-19T14:44:28.885Z</time></trkpt><trkpt lat="43.9031067" lon="12.5778883"><ele>401.0</ele><time>2026-04-19T14:44:29.885Z</time></trkpt><trkpt lat="43.90314" lon="12.578035"><ele>402.0</ele><time>2026-04-19T14:44:30.884Z</time></trkpt><trkpt lat="43.90318" lon="12.57817"><ele>403.0</ele><time>2026-04-19T14:44:31.885Z</time></trkpt><trkpt lat="43.9032367" lon="12.5782817"><ele>404.0</ele><time>2026-04-19T14:44:32.885Z</time></trkpt><trkpt lat="43.903315" lon="12.578395"><ele>405.0</ele><time>2026-04-19T14:44:33.888Z</time></trkpt><trkpt lat="43.9034083" lon="12.5785133"><ele>406.0</ele><time>2026-04-19T14:44:34.886Z</time></trkpt><trkpt lat="43.903495" lon="12.5786333"><ele>403.0</ele><time>2026-04-19T14:44:35.887Z</time></trkpt><trkpt lat="43.9035733" lon="12.5787717"><ele>400.0</ele><time>2026-04-19T14:44:36.887Z</time></trkpt><trkpt lat="43.9036483" lon="12.5789133"><ele>397.0</ele><time>2026-04-19T14:44:37.887Z</time></trkpt><trkpt lat="43.9037317" lon="12.5790483"><ele>394.0</ele><time>2026-04-19T14:44:38.885Z</time></trkpt><trkpt lat="43.9038183" lon="12.5791733"><ele>394.0</ele><time>2026-04-19T14:44:39.886Z</time></trkpt><trkpt lat="43.9039067" lon="12.57928"><ele>394.0</ele><time>2026-04-19T14:44:40.885Z</time></trkpt><trkpt lat="43.9039933" lon="12.57938"><ele>394.0</ele><time>2026-04-19T14:44:41.888Z</time></trkpt><trkpt lat="43.9040817" lon="12.5794833"><ele>394.0</ele><time>2026-04-19T14:44:42.886Z</time></trkpt><trkpt lat="43.9041667" lon="12.57958"><ele>391.4</ele><time>2026-04-19T14:44:43.886Z</time></trkpt><trkpt lat="43.9042533" lon="12.579675"><ele>388.79999999999995</ele><time>2026-04-19T14:44:44.885Z</time></trkpt><trkpt lat="43.90434" lon="12.5797683"><ele>386.20000000000005</ele><time>2026-04-19T14:44:45.887Z</time></trkpt><trkpt lat="43.904425" lon="12.5798633"><ele>383.6</ele><time>2026-04-19T14:44:46.885Z</time></trkpt><trkpt lat="43.9045033" lon="12.5799533"><ele>381.0</ele><time>2026-04-19T14:44:47.889Z</time></trkpt><trkpt lat="43.9045783" lon="12.5800417"><ele>381.0</ele><time>2026-04-19T14:44:48.885Z</time></trkpt><trkpt lat="43.9046483" lon="12.580125"><ele>381.0</ele><time>2026-04-19T14:44:49.887Z</time></trkpt><trkpt lat="43.904715" lon="12.580205"><ele>381.0</ele><time>2026-04-19T14:44:50.884Z</time></trkpt><trkpt lat="43.9047733" lon="12.5802717"><ele>381.0</ele><time>2026-04-19T14:44:51.885Z</time></trkpt><trkpt lat="43.9048233" lon="12.580325"><ele>381.0</ele><time>2026-04-19T14:44:52.885Z</time></trkpt><trkpt lat="43.90489" lon="12.5804333"><ele>381.0</ele><time>2026-04-19T14:44:54.886Z</time></trkpt><trkpt lat="43.904945" lon="12.5805733"><ele>381.5</ele><time>2026-04-19T14:44:56.886Z</time></trkpt><trkpt lat="43.9049683" lon="12.5806667"><ele>382.0</ele><time>2026-04-19T14:44:57.886Z</time></trkpt><trkpt lat="43.9049767" lon="12.580775"><ele>382.5</ele><time>2026-04-19T14:44:58.886Z</time></trkpt><trkpt lat="43.9049683" lon="12.5808867"><ele>383.0</ele><time>2026-04-19T14:44:59.884Z</time></trkpt><trkpt lat="43.9049583" lon="12.581015"><ele>383.5</ele><time>2026-04-19T14:45:00.886Z</time></trkpt><trkpt lat="43.9049417" lon="12.5811467"><ele>384.0</ele><time>2026-04-19T14:45:01.886Z</time></trkpt><trkpt lat="43.90491" lon="12.5812683"><ele>384.0</ele><time>2026-04-19T14:45:02.885Z</time></trkpt><trkpt lat="43.9048783" lon="12.58139"><ele>384.0</ele><time>2026-04-19T14:45:03.886Z</time></trkpt><trkpt lat="43.9048417" lon="12.5815067"><ele>384.0</ele><time>2026-04-19T14:45:04.885Z</time></trkpt><trkpt lat="43.9048117" lon="12.58162"><ele>384.0</ele><time>2026-04-19T14:45:05.886Z</time></trkpt><trkpt lat="43.90478" lon="12.581725"><ele>384.0</ele><time>2026-04-19T14:45:06.886Z</time></trkpt><trkpt lat="43.9047383" lon="12.5818133"><ele>384.0</ele><time>2026-04-19T14:45:07.885Z</time></trkpt><trkpt lat="43.904695" lon="12.5818967"><ele>384.0</ele><time>2026-04-19T14:45:08.885Z</time></trkpt><trkpt lat="43.904645" lon="12.58198"><ele>384.0</ele><time>2026-04-19T14:45:09.885Z</time></trkpt><trkpt lat="43.9045867" lon="12.5820533"><ele>384.0</ele><time>2026-04-19T14:45:10.885Z</time></trkpt><trkpt lat="43.90452" lon="12.5821233"><ele>384.0</ele><time>2026-04-19T14:45:11.885Z</time></trkpt><trkpt lat="43.9044517" lon="12.58219"><ele>384.0</ele><time>2026-04-19T14:45:12.885Z</time></trkpt><trkpt lat="43.904385" lon="12.5822533"><ele>384.0</ele><time>2026-04-19T14:45:13.885Z</time></trkpt><trkpt lat="43.9043317" lon="12.5823133"><ele>383.1666666666667</ele><time>2026-04-19T14:45:14.888Z</time></trkpt><trkpt lat="43.9042867" lon="12.58241"><ele>382.3333333333333</ele><time>2026-04-19T14:45:16.886Z</time></trkpt><trkpt lat="43.9043" lon="12.5825"><ele>381.5</ele><time>2026-04-19T14:45:18.888Z</time></trkpt><trkpt lat="43.904345" lon="12.58258"><ele>380.66666666666663</ele><time>2026-04-19T14:45:20.885Z</time></trkpt><trkpt lat="43.904385" lon="12.58266"><ele>379.8333333333333</ele><time>2026-04-19T14:45:22.885Z</time></trkpt><trkpt lat="43.90442" lon="12.5827483"><ele>379.0</ele><time>2026-04-19T14:45:24.885Z</time></trkpt><trkpt lat="43.904455" lon="12.58287"><ele>377.5</ele><time>2026-04-19T14:45:26.887Z</time></trkpt><trkpt lat="43.904465" lon="12.582995"><ele>376.0</ele><time>2026-04-19T14:45:28.887Z</time></trkpt><trkpt lat="43.9044183" lon="12.5830717"><ele>374.5</ele><time>2026-04-19T14:45:30.886Z</time></trkpt><trkpt lat="43.9043483" lon="12.5830833"><ele>373.0</ele><time>2026-04-19T14:45:32.888Z</time></trkpt><trkpt lat="43.9044283" lon="12.5831067"><ele>371.5</ele><time>2026-04-19T14:45:39.887Z</time></trkpt><trkpt lat="43.9044817" lon="12.5830383"><ele>370.0</ele><time>2026-04-19T14:45:41.889Z</time></trkpt><trkpt lat="43.9045033" lon="12.582925"><ele>371.5</ele><time>2026-04-19T14:45:43.888Z</time></trkpt><trkpt lat="43.9044667" lon="12.5827717"><ele>373.0</ele><time>2026-04-19T14:45:45.887Z</time></trkpt><trkpt lat="43.9044317" lon="12.58269"><ele>374.5</ele><time>2026-04-19T14:45:46.885Z</time></trkpt><trkpt lat="43.904395" lon="12.5826167"><ele>376.0</ele><time>2026-04-19T14:45:47.887Z</time></trkpt><trkpt lat="43.9043517" lon="12.5824833"><ele>377.5</ele><time>2026-04-19T14:45:49.886Z</time></trkpt><trkpt lat="43.90437" lon="12.5823967"><ele>379.0</ele><time>2026-04-19T14:45:51.885Z</time></trkpt><trkpt lat="43.9044717" lon="12.58246"><ele>379.00000000000006</ele><time>2026-04-19T14:45:54.888Z</time></trkpt><trkpt lat="43.9045167" lon="12.5825483"><ele>379.0</ele><time>2026-04-19T14:45:55.886Z</time></trkpt><trkpt lat="43.9045567" lon="12.58263"><ele>379.0</ele><time>2026-04-19T14:45:56.888Z</time></trkpt><trkpt lat="43.9045967" lon="12.5827"><ele>379.0</ele><time>2026-04-19T14:45:57.887Z</time></trkpt><trkpt lat="43.9046333" lon="12.58278"><ele>379.0</ele><time>2026-04-19T14:45:58.885Z</time></trkpt><trkpt lat="43.9046533" lon="12.5828717"><ele>379.00000000000006</ele><time>2026-04-19T14:45:59.888Z</time></trkpt><trkpt lat="43.9046483" lon="12.5829967"><ele>379.0</ele><time>2026-04-19T14:46:00.885Z</time></trkpt><trkpt lat="43.9046267" lon="12.5831317"><ele>376.75</ele><time>2026-04-19T14:46:01.888Z</time></trkpt><trkpt lat="43.9045733" lon="12.5833133"><ele>374.5</ele><time>2026-04-19T14:46:02.884Z</time></trkpt><trkpt lat="43.9045267" lon="12.5834633"><ele>372.25</ele><time>2026-04-19T14:46:03.888Z</time></trkpt><trkpt lat="43.9044783" lon="12.5836033"><ele>370.0</ele><time>2026-04-19T14:46:04.885Z</time></trkpt><trkpt lat="43.9044267" lon="12.5837317"><ele>367.16666666666663</ele><time>2026-04-19T14:46:05.885Z</time></trkpt><trkpt lat="43.904375" lon="12.5838433"><ele>364.3333333333333</ele><time>2026-04-19T14:46:06.887Z</time></trkpt><trkpt lat="43.9043217" lon="12.5839483"><ele>361.5</ele><time>2026-04-19T14:46:07.888Z</time></trkpt><trkpt lat="43.9042683" lon="12.5840417"><ele>358.6666666666667</ele><time>2026-04-19T14:46:08.886Z</time></trkpt><trkpt lat="43.904215" lon="12.5841383"><ele>355.83333333333337</ele><time>2026-04-19T14:46:09.887Z</time></trkpt><trkpt lat="43.9041633" lon="12.5842333"><ele>353.0</ele><time>2026-04-19T14:46:10.888Z</time></trkpt><trkpt lat="43.9041133" lon="12.5843317"><ele>356.4</ele><time>2026-04-19T14:46:11.885Z</time></trkpt><trkpt lat="43.904065" lon="12.5844417"><ele>359.79999999999995</ele><time>2026-04-19T14:46:12.888Z</time></trkpt><trkpt lat="43.9040167" lon="12.5845533"><ele>363.2</ele><time>2026-04-19T14:46:13.886Z</time></trkpt><trkpt lat="43.90396" lon="12.5846783"><ele>366.6</ele><time>2026-04-19T14:46:14.886Z</time></trkpt><trkpt lat="43.9039" lon="12.5847917"><ele>370.0</ele><time>2026-04-19T14:46:15.886Z</time></trkpt><trkpt lat="43.90383" lon="12.5849033"><ele>370.0</ele><time>2026-04-19T14:46:16.889Z</time></trkpt><trkpt lat="43.90375" lon="12.5849917"><ele>370.0</ele><time>2026-04-19T14:46:17.885Z</time></trkpt><trkpt lat="43.9036567" lon="12.58504"><ele>370.0</ele><time>2026-04-19T14:46:18.887Z</time></trkpt><trkpt lat="43.9035733" lon="12.585055"><ele>370.0</ele><time>2026-04-19T14:46:19.887Z</time></trkpt><trkpt lat="43.9034967" lon="12.5850533"><ele>370.0</ele><time>2026-04-19T14:46:20.886Z</time></trkpt><trkpt lat="43.9034267" lon="12.5850317"><ele>370.0</ele><time>2026-04-19T14:46:21.887Z</time></trkpt><trkpt lat="43.9033467" lon="12.5849183"><ele>371.0</ele><time>2026-04-19T14:46:23.89Z</time></trkpt><trkpt lat="43.9032683" lon="12.5847833"><ele>372.0</ele><time>2026-04-19T14:46:25.886Z</time></trkpt><trkpt lat="43.9031833" lon="12.5847367"><ele>373.0</ele><time>2026-04-19T14:46:27.888Z</time></trkpt><trkpt lat="43.9030533" lon="12.5848617"><ele>374.0</ele><time>2026-04-19T14:46:29.886Z</time></trkpt><trkpt lat="43.9029717" lon="12.58494"><ele>374.0</ele><time>2026-04-19T14:46:30.888Z</time></trkpt><trkpt lat="43.9028883" lon="12.5850167"><ele>374.0</ele><time>2026-04-19T14:46:31.887Z</time></trkpt><trkpt lat="43.9028167" lon="12.5851217"><ele>374.0</ele><time>2026-04-19T14:46:32.886Z</time></trkpt><trkpt lat="43.9027683" lon="12.5852417"><ele>374.0</ele><time>2026-04-19T14:46:33.886Z</time></trkpt><trkpt lat="43.9027317" lon="12.58536"><ele>374.0</ele><time>2026-04-19T14:46:34.887Z</time></trkpt><trkpt lat="43.9027433" lon="12.5854917"><ele>369.79999999999995</ele><time>2026-04-19T14:46:35.887Z</time></trkpt><trkpt lat="43.90276" lon="12.5856217"><ele>365.59999999999997</ele><time>2026-04-19T14:46:36.886Z</time></trkpt><trkpt lat="43.9027933" lon="12.5857333"><ele>361.4</ele><time>2026-04-19T14:46:37.886Z</time></trkpt><trkpt lat="43.9028533" lon="12.58583"><ele>357.2</ele><time>2026-04-19T14:46:38.886Z</time></trkpt><trkpt lat="43.90293" lon="12.5858883"><ele>353.0</ele><time>2026-04-19T14:46:39.888Z</time></trkpt><trkpt lat="43.9030333" lon="12.585905"><ele>353.0</ele><time>2026-04-19T14:46:40.887Z</time></trkpt><trkpt lat="43.903135" lon="12.585895"><ele>353.0</ele><time>2026-04-19T14:46:41.886Z</time></trkpt><trkpt lat="43.9032383" lon="12.585915"><ele>353.0</ele><time>2026-04-19T14:46:42.887Z</time></trkpt><trkpt lat="43.9033533" lon="12.5859067"><ele>353.0</ele><time>2026-04-19T14:46:43.885Z</time></trkpt><trkpt lat="43.9034717" lon="12.585925"><ele>353.0</ele><time>2026-04-19T14:46:44.886Z</time></trkpt><trkpt lat="43.9036017" lon="12.5859467"><ele>350.0</ele><time>2026-04-19T14:46:45.888Z</time></trkpt><trkpt lat="43.90375" lon="12.5859467"><ele>347.0</ele><time>2026-04-19T14:46:46.885Z</time></trkpt><trkpt lat="43.903885" lon="12.58593"><ele>344.0</ele><time>2026-04-19T14:46:47.885Z</time></trkpt><trkpt lat="43.9040083" lon="12.5859033"><ele>341.0</ele><time>2026-04-19T14:46:48.887Z</time></trkpt><trkpt lat="43.9041183" lon="12.5858667"><ele>341.0</ele><time>2026-04-19T14:46:49.884Z</time></trkpt><trkpt lat="43.904235" lon="12.5858233"><ele>341.0</ele><time>2026-04-19T14:46:50.884Z</time></trkpt><trkpt lat="43.9043533" lon="12.5857667"><ele>341.0</ele><time>2026-04-19T14:46:51.884Z</time></trkpt><trkpt lat="43.9044783" lon="12.5857067"><ele>341.0</ele><time>2026-04-19T14:46:52.886Z</time></trkpt><trkpt lat="43.9046033" lon="12.5856517"><ele>336.5</ele><time>2026-04-19T14:46:53.885Z</time></trkpt><trkpt lat="43.9047233" lon="12.585625"><ele>332.0</ele><time>2026-04-19T14:46:54.885Z</time></trkpt><trkpt lat="43.90484" lon="12.585605"><ele>327.5</ele><time>2026-04-19T14:46:55.886Z</time></trkpt><trkpt lat="43.904945" lon="12.585565"><ele>323.0</ele><time>2026-04-19T14:46:56.885Z</time></trkpt><trkpt lat="43.90504" lon="12.5855133"><ele>320.0</ele><time>2026-04-19T14:46:57.885Z</time></trkpt><trkpt lat="43.9051133" lon="12.5854433"><ele>317.0</ele><time>2026-04-19T14:46:58.885Z</time></trkpt><trkpt lat="43.90518" lon="12.5853733"><ele>314.0</ele><time>2026-04-19T14:46:59.886Z</time></trkpt><trkpt lat="43.9052267" lon="12.5853067"><ele>311.0</ele><time>2026-04-19T14:47:00.886Z</time></trkpt><trkpt lat="43.9053267" lon="12.58524"><ele>308.0</ele><time>2026-04-19T14:47:02.884Z</time></trkpt><trkpt lat="43.9053867" lon="12.58534"><ele>305.0</ele><time>2026-04-19T14:47:04.884Z</time></trkpt><trkpt lat="43.905405" lon="12.5854583"><ele>305.0</ele><time>2026-04-19T14:47:05.884Z</time></trkpt><trkpt lat="43.9054" lon="12.5856367"><ele>305.0</ele><time>2026-04-19T14:47:06.885Z</time></trkpt><trkpt lat="43.9053917" lon="12.5858233"><ele>305.0</ele><time>2026-04-19T14:47:07.885Z</time></trkpt><trkpt lat="43.90539" lon="12.5859867"><ele>305.0</ele><time>2026-04-19T14:47:08.885Z</time></trkpt><trkpt lat="43.9053917" lon="12.58614"><ele>305.5</ele><time>2026-04-19T14:47:09.886Z</time></trkpt><trkpt lat="43.9053967" lon="12.586285"><ele>306.0</ele><time>2026-04-19T14:47:10.886Z</time></trkpt><trkpt lat="43.9054" lon="12.58642"><ele>306.5</ele><time>2026-04-19T14:47:11.885Z</time></trkpt><trkpt lat="43.905405" lon="12.5865367"><ele>307.0</ele><time>2026-04-19T14:47:12.885Z</time></trkpt><trkpt lat="43.9054117" lon="12.5866433"><ele>307.5</ele><time>2026-04-19T14:47:13.886Z</time></trkpt><trkpt lat="43.9054183" lon="12.586745"><ele>308.0</ele><time>2026-04-19T14:47:14.888Z</time></trkpt><trkpt lat="43.905425" lon="12.586835"><ele>308.0</ele><time>2026-04-19T14:47:15.888Z</time></trkpt><trkpt lat="43.9054267" lon="12.5869533"><ele>308.0</ele><time>2026-04-19T14:47:17.885Z</time></trkpt><trkpt lat="43.9055283" lon="12.5869167"><ele>308.0</ele><time>2026-04-19T14:47:39.884Z</time></trkpt><trkpt lat="43.9056183" lon="12.586875"><ele>308.0</ele><time>2026-04-19T14:47:41.887Z</time></trkpt><trkpt lat="43.90572" lon="12.58685"><ele>308.0</ele><time>2026-04-19T14:47:43.888Z</time></trkpt><trkpt lat="43.90581" lon="12.5868367"><ele>308.0</ele><time>2026-04-19T14:47:45.884Z</time></trkpt><trkpt lat="43.9059033" lon="12.5868317"><ele>308.0</ele><time>2026-04-19T14:47:47.885Z</time></trkpt><trkpt lat="43.9059983" lon="12.586855"><ele>308.0</ele><time>2026-04-19T14:47:49.885Z</time></trkpt><trkpt lat="43.9060933" lon="12.5868833"><ele>308.0</ele><time>2026-04-19T14:47:51.885Z</time></trkpt><trkpt lat="43.906175" lon="12.5869"><ele>308.0</ele><time>2026-04-19T14:47:54.888Z</time></trkpt><trkpt lat="43.906245" lon="12.586905"><ele>308.0</ele><time>2026-04-19T14:47:57.887Z</time></trkpt><trkpt lat="43.90631" lon="12.5869083"><ele>304.6</ele><time>2026-04-19T14:47:59.884Z</time></trkpt><trkpt lat="43.9063917" lon="12.5868767"><ele>301.20000000000005</ele><time>2026-04-19T14:48:01.887Z</time></trkpt><trkpt lat="43.90649" lon="12.586805"><ele>297.8</ele><time>2026-04-19T14:48:03.888Z</time></trkpt><trkpt lat="43.9065917" lon="12.5867283"><ele>294.40000000000003</ele><time>2026-04-19T14:48:05.885Z</time></trkpt><trkpt lat="43.906705" lon="12.5866817"><ele>291.0</ele><time>2026-04-19T14:48:07.886Z</time></trkpt><trkpt lat="43.9068217" lon="12.5866383"><ele>287.25</ele><time>2026-04-19T14:48:09.885Z</time></trkpt><trkpt lat="43.9069417" lon="12.5866"><ele>283.5</ele><time>2026-04-19T14:48:11.884Z</time></trkpt><trkpt lat="43.9070617" lon="12.586565"><ele>279.75</ele><time>2026-04-19T14:48:13.885Z</time></trkpt><trkpt lat="43.9071783" lon="12.5865267"><ele>276.0</ele><time>2026-04-19T14:48:15.885Z</time></trkpt><trkpt lat="43.9072967" lon="12.5864667"><ele>276.0</ele><time>2026-04-19T14:48:17.884Z</time></trkpt><trkpt lat="43.9073933" lon="12.5864167"><ele>276.0</ele><time>2026-04-19T14:48:19.887Z</time></trkpt><trkpt lat="43.90746" lon="12.5863417"><ele>276.0</ele><time>2026-04-19T14:48:23.888Z</time></trkpt><trkpt lat="43.90751" lon="12.586265"><ele>276.0</ele><time>2026-04-19T14:48:25.887Z</time></trkpt><trkpt lat="43.9075617" lon="12.5861633"><ele>276.0</ele><time>2026-04-19T14:48:27.888Z</time></trkpt><trkpt lat="43.907605" lon="12.5860117"><ele>272.14285714285717</ele><time>2026-04-19T14:48:29.888Z</time></trkpt><trkpt lat="43.9076267" lon="12.5859167"><ele>268.28571428571433</ele><time>2026-04-19T14:48:30.888Z</time></trkpt><trkpt lat="43.9076467" lon="12.5858183"><ele>264.42857142857144</ele><time>2026-04-19T14:48:31.884Z</time></trkpt><trkpt lat="43.9076683" lon="12.5857167"><ele>260.57142857142856</ele><time>2026-04-19T14:48:32.887Z</time></trkpt><trkpt lat="43.907685" lon="12.5856217"><ele>256.71428571428567</ele><time>2026-04-19T14:48:33.884Z</time></trkpt><trkpt lat="43.9076967" lon="12.58553"><ele>252.85714285714283</ele><time>2026-04-19T14:48:34.885Z</time></trkpt><trkpt lat="43.9077117" lon="12.58544"><ele>249.0</ele><time>2026-04-19T14:48:35.886Z</time></trkpt><trkpt lat="43.9077283" lon="12.5853433"><ele>249.0</ele><time>2026-04-19T14:48:36.885Z</time></trkpt><trkpt lat="43.9077467" lon="12.5852583"><ele>248.99999999999997</ele><time>2026-04-19T14:48:37.885Z</time></trkpt><trkpt lat="43.90778" lon="12.5851083"><ele>248.99999999999997</ele><time>2026-04-19T14:48:39.887Z</time></trkpt><trkpt lat="43.9078267" lon="12.5849833"><ele>249.0</ele><time>2026-04-19T14:48:41.885Z</time></trkpt><trkpt lat="43.907925" lon="12.5848567"><ele>249.0</ele><time>2026-04-19T14:48:43.884Z</time></trkpt><trkpt lat="43.90798" lon="12.5847783"><ele>249.0</ele><time>2026-04-19T14:48:44.885Z</time></trkpt><trkpt lat="43.9080333" lon="12.5846983"><ele>249.0</ele><time>2026-04-19T14:48:45.888Z</time></trkpt><trkpt lat="43.9080817" lon="12.584605"><ele>249.0</ele><time>2026-04-19T14:48:46.887Z</time></trkpt><trkpt lat="43.9081217" lon="12.5845067"><ele>249.0</ele><time>2026-04-19T14:48:47.887Z</time></trkpt><trkpt lat="43.9081533" lon="12.584405"><ele>249.0</ele><time>2026-04-19T14:48:48.887Z</time></trkpt><trkpt lat="43.9081833" lon="12.584295"><ele>249.0</ele><time>2026-04-19T14:48:49.888Z</time></trkpt><trkpt lat="43.9082117" lon="12.58418"><ele>249.0</ele><time>2026-04-19T14:48:50.884Z</time></trkpt><trkpt lat="43.90824" lon="12.5840583"><ele>249.0</ele><time>2026-04-19T14:48:51.888Z</time></trkpt><trkpt lat="43.9082733" lon="12.5839417"><ele>249.0</ele><time>2026-04-19T14:48:52.888Z</time></trkpt><trkpt lat="43.9083133" lon="12.583845"><ele>249.0</ele><time>2026-04-19T14:48:53.885Z</time></trkpt><trkpt lat="43.9083667" lon="12.583745"><ele>249.0</ele><time>2026-04-19T14:48:54.888Z</time></trkpt><trkpt lat="43.908415" lon="12.583655"><ele>249.0</ele><time>2026-04-19T14:48:55.888Z</time></trkpt><trkpt lat="43.908455" lon="12.583575"><ele>249.0</ele><time>2026-04-19T14:48:56.888Z</time></trkpt><trkpt lat="43.9084917" lon="12.58349"><ele>249.0</ele><time>2026-04-19T14:48:58.886Z</time></trkpt><trkpt lat="43.908515" lon="12.5833883"><ele>249.0</ele><time>2026-04-19T14:49:11.887Z</time></trkpt><trkpt lat="43.9085917" lon="12.5832617"><ele>249.0</ele><time>2026-04-19T14:49:13.884Z</time></trkpt><trkpt lat="43.9086367" lon="12.5831933"><ele>249.0</ele><time>2026-04-19T14:49:14.886Z</time></trkpt><trkpt lat="43.9086833" lon="12.583125"><ele>249.0</ele><time>2026-04-19T14:49:15.886Z</time></trkpt><trkpt lat="43.9087283" lon="12.5830633"><ele>249.0</ele><time>2026-04-19T14:49:16.887Z</time></trkpt><trkpt lat="43.9088183" lon="12.5829533"><ele>248.99999999999997</ele><time>2026-04-19T14:49:18.887Z</time></trkpt><trkpt lat="43.908905" lon="12.5828667"><ele>248.99999999999997</ele><time>2026-04-19T14:49:20.886Z</time></trkpt><trkpt lat="43.9089967" lon="12.5827933"><ele>249.0</ele><time>2026-04-19T14:49:22.887Z</time></trkpt><trkpt lat="43.9090983" lon="12.5827367"><ele>249.0</ele><time>2026-04-19T14:49:24.888Z</time></trkpt><trkpt lat="43.9091917" lon="12.582705"><ele>247.66666666666666</ele><time>2026-04-19T14:49:26.887Z</time></trkpt><trkpt lat="43.90927" lon="12.5826833"><ele>246.33333333333331</ele><time>2026-04-19T14:49:28.885Z</time></trkpt><trkpt lat="43.909375" lon="12.5826283"><ele>245.0</ele><time>2026-04-19T14:49:30.885Z</time></trkpt><trkpt lat="43.909475" lon="12.5825183"><ele>243.66666666666666</ele><time>2026-04-19T14:49:32.885Z</time></trkpt><trkpt lat="43.909515" lon="12.5824467"><ele>242.33333333333331</ele><time>2026-04-19T14:49:33.889Z</time></trkpt><trkpt lat="43.9095433" lon="12.5823683"><ele>241.0</ele><time>2026-04-19T14:49:34.886Z</time></trkpt><trkpt lat="43.9095767" lon="12.5822833"><ele>240.99999999999997</ele><time>2026-04-19T14:49:35.884Z</time></trkpt><trkpt lat="43.9096167" lon="12.582195"><ele>241.0</ele><time>2026-04-19T14:49:36.884Z</time></trkpt><trkpt lat="43.9096617" lon="12.58211"><ele>241.0</ele><time>2026-04-19T14:49:37.885Z</time></trkpt><trkpt lat="43.9097083" lon="12.5820333"><ele>241.0</ele><time>2026-04-19T14:49:38.884Z</time></trkpt><trkpt lat="43.90976" lon="12.58196"><ele>240.99999999999997</ele><time>2026-04-19T14:49:39.885Z</time></trkpt><trkpt lat="43.9098083" lon="12.5818967"><ele>241.0</ele><time>2026-04-19T14:49:40.886Z</time></trkpt><trkpt lat="43.9098533" lon="12.5817933"><ele>239.4</ele><time>2026-04-19T14:49:42.887Z</time></trkpt><trkpt lat="43.9098817" lon="12.581705"><ele>237.8</ele><time>2026-04-19T14:49:44.884Z</time></trkpt><trkpt lat="43.9099567" lon="12.5816333"><ele>236.20000000000002</ele><time>2026-04-19T14:49:46.885Z</time></trkpt><trkpt lat="43.9100567" lon="12.5815833"><ele>234.60000000000002</ele><time>2026-04-19T14:49:48.884Z</time></trkpt><trkpt lat="43.9101433" lon="12.5815067"><ele>233.0</ele><time>2026-04-19T14:49:50.885Z</time></trkpt><trkpt lat="43.9102133" lon="12.5814117"><ele>233.0</ele><time>2026-04-19T14:49:52.885Z</time></trkpt><trkpt lat="43.9102517" lon="12.5813033"><ele>233.0</ele><time>2026-04-19T14:49:54.887Z</time></trkpt><trkpt lat="43.910265" lon="12.5811883"><ele>233.0</ele><time>2026-04-19T14:49:56.888Z</time></trkpt><trkpt lat="43.9102667" lon="12.5810233"><ele>233.0</ele><time>2026-04-19T14:49:58.885Z</time></trkpt><trkpt lat="43.9102617" lon="12.5808517"><ele>233.0</ele><time>2026-04-19T14:50:00.885Z</time></trkpt><trkpt lat="43.910255" lon="12.58076"><ele>232.66666666666669</ele><time>2026-04-19T14:50:01.886Z</time></trkpt><trkpt lat="43.9102533" lon="12.580665"><ele>232.33333333333334</ele><time>2026-04-19T14:50:02.884Z</time></trkpt><trkpt lat="43.9102567" lon="12.5805767"><ele>232.0</ele><time>2026-04-19T14:50:03.885Z</time></trkpt><trkpt lat="43.910285" lon="12.58045"><ele>231.66666666666669</ele><time>2026-04-19T14:50:05.884Z</time></trkpt><trkpt lat="43.9103583" lon="12.5803733"><ele>231.33333333333334</ele><time>2026-04-19T14:50:07.889Z</time></trkpt><trkpt lat="43.9104217" lon="12.5803483"><ele>231.0</ele><time>2026-04-19T14:50:08.887Z</time></trkpt><trkpt lat="43.9104883" lon="12.5803267"><ele>230.66666666666666</ele><time>2026-04-19T14:50:09.889Z</time></trkpt><trkpt lat="43.9105517" lon="12.5803083"><ele>230.33333333333331</ele><time>2026-04-19T14:50:10.981Z</time></trkpt><trkpt lat="43.9106617" lon="12.5802667"><ele>230.0</ele><time>2026-04-19T14:50:12.887Z</time></trkpt><trkpt lat="43.9107283" lon="12.5801817"><ele>229.66666666666666</ele><time>2026-04-19T14:50:14.888Z</time></trkpt><trkpt lat="43.91077" lon="12.58008"><ele>229.33333333333331</ele><time>2026-04-19T14:50:16.888Z</time></trkpt><trkpt lat="43.910805" lon="12.57997"><ele>229.0</ele><time>2026-04-19T14:50:18.888Z</time></trkpt><trkpt lat="43.9108533" lon="12.5798567"><ele>225.49999999999997</ele><time>2026-04-19T14:50:20.888Z</time></trkpt><trkpt lat="43.9109083" lon="12.5797633"><ele>222.0</ele><time>2026-04-19T14:50:22.885Z</time></trkpt><trkpt lat="43.9109783" lon="12.5797033"><ele>218.5</ele><time>2026-04-19T14:50:24.888Z</time></trkpt><trkpt lat="43.9110533" lon="12.57965"><ele>215.0</ele><time>2026-04-19T14:50:26.889Z</time></trkpt><trkpt lat="43.9111267" lon="12.5795983"><ele>211.49999999999997</ele><time>2026-04-19T14:50:28.885Z</time></trkpt><trkpt lat="43.91118" lon="12.5795317"><ele>208.0</ele><time>2026-04-19T14:50:30.885Z</time></trkpt><trkpt lat="43.9112317" lon="12.5794367"><ele>207.83333333333331</ele><time>2026-04-19T14:50:32.885Z</time></trkpt><trkpt lat="43.9112833" lon="12.5793267"><ele>207.66666666666666</ele><time>2026-04-19T14:50:34.887Z</time></trkpt><trkpt lat="43.91133" lon="12.5792117"><ele>207.5</ele><time>2026-04-19T14:50:36.886Z</time></trkpt><trkpt lat="43.9113683" lon="12.5791083"><ele>207.33333333333331</ele><time>2026-04-19T14:50:38.884Z</time></trkpt><trkpt lat="43.9114167" lon="12.5790167"><ele>207.16666666666666</ele><time>2026-04-19T14:50:40.888Z</time></trkpt><trkpt lat="43.91147" lon="12.578915"><ele>207.0</ele><time>2026-04-19T14:50:42.885Z</time></trkpt><trkpt lat="43.91151" lon="12.57881"><ele>207.0</ele><time>2026-04-19T14:50:44.884Z</time></trkpt><trkpt lat="43.9115567" lon="12.57872"><ele>207.0</ele><time>2026-04-19T14:50:46.885Z</time></trkpt><trkpt lat="43.9115933" lon="12.5786367"><ele>207.0</ele><time>2026-04-19T14:50:48.885Z</time></trkpt><trkpt lat="43.9116533" lon="12.5784883"><ele>207.0</ele><time>2026-04-19T14:50:50.887Z</time></trkpt><trkpt lat="43.9116933" lon="12.5784"><ele>207.0</ele><time>2026-04-19T14:50:51.887Z</time></trkpt><trkpt lat="43.911735" lon="12.5783167"><ele>207.0</ele><time>2026-04-19T14:50:52.888Z</time></trkpt><trkpt lat="43.911775" lon="12.5782333"><ele>203.33333333333334</ele><time>2026-04-19T14:50:53.887Z</time></trkpt><trkpt lat="43.911815" lon="12.5781583"><ele>199.66666666666666</ele><time>2026-04-19T14:50:54.886Z</time></trkpt><trkpt lat="43.91185" lon="12.5780783"><ele>196.0</ele><time>2026-04-19T14:50:55.889Z</time></trkpt><trkpt lat="43.91191" lon="12.57794"><ele>192.33333333333331</ele><time>2026-04-19T14:50:57.888Z</time></trkpt><trkpt lat="43.9119617" lon="12.5778717"><ele>188.66666666666666</ele><time>2026-04-19T14:50:59.888Z</time></trkpt><trkpt lat="43.912025" lon="12.57787"><ele>185.0</ele><time>2026-04-19T14:51:16.886Z</time></trkpt><trkpt lat="43.9121317" lon="12.5779183"><ele>185.0</ele><time>2026-04-19T14:51:18.886Z</time></trkpt><trkpt lat="43.9121933" lon="12.5779467"><ele>185.0</ele><time>2026-04-19T14:51:19.887Z</time></trkpt><trkpt lat="43.91226" lon="12.5779767"><ele>185.0</ele><time>2026-04-19T14:51:20.886Z</time></trkpt><trkpt lat="43.9123333" lon="12.5780083"><ele>185.0</ele><time>2026-04-19T14:51:21.887Z</time></trkpt><trkpt lat="43.9124117" lon="12.57805"><ele>185.0</ele><time>2026-04-19T14:51:22.887Z</time></trkpt><trkpt lat="43.9124917" lon="12.578085"><ele>185.0</ele><time>2026-04-19T14:51:23.886Z</time></trkpt><trkpt lat="43.91257" lon="12.57812"><ele>182.66666666666666</ele><time>2026-04-19T14:51:24.888Z</time></trkpt><trkpt lat="43.9126483" lon="12.5781533"><ele>180.33333333333331</ele><time>2026-04-19T14:51:25.887Z</time></trkpt><trkpt lat="43.912725" lon="12.578185"><ele>178.0</ele><time>2026-04-19T14:51:26.886Z</time></trkpt><trkpt lat="43.9128017" lon="12.5782233"><ele>175.66666666666666</ele><time>2026-04-19T14:51:27.887Z</time></trkpt><trkpt lat="43.9128667" lon="12.5782717"><ele>173.33333333333334</ele><time>2026-04-19T14:51:28.887Z</time></trkpt><trkpt lat="43.9129333" lon="12.578335"><ele>171.0</ele><time>2026-04-19T14:51:29.89Z</time></trkpt><trkpt lat="43.9129933" lon="12.5784167"><ele>171.0</ele><time>2026-04-19T14:51:30.885Z</time></trkpt><trkpt lat="43.9130583" lon="12.5785"><ele>171.0</ele><time>2026-04-19T14:51:31.891Z</time></trkpt><trkpt lat="43.91313" lon="12.5785767"><ele>171.0</ele><time>2026-04-19T14:51:32.888Z</time></trkpt><trkpt lat="43.9132117" lon="12.5786333"><ele>171.0</ele><time>2026-04-19T14:51:33.889Z</time></trkpt><trkpt lat="43.9132983" lon="12.5786733"><ele>171.0</ele><time>2026-04-19T14:51:34.885Z</time></trkpt><trkpt lat="43.9133883" lon="12.5786917"><ele>167.60000000000002</ele><time>2026-04-19T14:51:35.886Z</time></trkpt><trkpt lat="43.91348" lon="12.5786917"><ele>164.20000000000002</ele><time>2026-04-19T14:51:36.887Z</time></trkpt><trkpt lat="43.9135733" lon="12.57869"><ele>160.8</ele><time>2026-04-19T14:51:37.887Z</time></trkpt><trkpt lat="43.91367" lon="12.57869"><ele>157.4</ele><time>2026-04-19T14:51:38.886Z</time></trkpt><trkpt lat="43.9137717" lon="12.57869"><ele>154.0</ele><time>2026-04-19T14:51:39.886Z</time></trkpt><trkpt lat="43.9138783" lon="12.5786967"><ele>154.0</ele><time>2026-04-19T14:51:40.889Z</time></trkpt><trkpt lat="43.91399" lon="12.5787117"><ele>154.0</ele><time>2026-04-19T14:51:41.888Z</time></trkpt><trkpt lat="43.914105" lon="12.5787383"><ele>154.0</ele><time>2026-04-19T14:51:42.888Z</time></trkpt><trkpt lat="43.914215" lon="12.5787883"><ele>154.0</ele><time>2026-04-19T14:51:43.889Z</time></trkpt><trkpt lat="43.9143167" lon="12.5788783"><ele>151.5</ele><time>2026-04-19T14:51:44.887Z</time></trkpt><trkpt lat="43.91442" lon="12.5789967"><ele>149.0</ele><time>2026-04-19T14:51:45.887Z</time></trkpt><trkpt lat="43.9145283" lon="12.5791167"><ele>146.5</ele><time>2026-04-19T14:51:46.887Z</time></trkpt><trkpt lat="43.9146367" lon="12.5792267"><ele>144.0</ele><time>2026-04-19T14:51:47.885Z</time></trkpt><trkpt lat="43.9147467" lon="12.5793217"><ele>144.0</ele><time>2026-04-19T14:51:48.886Z</time></trkpt><trkpt lat="43.9148567" lon="12.5794033"><ele>144.0</ele><time>2026-04-19T14:51:49.886Z</time></trkpt><trkpt lat="43.9149683" lon="12.57947"><ele>144.0</ele><time>2026-04-19T14:51:50.885Z</time></trkpt><trkpt lat="43.9150817" lon="12.5795233"><ele>144.0</ele><time>2026-04-19T14:51:51.886Z</time></trkpt><trkpt lat="43.9151933" lon="12.5795617"><ele>142.6</ele><time>2026-04-19T14:51:52.887Z</time></trkpt><trkpt lat="43.915305" lon="12.57959"><ele>141.2</ele><time>2026-04-19T14:51:53.885Z</time></trkpt><trkpt lat="43.91541" lon="12.57962"><ele>139.79999999999998</ele><time>2026-04-19T14:51:54.885Z</time></trkpt><trkpt lat="43.9155083" lon="12.57966"><ele>138.4</ele><time>2026-04-19T14:51:55.886Z</time></trkpt><trkpt lat="43.915605" lon="12.5797083"><ele>137.0</ele><time>2026-04-19T14:51:56.885Z</time></trkpt><trkpt lat="43.9157017" lon="12.5797633"><ele>137.0</ele><time>2026-04-19T14:51:57.885Z</time></trkpt><trkpt lat="43.9158017" lon="12.5798167"><ele>137.0</ele><time>2026-04-19T14:51:58.888Z</time></trkpt><trkpt lat="43.91591" lon="12.5798667"><ele>137.0</ele><time>2026-04-19T14:51:59.887Z</time></trkpt><trkpt lat="43.9160233" lon="12.579915"><ele>137.0</ele><time>2026-04-19T14:52:00.885Z</time></trkpt><trkpt lat="43.9161433" lon="12.57996"><ele>135.0</ele><time>2026-04-19T14:52:01.886Z</time></trkpt><trkpt lat="43.916265" lon="12.580005"><ele>133.0</ele><time>2026-04-19T14:52:02.888Z</time></trkpt><trkpt lat="43.9163933" lon="12.5800483"><ele>131.0</ele><time>2026-04-19T14:52:03.888Z</time></trkpt><trkpt lat="43.916515" lon="12.5801017"><ele>129.0</ele><time>2026-04-19T14:52:04.887Z</time></trkpt><trkpt lat="43.9166283" lon="12.5801533"><ele>128.0</ele><time>2026-04-19T14:52:05.887Z</time></trkpt><trkpt lat="43.91674" lon="12.5801983"><ele>127.0</ele><time>2026-04-19T14:52:06.89Z</time></trkpt><trkpt lat="43.9168517" lon="12.5802417"><ele>126.0</ele><time>2026-04-19T14:52:07.888Z</time></trkpt><trkpt lat="43.9169633" lon="12.5802783"><ele>125.0</ele><time>2026-04-19T14:52:08.886Z</time></trkpt><trkpt lat="43.9170783" lon="12.58031"><ele>125.0</ele><time>2026-04-19T14:52:09.888Z</time></trkpt><trkpt lat="43.9171883" lon="12.5803383"><ele>125.0</ele><time>2026-04-19T14:52:10.888Z</time></trkpt><trkpt lat="43.9172917" lon="12.580365"><ele>125.0</ele><time>2026-04-19T14:52:11.889Z</time></trkpt><trkpt lat="43.917385" lon="12.5803867"><ele>125.0</ele><time>2026-04-19T14:52:12.885Z</time></trkpt><trkpt lat="43.9174683" lon="12.5804067"><ele>125.0</ele><time>2026-04-19T14:52:13.887Z</time></trkpt><trkpt lat="43.91754" lon="12.5804267"><ele>124.83333333333333</ele><time>2026-04-19T14:52:14.885Z</time></trkpt><trkpt lat="43.917605" lon="12.5804667"><ele>124.66666666666666</ele><time>2026-04-19T14:52:15.887Z</time></trkpt><trkpt lat="43.917665" lon="12.5805267"><ele>124.5</ele><time>2026-04-19T14:52:16.887Z</time></trkpt><trkpt lat="43.91772" lon="12.5805983"><ele>124.33333333333334</ele><time>2026-04-19T14:52:17.885Z</time></trkpt><trkpt lat="43.91777" lon="12.5806883"><ele>124.16666666666667</ele><time>2026-04-19T14:52:18.887Z</time></trkpt><trkpt lat="43.91782" lon="12.5807967"><ele>124.0</ele><time>2026-04-19T14:52:19.886Z</time></trkpt><trkpt lat="43.917875" lon="12.58092"><ele>124.0</ele><time>2026-04-19T14:52:20.886Z</time></trkpt><trkpt lat="43.917935" lon="12.5810417"><ele>124.0</ele><time>2026-04-19T14:52:21.888Z</time></trkpt><trkpt lat="43.9180067" lon="12.5811633"><ele>124.0</ele><time>2026-04-19T14:52:22.887Z</time></trkpt><trkpt lat="43.9180867" lon="12.5812883"><ele>124.0</ele><time>2026-04-19T14:52:23.888Z</time></trkpt><trkpt lat="43.918175" lon="12.5814083"><ele>123.80000000000001</ele><time>2026-04-19T14:52:24.886Z</time></trkpt><trkpt lat="43.918255" lon="12.5815183"><ele>123.60000000000001</ele><time>2026-04-19T14:52:25.887Z</time></trkpt><trkpt lat="43.9183183" lon="12.5816383"><ele>123.4</ele><time>2026-04-19T14:52:26.886Z</time></trkpt><trkpt lat="43.9183533" lon="12.5817783"><ele>123.2</ele><time>2026-04-19T14:52:27.887Z</time></trkpt><trkpt lat="43.91836" lon="12.5819333"><ele>123.0</ele><time>2026-04-19T14:52:28.888Z</time></trkpt><trkpt lat="43.9183483" lon="12.5821017"><ele>122.75</ele><time>2026-04-19T14:52:29.888Z</time></trkpt><trkpt lat="43.9183283" lon="12.582285"><ele>122.5</ele><time>2026-04-19T14:52:30.888Z</time></trkpt><trkpt lat="43.918305" lon="12.582475"><ele>122.25</ele><time>2026-04-19T14:52:31.888Z</time></trkpt><trkpt lat="43.9182833" lon="12.5826683"><ele>122.0</ele><time>2026-04-19T14:52:32.889Z</time></trkpt><trkpt lat="43.91826" lon="12.5828617"><ele>121.75</ele><time>2026-04-19T14:52:33.888Z</time></trkpt><trkpt lat="43.91824" lon="12.5830533"><ele>121.5</ele><time>2026-04-19T14:52:34.889Z</time></trkpt><trkpt lat="43.91822" lon="12.5832433"><ele>121.25</ele><time>2026-04-19T14:52:35.889Z</time></trkpt><trkpt lat="43.9182033" lon="12.583435"><ele>121.0</ele><time>2026-04-19T14:52:36.888Z</time></trkpt><trkpt lat="43.9181867" lon="12.583625"><ele>121.25</ele><time>2026-04-19T14:52:37.888Z</time></trkpt><trkpt lat="43.91817" lon="12.5838067"><ele>121.5</ele><time>2026-04-19T14:52:38.888Z</time></trkpt><trkpt lat="43.918155" lon="12.5839783"><ele>121.75</ele><time>2026-04-19T14:52:39.889Z</time></trkpt><trkpt lat="43.9181433" lon="12.58414"><ele>122.0</ele><time>2026-04-19T14:52:40.887Z</time></trkpt><trkpt lat="43.9181317" lon="12.584295"><ele>122.0</ele><time>2026-04-19T14:52:41.888Z</time></trkpt><trkpt lat="43.9181067" lon="12.58444"><ele>121.99999999999999</ele><time>2026-04-19T14:52:42.89Z</time></trkpt><trkpt lat="43.9180633" lon="12.5845717"><ele>121.99999999999999</ele><time>2026-04-19T14:52:43.889Z</time></trkpt><trkpt lat="43.917995" lon="12.5846867"><ele>122.0</ele><time>2026-04-19T14:52:44.887Z</time></trkpt><trkpt lat="43.9179117" lon="12.5847883"><ele>122.0</ele><time>2026-04-19T14:52:45.888Z</time></trkpt><trkpt lat="43.9178217" lon="12.5848983"><ele>122.0</ele><time>2026-04-19T14:52:46.889Z</time></trkpt><trkpt lat="43.9177367" lon="12.58502"><ele>122.0</ele><time>2026-04-19T14:52:47.885Z</time></trkpt><trkpt lat="43.91766" lon="12.5851533"><ele>122.0</ele><time>2026-04-19T14:52:48.887Z</time></trkpt><trkpt lat="43.917585" lon="12.5852867"><ele>122.0</ele><time>2026-04-19T14:52:49.887Z</time></trkpt><trkpt lat="43.91751" lon="12.5854267"><ele>121.75</ele><time>2026-04-19T14:52:50.886Z</time></trkpt><trkpt lat="43.9174333" lon="12.5855667"><ele>121.5</ele><time>2026-04-19T14:52:51.886Z</time></trkpt><trkpt lat="43.9173533" lon="12.58571"><ele>121.25</ele><time>2026-04-19T14:52:52.887Z</time></trkpt><trkpt lat="43.9172717" lon="12.5858533"><ele>121.0</ele><time>2026-04-19T14:52:53.887Z</time></trkpt><trkpt lat="43.91719" lon="12.5859983"><ele>121.0</ele><time>2026-04-19T14:52:54.887Z</time></trkpt><trkpt lat="43.9171067" lon="12.5861467"><ele>121.0</ele><time>2026-04-19T14:52:55.888Z</time></trkpt><trkpt lat="43.9170217" lon="12.5862967"><ele>121.0</ele><time>2026-04-19T14:52:56.885Z</time></trkpt><trkpt lat="43.9169333" lon="12.5864467"><ele>121.0</ele><time>2026-04-19T14:52:57.885Z</time></trkpt><trkpt lat="43.91685" lon="12.586595"><ele>120.25</ele><time>2026-04-19T14:52:58.886Z</time></trkpt><trkpt lat="43.9167717" lon="12.5867367"><ele>119.5</ele><time>2026-04-19T14:52:59.887Z</time></trkpt><trkpt lat="43.9166967" lon="12.5868683"><ele>118.75</ele><time>2026-04-19T14:53:00.889Z</time></trkpt><trkpt lat="43.91662" lon="12.5869967"><ele>118.0</ele><time>2026-04-19T14:53:01.887Z</time></trkpt><trkpt lat="43.91654" lon="12.58712"><ele>117.75</ele><time>2026-04-19T14:53:02.888Z</time></trkpt><trkpt lat="43.9164617" lon="12.587245"><ele>117.5</ele><time>2026-04-19T14:53:03.887Z</time></trkpt><trkpt lat="43.916385" lon="12.5873717"><ele>117.25</ele><time>2026-04-19T14:53:04.884Z</time></trkpt><trkpt lat="43.9163117" lon="12.5874967"><ele>117.0</ele><time>2026-04-19T14:53:05.887Z</time></trkpt><trkpt lat="43.916245" lon="12.5876117"><ele>117.0</ele><time>2026-04-19T14:53:06.887Z</time></trkpt><trkpt lat="43.9161883" lon="12.5877367"><ele>117.0</ele><time>2026-04-19T14:53:07.888Z</time></trkpt><trkpt lat="43.9161417" lon="12.58787"><ele>117.0</ele><time>2026-04-19T14:53:08.885Z</time></trkpt><trkpt lat="43.916095" lon="12.58802"><ele>117.0</ele><time>2026-04-19T14:53:09.888Z</time></trkpt><trkpt lat="43.9160483" lon="12.588185"><ele>116.75</ele><time>2026-04-19T14:53:10.888Z</time></trkpt><trkpt lat="43.9159967" lon="12.5883583"><ele>116.5</ele><time>2026-04-19T14:53:11.887Z</time></trkpt><trkpt lat="43.915945" lon="12.5885367"><ele>116.25</ele><time>2026-04-19T14:53:12.891Z</time></trkpt><trkpt lat="43.91589" lon="12.5887167"><ele>116.0</ele><time>2026-04-19T14:53:13.889Z</time></trkpt><trkpt lat="43.915835" lon="12.5889017"><ele>116.0</ele><time>2026-04-19T14:53:14.887Z</time></trkpt><trkpt lat="43.91578" lon="12.5890833"><ele>116.0</ele><time>2026-04-19T14:53:15.888Z</time></trkpt><trkpt lat="43.915725" lon="12.589265"><ele>116.0</ele><time>2026-04-19T14:53:16.887Z</time></trkpt><trkpt lat="43.9156683" lon="12.58945"><ele>116.0</ele><time>2026-04-19T14:53:17.888Z</time></trkpt><trkpt lat="43.9156117" lon="12.5896367"><ele>115.75</ele><time>2026-04-19T14:53:18.887Z</time></trkpt><trkpt lat="43.9155533" lon="12.5898233"><ele>115.5</ele><time>2026-04-19T14:53:19.888Z</time></trkpt><trkpt lat="43.9154983" lon="12.5900083"><ele>115.25</ele><time>2026-04-19T14:53:20.887Z</time></trkpt><trkpt lat="43.91544" lon="12.5901883"><ele>115.0</ele><time>2026-04-19T14:53:21.888Z</time></trkpt><trkpt lat="43.9153833" lon="12.5903683"><ele>114.66666666666667</ele><time>2026-04-19T14:53:22.883Z</time></trkpt><trkpt lat="43.91533" lon="12.5905433"><ele>114.33333333333334</ele><time>2026-04-19T14:53:23.889Z</time></trkpt><trkpt lat="43.9152817" lon="12.5907133"><ele>114.0</ele><time>2026-04-19T14:53:24.888Z</time></trkpt><trkpt lat="43.9151467" lon="12.5912033"><ele>113.75</ele><time>2026-04-19T14:53:27.887Z</time></trkpt><trkpt lat="43.9150983" lon="12.5913717"><ele>113.5</ele><time>2026-04-19T14:53:28.886Z</time></trkpt><trkpt lat="43.9150483" lon="12.59154"><ele>113.25</ele><time>2026-04-19T14:53:29.887Z</time></trkpt><trkpt lat="43.9149933" lon="12.5917133"><ele>113.0</ele><time>2026-04-19T14:53:30.887Z</time></trkpt><trkpt lat="43.9149383" lon="12.5918967"><ele>112.75</ele><time>2026-04-19T14:53:31.888Z</time></trkpt><trkpt lat="43.9148833" lon="12.5920833"><ele>112.5</ele><time>2026-04-19T14:53:32.889Z</time></trkpt><trkpt lat="43.9148283" lon="12.5922733"><ele>112.25</ele><time>2026-04-19T14:53:33.884Z</time></trkpt><trkpt lat="43.91477" lon="12.592465"><ele>112.0</ele><time>2026-04-19T14:53:34.888Z</time></trkpt><trkpt lat="43.9147117" lon="12.5926533"><ele>112.0</ele><time>2026-04-19T14:53:35.888Z</time></trkpt><trkpt lat="43.9146517" lon="12.5928383"><ele>112.0</ele><time>2026-04-19T14:53:36.886Z</time></trkpt><trkpt lat="43.914595" lon="12.5930133"><ele>112.0</ele><time>2026-04-19T14:53:37.884Z</time></trkpt><trkpt lat="43.91455" lon="12.59318"><ele>112.0</ele><time>2026-04-19T14:53:38.884Z</time></trkpt><trkpt lat="43.91451" lon="12.593345"><ele>112.25</ele><time>2026-04-19T14:53:39.888Z</time></trkpt><trkpt lat="43.9144783" lon="12.5935133"><ele>112.5</ele><time>2026-04-19T14:53:40.888Z</time></trkpt><trkpt lat="43.91445" lon="12.593685"><ele>112.75</ele><time>2026-04-19T14:53:41.886Z</time></trkpt><trkpt lat="43.9144167" lon="12.59385"><ele>113.0</ele><time>2026-04-19T14:53:42.888Z</time></trkpt><trkpt lat="43.914375" lon="12.594"><ele>113.0</ele><time>2026-04-19T14:53:43.888Z</time></trkpt><trkpt lat="43.9143267" lon="12.5941367"><ele>113.0</ele><time>2026-04-19T14:53:44.888Z</time></trkpt><trkpt lat="43.9142667" lon="12.594265"><ele>113.0</ele><time>2026-04-19T14:53:45.887Z</time></trkpt><trkpt lat="43.9141967" lon="12.5943917"><ele>113.0</ele><time>2026-04-19T14:53:46.889Z</time></trkpt><trkpt lat="43.9141167" lon="12.5945133"><ele>112.25</ele><time>2026-04-19T14:53:47.888Z</time></trkpt><trkpt lat="43.914035" lon="12.59464"><ele>111.5</ele><time>2026-04-19T14:53:48.885Z</time></trkpt><trkpt lat="43.9139533" lon="12.5947717"><ele>110.75</ele><time>2026-04-19T14:53:49.886Z</time></trkpt><trkpt lat="43.9138767" lon="12.5949117"><ele>110.0</ele><time>2026-04-19T14:53:50.886Z</time></trkpt><trkpt lat="43.913805" lon="12.5950583"><ele>110.0</ele><time>2026-04-19T14:53:51.887Z</time></trkpt><trkpt lat="43.91374" lon="12.5952083"><ele>110.0</ele><time>2026-04-19T14:53:52.886Z</time></trkpt><trkpt lat="43.9136767" lon="12.5953633"><ele>110.0</ele><time>2026-04-19T14:53:53.887Z</time></trkpt><trkpt lat="43.9136183" lon="12.5955167"><ele>110.0</ele><time>2026-04-19T14:53:54.888Z</time></trkpt><trkpt lat="43.91356" lon="12.5956683"><ele>109.66666666666666</ele><time>2026-04-19T14:53:55.887Z</time></trkpt><trkpt lat="43.9134433" lon="12.5959633"><ele>109.33333333333334</ele><time>2026-04-19T14:53:57.887Z</time></trkpt><trkpt lat="43.91338" lon="12.59611"><ele>109.0</ele><time>2026-04-19T14:53:58.887Z</time></trkpt><trkpt lat="43.91325" lon="12.5964067"><ele>108.75</ele><time>2026-04-19T14:54:00.885Z</time></trkpt><trkpt lat="43.9131917" lon="12.5965483"><ele>108.5</ele><time>2026-04-19T14:54:01.886Z</time></trkpt><trkpt lat="43.9131367" lon="12.5966867"><ele>108.25</ele><time>2026-04-19T14:54:02.887Z</time></trkpt><trkpt lat="43.9130833" lon="12.5968283"><ele>108.0</ele><time>2026-04-19T14:54:03.888Z</time></trkpt><trkpt lat="43.9130317" lon="12.5969667"><ele>108.0</ele><time>2026-04-19T14:54:04.887Z</time></trkpt><trkpt lat="43.9129783" lon="12.5971067"><ele>108.0</ele><time>2026-04-19T14:54:05.888Z</time></trkpt><trkpt lat="43.912925" lon="12.59725"><ele>108.0</ele><time>2026-04-19T14:54:06.888Z</time></trkpt><trkpt lat="43.91287" lon="12.5973933"><ele>108.0</ele><time>2026-04-19T14:54:07.887Z</time></trkpt><trkpt lat="43.912815" lon="12.5975383"><ele>108.0</ele><time>2026-04-19T14:54:08.888Z</time></trkpt><trkpt lat="43.9127617" lon="12.5976783"><ele>108.0</ele><time>2026-04-19T14:54:09.887Z</time></trkpt><trkpt lat="43.9127133" lon="12.59781"><ele>108.0</ele><time>2026-04-19T14:54:10.889Z</time></trkpt><trkpt lat="43.912665" lon="12.5979333"><ele>108.0</ele><time>2026-04-19T14:54:11.887Z</time></trkpt><trkpt lat="43.9125883" lon="12.5981483"><ele>108.0</ele><time>2026-04-19T14:54:13.888Z</time></trkpt><trkpt lat="43.9125583" lon="12.59829"><ele>108.00000000000001</ele><time>2026-04-19T14:54:15.887Z</time></trkpt><trkpt lat="43.912625" lon="12.5983533"><ele>108.00000000000001</ele><time>2026-04-19T14:54:23.888Z</time></trkpt><trkpt lat="43.9127067" lon="12.5983883"><ele>108.0</ele><time>2026-04-19T14:54:24.888Z</time></trkpt><trkpt lat="43.91281" lon="12.5984267"><ele>108.0</ele><time>2026-04-19T14:54:25.888Z</time></trkpt><trkpt lat="43.9129167" lon="12.5984733"><ele>108.0</ele><time>2026-04-19T14:54:26.886Z</time></trkpt><trkpt lat="43.9130217" lon="12.59853"><ele>108.0</ele><time>2026-04-19T14:54:27.887Z</time></trkpt><trkpt lat="43.913225" lon="12.5986683"><ele>108.0</ele><time>2026-04-19T14:54:29.887Z</time></trkpt><trkpt lat="43.9133267" lon="12.5987433"><ele>108.2</ele><time>2026-04-19T14:54:30.889Z</time></trkpt><trkpt lat="43.91343" lon="12.59882"><ele>108.4</ele><time>2026-04-19T14:54:31.887Z</time></trkpt><trkpt lat="43.9135333" lon="12.5988967"><ele>108.60000000000001</ele><time>2026-04-19T14:54:32.888Z</time></trkpt><trkpt lat="43.9136317" lon="12.5989683"><ele>108.80000000000001</ele><time>2026-04-19T14:54:33.888Z</time></trkpt><trkpt lat="43.913725" lon="12.5990317"><ele>109.0</ele><time>2026-04-19T14:54:34.887Z</time></trkpt><trkpt lat="43.9138117" lon="12.5990883"><ele>109.0</ele><time>2026-04-19T14:54:35.884Z</time></trkpt><trkpt lat="43.9138917" lon="12.5991417"><ele>109.0</ele><time>2026-04-19T14:54:36.885Z</time></trkpt><trkpt lat="43.913965" lon="12.59919"><ele>109.0</ele><time>2026-04-19T14:54:37.887Z</time></trkpt><trkpt lat="43.91403" lon="12.599235"><ele>109.0</ele><time>2026-04-19T14:54:38.888Z</time></trkpt><trkpt lat="43.9140933" lon="12.5992767"><ele>109.0</ele><time>2026-04-19T14:54:39.884Z</time></trkpt><trkpt lat="43.9141533" lon="12.5993167"><ele>109.0</ele><time>2026-04-19T14:54:40.886Z</time></trkpt><trkpt lat="43.91421" lon="12.5993583"><ele>109.0</ele><time>2026-04-19T14:54:41.886Z</time></trkpt><trkpt lat="43.9142667" lon="12.5994"><ele>109.66666666666667</ele><time>2026-04-19T14:54:42.887Z</time></trkpt><trkpt lat="43.9143667" lon="12.5994667"><ele>110.33333333333334</ele><time>2026-04-19T14:54:44.884Z</time></trkpt><trkpt lat="43.9144183" lon="12.5995267"><ele>111.0</ele><time>2026-04-19T14:54:47.884Z</time></trkpt><trkpt lat="43.9144867" lon="12.5995617"><ele>111.66666666666666</ele><time>2026-04-19T14:54:56.884Z</time></trkpt><trkpt lat="43.91455" lon="12.599585"><ele>112.33333333333333</ele><time>2026-04-19T14:54:57.888Z</time></trkpt><trkpt lat="43.914625" lon="12.5996217"><ele>113.0</ele><time>2026-04-19T14:54:58.888Z</time></trkpt><trkpt lat="43.914715" lon="12.599675"><ele>113.0</ele><time>2026-04-19T14:54:59.888Z</time></trkpt><trkpt lat="43.9148283" lon="12.5997533"><ele>113.0</ele><time>2026-04-19T14:55:00.888Z</time></trkpt><trkpt lat="43.91495" lon="12.599835"><ele>113.0</ele><time>2026-04-19T14:55:01.89Z</time></trkpt><trkpt lat="43.9150683" lon="12.599915"><ele>113.0</ele><time>2026-04-19T14:55:02.888Z</time></trkpt><trkpt lat="43.9151833" lon="12.5999917"><ele>114.0</ele><time>2026-04-19T14:55:03.889Z</time></trkpt><trkpt lat="43.9152983" lon="12.6000667"><ele>115.0</ele><time>2026-04-19T14:55:04.884Z</time></trkpt><trkpt lat="43.9154117" lon="12.6001467"><ele>116.0</ele><time>2026-04-19T14:55:05.888Z</time></trkpt><trkpt lat="43.915525" lon="12.60022"><ele>117.0</ele><time>2026-04-19T14:55:06.884Z</time></trkpt><trkpt lat="43.9156383" lon="12.6002983"><ele>117.5</ele><time>2026-04-19T14:55:07.888Z</time></trkpt><trkpt lat="43.91575" lon="12.600375"><ele>118.0</ele><time>2026-04-19T14:55:08.887Z</time></trkpt><trkpt lat="43.9158583" lon="12.60045"><ele>118.5</ele><time>2026-04-19T14:55:09.889Z</time></trkpt><trkpt lat="43.915955" lon="12.6005317"><ele>119.0</ele><time>2026-04-19T14:55:10.889Z</time></trkpt><trkpt lat="43.916035" lon="12.6006333"><ele>119.33333333333333</ele><time>2026-04-19T14:55:11.89Z</time></trkpt><trkpt lat="43.9160917" lon="12.60074"><ele>119.66666666666666</ele><time>2026-04-19T14:55:12.887Z</time></trkpt><trkpt lat="43.916125" lon="12.60084"><ele>120.0</ele><time>2026-04-19T14:55:13.885Z</time></trkpt><trkpt lat="43.9161417" lon="12.6009317"><ele>120.33333333333334</ele><time>2026-04-19T14:55:14.888Z</time></trkpt><trkpt lat="43.9161383" lon="12.60103"><ele>120.66666666666667</ele><time>2026-04-19T14:55:15.888Z</time></trkpt><trkpt lat="43.9161133" lon="12.6011583"><ele>121.0</ele><time>2026-04-19T14:55:16.888Z</time></trkpt><trkpt lat="43.91607" lon="12.601315"><ele>121.0</ele><time>2026-04-19T14:55:17.887Z</time></trkpt><trkpt lat="43.9160217" lon="12.6014833"><ele>121.0</ele><time>2026-04-19T14:55:18.888Z</time></trkpt><trkpt lat="43.91597" lon="12.6016583"><ele>121.0</ele><time>2026-04-19T14:55:19.89Z</time></trkpt><trkpt lat="43.9159183" lon="12.6018333"><ele>121.0</ele><time>2026-04-19T14:55:20.888Z</time></trkpt><trkpt lat="43.915865" lon="12.602005"><ele>120.75</ele><time>2026-04-19T14:55:21.89Z</time></trkpt><trkpt lat="43.9158117" lon="12.6021767"><ele>120.5</ele><time>2026-04-19T14:55:22.887Z</time></trkpt><trkpt lat="43.9157583" lon="12.6023533"><ele>120.25</ele><time>2026-04-19T14:55:23.889Z</time></trkpt><trkpt lat="43.9157067" lon="12.6025317"><ele>120.0</ele><time>2026-04-19T14:55:24.888Z</time></trkpt><trkpt lat="43.9156617" lon="12.60271"><ele>119.5</ele><time>2026-04-19T14:55:25.886Z</time></trkpt><trkpt lat="43.9156233" lon="12.60289"><ele>119.0</ele><time>2026-04-19T14:55:26.887Z</time></trkpt><trkpt lat="43.91559" lon="12.6030733"><ele>118.5</ele><time>2026-04-19T14:55:27.885Z</time></trkpt><trkpt lat="43.9155617" lon="12.6032617"><ele>118.0</ele><time>2026-04-19T14:55:28.887Z</time></trkpt><trkpt lat="43.915535" lon="12.6034467"><ele>118.0</ele><time>2026-04-19T14:55:29.888Z</time></trkpt><trkpt lat="43.9155133" lon="12.6036317"><ele>118.0</ele><time>2026-04-19T14:55:30.884Z</time></trkpt><trkpt lat="43.9154883" lon="12.60382"><ele>118.0</ele><time>2026-04-19T14:55:31.89Z</time></trkpt><trkpt lat="43.9154667" lon="12.6040133"><ele>118.0</ele><time>2026-04-19T14:55:32.887Z</time></trkpt><trkpt lat="43.9154417" lon="12.6042133"><ele>117.25</ele><time>2026-04-19T14:55:33.888Z</time></trkpt><trkpt lat="43.9154183" lon="12.6044183"><ele>116.5</ele><time>2026-04-19T14:55:34.889Z</time></trkpt><trkpt lat="43.9153933" lon="12.6046167"><ele>115.75</ele><time>2026-04-19T14:55:35.887Z</time></trkpt><trkpt lat="43.9153717" lon="12.6048117"><ele>115.0</ele><time>2026-04-19T14:55:36.888Z</time></trkpt><trkpt lat="43.91535" lon="12.6050117"><ele>114.75</ele><time>2026-04-19T14:55:37.889Z</time></trkpt><trkpt lat="43.915325" lon="12.6052133"><ele>114.5</ele><time>2026-04-19T14:55:38.888Z</time></trkpt><trkpt lat="43.9153" lon="12.6054167"><ele>114.25</ele><time>2026-04-19T14:55:39.89Z</time></trkpt><trkpt lat="43.9152717" lon="12.60562"><ele>114.0</ele><time>2026-04-19T14:55:40.887Z</time></trkpt><trkpt lat="43.915245" lon="12.6058167"><ele>114.0</ele><time>2026-04-19T14:55:41.888Z</time></trkpt><trkpt lat="43.91522" lon="12.6060083"><ele>114.0</ele><time>2026-04-19T14:55:42.885Z</time></trkpt><trkpt lat="43.9151967" lon="12.6062017"><ele>114.0</ele><time>2026-04-19T14:55:43.888Z</time></trkpt><trkpt lat="43.915175" lon="12.6063933"><ele>114.0</ele><time>2026-04-19T14:55:44.891Z</time></trkpt><trkpt lat="43.91515" lon="12.6065783"><ele>114.0</ele><time>2026-04-19T14:55:45.887Z</time></trkpt><trkpt lat="43.9151283" lon="12.6067633"><ele>114.0</ele><time>2026-04-19T14:55:46.887Z</time></trkpt><trkpt lat="43.9151083" lon="12.6069467"><ele>114.0</ele><time>2026-04-19T14:55:47.889Z</time></trkpt><trkpt lat="43.915085" lon="12.6071317"><ele>114.0</ele><time>2026-04-19T14:55:48.888Z</time></trkpt><trkpt lat="43.9150633" lon="12.6073217"><ele>113.25</ele><time>2026-04-19T14:55:49.888Z</time></trkpt><trkpt lat="43.9150417" lon="12.6075167"><ele>112.5</ele><time>2026-04-19T14:55:50.887Z</time></trkpt><trkpt lat="43.9150183" lon="12.60771"><ele>111.75</ele><time>2026-04-19T14:55:51.886Z</time></trkpt><trkpt lat="43.914995" lon="12.607895"><ele>111.0</ele><time>2026-04-19T14:55:52.884Z</time></trkpt><trkpt lat="43.914975" lon="12.60808"><ele>111.0</ele><time>2026-04-19T14:55:53.885Z</time></trkpt><trkpt lat="43.9149517" lon="12.6082683"><ele>111.0</ele><time>2026-04-19T14:55:54.885Z</time></trkpt><trkpt lat="43.9149283" lon="12.6084633"><ele>111.0</ele><time>2026-04-19T14:55:55.89Z</time></trkpt><trkpt lat="43.914905" lon="12.60866"><ele>111.0</ele><time>2026-04-19T14:55:56.886Z</time></trkpt><trkpt lat="43.9148817" lon="12.60886"><ele>110.5</ele><time>2026-04-19T14:55:57.886Z</time></trkpt><trkpt lat="43.914855" lon="12.60906"><ele>110.0</ele><time>2026-04-19T14:55:58.886Z</time></trkpt><trkpt lat="43.9148317" lon="12.6092617"><ele>109.5</ele><time>2026-04-19T14:55:59.885Z</time></trkpt><trkpt lat="43.9148083" lon="12.609465"><ele>109.0</ele><time>2026-04-19T14:56:00.887Z</time></trkpt><trkpt lat="43.9147817" lon="12.609665"><ele>109.0</ele><time>2026-04-19T14:56:01.888Z</time></trkpt><trkpt lat="43.914755" lon="12.6098617"><ele>109.0</ele><time>2026-04-19T14:56:02.888Z</time></trkpt><trkpt lat="43.9147267" lon="12.610055"><ele>109.0</ele><time>2026-04-19T14:56:03.889Z</time></trkpt><trkpt lat="43.9146967" lon="12.610245"><ele>109.0</ele><time>2026-04-19T14:56:04.888Z</time></trkpt><trkpt lat="43.9146567" lon="12.6104367"><ele>109.0</ele><time>2026-04-19T14:56:05.889Z</time></trkpt><trkpt lat="43.9146083" lon="12.610625"><ele>109.0</ele><time>2026-04-19T14:56:06.884Z</time></trkpt><trkpt lat="43.914555" lon="12.6108083"><ele>109.0</ele><time>2026-04-19T14:56:07.885Z</time></trkpt><trkpt lat="43.9145033" lon="12.6109817"><ele>109.0</ele><time>2026-04-19T14:56:08.888Z</time></trkpt><trkpt lat="43.91445" lon="12.6111467"><ele>109.25</ele><time>2026-04-19T14:56:09.889Z</time></trkpt><trkpt lat="43.9143967" lon="12.611315"><ele>109.5</ele><time>2026-04-19T14:56:10.887Z</time></trkpt><trkpt lat="43.9143417" lon="12.61149"><ele>109.75</ele><time>2026-04-19T14:56:11.89Z</time></trkpt><trkpt lat="43.9142883" lon="12.6116617"><ele>110.0</ele><time>2026-04-19T14:56:12.889Z</time></trkpt><trkpt lat="43.914235" lon="12.6118283"><ele>108.75</ele><time>2026-04-19T14:56:13.89Z</time></trkpt><trkpt lat="43.9141783" lon="12.612"><ele>107.5</ele><time>2026-04-19T14:56:14.888Z</time></trkpt><trkpt lat="43.91412" lon="12.6121717"><ele>106.25</ele><time>2026-04-19T14:56:15.888Z</time></trkpt><trkpt lat="43.9140633" lon="12.6123517"><ele>105.0</ele><time>2026-04-19T14:56:16.888Z</time></trkpt><trkpt lat="43.91401" lon="12.61254"><ele>105.0</ele><time>2026-04-19T14:56:17.888Z</time></trkpt><trkpt lat="43.91396" lon="12.612735"><ele>105.0</ele><time>2026-04-19T14:56:18.886Z</time></trkpt><trkpt lat="43.9139133" lon="12.612935"><ele>105.0</ele><time>2026-04-19T14:56:19.887Z</time></trkpt><trkpt lat="43.9138733" lon="12.6131367"><ele>105.0</ele><time>2026-04-19T14:56:20.885Z</time></trkpt><trkpt lat="43.9138383" lon="12.6133383"><ele>105.0</ele><time>2026-04-19T14:56:21.887Z</time></trkpt><trkpt lat="43.9138033" lon="12.61354"><ele>105.0</ele><time>2026-04-19T14:56:22.885Z</time></trkpt><trkpt lat="43.913775" lon="12.613735"><ele>105.0</ele><time>2026-04-19T14:56:23.885Z</time></trkpt><trkpt lat="43.9137517" lon="12.6139267"><ele>105.25</ele><time>2026-04-19T14:56:24.885Z</time></trkpt><trkpt lat="43.9137333" lon="12.6141183"><ele>105.5</ele><time>2026-04-19T14:56:25.889Z</time></trkpt><trkpt lat="43.91372" lon="12.6143133"><ele>105.75</ele><time>2026-04-19T14:56:26.888Z</time></trkpt><trkpt lat="43.91371" lon="12.614515"><ele>106.0</ele><time>2026-04-19T14:56:27.888Z</time></trkpt><trkpt lat="43.9137033" lon="12.614715"><ele>106.25</ele><time>2026-04-19T14:56:28.888Z</time></trkpt><trkpt lat="43.9136967" lon="12.6149083"><ele>106.5</ele><time>2026-04-19T14:56:29.886Z</time></trkpt><trkpt lat="43.9136883" lon="12.6150983"><ele>106.75</ele><time>2026-04-19T14:56:30.888Z</time></trkpt><trkpt lat="43.91368" lon="12.61529"><ele>107.0</ele><time>2026-04-19T14:56:31.888Z</time></trkpt><trkpt lat="43.91367" lon="12.6154833"><ele>107.0</ele><time>2026-04-19T14:56:32.889Z</time></trkpt><trkpt lat="43.91366" lon="12.6156733"><ele>107.0</ele><time>2026-04-19T14:56:33.889Z</time></trkpt><trkpt lat="43.913655" lon="12.6158617"><ele>107.0</ele><time>2026-04-19T14:56:34.888Z</time></trkpt><trkpt lat="43.91365" lon="12.61605"><ele>107.0</ele><time>2026-04-19T14:56:35.887Z</time></trkpt><trkpt lat="43.9136467" lon="12.61624"><ele>107.0</ele><time>2026-04-19T14:56:36.889Z</time></trkpt><trkpt lat="43.9136417" lon="12.6164333"><ele>107.0</ele><time>2026-04-19T14:56:37.887Z</time></trkpt><trkpt lat="43.91364" lon="12.616625"><ele>107.0</ele><time>2026-04-19T14:56:38.888Z</time></trkpt><trkpt lat="43.913635" lon="12.6168133"><ele>107.0</ele><time>2026-04-19T14:56:39.887Z</time></trkpt><trkpt lat="43.91363" lon="12.6169983"><ele>107.0</ele><time>2026-04-19T14:56:40.889Z</time></trkpt><trkpt lat="43.913625" lon="12.617185"><ele>107.0</ele><time>2026-04-19T14:56:41.888Z</time></trkpt><trkpt lat="43.9136233" lon="12.617365"><ele>107.0</ele><time>2026-04-19T14:56:42.889Z</time></trkpt><trkpt lat="43.91362" lon="12.6175483"><ele>107.0</ele><time>2026-04-19T14:56:43.888Z</time></trkpt><trkpt lat="43.9136167" lon="12.6177367"><ele>107.25</ele><time>2026-04-19T14:56:44.888Z</time></trkpt><trkpt lat="43.913615" lon="12.6179283"><ele>107.5</ele><time>2026-04-19T14:56:45.886Z</time></trkpt><trkpt lat="43.91361" lon="12.618125"><ele>107.75</ele><time>2026-04-19T14:56:46.887Z</time></trkpt><trkpt lat="43.913605" lon="12.6183233"><ele>108.0</ele><time>2026-04-19T14:56:47.887Z</time></trkpt><trkpt lat="43.9136" lon="12.6185233"><ele>107.25</ele><time>2026-04-19T14:56:48.889Z</time></trkpt><trkpt lat="43.9135967" lon="12.618715"><ele>106.5</ele><time>2026-04-19T14:56:49.885Z</time></trkpt><trkpt lat="43.9135917" lon="12.6188983"><ele>105.75</ele><time>2026-04-19T14:56:50.889Z</time></trkpt><trkpt lat="43.913585" lon="12.6190833"><ele>105.0</ele><time>2026-04-19T14:56:51.888Z</time></trkpt><trkpt lat="43.91358" lon="12.6192683"><ele>105.0</ele><time>2026-04-19T14:56:52.89Z</time></trkpt><trkpt lat="43.9135733" lon="12.6194483"><ele>105.0</ele><time>2026-04-19T14:56:53.884Z</time></trkpt><trkpt lat="43.9135683" lon="12.6196217"><ele>105.0</ele><time>2026-04-19T14:56:54.889Z</time></trkpt><trkpt lat="43.913565" lon="12.619795"><ele>105.0</ele><time>2026-04-19T14:56:55.886Z</time></trkpt><trkpt lat="43.91356" lon="12.61997"><ele>104.5</ele><time>2026-04-19T14:56:56.888Z</time></trkpt><trkpt lat="43.9135567" lon="12.62015"><ele>104.0</ele><time>2026-04-19T14:56:57.887Z</time></trkpt><trkpt lat="43.9135517" lon="12.620335"><ele>103.5</ele><time>2026-04-19T14:56:58.889Z</time></trkpt><trkpt lat="43.9135467" lon="12.6205217"><ele>103.0</ele><time>2026-04-19T14:56:59.888Z</time></trkpt><trkpt lat="43.9135417" lon="12.6207033"><ele>102.75</ele><time>2026-04-19T14:57:00.889Z</time></trkpt><trkpt lat="43.9135383" lon="12.6208783"><ele>102.5</ele><time>2026-04-19T14:57:01.888Z</time></trkpt><trkpt lat="43.9135317" lon="12.6210567"><ele>102.25</ele><time>2026-04-19T14:57:02.889Z</time></trkpt><trkpt lat="43.9135267" lon="12.6212417"><ele>102.0</ele><time>2026-04-19T14:57:03.889Z</time></trkpt><trkpt lat="43.91352" lon="12.6214317"><ele>100.66666666666666</ele><time>2026-04-19T14:57:04.889Z</time></trkpt><trkpt lat="43.913515" lon="12.6216367"><ele>99.33333333333333</ele><time>2026-04-19T14:57:05.888Z</time></trkpt><trkpt lat="43.9135083" lon="12.6218483"><ele>98.0</ele><time>2026-04-19T14:57:06.888Z</time></trkpt><trkpt lat="43.9135033" lon="12.622065"><ele>96.33333333333333</ele><time>2026-04-19T14:57:07.888Z</time></trkpt><trkpt lat="43.9135" lon="12.6222817"><ele>94.66666666666666</ele><time>2026-04-19T14:57:08.89Z</time></trkpt><trkpt lat="43.9134967" lon="12.622495"><ele>93.0</ele><time>2026-04-19T14:57:09.884Z</time></trkpt><trkpt lat="43.9134933" lon="12.6227033"><ele>93.0</ele><time>2026-04-19T14:57:10.889Z</time></trkpt><trkpt lat="43.9134883" lon="12.62291"><ele>93.0</ele><time>2026-04-19T14:57:11.884Z</time></trkpt><trkpt lat="43.9134817" lon="12.62312"><ele>93.0</ele><time>2026-04-19T14:57:12.887Z</time></trkpt><trkpt lat="43.9134767" lon="12.6233317"><ele>93.0</ele><time>2026-04-19T14:57:13.89Z</time></trkpt><trkpt lat="43.91347" lon="12.6235467"><ele>93.0</ele><time>2026-04-19T14:57:14.889Z</time></trkpt><trkpt lat="43.9134667" lon="12.6237683"><ele>93.0</ele><time>2026-04-19T14:57:15.888Z</time></trkpt><trkpt lat="43.91346" lon="12.6239883"><ele>92.0</ele><time>2026-04-19T14:57:16.889Z</time></trkpt><trkpt lat="43.913455" lon="12.6242017"><ele>91.0</ele><time>2026-04-19T14:57:17.888Z</time></trkpt><trkpt lat="43.91345" lon="12.6244083"><ele>90.0</ele><time>2026-04-19T14:57:18.889Z</time></trkpt><trkpt lat="43.913445" lon="12.624615"><ele>90.0</ele><time>2026-04-19T14:57:19.889Z</time></trkpt><trkpt lat="43.9134417" lon="12.6248133"><ele>90.0</ele><time>2026-04-19T14:57:20.889Z</time></trkpt><trkpt lat="43.9134383" lon="12.6250017"><ele>90.0</ele><time>2026-04-19T14:57:21.887Z</time></trkpt><trkpt lat="43.9134367" lon="12.6251783"><ele>90.0</ele><time>2026-04-19T14:57:22.89Z</time></trkpt><trkpt lat="43.9134317" lon="12.6253433"><ele>89.8</ele><time>2026-04-19T14:57:23.886Z</time></trkpt><trkpt lat="43.91343" lon="12.6255033"><ele>89.6</ele><time>2026-04-19T14:57:24.889Z</time></trkpt><trkpt lat="43.913425" lon="12.6256517"><ele>89.4</ele><time>2026-04-19T14:57:25.886Z</time></trkpt><trkpt lat="43.9134083" lon="12.6257917"><ele>89.2</ele><time>2026-04-19T14:57:26.889Z</time></trkpt><trkpt lat="43.913385" lon="12.6259217"><ele>89.0</ele><time>2026-04-19T14:57:27.888Z</time></trkpt><trkpt lat="43.91335" lon="12.6260417"><ele>89.0</ele><time>2026-04-19T14:57:28.888Z</time></trkpt><trkpt lat="43.9133033" lon="12.6261433"><ele>89.0</ele><time>2026-04-19T14:57:29.887Z</time></trkpt><trkpt lat="43.91326" lon="12.626235"><ele>89.0</ele><time>2026-04-19T14:57:30.889Z</time></trkpt><trkpt lat="43.9132367" lon="12.626325"><ele>89.0</ele><time>2026-04-19T14:57:31.885Z</time></trkpt><trkpt lat="43.9132367" lon="12.626415"><ele>89.0</ele><time>2026-04-19T14:57:32.889Z</time></trkpt><trkpt lat="43.91326" lon="12.6265017"><ele>89.0</ele><time>2026-04-19T14:57:33.889Z</time></trkpt><trkpt lat="43.9133067" lon="12.626615"><ele>88.6</ele><time>2026-04-19T14:57:34.885Z</time></trkpt><trkpt lat="43.91334" lon="12.62673"><ele>88.2</ele><time>2026-04-19T14:57:35.884Z</time></trkpt><trkpt lat="43.9133633" lon="12.62686"><ele>87.8</ele><time>2026-04-19T14:57:36.888Z</time></trkpt><trkpt lat="43.9133767" lon="12.6270033"><ele>87.39999999999999</ele><time>2026-04-19T14:57:37.891Z</time></trkpt><trkpt lat="43.9133817" lon="12.62715"><ele>87.0</ele><time>2026-04-19T14:57:38.888Z</time></trkpt><trkpt lat="43.91338" lon="12.62729"><ele>86.8</ele><time>2026-04-19T14:57:39.889Z</time></trkpt><trkpt lat="43.9133767" lon="12.627435"><ele>86.6</ele><time>2026-04-19T14:57:40.89Z</time></trkpt><trkpt lat="43.9133717" lon="12.6275883"><ele>86.39999999999999</ele><time>2026-04-19T14:57:41.887Z</time></trkpt><trkpt lat="43.9133683" lon="12.6277467"><ele>86.19999999999999</ele><time>2026-04-19T14:57:42.887Z</time></trkpt><trkpt lat="43.9133633" lon="12.627905"><ele>86.0</ele><time>2026-04-19T14:57:43.888Z</time></trkpt><trkpt lat="43.91336" lon="12.628065"><ele>85.75</ele><time>2026-04-19T14:57:44.885Z</time></trkpt><trkpt lat="43.9133567" lon="12.6282317"><ele>85.5</ele><time>2026-04-19T14:57:45.887Z</time></trkpt><trkpt lat="43.9133533" lon="12.6283983"><ele>85.25</ele><time>2026-04-19T14:57:46.888Z</time></trkpt><trkpt lat="43.9133467" lon="12.6285583"><ele>85.0</ele><time>2026-04-19T14:57:47.889Z</time></trkpt><trkpt lat="43.9133433" lon="12.62872"><ele>84.75</ele><time>2026-04-19T14:57:48.888Z</time></trkpt><trkpt lat="43.9133383" lon="12.628885"><ele>84.5</ele><time>2026-04-19T14:57:49.888Z</time></trkpt><trkpt lat="43.9133317" lon="12.6290517"><ele>84.25</ele><time>2026-04-19T14:57:50.889Z</time></trkpt><trkpt lat="43.913325" lon="12.6292267"><ele>84.0</ele><time>2026-04-19T14:57:51.888Z</time></trkpt><trkpt lat="43.9133217" lon="12.629405"><ele>83.75</ele><time>2026-04-19T14:57:52.89Z</time></trkpt><trkpt lat="43.9133233" lon="12.6295833"><ele>83.5</ele><time>2026-04-19T14:57:53.888Z</time></trkpt><trkpt lat="43.9133233" lon="12.6297633"><ele>83.25</ele><time>2026-04-19T14:57:54.889Z</time></trkpt><trkpt lat="43.9133217" lon="12.6299467"><ele>83.0</ele><time>2026-04-19T14:57:55.889Z</time></trkpt><trkpt lat="43.91332" lon="12.630135"><ele>83.0</ele><time>2026-04-19T14:57:56.888Z</time></trkpt><trkpt lat="43.9133183" lon="12.6303217"><ele>83.0</ele><time>2026-04-19T14:57:57.887Z</time></trkpt><trkpt lat="43.9133133" lon="12.630505"><ele>83.0</ele><time>2026-04-19T14:57:58.889Z</time></trkpt><trkpt lat="43.9133083" lon="12.630685"><ele>83.0</ele><time>2026-04-19T14:57:59.887Z</time></trkpt><trkpt lat="43.9133033" lon="12.63087"><ele>83.0</ele><time>2026-04-19T14:58:00.889Z</time></trkpt><trkpt lat="43.9132983" lon="12.6310583"><ele>83.0</ele><time>2026-04-19T14:58:01.888Z</time></trkpt><trkpt lat="43.9132967" lon="12.6312417"><ele>83.0</ele><time>2026-04-19T14:58:02.888Z</time></trkpt><trkpt lat="43.9132917" lon="12.631415"><ele>83.0</ele><time>2026-04-19T14:58:03.888Z</time></trkpt><trkpt lat="43.9132867" lon="12.631575"><ele>83.0</ele><time>2026-04-19T14:58:04.888Z</time></trkpt><trkpt lat="43.9132817" lon="12.631725"><ele>83.0</ele><time>2026-04-19T14:58:05.888Z</time></trkpt><trkpt lat="43.9132767" lon="12.6318667"><ele>83.0</ele><time>2026-04-19T14:58:06.889Z</time></trkpt><trkpt lat="43.9132733" lon="12.6320033"><ele>83.0</ele><time>2026-04-19T14:58:07.889Z</time></trkpt><trkpt lat="43.9132683" lon="12.6321317"><ele>83.0</ele><time>2026-04-19T14:58:08.885Z</time></trkpt><trkpt lat="43.9132683" lon="12.6322417"><ele>82.80000000000001</ele><time>2026-04-19T14:58:09.885Z</time></trkpt><trkpt lat="43.91323" lon="12.63238"><ele>82.6</ele><time>2026-04-19T14:58:11.889Z</time></trkpt><trkpt lat="43.91309" lon="12.6324417"><ele>82.4</ele><time>2026-04-19T14:58:13.89Z</time></trkpt><trkpt lat="43.9130033" lon="12.6324867"><ele>82.19999999999999</ele><time>2026-04-19T14:58:14.89Z</time></trkpt><trkpt lat="43.9129117" lon="12.6325317"><ele>82.0</ele><time>2026-04-19T14:58:15.889Z</time></trkpt><trkpt lat="43.9128233" lon="12.6325783"><ele>81.99999999999999</ele><time>2026-04-19T14:58:16.889Z</time></trkpt><trkpt lat="43.9127483" lon="12.6326117"><ele>82.0</ele><time>2026-04-19T14:58:17.889Z</time></trkpt><trkpt lat="43.9126833" lon="12.632645"><ele>82.0</ele><time>2026-04-19T14:58:18.89Z</time></trkpt><trkpt lat="43.9126233" lon="12.6326783"><ele>82.0</ele><time>2026-04-19T14:58:19.888Z</time></trkpt><trkpt lat="43.9125583" lon="12.6327167"><ele>82.0</ele><time>2026-04-19T14:58:20.89Z</time></trkpt><trkpt lat="43.912485" lon="12.6327533"><ele>81.99999999999999</ele><time>2026-04-19T14:58:21.889Z</time></trkpt><trkpt lat="43.9124117" lon="12.6327933"><ele>82.0</ele><time>2026-04-19T14:58:22.888Z</time></trkpt><trkpt lat="43.9123467" lon="12.6328283"><ele>81.19999999999999</ele><time>2026-04-19T14:58:23.889Z</time></trkpt><trkpt lat="43.9122533" lon="12.632875"><ele>80.39999999999999</ele><time>2026-04-19T14:58:25.888Z</time></trkpt><trkpt lat="43.9121417" lon="12.6329433"><ele>79.6</ele><time>2026-04-19T14:58:27.888Z</time></trkpt><trkpt lat="43.9120567" lon="12.632995"><ele>78.8</ele><time>2026-04-19T14:58:28.888Z</time></trkpt><trkpt lat="43.9119517" lon="12.633055"><ele>78.0</ele><time>2026-04-19T14:58:29.888Z</time></trkpt><trkpt lat="43.9118417" lon="12.633115"><ele>78.0</ele><time>2026-04-19T14:58:30.889Z</time></trkpt><trkpt lat="43.9117383" lon="12.63317"><ele>78.0</ele><time>2026-04-19T14:58:31.889Z</time></trkpt><trkpt lat="43.9116467" lon="12.6332083"><ele>78.0</ele><time>2026-04-19T14:58:32.886Z</time></trkpt><trkpt lat="43.9115617" lon="12.63321"><ele>78.0</ele><time>2026-04-19T14:58:33.888Z</time></trkpt><trkpt lat="43.9114767" lon="12.6331917"><ele>78.0</ele><time>2026-04-19T14:58:34.888Z</time></trkpt><trkpt lat="43.9114033" lon="12.633125"><ele>78.0</ele><time>2026-04-19T14:58:35.889Z</time></trkpt><trkpt lat="43.9113417" lon="12.6330167"><ele>78.0</ele><time>2026-04-19T14:58:36.889Z</time></trkpt><trkpt lat="43.9112883" lon="12.632895"><ele>78.0</ele><time>2026-04-19T14:58:37.891Z</time></trkpt><trkpt lat="43.9112417" lon="12.6327833"><ele>78.0</ele><time>2026-04-19T14:58:38.889Z</time></trkpt><trkpt lat="43.9111967" lon="12.6326767"><ele>78.0</ele><time>2026-04-19T14:58:39.888Z</time></trkpt><trkpt lat="43.9111517" lon="12.63258"><ele>78.0</ele><time>2026-04-19T14:58:40.888Z</time></trkpt><trkpt lat="43.9111017" lon="12.632495"><ele>78.0</ele><time>2026-04-19T14:58:41.888Z</time></trkpt><trkpt lat="43.9110483" lon="12.6324317"><ele>78.0</ele><time>2026-04-19T14:58:42.888Z</time></trkpt><trkpt lat="43.9109833" lon="12.6323983"><ele>78.0</ele><time>2026-04-19T14:58:43.889Z</time></trkpt><trkpt lat="43.9109167" lon="12.6323933"><ele>78.0</ele><time>2026-04-19T14:58:44.889Z</time></trkpt><trkpt lat="43.91085" lon="12.632405"><ele>78.0</ele><time>2026-04-19T14:58:45.886Z</time></trkpt><trkpt lat="43.910755" lon="12.6324183"><ele>78.0</ele><time>2026-04-19T14:58:47.891Z</time></trkpt><trkpt lat="43.910695" lon="12.6323767"><ele>77.8</ele><time>2026-04-19T14:58:50.885Z</time></trkpt><trkpt lat="43.91067" lon="12.6322817"><ele>77.6</ele><time>2026-04-19T14:58:52.886Z</time></trkpt><trkpt lat="43.9106367" lon="12.632135"><ele>77.4</ele><time>2026-04-19T14:58:54.886Z</time></trkpt><trkpt lat="43.9106083" lon="12.6319883"><ele>77.2</ele><time>2026-04-19T14:58:56.885Z</time></trkpt><trkpt lat="43.91059" lon="12.6318517"><ele>77.0</ele><time>2026-04-19T14:58:58.885Z</time></trkpt><trkpt lat="43.9105917" lon="12.6317383"><ele>77.0</ele><time>2026-04-19T14:59:00.887Z</time></trkpt><trkpt lat="43.910565" lon="12.6316267"><ele>77.0</ele><time>2026-04-19T14:59:03.889Z</time></trkpt><trkpt lat="43.910505" lon="12.6316667"><ele>77.0</ele><time>2026-04-19T14:59:06.885Z</time></trkpt><trkpt lat="43.91052" lon="12.6317717"><ele>77.0</ele><time>2026-04-19T14:59:08.888Z</time></trkpt><trkpt lat="43.9105783" lon="12.63192"><ele>77.0</ele><time>2026-04-19T14:59:10.889Z</time></trkpt><trkpt lat="43.910605" lon="12.6320183"><ele>77.0</ele><time>2026-04-19T14:59:11.89Z</time></trkpt><trkpt lat="43.9106283" lon="12.6321133"><ele>77.0</ele><time>2026-04-19T14:59:12.888Z</time></trkpt><trkpt lat="43.9106483" lon="12.6322"><ele>77.0</ele><time>2026-04-19T14:59:13.887Z</time></trkpt><trkpt lat="43.9106817" lon="12.6323367"><ele>77.0</ele><time>2026-04-19T14:59:15.885Z</time></trkpt><trkpt lat="43.91072" lon="12.6324183"><ele>77.0</ele><time>2026-04-19T14:59:18.887Z</time></trkpt><trkpt lat="43.9108283" lon="12.6324333"><ele>77.0</ele><time>2026-04-19T14:59:21.885Z</time></trkpt><trkpt lat="43.9108983" lon="12.632425"><ele>77.0</ele><time>2026-04-19T14:59:22.886Z</time></trkpt><trkpt lat="43.9109783" lon="12.6324333"><ele>77.2</ele><time>2026-04-19T14:59:23.887Z</time></trkpt><trkpt lat="43.9110567" lon="12.6324617"><ele>77.4</ele><time>2026-04-19T14:59:24.887Z</time></trkpt><trkpt lat="43.9111233" lon="12.6325317"><ele>77.6</ele><time>2026-04-19T14:59:25.887Z</time></trkpt><trkpt lat="43.9111867" lon="12.6326333"><ele>77.8</ele><time>2026-04-19T14:59:26.889Z</time></trkpt><trkpt lat="43.91125" lon="12.6327683"><ele>78.0</ele><time>2026-04-19T14:59:27.885Z</time></trkpt><trkpt lat="43.9113117" lon="12.6329017"><ele>78.0</ele><time>2026-04-19T14:59:28.884Z</time></trkpt><trkpt lat="43.9113783" lon="12.6330267"><ele>78.0</ele><time>2026-04-19T14:59:29.884Z</time></trkpt><trkpt lat="43.9114383" lon="12.633135"><ele>78.0</ele><time>2026-04-19T14:59:30.884Z</time></trkpt><trkpt lat="43.9114967" lon="12.63321"><ele>78.0</ele><time>2026-04-19T14:59:31.885Z</time></trkpt><trkpt lat="43.9116117" lon="12.6332667"><ele>78.0</ele><time>2026-04-19T14:59:33.886Z</time></trkpt><trkpt lat="43.911685" lon="12.6332533"><ele>78.0</ele><time>2026-04-19T14:59:34.884Z</time></trkpt><trkpt lat="43.9117817" lon="12.6332033"><ele>78.0</ele><time>2026-04-19T14:59:35.884Z</time></trkpt><trkpt lat="43.9119117" lon="12.633115"><ele>78.0</ele><time>2026-04-19T14:59:36.884Z</time></trkpt><trkpt lat="43.91204" lon="12.6330417"><ele>78.0</ele><time>2026-04-19T14:59:37.888Z</time></trkpt><trkpt lat="43.9121683" lon="12.63297"><ele>78.0</ele><time>2026-04-19T14:59:38.884Z</time></trkpt><trkpt lat="43.9122967" lon="12.6329017"><ele>78.0</ele><time>2026-04-19T14:59:39.886Z</time></trkpt><trkpt lat="43.912425" lon="12.6328267"><ele>78.0</ele><time>2026-04-19T14:59:40.884Z</time></trkpt><trkpt lat="43.9125483" lon="12.6327583"><ele>78.0</ele><time>2026-04-19T14:59:41.885Z</time></trkpt><trkpt lat="43.9126683" lon="12.6326933"><ele>78.8</ele><time>2026-04-19T14:59:42.885Z</time></trkpt><trkpt lat="43.9127767" lon="12.6326333"><ele>79.6</ele><time>2026-04-19T14:59:43.885Z</time></trkpt><trkpt lat="43.912875" lon="12.63258"><ele>80.39999999999999</ele><time>2026-04-19T14:59:44.889Z</time></trkpt><trkpt lat="43.9129633" lon="12.6325317"><ele>81.19999999999999</ele><time>2026-04-19T14:59:45.887Z</time></trkpt><trkpt lat="43.9130483" lon="12.6324867"><ele>82.0</ele><time>2026-04-19T14:59:46.887Z</time></trkpt><trkpt lat="43.9131233" lon="12.6324517"><ele>82.0</ele><time>2026-04-19T14:59:47.884Z</time></trkpt><trkpt lat="43.913185" lon="12.6324233"><ele>82.0</ele><time>2026-04-19T14:59:48.884Z</time></trkpt><trkpt lat="43.9132517" lon="12.6324317"><ele>82.0</ele><time>2026-04-19T14:59:50.885Z</time></trkpt><trkpt lat="43.913275" lon="12.6325167"><ele>82.0</ele><time>2026-04-19T14:59:52.889Z</time></trkpt><trkpt lat="43.9132733" lon="12.6326117"><ele>82.0</ele><time>2026-04-19T14:59:53.887Z</time></trkpt><trkpt lat="43.91327" lon="12.6327417"><ele>82.0</ele><time>2026-04-19T14:59:54.888Z</time></trkpt><trkpt lat="43.9132633" lon="12.6329217"><ele>81.5</ele><time>2026-04-19T14:59:55.89Z</time></trkpt><trkpt lat="43.9132617" lon="12.6331083"><ele>81.0</ele><time>2026-04-19T14:59:56.887Z</time></trkpt><trkpt lat="43.913255" lon="12.6333133"><ele>80.5</ele><time>2026-04-19T14:59:57.886Z</time></trkpt><trkpt lat="43.9132517" lon="12.6335383"><ele>80.0</ele><time>2026-04-19T14:59:58.885Z</time></trkpt><trkpt lat="43.9132467" lon="12.6337683"><ele>78.66666666666667</ele><time>2026-04-19T14:59:59.884Z</time></trkpt><trkpt lat="43.91324" lon="12.6340083"><ele>77.33333333333333</ele><time>2026-04-19T15:00:00.885Z</time></trkpt><trkpt lat="43.913235" lon="12.6342467"><ele>76.0</ele><time>2026-04-19T15:00:01.886Z</time></trkpt><trkpt lat="43.91323" lon="12.6344833"><ele>75.33333333333333</ele><time>2026-04-19T15:00:02.884Z</time></trkpt><trkpt lat="43.9132233" lon="12.6347167"><ele>74.66666666666667</ele><time>2026-04-19T15:00:03.886Z</time></trkpt><trkpt lat="43.913215" lon="12.63495"><ele>74.0</ele><time>2026-04-19T15:00:04.885Z</time></trkpt><trkpt lat="43.9132117" lon="12.635185"><ele>73.66666666666667</ele><time>2026-04-19T15:00:05.886Z</time></trkpt><trkpt lat="43.913205" lon="12.6354167"><ele>73.33333333333333</ele><time>2026-04-19T15:00:06.885Z</time></trkpt><trkpt lat="43.913205" lon="12.63565"><ele>73.0</ele><time>2026-04-19T15:00:07.885Z</time></trkpt><trkpt lat="43.9132083" lon="12.635885"><ele>73.0</ele><time>2026-04-19T15:00:08.884Z</time></trkpt><trkpt lat="43.91322" lon="12.6361117"><ele>73.0</ele><time>2026-04-19T15:00:09.886Z</time></trkpt><trkpt lat="43.9132583" lon="12.6363217"><ele>73.0</ele><time>2026-04-19T15:00:10.886Z</time></trkpt><trkpt lat="43.913315" lon="12.63653"><ele>73.0</ele><time>2026-04-19T15:00:11.886Z</time></trkpt><trkpt lat="43.91339" lon="12.636735"><ele>73.0</ele><time>2026-04-19T15:00:12.886Z</time></trkpt><trkpt lat="43.9134783" lon="12.636935"><ele>73.0</ele><time>2026-04-19T15:00:13.885Z</time></trkpt><trkpt lat="43.9135767" lon="12.6371317"><ele>73.0</ele><time>2026-04-19T15:00:14.888Z</time></trkpt><trkpt lat="43.9136817" lon="12.6373267"><ele>73.0</ele><time>2026-04-19T15:00:15.887Z</time></trkpt><trkpt lat="43.9137783" lon="12.63752"><ele>73.0</ele><time>2026-04-19T15:00:16.887Z</time></trkpt><trkpt lat="43.9138717" lon="12.6377067"><ele>73.33333333333333</ele><time>2026-04-19T15:00:17.888Z</time></trkpt><trkpt lat="43.9139633" lon="12.637885"><ele>73.66666666666667</ele><time>2026-04-19T15:00:18.887Z</time></trkpt><trkpt lat="43.914055" lon="12.638065"><ele>74.0</ele><time>2026-04-19T15:00:19.888Z</time></trkpt><trkpt lat="43.9141433" lon="12.6382467"><ele>74.0</ele><time>2026-04-19T15:00:20.884Z</time></trkpt><trkpt lat="43.91423" lon="12.6384233"><ele>74.0</ele><time>2026-04-19T15:00:21.888Z</time></trkpt><trkpt lat="43.9143117" lon="12.6385867"><ele>74.0</ele><time>2026-04-19T15:00:22.888Z</time></trkpt><trkpt lat="43.9143867" lon="12.6387383"><ele>74.0</ele><time>2026-04-19T15:00:23.884Z</time></trkpt><trkpt lat="43.9144583" lon="12.6388833"><ele>73.75</ele><time>2026-04-19T15:00:24.886Z</time></trkpt><trkpt lat="43.9145217" lon="12.63902"><ele>73.5</ele><time>2026-04-19T15:00:25.886Z</time></trkpt><trkpt lat="43.9145783" lon="12.6391583"><ele>73.25</ele><time>2026-04-19T15:00:26.886Z</time></trkpt><trkpt lat="43.91463" lon="12.6393033"><ele>73.0</ele><time>2026-04-19T15:00:27.885Z</time></trkpt><trkpt lat="43.9146733" lon="12.6394617"><ele>72.75</ele><time>2026-04-19T15:00:28.886Z</time></trkpt><trkpt lat="43.91471" lon="12.6396333"><ele>72.5</ele><time>2026-04-19T15:00:29.887Z</time></trkpt><trkpt lat="43.9147267" lon="12.6398183"><ele>72.25</ele><time>2026-04-19T15:00:30.887Z</time></trkpt><trkpt lat="43.9147183" lon="12.640015"><ele>72.0</ele><time>2026-04-19T15:00:31.887Z</time></trkpt><trkpt lat="43.9146917" lon="12.6402217"><ele>70.0</ele><time>2026-04-19T15:00:32.886Z</time></trkpt><trkpt lat="43.9146567" lon="12.6404367"><ele>68.0</ele><time>2026-04-19T15:00:33.887Z</time></trkpt><trkpt lat="43.91462" lon="12.64065"><ele>66.0</ele><time>2026-04-19T15:00:34.885Z</time></trkpt><trkpt lat="43.9145833" lon="12.640855"><ele>66.0</ele><time>2026-04-19T15:00:35.885Z</time></trkpt><trkpt lat="43.914545" lon="12.6410517"><ele>66.0</ele><time>2026-04-19T15:00:36.885Z</time></trkpt><trkpt lat="43.9145083" lon="12.6412417"><ele>66.0</ele><time>2026-04-19T15:00:37.885Z</time></trkpt><trkpt lat="43.9144717" lon="12.6414283"><ele>66.0</ele><time>2026-04-19T15:00:38.885Z</time></trkpt><trkpt lat="43.9144383" lon="12.6416067"><ele>66.0</ele><time>2026-04-19T15:00:39.885Z</time></trkpt><trkpt lat="43.91441" lon="12.641775"><ele>66.0</ele><time>2026-04-19T15:00:40.885Z</time></trkpt><trkpt lat="43.9143817" lon="12.6419417"><ele>66.0</ele><time>2026-04-19T15:00:41.885Z</time></trkpt><trkpt lat="43.91435" lon="12.6421083"><ele>66.0</ele><time>2026-04-19T15:00:42.885Z</time></trkpt><trkpt lat="43.91432" lon="12.6422733"><ele>66.0</ele><time>2026-04-19T15:00:43.886Z</time></trkpt><trkpt lat="43.91429" lon="12.64244"><ele>66.0</ele><time>2026-04-19T15:00:44.888Z</time></trkpt><trkpt lat="43.9142633" lon="12.6426017"><ele>66.0</ele><time>2026-04-19T15:00:45.887Z</time></trkpt><trkpt lat="43.9142467" lon="12.6427583"><ele>66.0</ele><time>2026-04-19T15:00:46.888Z</time></trkpt><trkpt lat="43.9142467" lon="12.6429217"><ele>67.0</ele><time>2026-04-19T15:00:47.887Z</time></trkpt><trkpt lat="43.91426" lon="12.6430917"><ele>68.0</ele><time>2026-04-19T15:00:48.884Z</time></trkpt><trkpt lat="43.9142917" lon="12.643265"><ele>69.0</ele><time>2026-04-19T15:00:49.887Z</time></trkpt><trkpt lat="43.914325" lon="12.6434383"><ele>70.0</ele><time>2026-04-19T15:00:50.884Z</time></trkpt><trkpt lat="43.9143633" lon="12.6436083"><ele>70.25</ele><time>2026-04-19T15:00:51.889Z</time></trkpt><trkpt lat="43.9143967" lon="12.6437783"><ele>70.5</ele><time>2026-04-19T15:00:52.888Z</time></trkpt><trkpt lat="43.914435" lon="12.6439517"><ele>70.75</ele><time>2026-04-19T15:00:53.885Z</time></trkpt><trkpt lat="43.9144633" lon="12.6441283"><ele>71.0</ele><time>2026-04-19T15:00:54.886Z</time></trkpt><trkpt lat="43.91449" lon="12.6443067"><ele>71.0</ele><time>2026-04-19T15:00:55.891Z</time></trkpt><trkpt lat="43.91451" lon="12.6444867"><ele>71.0</ele><time>2026-04-19T15:00:56.886Z</time></trkpt><trkpt lat="43.9145233" lon="12.6446583"><ele>71.0</ele><time>2026-04-19T15:00:57.885Z</time></trkpt><trkpt lat="43.9145333" lon="12.6448283"><ele>71.0</ele><time>2026-04-19T15:00:58.885Z</time></trkpt><trkpt lat="43.9145317" lon="12.6449917"><ele>71.0</ele><time>2026-04-19T15:00:59.887Z</time></trkpt><trkpt lat="43.9145317" lon="12.64515"><ele>71.0</ele><time>2026-04-19T15:01:00.884Z</time></trkpt><trkpt lat="43.914535" lon="12.6452933"><ele>71.0</ele><time>2026-04-19T15:01:01.887Z</time></trkpt><trkpt lat="43.91453" lon="12.6454167"><ele>71.0</ele><time>2026-04-19T15:01:02.886Z</time></trkpt><trkpt lat="43.9145183" lon="12.645515"><ele>71.0</ele><time>2026-04-19T15:01:03.888Z</time></trkpt><trkpt lat="43.9144533" lon="12.645605"><ele>70.8</ele><time>2026-04-19T15:01:05.887Z</time></trkpt><trkpt lat="43.9143467" lon="12.64564"><ele>70.6</ele><time>2026-04-19T15:01:07.885Z</time></trkpt><trkpt lat="43.914275" lon="12.6457333"><ele>70.4</ele><time>2026-04-19T15:01:09.886Z</time></trkpt><trkpt lat="43.9142617" lon="12.6458383"><ele>70.2</ele><time>2026-04-19T15:01:10.888Z</time></trkpt><trkpt lat="43.91426" lon="12.64597"><ele>70.0</ele><time>2026-04-19T15:01:11.885Z</time></trkpt><trkpt lat="43.914265" lon="12.6461083"><ele>70.4</ele><time>2026-04-19T15:01:12.886Z</time></trkpt><trkpt lat="43.914265" lon="12.6462517"><ele>70.8</ele><time>2026-04-19T15:01:13.887Z</time></trkpt><trkpt lat="43.9142617" lon="12.646395"><ele>71.2</ele><time>2026-04-19T15:01:14.89Z</time></trkpt><trkpt lat="43.9142633" lon="12.646535"><ele>71.6</ele><time>2026-04-19T15:01:15.887Z</time></trkpt><trkpt lat="43.914265" lon="12.6466717"><ele>72.0</ele><time>2026-04-19T15:01:16.887Z</time></trkpt><trkpt lat="43.914265" lon="12.6468117"><ele>72.0</ele><time>2026-04-19T15:01:17.888Z</time></trkpt><trkpt lat="43.9142667" lon="12.64696"><ele>72.0</ele><time>2026-04-19T15:01:18.887Z</time></trkpt><trkpt lat="43.9142733" lon="12.6471117"><ele>72.0</ele><time>2026-04-19T15:01:19.887Z</time></trkpt><trkpt lat="43.9142767" lon="12.64726"><ele>72.0</ele><time>2026-04-19T15:01:20.886Z</time></trkpt><trkpt lat="43.91428" lon="12.64741"><ele>72.0</ele><time>2026-04-19T15:01:21.886Z</time></trkpt><trkpt lat="43.9142867" lon="12.6475533"><ele>72.33333333333333</ele><time>2026-04-19T15:01:22.886Z</time></trkpt><trkpt lat="43.914295" lon="12.6476933"><ele>72.66666666666667</ele><time>2026-04-19T15:01:23.886Z</time></trkpt><trkpt lat="43.9143167" lon="12.64783"><ele>73.0</ele><time>2026-04-19T15:01:24.887Z</time></trkpt><trkpt lat="43.9143383" lon="12.6479567"><ele>73.33333333333334</ele><time>2026-04-19T15:01:25.886Z</time></trkpt><trkpt lat="43.91436" lon="12.648065"><ele>73.66666666666667</ele><time>2026-04-19T15:01:26.886Z</time></trkpt><trkpt lat="43.9143783" lon="12.648155"><ele>74.0</ele><time>2026-04-19T15:01:27.886Z</time></trkpt><trkpt lat="43.914395" lon="12.6482767"><ele>74.5</ele><time>2026-04-19T15:01:29.885Z</time></trkpt><trkpt lat="43.914405" lon="12.6483717"><ele>75.0</ele><time>2026-04-19T15:01:31.885Z</time></trkpt><trkpt lat="43.91441" lon="12.6485117"><ele>75.5</ele><time>2026-04-19T15:01:36.886Z</time></trkpt><trkpt lat="43.914425" lon="12.6486017"><ele>76.0</ele><time>2026-04-19T15:01:37.887Z</time></trkpt><trkpt lat="43.9144467" lon="12.6487"><ele>76.5</ele><time>2026-04-19T15:01:38.887Z</time></trkpt><trkpt lat="43.914475" lon="12.6488117"><ele>77.0</ele><time>2026-04-19T15:01:39.886Z</time></trkpt><trkpt lat="43.9145117" lon="12.64895"><ele>77.0</ele><time>2026-04-19T15:01:40.886Z</time></trkpt><trkpt lat="43.9145467" lon="12.6491067"><ele>77.0</ele><time>2026-04-19T15:01:41.886Z</time></trkpt><trkpt lat="43.9145783" lon="12.64927"><ele>77.0</ele><time>2026-04-19T15:01:42.887Z</time></trkpt><trkpt lat="43.914615" lon="12.64943"><ele>77.0</ele><time>2026-04-19T15:01:43.886Z</time></trkpt><trkpt lat="43.9146483" lon="12.6495767"><ele>77.0</ele><time>2026-04-19T15:01:44.886Z</time></trkpt><trkpt lat="43.91468" lon="12.6497017"><ele>77.0</ele><time>2026-04-19T15:01:45.885Z</time></trkpt><trkpt lat="43.91471" lon="12.6498067"><ele>77.0</ele><time>2026-04-19T15:01:46.887Z</time></trkpt><trkpt lat="43.914735" lon="12.6498967"><ele>77.0</ele><time>2026-04-19T15:01:47.887Z</time></trkpt><trkpt lat="43.9147467" lon="12.6499867"><ele>77.0</ele><time>2026-04-19T15:01:48.886Z</time></trkpt><trkpt lat="43.914755" lon="12.650075"><ele>77.0</ele><time>2026-04-19T15:01:49.887Z</time></trkpt><trkpt lat="43.9147633" lon="12.650255"><ele>76.83333333333334</ele><time>2026-04-19T15:01:51.884Z</time></trkpt><trkpt lat="43.9148083" lon="12.6504117"><ele>76.66666666666667</ele><time>2026-04-19T15:01:53.885Z</time></trkpt><trkpt lat="43.9148367" lon="12.6505"><ele>76.5</ele><time>2026-04-19T15:01:54.888Z</time></trkpt><trkpt lat="43.9148583" lon="12.6505917"><ele>76.33333333333333</ele><time>2026-04-19T15:01:55.885Z</time></trkpt><trkpt lat="43.914885" lon="12.6506867"><ele>76.16666666666666</ele><time>2026-04-19T15:01:56.885Z</time></trkpt><trkpt lat="43.9149117" lon="12.6507883"><ele>76.0</ele><time>2026-04-19T15:01:57.885Z</time></trkpt><trkpt lat="43.914935" lon="12.650895"><ele>76.0</ele><time>2026-04-19T15:01:58.888Z</time></trkpt><trkpt lat="43.9149583" lon="12.6510067"><ele>76.0</ele><time>2026-04-19T15:01:59.885Z</time></trkpt><trkpt lat="43.9149817" lon="12.6511217"><ele>76.0</ele><time>2026-04-19T15:02:00.886Z</time></trkpt><trkpt lat="43.9150017" lon="12.6512383"><ele>76.0</ele><time>2026-04-19T15:02:01.885Z</time></trkpt><trkpt lat="43.9150233" lon="12.65135"><ele>76.0</ele><time>2026-04-19T15:02:02.885Z</time></trkpt><trkpt lat="43.9150433" lon="12.6514567"><ele>76.0</ele><time>2026-04-19T15:02:03.884Z</time></trkpt><trkpt lat="43.9150567" lon="12.651565"><ele>76.14285714285714</ele><time>2026-04-19T15:02:04.887Z</time></trkpt><trkpt lat="43.9150533" lon="12.6516633"><ele>76.28571428571429</ele><time>2026-04-19T15:02:05.884Z</time></trkpt><trkpt lat="43.915035" lon="12.6517583"><ele>76.42857142857143</ele><time>2026-04-19T15:02:06.886Z</time></trkpt><trkpt lat="43.915025" lon="12.6518533"><ele>76.57142857142857</ele><time>2026-04-19T15:02:07.885Z</time></trkpt><trkpt lat="43.9150367" lon="12.6519433"><ele>76.71428571428572</ele><time>2026-04-19T15:02:08.885Z</time></trkpt><trkpt lat="43.9150667" lon="12.6520283"><ele>76.85714285714286</ele><time>2026-04-19T15:02:09.885Z</time></trkpt><trkpt lat="43.9151183" lon="12.6521117"><ele>77.0</ele><time>2026-04-19T15:02:10.886Z</time></trkpt><trkpt lat="43.9151633" lon="12.652215"><ele>77.0</ele><time>2026-04-19T15:02:11.886Z</time></trkpt><trkpt lat="43.9152017" lon="12.652335"><ele>77.0</ele><time>2026-04-19T15:02:12.888Z</time></trkpt><trkpt lat="43.91523" lon="12.6524633"><ele>77.0</ele><time>2026-04-19T15:02:13.887Z</time></trkpt><trkpt lat="43.9152583" lon="12.6525867"><ele>77.0</ele><time>2026-04-19T15:02:14.886Z</time></trkpt><trkpt lat="43.9152833" lon="12.6527083"><ele>77.0</ele><time>2026-04-19T15:02:15.886Z</time></trkpt><trkpt lat="43.9153117" lon="12.65283"><ele>77.0</ele><time>2026-04-19T15:02:16.887Z</time></trkpt><trkpt lat="43.9153383" lon="12.6529533"><ele>77.0</ele><time>2026-04-19T15:02:17.886Z</time></trkpt><trkpt lat="43.915365" lon="12.6530833"><ele>77.0</ele><time>2026-04-19T15:02:18.886Z</time></trkpt><trkpt lat="43.915395" lon="12.6532183"><ele>77.0</ele><time>2026-04-19T15:02:19.885Z</time></trkpt><trkpt lat="43.9154267" lon="12.6533567"><ele>77.0</ele><time>2026-04-19T15:02:20.887Z</time></trkpt><trkpt lat="43.9154583" lon="12.6534983"><ele>77.0</ele><time>2026-04-19T15:02:21.887Z</time></trkpt><trkpt lat="43.9154867" lon="12.65364"><ele>77.0</ele><time>2026-04-19T15:02:22.886Z</time></trkpt><trkpt lat="43.9155133" lon="12.653785"><ele>77.0</ele><time>2026-04-19T15:02:23.885Z</time></trkpt><trkpt lat="43.91554" lon="12.6539317"><ele>77.0</ele><time>2026-04-19T15:02:24.886Z</time></trkpt><trkpt lat="43.9155683" lon="12.6540817"><ele>77.0</ele><time>2026-04-19T15:02:25.886Z</time></trkpt><trkpt lat="43.9156" lon="12.6542333"><ele>77.0</ele><time>2026-04-19T15:02:26.885Z</time></trkpt><trkpt lat="43.91563" lon="12.6543833"><ele>77.0</ele><time>2026-04-19T15:02:27.887Z</time></trkpt><trkpt lat="43.9156583" lon="12.6545283"><ele>77.0</ele><time>2026-04-19T15:02:28.887Z</time></trkpt><trkpt lat="43.9156867" lon="12.6546633"><ele>77.0</ele><time>2026-04-19T15:02:29.886Z</time></trkpt><trkpt lat="43.915715" lon="12.6547933"><ele>77.0</ele><time>2026-04-19T15:02:30.885Z</time></trkpt><trkpt lat="43.91574" lon="12.65492"><ele>76.83333333333334</ele><time>2026-04-19T15:02:31.887Z</time></trkpt><trkpt lat="43.9157633" lon="12.65504"><ele>76.66666666666667</ele><time>2026-04-19T15:02:32.886Z</time></trkpt><trkpt lat="43.9157833" lon="12.655145"><ele>76.5</ele><time>2026-04-19T15:02:33.889Z</time></trkpt><trkpt lat="43.9158033" lon="12.655235"><ele>76.33333333333333</ele><time>2026-04-19T15:02:34.887Z</time></trkpt><trkpt lat="43.9158267" lon="12.6553767"><ele>76.16666666666666</ele><time>2026-04-19T15:02:36.888Z</time></trkpt><trkpt lat="43.9158267" lon="12.6555"><ele>76.0</ele><time>2026-04-19T15:02:38.886Z</time></trkpt><trkpt lat="43.9158433" lon="12.6556317"><ele>75.85714285714285</ele><time>2026-04-19T15:02:40.886Z</time></trkpt><trkpt lat="43.9158717" lon="12.6557117"><ele>75.71428571428572</ele><time>2026-04-19T15:02:41.886Z</time></trkpt><trkpt lat="43.9159067" lon="12.6558"><ele>75.57142857142857</ele><time>2026-04-19T15:02:42.886Z</time></trkpt><trkpt lat="43.9159433" lon="12.65589"><ele>75.42857142857142</ele><time>2026-04-19T15:02:43.887Z</time></trkpt><trkpt lat="43.9159833" lon="12.655975"><ele>75.28571428571428</ele><time>2026-04-19T15:02:44.886Z</time></trkpt><trkpt lat="43.9160233" lon="12.65606"><ele>75.14285714285714</ele><time>2026-04-19T15:02:45.886Z</time></trkpt><trkpt lat="43.916065" lon="12.6561417"><ele>75.0</ele><time>2026-04-19T15:02:46.885Z</time></trkpt><trkpt lat="43.9161033" lon="12.6562233"><ele>74.83333333333333</ele><time>2026-04-19T15:02:47.885Z</time></trkpt><trkpt lat="43.9161433" lon="12.656305"><ele>74.66666666666667</ele><time>2026-04-19T15:02:48.888Z</time></trkpt><trkpt lat="43.91618" lon="12.65638"><ele>74.5</ele><time>2026-04-19T15:02:49.888Z</time></trkpt><trkpt lat="43.9162183" lon="12.65645"><ele>74.33333333333334</ele><time>2026-04-19T15:02:50.884Z</time></trkpt><trkpt lat="43.9162833" lon="12.65658"><ele>74.16666666666667</ele><time>2026-04-19T15:02:52.885Z</time></trkpt><trkpt lat="43.9163317" lon="12.656675"><ele>74.0</ele><time>2026-04-19T15:02:54.887Z</time></trkpt><trkpt lat="43.916355" lon="12.656765"><ele>74.0</ele><time>2026-04-19T15:02:57.888Z</time></trkpt><trkpt lat="43.916365" lon="12.65686"><ele>74.0</ele><time>2026-04-19T15:02:59.884Z</time></trkpt><trkpt lat="43.9164017" lon="12.6569867"><ele>74.0</ele><time>2026-04-19T15:03:01.885Z</time></trkpt><trkpt lat="43.9165" lon="12.6570833"><ele>74.0</ele><time>2026-04-19T15:03:03.888Z</time></trkpt><trkpt lat="43.91656" lon="12.6571333"><ele>74.0</ele><time>2026-04-19T15:03:04.886Z</time></trkpt><trkpt lat="43.9166167" lon="12.6571983"><ele>74.0</ele><time>2026-04-19T15:03:05.886Z</time></trkpt><trkpt lat="43.9166733" lon="12.65728"><ele>74.0</ele><time>2026-04-19T15:03:06.886Z</time></trkpt><trkpt lat="43.9167267" lon="12.65737"><ele>74.0</ele><time>2026-04-19T15:03:07.887Z</time></trkpt><trkpt lat="43.91678" lon="12.6574617"><ele>74.0</ele><time>2026-04-19T15:03:08.887Z</time></trkpt><trkpt lat="43.9168317" lon="12.657555"><ele>74.0</ele><time>2026-04-19T15:03:09.887Z</time></trkpt><trkpt lat="43.9168833" lon="12.6576517"><ele>74.0</ele><time>2026-04-19T15:03:10.885Z</time></trkpt><trkpt lat="43.9169333" lon="12.6577417"><ele>74.0</ele><time>2026-04-19T15:03:11.886Z</time></trkpt><trkpt lat="43.9169817" lon="12.6578333"><ele>73.66666666666667</ele><time>2026-04-19T15:03:12.885Z</time></trkpt><trkpt lat="43.9170317" lon="12.6579233"><ele>73.33333333333334</ele><time>2026-04-19T15:03:13.887Z</time></trkpt><trkpt lat="43.91708" lon="12.6580133"><ele>73.0</ele><time>2026-04-19T15:03:14.888Z</time></trkpt><trkpt lat="43.91713" lon="12.65811"><ele>72.66666666666667</ele><time>2026-04-19T15:03:15.887Z</time></trkpt><trkpt lat="43.9171833" lon="12.6582067"><ele>72.33333333333333</ele><time>2026-04-19T15:03:16.886Z</time></trkpt><trkpt lat="43.9172367" lon="12.6583017"><ele>72.0</ele><time>2026-04-19T15:03:17.886Z</time></trkpt><trkpt lat="43.9172867" lon="12.658395"><ele>72.0</ele><time>2026-04-19T15:03:18.888Z</time></trkpt><trkpt lat="43.9173333" lon="12.6584767"><ele>72.0</ele><time>2026-04-19T15:03:19.887Z</time></trkpt><trkpt lat="43.9173717" lon="12.6585517"><ele>72.0</ele><time>2026-04-19T15:03:20.885Z</time></trkpt><trkpt lat="43.9174117" lon="12.658625"><ele>72.0</ele><time>2026-04-19T15:03:21.887Z</time></trkpt><trkpt lat="43.9174483" lon="12.6586967"><ele>72.0</ele><time>2026-04-19T15:03:22.887Z</time></trkpt><trkpt lat="43.9175083" lon="12.6588533"><ele>72.0</ele><time>2026-04-19T15:03:24.887Z</time></trkpt><trkpt lat="43.9175333" lon="12.6590283"><ele>71.83333333333333</ele><time>2026-04-19T15:03:26.886Z</time></trkpt><trkpt lat="43.9175583" lon="12.659115"><ele>71.66666666666667</ele><time>2026-04-19T15:03:27.887Z</time></trkpt><trkpt lat="43.9176067" lon="12.6591833"><ele>71.5</ele><time>2026-04-19T15:03:28.889Z</time></trkpt><trkpt lat="43.91768" lon="12.6592267"><ele>71.33333333333334</ele><time>2026-04-19T15:03:29.887Z</time></trkpt><trkpt lat="43.91776" lon="12.65928"><ele>71.16666666666667</ele><time>2026-04-19T15:03:30.886Z</time></trkpt><trkpt lat="43.9178333" lon="12.65936"><ele>71.0</ele><time>2026-04-19T15:03:31.886Z</time></trkpt><trkpt lat="43.9179" lon="12.6594633"><ele>70.8</ele><time>2026-04-19T15:03:32.888Z</time></trkpt><trkpt lat="43.917965" lon="12.659575"><ele>70.6</ele><time>2026-04-19T15:03:33.887Z</time></trkpt><trkpt lat="43.9180317" lon="12.6596933"><ele>70.4</ele><time>2026-04-19T15:03:34.89Z</time></trkpt><trkpt lat="43.9181" lon="12.65982"><ele>70.2</ele><time>2026-04-19T15:03:35.887Z</time></trkpt><trkpt lat="43.9181717" lon="12.65995"><ele>70.0</ele><time>2026-04-19T15:03:36.89Z</time></trkpt><trkpt lat="43.918245" lon="12.6600817"><ele>70.0</ele><time>2026-04-19T15:03:37.885Z</time></trkpt><trkpt lat="43.9183217" lon="12.6602167"><ele>70.0</ele><time>2026-04-19T15:03:38.887Z</time></trkpt><trkpt lat="43.9184017" lon="12.660355"><ele>70.0</ele><time>2026-04-19T15:03:39.884Z</time></trkpt><trkpt lat="43.9184833" lon="12.6604983"><ele>70.0</ele><time>2026-04-19T15:03:40.885Z</time></trkpt><trkpt lat="43.9185667" lon="12.6606433"><ele>70.0</ele><time>2026-04-19T15:03:41.886Z</time></trkpt><trkpt lat="43.9186483" lon="12.66079"><ele>70.0</ele><time>2026-04-19T15:03:42.886Z</time></trkpt><trkpt lat="43.91873" lon="12.6609333"><ele>70.0</ele><time>2026-04-19T15:03:43.885Z</time></trkpt><trkpt lat="43.9188133" lon="12.6610767"><ele>70.0</ele><time>2026-04-19T15:03:44.889Z</time></trkpt><trkpt lat="43.918895" lon="12.6612217"><ele>69.5</ele><time>2026-04-19T15:03:45.885Z</time></trkpt><trkpt lat="43.9189783" lon="12.6613683"><ele>69.0</ele><time>2026-04-19T15:03:46.886Z</time></trkpt><trkpt lat="43.9190617" lon="12.6615117"><ele>68.5</ele><time>2026-04-19T15:03:47.885Z</time></trkpt><trkpt lat="43.9191433" lon="12.66166"><ele>68.0</ele><time>2026-04-19T15:03:48.889Z</time></trkpt><trkpt lat="43.9192267" lon="12.6618183"><ele>67.5</ele><time>2026-04-19T15:03:49.886Z</time></trkpt><trkpt lat="43.919305" lon="12.661975"><ele>67.0</ele><time>2026-04-19T15:03:50.886Z</time></trkpt><trkpt lat="43.9193833" lon="12.6621367"><ele>66.5</ele><time>2026-04-19T15:03:51.885Z</time></trkpt><trkpt lat="43.91946" lon="12.6623033"><ele>66.0</ele><time>2026-04-19T15:03:52.886Z</time></trkpt><trkpt lat="43.9195333" lon="12.662485"><ele>66.0</ele><time>2026-04-19T15:03:53.888Z</time></trkpt><trkpt lat="43.9195933" lon="12.662675"><ele>66.0</ele><time>2026-04-19T15:03:54.887Z</time></trkpt><trkpt lat="43.919645" lon="12.662875"><ele>66.0</ele><time>2026-04-19T15:03:55.887Z</time></trkpt><trkpt lat="43.9196933" lon="12.6630783"><ele>66.0</ele><time>2026-04-19T15:03:56.888Z</time></trkpt><trkpt lat="43.9197433" lon="12.6632817"><ele>66.0</ele><time>2026-04-19T15:03:57.885Z</time></trkpt><trkpt lat="43.9197933" lon="12.663485"><ele>66.0</ele><time>2026-04-19T15:03:58.888Z</time></trkpt><trkpt lat="43.9198433" lon="12.6636867"><ele>66.0</ele><time>2026-04-19T15:03:59.889Z</time></trkpt><trkpt lat="43.9198883" lon="12.663895"><ele>66.0</ele><time>2026-04-19T15:04:00.888Z</time></trkpt><trkpt lat="43.9199333" lon="12.6640933"><ele>66.0</ele><time>2026-04-19T15:04:01.886Z</time></trkpt><trkpt lat="43.91998" lon="12.6642817"><ele>66.5</ele><time>2026-04-19T15:04:02.886Z</time></trkpt><trkpt lat="43.9200317" lon="12.6644617"><ele>67.0</ele><time>2026-04-19T15:04:03.885Z</time></trkpt><trkpt lat="43.92009" lon="12.664635"><ele>67.5</ele><time>2026-04-19T15:04:04.887Z</time></trkpt><trkpt lat="43.920155" lon="12.6648033"><ele>68.0</ele><time>2026-04-19T15:04:05.886Z</time></trkpt><trkpt lat="43.9202217" lon="12.66496"><ele>67.0</ele><time>2026-04-19T15:04:06.89Z</time></trkpt><trkpt lat="43.9202833" lon="12.6651067"><ele>66.0</ele><time>2026-04-19T15:04:07.889Z</time></trkpt><trkpt lat="43.92034" lon="12.6652433"><ele>65.0</ele><time>2026-04-19T15:04:08.888Z</time></trkpt><trkpt lat="43.920395" lon="12.6653767"><ele>64.0</ele><time>2026-04-19T15:04:09.889Z</time></trkpt><trkpt lat="43.9204533" lon="12.6655117"><ele>63.75</ele><time>2026-04-19T15:04:10.885Z</time></trkpt><trkpt lat="43.9205117" lon="12.6656533"><ele>63.5</ele><time>2026-04-19T15:04:11.886Z</time></trkpt><trkpt lat="43.92057" lon="12.6657983"><ele>63.25</ele><time>2026-04-19T15:04:12.888Z</time></trkpt><trkpt lat="43.92063" lon="12.6659433"><ele>63.0</ele><time>2026-04-19T15:04:13.886Z</time></trkpt><trkpt lat="43.9206867" lon="12.66608"><ele>63.75</ele><time>2026-04-19T15:04:14.889Z</time></trkpt><trkpt lat="43.9207417" lon="12.6662117"><ele>64.5</ele><time>2026-04-19T15:04:15.887Z</time></trkpt><trkpt lat="43.9208" lon="12.666345"><ele>65.25</ele><time>2026-04-19T15:04:16.889Z</time></trkpt><trkpt lat="43.92086" lon="12.66648"><ele>66.0</ele><time>2026-04-19T15:04:17.888Z</time></trkpt><trkpt lat="43.9209183" lon="12.6666217"><ele>63.75</ele><time>2026-04-19T15:04:18.889Z</time></trkpt><trkpt lat="43.9209683" lon="12.6667733"><ele>61.5</ele><time>2026-04-19T15:04:19.886Z</time></trkpt><trkpt lat="43.92101" lon="12.66693"><ele>59.25</ele><time>2026-04-19T15:04:20.887Z</time></trkpt><trkpt lat="43.9210433" lon="12.6670967"><ele>57.0</ele><time>2026-04-19T15:04:21.886Z</time></trkpt><trkpt lat="43.9210717" lon="12.6672683"><ele>57.0</ele><time>2026-04-19T15:04:22.89Z</time></trkpt><trkpt lat="43.921095" lon="12.66744"><ele>57.0</ele><time>2026-04-19T15:04:23.886Z</time></trkpt><trkpt lat="43.9211183" lon="12.667615"><ele>57.0</ele><time>2026-04-19T15:04:24.888Z</time></trkpt><trkpt lat="43.92114" lon="12.6677883"><ele>57.0</ele><time>2026-04-19T15:04:25.887Z</time></trkpt><trkpt lat="43.9211617" lon="12.66796"><ele>57.0</ele><time>2026-04-19T15:04:26.888Z</time></trkpt><trkpt lat="43.9211867" lon="12.6681333"><ele>57.0</ele><time>2026-04-19T15:04:27.888Z</time></trkpt><trkpt lat="43.9212083" lon="12.6683083"><ele>57.0</ele><time>2026-04-19T15:04:28.891Z</time></trkpt><trkpt lat="43.9212317" lon="12.668485"><ele>57.0</ele><time>2026-04-19T15:04:29.887Z</time></trkpt><trkpt lat="43.921255" lon="12.66866"><ele>57.0</ele><time>2026-04-19T15:04:30.889Z</time></trkpt><trkpt lat="43.92128" lon="12.66883"><ele>57.0</ele><time>2026-04-19T15:04:31.887Z</time></trkpt><trkpt lat="43.921305" lon="12.6689917"><ele>57.0</ele><time>2026-04-19T15:04:32.889Z</time></trkpt><trkpt lat="43.9213267" lon="12.6691483"><ele>57.0</ele><time>2026-04-19T15:04:33.885Z</time></trkpt><trkpt lat="43.9213483" lon="12.669305"><ele>58.0</ele><time>2026-04-19T15:04:34.886Z</time></trkpt><trkpt lat="43.9213683" lon="12.6694617"><ele>59.0</ele><time>2026-04-19T15:04:35.886Z</time></trkpt><trkpt lat="43.9213917" lon="12.6696217"><ele>60.0</ele><time>2026-04-19T15:04:36.886Z</time></trkpt><trkpt lat="43.9214117" lon="12.6697833"><ele>61.0</ele><time>2026-04-19T15:04:37.885Z</time></trkpt><trkpt lat="43.921435" lon="12.669945"><ele>61.0</ele><time>2026-04-19T15:04:38.888Z</time></trkpt><trkpt lat="43.9214567" lon="12.6701"><ele>61.0</ele><time>2026-04-19T15:04:39.885Z</time></trkpt><trkpt lat="43.9214783" lon="12.6702583"><ele>61.0</ele><time>2026-04-19T15:04:40.887Z</time></trkpt><trkpt lat="43.9215" lon="12.670415"><ele>61.0</ele><time>2026-04-19T15:04:41.886Z</time></trkpt><trkpt lat="43.92152" lon="12.6705717"><ele>60.8</ele><time>2026-04-19T15:04:42.889Z</time></trkpt><trkpt lat="43.9215417" lon="12.67073"><ele>60.599999999999994</ele><time>2026-04-19T15:04:43.886Z</time></trkpt><trkpt lat="43.9215633" lon="12.6708817"><ele>60.4</ele><time>2026-04-19T15:04:44.889Z</time></trkpt><trkpt lat="43.9215817" lon="12.6710233"><ele>60.2</ele><time>2026-04-19T15:04:45.886Z</time></trkpt><trkpt lat="43.9215983" lon="12.67116"><ele>60.0</ele><time>2026-04-19T15:04:46.887Z</time></trkpt><trkpt lat="43.9216133" lon="12.6712917"><ele>60.0</ele><time>2026-04-19T15:04:47.888Z</time></trkpt><trkpt lat="43.9216267" lon="12.6714117"><ele>60.0</ele><time>2026-04-19T15:04:48.888Z</time></trkpt><trkpt lat="43.9216283" lon="12.6715217"><ele>60.0</ele><time>2026-04-19T15:04:49.888Z</time></trkpt><trkpt lat="43.9216117" lon="12.67163"><ele>60.0</ele><time>2026-04-19T15:04:50.887Z</time></trkpt><trkpt lat="43.92159" lon="12.67173"><ele>60.0</ele><time>2026-04-19T15:04:51.887Z</time></trkpt><trkpt lat="43.92158" lon="12.671825"><ele>60.0</ele><time>2026-04-19T15:04:52.888Z</time></trkpt><trkpt lat="43.921635" lon="12.6719667"><ele>59.6</ele><time>2026-04-19T15:04:54.889Z</time></trkpt><trkpt lat="43.921745" lon="12.67199"><ele>59.2</ele><time>2026-04-19T15:04:56.889Z</time></trkpt><trkpt lat="43.9218167" lon="12.6719633"><ele>58.8</ele><time>2026-04-19T15:04:57.888Z</time></trkpt><trkpt lat="43.9219017" lon="12.67195"><ele>58.4</ele><time>2026-04-19T15:04:58.889Z</time></trkpt><trkpt lat="43.9220133" lon="12.6719483"><ele>58.0</ele><time>2026-04-19T15:04:59.885Z</time></trkpt><trkpt lat="43.922125" lon="12.67198"><ele>58.0</ele><time>2026-04-19T15:05:00.887Z</time></trkpt><trkpt lat="43.9222333" lon="12.67203"><ele>58.0</ele><time>2026-04-19T15:05:01.888Z</time></trkpt><trkpt lat="43.9223383" lon="12.6721033"><ele>58.0</ele><time>2026-04-19T15:05:02.887Z</time></trkpt><trkpt lat="43.9224483" lon="12.6721883"><ele>58.0</ele><time>2026-04-19T15:05:03.886Z</time></trkpt><trkpt lat="43.9225517" lon="12.6722867"><ele>57.75</ele><time>2026-04-19T15:05:04.888Z</time></trkpt><trkpt lat="43.9226533" lon="12.6723917"><ele>57.5</ele><time>2026-04-19T15:05:05.885Z</time></trkpt><trkpt lat="43.922755" lon="12.6724983"><ele>57.25</ele><time>2026-04-19T15:05:06.888Z</time></trkpt><trkpt lat="43.9228517" lon="12.6726083"><ele>57.0</ele><time>2026-04-19T15:05:07.885Z</time></trkpt><trkpt lat="43.9229467" lon="12.6727283"><ele>56.5</ele><time>2026-04-19T15:05:08.89Z</time></trkpt><trkpt lat="43.923035" lon="12.6728567"><ele>56.0</ele><time>2026-04-19T15:05:09.89Z</time></trkpt><trkpt lat="43.9231217" lon="12.6729933"><ele>55.5</ele><time>2026-04-19T15:05:10.889Z</time></trkpt><trkpt lat="43.92321" lon="12.67313"><ele>55.0</ele><time>2026-04-19T15:05:11.884Z</time></trkpt><trkpt lat="43.9232983" lon="12.6732633"><ele>55.0</ele><time>2026-04-19T15:05:12.887Z</time></trkpt><trkpt lat="43.9233817" lon="12.673395"><ele>55.0</ele><time>2026-04-19T15:05:13.889Z</time></trkpt><trkpt lat="43.9234633" lon="12.6735183"><ele>55.0</ele><time>2026-04-19T15:05:14.889Z</time></trkpt><trkpt lat="43.9235367" lon="12.6736283"><ele>55.0</ele><time>2026-04-19T15:05:15.888Z</time></trkpt><trkpt lat="43.9235967" lon="12.6737383"><ele>54.166666666666664</ele><time>2026-04-19T15:05:16.889Z</time></trkpt><trkpt lat="43.9236383" lon="12.6738517"><ele>53.33333333333333</ele><time>2026-04-19T15:05:17.889Z</time></trkpt><trkpt lat="43.9236583" lon="12.6739717"><ele>52.5</ele><time>2026-04-19T15:05:18.888Z</time></trkpt><trkpt lat="43.9236783" lon="12.6740867"><ele>51.66666666666667</ele><time>2026-04-19T15:05:19.887Z</time></trkpt><trkpt lat="43.9237133" lon="12.6741867"><ele>50.833333333333336</ele><time>2026-04-19T15:05:20.888Z</time></trkpt><trkpt lat="43.9237717" lon="12.6742567"><ele>50.0</ele><time>2026-04-19T15:05:21.888Z</time></trkpt><trkpt lat="43.9238517" lon="12.6742967"><ele>50.0</ele><time>2026-04-19T15:05:22.888Z</time></trkpt><trkpt lat="43.9239417" lon="12.6743333"><ele>50.0</ele><time>2026-04-19T15:05:23.888Z</time></trkpt><trkpt lat="43.92403" lon="12.674395"><ele>50.0</ele><time>2026-04-19T15:05:24.891Z</time></trkpt><trkpt lat="43.92411" lon="12.67449"><ele>50.0</ele><time>2026-04-19T15:05:25.889Z</time></trkpt><trkpt lat="43.924185" lon="12.6746017"><ele>50.0</ele><time>2026-04-19T15:05:26.889Z</time></trkpt><trkpt lat="43.9242633" lon="12.6747167"><ele>49.25</ele><time>2026-04-19T15:05:27.888Z</time></trkpt><trkpt lat="43.9243417" lon="12.6748367"><ele>48.5</ele><time>2026-04-19T15:05:28.888Z</time></trkpt><trkpt lat="43.92442" lon="12.67496"><ele>47.75</ele><time>2026-04-19T15:05:29.887Z</time></trkpt><trkpt lat="43.9245017" lon="12.675085"><ele>47.0</ele><time>2026-04-19T15:05:30.891Z</time></trkpt><trkpt lat="43.9245867" lon="12.6752167"><ele>47.5</ele><time>2026-04-19T15:05:31.887Z</time></trkpt><trkpt lat="43.924675" lon="12.6753567"><ele>48.0</ele><time>2026-04-19T15:05:32.889Z</time></trkpt><trkpt lat="43.92477" lon="12.675505"><ele>48.5</ele><time>2026-04-19T15:05:33.888Z</time></trkpt><trkpt lat="43.9248717" lon="12.6756617"><ele>49.0</ele><time>2026-04-19T15:05:34.888Z</time></trkpt><trkpt lat="43.9249783" lon="12.6758283"><ele>48.666666666666664</ele><time>2026-04-19T15:05:35.889Z</time></trkpt><trkpt lat="43.925085" lon="12.6759983"><ele>48.33333333333333</ele><time>2026-04-19T15:05:36.89Z</time></trkpt><trkpt lat="43.92519" lon="12.6761733"><ele>48.0</ele><time>2026-04-19T15:05:37.889Z</time></trkpt><trkpt lat="43.9252967" lon="12.6763483"><ele>48.0</ele><time>2026-04-19T15:05:38.89Z</time></trkpt><trkpt lat="43.9254017" lon="12.6765267"><ele>48.0</ele><time>2026-04-19T15:05:39.884Z</time></trkpt><trkpt lat="43.9255067" lon="12.6767067"><ele>48.0</ele><time>2026-04-19T15:05:40.886Z</time></trkpt><trkpt lat="43.9256117" lon="12.6768883"><ele>48.0</ele><time>2026-04-19T15:05:41.885Z</time></trkpt><trkpt lat="43.9257167" lon="12.6770767"><ele>48.0</ele><time>2026-04-19T15:05:42.889Z</time></trkpt><trkpt lat="43.9258233" lon="12.6772683"><ele>48.0</ele><time>2026-04-19T15:05:43.885Z</time></trkpt><trkpt lat="43.925935" lon="12.677465"><ele>48.0</ele><time>2026-04-19T15:05:44.889Z</time></trkpt><trkpt lat="43.9260417" lon="12.677665"><ele>48.0</ele><time>2026-04-19T15:05:45.888Z</time></trkpt><trkpt lat="43.9261483" lon="12.6778683"><ele>48.0</ele><time>2026-04-19T15:05:46.886Z</time></trkpt><trkpt lat="43.926255" lon="12.6780767"><ele>48.0</ele><time>2026-04-19T15:05:47.886Z</time></trkpt><trkpt lat="43.9263633" lon="12.6782883"><ele>48.0</ele><time>2026-04-19T15:05:48.887Z</time></trkpt><trkpt lat="43.9264733" lon="12.6785017"><ele>48.0</ele><time>2026-04-19T15:05:49.886Z</time></trkpt><trkpt lat="43.9265833" lon="12.6787183"><ele>48.0</ele><time>2026-04-19T15:05:50.887Z</time></trkpt><trkpt lat="43.926695" lon="12.6789383"><ele>48.0</ele><time>2026-04-19T15:05:51.884Z</time></trkpt><trkpt lat="43.92681" lon="12.6791567"><ele>48.0</ele><time>2026-04-19T15:05:52.886Z</time></trkpt><trkpt lat="43.9269283" lon="12.6793767"><ele>48.0</ele><time>2026-04-19T15:05:53.886Z</time></trkpt><trkpt lat="43.9270483" lon="12.679595"><ele>48.0</ele><time>2026-04-19T15:05:54.887Z</time></trkpt><trkpt lat="43.9271667" lon="12.679815"><ele>48.0</ele><time>2026-04-19T15:05:55.885Z</time></trkpt><trkpt lat="43.927285" lon="12.6800367"><ele>48.0</ele><time>2026-04-19T15:05:56.886Z</time></trkpt><trkpt lat="43.9274017" lon="12.680255"><ele>48.0</ele><time>2026-04-19T15:05:57.888Z</time></trkpt><trkpt lat="43.92752" lon="12.6804683"><ele>48.0</ele><time>2026-04-19T15:05:58.889Z</time></trkpt><trkpt lat="43.9276383" lon="12.6806783"><ele>48.66666666666667</ele><time>2026-04-19T15:05:59.888Z</time></trkpt><trkpt lat="43.9277583" lon="12.6808833"><ele>49.333333333333336</ele><time>2026-04-19T15:06:00.887Z</time></trkpt><trkpt lat="43.9278817" lon="12.68108"><ele>50.0</ele><time>2026-04-19T15:06:01.888Z</time></trkpt><trkpt lat="43.9280067" lon="12.6812717"><ele>50.0</ele><time>2026-04-19T15:06:02.887Z</time></trkpt><trkpt lat="43.9281317" lon="12.6814567"><ele>50.0</ele><time>2026-04-19T15:06:03.886Z</time></trkpt><trkpt lat="43.9282567" lon="12.6816383"><ele>50.0</ele><time>2026-04-19T15:06:04.885Z</time></trkpt><trkpt lat="43.9283817" lon="12.6818117"><ele>49.333333333333336</ele><time>2026-04-19T15:06:05.885Z</time></trkpt><trkpt lat="43.928505" lon="12.68198"><ele>48.66666666666667</ele><time>2026-04-19T15:06:06.885Z</time></trkpt><trkpt lat="43.9286283" lon="12.6821467"><ele>48.0</ele><time>2026-04-19T15:06:07.886Z</time></trkpt><trkpt lat="43.92875" lon="12.6823067"><ele>48.0</ele><time>2026-04-19T15:06:08.885Z</time></trkpt><trkpt lat="43.9288667" lon="12.6824617"><ele>48.0</ele><time>2026-04-19T15:06:09.885Z</time></trkpt><trkpt lat="43.9289817" lon="12.6826083"><ele>48.0</ele><time>2026-04-19T15:06:10.888Z</time></trkpt><trkpt lat="43.9290917" lon="12.6827483"><ele>48.0</ele><time>2026-04-19T15:06:11.886Z</time></trkpt><trkpt lat="43.9292017" lon="12.6828817"><ele>48.0</ele><time>2026-04-19T15:06:12.886Z</time></trkpt><trkpt lat="43.9293117" lon="12.683015"><ele>48.0</ele><time>2026-04-19T15:06:13.886Z</time></trkpt><trkpt lat="43.9294183" lon="12.68315"><ele>48.0</ele><time>2026-04-19T15:06:14.89Z</time></trkpt><trkpt lat="43.929525" lon="12.683285"><ele>48.0</ele><time>2026-04-19T15:06:15.887Z</time></trkpt><trkpt lat="43.9296333" lon="12.6834183"><ele>48.0</ele><time>2026-04-19T15:06:16.888Z</time></trkpt><trkpt lat="43.929745" lon="12.683555"><ele>48.0</ele><time>2026-04-19T15:06:17.887Z</time></trkpt><trkpt lat="43.9298533" lon="12.6836983"><ele>48.0</ele><time>2026-04-19T15:06:18.886Z</time></trkpt><trkpt lat="43.929965" lon="12.68384"><ele>47.666666666666664</ele><time>2026-04-19T15:06:19.887Z</time></trkpt><trkpt lat="43.9300783" lon="12.6839883"><ele>47.33333333333333</ele><time>2026-04-19T15:06:20.888Z</time></trkpt><trkpt lat="43.9301983" lon="12.6841367"><ele>47.0</ele><time>2026-04-19T15:06:21.888Z</time></trkpt><trkpt lat="43.9303183" lon="12.6842883"><ele>47.0</ele><time>2026-04-19T15:06:22.888Z</time></trkpt><trkpt lat="43.9304417" lon="12.6844383"><ele>47.0</ele><time>2026-04-19T15:06:23.887Z</time></trkpt><trkpt lat="43.9305667" lon="12.6845917"><ele>47.0</ele><time>2026-04-19T15:06:24.889Z</time></trkpt><trkpt lat="43.9306917" lon="12.684745"><ele>47.0</ele><time>2026-04-19T15:06:25.889Z</time></trkpt><trkpt lat="43.9308183" lon="12.6849"><ele>47.0</ele><time>2026-04-19T15:06:26.889Z</time></trkpt><trkpt lat="43.930945" lon="12.6850567"><ele>47.0</ele><time>2026-04-19T15:06:27.887Z</time></trkpt><trkpt lat="43.9310717" lon="12.6852117"><ele>47.0</ele><time>2026-04-19T15:06:28.888Z</time></trkpt><trkpt lat="43.9312" lon="12.6853667"><ele>47.0</ele><time>2026-04-19T15:06:29.884Z</time></trkpt><trkpt lat="43.931325" lon="12.6855183"><ele>47.0</ele><time>2026-04-19T15:06:30.888Z</time></trkpt><trkpt lat="43.9314433" lon="12.6856633"><ele>47.0</ele><time>2026-04-19T15:06:31.885Z</time></trkpt><trkpt lat="43.9315567" lon="12.6858"><ele>47.0</ele><time>2026-04-19T15:06:32.884Z</time></trkpt><trkpt lat="43.9316667" lon="12.6859383"><ele>47.0</ele><time>2026-04-19T15:06:33.884Z</time></trkpt><trkpt lat="43.931775" lon="12.6860867"><ele>46.5</ele><time>2026-04-19T15:06:34.888Z</time></trkpt><trkpt lat="43.9318717" lon="12.6862517"><ele>46.0</ele><time>2026-04-19T15:06:35.887Z</time></trkpt><trkpt lat="43.9319483" lon="12.6864283"><ele>45.5</ele><time>2026-04-19T15:06:36.887Z</time></trkpt><trkpt lat="43.932005" lon="12.6866083"><ele>45.0</ele><time>2026-04-19T15:06:37.885Z</time></trkpt><trkpt lat="43.9320567" lon="12.6867817"><ele>44.75</ele><time>2026-04-19T15:06:38.884Z</time></trkpt><trkpt lat="43.93212" lon="12.686935"><ele>44.5</ele><time>2026-04-19T15:06:39.888Z</time></trkpt><trkpt lat="43.932205" lon="12.687065"><ele>44.25</ele><time>2026-04-19T15:06:40.889Z</time></trkpt><trkpt lat="43.932315" lon="12.6871733"><ele>44.0</ele><time>2026-04-19T15:06:41.888Z</time></trkpt><trkpt lat="43.932445" lon="12.68726"><ele>43.666666666666664</ele><time>2026-04-19T15:06:42.888Z</time></trkpt><trkpt lat="43.93259" lon="12.6873317"><ele>43.333333333333336</ele><time>2026-04-19T15:06:43.887Z</time></trkpt><trkpt lat="43.932745" lon="12.6874017"><ele>43.0</ele><time>2026-04-19T15:06:44.89Z</time></trkpt><trkpt lat="43.9328933" lon="12.6874917"><ele>43.0</ele><time>2026-04-19T15:06:45.887Z</time></trkpt><trkpt lat="43.93303" lon="12.6876183"><ele>43.0</ele><time>2026-04-19T15:06:46.888Z</time></trkpt><trkpt lat="43.9331533" lon="12.6877667"><ele>43.0</ele><time>2026-04-19T15:06:47.887Z</time></trkpt><trkpt lat="43.9332767" lon="12.68792"><ele>43.333333333333336</ele><time>2026-04-19T15:06:48.887Z</time></trkpt><trkpt lat="43.9334" lon="12.6880733"><ele>43.666666666666664</ele><time>2026-04-19T15:06:49.885Z</time></trkpt><trkpt lat="43.933525" lon="12.6882267"><ele>44.0</ele><time>2026-04-19T15:06:50.888Z</time></trkpt><trkpt lat="43.93365" lon="12.6883833"><ele>44.0</ele><time>2026-04-19T15:06:51.889Z</time></trkpt><trkpt lat="43.9337733" lon="12.6885367"><ele>44.0</ele><time>2026-04-19T15:06:52.89Z</time></trkpt><trkpt lat="43.9339" lon="12.6886917"><ele>44.0</ele><time>2026-04-19T15:06:53.884Z</time></trkpt><trkpt lat="43.9340233" lon="12.68885"><ele>43.0</ele><time>2026-04-19T15:06:54.889Z</time></trkpt><trkpt lat="43.9341467" lon="12.6890117"><ele>42.0</ele><time>2026-04-19T15:06:55.888Z</time></trkpt><trkpt lat="43.93427" lon="12.6891767"><ele>41.0</ele><time>2026-04-19T15:06:56.887Z</time></trkpt><trkpt lat="43.93439" lon="12.68934"><ele>41.0</ele><time>2026-04-19T15:06:57.887Z</time></trkpt><trkpt lat="43.9345083" lon="12.6895"><ele>41.0</ele><time>2026-04-19T15:06:58.888Z</time></trkpt><trkpt lat="43.934625" lon="12.689655"><ele>41.0</ele><time>2026-04-19T15:06:59.888Z</time></trkpt><trkpt lat="43.9347367" lon="12.68981"><ele>41.0</ele><time>2026-04-19T15:07:00.888Z</time></trkpt><trkpt lat="43.9348467" lon="12.689965"><ele>41.0</ele><time>2026-04-19T15:07:01.888Z</time></trkpt><trkpt lat="43.9349633" lon="12.6901217"><ele>41.0</ele><time>2026-04-19T15:07:02.889Z</time></trkpt><trkpt lat="43.9350833" lon="12.690285"><ele>40.666666666666664</ele><time>2026-04-19T15:07:03.885Z</time></trkpt><trkpt lat="43.9352017" lon="12.690445"><ele>40.333333333333336</ele><time>2026-04-19T15:07:04.885Z</time></trkpt><trkpt lat="43.9353183" lon="12.6906017"><ele>40.0</ele><time>2026-04-19T15:07:05.885Z</time></trkpt><trkpt lat="43.9354367" lon="12.69076"><ele>40.0</ele><time>2026-04-19T15:07:06.886Z</time></trkpt><trkpt lat="43.935555" lon="12.690925"><ele>40.0</ele><time>2026-04-19T15:07:07.885Z</time></trkpt><trkpt lat="43.935675" lon="12.6910883"><ele>40.0</ele><time>2026-04-19T15:07:08.887Z</time></trkpt><trkpt lat="43.9357933" lon="12.6912517"><ele>39.333333333333336</ele><time>2026-04-19T15:07:09.886Z</time></trkpt><trkpt lat="43.93591" lon="12.6914167"><ele>38.666666666666664</ele><time>2026-04-19T15:07:10.886Z</time></trkpt><trkpt lat="43.9360283" lon="12.69158"><ele>38.0</ele><time>2026-04-19T15:07:11.887Z</time></trkpt><trkpt lat="43.9361417" lon="12.6917367"><ele>38.0</ele><time>2026-04-19T15:07:12.885Z</time></trkpt><trkpt lat="43.9362483" lon="12.6918817"><ele>38.0</ele><time>2026-04-19T15:07:13.889Z</time></trkpt><trkpt lat="43.936355" lon="12.6920267"><ele>38.0</ele><time>2026-04-19T15:07:14.884Z</time></trkpt><trkpt lat="43.9364633" lon="12.6921733"><ele>38.0</ele><time>2026-04-19T15:07:15.885Z</time></trkpt><trkpt lat="43.93657" lon="12.69232"><ele>38.0</ele><time>2026-04-19T15:07:16.888Z</time></trkpt><trkpt lat="43.936675" lon="12.6924667"><ele>38.0</ele><time>2026-04-19T15:07:17.885Z</time></trkpt><trkpt lat="43.9367817" lon="12.6926117"><ele>38.0</ele><time>2026-04-19T15:07:18.887Z</time></trkpt><trkpt lat="43.9368883" lon="12.6927583"><ele>37.666666666666664</ele><time>2026-04-19T15:07:19.888Z</time></trkpt><trkpt lat="43.936995" lon="12.692905"><ele>37.333333333333336</ele><time>2026-04-19T15:07:20.891Z</time></trkpt><trkpt lat="43.9371017" lon="12.6930533"><ele>37.0</ele><time>2026-04-19T15:07:21.884Z</time></trkpt><trkpt lat="43.93721" lon="12.6932067"><ele>37.0</ele><time>2026-04-19T15:07:22.885Z</time></trkpt><trkpt lat="43.9373167" lon="12.6933683"><ele>37.0</ele><time>2026-04-19T15:07:23.888Z</time></trkpt><trkpt lat="43.9374183" lon="12.6935383"><ele>37.0</ele><time>2026-04-19T15:07:24.888Z</time></trkpt><trkpt lat="43.93752" lon="12.6937117"><ele>36.66666666666667</ele><time>2026-04-19T15:07:25.886Z</time></trkpt><trkpt lat="43.9376167" lon="12.69389"><ele>36.333333333333336</ele><time>2026-04-19T15:07:26.889Z</time></trkpt><trkpt lat="43.9377117" lon="12.6940717"><ele>36.0</ele><time>2026-04-19T15:07:27.887Z</time></trkpt><trkpt lat="43.937805" lon="12.69426"><ele>36.0</ele><time>2026-04-19T15:07:28.889Z</time></trkpt><trkpt lat="43.9378917" lon="12.6944533"><ele>36.0</ele><time>2026-04-19T15:07:29.885Z</time></trkpt><trkpt lat="43.9379717" lon="12.6946533"><ele>36.0</ele><time>2026-04-19T15:07:30.886Z</time></trkpt><trkpt lat="43.9380467" lon="12.6948583"><ele>36.0</ele><time>2026-04-19T15:07:31.886Z</time></trkpt><trkpt lat="43.938115" lon="12.695065"><ele>36.0</ele><time>2026-04-19T15:07:32.885Z</time></trkpt><trkpt lat="43.9381817" lon="12.6952767"><ele>36.0</ele><time>2026-04-19T15:07:33.885Z</time></trkpt><trkpt lat="43.9382433" lon="12.69549"><ele>36.0</ele><time>2026-04-19T15:07:34.887Z</time></trkpt><trkpt lat="43.9383017" lon="12.6957"><ele>36.0</ele><time>2026-04-19T15:07:35.888Z</time></trkpt><trkpt lat="43.9383517" lon="12.6959067"><ele>36.0</ele><time>2026-04-19T15:07:36.888Z</time></trkpt><trkpt lat="43.938395" lon="12.6961167"><ele>36.0</ele><time>2026-04-19T15:07:37.889Z</time></trkpt><trkpt lat="43.9384383" lon="12.6963333"><ele>36.0</ele><time>2026-04-19T15:07:38.889Z</time></trkpt><trkpt lat="43.9384833" lon="12.6965517"><ele>36.0</ele><time>2026-04-19T15:07:39.888Z</time></trkpt><trkpt lat="43.938525" lon="12.696775"><ele>35.666666666666664</ele><time>2026-04-19T15:07:40.888Z</time></trkpt><trkpt lat="43.938565" lon="12.6970033"><ele>35.33333333333333</ele><time>2026-04-19T15:07:41.889Z</time></trkpt><trkpt lat="43.9386067" lon="12.6972333"><ele>35.0</ele><time>2026-04-19T15:07:42.887Z</time></trkpt><trkpt lat="43.93865" lon="12.697465"><ele>35.0</ele><time>2026-04-19T15:07:43.892Z</time></trkpt><trkpt lat="43.9386967" lon="12.6976967"><ele>35.0</ele><time>2026-04-19T15:07:44.887Z</time></trkpt><trkpt lat="43.93874" lon="12.6979267"><ele>35.0</ele><time>2026-04-19T15:07:45.887Z</time></trkpt><trkpt lat="43.9387867" lon="12.698155"><ele>35.0</ele><time>2026-04-19T15:07:46.885Z</time></trkpt><trkpt lat="43.938835" lon="12.6983867"><ele>35.0</ele><time>2026-04-19T15:07:47.886Z</time></trkpt><trkpt lat="43.9388867" lon="12.6986183"><ele>35.0</ele><time>2026-04-19T15:07:48.886Z</time></trkpt><trkpt lat="43.9389367" lon="12.6988483"><ele>35.0</ele><time>2026-04-19T15:07:49.889Z</time></trkpt><trkpt lat="43.9389917" lon="12.69908"><ele>35.0</ele><time>2026-04-19T15:07:50.888Z</time></trkpt><trkpt lat="43.93905" lon="12.6993133"><ele>35.0</ele><time>2026-04-19T15:07:51.888Z</time></trkpt><trkpt lat="43.93911" lon="12.6995417"><ele>35.0</ele><time>2026-04-19T15:07:52.888Z</time></trkpt><trkpt lat="43.9391717" lon="12.6997667"><ele>35.0</ele><time>2026-04-19T15:07:53.884Z</time></trkpt><trkpt lat="43.93924" lon="12.6999883"><ele>35.0</ele><time>2026-04-19T15:07:54.889Z</time></trkpt><trkpt lat="43.9393083" lon="12.7002033"><ele>34.666666666666664</ele><time>2026-04-19T15:07:55.889Z</time></trkpt><trkpt lat="43.9393783" lon="12.70041"><ele>34.333333333333336</ele><time>2026-04-19T15:07:56.887Z</time></trkpt><trkpt lat="43.939445" lon="12.7006067"><ele>34.0</ele><time>2026-04-19T15:07:57.885Z</time></trkpt><trkpt lat="43.93951" lon="12.70079"><ele>34.0</ele><time>2026-04-19T15:07:58.889Z</time></trkpt><trkpt lat="43.9395717" lon="12.7009667"><ele>34.0</ele><time>2026-04-19T15:07:59.889Z</time></trkpt><trkpt lat="43.9396283" lon="12.7011367"><ele>34.0</ele><time>2026-04-19T15:08:00.888Z</time></trkpt><trkpt lat="43.9396767" lon="12.7013033"><ele>34.0</ele><time>2026-04-19T15:08:01.888Z</time></trkpt><trkpt lat="43.9397117" lon="12.7014717"><ele>34.0</ele><time>2026-04-19T15:08:02.884Z</time></trkpt><trkpt lat="43.9397383" lon="12.70164"><ele>34.0</ele><time>2026-04-19T15:08:03.888Z</time></trkpt><trkpt lat="43.93975" lon="12.7018033"><ele>34.0</ele><time>2026-04-19T15:08:04.889Z</time></trkpt><trkpt lat="43.9397517" lon="12.7019567"><ele>34.0</ele><time>2026-04-19T15:08:05.887Z</time></trkpt><trkpt lat="43.939755" lon="12.7021083"><ele>34.0</ele><time>2026-04-19T15:08:06.887Z</time></trkpt><trkpt lat="43.9397633" lon="12.70226"><ele>34.0</ele><time>2026-04-19T15:08:07.888Z</time></trkpt><trkpt lat="43.93979" lon="12.7024117"><ele>34.0</ele><time>2026-04-19T15:08:08.889Z</time></trkpt><trkpt lat="43.9398367" lon="12.7025567"><ele>34.0</ele><time>2026-04-19T15:08:09.887Z</time></trkpt><trkpt lat="43.9399033" lon="12.70269"><ele>33.75</ele><time>2026-04-19T15:08:10.89Z</time></trkpt><trkpt lat="43.9399883" lon="12.7028083"><ele>33.5</ele><time>2026-04-19T15:08:11.888Z</time></trkpt><trkpt lat="43.940085" lon="12.7029117"><ele>33.25</ele><time>2026-04-19T15:08:12.89Z</time></trkpt><trkpt lat="43.9401867" lon="12.7030067"><ele>33.0</ele><time>2026-04-19T15:08:13.888Z</time></trkpt><trkpt lat="43.9402833" lon="12.70311"><ele>33.0</ele><time>2026-04-19T15:08:14.889Z</time></trkpt><trkpt lat="43.94037" lon="12.7032283"><ele>33.0</ele><time>2026-04-19T15:08:15.889Z</time></trkpt><trkpt lat="43.9404417" lon="12.703365"><ele>33.0</ele><time>2026-04-19T15:08:16.887Z</time></trkpt><trkpt lat="43.9405033" lon="12.703505"><ele>33.0</ele><time>2026-04-19T15:08:17.887Z</time></trkpt><trkpt lat="43.940565" lon="12.70365"><ele>33.0</ele><time>2026-04-19T15:08:18.887Z</time></trkpt><trkpt lat="43.9406267" lon="12.7038033"><ele>33.0</ele><time>2026-04-19T15:08:19.888Z</time></trkpt><trkpt lat="43.9406883" lon="12.7039633"><ele>33.0</ele><time>2026-04-19T15:08:20.888Z</time></trkpt><trkpt lat="43.9407533" lon="12.7041267"><ele>33.0</ele><time>2026-04-19T15:08:21.888Z</time></trkpt><trkpt lat="43.9408217" lon="12.7042883"><ele>32.25</ele><time>2026-04-19T15:08:22.889Z</time></trkpt><trkpt lat="43.94089" lon="12.7044517"><ele>31.5</ele><time>2026-04-19T15:08:23.888Z</time></trkpt><trkpt lat="43.9409583" lon="12.7046183"><ele>30.75</ele><time>2026-04-19T15:08:24.889Z</time></trkpt><trkpt lat="43.941025" lon="12.7047817"><ele>30.0</ele><time>2026-04-19T15:08:25.888Z</time></trkpt><trkpt lat="43.94109" lon="12.7049433"><ele>30.0</ele><time>2026-04-19T15:08:26.889Z</time></trkpt><trkpt lat="43.9411517" lon="12.7051067"><ele>30.0</ele><time>2026-04-19T15:08:27.887Z</time></trkpt><trkpt lat="43.9412117" lon="12.7052667"><ele>30.0</ele><time>2026-04-19T15:08:28.889Z</time></trkpt><trkpt lat="43.9412683" lon="12.7054217"><ele>30.0</ele><time>2026-04-19T15:08:29.884Z</time></trkpt><trkpt lat="43.9413267" lon="12.7055683"><ele>29.5</ele><time>2026-04-19T15:08:30.889Z</time></trkpt><trkpt lat="43.941385" lon="12.7057133"><ele>29.0</ele><time>2026-04-19T15:08:31.887Z</time></trkpt><trkpt lat="43.9414433" lon="12.70586"><ele>28.5</ele><time>2026-04-19T15:08:32.888Z</time></trkpt><trkpt lat="43.9415" lon="12.706005"><ele>28.0</ele><time>2026-04-19T15:08:33.887Z</time></trkpt><trkpt lat="43.9415567" lon="12.7061517"><ele>28.0</ele><time>2026-04-19T15:08:34.888Z</time></trkpt><trkpt lat="43.941615" lon="12.7063033"><ele>28.0</ele><time>2026-04-19T15:08:35.885Z</time></trkpt><trkpt lat="43.9416767" lon="12.706455"><ele>28.0</ele><time>2026-04-19T15:08:36.889Z</time></trkpt><trkpt lat="43.94174" lon="12.7066167"><ele>28.0</ele><time>2026-04-19T15:08:37.887Z</time></trkpt><trkpt lat="43.941805" lon="12.7067767"><ele>28.25</ele><time>2026-04-19T15:08:38.888Z</time></trkpt><trkpt lat="43.9418667" lon="12.7069383"><ele>28.5</ele><time>2026-04-19T15:08:39.889Z</time></trkpt><trkpt lat="43.9419267" lon="12.7071"><ele>28.75</ele><time>2026-04-19T15:08:40.886Z</time></trkpt><trkpt lat="43.9419883" lon="12.7072617"><ele>29.0</ele><time>2026-04-19T15:08:41.886Z</time></trkpt><trkpt lat="43.9420517" lon="12.7074233"><ele>29.0</ele><time>2026-04-19T15:08:42.886Z</time></trkpt><trkpt lat="43.942115" lon="12.707585"><ele>29.0</ele><time>2026-04-19T15:08:43.886Z</time></trkpt><trkpt lat="43.9421783" lon="12.707745"><ele>29.0</ele><time>2026-04-19T15:08:44.886Z</time></trkpt><trkpt lat="43.9422433" lon="12.7079017"><ele>29.0</ele><time>2026-04-19T15:08:45.887Z</time></trkpt><trkpt lat="43.9423083" lon="12.7080533"><ele>28.75</ele><time>2026-04-19T15:08:46.888Z</time></trkpt><trkpt lat="43.94237" lon="12.7082033"><ele>28.5</ele><time>2026-04-19T15:08:47.888Z</time></trkpt><trkpt lat="43.9424333" lon="12.7083583"><ele>28.25</ele><time>2026-04-19T15:08:48.887Z</time></trkpt><trkpt lat="43.9424967" lon="12.7085117"><ele>28.0</ele><time>2026-04-19T15:08:49.885Z</time></trkpt><trkpt lat="43.9425617" lon="12.7086733"><ele>27.75</ele><time>2026-04-19T15:08:50.888Z</time></trkpt><trkpt lat="43.94263" lon="12.7088383"><ele>27.5</ele><time>2026-04-19T15:08:51.888Z</time></trkpt><trkpt lat="43.9426967" lon="12.70901"><ele>27.25</ele><time>2026-04-19T15:08:52.887Z</time></trkpt><trkpt lat="43.942765" lon="12.7091833"><ele>27.0</ele><time>2026-04-19T15:08:53.887Z</time></trkpt><trkpt lat="43.942835" lon="12.7093567"><ele>26.666666666666664</ele><time>2026-04-19T15:08:54.889Z</time></trkpt><trkpt lat="43.9429067" lon="12.7095317"><ele>26.333333333333332</ele><time>2026-04-19T15:08:55.889Z</time></trkpt><trkpt lat="43.9429783" lon="12.7097167"><ele>26.0</ele><time>2026-04-19T15:08:56.89Z</time></trkpt><trkpt lat="43.9430517" lon="12.7099067"><ele>26.0</ele><time>2026-04-19T15:08:57.886Z</time></trkpt><trkpt lat="43.9431267" lon="12.7101"><ele>26.0</ele><time>2026-04-19T15:08:58.886Z</time></trkpt><trkpt lat="43.943205" lon="12.7103"><ele>26.0</ele><time>2026-04-19T15:08:59.886Z</time></trkpt><trkpt lat="43.9432833" lon="12.7105033"><ele>25.666666666666664</ele><time>2026-04-19T15:09:00.889Z</time></trkpt><trkpt lat="43.9433633" lon="12.7107083"><ele>25.333333333333336</ele><time>2026-04-19T15:09:01.888Z</time></trkpt><trkpt lat="43.94344" lon="12.7109167"><ele>25.0</ele><time>2026-04-19T15:09:02.889Z</time></trkpt><trkpt lat="43.9435117" lon="12.7111267"><ele>25.0</ele><time>2026-04-19T15:09:03.888Z</time></trkpt><trkpt lat="43.94358" lon="12.7113383"><ele>25.0</ele><time>2026-04-19T15:09:04.888Z</time></trkpt><trkpt lat="43.9436417" lon="12.7115483"><ele>25.0</ele><time>2026-04-19T15:09:05.887Z</time></trkpt><trkpt lat="43.9436967" lon="12.7117467"><ele>25.25</ele><time>2026-04-19T15:09:06.887Z</time></trkpt><trkpt lat="43.9437467" lon="12.7119383"><ele>25.5</ele><time>2026-04-19T15:09:07.887Z</time></trkpt><trkpt lat="43.943795" lon="12.71213"><ele>25.75</ele><time>2026-04-19T15:09:08.889Z</time></trkpt><trkpt lat="43.9438367" lon="12.712325"><ele>26.0</ele><time>2026-04-19T15:09:09.889Z</time></trkpt><trkpt lat="43.9438767" lon="12.7125217"><ele>26.0</ele><time>2026-04-19T15:09:10.888Z</time></trkpt><trkpt lat="43.9439117" lon="12.7127183"><ele>26.0</ele><time>2026-04-19T15:09:11.888Z</time></trkpt><trkpt lat="43.943945" lon="12.7129183"><ele>26.0</ele><time>2026-04-19T15:09:12.887Z</time></trkpt><trkpt lat="43.943975" lon="12.71312"><ele>26.0</ele><time>2026-04-19T15:09:13.886Z</time></trkpt><trkpt lat="43.9439983" lon="12.7133267"><ele>25.75</ele><time>2026-04-19T15:09:14.889Z</time></trkpt><trkpt lat="43.9440167" lon="12.7135317"><ele>25.5</ele><time>2026-04-19T15:09:15.889Z</time></trkpt><trkpt lat="43.9440317" lon="12.713735"><ele>25.25</ele><time>2026-04-19T15:09:16.89Z</time></trkpt><trkpt lat="43.9440433" lon="12.713935"><ele>25.0</ele><time>2026-04-19T15:09:17.889Z</time></trkpt><trkpt lat="43.94405" lon="12.714125"><ele>25.0</ele><time>2026-04-19T15:09:18.888Z</time></trkpt><trkpt lat="43.9440567" lon="12.7143067"><ele>25.0</ele><time>2026-04-19T15:09:19.888Z</time></trkpt><trkpt lat="43.9440583" lon="12.7144867"><ele>25.0</ele><time>2026-04-19T15:09:20.885Z</time></trkpt><trkpt lat="43.9440567" lon="12.7146717"><ele>25.0</ele><time>2026-04-19T15:09:21.885Z</time></trkpt><trkpt lat="43.9440533" lon="12.7148517"><ele>25.0</ele><time>2026-04-19T15:09:22.889Z</time></trkpt><trkpt lat="43.9440517" lon="12.7150267"><ele>25.0</ele><time>2026-04-19T15:09:23.888Z</time></trkpt><trkpt lat="43.94405" lon="12.7152017"><ele>25.0</ele><time>2026-04-19T15:09:24.888Z</time></trkpt><trkpt lat="43.94405" lon="12.7153767"><ele>25.0</ele><time>2026-04-19T15:09:25.886Z</time></trkpt><trkpt lat="43.9440467" lon="12.7155467"><ele>25.0</ele><time>2026-04-19T15:09:26.888Z</time></trkpt><trkpt lat="43.9440433" lon="12.7157067"><ele>25.0</ele><time>2026-04-19T15:09:27.887Z</time></trkpt><trkpt lat="43.9440417" lon="12.7158567"><ele>25.0</ele><time>2026-04-19T15:09:28.887Z</time></trkpt><trkpt lat="43.94404" lon="12.7160017"><ele>25.0</ele><time>2026-04-19T15:09:29.887Z</time></trkpt><trkpt lat="43.9440367" lon="12.7161367"><ele>25.0</ele><time>2026-04-19T15:09:30.89Z</time></trkpt><trkpt lat="43.9440367" lon="12.716265"><ele>24.833333333333336</ele><time>2026-04-19T15:09:31.888Z</time></trkpt><trkpt lat="43.9440317" lon="12.7163867"><ele>24.666666666666668</ele><time>2026-04-19T15:09:32.889Z</time></trkpt><trkpt lat="43.9440233" lon="12.716505"><ele>24.5</ele><time>2026-04-19T15:09:33.889Z</time></trkpt><trkpt lat="43.9440133" lon="12.7166183"><ele>24.333333333333336</ele><time>2026-04-19T15:09:34.889Z</time></trkpt><trkpt lat="43.9439983" lon="12.716725"><ele>24.166666666666668</ele><time>2026-04-19T15:09:35.889Z</time></trkpt><trkpt lat="43.94398" lon="12.71682"><ele>24.0</ele><time>2026-04-19T15:09:36.887Z</time></trkpt><trkpt lat="43.9439383" lon="12.716965"><ele>23.857142857142854</ele><time>2026-04-19T15:09:38.886Z</time></trkpt><trkpt lat="43.943905" lon="12.7170517"><ele>23.714285714285715</ele><time>2026-04-19T15:09:40.889Z</time></trkpt><trkpt lat="43.94387" lon="12.7171383"><ele>23.57142857142857</ele><time>2026-04-19T15:09:44.887Z</time></trkpt><trkpt lat="43.9438317" lon="12.7172083"><ele>23.428571428571427</ele><time>2026-04-19T15:09:48.888Z</time></trkpt><trkpt lat="43.9437833" lon="12.717295"><ele>23.285714285714285</ele><time>2026-04-19T15:09:50.889Z</time></trkpt><trkpt lat="43.9437367" lon="12.7173767"><ele>23.142857142857142</ele><time>2026-04-19T15:09:51.889Z</time></trkpt><trkpt lat="43.9436883" lon="12.7174783"><ele>23.0</ele><time>2026-04-19T15:09:52.889Z</time></trkpt><trkpt lat="43.9436567" lon="12.7176017"><ele>23.166666666666668</ele><time>2026-04-19T15:09:53.888Z</time></trkpt><trkpt lat="43.9436483" lon="12.7177383"><ele>23.333333333333336</ele><time>2026-04-19T15:09:54.889Z</time></trkpt><trkpt lat="43.9436683" lon="12.717865"><ele>23.5</ele><time>2026-04-19T15:09:55.888Z</time></trkpt><trkpt lat="43.943715" lon="12.717975"><ele>23.666666666666668</ele><time>2026-04-19T15:09:56.889Z</time></trkpt><trkpt lat="43.943775" lon="12.71806"><ele>23.833333333333332</ele><time>2026-04-19T15:09:57.888Z</time></trkpt><trkpt lat="43.9438417" lon="12.7181167"><ele>24.0</ele><time>2026-04-19T15:09:58.889Z</time></trkpt><trkpt lat="43.9439167" lon="12.7181533"><ele>24.0</ele><time>2026-04-19T15:09:59.888Z</time></trkpt><trkpt lat="43.943995" lon="12.71817"><ele>24.0</ele><time>2026-04-19T15:10:00.889Z</time></trkpt><trkpt lat="43.9440733" lon="12.7181783"><ele>24.0</ele><time>2026-04-19T15:10:01.889Z</time></trkpt><trkpt lat="43.9441483" lon="12.7181883"><ele>24.0</ele><time>2026-04-19T15:10:02.888Z</time></trkpt><trkpt lat="43.94422" lon="12.7182017"><ele>24.0</ele><time>2026-04-19T15:10:03.888Z</time></trkpt><trkpt lat="43.944295" lon="12.7182233"><ele>24.0</ele><time>2026-04-19T15:10:04.887Z</time></trkpt><trkpt lat="43.9443783" lon="12.71825"><ele>24.2</ele><time>2026-04-19T15:10:05.885Z</time></trkpt><trkpt lat="43.94447" lon="12.718285"><ele>24.4</ele><time>2026-04-19T15:10:06.889Z</time></trkpt><trkpt lat="43.94457" lon="12.7183283"><ele>24.6</ele><time>2026-04-19T15:10:07.888Z</time></trkpt><trkpt lat="43.94467" lon="12.7183833"><ele>24.8</ele><time>2026-04-19T15:10:08.886Z</time></trkpt><trkpt lat="43.94477" lon="12.7184483"><ele>25.0</ele><time>2026-04-19T15:10:09.887Z</time></trkpt><trkpt lat="43.9448683" lon="12.718525"><ele>25.0</ele><time>2026-04-19T15:10:10.888Z</time></trkpt><trkpt lat="43.9449667" lon="12.7186083"><ele>25.0</ele><time>2026-04-19T15:10:11.888Z</time></trkpt><trkpt lat="43.9450583" lon="12.7187"><ele>25.0</ele><time>2026-04-19T15:10:12.887Z</time></trkpt><trkpt lat="43.9451517" lon="12.7187883"><ele>25.0</ele><time>2026-04-19T15:10:13.889Z</time></trkpt><trkpt lat="43.9452433" lon="12.7188817"><ele>25.25</ele><time>2026-04-19T15:10:14.885Z</time></trkpt><trkpt lat="43.94534" lon="12.718975"><ele>25.5</ele><time>2026-04-19T15:10:15.889Z</time></trkpt><trkpt lat="43.9454433" lon="12.719075"><ele>25.75</ele><time>2026-04-19T15:10:16.886Z</time></trkpt><trkpt lat="43.9455483" lon="12.7191767"><ele>26.0</ele><time>2026-04-19T15:10:17.887Z</time></trkpt><trkpt lat="43.9456583" lon="12.71928"><ele>26.0</ele><time>2026-04-19T15:10:18.887Z</time></trkpt><trkpt lat="43.945765" lon="12.7193883"><ele>26.0</ele><time>2026-04-19T15:10:19.888Z</time></trkpt><trkpt lat="43.94587" lon="12.719495"><ele>26.0</ele><time>2026-04-19T15:10:20.884Z</time></trkpt><trkpt lat="43.9459767" lon="12.7196017"><ele>26.0</ele><time>2026-04-19T15:10:21.884Z</time></trkpt><trkpt lat="43.9460833" lon="12.719705"><ele>25.5</ele><time>2026-04-19T15:10:22.889Z</time></trkpt><trkpt lat="43.9461867" lon="12.7198117"><ele>25.0</ele><time>2026-04-19T15:10:23.885Z</time></trkpt><trkpt lat="43.9462917" lon="12.7199183"><ele>24.5</ele><time>2026-04-19T15:10:24.888Z</time></trkpt><trkpt lat="43.9463967" lon="12.7200267"><ele>24.0</ele><time>2026-04-19T15:10:25.886Z</time></trkpt><trkpt lat="43.946505" lon="12.7201283"><ele>24.0</ele><time>2026-04-19T15:10:26.884Z</time></trkpt><trkpt lat="43.9466067" lon="12.7202267"><ele>24.0</ele><time>2026-04-19T15:10:27.885Z</time></trkpt><trkpt lat="43.9467033" lon="12.720315"><ele>24.0</ele><time>2026-04-19T15:10:28.887Z</time></trkpt><trkpt lat="43.9467967" lon="12.7204067"><ele>24.0</ele><time>2026-04-19T15:10:29.886Z</time></trkpt><trkpt lat="43.9468867" lon="12.7205"><ele>24.0</ele><time>2026-04-19T15:10:30.887Z</time></trkpt><trkpt lat="43.946975" lon="12.7205883"><ele>24.0</ele><time>2026-04-19T15:10:31.888Z</time></trkpt><trkpt lat="43.94706" lon="12.7206733"><ele>24.0</ele><time>2026-04-19T15:10:32.889Z</time></trkpt><trkpt lat="43.9471433" lon="12.720755"><ele>24.0</ele><time>2026-04-19T15:10:33.885Z</time></trkpt><trkpt lat="43.9472183" lon="12.72083"><ele>24.0</ele><time>2026-04-19T15:10:34.887Z</time></trkpt></trkseg></trk></gpx>